<?xml version="1.0" encoding="UTF-8" standalone="no" ?>
<gpx xmlns="http://www.topografix.com/GPX/1/1" xmlns:xsi="http://www.w3.org/2001/XMLSchema-instance" xsi:schemaLocation="http://www.topografix.com/GPX/1/1 http://www.topografix.com/GPX/1/1/gpx.xsd" version="1.1" creator="VisuGPX - https://www.visugpx.com">
  <metadata>
    <name>Gravel départ Quimperlé</name>
  </metadata>
  <trk>
    <name><![CDATA[Gravel départ Quimperlé_1]]></name>
    <trkseg>
      <trkpt lat="47.70247" lon="-3.42181">
        <ele>11.3</ele>
        <time>2021-11-16T12:43:48.000Z</time>
      </trkpt>
      <trkpt lat="47.70252" lon="-3.42196">
        <ele>12.9</ele>
        <time>2021-11-16T12:43:51.000Z</time>
      </trkpt>
      <trkpt lat="47.70263" lon="-3.42204">
        <ele>10.9</ele>
        <time>2021-11-16T12:43:54.000Z</time>
      </trkpt>
      <trkpt lat="47.70271" lon="-3.42213">
        <ele>13</ele>
        <time>2021-11-16T12:43:57.000Z</time>
      </trkpt>
      <trkpt lat="47.7028" lon="-3.42214">
        <ele>12.7</ele>
        <time>2021-11-16T12:44:00.000Z</time>
      </trkpt>
      <trkpt lat="47.70289" lon="-3.42218">
        <ele>12.3</ele>
        <time>2021-11-16T12:44:03.000Z</time>
      </trkpt>
      <trkpt lat="47.703" lon="-3.42224">
        <ele>11.9</ele>
        <time>2021-11-16T12:44:06.000Z</time>
      </trkpt>
      <trkpt lat="47.70308" lon="-3.42236">
        <ele>11.8</ele>
        <time>2021-11-16T12:44:09.000Z</time>
      </trkpt>
      <trkpt lat="47.70315" lon="-3.42251">
        <ele>11.8</ele>
        <time>2021-11-16T12:44:12.000Z</time>
      </trkpt>
      <trkpt lat="47.70324" lon="-3.42266">
        <ele>13.4</ele>
        <time>2021-11-16T12:44:15.000Z</time>
      </trkpt>
      <trkpt lat="47.70335" lon="-3.42274">
        <ele>12.2</ele>
        <time>2021-11-16T12:44:18.000Z</time>
      </trkpt>
      <trkpt lat="47.70343" lon="-3.42276">
        <ele>12.8</ele>
        <time>2021-11-16T12:44:21.000Z</time>
      </trkpt>
      <trkpt lat="47.70351" lon="-3.42283">
        <ele>11.6</ele>
        <time>2021-11-16T12:44:24.000Z</time>
      </trkpt>
      <trkpt lat="47.70361" lon="-3.42291">
        <ele>12.5</ele>
        <time>2021-11-16T12:44:27.000Z</time>
      </trkpt>
      <trkpt lat="47.70373" lon="-3.423">
        <ele>12.3</ele>
        <time>2021-11-16T12:44:30.000Z</time>
      </trkpt>
      <trkpt lat="47.70386" lon="-3.4231">
        <ele>12.6</ele>
        <time>2021-11-16T12:44:33.000Z</time>
      </trkpt>
      <trkpt lat="47.70398" lon="-3.4232">
        <ele>14</ele>
        <time>2021-11-16T12:44:36.000Z</time>
      </trkpt>
      <trkpt lat="47.70411" lon="-3.42331">
        <ele>13.2</ele>
        <time>2021-11-16T12:44:39.000Z</time>
      </trkpt>
      <trkpt lat="47.70424" lon="-3.4234">
        <ele>11.4</ele>
        <time>2021-11-16T12:44:42.000Z</time>
      </trkpt>
      <trkpt lat="47.70439" lon="-3.42344">
        <ele>11.7</ele>
        <time>2021-11-16T12:44:45.000Z</time>
      </trkpt>
      <trkpt lat="47.70453" lon="-3.42358">
        <ele>11.3</ele>
        <time>2021-11-16T12:44:48.000Z</time>
      </trkpt>
      <trkpt lat="47.70468" lon="-3.42376">
        <ele>9.8</ele>
        <time>2021-11-16T12:44:51.000Z</time>
      </trkpt>
      <trkpt lat="47.70479" lon="-3.42397">
        <ele>9.4</ele>
        <time>2021-11-16T12:44:54.000Z</time>
      </trkpt>
      <trkpt lat="47.70486" lon="-3.42418">
        <ele>10.7</ele>
        <time>2021-11-16T12:44:57.000Z</time>
      </trkpt>
      <trkpt lat="47.70494" lon="-3.42439">
        <ele>10.6</ele>
        <time>2021-11-16T12:45:00.000Z</time>
      </trkpt>
      <trkpt lat="47.70498" lon="-3.4246">
        <ele>11.8</ele>
        <time>2021-11-16T12:45:03.000Z</time>
      </trkpt>
      <trkpt lat="47.70502" lon="-3.42483">
        <ele>10.3</ele>
        <time>2021-11-16T12:45:06.000Z</time>
      </trkpt>
      <trkpt lat="47.70507" lon="-3.42505">
        <ele>10.9</ele>
        <time>2021-11-16T12:45:09.000Z</time>
      </trkpt>
      <trkpt lat="47.70511" lon="-3.42529">
        <ele>10.2</ele>
        <time>2021-11-16T12:45:12.000Z</time>
      </trkpt>
      <trkpt lat="47.70514" lon="-3.42552">
        <ele>10.6</ele>
        <time>2021-11-16T12:45:15.000Z</time>
      </trkpt>
      <trkpt lat="47.70518" lon="-3.42571">
        <ele>12.5</ele>
        <time>2021-11-16T12:45:18.000Z</time>
      </trkpt>
      <trkpt lat="47.70523" lon="-3.4258">
        <ele>12.5</ele>
        <time>2021-11-16T12:45:21.000Z</time>
      </trkpt>
      <trkpt lat="47.70527" lon="-3.4258">
        <ele>12.3</ele>
        <time>2021-11-16T12:45:24.000Z</time>
      </trkpt>
      <trkpt lat="47.70532" lon="-3.42584">
        <ele>11.8</ele>
        <time>2021-11-16T12:45:27.000Z</time>
      </trkpt>
      <trkpt lat="47.70541" lon="-3.42587">
        <ele>11.2</ele>
        <time>2021-11-16T12:45:30.000Z</time>
      </trkpt>
      <trkpt lat="47.7055" lon="-3.4259">
        <ele>12</ele>
        <time>2021-11-16T12:45:33.000Z</time>
      </trkpt>
      <trkpt lat="47.70554" lon="-3.42598">
        <ele>12.4</ele>
        <time>2021-11-16T12:45:36.000Z</time>
      </trkpt>
      <trkpt lat="47.70552" lon="-3.42614">
        <ele>10.9</ele>
        <time>2021-11-16T12:45:39.000Z</time>
      </trkpt>
      <trkpt lat="47.70546" lon="-3.42631">
        <ele>10</ele>
        <time>2021-11-16T12:45:42.000Z</time>
      </trkpt>
      <trkpt lat="47.7054" lon="-3.42651">
        <ele>9.9</ele>
        <time>2021-11-16T12:45:45.000Z</time>
      </trkpt>
      <trkpt lat="47.70536" lon="-3.42672">
        <ele>11.2</ele>
        <time>2021-11-16T12:45:48.000Z</time>
      </trkpt>
      <trkpt lat="47.70533" lon="-3.42693">
        <ele>10.2</ele>
        <time>2021-11-16T12:45:51.000Z</time>
      </trkpt>
      <trkpt lat="47.7053" lon="-3.42713">
        <ele>10.4</ele>
        <time>2021-11-16T12:45:54.000Z</time>
      </trkpt>
      <trkpt lat="47.70527" lon="-3.42731">
        <ele>10.5</ele>
        <time>2021-11-16T12:45:57.000Z</time>
      </trkpt>
      <trkpt lat="47.70524" lon="-3.42751">
        <ele>10.4</ele>
        <time>2021-11-16T12:46:00.000Z</time>
      </trkpt>
      <trkpt lat="47.70522" lon="-3.42772">
        <ele>10.9</ele>
        <time>2021-11-16T12:46:03.000Z</time>
      </trkpt>
      <trkpt lat="47.70519" lon="-3.42793">
        <ele>10.6</ele>
        <time>2021-11-16T12:46:06.000Z</time>
      </trkpt>
      <trkpt lat="47.70517" lon="-3.42815">
        <ele>9.9</ele>
        <time>2021-11-16T12:46:09.000Z</time>
      </trkpt>
      <trkpt lat="47.70517" lon="-3.42839">
        <ele>9.9</ele>
        <time>2021-11-16T12:46:12.000Z</time>
      </trkpt>
      <trkpt lat="47.70515" lon="-3.42864">
        <ele>11.3</ele>
        <time>2021-11-16T12:46:15.000Z</time>
      </trkpt>
      <trkpt lat="47.70511" lon="-3.42888">
        <ele>10.4</ele>
        <time>2021-11-16T12:46:18.000Z</time>
      </trkpt>
      <trkpt lat="47.70508" lon="-3.42913">
        <ele>10</ele>
        <time>2021-11-16T12:46:21.000Z</time>
      </trkpt>
      <trkpt lat="47.70504" lon="-3.42938">
        <ele>11.1</ele>
        <time>2021-11-16T12:46:24.000Z</time>
      </trkpt>
      <trkpt lat="47.70501" lon="-3.42963">
        <ele>9.5</ele>
        <time>2021-11-16T12:46:27.000Z</time>
      </trkpt>
      <trkpt lat="47.70498" lon="-3.42989">
        <ele>8.2</ele>
        <time>2021-11-16T12:46:30.000Z</time>
      </trkpt>
      <trkpt lat="47.70494" lon="-3.43014">
        <ele>9.8</ele>
        <time>2021-11-16T12:46:33.000Z</time>
      </trkpt>
      <trkpt lat="47.7049" lon="-3.43039">
        <ele>8.7</ele>
        <time>2021-11-16T12:46:36.000Z</time>
      </trkpt>
      <trkpt lat="47.70487" lon="-3.43064">
        <ele>9.9</ele>
        <time>2021-11-16T12:46:39.000Z</time>
      </trkpt>
      <trkpt lat="47.70482" lon="-3.43087">
        <ele>9.8</ele>
        <time>2021-11-16T12:46:42.000Z</time>
      </trkpt>
      <trkpt lat="47.70478" lon="-3.43111">
        <ele>9.5</ele>
        <time>2021-11-16T12:46:45.000Z</time>
      </trkpt>
      <trkpt lat="47.70476" lon="-3.43135">
        <ele>9.7</ele>
        <time>2021-11-16T12:46:48.000Z</time>
      </trkpt>
      <trkpt lat="47.70476" lon="-3.43156">
        <ele>9.8</ele>
        <time>2021-11-16T12:46:51.000Z</time>
      </trkpt>
      <trkpt lat="47.70472" lon="-3.4317">
        <ele>10.2</ele>
        <time>2021-11-16T12:46:54.000Z</time>
      </trkpt>
      <trkpt lat="47.7046" lon="-3.43164">
        <ele>12.4</ele>
        <time>2021-11-16T12:46:57.000Z</time>
      </trkpt>
      <trkpt lat="47.70452" lon="-3.43148">
        <ele>12.9</ele>
        <time>2021-11-16T12:47:00.000Z</time>
      </trkpt>
      <trkpt lat="47.70445" lon="-3.4313">
        <ele>12.9</ele>
        <time>2021-11-16T12:47:03.000Z</time>
      </trkpt>
      <trkpt lat="47.70438" lon="-3.43114">
        <ele>11.8</ele>
        <time>2021-11-16T12:47:06.000Z</time>
      </trkpt>
      <trkpt lat="47.7043" lon="-3.43104">
        <ele>12.1</ele>
        <time>2021-11-16T12:47:09.000Z</time>
      </trkpt>
      <trkpt lat="47.7042" lon="-3.43114">
        <ele>11.5</ele>
        <time>2021-11-16T12:47:12.000Z</time>
      </trkpt>
      <trkpt lat="47.70412" lon="-3.43124">
        <ele>12.1</ele>
        <time>2021-11-16T12:47:15.000Z</time>
      </trkpt>
      <trkpt lat="47.70402" lon="-3.43122">
        <ele>11.2</ele>
        <time>2021-11-16T12:47:18.000Z</time>
      </trkpt>
      <trkpt lat="47.70393" lon="-3.43118">
        <ele>12.7</ele>
        <time>2021-11-16T12:47:21.000Z</time>
      </trkpt>
      <trkpt lat="47.70388" lon="-3.4313">
        <ele>12.5</ele>
        <time>2021-11-16T12:47:24.000Z</time>
      </trkpt>
      <trkpt lat="47.70385" lon="-3.43143">
        <ele>14</ele>
        <time>2021-11-16T12:47:27.000Z</time>
      </trkpt>
      <trkpt lat="47.70381" lon="-3.43157">
        <ele>14.9</ele>
        <time>2021-11-16T12:47:30.000Z</time>
      </trkpt>
      <trkpt lat="47.70378" lon="-3.43172">
        <ele>14.8</ele>
        <time>2021-11-16T12:47:33.000Z</time>
      </trkpt>
      <trkpt lat="47.70375" lon="-3.43187">
        <ele>14.4</ele>
        <time>2021-11-16T12:47:36.000Z</time>
      </trkpt>
      <trkpt lat="47.70377" lon="-3.43202">
        <ele>15.2</ele>
        <time>2021-11-16T12:47:39.000Z</time>
      </trkpt>
      <trkpt lat="47.70379" lon="-3.43216">
        <ele>15.4</ele>
        <time>2021-11-16T12:47:42.000Z</time>
      </trkpt>
      <trkpt lat="47.70378" lon="-3.43225">
        <ele>16</ele>
        <time>2021-11-16T12:47:45.000Z</time>
      </trkpt>
      <trkpt lat="47.70371" lon="-3.43222">
        <ele>15.1</ele>
        <time>2021-11-16T12:47:48.000Z</time>
      </trkpt>
      <trkpt lat="47.70362" lon="-3.4322">
        <ele>16.8</ele>
        <time>2021-11-16T12:47:51.000Z</time>
      </trkpt>
      <trkpt lat="47.70355" lon="-3.43218">
        <ele>16.2</ele>
        <time>2021-11-16T12:47:54.000Z</time>
      </trkpt>
      <trkpt lat="47.70346" lon="-3.43216">
        <ele>16.6</ele>
        <time>2021-11-16T12:47:57.000Z</time>
      </trkpt>
      <trkpt lat="47.70334" lon="-3.43213">
        <ele>14.8</ele>
        <time>2021-11-16T12:48:00.000Z</time>
      </trkpt>
      <trkpt lat="47.7032" lon="-3.43201">
        <ele>13.3</ele>
        <time>2021-11-16T12:48:03.000Z</time>
      </trkpt>
      <trkpt lat="47.70304" lon="-3.43189">
        <ele>14.7</ele>
        <time>2021-11-16T12:48:06.000Z</time>
      </trkpt>
      <trkpt lat="47.70288" lon="-3.43178">
        <ele>12.2</ele>
        <time>2021-11-16T12:48:09.000Z</time>
      </trkpt>
      <trkpt lat="47.70272" lon="-3.43165">
        <ele>10.4</ele>
        <time>2021-11-16T12:48:12.000Z</time>
      </trkpt>
      <trkpt lat="47.70255" lon="-3.43152">
        <ele>10.8</ele>
        <time>2021-11-16T12:48:15.000Z</time>
      </trkpt>
      <trkpt lat="47.70239" lon="-3.43145">
        <ele>11.1</ele>
        <time>2021-11-16T12:48:18.000Z</time>
      </trkpt>
      <trkpt lat="47.70225" lon="-3.43149">
        <ele>11.9</ele>
        <time>2021-11-16T12:48:21.000Z</time>
      </trkpt>
      <trkpt lat="47.70213" lon="-3.43161">
        <ele>11.2</ele>
        <time>2021-11-16T12:48:24.000Z</time>
      </trkpt>
      <trkpt lat="47.70205" lon="-3.43181">
        <ele>11.3</ele>
        <time>2021-11-16T12:48:27.000Z</time>
      </trkpt>
    </trkseg>
  </trk>
  <trk>
    <name><![CDATA[Gravel départ Quimperlé_2]]></name>
    <trkseg>
      <trkpt lat="47.87425" lon="-3.54613">
        <ele>9.4</ele>
        <time>2021-11-16T14:34:49.000Z</time>
      </trkpt>
      <trkpt lat="47.87425" lon="-3.54613">
        <ele>9.4</ele>
        <time>2021-11-16T14:34:49.000Z</time>
      </trkpt>
      <trkpt lat="47.87424" lon="-3.54614">
        <ele>9.2</ele>
        <time>2021-11-16T14:34:52.000Z</time>
      </trkpt>
      <trkpt lat="47.87424" lon="-3.54616">
        <ele>9.2</ele>
        <time>2021-11-16T14:34:55.000Z</time>
      </trkpt>
      <trkpt lat="47.87424" lon="-3.54615">
        <ele>9.3</ele>
        <time>2021-11-16T14:34:57.000Z</time>
      </trkpt>
      <trkpt lat="47.87424" lon="-3.54614">
        <ele>9.7</ele>
        <time>2021-11-16T14:34:59.000Z</time>
      </trkpt>
      <trkpt lat="47.87424" lon="-3.54614">
        <ele>9.3</ele>
        <time>2021-11-16T14:35:02.000Z</time>
      </trkpt>
      <trkpt lat="47.87424" lon="-3.54614">
        <ele>9.1</ele>
        <time>2021-11-16T14:35:05.000Z</time>
      </trkpt>
      <trkpt lat="47.87424" lon="-3.54613">
        <ele>9.4</ele>
        <time>2021-11-16T14:35:08.000Z</time>
      </trkpt>
      <trkpt lat="47.87424" lon="-3.54612">
        <ele>9.3</ele>
        <time>2021-11-16T14:35:10.000Z</time>
      </trkpt>
      <trkpt lat="47.87423" lon="-3.54612">
        <ele>9.5</ele>
        <time>2021-11-16T14:35:12.000Z</time>
      </trkpt>
      <trkpt lat="47.87423" lon="-3.54612">
        <ele>9.6</ele>
        <time>2021-11-16T14:35:14.000Z</time>
      </trkpt>
      <trkpt lat="47.87423" lon="-3.54612">
        <ele>9.4</ele>
        <time>2021-11-16T14:35:17.000Z</time>
      </trkpt>
      <trkpt lat="47.87423" lon="-3.54612">
        <ele>9.1</ele>
        <time>2021-11-16T14:35:20.000Z</time>
      </trkpt>
      <trkpt lat="47.87423" lon="-3.54611">
        <ele>14.3</ele>
        <time>2021-11-16T14:35:23.000Z</time>
      </trkpt>
      <trkpt lat="47.87423" lon="-3.54611">
        <ele>10.7</ele>
        <time>2021-11-16T14:35:25.000Z</time>
      </trkpt>
      <trkpt lat="47.87423" lon="-3.54611">
        <ele>9.8</ele>
        <time>2021-11-16T14:35:26.000Z</time>
      </trkpt>
      <trkpt lat="47.87423" lon="-3.54612">
        <ele>9.8</ele>
        <time>2021-11-16T14:35:28.000Z</time>
      </trkpt>
      <trkpt lat="47.87423" lon="-3.54611">
        <ele>9.3</ele>
        <time>2021-11-16T14:35:29.000Z</time>
      </trkpt>
      <trkpt lat="47.87424" lon="-3.54609">
        <ele>9.3</ele>
        <time>2021-11-16T14:35:32.000Z</time>
      </trkpt>
      <trkpt lat="47.87424" lon="-3.54607">
        <ele>9</ele>
        <time>2021-11-16T14:35:35.000Z</time>
      </trkpt>
      <trkpt lat="47.87424" lon="-3.54607">
        <ele>9.1</ele>
        <time>2021-11-16T14:35:36.000Z</time>
      </trkpt>
      <trkpt lat="47.87424" lon="-3.54607">
        <ele>9.2</ele>
        <time>2021-11-16T14:35:37.000Z</time>
      </trkpt>
      <trkpt lat="47.87424" lon="-3.54605">
        <ele>9.4</ele>
        <time>2021-11-16T14:35:40.000Z</time>
      </trkpt>
      <trkpt lat="47.87424" lon="-3.54605">
        <ele>9.4</ele>
        <time>2021-11-16T14:35:41.000Z</time>
      </trkpt>
      <trkpt lat="47.87424" lon="-3.54604">
        <ele>9.4</ele>
        <time>2021-11-16T14:35:44.000Z</time>
      </trkpt>
      <trkpt lat="47.87424" lon="-3.54604">
        <ele>9.4</ele>
        <time>2021-11-16T14:35:45.000Z</time>
      </trkpt>
      <trkpt lat="47.87424" lon="-3.54604">
        <ele>9.4</ele>
        <time>2021-11-16T14:35:48.000Z</time>
      </trkpt>
      <trkpt lat="47.87424" lon="-3.54604">
        <ele>9.3</ele>
        <time>2021-11-16T14:35:49.000Z</time>
      </trkpt>
      <trkpt lat="47.87424" lon="-3.54604">
        <ele>9.3</ele>
        <time>2021-11-16T14:35:49.000Z</time>
      </trkpt>
      <trkpt lat="47.87428" lon="-3.54608">
        <ele>18.7</ele>
        <time>2021-11-16T09:32:32.000Z</time>
      </trkpt>
      <trkpt lat="47.87428" lon="-3.54608">
        <ele>18.7</ele>
        <time>2021-11-16T09:32:32.000Z</time>
      </trkpt>
      <trkpt lat="47.87428" lon="-3.54608">
        <ele>18.7</ele>
        <time>2021-11-16T09:32:33.000Z</time>
      </trkpt>
      <trkpt lat="47.87428" lon="-3.54607">
        <ele>18.6</ele>
        <time>2021-11-16T09:32:35.000Z</time>
      </trkpt>
      <trkpt lat="47.8743" lon="-3.54601">
        <ele>18.8</ele>
        <time>2021-11-16T09:32:38.000Z</time>
      </trkpt>
      <trkpt lat="47.87429" lon="-3.54592">
        <ele>18.3</ele>
        <time>2021-11-16T09:32:41.000Z</time>
      </trkpt>
      <trkpt lat="47.87426" lon="-3.54583">
        <ele>18.1</ele>
        <time>2021-11-16T09:32:44.000Z</time>
      </trkpt>
      <trkpt lat="47.87425" lon="-3.54579">
        <ele>18.7</ele>
        <time>2021-11-16T09:32:47.000Z</time>
      </trkpt>
      <trkpt lat="47.87425" lon="-3.54578">
        <ele>18.7</ele>
        <time>2021-11-16T09:32:50.000Z</time>
      </trkpt>
      <trkpt lat="47.87425" lon="-3.54578">
        <ele>18.6</ele>
        <time>2021-11-16T09:32:51.000Z</time>
      </trkpt>
      <trkpt lat="47.87425" lon="-3.54578">
        <ele>18.4</ele>
        <time>2021-11-16T09:32:54.000Z</time>
      </trkpt>
      <trkpt lat="47.87425" lon="-3.54578">
        <ele>18.5</ele>
        <time>2021-11-16T09:32:57.000Z</time>
      </trkpt>
      <trkpt lat="47.87425" lon="-3.54578">
        <ele>18.3</ele>
        <time>2021-11-16T09:33:00.000Z</time>
      </trkpt>
      <trkpt lat="47.87425" lon="-3.54578">
        <ele>18.6</ele>
        <time>2021-11-16T09:33:03.000Z</time>
      </trkpt>
      <trkpt lat="47.87425" lon="-3.54578">
        <ele>18.5</ele>
        <time>2021-11-16T09:33:06.000Z</time>
      </trkpt>
      <trkpt lat="47.87425" lon="-3.54578">
        <ele>18.7</ele>
        <time>2021-11-16T09:33:09.000Z</time>
      </trkpt>
      <trkpt lat="47.87425" lon="-3.54578">
        <ele>18.5</ele>
        <time>2021-11-16T09:33:12.000Z</time>
      </trkpt>
      <trkpt lat="47.87425" lon="-3.54578">
        <ele>18.4</ele>
        <time>2021-11-16T09:33:15.000Z</time>
      </trkpt>
      <trkpt lat="47.87425" lon="-3.54578">
        <ele>18.4</ele>
        <time>2021-11-16T09:33:15.000Z</time>
      </trkpt>
      <trkpt lat="47.87425" lon="-3.54578">
        <ele>18.6</ele>
        <time>2021-11-16T09:33:18.000Z</time>
      </trkpt>
      <trkpt lat="47.87425" lon="-3.54578">
        <ele>18.6</ele>
        <time>2021-11-16T09:33:21.000Z</time>
      </trkpt>
      <trkpt lat="47.87425" lon="-3.54578">
        <ele>18.6</ele>
        <time>2021-11-16T09:33:24.000Z</time>
      </trkpt>
      <trkpt lat="47.87425" lon="-3.54578">
        <ele>18.2</ele>
        <time>2021-11-16T09:33:27.000Z</time>
      </trkpt>
      <trkpt lat="47.87425" lon="-3.54578">
        <ele>18.4</ele>
        <time>2021-11-16T09:33:30.000Z</time>
      </trkpt>
      <trkpt lat="47.87425" lon="-3.54578">
        <ele>18.5</ele>
        <time>2021-11-16T09:33:33.000Z</time>
      </trkpt>
      <trkpt lat="47.87425" lon="-3.54578">
        <ele>18.7</ele>
        <time>2021-11-16T09:33:36.000Z</time>
      </trkpt>
      <trkpt lat="47.87425" lon="-3.54578">
        <ele>18.7</ele>
        <time>2021-11-16T09:33:39.000Z</time>
      </trkpt>
      <trkpt lat="47.87424" lon="-3.54578">
        <ele>18.5</ele>
        <time>2021-11-16T09:33:42.000Z</time>
      </trkpt>
      <trkpt lat="47.87424" lon="-3.54578">
        <ele>18.6</ele>
        <time>2021-11-16T09:33:44.000Z</time>
      </trkpt>
      <trkpt lat="47.87424" lon="-3.54577">
        <ele>18.6</ele>
        <time>2021-11-16T09:33:45.000Z</time>
      </trkpt>
      <trkpt lat="47.87424" lon="-3.54573">
        <ele>18.4</ele>
        <time>2021-11-16T09:33:48.000Z</time>
      </trkpt>
      <trkpt lat="47.8742" lon="-3.54565">
        <ele>18.7</ele>
        <time>2021-11-16T09:33:51.000Z</time>
      </trkpt>
      <trkpt lat="47.8741" lon="-3.5456">
        <ele>18</ele>
        <time>2021-11-16T09:33:54.000Z</time>
      </trkpt>
      <trkpt lat="47.87397" lon="-3.54559">
        <ele>18</ele>
        <time>2021-11-16T09:33:57.000Z</time>
      </trkpt>
      <trkpt lat="47.87383" lon="-3.54556">
        <ele>18.3</ele>
        <time>2021-11-16T09:34:00.000Z</time>
      </trkpt>
      <trkpt lat="47.87368" lon="-3.54551">
        <ele>17.9</ele>
        <time>2021-11-16T09:34:03.000Z</time>
      </trkpt>
      <trkpt lat="47.87352" lon="-3.54544">
        <ele>17.8</ele>
        <time>2021-11-16T09:34:06.000Z</time>
      </trkpt>
      <trkpt lat="47.87336" lon="-3.54537">
        <ele>17.4</ele>
        <time>2021-11-16T09:34:09.000Z</time>
      </trkpt>
      <trkpt lat="47.8732" lon="-3.5453">
        <ele>17.9</ele>
        <time>2021-11-16T09:34:12.000Z</time>
      </trkpt>
      <trkpt lat="47.87303" lon="-3.54522">
        <ele>17.8</ele>
        <time>2021-11-16T09:34:15.000Z</time>
      </trkpt>
      <trkpt lat="47.87287" lon="-3.54515">
        <ele>17.6</ele>
        <time>2021-11-16T09:34:18.000Z</time>
      </trkpt>
      <trkpt lat="47.87272" lon="-3.54507">
        <ele>17.4</ele>
        <time>2021-11-16T09:34:21.000Z</time>
      </trkpt>
      <trkpt lat="47.87261" lon="-3.54498">
        <ele>17.2</ele>
        <time>2021-11-16T09:34:24.000Z</time>
      </trkpt>
      <trkpt lat="47.87256" lon="-3.54478">
        <ele>15.4</ele>
        <time>2021-11-16T09:34:27.000Z</time>
      </trkpt>
      <trkpt lat="47.87258" lon="-3.54458">
        <ele>16.8</ele>
        <time>2021-11-16T09:34:30.000Z</time>
      </trkpt>
      <trkpt lat="47.87264" lon="-3.54435">
        <ele>18.3</ele>
        <time>2021-11-16T09:34:33.000Z</time>
      </trkpt>
      <trkpt lat="47.87268" lon="-3.54409">
        <ele>15</ele>
        <time>2021-11-16T09:34:36.000Z</time>
      </trkpt>
      <trkpt lat="47.87272" lon="-3.54382">
        <ele>16.2</ele>
        <time>2021-11-16T09:34:39.000Z</time>
      </trkpt>
      <trkpt lat="47.87274" lon="-3.54359">
        <ele>10.6</ele>
        <time>2021-11-16T09:34:42.000Z</time>
      </trkpt>
      <trkpt lat="47.87277" lon="-3.54346">
        <ele>16.9</ele>
        <time>2021-11-16T09:34:45.000Z</time>
      </trkpt>
      <trkpt lat="47.87279" lon="-3.54331">
        <ele>19.6</ele>
        <time>2021-11-16T09:34:48.000Z</time>
      </trkpt>
      <trkpt lat="47.8728" lon="-3.54312">
        <ele>16.3</ele>
        <time>2021-11-16T09:34:51.000Z</time>
      </trkpt>
      <trkpt lat="47.87274" lon="-3.54296">
        <ele>16.4</ele>
        <time>2021-11-16T09:34:54.000Z</time>
      </trkpt>
      <trkpt lat="47.87264" lon="-3.54285">
        <ele>17.3</ele>
        <time>2021-11-16T09:34:57.000Z</time>
      </trkpt>
      <trkpt lat="47.87254" lon="-3.54277">
        <ele>18.5</ele>
        <time>2021-11-16T09:35:00.000Z</time>
      </trkpt>
      <trkpt lat="47.87243" lon="-3.54267">
        <ele>19</ele>
        <time>2021-11-16T09:35:03.000Z</time>
      </trkpt>
      <trkpt lat="47.87233" lon="-3.54258">
        <ele>19.5</ele>
        <time>2021-11-16T09:35:06.000Z</time>
      </trkpt>
      <trkpt lat="47.87224" lon="-3.54249">
        <ele>21</ele>
        <time>2021-11-16T09:35:09.000Z</time>
      </trkpt>
      <trkpt lat="47.87218" lon="-3.54239">
        <ele>22.1</ele>
        <time>2021-11-16T09:35:12.000Z</time>
      </trkpt>
      <trkpt lat="47.87215" lon="-3.54231">
        <ele>22.7</ele>
        <time>2021-11-16T09:35:15.000Z</time>
      </trkpt>
      <trkpt lat="47.87213" lon="-3.54224">
        <ele>24</ele>
        <time>2021-11-16T09:35:18.000Z</time>
      </trkpt>
      <trkpt lat="47.87211" lon="-3.54217">
        <ele>25.1</ele>
        <time>2021-11-16T09:35:21.000Z</time>
      </trkpt>
      <trkpt lat="47.8721" lon="-3.54209">
        <ele>25.8</ele>
        <time>2021-11-16T09:35:24.000Z</time>
      </trkpt>
      <trkpt lat="47.87208" lon="-3.54202">
        <ele>27</ele>
        <time>2021-11-16T09:35:27.000Z</time>
      </trkpt>
      <trkpt lat="47.87207" lon="-3.54195">
        <ele>28.4</ele>
        <time>2021-11-16T09:35:30.000Z</time>
      </trkpt>
      <trkpt lat="47.87206" lon="-3.54186">
        <ele>28.8</ele>
        <time>2021-11-16T09:35:33.000Z</time>
      </trkpt>
      <trkpt lat="47.87206" lon="-3.54178">
        <ele>30.1</ele>
        <time>2021-11-16T09:35:36.000Z</time>
      </trkpt>
      <trkpt lat="47.87207" lon="-3.54169">
        <ele>30.8</ele>
        <time>2021-11-16T09:35:39.000Z</time>
      </trkpt>
      <trkpt lat="47.87209" lon="-3.54161">
        <ele>31.9</ele>
        <time>2021-11-16T09:35:42.000Z</time>
      </trkpt>
      <trkpt lat="47.87211" lon="-3.54154">
        <ele>32.8</ele>
        <time>2021-11-16T09:35:45.000Z</time>
      </trkpt>
      <trkpt lat="47.87213" lon="-3.54148">
        <ele>33.8</ele>
        <time>2021-11-16T09:35:48.000Z</time>
      </trkpt>
      <trkpt lat="47.87216" lon="-3.54142">
        <ele>34.6</ele>
        <time>2021-11-16T09:35:51.000Z</time>
      </trkpt>
      <trkpt lat="47.87219" lon="-3.54136">
        <ele>35.2</ele>
        <time>2021-11-16T09:35:54.000Z</time>
      </trkpt>
      <trkpt lat="47.87222" lon="-3.54129">
        <ele>36.2</ele>
        <time>2021-11-16T09:35:57.000Z</time>
      </trkpt>
      <trkpt lat="47.87225" lon="-3.54122">
        <ele>37</ele>
        <time>2021-11-16T09:36:00.000Z</time>
      </trkpt>
      <trkpt lat="47.87227" lon="-3.54116">
        <ele>38</ele>
        <time>2021-11-16T09:36:03.000Z</time>
      </trkpt>
      <trkpt lat="47.87228" lon="-3.54108">
        <ele>39.1</ele>
        <time>2021-11-16T09:36:06.000Z</time>
      </trkpt>
      <trkpt lat="47.87229" lon="-3.541">
        <ele>39.4</ele>
        <time>2021-11-16T09:36:09.000Z</time>
      </trkpt>
      <trkpt lat="47.8723" lon="-3.54093">
        <ele>40.3</ele>
        <time>2021-11-16T09:36:12.000Z</time>
      </trkpt>
      <trkpt lat="47.87231" lon="-3.54085">
        <ele>41.4</ele>
        <time>2021-11-16T09:36:15.000Z</time>
      </trkpt>
      <trkpt lat="47.87233" lon="-3.54076">
        <ele>42.1</ele>
        <time>2021-11-16T09:36:18.000Z</time>
      </trkpt>
      <trkpt lat="47.87234" lon="-3.54066">
        <ele>42.9</ele>
        <time>2021-11-16T09:36:21.000Z</time>
      </trkpt>
      <trkpt lat="47.87236" lon="-3.54058">
        <ele>43.6</ele>
        <time>2021-11-16T09:36:24.000Z</time>
      </trkpt>
      <trkpt lat="47.87238" lon="-3.54049">
        <ele>44.2</ele>
        <time>2021-11-16T09:36:27.000Z</time>
      </trkpt>
      <trkpt lat="47.87241" lon="-3.54041">
        <ele>44.5</ele>
        <time>2021-11-16T09:36:30.000Z</time>
      </trkpt>
      <trkpt lat="47.87243" lon="-3.54031">
        <ele>44.8</ele>
        <time>2021-11-16T09:36:33.000Z</time>
      </trkpt>
      <trkpt lat="47.87245" lon="-3.54021">
        <ele>45.6</ele>
        <time>2021-11-16T09:36:36.000Z</time>
      </trkpt>
      <trkpt lat="47.87246" lon="-3.54012">
        <ele>46.2</ele>
        <time>2021-11-16T09:36:39.000Z</time>
      </trkpt>
      <trkpt lat="47.87247" lon="-3.54002">
        <ele>46.7</ele>
        <time>2021-11-16T09:36:42.000Z</time>
      </trkpt>
      <trkpt lat="47.87247" lon="-3.53993">
        <ele>47.6</ele>
        <time>2021-11-16T09:36:45.000Z</time>
      </trkpt>
      <trkpt lat="47.87247" lon="-3.53984">
        <ele>48.3</ele>
        <time>2021-11-16T09:36:48.000Z</time>
      </trkpt>
      <trkpt lat="47.87248" lon="-3.53974">
        <ele>48.8</ele>
        <time>2021-11-16T09:36:51.000Z</time>
      </trkpt>
      <trkpt lat="47.87248" lon="-3.53964">
        <ele>50.5</ele>
        <time>2021-11-16T09:36:54.000Z</time>
      </trkpt>
      <trkpt lat="47.87248" lon="-3.53955">
        <ele>50.4</ele>
        <time>2021-11-16T09:36:57.000Z</time>
      </trkpt>
      <trkpt lat="47.87249" lon="-3.53946">
        <ele>52</ele>
        <time>2021-11-16T09:37:00.000Z</time>
      </trkpt>
      <trkpt lat="47.8725" lon="-3.53937">
        <ele>52.5</ele>
        <time>2021-11-16T09:37:03.000Z</time>
      </trkpt>
      <trkpt lat="47.87249" lon="-3.53928">
        <ele>53.3</ele>
        <time>2021-11-16T09:37:06.000Z</time>
      </trkpt>
      <trkpt lat="47.87249" lon="-3.53919">
        <ele>54</ele>
        <time>2021-11-16T09:37:09.000Z</time>
      </trkpt>
      <trkpt lat="47.87249" lon="-3.53911">
        <ele>54.6</ele>
        <time>2021-11-16T09:37:12.000Z</time>
      </trkpt>
      <trkpt lat="47.8725" lon="-3.53903">
        <ele>55.3</ele>
        <time>2021-11-16T09:37:15.000Z</time>
      </trkpt>
      <trkpt lat="47.8725" lon="-3.53895">
        <ele>55.7</ele>
        <time>2021-11-16T09:37:18.000Z</time>
      </trkpt>
      <trkpt lat="47.87251" lon="-3.53887">
        <ele>56.6</ele>
        <time>2021-11-16T09:37:21.000Z</time>
      </trkpt>
      <trkpt lat="47.87252" lon="-3.53878">
        <ele>57.5</ele>
        <time>2021-11-16T09:37:24.000Z</time>
      </trkpt>
      <trkpt lat="47.87252" lon="-3.53869">
        <ele>58</ele>
        <time>2021-11-16T09:37:27.000Z</time>
      </trkpt>
      <trkpt lat="47.87252" lon="-3.5386">
        <ele>58.9</ele>
        <time>2021-11-16T09:37:30.000Z</time>
      </trkpt>
      <trkpt lat="47.87252" lon="-3.5385">
        <ele>59.6</ele>
        <time>2021-11-16T09:37:33.000Z</time>
      </trkpt>
      <trkpt lat="47.87253" lon="-3.53841">
        <ele>60.3</ele>
        <time>2021-11-16T09:37:36.000Z</time>
      </trkpt>
      <trkpt lat="47.87253" lon="-3.53831">
        <ele>60.9</ele>
        <time>2021-11-16T09:37:39.000Z</time>
      </trkpt>
      <trkpt lat="47.87253" lon="-3.53822">
        <ele>61.7</ele>
        <time>2021-11-16T09:37:42.000Z</time>
      </trkpt>
      <trkpt lat="47.87254" lon="-3.53813">
        <ele>62.3</ele>
        <time>2021-11-16T09:37:45.000Z</time>
      </trkpt>
      <trkpt lat="47.87256" lon="-3.53802">
        <ele>63</ele>
        <time>2021-11-16T09:37:48.000Z</time>
      </trkpt>
      <trkpt lat="47.87259" lon="-3.53792">
        <ele>63.9</ele>
        <time>2021-11-16T09:37:51.000Z</time>
      </trkpt>
      <trkpt lat="47.87263" lon="-3.53781">
        <ele>63.5</ele>
        <time>2021-11-16T09:37:54.000Z</time>
      </trkpt>
      <trkpt lat="47.87267" lon="-3.5377">
        <ele>63.5</ele>
        <time>2021-11-16T09:37:57.000Z</time>
      </trkpt>
      <trkpt lat="47.87271" lon="-3.5376">
        <ele>65.7</ele>
        <time>2021-11-16T09:38:00.000Z</time>
      </trkpt>
      <trkpt lat="47.87275" lon="-3.53749">
        <ele>65.9</ele>
        <time>2021-11-16T09:38:03.000Z</time>
      </trkpt>
      <trkpt lat="47.87279" lon="-3.53738">
        <ele>65.5</ele>
        <time>2021-11-16T09:38:06.000Z</time>
      </trkpt>
      <trkpt lat="47.87283" lon="-3.53727">
        <ele>66</ele>
        <time>2021-11-16T09:38:09.000Z</time>
      </trkpt>
      <trkpt lat="47.87287" lon="-3.53716">
        <ele>66.5</ele>
        <time>2021-11-16T09:38:12.000Z</time>
      </trkpt>
      <trkpt lat="47.87291" lon="-3.53705">
        <ele>66.8</ele>
        <time>2021-11-16T09:38:15.000Z</time>
      </trkpt>
      <trkpt lat="47.87294" lon="-3.53692">
        <ele>67.5</ele>
        <time>2021-11-16T09:38:18.000Z</time>
      </trkpt>
      <trkpt lat="47.87297" lon="-3.53679">
        <ele>67.6</ele>
        <time>2021-11-16T09:38:21.000Z</time>
      </trkpt>
      <trkpt lat="47.87301" lon="-3.53667">
        <ele>67.7</ele>
        <time>2021-11-16T09:38:24.000Z</time>
      </trkpt>
      <trkpt lat="47.87304" lon="-3.53654">
        <ele>68.8</ele>
        <time>2021-11-16T09:38:27.000Z</time>
      </trkpt>
      <trkpt lat="47.87307" lon="-3.53641">
        <ele>68.6</ele>
        <time>2021-11-16T09:38:30.000Z</time>
      </trkpt>
      <trkpt lat="47.8731" lon="-3.53627">
        <ele>69.3</ele>
        <time>2021-11-16T09:38:33.000Z</time>
      </trkpt>
      <trkpt lat="47.87314" lon="-3.53615">
        <ele>69.5</ele>
        <time>2021-11-16T09:38:36.000Z</time>
      </trkpt>
      <trkpt lat="47.87317" lon="-3.53602">
        <ele>69.6</ele>
        <time>2021-11-16T09:38:39.000Z</time>
      </trkpt>
      <trkpt lat="47.87319" lon="-3.53589">
        <ele>70</ele>
        <time>2021-11-16T09:38:42.000Z</time>
      </trkpt>
      <trkpt lat="47.87322" lon="-3.53575">
        <ele>70.5</ele>
        <time>2021-11-16T09:38:45.000Z</time>
      </trkpt>
      <trkpt lat="47.87325" lon="-3.53561">
        <ele>70.7</ele>
        <time>2021-11-16T09:38:48.000Z</time>
      </trkpt>
      <trkpt lat="47.87327" lon="-3.53548">
        <ele>70.9</ele>
        <time>2021-11-16T09:38:51.000Z</time>
      </trkpt>
      <trkpt lat="47.8733" lon="-3.53533">
        <ele>72.1</ele>
        <time>2021-11-16T09:38:54.000Z</time>
      </trkpt>
      <trkpt lat="47.87333" lon="-3.53519">
        <ele>72.4</ele>
        <time>2021-11-16T09:38:57.000Z</time>
      </trkpt>
      <trkpt lat="47.87336" lon="-3.53506">
        <ele>73.1</ele>
        <time>2021-11-16T09:39:00.000Z</time>
      </trkpt>
      <trkpt lat="47.87338" lon="-3.53493">
        <ele>74</ele>
        <time>2021-11-16T09:39:03.000Z</time>
      </trkpt>
      <trkpt lat="47.8734" lon="-3.53479">
        <ele>74</ele>
        <time>2021-11-16T09:39:06.000Z</time>
      </trkpt>
      <trkpt lat="47.87342" lon="-3.53463">
        <ele>74</ele>
        <time>2021-11-16T09:39:09.000Z</time>
      </trkpt>
      <trkpt lat="47.87344" lon="-3.53446">
        <ele>73.4</ele>
        <time>2021-11-16T09:39:12.000Z</time>
      </trkpt>
      <trkpt lat="47.87346" lon="-3.53429">
        <ele>74.9</ele>
        <time>2021-11-16T09:39:15.000Z</time>
      </trkpt>
      <trkpt lat="47.87348" lon="-3.53411">
        <ele>74.6</ele>
        <time>2021-11-16T09:39:18.000Z</time>
      </trkpt>
      <trkpt lat="47.8735" lon="-3.53394">
        <ele>74.7</ele>
        <time>2021-11-16T09:39:21.000Z</time>
      </trkpt>
      <trkpt lat="47.87351" lon="-3.53377">
        <ele>75.5</ele>
        <time>2021-11-16T09:39:24.000Z</time>
      </trkpt>
      <trkpt lat="47.87354" lon="-3.5336">
        <ele>75.1</ele>
        <time>2021-11-16T09:39:27.000Z</time>
      </trkpt>
      <trkpt lat="47.87364" lon="-3.53351">
        <ele>75</ele>
        <time>2021-11-16T09:39:30.000Z</time>
      </trkpt>
      <trkpt lat="47.87375" lon="-3.53347">
        <ele>75.9</ele>
        <time>2021-11-16T09:39:33.000Z</time>
      </trkpt>
      <trkpt lat="47.87387" lon="-3.53337">
        <ele>76.4</ele>
        <time>2021-11-16T09:39:36.000Z</time>
      </trkpt>
      <trkpt lat="47.87396" lon="-3.53324">
        <ele>76</ele>
        <time>2021-11-16T09:39:39.000Z</time>
      </trkpt>
      <trkpt lat="47.87406" lon="-3.5331">
        <ele>76</ele>
        <time>2021-11-16T09:39:42.000Z</time>
      </trkpt>
      <trkpt lat="47.87416" lon="-3.53293">
        <ele>75.7</ele>
        <time>2021-11-16T09:39:45.000Z</time>
      </trkpt>
      <trkpt lat="47.87426" lon="-3.53276">
        <ele>76.2</ele>
        <time>2021-11-16T09:39:48.000Z</time>
      </trkpt>
      <trkpt lat="47.87434" lon="-3.53255">
        <ele>75.8</ele>
        <time>2021-11-16T09:39:51.000Z</time>
      </trkpt>
      <trkpt lat="47.87441" lon="-3.53236">
        <ele>76.9</ele>
        <time>2021-11-16T09:39:54.000Z</time>
      </trkpt>
      <trkpt lat="47.87446" lon="-3.53219">
        <ele>76.6</ele>
        <time>2021-11-16T09:39:57.000Z</time>
      </trkpt>
      <trkpt lat="47.87453" lon="-3.53203">
        <ele>77.4</ele>
        <time>2021-11-16T09:40:00.000Z</time>
      </trkpt>
      <trkpt lat="47.87462" lon="-3.53187">
        <ele>76</ele>
        <time>2021-11-16T09:40:03.000Z</time>
      </trkpt>
      <trkpt lat="47.87472" lon="-3.5317">
        <ele>77.9</ele>
        <time>2021-11-16T09:40:06.000Z</time>
      </trkpt>
      <trkpt lat="47.87481" lon="-3.53155">
        <ele>75.9</ele>
        <time>2021-11-16T09:40:09.000Z</time>
      </trkpt>
      <trkpt lat="47.87483" lon="-3.53152">
        <ele>76.4</ele>
        <time>2021-11-16T09:40:12.000Z</time>
      </trkpt>
      <trkpt lat="47.87483" lon="-3.53152">
        <ele>76.3</ele>
        <time>2021-11-16T09:40:13.000Z</time>
      </trkpt>
      <trkpt lat="47.87483" lon="-3.53152">
        <ele>76.5</ele>
        <time>2021-11-16T09:40:16.000Z</time>
      </trkpt>
      <trkpt lat="47.87483" lon="-3.53152">
        <ele>76.6</ele>
        <time>2021-11-16T09:40:19.000Z</time>
      </trkpt>
      <trkpt lat="47.87483" lon="-3.53152">
        <ele>76.6</ele>
        <time>2021-11-16T09:40:22.000Z</time>
      </trkpt>
      <trkpt lat="47.87483" lon="-3.53152">
        <ele>76.7</ele>
        <time>2021-11-16T09:40:25.000Z</time>
      </trkpt>
      <trkpt lat="47.87483" lon="-3.53152">
        <ele>76.8</ele>
        <time>2021-11-16T09:40:28.000Z</time>
      </trkpt>
      <trkpt lat="47.87483" lon="-3.53152">
        <ele>76.5</ele>
        <time>2021-11-16T09:40:31.000Z</time>
      </trkpt>
      <trkpt lat="47.87483" lon="-3.53152">
        <ele>76.5</ele>
        <time>2021-11-16T09:40:34.000Z</time>
      </trkpt>
      <trkpt lat="47.87483" lon="-3.53152">
        <ele>76.6</ele>
        <time>2021-11-16T09:40:37.000Z</time>
      </trkpt>
      <trkpt lat="47.87483" lon="-3.53152">
        <ele>76.7</ele>
        <time>2021-11-16T09:40:40.000Z</time>
      </trkpt>
      <trkpt lat="47.87483" lon="-3.53152">
        <ele>76.5</ele>
        <time>2021-11-16T09:40:43.000Z</time>
      </trkpt>
      <trkpt lat="47.87483" lon="-3.53152">
        <ele>76.6</ele>
        <time>2021-11-16T09:40:46.000Z</time>
      </trkpt>
      <trkpt lat="47.87483" lon="-3.53152">
        <ele>76.7</ele>
        <time>2021-11-16T09:40:49.000Z</time>
      </trkpt>
      <trkpt lat="47.87483" lon="-3.53151">
        <ele>76.6</ele>
        <time>2021-11-16T09:40:50.000Z</time>
      </trkpt>
      <trkpt lat="47.87486" lon="-3.53144">
        <ele>76.7</ele>
        <time>2021-11-16T09:40:53.000Z</time>
      </trkpt>
      <trkpt lat="47.8749" lon="-3.53135">
        <ele>75.3</ele>
        <time>2021-11-16T09:40:56.000Z</time>
      </trkpt>
      <trkpt lat="47.87495" lon="-3.53125">
        <ele>76.1</ele>
        <time>2021-11-16T09:40:59.000Z</time>
      </trkpt>
      <trkpt lat="47.87502" lon="-3.5311">
        <ele>74.7</ele>
        <time>2021-11-16T09:41:02.000Z</time>
      </trkpt>
      <trkpt lat="47.87508" lon="-3.53092">
        <ele>75.8</ele>
        <time>2021-11-16T09:41:05.000Z</time>
      </trkpt>
      <trkpt lat="47.87516" lon="-3.53073">
        <ele>73.8</ele>
        <time>2021-11-16T09:41:08.000Z</time>
      </trkpt>
      <trkpt lat="47.87529" lon="-3.53056">
        <ele>72.9</ele>
        <time>2021-11-16T09:41:11.000Z</time>
      </trkpt>
      <trkpt lat="47.87542" lon="-3.5304">
        <ele>73.9</ele>
        <time>2021-11-16T09:41:14.000Z</time>
      </trkpt>
      <trkpt lat="47.87559" lon="-3.5302">
        <ele>68.8</ele>
        <time>2021-11-16T09:41:17.000Z</time>
      </trkpt>
      <trkpt lat="47.87573" lon="-3.53003">
        <ele>67</ele>
        <time>2021-11-16T09:41:20.000Z</time>
      </trkpt>
      <trkpt lat="47.87587" lon="-3.52984">
        <ele>68.4</ele>
        <time>2021-11-16T09:41:23.000Z</time>
      </trkpt>
      <trkpt lat="47.87598" lon="-3.52956">
        <ele>71.4</ele>
        <time>2021-11-16T09:41:26.000Z</time>
      </trkpt>
      <trkpt lat="47.87607" lon="-3.52922">
        <ele>58.7</ele>
        <time>2021-11-16T09:41:29.000Z</time>
      </trkpt>
      <trkpt lat="47.87615" lon="-3.52887">
        <ele>60.7</ele>
        <time>2021-11-16T09:41:32.000Z</time>
      </trkpt>
      <trkpt lat="47.87622" lon="-3.52851">
        <ele>59.5</ele>
        <time>2021-11-16T09:41:35.000Z</time>
      </trkpt>
      <trkpt lat="47.87626" lon="-3.52816">
        <ele>58.9</ele>
        <time>2021-11-16T09:41:38.000Z</time>
      </trkpt>
      <trkpt lat="47.87634" lon="-3.52785">
        <ele>57.2</ele>
        <time>2021-11-16T09:41:41.000Z</time>
      </trkpt>
      <trkpt lat="47.87645" lon="-3.52756">
        <ele>54.1</ele>
        <time>2021-11-16T09:41:44.000Z</time>
      </trkpt>
      <trkpt lat="47.87653" lon="-3.52728">
        <ele>58.1</ele>
        <time>2021-11-16T09:41:47.000Z</time>
      </trkpt>
      <trkpt lat="47.8766" lon="-3.527">
        <ele>59.2</ele>
        <time>2021-11-16T09:41:50.000Z</time>
      </trkpt>
      <trkpt lat="47.87669" lon="-3.52676">
        <ele>59.9</ele>
        <time>2021-11-16T09:41:53.000Z</time>
      </trkpt>
      <trkpt lat="47.87678" lon="-3.52656">
        <ele>61.6</ele>
        <time>2021-11-16T09:41:56.000Z</time>
      </trkpt>
      <trkpt lat="47.87686" lon="-3.52638">
        <ele>59.4</ele>
        <time>2021-11-16T09:41:59.000Z</time>
      </trkpt>
      <trkpt lat="47.87693" lon="-3.52622">
        <ele>59.9</ele>
        <time>2021-11-16T09:42:02.000Z</time>
      </trkpt>
      <trkpt lat="47.87701" lon="-3.52604">
        <ele>60.3</ele>
        <time>2021-11-16T09:42:05.000Z</time>
      </trkpt>
      <trkpt lat="47.87709" lon="-3.52588">
        <ele>59.7</ele>
        <time>2021-11-16T09:42:08.000Z</time>
      </trkpt>
      <trkpt lat="47.87716" lon="-3.52573">
        <ele>61.4</ele>
        <time>2021-11-16T09:42:11.000Z</time>
      </trkpt>
      <trkpt lat="47.8772" lon="-3.52555">
        <ele>65.3</ele>
        <time>2021-11-16T09:42:14.000Z</time>
      </trkpt>
      <trkpt lat="47.87721" lon="-3.52537">
        <ele>62.9</ele>
        <time>2021-11-16T09:42:17.000Z</time>
      </trkpt>
      <trkpt lat="47.87721" lon="-3.52518">
        <ele>67</ele>
        <time>2021-11-16T09:42:20.000Z</time>
      </trkpt>
      <trkpt lat="47.87718" lon="-3.52502">
        <ele>65.6</ele>
        <time>2021-11-16T09:42:23.000Z</time>
      </trkpt>
      <trkpt lat="47.87709" lon="-3.52492">
        <ele>67.9</ele>
        <time>2021-11-16T09:42:26.000Z</time>
      </trkpt>
      <trkpt lat="47.877" lon="-3.52483">
        <ele>68</ele>
        <time>2021-11-16T09:42:29.000Z</time>
      </trkpt>
      <trkpt lat="47.8769" lon="-3.52473">
        <ele>69.1</ele>
        <time>2021-11-16T09:42:32.000Z</time>
      </trkpt>
      <trkpt lat="47.87681" lon="-3.52463">
        <ele>69</ele>
        <time>2021-11-16T09:42:35.000Z</time>
      </trkpt>
      <trkpt lat="47.87671" lon="-3.52453">
        <ele>68.4</ele>
        <time>2021-11-16T09:42:38.000Z</time>
      </trkpt>
      <trkpt lat="47.87662" lon="-3.52442">
        <ele>68.1</ele>
        <time>2021-11-16T09:42:41.000Z</time>
      </trkpt>
      <trkpt lat="47.87652" lon="-3.52432">
        <ele>69.9</ele>
        <time>2021-11-16T09:42:44.000Z</time>
      </trkpt>
      <trkpt lat="47.87642" lon="-3.52422">
        <ele>69.9</ele>
        <time>2021-11-16T09:42:47.000Z</time>
      </trkpt>
      <trkpt lat="47.87633" lon="-3.52412">
        <ele>70.2</ele>
        <time>2021-11-16T09:42:50.000Z</time>
      </trkpt>
      <trkpt lat="47.87624" lon="-3.52403">
        <ele>70.5</ele>
        <time>2021-11-16T09:42:53.000Z</time>
      </trkpt>
      <trkpt lat="47.87615" lon="-3.52393">
        <ele>70.9</ele>
        <time>2021-11-16T09:42:56.000Z</time>
      </trkpt>
      <trkpt lat="47.87606" lon="-3.52383">
        <ele>71.3</ele>
        <time>2021-11-16T09:42:59.000Z</time>
      </trkpt>
      <trkpt lat="47.87597" lon="-3.52374">
        <ele>72.2</ele>
        <time>2021-11-16T09:43:02.000Z</time>
      </trkpt>
      <trkpt lat="47.87588" lon="-3.52364">
        <ele>72.2</ele>
        <time>2021-11-16T09:43:05.000Z</time>
      </trkpt>
      <trkpt lat="47.8758" lon="-3.52354">
        <ele>73.5</ele>
        <time>2021-11-16T09:43:08.000Z</time>
      </trkpt>
      <trkpt lat="47.87571" lon="-3.52345">
        <ele>73.9</ele>
        <time>2021-11-16T09:43:11.000Z</time>
      </trkpt>
      <trkpt lat="47.87563" lon="-3.52336">
        <ele>74.1</ele>
        <time>2021-11-16T09:43:14.000Z</time>
      </trkpt>
      <trkpt lat="47.87555" lon="-3.52327">
        <ele>75.2</ele>
        <time>2021-11-16T09:43:17.000Z</time>
      </trkpt>
      <trkpt lat="47.87547" lon="-3.52318">
        <ele>75.4</ele>
        <time>2021-11-16T09:43:20.000Z</time>
      </trkpt>
      <trkpt lat="47.87538" lon="-3.52309">
        <ele>76.4</ele>
        <time>2021-11-16T09:43:23.000Z</time>
      </trkpt>
      <trkpt lat="47.8753" lon="-3.523">
        <ele>77.4</ele>
        <time>2021-11-16T09:43:26.000Z</time>
      </trkpt>
      <trkpt lat="47.87521" lon="-3.52292">
        <ele>79.3</ele>
        <time>2021-11-16T09:43:29.000Z</time>
      </trkpt>
      <trkpt lat="47.87513" lon="-3.52284">
        <ele>78.4</ele>
        <time>2021-11-16T09:43:32.000Z</time>
      </trkpt>
      <trkpt lat="47.87504" lon="-3.52275">
        <ele>79.3</ele>
        <time>2021-11-16T09:43:35.000Z</time>
      </trkpt>
      <trkpt lat="47.87496" lon="-3.52267">
        <ele>79.5</ele>
        <time>2021-11-16T09:43:38.000Z</time>
      </trkpt>
      <trkpt lat="47.87489" lon="-3.52261">
        <ele>79.5</ele>
        <time>2021-11-16T09:43:41.000Z</time>
      </trkpt>
      <trkpt lat="47.87486" lon="-3.52253">
        <ele>79.5</ele>
        <time>2021-11-16T09:43:44.000Z</time>
      </trkpt>
      <trkpt lat="47.87489" lon="-3.52238">
        <ele>79.4</ele>
        <time>2021-11-16T09:43:47.000Z</time>
      </trkpt>
      <trkpt lat="47.87495" lon="-3.5222">
        <ele>78.7</ele>
        <time>2021-11-16T09:43:50.000Z</time>
      </trkpt>
      <trkpt lat="47.87503" lon="-3.522">
        <ele>78.3</ele>
        <time>2021-11-16T09:43:53.000Z</time>
      </trkpt>
      <trkpt lat="47.87511" lon="-3.52178">
        <ele>79.1</ele>
        <time>2021-11-16T09:43:56.000Z</time>
      </trkpt>
      <trkpt lat="47.87519" lon="-3.52156">
        <ele>78.4</ele>
        <time>2021-11-16T09:43:59.000Z</time>
      </trkpt>
      <trkpt lat="47.87524" lon="-3.52136">
        <ele>78.6</ele>
        <time>2021-11-16T09:44:02.000Z</time>
      </trkpt>
      <trkpt lat="47.87515" lon="-3.52124">
        <ele>78.7</ele>
        <time>2021-11-16T09:44:05.000Z</time>
      </trkpt>
      <trkpt lat="47.87505" lon="-3.52117">
        <ele>79.7</ele>
        <time>2021-11-16T09:44:08.000Z</time>
      </trkpt>
      <trkpt lat="47.875" lon="-3.52111">
        <ele>80</ele>
        <time>2021-11-16T09:44:11.000Z</time>
      </trkpt>
      <trkpt lat="47.87497" lon="-3.5211">
        <ele>80.4</ele>
        <time>2021-11-16T09:44:14.000Z</time>
      </trkpt>
      <trkpt lat="47.87493" lon="-3.52106">
        <ele>80.3</ele>
        <time>2021-11-16T09:44:17.000Z</time>
      </trkpt>
      <trkpt lat="47.87488" lon="-3.52099">
        <ele>81.3</ele>
        <time>2021-11-16T09:44:20.000Z</time>
      </trkpt>
      <trkpt lat="47.87482" lon="-3.52103">
        <ele>81.1</ele>
        <time>2021-11-16T09:44:23.000Z</time>
      </trkpt>
      <trkpt lat="47.87472" lon="-3.5211">
        <ele>81.2</ele>
        <time>2021-11-16T09:44:26.000Z</time>
      </trkpt>
      <trkpt lat="47.87462" lon="-3.52102">
        <ele>81.2</ele>
        <time>2021-11-16T09:44:29.000Z</time>
      </trkpt>
      <trkpt lat="47.87461" lon="-3.52085">
        <ele>81.9</ele>
        <time>2021-11-16T09:44:32.000Z</time>
      </trkpt>
      <trkpt lat="47.8746" lon="-3.52068">
        <ele>81.9</ele>
        <time>2021-11-16T09:44:35.000Z</time>
      </trkpt>
      <trkpt lat="47.87452" lon="-3.52056">
        <ele>82.5</ele>
        <time>2021-11-16T09:44:38.000Z</time>
      </trkpt>
      <trkpt lat="47.87443" lon="-3.52046">
        <ele>82.9</ele>
        <time>2021-11-16T09:44:41.000Z</time>
      </trkpt>
      <trkpt lat="47.87444" lon="-3.5203">
        <ele>82.8</ele>
        <time>2021-11-16T09:44:44.000Z</time>
      </trkpt>
      <trkpt lat="47.87447" lon="-3.5201">
        <ele>81.4</ele>
        <time>2021-11-16T09:44:47.000Z</time>
      </trkpt>
      <trkpt lat="47.87443" lon="-3.51988">
        <ele>82.9</ele>
        <time>2021-11-16T09:44:50.000Z</time>
      </trkpt>
      <trkpt lat="47.87435" lon="-3.51969">
        <ele>83.1</ele>
        <time>2021-11-16T09:44:53.000Z</time>
      </trkpt>
      <trkpt lat="47.87424" lon="-3.51952">
        <ele>84.1</ele>
        <time>2021-11-16T09:44:56.000Z</time>
      </trkpt>
      <trkpt lat="47.87414" lon="-3.51934">
        <ele>83.2</ele>
        <time>2021-11-16T09:44:59.000Z</time>
      </trkpt>
      <trkpt lat="47.87402" lon="-3.51918">
        <ele>83.2</ele>
        <time>2021-11-16T09:45:02.000Z</time>
      </trkpt>
      <trkpt lat="47.8739" lon="-3.51902">
        <ele>82.8</ele>
        <time>2021-11-16T09:45:05.000Z</time>
      </trkpt>
      <trkpt lat="47.87377" lon="-3.51887">
        <ele>82</ele>
        <time>2021-11-16T09:45:08.000Z</time>
      </trkpt>
      <trkpt lat="47.87363" lon="-3.51874">
        <ele>83.5</ele>
        <time>2021-11-16T09:45:11.000Z</time>
      </trkpt>
      <trkpt lat="47.87349" lon="-3.51862">
        <ele>83.9</ele>
        <time>2021-11-16T09:45:14.000Z</time>
      </trkpt>
      <trkpt lat="47.87335" lon="-3.51851">
        <ele>83.5</ele>
        <time>2021-11-16T09:45:17.000Z</time>
      </trkpt>
      <trkpt lat="47.8732" lon="-3.51848">
        <ele>83.8</ele>
        <time>2021-11-16T09:45:20.000Z</time>
      </trkpt>
      <trkpt lat="47.87308" lon="-3.51864">
        <ele>83.4</ele>
        <time>2021-11-16T09:45:23.000Z</time>
      </trkpt>
      <trkpt lat="47.87299" lon="-3.51887">
        <ele>83.2</ele>
        <time>2021-11-16T09:45:26.000Z</time>
      </trkpt>
      <trkpt lat="47.87289" lon="-3.51907">
        <ele>84.5</ele>
        <time>2021-11-16T09:45:29.000Z</time>
      </trkpt>
      <trkpt lat="47.87272" lon="-3.51914">
        <ele>82.1</ele>
        <time>2021-11-16T09:45:32.000Z</time>
      </trkpt>
      <trkpt lat="47.87252" lon="-3.51913">
        <ele>81.1</ele>
        <time>2021-11-16T09:45:35.000Z</time>
      </trkpt>
      <trkpt lat="47.87236" lon="-3.51912">
        <ele>81.9</ele>
        <time>2021-11-16T09:45:38.000Z</time>
      </trkpt>
      <trkpt lat="47.87227" lon="-3.51909">
        <ele>82.7</ele>
        <time>2021-11-16T09:45:41.000Z</time>
      </trkpt>
      <trkpt lat="47.87222" lon="-3.51893">
        <ele>82</ele>
        <time>2021-11-16T09:45:44.000Z</time>
      </trkpt>
      <trkpt lat="47.87221" lon="-3.51871">
        <ele>81.8</ele>
        <time>2021-11-16T09:45:47.000Z</time>
      </trkpt>
      <trkpt lat="47.87221" lon="-3.51847">
        <ele>81.6</ele>
        <time>2021-11-16T09:45:50.000Z</time>
      </trkpt>
      <trkpt lat="47.87222" lon="-3.51823">
        <ele>82.1</ele>
        <time>2021-11-16T09:45:53.000Z</time>
      </trkpt>
      <trkpt lat="47.87222" lon="-3.51798">
        <ele>82.1</ele>
        <time>2021-11-16T09:45:56.000Z</time>
      </trkpt>
      <trkpt lat="47.87222" lon="-3.51773">
        <ele>82.3</ele>
        <time>2021-11-16T09:45:59.000Z</time>
      </trkpt>
      <trkpt lat="47.8722" lon="-3.51749">
        <ele>82.9</ele>
        <time>2021-11-16T09:46:02.000Z</time>
      </trkpt>
      <trkpt lat="47.87218" lon="-3.51724">
        <ele>83.2</ele>
        <time>2021-11-16T09:46:05.000Z</time>
      </trkpt>
      <trkpt lat="47.87216" lon="-3.51701">
        <ele>83.3</ele>
        <time>2021-11-16T09:46:08.000Z</time>
      </trkpt>
      <trkpt lat="47.87213" lon="-3.51679">
        <ele>83.6</ele>
        <time>2021-11-16T09:46:11.000Z</time>
      </trkpt>
      <trkpt lat="47.87208" lon="-3.51657">
        <ele>84.3</ele>
        <time>2021-11-16T09:46:14.000Z</time>
      </trkpt>
      <trkpt lat="47.87203" lon="-3.51633">
        <ele>84.4</ele>
        <time>2021-11-16T09:46:17.000Z</time>
      </trkpt>
      <trkpt lat="47.87199" lon="-3.51611">
        <ele>85.3</ele>
        <time>2021-11-16T09:46:20.000Z</time>
      </trkpt>
      <trkpt lat="47.87195" lon="-3.5159">
        <ele>86</ele>
        <time>2021-11-16T09:46:23.000Z</time>
      </trkpt>
      <trkpt lat="47.8719" lon="-3.51569">
        <ele>86.7</ele>
        <time>2021-11-16T09:46:26.000Z</time>
      </trkpt>
      <trkpt lat="47.87185" lon="-3.51548">
        <ele>87.6</ele>
        <time>2021-11-16T09:46:29.000Z</time>
      </trkpt>
      <trkpt lat="47.87181" lon="-3.51528">
        <ele>88.2</ele>
        <time>2021-11-16T09:46:32.000Z</time>
      </trkpt>
      <trkpt lat="47.87178" lon="-3.51507">
        <ele>88.7</ele>
        <time>2021-11-16T09:46:35.000Z</time>
      </trkpt>
      <trkpt lat="47.87175" lon="-3.51489">
        <ele>89.8</ele>
        <time>2021-11-16T09:46:38.000Z</time>
      </trkpt>
      <trkpt lat="47.87173" lon="-3.51471">
        <ele>90.6</ele>
        <time>2021-11-16T09:46:41.000Z</time>
      </trkpt>
      <trkpt lat="47.87168" lon="-3.51458">
        <ele>90.4</ele>
        <time>2021-11-16T09:46:44.000Z</time>
      </trkpt>
      <trkpt lat="47.87161" lon="-3.51458">
        <ele>91.7</ele>
        <time>2021-11-16T09:46:47.000Z</time>
      </trkpt>
      <trkpt lat="47.87154" lon="-3.51459">
        <ele>90.9</ele>
        <time>2021-11-16T09:46:50.000Z</time>
      </trkpt>
      <trkpt lat="47.87146" lon="-3.5146">
        <ele>91.3</ele>
        <time>2021-11-16T09:46:53.000Z</time>
      </trkpt>
      <trkpt lat="47.87138" lon="-3.51461">
        <ele>91.1</ele>
        <time>2021-11-16T09:46:56.000Z</time>
      </trkpt>
      <trkpt lat="47.87131" lon="-3.51461">
        <ele>94.1</ele>
        <time>2021-11-16T09:46:59.000Z</time>
      </trkpt>
      <trkpt lat="47.87124" lon="-3.51462">
        <ele>92</ele>
        <time>2021-11-16T09:47:02.000Z</time>
      </trkpt>
      <trkpt lat="47.87117" lon="-3.51461">
        <ele>91.7</ele>
        <time>2021-11-16T09:47:05.000Z</time>
      </trkpt>
      <trkpt lat="47.8711" lon="-3.51462">
        <ele>93.1</ele>
        <time>2021-11-16T09:47:08.000Z</time>
      </trkpt>
      <trkpt lat="47.87103" lon="-3.51462">
        <ele>90.8</ele>
        <time>2021-11-16T09:47:11.000Z</time>
      </trkpt>
      <trkpt lat="47.87096" lon="-3.51463">
        <ele>92.7</ele>
        <time>2021-11-16T09:47:14.000Z</time>
      </trkpt>
      <trkpt lat="47.87089" lon="-3.51463">
        <ele>93.3</ele>
        <time>2021-11-16T09:47:17.000Z</time>
      </trkpt>
      <trkpt lat="47.87082" lon="-3.51463">
        <ele>91.2</ele>
        <time>2021-11-16T09:47:20.000Z</time>
      </trkpt>
      <trkpt lat="47.87076" lon="-3.51464">
        <ele>93.8</ele>
        <time>2021-11-16T09:47:23.000Z</time>
      </trkpt>
      <trkpt lat="47.87069" lon="-3.51464">
        <ele>93.8</ele>
        <time>2021-11-16T09:47:26.000Z</time>
      </trkpt>
      <trkpt lat="47.87062" lon="-3.51465">
        <ele>97.2</ele>
        <time>2021-11-16T09:47:29.000Z</time>
      </trkpt>
      <trkpt lat="47.87056" lon="-3.51465">
        <ele>94.3</ele>
        <time>2021-11-16T09:47:32.000Z</time>
      </trkpt>
      <trkpt lat="47.87049" lon="-3.51464">
        <ele>94.7</ele>
        <time>2021-11-16T09:47:35.000Z</time>
      </trkpt>
      <trkpt lat="47.87042" lon="-3.51464">
        <ele>93.7</ele>
        <time>2021-11-16T09:47:38.000Z</time>
      </trkpt>
      <trkpt lat="47.87036" lon="-3.51464">
        <ele>93.5</ele>
        <time>2021-11-16T09:47:41.000Z</time>
      </trkpt>
      <trkpt lat="47.87031" lon="-3.51465">
        <ele>94.3</ele>
        <time>2021-11-16T09:47:44.000Z</time>
      </trkpt>
      <trkpt lat="47.87028" lon="-3.51466">
        <ele>95.2</ele>
        <time>2021-11-16T09:47:47.000Z</time>
      </trkpt>
      <trkpt lat="47.87027" lon="-3.51464">
        <ele>95.6</ele>
        <time>2021-11-16T09:47:50.000Z</time>
      </trkpt>
      <trkpt lat="47.87028" lon="-3.5146">
        <ele>95.4</ele>
        <time>2021-11-16T09:47:53.000Z</time>
      </trkpt>
      <trkpt lat="47.87028" lon="-3.51459">
        <ele>95.8</ele>
        <time>2021-11-16T09:47:56.000Z</time>
      </trkpt>
      <trkpt lat="47.87028" lon="-3.51459">
        <ele>95.8</ele>
        <time>2021-11-16T09:47:57.000Z</time>
      </trkpt>
      <trkpt lat="47.87027" lon="-3.51458">
        <ele>96</ele>
        <time>2021-11-16T09:47:58.000Z</time>
      </trkpt>
      <trkpt lat="47.87025" lon="-3.51456">
        <ele>95.7</ele>
        <time>2021-11-16T09:48:01.000Z</time>
      </trkpt>
      <trkpt lat="47.87024" lon="-3.51454">
        <ele>95.3</ele>
        <time>2021-11-16T09:48:04.000Z</time>
      </trkpt>
      <trkpt lat="47.87023" lon="-3.51452">
        <ele>94.7</ele>
        <time>2021-11-16T09:48:07.000Z</time>
      </trkpt>
      <trkpt lat="47.87023" lon="-3.51452">
        <ele>95</ele>
        <time>2021-11-16T09:48:09.000Z</time>
      </trkpt>
      <trkpt lat="47.87023" lon="-3.51452">
        <ele>95.5</ele>
        <time>2021-11-16T09:48:12.000Z</time>
      </trkpt>
      <trkpt lat="47.87023" lon="-3.51452">
        <ele>95.4</ele>
        <time>2021-11-16T09:48:15.000Z</time>
      </trkpt>
      <trkpt lat="47.87023" lon="-3.51452">
        <ele>95.2</ele>
        <time>2021-11-16T09:48:18.000Z</time>
      </trkpt>
      <trkpt lat="47.87023" lon="-3.51452">
        <ele>95.2</ele>
        <time>2021-11-16T09:48:21.000Z</time>
      </trkpt>
      <trkpt lat="47.87023" lon="-3.51452">
        <ele>95.1</ele>
        <time>2021-11-16T09:48:24.000Z</time>
      </trkpt>
      <trkpt lat="47.87022" lon="-3.51451">
        <ele>95.4</ele>
        <time>2021-11-16T09:48:27.000Z</time>
      </trkpt>
      <trkpt lat="47.87021" lon="-3.5145">
        <ele>95.3</ele>
        <time>2021-11-16T09:48:30.000Z</time>
      </trkpt>
      <trkpt lat="47.87019" lon="-3.5145">
        <ele>94.8</ele>
        <time>2021-11-16T09:48:33.000Z</time>
      </trkpt>
      <trkpt lat="47.87015" lon="-3.51451">
        <ele>94.3</ele>
        <time>2021-11-16T09:48:36.000Z</time>
      </trkpt>
      <trkpt lat="47.87009" lon="-3.51451">
        <ele>95.5</ele>
        <time>2021-11-16T09:48:39.000Z</time>
      </trkpt>
      <trkpt lat="47.87004" lon="-3.51452">
        <ele>95.4</ele>
        <time>2021-11-16T09:48:42.000Z</time>
      </trkpt>
      <trkpt lat="47.86997" lon="-3.51451">
        <ele>94.4</ele>
        <time>2021-11-16T09:48:45.000Z</time>
      </trkpt>
      <trkpt lat="47.86989" lon="-3.51452">
        <ele>95.3</ele>
        <time>2021-11-16T09:48:48.000Z</time>
      </trkpt>
      <trkpt lat="47.86981" lon="-3.51453">
        <ele>95.8</ele>
        <time>2021-11-16T09:48:51.000Z</time>
      </trkpt>
      <trkpt lat="47.86973" lon="-3.51454">
        <ele>95.6</ele>
        <time>2021-11-16T09:48:54.000Z</time>
      </trkpt>
      <trkpt lat="47.86964" lon="-3.51454">
        <ele>93.3</ele>
        <time>2021-11-16T09:48:57.000Z</time>
      </trkpt>
      <trkpt lat="47.86956" lon="-3.51454">
        <ele>93.7</ele>
        <time>2021-11-16T09:49:00.000Z</time>
      </trkpt>
      <trkpt lat="47.86946" lon="-3.51454">
        <ele>96</ele>
        <time>2021-11-16T09:49:03.000Z</time>
      </trkpt>
      <trkpt lat="47.86937" lon="-3.51453">
        <ele>96.6</ele>
        <time>2021-11-16T09:49:06.000Z</time>
      </trkpt>
      <trkpt lat="47.86929" lon="-3.51453">
        <ele>95.1</ele>
        <time>2021-11-16T09:49:09.000Z</time>
      </trkpt>
      <trkpt lat="47.86921" lon="-3.51453">
        <ele>95.7</ele>
        <time>2021-11-16T09:49:12.000Z</time>
      </trkpt>
      <trkpt lat="47.86918" lon="-3.51453">
        <ele>96.6</ele>
        <time>2021-11-16T09:49:15.000Z</time>
      </trkpt>
      <trkpt lat="47.86917" lon="-3.5145">
        <ele>96.8</ele>
        <time>2021-11-16T09:49:18.000Z</time>
      </trkpt>
      <trkpt lat="47.86917" lon="-3.5145">
        <ele>96.9</ele>
        <time>2021-11-16T09:49:20.000Z</time>
      </trkpt>
      <trkpt lat="47.86917" lon="-3.5145">
        <ele>96.9</ele>
        <time>2021-11-16T09:49:22.000Z</time>
      </trkpt>
      <trkpt lat="47.86916" lon="-3.51448">
        <ele>97</ele>
        <time>2021-11-16T09:49:25.000Z</time>
      </trkpt>
      <trkpt lat="47.86916" lon="-3.51448">
        <ele>97</ele>
        <time>2021-11-16T09:49:26.000Z</time>
      </trkpt>
      <trkpt lat="47.86916" lon="-3.51448">
        <ele>97.1</ele>
        <time>2021-11-16T09:49:27.000Z</time>
      </trkpt>
      <trkpt lat="47.86916" lon="-3.51447">
        <ele>97.5</ele>
        <time>2021-11-16T09:49:30.000Z</time>
      </trkpt>
      <trkpt lat="47.86917" lon="-3.51446">
        <ele>97.3</ele>
        <time>2021-11-16T09:49:33.000Z</time>
      </trkpt>
      <trkpt lat="47.86917" lon="-3.51446">
        <ele>97.4</ele>
        <time>2021-11-16T09:49:36.000Z</time>
      </trkpt>
      <trkpt lat="47.86917" lon="-3.51447">
        <ele>97.5</ele>
        <time>2021-11-16T09:49:39.000Z</time>
      </trkpt>
      <trkpt lat="47.86917" lon="-3.51446">
        <ele>97.7</ele>
        <time>2021-11-16T09:49:40.000Z</time>
      </trkpt>
      <trkpt lat="47.86916" lon="-3.51446">
        <ele>97.9</ele>
        <time>2021-11-16T09:49:42.000Z</time>
      </trkpt>
      <trkpt lat="47.86916" lon="-3.51446">
        <ele>97.6</ele>
        <time>2021-11-16T09:49:43.000Z</time>
      </trkpt>
      <trkpt lat="47.86914" lon="-3.51444">
        <ele>97.3</ele>
        <time>2021-11-16T09:49:46.000Z</time>
      </trkpt>
      <trkpt lat="47.86912" lon="-3.51441">
        <ele>97.1</ele>
        <time>2021-11-16T09:49:49.000Z</time>
      </trkpt>
      <trkpt lat="47.8691" lon="-3.51439">
        <ele>97.5</ele>
        <time>2021-11-16T09:49:52.000Z</time>
      </trkpt>
      <trkpt lat="47.86909" lon="-3.51438">
        <ele>97.6</ele>
        <time>2021-11-16T09:49:55.000Z</time>
      </trkpt>
      <trkpt lat="47.86908" lon="-3.51433">
        <ele>97.9</ele>
        <time>2021-11-16T09:49:58.000Z</time>
      </trkpt>
      <trkpt lat="47.86905" lon="-3.51428">
        <ele>97.5</ele>
        <time>2021-11-16T09:50:01.000Z</time>
      </trkpt>
      <trkpt lat="47.86899" lon="-3.51429">
        <ele>98.2</ele>
        <time>2021-11-16T09:50:04.000Z</time>
      </trkpt>
      <trkpt lat="47.86894" lon="-3.5143">
        <ele>97.5</ele>
        <time>2021-11-16T09:50:07.000Z</time>
      </trkpt>
      <trkpt lat="47.86889" lon="-3.51434">
        <ele>95.4</ele>
        <time>2021-11-16T09:50:10.000Z</time>
      </trkpt>
      <trkpt lat="47.86881" lon="-3.51436">
        <ele>98.8</ele>
        <time>2021-11-16T09:50:13.000Z</time>
      </trkpt>
      <trkpt lat="47.86874" lon="-3.51438">
        <ele>97.3</ele>
        <time>2021-11-16T09:50:16.000Z</time>
      </trkpt>
      <trkpt lat="47.8687" lon="-3.5144">
        <ele>97.9</ele>
        <time>2021-11-16T09:50:19.000Z</time>
      </trkpt>
      <trkpt lat="47.86869" lon="-3.51441">
        <ele>98.4</ele>
        <time>2021-11-16T09:50:22.000Z</time>
      </trkpt>
      <trkpt lat="47.86867" lon="-3.5144">
        <ele>97.6</ele>
        <time>2021-11-16T09:50:25.000Z</time>
      </trkpt>
      <trkpt lat="47.86863" lon="-3.51435">
        <ele>97.9</ele>
        <time>2021-11-16T09:50:28.000Z</time>
      </trkpt>
      <trkpt lat="47.86859" lon="-3.51433">
        <ele>98.1</ele>
        <time>2021-11-16T09:50:31.000Z</time>
      </trkpt>
      <trkpt lat="47.86855" lon="-3.51434">
        <ele>96.9</ele>
        <time>2021-11-16T09:50:34.000Z</time>
      </trkpt>
      <trkpt lat="47.86852" lon="-3.51438">
        <ele>98.3</ele>
        <time>2021-11-16T09:50:37.000Z</time>
      </trkpt>
      <trkpt lat="47.86849" lon="-3.51444">
        <ele>98.5</ele>
        <time>2021-11-16T09:50:40.000Z</time>
      </trkpt>
      <trkpt lat="47.86846" lon="-3.51446">
        <ele>98.5</ele>
        <time>2021-11-16T09:50:43.000Z</time>
      </trkpt>
      <trkpt lat="47.86845" lon="-3.51446">
        <ele>98.3</ele>
        <time>2021-11-16T09:50:46.000Z</time>
      </trkpt>
      <trkpt lat="47.86844" lon="-3.51449">
        <ele>98</ele>
        <time>2021-11-16T09:50:49.000Z</time>
      </trkpt>
      <trkpt lat="47.86844" lon="-3.5145">
        <ele>98.3</ele>
        <time>2021-11-16T09:50:52.000Z</time>
      </trkpt>
      <trkpt lat="47.86844" lon="-3.5145">
        <ele>98.1</ele>
        <time>2021-11-16T09:50:53.000Z</time>
      </trkpt>
      <trkpt lat="47.86844" lon="-3.5145">
        <ele>98.1</ele>
        <time>2021-11-16T09:50:55.000Z</time>
      </trkpt>
      <trkpt lat="47.86843" lon="-3.51453">
        <ele>97.9</ele>
        <time>2021-11-16T09:50:58.000Z</time>
      </trkpt>
      <trkpt lat="47.86839" lon="-3.51455">
        <ele>98</ele>
        <time>2021-11-16T09:51:01.000Z</time>
      </trkpt>
      <trkpt lat="47.86839" lon="-3.51456">
        <ele>97.7</ele>
        <time>2021-11-16T09:51:04.000Z</time>
      </trkpt>
      <trkpt lat="47.86838" lon="-3.51457">
        <ele>98.3</ele>
        <time>2021-11-16T09:51:07.000Z</time>
      </trkpt>
      <trkpt lat="47.86838" lon="-3.51457">
        <ele>98.2</ele>
        <time>2021-11-16T09:51:10.000Z</time>
      </trkpt>
      <trkpt lat="47.86837" lon="-3.51457">
        <ele>98.2</ele>
        <time>2021-11-16T09:51:13.000Z</time>
      </trkpt>
      <trkpt lat="47.86836" lon="-3.51458">
        <ele>98.2</ele>
        <time>2021-11-16T09:51:16.000Z</time>
      </trkpt>
      <trkpt lat="47.86836" lon="-3.51458">
        <ele>97.9</ele>
        <time>2021-11-16T09:51:18.000Z</time>
      </trkpt>
      <trkpt lat="47.86833" lon="-3.51458">
        <ele>97.5</ele>
        <time>2021-11-16T09:51:21.000Z</time>
      </trkpt>
      <trkpt lat="47.86831" lon="-3.51459">
        <ele>96.8</ele>
        <time>2021-11-16T09:51:24.000Z</time>
      </trkpt>
      <trkpt lat="47.86825" lon="-3.51461">
        <ele>97.8</ele>
        <time>2021-11-16T09:51:27.000Z</time>
      </trkpt>
      <trkpt lat="47.86818" lon="-3.51463">
        <ele>97</ele>
        <time>2021-11-16T09:51:30.000Z</time>
      </trkpt>
      <trkpt lat="47.86814" lon="-3.5147">
        <ele>97.2</ele>
        <time>2021-11-16T09:51:33.000Z</time>
      </trkpt>
      <trkpt lat="47.86814" lon="-3.51479">
        <ele>96.9</ele>
        <time>2021-11-16T09:51:36.000Z</time>
      </trkpt>
      <trkpt lat="47.86813" lon="-3.51486">
        <ele>96.8</ele>
        <time>2021-11-16T09:51:39.000Z</time>
      </trkpt>
      <trkpt lat="47.86808" lon="-3.51491">
        <ele>95.5</ele>
        <time>2021-11-16T09:51:42.000Z</time>
      </trkpt>
      <trkpt lat="47.86801" lon="-3.51492">
        <ele>96.7</ele>
        <time>2021-11-16T09:51:45.000Z</time>
      </trkpt>
      <trkpt lat="47.86793" lon="-3.51496">
        <ele>94.2</ele>
        <time>2021-11-16T09:51:48.000Z</time>
      </trkpt>
      <trkpt lat="47.86784" lon="-3.51502">
        <ele>93.1</ele>
        <time>2021-11-16T09:51:51.000Z</time>
      </trkpt>
      <trkpt lat="47.86775" lon="-3.51509">
        <ele>98.4</ele>
        <time>2021-11-16T09:51:54.000Z</time>
      </trkpt>
      <trkpt lat="47.86768" lon="-3.51515">
        <ele>94.2</ele>
        <time>2021-11-16T09:51:57.000Z</time>
      </trkpt>
      <trkpt lat="47.8676" lon="-3.51522">
        <ele>94.9</ele>
        <time>2021-11-16T09:52:00.000Z</time>
      </trkpt>
      <trkpt lat="47.86752" lon="-3.51527">
        <ele>94.8</ele>
        <time>2021-11-16T09:52:03.000Z</time>
      </trkpt>
      <trkpt lat="47.86743" lon="-3.51533">
        <ele>94.9</ele>
        <time>2021-11-16T09:52:06.000Z</time>
      </trkpt>
      <trkpt lat="47.86735" lon="-3.51534">
        <ele>90.1</ele>
        <time>2021-11-16T09:52:09.000Z</time>
      </trkpt>
      <trkpt lat="47.86725" lon="-3.51533">
        <ele>91.7</ele>
        <time>2021-11-16T09:52:12.000Z</time>
      </trkpt>
      <trkpt lat="47.86713" lon="-3.5153">
        <ele>90.9</ele>
        <time>2021-11-16T09:52:15.000Z</time>
      </trkpt>
      <trkpt lat="47.86701" lon="-3.51526">
        <ele>92.9</ele>
        <time>2021-11-16T09:52:18.000Z</time>
      </trkpt>
      <trkpt lat="47.86687" lon="-3.51523">
        <ele>90.1</ele>
        <time>2021-11-16T09:52:21.000Z</time>
      </trkpt>
      <trkpt lat="47.86674" lon="-3.51519">
        <ele>91.7</ele>
        <time>2021-11-16T09:52:24.000Z</time>
      </trkpt>
      <trkpt lat="47.8666" lon="-3.51516">
        <ele>89.8</ele>
        <time>2021-11-16T09:52:27.000Z</time>
      </trkpt>
      <trkpt lat="47.86647" lon="-3.51518">
        <ele>87.7</ele>
        <time>2021-11-16T09:52:30.000Z</time>
      </trkpt>
      <trkpt lat="47.86634" lon="-3.51523">
        <ele>89.7</ele>
        <time>2021-11-16T09:52:33.000Z</time>
      </trkpt>
      <trkpt lat="47.86619" lon="-3.51521">
        <ele>88.8</ele>
        <time>2021-11-16T09:52:36.000Z</time>
      </trkpt>
      <trkpt lat="47.86602" lon="-3.51515">
        <ele>86.3</ele>
        <time>2021-11-16T09:52:39.000Z</time>
      </trkpt>
      <trkpt lat="47.86584" lon="-3.51509">
        <ele>87.7</ele>
        <time>2021-11-16T09:52:42.000Z</time>
      </trkpt>
      <trkpt lat="47.86563" lon="-3.51506">
        <ele>90.3</ele>
        <time>2021-11-16T09:52:45.000Z</time>
      </trkpt>
      <trkpt lat="47.86542" lon="-3.51504">
        <ele>86</ele>
        <time>2021-11-16T09:52:48.000Z</time>
      </trkpt>
      <trkpt lat="47.86527" lon="-3.51517">
        <ele>85.5</ele>
        <time>2021-11-16T09:52:51.000Z</time>
      </trkpt>
      <trkpt lat="47.86528" lon="-3.51543">
        <ele>87.5</ele>
        <time>2021-11-16T09:52:54.000Z</time>
      </trkpt>
      <trkpt lat="47.86535" lon="-3.51565">
        <ele>84.9</ele>
        <time>2021-11-16T09:52:57.000Z</time>
      </trkpt>
      <trkpt lat="47.86536" lon="-3.5158">
        <ele>86.2</ele>
        <time>2021-11-16T09:53:00.000Z</time>
      </trkpt>
      <trkpt lat="47.86534" lon="-3.51586">
        <ele>86.7</ele>
        <time>2021-11-16T09:53:03.000Z</time>
      </trkpt>
      <trkpt lat="47.86529" lon="-3.5159">
        <ele>86.4</ele>
        <time>2021-11-16T09:53:06.000Z</time>
      </trkpt>
      <trkpt lat="47.86519" lon="-3.51591">
        <ele>85.5</ele>
        <time>2021-11-16T09:53:09.000Z</time>
      </trkpt>
      <trkpt lat="47.8651" lon="-3.51571">
        <ele>84.5</ele>
        <time>2021-11-16T09:53:12.000Z</time>
      </trkpt>
      <trkpt lat="47.86503" lon="-3.51544">
        <ele>83.2</ele>
        <time>2021-11-16T09:53:15.000Z</time>
      </trkpt>
      <trkpt lat="47.86497" lon="-3.51515">
        <ele>83.9</ele>
        <time>2021-11-16T09:53:18.000Z</time>
      </trkpt>
      <trkpt lat="47.86491" lon="-3.51485">
        <ele>83</ele>
        <time>2021-11-16T09:53:21.000Z</time>
      </trkpt>
      <trkpt lat="47.86485" lon="-3.51455">
        <ele>83.9</ele>
        <time>2021-11-16T09:53:24.000Z</time>
      </trkpt>
      <trkpt lat="47.86479" lon="-3.51425">
        <ele>83.7</ele>
        <time>2021-11-16T09:53:27.000Z</time>
      </trkpt>
      <trkpt lat="47.86473" lon="-3.51396">
        <ele>83.3</ele>
        <time>2021-11-16T09:53:30.000Z</time>
      </trkpt>
      <trkpt lat="47.86467" lon="-3.51367">
        <ele>83.8</ele>
        <time>2021-11-16T09:53:33.000Z</time>
      </trkpt>
      <trkpt lat="47.86458" lon="-3.51345">
        <ele>81.2</ele>
        <time>2021-11-16T09:53:36.000Z</time>
      </trkpt>
      <trkpt lat="47.86443" lon="-3.51337">
        <ele>83.1</ele>
        <time>2021-11-16T09:53:39.000Z</time>
      </trkpt>
      <trkpt lat="47.86427" lon="-3.5133">
        <ele>79.3</ele>
        <time>2021-11-16T09:53:42.000Z</time>
      </trkpt>
      <trkpt lat="47.8641" lon="-3.51323">
        <ele>80.8</ele>
        <time>2021-11-16T09:53:45.000Z</time>
      </trkpt>
      <trkpt lat="47.86394" lon="-3.51317">
        <ele>82.3</ele>
        <time>2021-11-16T09:53:48.000Z</time>
      </trkpt>
      <trkpt lat="47.8638" lon="-3.51314">
        <ele>82</ele>
        <time>2021-11-16T09:53:51.000Z</time>
      </trkpt>
      <trkpt lat="47.86367" lon="-3.5131">
        <ele>82</ele>
        <time>2021-11-16T09:53:54.000Z</time>
      </trkpt>
      <trkpt lat="47.86355" lon="-3.51306">
        <ele>81.8</ele>
        <time>2021-11-16T09:53:57.000Z</time>
      </trkpt>
      <trkpt lat="47.86348" lon="-3.51313">
        <ele>80.8</ele>
        <time>2021-11-16T09:54:00.000Z</time>
      </trkpt>
      <trkpt lat="47.86346" lon="-3.51327">
        <ele>80.5</ele>
        <time>2021-11-16T09:54:03.000Z</time>
      </trkpt>
      <trkpt lat="47.86345" lon="-3.51343">
        <ele>81.8</ele>
        <time>2021-11-16T09:54:06.000Z</time>
      </trkpt>
      <trkpt lat="47.86346" lon="-3.51362">
        <ele>78.5</ele>
        <time>2021-11-16T09:54:09.000Z</time>
      </trkpt>
      <trkpt lat="47.86347" lon="-3.51382">
        <ele>73.5</ele>
        <time>2021-11-16T09:54:12.000Z</time>
      </trkpt>
      <trkpt lat="47.86346" lon="-3.51404">
        <ele>78.4</ele>
        <time>2021-11-16T09:54:15.000Z</time>
      </trkpt>
      <trkpt lat="47.86347" lon="-3.51428">
        <ele>76.5</ele>
        <time>2021-11-16T09:54:18.000Z</time>
      </trkpt>
      <trkpt lat="47.86347" lon="-3.51454">
        <ele>75.7</ele>
        <time>2021-11-16T09:54:21.000Z</time>
      </trkpt>
      <trkpt lat="47.86346" lon="-3.51484">
        <ele>74.2</ele>
        <time>2021-11-16T09:54:24.000Z</time>
      </trkpt>
      <trkpt lat="47.86343" lon="-3.51514">
        <ele>77.5</ele>
        <time>2021-11-16T09:54:27.000Z</time>
      </trkpt>
      <trkpt lat="47.86342" lon="-3.51542">
        <ele>76.4</ele>
        <time>2021-11-16T09:54:30.000Z</time>
      </trkpt>
      <trkpt lat="47.86344" lon="-3.51566">
        <ele>75.2</ele>
        <time>2021-11-16T09:54:33.000Z</time>
      </trkpt>
      <trkpt lat="47.86347" lon="-3.51587">
        <ele>77.8</ele>
        <time>2021-11-16T09:54:36.000Z</time>
      </trkpt>
      <trkpt lat="47.8635" lon="-3.51606">
        <ele>77.3</ele>
        <time>2021-11-16T09:54:39.000Z</time>
      </trkpt>
      <trkpt lat="47.86354" lon="-3.51623">
        <ele>78</ele>
        <time>2021-11-16T09:54:42.000Z</time>
      </trkpt>
      <trkpt lat="47.86361" lon="-3.51639">
        <ele>77.6</ele>
        <time>2021-11-16T09:54:45.000Z</time>
      </trkpt>
      <trkpt lat="47.86369" lon="-3.51655">
        <ele>83</ele>
        <time>2021-11-16T09:54:48.000Z</time>
      </trkpt>
      <trkpt lat="47.86374" lon="-3.51673">
        <ele>79.5</ele>
        <time>2021-11-16T09:54:51.000Z</time>
      </trkpt>
      <trkpt lat="47.86374" lon="-3.51694">
        <ele>79.4</ele>
        <time>2021-11-16T09:54:54.000Z</time>
      </trkpt>
      <trkpt lat="47.86371" lon="-3.51716">
        <ele>78.8</ele>
        <time>2021-11-16T09:54:57.000Z</time>
      </trkpt>
      <trkpt lat="47.86371" lon="-3.51736">
        <ele>79.3</ele>
        <time>2021-11-16T09:55:00.000Z</time>
      </trkpt>
      <trkpt lat="47.86371" lon="-3.51758">
        <ele>78.5</ele>
        <time>2021-11-16T09:55:03.000Z</time>
      </trkpt>
      <trkpt lat="47.86372" lon="-3.51781">
        <ele>80.2</ele>
        <time>2021-11-16T09:55:06.000Z</time>
      </trkpt>
      <trkpt lat="47.86373" lon="-3.51806">
        <ele>79.4</ele>
        <time>2021-11-16T09:55:09.000Z</time>
      </trkpt>
      <trkpt lat="47.86374" lon="-3.51833">
        <ele>79.1</ele>
        <time>2021-11-16T09:55:12.000Z</time>
      </trkpt>
      <trkpt lat="47.86372" lon="-3.51861">
        <ele>78.5</ele>
        <time>2021-11-16T09:55:15.000Z</time>
      </trkpt>
      <trkpt lat="47.86367" lon="-3.5189">
        <ele>79.1</ele>
        <time>2021-11-16T09:55:18.000Z</time>
      </trkpt>
      <trkpt lat="47.86363" lon="-3.5192">
        <ele>76.6</ele>
        <time>2021-11-16T09:55:21.000Z</time>
      </trkpt>
      <trkpt lat="47.86359" lon="-3.51951">
        <ele>76.1</ele>
        <time>2021-11-16T09:55:24.000Z</time>
      </trkpt>
      <trkpt lat="47.86353" lon="-3.51983">
        <ele>76.8</ele>
        <time>2021-11-16T09:55:27.000Z</time>
      </trkpt>
      <trkpt lat="47.86346" lon="-3.52014">
        <ele>75</ele>
        <time>2021-11-16T09:55:30.000Z</time>
      </trkpt>
      <trkpt lat="47.86337" lon="-3.52045">
        <ele>74.9</ele>
        <time>2021-11-16T09:55:33.000Z</time>
      </trkpt>
      <trkpt lat="47.86327" lon="-3.52075">
        <ele>74</ele>
        <time>2021-11-16T09:55:36.000Z</time>
      </trkpt>
      <trkpt lat="47.86316" lon="-3.52104">
        <ele>71.7</ele>
        <time>2021-11-16T09:55:39.000Z</time>
      </trkpt>
      <trkpt lat="47.86302" lon="-3.52125">
        <ele>70.9</ele>
        <time>2021-11-16T09:55:42.000Z</time>
      </trkpt>
      <trkpt lat="47.86292" lon="-3.52133">
        <ele>72</ele>
        <time>2021-11-16T09:55:45.000Z</time>
      </trkpt>
      <trkpt lat="47.86291" lon="-3.52134">
        <ele>71.9</ele>
        <time>2021-11-16T09:55:47.000Z</time>
      </trkpt>
      <trkpt lat="47.86291" lon="-3.52134">
        <ele>72.2</ele>
        <time>2021-11-16T09:55:50.000Z</time>
      </trkpt>
      <trkpt lat="47.86291" lon="-3.52134">
        <ele>72.4</ele>
        <time>2021-11-16T09:55:53.000Z</time>
      </trkpt>
      <trkpt lat="47.8629" lon="-3.52134">
        <ele>72.1</ele>
        <time>2021-11-16T09:55:55.000Z</time>
      </trkpt>
      <trkpt lat="47.86283" lon="-3.52127">
        <ele>71.8</ele>
        <time>2021-11-16T09:55:58.000Z</time>
      </trkpt>
      <trkpt lat="47.86274" lon="-3.5211">
        <ele>70.4</ele>
        <time>2021-11-16T09:56:01.000Z</time>
      </trkpt>
      <trkpt lat="47.86263" lon="-3.52089">
        <ele>70.3</ele>
        <time>2021-11-16T09:56:04.000Z</time>
      </trkpt>
      <trkpt lat="47.8625" lon="-3.52065">
        <ele>68.3</ele>
        <time>2021-11-16T09:56:07.000Z</time>
      </trkpt>
      <trkpt lat="47.86235" lon="-3.5204">
        <ele>67</ele>
        <time>2021-11-16T09:56:10.000Z</time>
      </trkpt>
      <trkpt lat="47.86219" lon="-3.52016">
        <ele>65.1</ele>
        <time>2021-11-16T09:56:13.000Z</time>
      </trkpt>
      <trkpt lat="47.86201" lon="-3.51994">
        <ele>66.8</ele>
        <time>2021-11-16T09:56:16.000Z</time>
      </trkpt>
      <trkpt lat="47.86181" lon="-3.51972">
        <ele>64.7</ele>
        <time>2021-11-16T09:56:19.000Z</time>
      </trkpt>
      <trkpt lat="47.86162" lon="-3.51952">
        <ele>63</ele>
        <time>2021-11-16T09:56:22.000Z</time>
      </trkpt>
      <trkpt lat="47.86142" lon="-3.51928">
        <ele>61.7</ele>
        <time>2021-11-16T09:56:25.000Z</time>
      </trkpt>
      <trkpt lat="47.86122" lon="-3.51906">
        <ele>62.3</ele>
        <time>2021-11-16T09:56:28.000Z</time>
      </trkpt>
      <trkpt lat="47.86102" lon="-3.51884">
        <ele>63.1</ele>
        <time>2021-11-16T09:56:31.000Z</time>
      </trkpt>
      <trkpt lat="47.86082" lon="-3.51861">
        <ele>63.3</ele>
        <time>2021-11-16T09:56:34.000Z</time>
      </trkpt>
      <trkpt lat="47.86065" lon="-3.51842">
        <ele>64.2</ele>
        <time>2021-11-16T09:56:37.000Z</time>
      </trkpt>
      <trkpt lat="47.8605" lon="-3.51827">
        <ele>62.4</ele>
        <time>2021-11-16T09:56:40.000Z</time>
      </trkpt>
      <trkpt lat="47.86035" lon="-3.51814">
        <ele>66.5</ele>
        <time>2021-11-16T09:56:43.000Z</time>
      </trkpt>
      <trkpt lat="47.86021" lon="-3.51801">
        <ele>64.4</ele>
        <time>2021-11-16T09:56:46.000Z</time>
      </trkpt>
      <trkpt lat="47.86008" lon="-3.51787">
        <ele>64.7</ele>
        <time>2021-11-16T09:56:49.000Z</time>
      </trkpt>
      <trkpt lat="47.85993" lon="-3.51777">
        <ele>66.3</ele>
        <time>2021-11-16T09:56:52.000Z</time>
      </trkpt>
      <trkpt lat="47.85978" lon="-3.51769">
        <ele>66</ele>
        <time>2021-11-16T09:56:55.000Z</time>
      </trkpt>
      <trkpt lat="47.85963" lon="-3.51761">
        <ele>66.7</ele>
        <time>2021-11-16T09:56:58.000Z</time>
      </trkpt>
      <trkpt lat="47.85949" lon="-3.51753">
        <ele>65.2</ele>
        <time>2021-11-16T09:57:01.000Z</time>
      </trkpt>
      <trkpt lat="47.85934" lon="-3.51746">
        <ele>66.2</ele>
        <time>2021-11-16T09:57:04.000Z</time>
      </trkpt>
      <trkpt lat="47.85919" lon="-3.5174">
        <ele>66.6</ele>
        <time>2021-11-16T09:57:07.000Z</time>
      </trkpt>
      <trkpt lat="47.85905" lon="-3.51733">
        <ele>66.4</ele>
        <time>2021-11-16T09:57:10.000Z</time>
      </trkpt>
      <trkpt lat="47.85891" lon="-3.51725">
        <ele>69.3</ele>
        <time>2021-11-16T09:57:13.000Z</time>
      </trkpt>
      <trkpt lat="47.85878" lon="-3.51719">
        <ele>68.9</ele>
        <time>2021-11-16T09:57:16.000Z</time>
      </trkpt>
      <trkpt lat="47.85865" lon="-3.51713">
        <ele>66.3</ele>
        <time>2021-11-16T09:57:19.000Z</time>
      </trkpt>
      <trkpt lat="47.85854" lon="-3.51704">
        <ele>69.9</ele>
        <time>2021-11-16T09:57:22.000Z</time>
      </trkpt>
      <trkpt lat="47.85842" lon="-3.51692">
        <ele>70.4</ele>
        <time>2021-11-16T09:57:25.000Z</time>
      </trkpt>
      <trkpt lat="47.8583" lon="-3.51678">
        <ele>69.8</ele>
        <time>2021-11-16T09:57:28.000Z</time>
      </trkpt>
      <trkpt lat="47.85817" lon="-3.51664">
        <ele>69.6</ele>
        <time>2021-11-16T09:57:31.000Z</time>
      </trkpt>
      <trkpt lat="47.85803" lon="-3.5165">
        <ele>70.1</ele>
        <time>2021-11-16T09:57:34.000Z</time>
      </trkpt>
      <trkpt lat="47.85789" lon="-3.51635">
        <ele>70.7</ele>
        <time>2021-11-16T09:57:37.000Z</time>
      </trkpt>
      <trkpt lat="47.85774" lon="-3.51619">
        <ele>69.8</ele>
        <time>2021-11-16T09:57:40.000Z</time>
      </trkpt>
      <trkpt lat="47.85759" lon="-3.51603">
        <ele>69.4</ele>
        <time>2021-11-16T09:57:43.000Z</time>
      </trkpt>
      <trkpt lat="47.85744" lon="-3.51586">
        <ele>69.4</ele>
        <time>2021-11-16T09:57:46.000Z</time>
      </trkpt>
      <trkpt lat="47.85728" lon="-3.51568">
        <ele>69.3</ele>
        <time>2021-11-16T09:57:49.000Z</time>
      </trkpt>
      <trkpt lat="47.85712" lon="-3.5155">
        <ele>67</ele>
        <time>2021-11-16T09:57:52.000Z</time>
      </trkpt>
      <trkpt lat="47.85696" lon="-3.51531">
        <ele>67</ele>
        <time>2021-11-16T09:57:55.000Z</time>
      </trkpt>
      <trkpt lat="47.8568" lon="-3.51513">
        <ele>67.8</ele>
        <time>2021-11-16T09:57:58.000Z</time>
      </trkpt>
      <trkpt lat="47.85663" lon="-3.51494">
        <ele>66</ele>
        <time>2021-11-16T09:58:01.000Z</time>
      </trkpt>
      <trkpt lat="47.85646" lon="-3.51474">
        <ele>64</ele>
        <time>2021-11-16T09:58:04.000Z</time>
      </trkpt>
      <trkpt lat="47.85629" lon="-3.51455">
        <ele>64.8</ele>
        <time>2021-11-16T09:58:07.000Z</time>
      </trkpt>
      <trkpt lat="47.85613" lon="-3.51436">
        <ele>64.7</ele>
        <time>2021-11-16T09:58:10.000Z</time>
      </trkpt>
      <trkpt lat="47.85595" lon="-3.51424">
        <ele>64.3</ele>
        <time>2021-11-16T09:58:13.000Z</time>
      </trkpt>
      <trkpt lat="47.85576" lon="-3.51435">
        <ele>64.3</ele>
        <time>2021-11-16T09:58:16.000Z</time>
      </trkpt>
      <trkpt lat="47.85555" lon="-3.51446">
        <ele>62.2</ele>
        <time>2021-11-16T09:58:19.000Z</time>
      </trkpt>
      <trkpt lat="47.85534" lon="-3.51458">
        <ele>62.4</ele>
        <time>2021-11-16T09:58:22.000Z</time>
      </trkpt>
      <trkpt lat="47.85512" lon="-3.51469">
        <ele>61.7</ele>
        <time>2021-11-16T09:58:25.000Z</time>
      </trkpt>
      <trkpt lat="47.85492" lon="-3.51486">
        <ele>60.6</ele>
        <time>2021-11-16T09:58:28.000Z</time>
      </trkpt>
      <trkpt lat="47.85474" lon="-3.51511">
        <ele>60</ele>
        <time>2021-11-16T09:58:31.000Z</time>
      </trkpt>
      <trkpt lat="47.85458" lon="-3.51534">
        <ele>60</ele>
        <time>2021-11-16T09:58:34.000Z</time>
      </trkpt>
      <trkpt lat="47.85437" lon="-3.51546">
        <ele>59.7</ele>
        <time>2021-11-16T09:58:37.000Z</time>
      </trkpt>
      <trkpt lat="47.85416" lon="-3.5155">
        <ele>60.1</ele>
        <time>2021-11-16T09:58:40.000Z</time>
      </trkpt>
      <trkpt lat="47.85395" lon="-3.51551">
        <ele>60.7</ele>
        <time>2021-11-16T09:58:43.000Z</time>
      </trkpt>
      <trkpt lat="47.85374" lon="-3.51551">
        <ele>60.5</ele>
        <time>2021-11-16T09:58:46.000Z</time>
      </trkpt>
      <trkpt lat="47.85353" lon="-3.5155">
        <ele>59.7</ele>
        <time>2021-11-16T09:58:49.000Z</time>
      </trkpt>
      <trkpt lat="47.85329" lon="-3.51551">
        <ele>58.8</ele>
        <time>2021-11-16T09:58:52.000Z</time>
      </trkpt>
      <trkpt lat="47.85307" lon="-3.51568">
        <ele>56.6</ele>
        <time>2021-11-16T09:58:55.000Z</time>
      </trkpt>
      <trkpt lat="47.85289" lon="-3.51595">
        <ele>54.4</ele>
        <time>2021-11-16T09:58:58.000Z</time>
      </trkpt>
      <trkpt lat="47.85265" lon="-3.51612">
        <ele>53.8</ele>
        <time>2021-11-16T09:59:01.000Z</time>
      </trkpt>
      <trkpt lat="47.85241" lon="-3.51618">
        <ele>53.9</ele>
        <time>2021-11-16T09:59:04.000Z</time>
      </trkpt>
      <trkpt lat="47.85218" lon="-3.51627">
        <ele>54.6</ele>
        <time>2021-11-16T09:59:07.000Z</time>
      </trkpt>
      <trkpt lat="47.85196" lon="-3.51641">
        <ele>54</ele>
        <time>2021-11-16T09:59:10.000Z</time>
      </trkpt>
      <trkpt lat="47.85175" lon="-3.51662">
        <ele>52.6</ele>
        <time>2021-11-16T09:59:13.000Z</time>
      </trkpt>
      <trkpt lat="47.8515" lon="-3.51683">
        <ele>50.5</ele>
        <time>2021-11-16T09:59:16.000Z</time>
      </trkpt>
      <trkpt lat="47.85124" lon="-3.51706">
        <ele>47.6</ele>
        <time>2021-11-16T09:59:19.000Z</time>
      </trkpt>
      <trkpt lat="47.85097" lon="-3.51735">
        <ele>45.1</ele>
        <time>2021-11-16T09:59:22.000Z</time>
      </trkpt>
      <trkpt lat="47.85072" lon="-3.51767">
        <ele>42.5</ele>
        <time>2021-11-16T09:59:25.000Z</time>
      </trkpt>
      <trkpt lat="47.85047" lon="-3.51802">
        <ele>39.1</ele>
        <time>2021-11-16T09:59:28.000Z</time>
      </trkpt>
      <trkpt lat="47.85023" lon="-3.51845">
        <ele>36.7</ele>
        <time>2021-11-16T09:59:31.000Z</time>
      </trkpt>
      <trkpt lat="47.84997" lon="-3.51879">
        <ele>34.1</ele>
        <time>2021-11-16T09:59:34.000Z</time>
      </trkpt>
      <trkpt lat="47.84971" lon="-3.51897">
        <ele>34.2</ele>
        <time>2021-11-16T09:59:37.000Z</time>
      </trkpt>
      <trkpt lat="47.84947" lon="-3.51894">
        <ele>32.3</ele>
        <time>2021-11-16T09:59:40.000Z</time>
      </trkpt>
      <trkpt lat="47.84924" lon="-3.51898">
        <ele>30.1</ele>
        <time>2021-11-16T09:59:43.000Z</time>
      </trkpt>
      <trkpt lat="47.84907" lon="-3.51923">
        <ele>32.3</ele>
        <time>2021-11-16T09:59:46.000Z</time>
      </trkpt>
      <trkpt lat="47.84897" lon="-3.51942">
        <ele>35.1</ele>
        <time>2021-11-16T09:59:49.000Z</time>
      </trkpt>
      <trkpt lat="47.84893" lon="-3.51945">
        <ele>36.8</ele>
        <time>2021-11-16T09:59:52.000Z</time>
      </trkpt>
      <trkpt lat="47.84893" lon="-3.51945">
        <ele>37.3</ele>
        <time>2021-11-16T09:59:53.000Z</time>
      </trkpt>
      <trkpt lat="47.84893" lon="-3.51944">
        <ele>37.7</ele>
        <time>2021-11-16T09:59:54.000Z</time>
      </trkpt>
      <trkpt lat="47.8489" lon="-3.51938">
        <ele>38.6</ele>
        <time>2021-11-16T09:59:57.000Z</time>
      </trkpt>
      <trkpt lat="47.84884" lon="-3.51931">
        <ele>39.7</ele>
        <time>2021-11-16T10:00:00.000Z</time>
      </trkpt>
      <trkpt lat="47.84879" lon="-3.51924">
        <ele>40.9</ele>
        <time>2021-11-16T10:00:03.000Z</time>
      </trkpt>
      <trkpt lat="47.84874" lon="-3.51917">
        <ele>41.6</ele>
        <time>2021-11-16T10:00:06.000Z</time>
      </trkpt>
      <trkpt lat="47.8487" lon="-3.51911">
        <ele>42.4</ele>
        <time>2021-11-16T10:00:09.000Z</time>
      </trkpt>
      <trkpt lat="47.84868" lon="-3.51908">
        <ele>43.3</ele>
        <time>2021-11-16T10:00:12.000Z</time>
      </trkpt>
      <trkpt lat="47.84863" lon="-3.51903">
        <ele>44.2</ele>
        <time>2021-11-16T10:00:15.000Z</time>
      </trkpt>
      <trkpt lat="47.84859" lon="-3.51899">
        <ele>45</ele>
        <time>2021-11-16T10:00:18.000Z</time>
      </trkpt>
      <trkpt lat="47.84854" lon="-3.51895">
        <ele>45.9</ele>
        <time>2021-11-16T10:00:21.000Z</time>
      </trkpt>
      <trkpt lat="47.84848" lon="-3.5189">
        <ele>46.8</ele>
        <time>2021-11-16T10:00:24.000Z</time>
      </trkpt>
      <trkpt lat="47.8484" lon="-3.51885">
        <ele>47.4</ele>
        <time>2021-11-16T10:00:27.000Z</time>
      </trkpt>
      <trkpt lat="47.84833" lon="-3.51881">
        <ele>48.2</ele>
        <time>2021-11-16T10:00:30.000Z</time>
      </trkpt>
      <trkpt lat="47.84828" lon="-3.51876">
        <ele>48.9</ele>
        <time>2021-11-16T10:00:33.000Z</time>
      </trkpt>
      <trkpt lat="47.84822" lon="-3.51873">
        <ele>49.4</ele>
        <time>2021-11-16T10:00:36.000Z</time>
      </trkpt>
      <trkpt lat="47.84815" lon="-3.51871">
        <ele>50.1</ele>
        <time>2021-11-16T10:00:39.000Z</time>
      </trkpt>
      <trkpt lat="47.84809" lon="-3.5187">
        <ele>51</ele>
        <time>2021-11-16T10:00:42.000Z</time>
      </trkpt>
      <trkpt lat="47.84805" lon="-3.5187">
        <ele>52</ele>
        <time>2021-11-16T10:00:45.000Z</time>
      </trkpt>
      <trkpt lat="47.84799" lon="-3.51868">
        <ele>52.8</ele>
        <time>2021-11-16T10:00:48.000Z</time>
      </trkpt>
      <trkpt lat="47.84793" lon="-3.51865">
        <ele>53.2</ele>
        <time>2021-11-16T10:00:51.000Z</time>
      </trkpt>
      <trkpt lat="47.84787" lon="-3.51865">
        <ele>54</ele>
        <time>2021-11-16T10:00:54.000Z</time>
      </trkpt>
      <trkpt lat="47.84781" lon="-3.51866">
        <ele>55.1</ele>
        <time>2021-11-16T10:00:57.000Z</time>
      </trkpt>
      <trkpt lat="47.84775" lon="-3.51867">
        <ele>56.4</ele>
        <time>2021-11-16T10:01:00.000Z</time>
      </trkpt>
      <trkpt lat="47.8477" lon="-3.51869">
        <ele>56.8</ele>
        <time>2021-11-16T10:01:03.000Z</time>
      </trkpt>
      <trkpt lat="47.84765" lon="-3.51871">
        <ele>57.5</ele>
        <time>2021-11-16T10:01:06.000Z</time>
      </trkpt>
      <trkpt lat="47.84759" lon="-3.51873">
        <ele>58.4</ele>
        <time>2021-11-16T10:01:09.000Z</time>
      </trkpt>
      <trkpt lat="47.84754" lon="-3.51877">
        <ele>59.3</ele>
        <time>2021-11-16T10:01:12.000Z</time>
      </trkpt>
      <trkpt lat="47.84748" lon="-3.51881">
        <ele>59.8</ele>
        <time>2021-11-16T10:01:15.000Z</time>
      </trkpt>
      <trkpt lat="47.84743" lon="-3.51884">
        <ele>60.9</ele>
        <time>2021-11-16T10:01:18.000Z</time>
      </trkpt>
      <trkpt lat="47.84738" lon="-3.51888">
        <ele>61.4</ele>
        <time>2021-11-16T10:01:21.000Z</time>
      </trkpt>
      <trkpt lat="47.84733" lon="-3.51891">
        <ele>62.4</ele>
        <time>2021-11-16T10:01:24.000Z</time>
      </trkpt>
      <trkpt lat="47.84728" lon="-3.51896">
        <ele>62.8</ele>
        <time>2021-11-16T10:01:27.000Z</time>
      </trkpt>
      <trkpt lat="47.84722" lon="-3.51901">
        <ele>63.5</ele>
        <time>2021-11-16T10:01:30.000Z</time>
      </trkpt>
      <trkpt lat="47.84716" lon="-3.51905">
        <ele>64</ele>
        <time>2021-11-16T10:01:33.000Z</time>
      </trkpt>
      <trkpt lat="47.8471" lon="-3.51909">
        <ele>64.9</ele>
        <time>2021-11-16T10:01:36.000Z</time>
      </trkpt>
      <trkpt lat="47.84705" lon="-3.51914">
        <ele>65.2</ele>
        <time>2021-11-16T10:01:39.000Z</time>
      </trkpt>
      <trkpt lat="47.84699" lon="-3.51918">
        <ele>65.7</ele>
        <time>2021-11-16T10:01:42.000Z</time>
      </trkpt>
      <trkpt lat="47.84693" lon="-3.51924">
        <ele>66.1</ele>
        <time>2021-11-16T10:01:45.000Z</time>
      </trkpt>
      <trkpt lat="47.84686" lon="-3.51928">
        <ele>66.9</ele>
        <time>2021-11-16T10:01:48.000Z</time>
      </trkpt>
      <trkpt lat="47.8468" lon="-3.51932">
        <ele>66.4</ele>
        <time>2021-11-16T10:01:51.000Z</time>
      </trkpt>
      <trkpt lat="47.84673" lon="-3.51937">
        <ele>66.7</ele>
        <time>2021-11-16T10:01:54.000Z</time>
      </trkpt>
      <trkpt lat="47.84665" lon="-3.51942">
        <ele>67.3</ele>
        <time>2021-11-16T10:01:57.000Z</time>
      </trkpt>
      <trkpt lat="47.84657" lon="-3.51946">
        <ele>67.7</ele>
        <time>2021-11-16T10:02:00.000Z</time>
      </trkpt>
      <trkpt lat="47.84649" lon="-3.51951">
        <ele>67.9</ele>
        <time>2021-11-16T10:02:03.000Z</time>
      </trkpt>
      <trkpt lat="47.84638" lon="-3.51956">
        <ele>67.7</ele>
        <time>2021-11-16T10:02:06.000Z</time>
      </trkpt>
      <trkpt lat="47.84622" lon="-3.51961">
        <ele>66.1</ele>
        <time>2021-11-16T10:02:09.000Z</time>
      </trkpt>
      <trkpt lat="47.84601" lon="-3.51969">
        <ele>63.6</ele>
        <time>2021-11-16T10:02:12.000Z</time>
      </trkpt>
      <trkpt lat="47.84575" lon="-3.5198">
        <ele>60</ele>
        <time>2021-11-16T10:02:15.000Z</time>
      </trkpt>
      <trkpt lat="47.84545" lon="-3.51995">
        <ele>55.9</ele>
        <time>2021-11-16T10:02:18.000Z</time>
      </trkpt>
      <trkpt lat="47.84515" lon="-3.52011">
        <ele>54.2</ele>
        <time>2021-11-16T10:02:21.000Z</time>
      </trkpt>
      <trkpt lat="47.84485" lon="-3.52026">
        <ele>52.6</ele>
        <time>2021-11-16T10:02:24.000Z</time>
      </trkpt>
      <trkpt lat="47.84455" lon="-3.52044">
        <ele>51.1</ele>
        <time>2021-11-16T10:02:27.000Z</time>
      </trkpt>
      <trkpt lat="47.84426" lon="-3.52061">
        <ele>51.1</ele>
        <time>2021-11-16T10:02:30.000Z</time>
      </trkpt>
      <trkpt lat="47.84401" lon="-3.52076">
        <ele>51.5</ele>
        <time>2021-11-16T10:02:33.000Z</time>
      </trkpt>
      <trkpt lat="47.84378" lon="-3.5209">
        <ele>52.1</ele>
        <time>2021-11-16T10:02:36.000Z</time>
      </trkpt>
      <trkpt lat="47.84357" lon="-3.52102">
        <ele>52.7</ele>
        <time>2021-11-16T10:02:39.000Z</time>
      </trkpt>
      <trkpt lat="47.84336" lon="-3.52114">
        <ele>52.9</ele>
        <time>2021-11-16T10:02:42.000Z</time>
      </trkpt>
      <trkpt lat="47.84317" lon="-3.52126">
        <ele>53.2</ele>
        <time>2021-11-16T10:02:45.000Z</time>
      </trkpt>
      <trkpt lat="47.84298" lon="-3.52138">
        <ele>53.7</ele>
        <time>2021-11-16T10:02:48.000Z</time>
      </trkpt>
      <trkpt lat="47.8428" lon="-3.52148">
        <ele>54</ele>
        <time>2021-11-16T10:02:51.000Z</time>
      </trkpt>
      <trkpt lat="47.84261" lon="-3.5216">
        <ele>53.8</ele>
        <time>2021-11-16T10:02:54.000Z</time>
      </trkpt>
      <trkpt lat="47.84242" lon="-3.52171">
        <ele>52.6</ele>
        <time>2021-11-16T10:02:57.000Z</time>
      </trkpt>
      <trkpt lat="47.8422" lon="-3.52182">
        <ele>51.2</ele>
        <time>2021-11-16T10:03:00.000Z</time>
      </trkpt>
      <trkpt lat="47.84197" lon="-3.52193">
        <ele>49.9</ele>
        <time>2021-11-16T10:03:03.000Z</time>
      </trkpt>
      <trkpt lat="47.84171" lon="-3.52204">
        <ele>47.9</ele>
        <time>2021-11-16T10:03:06.000Z</time>
      </trkpt>
      <trkpt lat="47.84142" lon="-3.52216">
        <ele>45.5</ele>
        <time>2021-11-16T10:03:09.000Z</time>
      </trkpt>
      <trkpt lat="47.84111" lon="-3.52224">
        <ele>43.6</ele>
        <time>2021-11-16T10:03:12.000Z</time>
      </trkpt>
      <trkpt lat="47.84082" lon="-3.52219">
        <ele>42.9</ele>
        <time>2021-11-16T10:03:15.000Z</time>
      </trkpt>
      <trkpt lat="47.84057" lon="-3.52208">
        <ele>43.3</ele>
        <time>2021-11-16T10:03:18.000Z</time>
      </trkpt>
      <trkpt lat="47.84035" lon="-3.52194">
        <ele>44.1</ele>
        <time>2021-11-16T10:03:21.000Z</time>
      </trkpt>
      <trkpt lat="47.8402" lon="-3.5219">
        <ele>45.3</ele>
        <time>2021-11-16T10:03:24.000Z</time>
      </trkpt>
      <trkpt lat="47.84016" lon="-3.52185">
        <ele>45.4</ele>
        <time>2021-11-16T10:03:27.000Z</time>
      </trkpt>
      <trkpt lat="47.84013" lon="-3.52178">
        <ele>43.7</ele>
        <time>2021-11-16T10:03:30.000Z</time>
      </trkpt>
      <trkpt lat="47.8401" lon="-3.52168">
        <ele>48.6</ele>
        <time>2021-11-16T10:03:33.000Z</time>
      </trkpt>
      <trkpt lat="47.84007" lon="-3.52161">
        <ele>47.2</ele>
        <time>2021-11-16T10:03:36.000Z</time>
      </trkpt>
      <trkpt lat="47.84003" lon="-3.52155">
        <ele>47.5</ele>
        <time>2021-11-16T10:03:39.000Z</time>
      </trkpt>
      <trkpt lat="47.83997" lon="-3.52143">
        <ele>46.1</ele>
        <time>2021-11-16T10:03:42.000Z</time>
      </trkpt>
      <trkpt lat="47.83996" lon="-3.52131">
        <ele>46.5</ele>
        <time>2021-11-16T10:03:45.000Z</time>
      </trkpt>
      <trkpt lat="47.83995" lon="-3.52118">
        <ele>47.3</ele>
        <time>2021-11-16T10:03:48.000Z</time>
      </trkpt>
      <trkpt lat="47.83994" lon="-3.52107">
        <ele>45.5</ele>
        <time>2021-11-16T10:03:51.000Z</time>
      </trkpt>
      <trkpt lat="47.83993" lon="-3.52098">
        <ele>43.1</ele>
        <time>2021-11-16T10:03:54.000Z</time>
      </trkpt>
      <trkpt lat="47.83991" lon="-3.52089">
        <ele>47.7</ele>
        <time>2021-11-16T10:03:57.000Z</time>
      </trkpt>
      <trkpt lat="47.83988" lon="-3.52079">
        <ele>47.8</ele>
        <time>2021-11-16T10:04:00.000Z</time>
      </trkpt>
      <trkpt lat="47.83984" lon="-3.52065">
        <ele>46.6</ele>
        <time>2021-11-16T10:04:03.000Z</time>
      </trkpt>
      <trkpt lat="47.8398" lon="-3.52052">
        <ele>46.8</ele>
        <time>2021-11-16T10:04:06.000Z</time>
      </trkpt>
      <trkpt lat="47.83977" lon="-3.52037">
        <ele>46.4</ele>
        <time>2021-11-16T10:04:09.000Z</time>
      </trkpt>
      <trkpt lat="47.83978" lon="-3.52027">
        <ele>47.1</ele>
        <time>2021-11-16T10:04:12.000Z</time>
      </trkpt>
      <trkpt lat="47.83981" lon="-3.52019">
        <ele>49.1</ele>
        <time>2021-11-16T10:04:15.000Z</time>
      </trkpt>
      <trkpt lat="47.83982" lon="-3.52008">
        <ele>46.2</ele>
        <time>2021-11-16T10:04:18.000Z</time>
      </trkpt>
      <trkpt lat="47.83985" lon="-3.51994">
        <ele>45.9</ele>
        <time>2021-11-16T10:04:21.000Z</time>
      </trkpt>
      <trkpt lat="47.83991" lon="-3.51979">
        <ele>49</ele>
        <time>2021-11-16T10:04:24.000Z</time>
      </trkpt>
      <trkpt lat="47.83999" lon="-3.51964">
        <ele>47.4</ele>
        <time>2021-11-16T10:04:27.000Z</time>
      </trkpt>
      <trkpt lat="47.84003" lon="-3.51953">
        <ele>47.1</ele>
        <time>2021-11-16T10:04:30.000Z</time>
      </trkpt>
      <trkpt lat="47.84005" lon="-3.51938">
        <ele>47.1</ele>
        <time>2021-11-16T10:04:33.000Z</time>
      </trkpt>
      <trkpt lat="47.84009" lon="-3.51926">
        <ele>47.4</ele>
        <time>2021-11-16T10:04:36.000Z</time>
      </trkpt>
      <trkpt lat="47.84013" lon="-3.51915">
        <ele>46.5</ele>
        <time>2021-11-16T10:04:39.000Z</time>
      </trkpt>
      <trkpt lat="47.84019" lon="-3.51904">
        <ele>49.2</ele>
        <time>2021-11-16T10:04:42.000Z</time>
      </trkpt>
      <trkpt lat="47.84026" lon="-3.51894">
        <ele>49.1</ele>
        <time>2021-11-16T10:04:45.000Z</time>
      </trkpt>
      <trkpt lat="47.84032" lon="-3.51884">
        <ele>49.1</ele>
        <time>2021-11-16T10:04:48.000Z</time>
      </trkpt>
      <trkpt lat="47.84039" lon="-3.51875">
        <ele>51.2</ele>
        <time>2021-11-16T10:04:51.000Z</time>
      </trkpt>
      <trkpt lat="47.84046" lon="-3.51866">
        <ele>50.7</ele>
        <time>2021-11-16T10:04:54.000Z</time>
      </trkpt>
      <trkpt lat="47.84051" lon="-3.51858">
        <ele>48</ele>
        <time>2021-11-16T10:04:57.000Z</time>
      </trkpt>
      <trkpt lat="47.84057" lon="-3.51849">
        <ele>48.7</ele>
        <time>2021-11-16T10:05:00.000Z</time>
      </trkpt>
      <trkpt lat="47.84065" lon="-3.51839">
        <ele>49.1</ele>
        <time>2021-11-16T10:05:03.000Z</time>
      </trkpt>
      <trkpt lat="47.8407" lon="-3.5183">
        <ele>50.3</ele>
        <time>2021-11-16T10:05:06.000Z</time>
      </trkpt>
      <trkpt lat="47.84073" lon="-3.51819">
        <ele>50.5</ele>
        <time>2021-11-16T10:05:09.000Z</time>
      </trkpt>
      <trkpt lat="47.84075" lon="-3.51805">
        <ele>51.5</ele>
        <time>2021-11-16T10:05:12.000Z</time>
      </trkpt>
      <trkpt lat="47.84075" lon="-3.51788">
        <ele>52.7</ele>
        <time>2021-11-16T10:05:15.000Z</time>
      </trkpt>
      <trkpt lat="47.84075" lon="-3.51772">
        <ele>53.5</ele>
        <time>2021-11-16T10:05:18.000Z</time>
      </trkpt>
      <trkpt lat="47.84076" lon="-3.51758">
        <ele>54.2</ele>
        <time>2021-11-16T10:05:21.000Z</time>
      </trkpt>
      <trkpt lat="47.84076" lon="-3.51745">
        <ele>53.8</ele>
        <time>2021-11-16T10:05:24.000Z</time>
      </trkpt>
      <trkpt lat="47.84077" lon="-3.51732">
        <ele>52.8</ele>
        <time>2021-11-16T10:05:27.000Z</time>
      </trkpt>
      <trkpt lat="47.84076" lon="-3.51718">
        <ele>53.8</ele>
        <time>2021-11-16T10:05:30.000Z</time>
      </trkpt>
      <trkpt lat="47.84077" lon="-3.51703">
        <ele>54</ele>
        <time>2021-11-16T10:05:33.000Z</time>
      </trkpt>
      <trkpt lat="47.84075" lon="-3.51687">
        <ele>52.1</ele>
        <time>2021-11-16T10:05:36.000Z</time>
      </trkpt>
      <trkpt lat="47.84072" lon="-3.51673">
        <ele>52.8</ele>
        <time>2021-11-16T10:05:39.000Z</time>
      </trkpt>
      <trkpt lat="47.84072" lon="-3.5166">
        <ele>55.1</ele>
        <time>2021-11-16T10:05:42.000Z</time>
      </trkpt>
      <trkpt lat="47.84071" lon="-3.51646">
        <ele>56.4</ele>
        <time>2021-11-16T10:05:45.000Z</time>
      </trkpt>
      <trkpt lat="47.84071" lon="-3.51629">
        <ele>56</ele>
        <time>2021-11-16T10:05:48.000Z</time>
      </trkpt>
      <trkpt lat="47.84071" lon="-3.51615">
        <ele>59.2</ele>
        <time>2021-11-16T10:05:51.000Z</time>
      </trkpt>
      <trkpt lat="47.8407" lon="-3.51603">
        <ele>56.7</ele>
        <time>2021-11-16T10:05:54.000Z</time>
      </trkpt>
      <trkpt lat="47.8407" lon="-3.51589">
        <ele>56.7</ele>
        <time>2021-11-16T10:05:57.000Z</time>
      </trkpt>
      <trkpt lat="47.84069" lon="-3.51578">
        <ele>57.9</ele>
        <time>2021-11-16T10:06:00.000Z</time>
      </trkpt>
      <trkpt lat="47.84068" lon="-3.51566">
        <ele>56.5</ele>
        <time>2021-11-16T10:06:03.000Z</time>
      </trkpt>
      <trkpt lat="47.84067" lon="-3.51555">
        <ele>58.1</ele>
        <time>2021-11-16T10:06:06.000Z</time>
      </trkpt>
      <trkpt lat="47.84067" lon="-3.51543">
        <ele>60.6</ele>
        <time>2021-11-16T10:06:09.000Z</time>
      </trkpt>
      <trkpt lat="47.84066" lon="-3.5153">
        <ele>58.8</ele>
        <time>2021-11-16T10:06:12.000Z</time>
      </trkpt>
      <trkpt lat="47.84065" lon="-3.51511">
        <ele>62.5</ele>
        <time>2021-11-16T10:06:15.000Z</time>
      </trkpt>
      <trkpt lat="47.84062" lon="-3.51494">
        <ele>56.7</ele>
        <time>2021-11-16T10:06:18.000Z</time>
      </trkpt>
      <trkpt lat="47.84058" lon="-3.51475">
        <ele>56.2</ele>
        <time>2021-11-16T10:06:21.000Z</time>
      </trkpt>
      <trkpt lat="47.84052" lon="-3.51453">
        <ele>57.3</ele>
        <time>2021-11-16T10:06:24.000Z</time>
      </trkpt>
      <trkpt lat="47.84046" lon="-3.51433">
        <ele>55.7</ele>
        <time>2021-11-16T10:06:27.000Z</time>
      </trkpt>
      <trkpt lat="47.84039" lon="-3.51406">
        <ele>50</ele>
        <time>2021-11-16T10:06:30.000Z</time>
      </trkpt>
      <trkpt lat="47.84031" lon="-3.51377">
        <ele>52.3</ele>
        <time>2021-11-16T10:06:33.000Z</time>
      </trkpt>
      <trkpt lat="47.84023" lon="-3.51343">
        <ele>54.7</ele>
        <time>2021-11-16T10:06:36.000Z</time>
      </trkpt>
      <trkpt lat="47.84005" lon="-3.51327">
        <ele>56.7</ele>
        <time>2021-11-16T10:06:39.000Z</time>
      </trkpt>
      <trkpt lat="47.8399" lon="-3.51332">
        <ele>53.5</ele>
        <time>2021-11-16T10:06:42.000Z</time>
      </trkpt>
      <trkpt lat="47.83977" lon="-3.5134">
        <ele>49</ele>
        <time>2021-11-16T10:06:45.000Z</time>
      </trkpt>
      <trkpt lat="47.83966" lon="-3.51345">
        <ele>55.8</ele>
        <time>2021-11-16T10:06:48.000Z</time>
      </trkpt>
      <trkpt lat="47.83954" lon="-3.51349">
        <ele>57.2</ele>
        <time>2021-11-16T10:06:51.000Z</time>
      </trkpt>
      <trkpt lat="47.83943" lon="-3.51352">
        <ele>55.8</ele>
        <time>2021-11-16T10:06:54.000Z</time>
      </trkpt>
      <trkpt lat="47.8393" lon="-3.51352">
        <ele>56.8</ele>
        <time>2021-11-16T10:06:57.000Z</time>
      </trkpt>
      <trkpt lat="47.83918" lon="-3.5135">
        <ele>58</ele>
        <time>2021-11-16T10:07:00.000Z</time>
      </trkpt>
      <trkpt lat="47.83907" lon="-3.51347">
        <ele>53.2</ele>
        <time>2021-11-16T10:07:03.000Z</time>
      </trkpt>
      <trkpt lat="47.83897" lon="-3.51344">
        <ele>55.5</ele>
        <time>2021-11-16T10:07:06.000Z</time>
      </trkpt>
      <trkpt lat="47.83887" lon="-3.51336">
        <ele>55.5</ele>
        <time>2021-11-16T10:07:09.000Z</time>
      </trkpt>
      <trkpt lat="47.83884" lon="-3.5132">
        <ele>56.2</ele>
        <time>2021-11-16T10:07:12.000Z</time>
      </trkpt>
      <trkpt lat="47.83885" lon="-3.51302">
        <ele>56.8</ele>
        <time>2021-11-16T10:07:15.000Z</time>
      </trkpt>
      <trkpt lat="47.83882" lon="-3.51282">
        <ele>54.1</ele>
        <time>2021-11-16T10:07:18.000Z</time>
      </trkpt>
      <trkpt lat="47.83868" lon="-3.51268">
        <ele>53.9</ele>
        <time>2021-11-16T10:07:21.000Z</time>
      </trkpt>
      <trkpt lat="47.83849" lon="-3.51271">
        <ele>52</ele>
        <time>2021-11-16T10:07:24.000Z</time>
      </trkpt>
      <trkpt lat="47.8383" lon="-3.51279">
        <ele>51.2</ele>
        <time>2021-11-16T10:07:27.000Z</time>
      </trkpt>
      <trkpt lat="47.8381" lon="-3.51283">
        <ele>52.1</ele>
        <time>2021-11-16T10:07:30.000Z</time>
      </trkpt>
      <trkpt lat="47.83791" lon="-3.5128">
        <ele>52.5</ele>
        <time>2021-11-16T10:07:33.000Z</time>
      </trkpt>
      <trkpt lat="47.83774" lon="-3.51275">
        <ele>54.4</ele>
        <time>2021-11-16T10:07:36.000Z</time>
      </trkpt>
      <trkpt lat="47.8376" lon="-3.51269">
        <ele>55.4</ele>
        <time>2021-11-16T10:07:39.000Z</time>
      </trkpt>
      <trkpt lat="47.83747" lon="-3.51262">
        <ele>56.5</ele>
        <time>2021-11-16T10:07:42.000Z</time>
      </trkpt>
      <trkpt lat="47.83733" lon="-3.51254">
        <ele>56.7</ele>
        <time>2021-11-16T10:07:45.000Z</time>
      </trkpt>
      <trkpt lat="47.8372" lon="-3.51241">
        <ele>56.7</ele>
        <time>2021-11-16T10:07:48.000Z</time>
      </trkpt>
      <trkpt lat="47.83709" lon="-3.51224">
        <ele>56.3</ele>
        <time>2021-11-16T10:07:51.000Z</time>
      </trkpt>
      <trkpt lat="47.837" lon="-3.51205">
        <ele>57</ele>
        <time>2021-11-16T10:07:54.000Z</time>
      </trkpt>
      <trkpt lat="47.8369" lon="-3.51188">
        <ele>57.4</ele>
        <time>2021-11-16T10:07:57.000Z</time>
      </trkpt>
      <trkpt lat="47.8368" lon="-3.51176">
        <ele>58.3</ele>
        <time>2021-11-16T10:08:00.000Z</time>
      </trkpt>
      <trkpt lat="47.83671" lon="-3.51164">
        <ele>59.3</ele>
        <time>2021-11-16T10:08:03.000Z</time>
      </trkpt>
      <trkpt lat="47.83662" lon="-3.51146">
        <ele>58.4</ele>
        <time>2021-11-16T10:08:06.000Z</time>
      </trkpt>
      <trkpt lat="47.83656" lon="-3.51124">
        <ele>58</ele>
        <time>2021-11-16T10:08:09.000Z</time>
      </trkpt>
      <trkpt lat="47.83654" lon="-3.51099">
        <ele>57.9</ele>
        <time>2021-11-16T10:08:12.000Z</time>
      </trkpt>
      <trkpt lat="47.83654" lon="-3.51071">
        <ele>56.5</ele>
        <time>2021-11-16T10:08:15.000Z</time>
      </trkpt>
      <trkpt lat="47.83655" lon="-3.51042">
        <ele>56.6</ele>
        <time>2021-11-16T10:08:18.000Z</time>
      </trkpt>
      <trkpt lat="47.83656" lon="-3.51014">
        <ele>56</ele>
        <time>2021-11-16T10:08:21.000Z</time>
      </trkpt>
      <trkpt lat="47.83657" lon="-3.50984">
        <ele>56.1</ele>
        <time>2021-11-16T10:08:24.000Z</time>
      </trkpt>
      <trkpt lat="47.83649" lon="-3.50955">
        <ele>55</ele>
        <time>2021-11-16T10:08:27.000Z</time>
      </trkpt>
      <trkpt lat="47.83639" lon="-3.50927">
        <ele>54.8</ele>
        <time>2021-11-16T10:08:30.000Z</time>
      </trkpt>
      <trkpt lat="47.83627" lon="-3.50902">
        <ele>55.1</ele>
        <time>2021-11-16T10:08:33.000Z</time>
      </trkpt>
      <trkpt lat="47.83611" lon="-3.50886">
        <ele>54.2</ele>
        <time>2021-11-16T10:08:36.000Z</time>
      </trkpt>
      <trkpt lat="47.83592" lon="-3.50876">
        <ele>54.1</ele>
        <time>2021-11-16T10:08:39.000Z</time>
      </trkpt>
      <trkpt lat="47.83575" lon="-3.50867">
        <ele>54.8</ele>
        <time>2021-11-16T10:08:42.000Z</time>
      </trkpt>
      <trkpt lat="47.83561" lon="-3.50854">
        <ele>55.5</ele>
        <time>2021-11-16T10:08:45.000Z</time>
      </trkpt>
      <trkpt lat="47.83548" lon="-3.50841">
        <ele>55.8</ele>
        <time>2021-11-16T10:08:48.000Z</time>
      </trkpt>
      <trkpt lat="47.83536" lon="-3.50826">
        <ele>57</ele>
        <time>2021-11-16T10:08:51.000Z</time>
      </trkpt>
      <trkpt lat="47.83527" lon="-3.50809">
        <ele>57.4</ele>
        <time>2021-11-16T10:08:54.000Z</time>
      </trkpt>
      <trkpt lat="47.83518" lon="-3.50792">
        <ele>57.9</ele>
        <time>2021-11-16T10:08:57.000Z</time>
      </trkpt>
      <trkpt lat="47.83508" lon="-3.50774">
        <ele>57.8</ele>
        <time>2021-11-16T10:09:00.000Z</time>
      </trkpt>
      <trkpt lat="47.83499" lon="-3.50755">
        <ele>58.8</ele>
        <time>2021-11-16T10:09:03.000Z</time>
      </trkpt>
      <trkpt lat="47.8349" lon="-3.50735">
        <ele>58.2</ele>
        <time>2021-11-16T10:09:06.000Z</time>
      </trkpt>
      <trkpt lat="47.83482" lon="-3.50714">
        <ele>58.2</ele>
        <time>2021-11-16T10:09:09.000Z</time>
      </trkpt>
      <trkpt lat="47.83473" lon="-3.50692">
        <ele>58.2</ele>
        <time>2021-11-16T10:09:12.000Z</time>
      </trkpt>
      <trkpt lat="47.83464" lon="-3.50671">
        <ele>57.5</ele>
        <time>2021-11-16T10:09:15.000Z</time>
      </trkpt>
      <trkpt lat="47.83456" lon="-3.50648">
        <ele>58.7</ele>
        <time>2021-11-16T10:09:18.000Z</time>
      </trkpt>
      <trkpt lat="47.83453" lon="-3.50626">
        <ele>58.1</ele>
        <time>2021-11-16T10:09:21.000Z</time>
      </trkpt>
      <trkpt lat="47.83457" lon="-3.50605">
        <ele>60.7</ele>
        <time>2021-11-16T10:09:24.000Z</time>
      </trkpt>
      <trkpt lat="47.83466" lon="-3.50587">
        <ele>55.8</ele>
        <time>2021-11-16T10:09:27.000Z</time>
      </trkpt>
      <trkpt lat="47.83476" lon="-3.5057">
        <ele>60.3</ele>
        <time>2021-11-16T10:09:30.000Z</time>
      </trkpt>
      <trkpt lat="47.83485" lon="-3.50552">
        <ele>57.4</ele>
        <time>2021-11-16T10:09:33.000Z</time>
      </trkpt>
      <trkpt lat="47.83496" lon="-3.50533">
        <ele>58.2</ele>
        <time>2021-11-16T10:09:36.000Z</time>
      </trkpt>
      <trkpt lat="47.83508" lon="-3.50518">
        <ele>56</ele>
        <time>2021-11-16T10:09:39.000Z</time>
      </trkpt>
      <trkpt lat="47.83518" lon="-3.50502">
        <ele>55.5</ele>
        <time>2021-11-16T10:09:42.000Z</time>
      </trkpt>
      <trkpt lat="47.83526" lon="-3.50483">
        <ele>59.9</ele>
        <time>2021-11-16T10:09:45.000Z</time>
      </trkpt>
      <trkpt lat="47.83529" lon="-3.50464">
        <ele>58.6</ele>
        <time>2021-11-16T10:09:48.000Z</time>
      </trkpt>
      <trkpt lat="47.83533" lon="-3.50445">
        <ele>63.5</ele>
        <time>2021-11-16T10:09:51.000Z</time>
      </trkpt>
      <trkpt lat="47.83538" lon="-3.50425">
        <ele>56.2</ele>
        <time>2021-11-16T10:09:54.000Z</time>
      </trkpt>
      <trkpt lat="47.83547" lon="-3.50406">
        <ele>56.8</ele>
        <time>2021-11-16T10:09:57.000Z</time>
      </trkpt>
      <trkpt lat="47.83556" lon="-3.50386">
        <ele>62.1</ele>
        <time>2021-11-16T10:10:00.000Z</time>
      </trkpt>
      <trkpt lat="47.83565" lon="-3.50365">
        <ele>60.5</ele>
        <time>2021-11-16T10:10:03.000Z</time>
      </trkpt>
      <trkpt lat="47.83573" lon="-3.50346">
        <ele>57.4</ele>
        <time>2021-11-16T10:10:06.000Z</time>
      </trkpt>
      <trkpt lat="47.8358" lon="-3.50329">
        <ele>55.4</ele>
        <time>2021-11-16T10:10:09.000Z</time>
      </trkpt>
      <trkpt lat="47.83584" lon="-3.50311">
        <ele>56.5</ele>
        <time>2021-11-16T10:10:12.000Z</time>
      </trkpt>
      <trkpt lat="47.83591" lon="-3.5029">
        <ele>55.2</ele>
        <time>2021-11-16T10:10:15.000Z</time>
      </trkpt>
      <trkpt lat="47.83598" lon="-3.50267">
        <ele>61.3</ele>
        <time>2021-11-16T10:10:18.000Z</time>
      </trkpt>
      <trkpt lat="47.83605" lon="-3.50246">
        <ele>59.5</ele>
        <time>2021-11-16T10:10:21.000Z</time>
      </trkpt>
      <trkpt lat="47.83611" lon="-3.50227">
        <ele>60.1</ele>
        <time>2021-11-16T10:10:24.000Z</time>
      </trkpt>
      <trkpt lat="47.83606" lon="-3.50215">
        <ele>59.2</ele>
        <time>2021-11-16T10:10:27.000Z</time>
      </trkpt>
      <trkpt lat="47.83593" lon="-3.5021">
        <ele>58.3</ele>
        <time>2021-11-16T10:10:30.000Z</time>
      </trkpt>
      <trkpt lat="47.83578" lon="-3.50203">
        <ele>57.8</ele>
        <time>2021-11-16T10:10:33.000Z</time>
      </trkpt>
      <trkpt lat="47.83562" lon="-3.50196">
        <ele>57.9</ele>
        <time>2021-11-16T10:10:36.000Z</time>
      </trkpt>
      <trkpt lat="47.83545" lon="-3.50189">
        <ele>56.7</ele>
        <time>2021-11-16T10:10:39.000Z</time>
      </trkpt>
      <trkpt lat="47.83526" lon="-3.5018">
        <ele>56.8</ele>
        <time>2021-11-16T10:10:42.000Z</time>
      </trkpt>
      <trkpt lat="47.83506" lon="-3.5017">
        <ele>56.6</ele>
        <time>2021-11-16T10:10:45.000Z</time>
      </trkpt>
      <trkpt lat="47.83485" lon="-3.50161">
        <ele>56</ele>
        <time>2021-11-16T10:10:48.000Z</time>
      </trkpt>
      <trkpt lat="47.83465" lon="-3.50152">
        <ele>56.2</ele>
        <time>2021-11-16T10:10:51.000Z</time>
      </trkpt>
      <trkpt lat="47.83445" lon="-3.50143">
        <ele>56.3</ele>
        <time>2021-11-16T10:10:54.000Z</time>
      </trkpt>
      <trkpt lat="47.83425" lon="-3.50134">
        <ele>56.1</ele>
        <time>2021-11-16T10:10:57.000Z</time>
      </trkpt>
      <trkpt lat="47.83404" lon="-3.50124">
        <ele>55.9</ele>
        <time>2021-11-16T10:11:00.000Z</time>
      </trkpt>
      <trkpt lat="47.83383" lon="-3.50114">
        <ele>55.5</ele>
        <time>2021-11-16T10:11:03.000Z</time>
      </trkpt>
      <trkpt lat="47.83362" lon="-3.50104">
        <ele>55.6</ele>
        <time>2021-11-16T10:11:06.000Z</time>
      </trkpt>
      <trkpt lat="47.83341" lon="-3.50094">
        <ele>54.9</ele>
        <time>2021-11-16T10:11:09.000Z</time>
      </trkpt>
      <trkpt lat="47.83321" lon="-3.50081">
        <ele>55.3</ele>
        <time>2021-11-16T10:11:12.000Z</time>
      </trkpt>
      <trkpt lat="47.83302" lon="-3.50067">
        <ele>54.9</ele>
        <time>2021-11-16T10:11:15.000Z</time>
      </trkpt>
      <trkpt lat="47.83285" lon="-3.5005">
        <ele>55.8</ele>
        <time>2021-11-16T10:11:18.000Z</time>
      </trkpt>
      <trkpt lat="47.8327" lon="-3.50032">
        <ele>56.2</ele>
        <time>2021-11-16T10:11:21.000Z</time>
      </trkpt>
      <trkpt lat="47.83272" lon="-3.50008">
        <ele>57.4</ele>
        <time>2021-11-16T10:11:24.000Z</time>
      </trkpt>
      <trkpt lat="47.83283" lon="-3.49985">
        <ele>54.6</ele>
        <time>2021-11-16T10:11:27.000Z</time>
      </trkpt>
      <trkpt lat="47.83286" lon="-3.49973">
        <ele>41.7</ele>
      </trkpt>
      <trkpt lat="47.83289" lon="-3.49966">
        <ele>57.1</ele>
        <time>2021-11-16T10:12:48.000Z</time>
      </trkpt>
      <trkpt lat="47.83282" lon="-3.49952">
        <ele>55.2</ele>
        <time>2021-11-16T10:12:51.000Z</time>
      </trkpt>
      <trkpt lat="47.8328" lon="-3.49933">
        <ele>54.5</ele>
        <time>2021-11-16T10:12:54.000Z</time>
      </trkpt>
      <trkpt lat="47.8328" lon="-3.49909">
        <ele>55.8</ele>
        <time>2021-11-16T10:12:57.000Z</time>
      </trkpt>
      <trkpt lat="47.83277" lon="-3.49889">
        <ele>57.3</ele>
        <time>2021-11-16T10:13:00.000Z</time>
      </trkpt>
      <trkpt lat="47.83272" lon="-3.49871">
        <ele>57.9</ele>
        <time>2021-11-16T10:13:03.000Z</time>
      </trkpt>
      <trkpt lat="47.83264" lon="-3.49855">
        <ele>57.6</ele>
        <time>2021-11-16T10:13:06.000Z</time>
      </trkpt>
      <trkpt lat="47.83257" lon="-3.49842">
        <ele>57.7</ele>
        <time>2021-11-16T10:13:09.000Z</time>
      </trkpt>
      <trkpt lat="47.8325" lon="-3.4983">
        <ele>57.1</ele>
        <time>2021-11-16T10:13:12.000Z</time>
      </trkpt>
      <trkpt lat="47.83243" lon="-3.49814">
        <ele>57.6</ele>
        <time>2021-11-16T10:13:15.000Z</time>
      </trkpt>
      <trkpt lat="47.83235" lon="-3.49799">
        <ele>57.9</ele>
        <time>2021-11-16T10:13:18.000Z</time>
      </trkpt>
      <trkpt lat="47.83229" lon="-3.49784">
        <ele>58.9</ele>
        <time>2021-11-16T10:13:21.000Z</time>
      </trkpt>
      <trkpt lat="47.83222" lon="-3.49768">
        <ele>58.1</ele>
        <time>2021-11-16T10:13:24.000Z</time>
      </trkpt>
      <trkpt lat="47.83215" lon="-3.49752">
        <ele>57.9</ele>
        <time>2021-11-16T10:13:27.000Z</time>
      </trkpt>
      <trkpt lat="47.83207" lon="-3.49734">
        <ele>57.8</ele>
        <time>2021-11-16T10:13:30.000Z</time>
      </trkpt>
      <trkpt lat="47.83198" lon="-3.49716">
        <ele>58.1</ele>
        <time>2021-11-16T10:13:33.000Z</time>
      </trkpt>
      <trkpt lat="47.83189" lon="-3.49699">
        <ele>58.3</ele>
        <time>2021-11-16T10:13:36.000Z</time>
      </trkpt>
      <trkpt lat="47.83181" lon="-3.49681">
        <ele>58.3</ele>
        <time>2021-11-16T10:13:39.000Z</time>
      </trkpt>
      <trkpt lat="47.83171" lon="-3.49663">
        <ele>57.1</ele>
        <time>2021-11-16T10:13:42.000Z</time>
      </trkpt>
      <trkpt lat="47.83161" lon="-3.49643">
        <ele>57</ele>
        <time>2021-11-16T10:13:45.000Z</time>
      </trkpt>
      <trkpt lat="47.83149" lon="-3.49625">
        <ele>58.7</ele>
        <time>2021-11-16T10:13:48.000Z</time>
      </trkpt>
      <trkpt lat="47.8314" lon="-3.49606">
        <ele>58.3</ele>
        <time>2021-11-16T10:13:51.000Z</time>
      </trkpt>
      <trkpt lat="47.83134" lon="-3.49586">
        <ele>57</ele>
        <time>2021-11-16T10:13:54.000Z</time>
      </trkpt>
      <trkpt lat="47.83131" lon="-3.49571">
        <ele>58.1</ele>
        <time>2021-11-16T10:13:57.000Z</time>
      </trkpt>
      <trkpt lat="47.83124" lon="-3.49554">
        <ele>57.2</ele>
        <time>2021-11-16T10:14:00.000Z</time>
      </trkpt>
      <trkpt lat="47.83117" lon="-3.49536">
        <ele>57.4</ele>
        <time>2021-11-16T10:14:03.000Z</time>
      </trkpt>
      <trkpt lat="47.83127" lon="-3.49524">
        <ele>57</ele>
        <time>2021-11-16T10:14:06.000Z</time>
      </trkpt>
      <trkpt lat="47.83145" lon="-3.49528">
        <ele>56.1</ele>
        <time>2021-11-16T10:14:09.000Z</time>
      </trkpt>
      <trkpt lat="47.83164" lon="-3.49528">
        <ele>55.7</ele>
        <time>2021-11-16T10:14:12.000Z</time>
      </trkpt>
      <trkpt lat="47.83184" lon="-3.49523">
        <ele>55.8</ele>
        <time>2021-11-16T10:14:15.000Z</time>
      </trkpt>
      <trkpt lat="47.83204" lon="-3.49518">
        <ele>55.1</ele>
        <time>2021-11-16T10:14:18.000Z</time>
      </trkpt>
      <trkpt lat="47.83223" lon="-3.49511">
        <ele>55.2</ele>
        <time>2021-11-16T10:14:21.000Z</time>
      </trkpt>
      <trkpt lat="47.83234" lon="-3.4949">
        <ele>56</ele>
        <time>2021-11-16T10:14:24.000Z</time>
      </trkpt>
      <trkpt lat="47.83236" lon="-3.49464">
        <ele>56.9</ele>
        <time>2021-11-16T10:14:27.000Z</time>
      </trkpt>
      <trkpt lat="47.83239" lon="-3.4944">
        <ele>58</ele>
        <time>2021-11-16T10:14:30.000Z</time>
      </trkpt>
      <trkpt lat="47.83242" lon="-3.49419">
        <ele>59.4</ele>
        <time>2021-11-16T10:14:33.000Z</time>
      </trkpt>
      <trkpt lat="47.83246" lon="-3.49398">
        <ele>60.1</ele>
        <time>2021-11-16T10:14:36.000Z</time>
      </trkpt>
      <trkpt lat="47.83251" lon="-3.49379">
        <ele>60.1</ele>
        <time>2021-11-16T10:14:39.000Z</time>
      </trkpt>
      <trkpt lat="47.83256" lon="-3.49358">
        <ele>60.7</ele>
        <time>2021-11-16T10:14:42.000Z</time>
      </trkpt>
      <trkpt lat="47.8326" lon="-3.49339">
        <ele>61.7</ele>
        <time>2021-11-16T10:14:45.000Z</time>
      </trkpt>
      <trkpt lat="47.83264" lon="-3.4932">
        <ele>61.6</ele>
        <time>2021-11-16T10:14:48.000Z</time>
      </trkpt>
      <trkpt lat="47.83267" lon="-3.49302">
        <ele>63.1</ele>
        <time>2021-11-16T10:14:51.000Z</time>
      </trkpt>
      <trkpt lat="47.8327" lon="-3.49281">
        <ele>62.4</ele>
        <time>2021-11-16T10:14:54.000Z</time>
      </trkpt>
      <trkpt lat="47.83274" lon="-3.49256">
        <ele>61.9</ele>
        <time>2021-11-16T10:14:57.000Z</time>
      </trkpt>
      <trkpt lat="47.83283" lon="-3.49231">
        <ele>61.4</ele>
        <time>2021-11-16T10:15:00.000Z</time>
      </trkpt>
      <trkpt lat="47.83296" lon="-3.492">
        <ele>57.9</ele>
        <time>2021-11-16T10:15:03.000Z</time>
      </trkpt>
      <trkpt lat="47.8331" lon="-3.49166">
        <ele>56.6</ele>
        <time>2021-11-16T10:15:06.000Z</time>
      </trkpt>
      <trkpt lat="47.83324" lon="-3.49131">
        <ele>53.9</ele>
        <time>2021-11-16T10:15:09.000Z</time>
      </trkpt>
      <trkpt lat="47.83336" lon="-3.49093">
        <ele>51.8</ele>
        <time>2021-11-16T10:15:12.000Z</time>
      </trkpt>
      <trkpt lat="47.83336" lon="-3.49051">
        <ele>52.7</ele>
        <time>2021-11-16T10:15:15.000Z</time>
      </trkpt>
      <trkpt lat="47.83332" lon="-3.49018">
        <ele>53.7</ele>
        <time>2021-11-16T10:15:18.000Z</time>
      </trkpt>
      <trkpt lat="47.83329" lon="-3.48991">
        <ele>56.4</ele>
        <time>2021-11-16T10:15:21.000Z</time>
      </trkpt>
      <trkpt lat="47.83326" lon="-3.48967">
        <ele>59.4</ele>
        <time>2021-11-16T10:15:24.000Z</time>
      </trkpt>
      <trkpt lat="47.83327" lon="-3.48947">
        <ele>58.8</ele>
        <time>2021-11-16T10:15:27.000Z</time>
      </trkpt>
      <trkpt lat="47.83327" lon="-3.48924">
        <ele>57</ele>
        <time>2021-11-16T10:15:30.000Z</time>
      </trkpt>
      <trkpt lat="47.8333" lon="-3.48904">
        <ele>57.2</ele>
        <time>2021-11-16T10:15:33.000Z</time>
      </trkpt>
      <trkpt lat="47.83321" lon="-3.48895">
        <ele>57.8</ele>
        <time>2021-11-16T10:15:36.000Z</time>
      </trkpt>
      <trkpt lat="47.83312" lon="-3.48893">
        <ele>59.1</ele>
        <time>2021-11-16T10:15:39.000Z</time>
      </trkpt>
      <trkpt lat="47.83302" lon="-3.489">
        <ele>58.4</ele>
        <time>2021-11-16T10:15:42.000Z</time>
      </trkpt>
      <trkpt lat="47.83293" lon="-3.48916">
        <ele>57.9</ele>
        <time>2021-11-16T10:15:45.000Z</time>
      </trkpt>
      <trkpt lat="47.83282" lon="-3.48933">
        <ele>58.3</ele>
        <time>2021-11-16T10:15:48.000Z</time>
      </trkpt>
      <trkpt lat="47.83267" lon="-3.48934">
        <ele>59.5</ele>
        <time>2021-11-16T10:15:51.000Z</time>
      </trkpt>
      <trkpt lat="47.83251" lon="-3.48926">
        <ele>59.6</ele>
        <time>2021-11-16T10:15:54.000Z</time>
      </trkpt>
      <trkpt lat="47.83234" lon="-3.48918">
        <ele>59.8</ele>
        <time>2021-11-16T10:15:57.000Z</time>
      </trkpt>
      <trkpt lat="47.83218" lon="-3.48916">
        <ele>60</ele>
        <time>2021-11-16T10:16:00.000Z</time>
      </trkpt>
      <trkpt lat="47.83202" lon="-3.48913">
        <ele>60.8</ele>
        <time>2021-11-16T10:16:03.000Z</time>
      </trkpt>
      <trkpt lat="47.83187" lon="-3.4891">
        <ele>60.9</ele>
        <time>2021-11-16T10:16:06.000Z</time>
      </trkpt>
      <trkpt lat="47.8317" lon="-3.48908">
        <ele>60.6</ele>
        <time>2021-11-16T10:16:09.000Z</time>
      </trkpt>
      <trkpt lat="47.83153" lon="-3.48905">
        <ele>60.2</ele>
        <time>2021-11-16T10:16:12.000Z</time>
      </trkpt>
      <trkpt lat="47.83137" lon="-3.48899">
        <ele>61.3</ele>
        <time>2021-11-16T10:16:15.000Z</time>
      </trkpt>
      <trkpt lat="47.83122" lon="-3.48891">
        <ele>61.6</ele>
        <time>2021-11-16T10:16:18.000Z</time>
      </trkpt>
      <trkpt lat="47.83123" lon="-3.48884">
        <ele>50.7</ele>
        <time>2021-11-25T13:53:15.000Z</time>
      </trkpt>
      <trkpt lat="47.8314" lon="-3.48877">
        <ele>51</ele>
        <time>2021-11-25T13:53:12.000Z</time>
      </trkpt>
      <trkpt lat="47.83156" lon="-3.48871">
        <ele>50.8</ele>
        <time>2021-11-25T13:53:09.000Z</time>
      </trkpt>
      <trkpt lat="47.83173" lon="-3.48865">
        <ele>50.7</ele>
        <time>2021-11-25T13:53:06.000Z</time>
      </trkpt>
      <trkpt lat="47.83189" lon="-3.4886">
        <ele>50.2</ele>
        <time>2021-11-25T13:53:03.000Z</time>
      </trkpt>
      <trkpt lat="47.83206" lon="-3.48853">
        <ele>49.7</ele>
        <time>2021-11-25T13:53:00.000Z</time>
      </trkpt>
      <trkpt lat="47.83222" lon="-3.48847">
        <ele>49.9</ele>
        <time>2021-11-25T13:52:57.000Z</time>
      </trkpt>
      <trkpt lat="47.83238" lon="-3.48841">
        <ele>49.4</ele>
        <time>2021-11-25T13:52:54.000Z</time>
      </trkpt>
      <trkpt lat="47.83255" lon="-3.48835">
        <ele>49</ele>
        <time>2021-11-25T13:52:51.000Z</time>
      </trkpt>
      <trkpt lat="47.83271" lon="-3.48829">
        <ele>48.4</ele>
        <time>2021-11-25T13:52:48.000Z</time>
      </trkpt>
      <trkpt lat="47.83288" lon="-3.48823">
        <ele>47.9</ele>
        <time>2021-11-25T13:52:45.000Z</time>
      </trkpt>
      <trkpt lat="47.83305" lon="-3.48816">
        <ele>47.1</ele>
        <time>2021-11-25T13:52:42.000Z</time>
      </trkpt>
      <trkpt lat="47.83322" lon="-3.48809">
        <ele>46.5</ele>
        <time>2021-11-25T13:52:39.000Z</time>
      </trkpt>
      <trkpt lat="47.83341" lon="-3.48802">
        <ele>45.5</ele>
        <time>2021-11-25T13:52:36.000Z</time>
      </trkpt>
      <trkpt lat="47.8336" lon="-3.48794">
        <ele>45.6</ele>
        <time>2021-11-25T13:52:33.000Z</time>
      </trkpt>
      <trkpt lat="47.83382" lon="-3.48787">
        <ele>45</ele>
        <time>2021-11-25T13:52:30.000Z</time>
      </trkpt>
      <trkpt lat="47.83406" lon="-3.48779">
        <ele>43.5</ele>
        <time>2021-11-25T13:52:27.000Z</time>
      </trkpt>
      <trkpt lat="47.83429" lon="-3.4877">
        <ele>44.6</ele>
        <time>2021-11-25T13:52:24.000Z</time>
      </trkpt>
      <trkpt lat="47.83452" lon="-3.48762">
        <ele>46.4</ele>
        <time>2021-11-25T13:52:21.000Z</time>
      </trkpt>
      <trkpt lat="47.83474" lon="-3.48754">
        <ele>45.9</ele>
        <time>2021-11-25T13:52:18.000Z</time>
      </trkpt>
      <trkpt lat="47.83494" lon="-3.48747">
        <ele>48</ele>
        <time>2021-11-25T13:52:15.000Z</time>
      </trkpt>
      <trkpt lat="47.83513" lon="-3.4874">
        <ele>49.2</ele>
        <time>2021-11-25T13:52:12.000Z</time>
      </trkpt>
      <trkpt lat="47.8353" lon="-3.48734">
        <ele>49.8</ele>
        <time>2021-11-25T13:52:09.000Z</time>
      </trkpt>
      <trkpt lat="47.83546" lon="-3.48729">
        <ele>50.3</ele>
        <time>2021-11-25T13:52:06.000Z</time>
      </trkpt>
      <trkpt lat="47.83562" lon="-3.48724">
        <ele>50.6</ele>
        <time>2021-11-25T13:52:03.000Z</time>
      </trkpt>
      <trkpt lat="47.83577" lon="-3.4872">
        <ele>50.7</ele>
        <time>2021-11-25T13:52:00.000Z</time>
      </trkpt>
      <trkpt lat="47.83592" lon="-3.48715">
        <ele>50.4</ele>
        <time>2021-11-25T13:51:57.000Z</time>
      </trkpt>
      <trkpt lat="47.83607" lon="-3.48712">
        <ele>50.6</ele>
        <time>2021-11-25T13:51:54.000Z</time>
      </trkpt>
      <trkpt lat="47.83621" lon="-3.48709">
        <ele>49.8</ele>
        <time>2021-11-25T13:51:51.000Z</time>
      </trkpt>
      <trkpt lat="47.83635" lon="-3.48707">
        <ele>49.5</ele>
        <time>2021-11-25T13:51:48.000Z</time>
      </trkpt>
      <trkpt lat="47.8365" lon="-3.48707">
        <ele>48.5</ele>
        <time>2021-11-25T13:51:45.000Z</time>
      </trkpt>
      <trkpt lat="47.83666" lon="-3.48707">
        <ele>48</ele>
        <time>2021-11-25T13:51:42.000Z</time>
      </trkpt>
      <trkpt lat="47.83683" lon="-3.48707">
        <ele>47.1</ele>
        <time>2021-11-25T13:51:39.000Z</time>
      </trkpt>
      <trkpt lat="47.837" lon="-3.48706">
        <ele>46.8</ele>
        <time>2021-11-25T13:51:36.000Z</time>
      </trkpt>
      <trkpt lat="47.83717" lon="-3.48704">
        <ele>46.6</ele>
        <time>2021-11-25T13:51:33.000Z</time>
      </trkpt>
      <trkpt lat="47.83733" lon="-3.48701">
        <ele>46.6</ele>
        <time>2021-11-25T13:51:30.000Z</time>
      </trkpt>
      <trkpt lat="47.8375" lon="-3.48697">
        <ele>46.4</ele>
        <time>2021-11-25T13:51:27.000Z</time>
      </trkpt>
      <trkpt lat="47.83767" lon="-3.48693">
        <ele>46.1</ele>
        <time>2021-11-25T13:51:24.000Z</time>
      </trkpt>
      <trkpt lat="47.83785" lon="-3.48689">
        <ele>45.8</ele>
        <time>2021-11-25T13:51:21.000Z</time>
      </trkpt>
      <trkpt lat="47.83802" lon="-3.48684">
        <ele>45.6</ele>
        <time>2021-11-25T13:51:18.000Z</time>
      </trkpt>
      <trkpt lat="47.8382" lon="-3.48678">
        <ele>46.1</ele>
        <time>2021-11-25T13:51:15.000Z</time>
      </trkpt>
      <trkpt lat="47.83839" lon="-3.48672">
        <ele>45.5</ele>
        <time>2021-11-25T13:51:12.000Z</time>
      </trkpt>
      <trkpt lat="47.83859" lon="-3.48664">
        <ele>44.2</ele>
        <time>2021-11-25T13:51:09.000Z</time>
      </trkpt>
      <trkpt lat="47.8388" lon="-3.48653">
        <ele>44.4</ele>
        <time>2021-11-25T13:51:06.000Z</time>
      </trkpt>
      <trkpt lat="47.83901" lon="-3.4864">
        <ele>44.4</ele>
        <time>2021-11-25T13:51:03.000Z</time>
      </trkpt>
      <trkpt lat="47.83921" lon="-3.48624">
        <ele>46.1</ele>
        <time>2021-11-25T13:51:00.000Z</time>
      </trkpt>
      <trkpt lat="47.83939" lon="-3.48606">
        <ele>47.4</ele>
        <time>2021-11-25T13:50:57.000Z</time>
      </trkpt>
      <trkpt lat="47.83954" lon="-3.48589">
        <ele>47.9</ele>
        <time>2021-11-25T13:50:54.000Z</time>
      </trkpt>
      <trkpt lat="47.83967" lon="-3.48571">
        <ele>48.2</ele>
        <time>2021-11-25T13:50:51.000Z</time>
      </trkpt>
      <trkpt lat="47.83978" lon="-3.48553">
        <ele>48.2</ele>
        <time>2021-11-25T13:50:48.000Z</time>
      </trkpt>
      <trkpt lat="47.83989" lon="-3.48536">
        <ele>48.8</ele>
        <time>2021-11-25T13:50:45.000Z</time>
      </trkpt>
      <trkpt lat="47.83997" lon="-3.48517">
        <ele>48.9</ele>
        <time>2021-11-25T13:50:42.000Z</time>
      </trkpt>
      <trkpt lat="47.84003" lon="-3.48499">
        <ele>48.4</ele>
        <time>2021-11-25T13:50:39.000Z</time>
      </trkpt>
      <trkpt lat="47.8401" lon="-3.48481">
        <ele>48.4</ele>
        <time>2021-11-25T13:50:36.000Z</time>
      </trkpt>
      <trkpt lat="47.84017" lon="-3.48461">
        <ele>48</ele>
        <time>2021-11-25T13:50:33.000Z</time>
      </trkpt>
      <trkpt lat="47.84023" lon="-3.48444">
        <ele>47.6</ele>
        <time>2021-11-25T13:50:30.000Z</time>
      </trkpt>
      <trkpt lat="47.84029" lon="-3.48427">
        <ele>47.1</ele>
        <time>2021-11-25T13:50:27.000Z</time>
      </trkpt>
      <trkpt lat="47.84035" lon="-3.4841">
        <ele>45.5</ele>
        <time>2021-11-25T13:50:24.000Z</time>
      </trkpt>
      <trkpt lat="47.84042" lon="-3.48392">
        <ele>45.1</ele>
        <time>2021-11-25T13:50:21.000Z</time>
      </trkpt>
      <trkpt lat="47.84048" lon="-3.48373">
        <ele>44</ele>
        <time>2021-11-25T13:50:18.000Z</time>
      </trkpt>
      <trkpt lat="47.84054" lon="-3.48355">
        <ele>43.4</ele>
        <time>2021-11-25T13:50:15.000Z</time>
      </trkpt>
      <trkpt lat="47.8406" lon="-3.48336">
        <ele>42.5</ele>
        <time>2021-11-25T13:50:12.000Z</time>
      </trkpt>
      <trkpt lat="47.84067" lon="-3.48316">
        <ele>42.4</ele>
        <time>2021-11-25T13:50:09.000Z</time>
      </trkpt>
      <trkpt lat="47.84074" lon="-3.48297">
        <ele>41.4</ele>
        <time>2021-11-25T13:50:06.000Z</time>
      </trkpt>
      <trkpt lat="47.8408" lon="-3.48277">
        <ele>41.3</ele>
        <time>2021-11-25T13:50:03.000Z</time>
      </trkpt>
      <trkpt lat="47.84087" lon="-3.48256">
        <ele>40.5</ele>
        <time>2021-11-25T13:50:00.000Z</time>
      </trkpt>
      <trkpt lat="47.84094" lon="-3.48234">
        <ele>39.9</ele>
        <time>2021-11-25T13:49:57.000Z</time>
      </trkpt>
      <trkpt lat="47.84102" lon="-3.48212">
        <ele>39.2</ele>
        <time>2021-11-25T13:49:54.000Z</time>
      </trkpt>
      <trkpt lat="47.8411" lon="-3.48188">
        <ele>38.8</ele>
        <time>2021-11-25T13:49:51.000Z</time>
      </trkpt>
      <trkpt lat="47.84118" lon="-3.48164">
        <ele>38</ele>
        <time>2021-11-25T13:49:48.000Z</time>
      </trkpt>
      <trkpt lat="47.84126" lon="-3.4814">
        <ele>39.1</ele>
        <time>2021-11-25T13:49:45.000Z</time>
      </trkpt>
      <trkpt lat="47.84135" lon="-3.48117">
        <ele>38.8</ele>
        <time>2021-11-25T13:49:42.000Z</time>
      </trkpt>
      <trkpt lat="47.84142" lon="-3.48093">
        <ele>38.4</ele>
        <time>2021-11-25T13:49:39.000Z</time>
      </trkpt>
      <trkpt lat="47.8415" lon="-3.48069">
        <ele>38.2</ele>
        <time>2021-11-25T13:49:36.000Z</time>
      </trkpt>
      <trkpt lat="47.84158" lon="-3.48045">
        <ele>39.3</ele>
        <time>2021-11-25T13:49:33.000Z</time>
      </trkpt>
      <trkpt lat="47.84166" lon="-3.48021">
        <ele>39</ele>
        <time>2021-11-25T13:49:30.000Z</time>
      </trkpt>
      <trkpt lat="47.84174" lon="-3.47997">
        <ele>38.3</ele>
        <time>2021-11-25T13:49:27.000Z</time>
      </trkpt>
      <trkpt lat="47.84181" lon="-3.47973">
        <ele>38.3</ele>
        <time>2021-11-25T13:49:24.000Z</time>
      </trkpt>
      <trkpt lat="47.84189" lon="-3.47949">
        <ele>38.2</ele>
        <time>2021-11-25T13:49:21.000Z</time>
      </trkpt>
      <trkpt lat="47.84197" lon="-3.47925">
        <ele>38.2</ele>
        <time>2021-11-25T13:49:18.000Z</time>
      </trkpt>
      <trkpt lat="47.84204" lon="-3.47901">
        <ele>37.4</ele>
        <time>2021-11-25T13:49:15.000Z</time>
      </trkpt>
      <trkpt lat="47.84211" lon="-3.47877">
        <ele>37.5</ele>
        <time>2021-11-25T13:49:12.000Z</time>
      </trkpt>
      <trkpt lat="47.84219" lon="-3.47853">
        <ele>37.5</ele>
        <time>2021-11-25T13:49:09.000Z</time>
      </trkpt>
      <trkpt lat="47.84227" lon="-3.47829">
        <ele>37.7</ele>
        <time>2021-11-25T13:49:06.000Z</time>
      </trkpt>
      <trkpt lat="47.84237" lon="-3.47805">
        <ele>38.3</ele>
        <time>2021-11-25T13:49:03.000Z</time>
      </trkpt>
      <trkpt lat="47.84249" lon="-3.47782">
        <ele>39.2</ele>
        <time>2021-11-25T13:49:00.000Z</time>
      </trkpt>
      <trkpt lat="47.84262" lon="-3.47764">
        <ele>39.5</ele>
        <time>2021-11-25T13:48:57.000Z</time>
      </trkpt>
      <trkpt lat="47.84274" lon="-3.47748">
        <ele>39.8</ele>
        <time>2021-11-25T13:48:54.000Z</time>
      </trkpt>
      <trkpt lat="47.84286" lon="-3.47733">
        <ele>39.8</ele>
        <time>2021-11-25T13:48:51.000Z</time>
      </trkpt>
      <trkpt lat="47.84298" lon="-3.47717">
        <ele>39.9</ele>
        <time>2021-11-25T13:48:48.000Z</time>
      </trkpt>
      <trkpt lat="47.84309" lon="-3.47701">
        <ele>40.1</ele>
        <time>2021-11-25T13:48:45.000Z</time>
      </trkpt>
      <trkpt lat="47.84318" lon="-3.47682">
        <ele>39.9</ele>
        <time>2021-11-25T13:48:42.000Z</time>
      </trkpt>
      <trkpt lat="47.84325" lon="-3.47662">
        <ele>38.8</ele>
        <time>2021-11-25T13:48:39.000Z</time>
      </trkpt>
      <trkpt lat="47.84332" lon="-3.4764">
        <ele>38</ele>
        <time>2021-11-25T13:48:36.000Z</time>
      </trkpt>
      <trkpt lat="47.84338" lon="-3.47618">
        <ele>37.4</ele>
        <time>2021-11-25T13:48:33.000Z</time>
      </trkpt>
      <trkpt lat="47.84346" lon="-3.47595">
        <ele>37.9</ele>
        <time>2021-11-25T13:48:30.000Z</time>
      </trkpt>
      <trkpt lat="47.84355" lon="-3.47575">
        <ele>38</ele>
        <time>2021-11-25T13:48:27.000Z</time>
      </trkpt>
      <trkpt lat="47.84365" lon="-3.47559">
        <ele>38</ele>
        <time>2021-11-25T13:48:24.000Z</time>
      </trkpt>
      <trkpt lat="47.84375" lon="-3.47542">
        <ele>36.8</ele>
        <time>2021-11-25T13:48:21.000Z</time>
      </trkpt>
      <trkpt lat="47.84386" lon="-3.47524">
        <ele>36.9</ele>
        <time>2021-11-25T13:48:18.000Z</time>
      </trkpt>
      <trkpt lat="47.84397" lon="-3.47504">
        <ele>35.9</ele>
        <time>2021-11-25T13:48:15.000Z</time>
      </trkpt>
      <trkpt lat="47.84406" lon="-3.47485">
        <ele>36.3</ele>
        <time>2021-11-25T13:48:12.000Z</time>
      </trkpt>
      <trkpt lat="47.84411" lon="-3.47462">
        <ele>35.5</ele>
        <time>2021-11-25T13:48:09.000Z</time>
      </trkpt>
      <trkpt lat="47.84411" lon="-3.47435">
        <ele>35.2</ele>
        <time>2021-11-25T13:48:06.000Z</time>
      </trkpt>
      <trkpt lat="47.84409" lon="-3.47414">
        <ele>34.7</ele>
        <time>2021-11-25T13:48:03.000Z</time>
      </trkpt>
      <trkpt lat="47.84406" lon="-3.47391">
        <ele>34.7</ele>
        <time>2021-11-25T13:48:00.000Z</time>
      </trkpt>
      <trkpt lat="47.84404" lon="-3.47367">
        <ele>33.3</ele>
        <time>2021-11-25T13:47:57.000Z</time>
      </trkpt>
      <trkpt lat="47.84401" lon="-3.47342">
        <ele>34</ele>
        <time>2021-11-25T13:47:54.000Z</time>
      </trkpt>
      <trkpt lat="47.84396" lon="-3.4732">
        <ele>32.7</ele>
        <time>2021-11-25T13:47:51.000Z</time>
      </trkpt>
      <trkpt lat="47.84392" lon="-3.473">
        <ele>31.6</ele>
        <time>2021-11-25T13:47:48.000Z</time>
      </trkpt>
      <trkpt lat="47.84389" lon="-3.47278">
        <ele>32.6</ele>
        <time>2021-11-25T13:47:45.000Z</time>
      </trkpt>
      <trkpt lat="47.84386" lon="-3.47255">
        <ele>32.4</ele>
        <time>2021-11-25T13:47:42.000Z</time>
      </trkpt>
      <trkpt lat="47.84383" lon="-3.47231">
        <ele>31.3</ele>
        <time>2021-11-25T13:47:39.000Z</time>
      </trkpt>
      <trkpt lat="47.84378" lon="-3.47203">
        <ele>30.7</ele>
        <time>2021-11-25T13:47:36.000Z</time>
      </trkpt>
      <trkpt lat="47.84374" lon="-3.47173">
        <ele>29.5</ele>
        <time>2021-11-25T13:47:33.000Z</time>
      </trkpt>
      <trkpt lat="47.8437" lon="-3.47139">
        <ele>28</ele>
        <time>2021-11-25T13:47:30.000Z</time>
      </trkpt>
      <trkpt lat="47.84377" lon="-3.47102">
        <ele>26.6</ele>
        <time>2021-11-25T13:47:27.000Z</time>
      </trkpt>
      <trkpt lat="47.84396" lon="-3.47074">
        <ele>25.9</ele>
        <time>2021-11-25T13:47:24.000Z</time>
      </trkpt>
      <trkpt lat="47.84419" lon="-3.47046">
        <ele>27.3</ele>
        <time>2021-11-25T13:47:21.000Z</time>
      </trkpt>
      <trkpt lat="47.84445" lon="-3.4703">
        <ele>29</ele>
        <time>2021-11-25T13:47:18.000Z</time>
      </trkpt>
      <trkpt lat="47.84471" lon="-3.47031">
        <ele>32.6</ele>
        <time>2021-11-25T13:47:15.000Z</time>
      </trkpt>
      <trkpt lat="47.84494" lon="-3.47032">
        <ele>33.7</ele>
        <time>2021-11-25T13:47:12.000Z</time>
      </trkpt>
      <trkpt lat="47.84514" lon="-3.47026">
        <ele>34.4</ele>
        <time>2021-11-25T13:47:09.000Z</time>
      </trkpt>
      <trkpt lat="47.84533" lon="-3.47012">
        <ele>34.3</ele>
        <time>2021-11-25T13:47:06.000Z</time>
      </trkpt>
      <trkpt lat="47.84549" lon="-3.46993">
        <ele>34.5</ele>
        <time>2021-11-25T13:47:03.000Z</time>
      </trkpt>
      <trkpt lat="47.84561" lon="-3.46972">
        <ele>34.6</ele>
        <time>2021-11-25T13:47:00.000Z</time>
      </trkpt>
      <trkpt lat="47.8457" lon="-3.46946">
        <ele>34.1</ele>
        <time>2021-11-25T13:46:57.000Z</time>
      </trkpt>
      <trkpt lat="47.84578" lon="-3.4692">
        <ele>32.2</ele>
        <time>2021-11-25T13:46:54.000Z</time>
      </trkpt>
      <trkpt lat="47.84587" lon="-3.46891">
        <ele>32.9</ele>
        <time>2021-11-25T13:46:51.000Z</time>
      </trkpt>
      <trkpt lat="47.84599" lon="-3.46864">
        <ele>33.7</ele>
        <time>2021-11-25T13:46:48.000Z</time>
      </trkpt>
      <trkpt lat="47.84613" lon="-3.46841">
        <ele>34.5</ele>
        <time>2021-11-25T13:46:45.000Z</time>
      </trkpt>
      <trkpt lat="47.84626" lon="-3.46822">
        <ele>35.7</ele>
        <time>2021-11-25T13:46:42.000Z</time>
      </trkpt>
      <trkpt lat="47.84639" lon="-3.46804">
        <ele>35.2</ele>
        <time>2021-11-25T13:46:39.000Z</time>
      </trkpt>
      <trkpt lat="47.8465" lon="-3.46789">
        <ele>36.3</ele>
        <time>2021-11-25T13:46:36.000Z</time>
      </trkpt>
      <trkpt lat="47.84663" lon="-3.46771">
        <ele>33.7</ele>
        <time>2021-11-25T13:46:33.000Z</time>
      </trkpt>
      <trkpt lat="47.84678" lon="-3.46751">
        <ele>32.3</ele>
        <time>2021-11-25T13:46:30.000Z</time>
      </trkpt>
      <trkpt lat="47.84694" lon="-3.46729">
        <ele>29.8</ele>
        <time>2021-11-25T13:46:27.000Z</time>
      </trkpt>
      <trkpt lat="47.84713" lon="-3.46705">
        <ele>27.9</ele>
        <time>2021-11-25T13:46:24.000Z</time>
      </trkpt>
      <trkpt lat="47.84734" lon="-3.46677">
        <ele>26.4</ele>
        <time>2021-11-25T13:46:21.000Z</time>
      </trkpt>
      <trkpt lat="47.84759" lon="-3.46642">
        <ele>24.2</ele>
        <time>2021-11-25T13:46:18.000Z</time>
      </trkpt>
      <trkpt lat="47.8479" lon="-3.46609">
        <ele>26.5</ele>
        <time>2021-11-25T13:46:15.000Z</time>
      </trkpt>
      <trkpt lat="47.84828" lon="-3.46591">
        <ele>30</ele>
        <time>2021-11-25T13:46:12.000Z</time>
      </trkpt>
      <trkpt lat="47.84866" lon="-3.46581">
        <ele>32.2</ele>
        <time>2021-11-25T13:46:09.000Z</time>
      </trkpt>
      <trkpt lat="47.84902" lon="-3.46573">
        <ele>37.3</ele>
        <time>2021-11-25T13:46:06.000Z</time>
      </trkpt>
      <trkpt lat="47.84934" lon="-3.4658">
        <ele>39.1</ele>
        <time>2021-11-25T13:46:03.000Z</time>
      </trkpt>
      <trkpt lat="47.84961" lon="-3.46601">
        <ele>42.6</ele>
        <time>2021-11-25T13:46:00.000Z</time>
      </trkpt>
      <trkpt lat="47.84983" lon="-3.46626">
        <ele>44.6</ele>
        <time>2021-11-25T13:45:57.000Z</time>
      </trkpt>
      <trkpt lat="47.85001" lon="-3.46647">
        <ele>47.5</ele>
        <time>2021-11-25T13:45:54.000Z</time>
      </trkpt>
      <trkpt lat="47.85019" lon="-3.46654">
        <ele>48.6</ele>
        <time>2021-11-25T13:45:51.000Z</time>
      </trkpt>
      <trkpt lat="47.85028" lon="-3.46639">
        <ele>48.6</ele>
        <time>2021-11-25T13:45:48.000Z</time>
      </trkpt>
      <trkpt lat="47.85027" lon="-3.46616">
        <ele>49.9</ele>
        <time>2021-11-25T13:45:45.000Z</time>
      </trkpt>
      <trkpt lat="47.85026" lon="-3.46594">
        <ele>49.3</ele>
        <time>2021-11-25T13:45:42.000Z</time>
      </trkpt>
      <trkpt lat="47.85022" lon="-3.46572">
        <ele>47.5</ele>
        <time>2021-11-25T13:45:39.000Z</time>
      </trkpt>
      <trkpt lat="47.85023" lon="-3.46548">
        <ele>47.2</ele>
        <time>2021-11-25T13:45:36.000Z</time>
      </trkpt>
      <trkpt lat="47.85037" lon="-3.46535">
        <ele>45.3</ele>
        <time>2021-11-25T13:45:33.000Z</time>
      </trkpt>
      <trkpt lat="47.85059" lon="-3.46543">
        <ele>49.5</ele>
        <time>2021-11-25T13:45:30.000Z</time>
      </trkpt>
      <trkpt lat="47.85077" lon="-3.46552">
        <ele>50.9</ele>
        <time>2021-11-25T13:45:27.000Z</time>
      </trkpt>
      <trkpt lat="47.85095" lon="-3.46556">
        <ele>51.2</ele>
        <time>2021-11-25T13:45:24.000Z</time>
      </trkpt>
      <trkpt lat="47.85112" lon="-3.46557">
        <ele>52.3</ele>
        <time>2021-11-25T13:45:21.000Z</time>
      </trkpt>
      <trkpt lat="47.85131" lon="-3.46556">
        <ele>52.4</ele>
        <time>2021-11-25T13:45:18.000Z</time>
      </trkpt>
      <trkpt lat="47.8515" lon="-3.46554">
        <ele>53.2</ele>
        <time>2021-11-25T13:45:15.000Z</time>
      </trkpt>
      <trkpt lat="47.85168" lon="-3.46551">
        <ele>52.5</ele>
        <time>2021-11-25T13:45:12.000Z</time>
      </trkpt>
      <trkpt lat="47.85187" lon="-3.46545">
        <ele>51.5</ele>
        <time>2021-11-25T13:45:09.000Z</time>
      </trkpt>
      <trkpt lat="47.85204" lon="-3.46537">
        <ele>51</ele>
        <time>2021-11-25T13:45:06.000Z</time>
      </trkpt>
      <trkpt lat="47.85222" lon="-3.46528">
        <ele>53</ele>
        <time>2021-11-25T13:45:03.000Z</time>
      </trkpt>
      <trkpt lat="47.85238" lon="-3.4652">
        <ele>52.2</ele>
        <time>2021-11-25T13:45:00.000Z</time>
      </trkpt>
      <trkpt lat="47.85255" lon="-3.46512">
        <ele>51.7</ele>
        <time>2021-11-25T13:44:57.000Z</time>
      </trkpt>
      <trkpt lat="47.8527" lon="-3.46504">
        <ele>51.9</ele>
        <time>2021-11-25T13:44:54.000Z</time>
      </trkpt>
      <trkpt lat="47.85285" lon="-3.46498">
        <ele>53.1</ele>
        <time>2021-11-25T13:44:51.000Z</time>
      </trkpt>
      <trkpt lat="47.853" lon="-3.46492">
        <ele>52.9</ele>
        <time>2021-11-25T13:44:48.000Z</time>
      </trkpt>
      <trkpt lat="47.85315" lon="-3.46487">
        <ele>51.7</ele>
        <time>2021-11-25T13:44:45.000Z</time>
      </trkpt>
      <trkpt lat="47.85329" lon="-3.46485">
        <ele>51.5</ele>
        <time>2021-11-25T13:44:42.000Z</time>
      </trkpt>
      <trkpt lat="47.85344" lon="-3.46482">
        <ele>49.7</ele>
        <time>2021-11-25T13:44:39.000Z</time>
      </trkpt>
      <trkpt lat="47.8536" lon="-3.46481">
        <ele>51.1</ele>
        <time>2021-11-25T13:44:36.000Z</time>
      </trkpt>
      <trkpt lat="47.85375" lon="-3.46479">
        <ele>49.4</ele>
        <time>2021-11-25T13:44:33.000Z</time>
      </trkpt>
      <trkpt lat="47.85391" lon="-3.46478">
        <ele>47.6</ele>
        <time>2021-11-25T13:44:30.000Z</time>
      </trkpt>
      <trkpt lat="47.85409" lon="-3.46475">
        <ele>44.6</ele>
        <time>2021-11-25T13:44:27.000Z</time>
      </trkpt>
      <trkpt lat="47.85429" lon="-3.46471">
        <ele>41.1</ele>
        <time>2021-11-25T13:44:24.000Z</time>
      </trkpt>
      <trkpt lat="47.85452" lon="-3.46465">
        <ele>40.9</ele>
        <time>2021-11-25T13:44:21.000Z</time>
      </trkpt>
      <trkpt lat="47.8548" lon="-3.46456">
        <ele>37.1</ele>
        <time>2021-11-25T13:44:18.000Z</time>
      </trkpt>
      <trkpt lat="47.85512" lon="-3.46441">
        <ele>38.8</ele>
        <time>2021-11-25T13:44:15.000Z</time>
      </trkpt>
      <trkpt lat="47.85544" lon="-3.46415">
        <ele>37.9</ele>
        <time>2021-11-25T13:44:12.000Z</time>
      </trkpt>
      <trkpt lat="47.85576" lon="-3.46385">
        <ele>39.2</ele>
        <time>2021-11-25T13:44:09.000Z</time>
      </trkpt>
      <trkpt lat="47.85607" lon="-3.46352">
        <ele>41.1</ele>
        <time>2021-11-25T13:44:06.000Z</time>
      </trkpt>
      <trkpt lat="47.85639" lon="-3.46318">
        <ele>44.8</ele>
        <time>2021-11-25T13:44:03.000Z</time>
      </trkpt>
      <trkpt lat="47.8567" lon="-3.46288">
        <ele>48.1</ele>
        <time>2021-11-25T13:44:00.000Z</time>
      </trkpt>
      <trkpt lat="47.85701" lon="-3.46263">
        <ele>52.5</ele>
        <time>2021-11-25T13:43:57.000Z</time>
      </trkpt>
      <trkpt lat="47.8573" lon="-3.46246">
        <ele>55.3</ele>
        <time>2021-11-25T13:43:54.000Z</time>
      </trkpt>
      <trkpt lat="47.85758" lon="-3.46239">
        <ele>58.4</ele>
        <time>2021-11-25T13:43:51.000Z</time>
      </trkpt>
      <trkpt lat="47.85788" lon="-3.46233">
        <ele>58</ele>
        <time>2021-11-25T13:43:48.000Z</time>
      </trkpt>
      <trkpt lat="47.85821" lon="-3.46235">
        <ele>58.9</ele>
        <time>2021-11-25T13:43:45.000Z</time>
      </trkpt>
      <trkpt lat="47.8585" lon="-3.46242">
        <ele>64.9</ele>
        <time>2021-11-25T13:43:42.000Z</time>
      </trkpt>
      <trkpt lat="47.85876" lon="-3.46246">
        <ele>66.9</ele>
        <time>2021-11-25T13:43:39.000Z</time>
      </trkpt>
      <trkpt lat="47.85898" lon="-3.46244">
        <ele>68.7</ele>
        <time>2021-11-25T13:43:36.000Z</time>
      </trkpt>
      <trkpt lat="47.85918" lon="-3.46237">
        <ele>68.3</ele>
        <time>2021-11-25T13:43:33.000Z</time>
      </trkpt>
      <trkpt lat="47.85938" lon="-3.46226">
        <ele>69.8</ele>
        <time>2021-11-25T13:43:30.000Z</time>
      </trkpt>
      <trkpt lat="47.85957" lon="-3.46211">
        <ele>70</ele>
        <time>2021-11-25T13:43:27.000Z</time>
      </trkpt>
      <trkpt lat="47.85975" lon="-3.46197">
        <ele>72</ele>
        <time>2021-11-25T13:43:24.000Z</time>
      </trkpt>
      <trkpt lat="47.85989" lon="-3.4618">
        <ele>72.4</ele>
        <time>2021-11-25T13:43:21.000Z</time>
      </trkpt>
      <trkpt lat="47.85996" lon="-3.46159">
        <ele>72.4</ele>
        <time>2021-11-25T13:43:18.000Z</time>
      </trkpt>
      <trkpt lat="47.85999" lon="-3.46138">
        <ele>72.8</ele>
        <time>2021-11-25T13:43:15.000Z</time>
      </trkpt>
      <trkpt lat="47.85999" lon="-3.46118">
        <ele>73.8</ele>
        <time>2021-11-25T13:43:12.000Z</time>
      </trkpt>
      <trkpt lat="47.86" lon="-3.46098">
        <ele>73.2</ele>
        <time>2021-11-25T13:43:09.000Z</time>
      </trkpt>
      <trkpt lat="47.86002" lon="-3.46077">
        <ele>72.8</ele>
        <time>2021-11-25T13:43:06.000Z</time>
      </trkpt>
      <trkpt lat="47.86008" lon="-3.46059">
        <ele>72.3</ele>
        <time>2021-11-25T13:43:03.000Z</time>
      </trkpt>
      <trkpt lat="47.86015" lon="-3.46043">
        <ele>72.1</ele>
        <time>2021-11-25T13:43:00.000Z</time>
      </trkpt>
      <trkpt lat="47.86021" lon="-3.46026">
        <ele>72.1</ele>
        <time>2021-11-25T13:42:57.000Z</time>
      </trkpt>
      <trkpt lat="47.86027" lon="-3.46009">
        <ele>72.9</ele>
        <time>2021-11-25T13:42:54.000Z</time>
      </trkpt>
      <trkpt lat="47.86031" lon="-3.45991">
        <ele>71.6</ele>
        <time>2021-11-25T13:42:51.000Z</time>
      </trkpt>
      <trkpt lat="47.86036" lon="-3.45973">
        <ele>71.8</ele>
        <time>2021-11-25T13:42:48.000Z</time>
      </trkpt>
      <trkpt lat="47.86041" lon="-3.45955">
        <ele>71.3</ele>
        <time>2021-11-25T13:42:45.000Z</time>
      </trkpt>
      <trkpt lat="47.86046" lon="-3.45939">
        <ele>70.8</ele>
        <time>2021-11-25T13:42:42.000Z</time>
      </trkpt>
      <trkpt lat="47.86054" lon="-3.45924">
        <ele>69.7</ele>
        <time>2021-11-25T13:42:39.000Z</time>
      </trkpt>
      <trkpt lat="47.86063" lon="-3.4591">
        <ele>69</ele>
        <time>2021-11-25T13:42:36.000Z</time>
      </trkpt>
      <trkpt lat="47.86072" lon="-3.45897">
        <ele>68.8</ele>
        <time>2021-11-25T13:42:33.000Z</time>
      </trkpt>
      <trkpt lat="47.86081" lon="-3.45883">
        <ele>68.8</ele>
        <time>2021-11-25T13:42:30.000Z</time>
      </trkpt>
      <trkpt lat="47.86089" lon="-3.45868">
        <ele>68.4</ele>
        <time>2021-11-25T13:42:27.000Z</time>
      </trkpt>
      <trkpt lat="47.86096" lon="-3.45852">
        <ele>68.3</ele>
        <time>2021-11-25T13:42:24.000Z</time>
      </trkpt>
      <trkpt lat="47.86102" lon="-3.45835">
        <ele>67.4</ele>
        <time>2021-11-25T13:42:21.000Z</time>
      </trkpt>
      <trkpt lat="47.86107" lon="-3.45816">
        <ele>64.8</ele>
        <time>2021-11-25T13:42:18.000Z</time>
      </trkpt>
      <trkpt lat="47.86112" lon="-3.45796">
        <ele>64.5</ele>
        <time>2021-11-25T13:42:15.000Z</time>
      </trkpt>
      <trkpt lat="47.86115" lon="-3.45777">
        <ele>64.9</ele>
        <time>2021-11-25T13:42:12.000Z</time>
      </trkpt>
      <trkpt lat="47.86118" lon="-3.45759">
        <ele>65</ele>
        <time>2021-11-25T13:42:09.000Z</time>
      </trkpt>
      <trkpt lat="47.8612" lon="-3.4574">
        <ele>63.4</ele>
        <time>2021-11-25T13:42:06.000Z</time>
      </trkpt>
      <trkpt lat="47.86122" lon="-3.45719">
        <ele>63.3</ele>
        <time>2021-11-25T13:42:03.000Z</time>
      </trkpt>
      <trkpt lat="47.86123" lon="-3.45697">
        <ele>62.9</ele>
        <time>2021-11-25T13:42:00.000Z</time>
      </trkpt>
      <trkpt lat="47.86124" lon="-3.45674">
        <ele>63.3</ele>
        <time>2021-11-25T13:41:57.000Z</time>
      </trkpt>
      <trkpt lat="47.86125" lon="-3.45651">
        <ele>62.3</ele>
        <time>2021-11-25T13:41:54.000Z</time>
      </trkpt>
      <trkpt lat="47.86129" lon="-3.45629">
        <ele>62.3</ele>
        <time>2021-11-25T13:41:51.000Z</time>
      </trkpt>
      <trkpt lat="47.86136" lon="-3.45608">
        <ele>62</ele>
        <time>2021-11-25T13:41:48.000Z</time>
      </trkpt>
      <trkpt lat="47.86144" lon="-3.45588">
        <ele>61.3</ele>
        <time>2021-11-25T13:41:45.000Z</time>
      </trkpt>
      <trkpt lat="47.86152" lon="-3.45569">
        <ele>61.5</ele>
        <time>2021-11-25T13:41:42.000Z</time>
      </trkpt>
      <trkpt lat="47.86158" lon="-3.4555">
        <ele>60.9</ele>
        <time>2021-11-25T13:41:39.000Z</time>
      </trkpt>
      <trkpt lat="47.86165" lon="-3.45529">
        <ele>60.5</ele>
        <time>2021-11-25T13:41:36.000Z</time>
      </trkpt>
      <trkpt lat="47.86172" lon="-3.45508">
        <ele>59.2</ele>
        <time>2021-11-25T13:41:33.000Z</time>
      </trkpt>
      <trkpt lat="47.86179" lon="-3.45486">
        <ele>58.4</ele>
        <time>2021-11-25T13:41:30.000Z</time>
      </trkpt>
      <trkpt lat="47.86186" lon="-3.45465">
        <ele>59.1</ele>
        <time>2021-11-25T13:41:27.000Z</time>
      </trkpt>
      <trkpt lat="47.86194" lon="-3.45444">
        <ele>57.9</ele>
        <time>2021-11-25T13:41:24.000Z</time>
      </trkpt>
      <trkpt lat="47.86203" lon="-3.4542">
        <ele>57</ele>
        <time>2021-11-25T13:41:21.000Z</time>
      </trkpt>
      <trkpt lat="47.86211" lon="-3.45395">
        <ele>56.3</ele>
        <time>2021-11-25T13:41:18.000Z</time>
      </trkpt>
      <trkpt lat="47.86219" lon="-3.45371">
        <ele>56.9</ele>
        <time>2021-11-25T13:41:15.000Z</time>
      </trkpt>
      <trkpt lat="47.8623" lon="-3.45344">
        <ele>54.9</ele>
        <time>2021-11-25T13:41:12.000Z</time>
      </trkpt>
      <trkpt lat="47.86242" lon="-3.45313">
        <ele>56.2</ele>
        <time>2021-11-25T13:41:09.000Z</time>
      </trkpt>
      <trkpt lat="47.86257" lon="-3.4528">
        <ele>54.3</ele>
        <time>2021-11-25T13:41:06.000Z</time>
      </trkpt>
      <trkpt lat="47.86276" lon="-3.45248">
        <ele>54.8</ele>
        <time>2021-11-25T13:41:03.000Z</time>
      </trkpt>
      <trkpt lat="47.86298" lon="-3.45221">
        <ele>55.1</ele>
        <time>2021-11-25T13:41:00.000Z</time>
      </trkpt>
      <trkpt lat="47.8632" lon="-3.45192">
        <ele>55.8</ele>
        <time>2021-11-25T13:40:57.000Z</time>
      </trkpt>
      <trkpt lat="47.86336" lon="-3.45158">
        <ele>56.7</ele>
        <time>2021-11-25T13:40:54.000Z</time>
      </trkpt>
      <trkpt lat="47.86351" lon="-3.45121">
        <ele>58.9</ele>
        <time>2021-11-25T13:40:51.000Z</time>
      </trkpt>
      <trkpt lat="47.86365" lon="-3.45084">
        <ele>61.1</ele>
        <time>2021-11-25T13:40:48.000Z</time>
      </trkpt>
      <trkpt lat="47.86384" lon="-3.45054">
        <ele>63.4</ele>
        <time>2021-11-25T13:40:45.000Z</time>
      </trkpt>
      <trkpt lat="47.86408" lon="-3.45038">
        <ele>64.3</ele>
        <time>2021-11-25T13:40:42.000Z</time>
      </trkpt>
      <trkpt lat="47.86432" lon="-3.45035">
        <ele>67.1</ele>
        <time>2021-11-25T13:40:39.000Z</time>
      </trkpt>
      <trkpt lat="47.86453" lon="-3.45032">
        <ele>69.5</ele>
        <time>2021-11-25T13:40:36.000Z</time>
      </trkpt>
      <trkpt lat="47.86472" lon="-3.45022">
        <ele>70.9</ele>
        <time>2021-11-25T13:40:33.000Z</time>
      </trkpt>
      <trkpt lat="47.86485" lon="-3.45009">
        <ele>72.2</ele>
        <time>2021-11-25T13:40:30.000Z</time>
      </trkpt>
      <trkpt lat="47.86497" lon="-3.44996">
        <ele>72.4</ele>
        <time>2021-11-25T13:40:27.000Z</time>
      </trkpt>
      <trkpt lat="47.86506" lon="-3.44981">
        <ele>73.2</ele>
        <time>2021-11-25T13:40:24.000Z</time>
      </trkpt>
      <trkpt lat="47.86514" lon="-3.44965">
        <ele>72.7</ele>
        <time>2021-11-25T13:40:21.000Z</time>
      </trkpt>
      <trkpt lat="47.8652" lon="-3.44947">
        <ele>71.6</ele>
        <time>2021-11-25T13:40:18.000Z</time>
      </trkpt>
      <trkpt lat="47.86524" lon="-3.44927">
        <ele>70.9</ele>
        <time>2021-11-25T13:40:15.000Z</time>
      </trkpt>
      <trkpt lat="47.86525" lon="-3.44911">
        <ele>70.6</ele>
        <time>2021-11-25T13:40:12.000Z</time>
      </trkpt>
      <trkpt lat="47.86526" lon="-3.44904">
        <ele>70.1</ele>
        <time>2021-11-25T13:40:09.000Z</time>
      </trkpt>
      <trkpt lat="47.86528" lon="-3.44887">
        <ele>68.4</ele>
        <time>2021-11-25T13:40:06.000Z</time>
      </trkpt>
      <trkpt lat="47.86529" lon="-3.44862">
        <ele>67.9</ele>
        <time>2021-11-25T13:40:03.000Z</time>
      </trkpt>
      <trkpt lat="47.86531" lon="-3.44837">
        <ele>67.1</ele>
        <time>2021-11-25T13:40:00.000Z</time>
      </trkpt>
      <trkpt lat="47.86535" lon="-3.44811">
        <ele>67.5</ele>
        <time>2021-11-25T13:39:57.000Z</time>
      </trkpt>
      <trkpt lat="47.86542" lon="-3.44786">
        <ele>67.1</ele>
        <time>2021-11-25T13:39:54.000Z</time>
      </trkpt>
      <trkpt lat="47.86553" lon="-3.44764">
        <ele>68.4</ele>
        <time>2021-11-25T13:39:51.000Z</time>
      </trkpt>
      <trkpt lat="47.86568" lon="-3.44749">
        <ele>68.7</ele>
        <time>2021-11-25T13:39:48.000Z</time>
      </trkpt>
      <trkpt lat="47.86584" lon="-3.44738">
        <ele>69.3</ele>
        <time>2021-11-25T13:39:45.000Z</time>
      </trkpt>
      <trkpt lat="47.86599" lon="-3.44726">
        <ele>70.3</ele>
        <time>2021-11-25T13:39:42.000Z</time>
      </trkpt>
      <trkpt lat="47.86612" lon="-3.4471">
        <ele>70.9</ele>
        <time>2021-11-25T13:39:39.000Z</time>
      </trkpt>
      <trkpt lat="47.86622" lon="-3.4469">
        <ele>70.2</ele>
        <time>2021-11-25T13:39:36.000Z</time>
      </trkpt>
      <trkpt lat="47.86629" lon="-3.44668">
        <ele>69.8</ele>
        <time>2021-11-25T13:39:33.000Z</time>
      </trkpt>
      <trkpt lat="47.86635" lon="-3.44647">
        <ele>69.7</ele>
        <time>2021-11-25T13:39:30.000Z</time>
      </trkpt>
      <trkpt lat="47.86641" lon="-3.44625">
        <ele>70.4</ele>
        <time>2021-11-25T13:39:27.000Z</time>
      </trkpt>
      <trkpt lat="47.86646" lon="-3.44603">
        <ele>70.5</ele>
        <time>2021-11-25T13:39:24.000Z</time>
      </trkpt>
      <trkpt lat="47.86651" lon="-3.4458">
        <ele>71.6</ele>
        <time>2021-11-25T13:39:21.000Z</time>
      </trkpt>
      <trkpt lat="47.86656" lon="-3.44559">
        <ele>71.3</ele>
        <time>2021-11-25T13:39:18.000Z</time>
      </trkpt>
      <trkpt lat="47.86661" lon="-3.44539">
        <ele>71.4</ele>
        <time>2021-11-25T13:39:15.000Z</time>
      </trkpt>
      <trkpt lat="47.86667" lon="-3.4452">
        <ele>71.9</ele>
        <time>2021-11-25T13:39:12.000Z</time>
      </trkpt>
      <trkpt lat="47.86675" lon="-3.44505">
        <ele>72.6</ele>
        <time>2021-11-25T13:39:09.000Z</time>
      </trkpt>
      <trkpt lat="47.86684" lon="-3.44496">
        <ele>72.8</ele>
        <time>2021-11-25T13:39:06.000Z</time>
      </trkpt>
      <trkpt lat="47.86688" lon="-3.44486">
        <ele>71.8</ele>
        <time>2021-11-25T13:39:03.000Z</time>
      </trkpt>
      <trkpt lat="47.8669" lon="-3.4447">
        <ele>71.6</ele>
        <time>2021-11-25T13:39:00.000Z</time>
      </trkpt>
      <trkpt lat="47.86694" lon="-3.44454">
        <ele>71.5</ele>
        <time>2021-11-25T13:38:57.000Z</time>
      </trkpt>
      <trkpt lat="47.86697" lon="-3.44434">
        <ele>71.4</ele>
        <time>2021-11-25T13:38:54.000Z</time>
      </trkpt>
      <trkpt lat="47.86703" lon="-3.44413">
        <ele>72.8</ele>
        <time>2021-11-25T13:38:51.000Z</time>
      </trkpt>
      <trkpt lat="47.86706" lon="-3.44394">
        <ele>70.7</ele>
        <time>2021-11-25T13:38:48.000Z</time>
      </trkpt>
      <trkpt lat="47.8671" lon="-3.44374">
        <ele>72</ele>
        <time>2021-11-25T13:38:45.000Z</time>
      </trkpt>
      <trkpt lat="47.86712" lon="-3.44355">
        <ele>72.8</ele>
        <time>2021-11-25T13:38:42.000Z</time>
      </trkpt>
      <trkpt lat="47.86715" lon="-3.44334">
        <ele>69.8</ele>
        <time>2021-11-25T13:38:39.000Z</time>
      </trkpt>
      <trkpt lat="47.86718" lon="-3.44315">
        <ele>70.2</ele>
        <time>2021-11-25T13:38:36.000Z</time>
      </trkpt>
      <trkpt lat="47.86721" lon="-3.44295">
        <ele>70</ele>
        <time>2021-11-25T13:38:33.000Z</time>
      </trkpt>
      <trkpt lat="47.86723" lon="-3.44271">
        <ele>73.4</ele>
        <time>2021-11-25T13:38:30.000Z</time>
      </trkpt>
      <trkpt lat="47.86728" lon="-3.44249">
        <ele>70.9</ele>
        <time>2021-11-25T13:38:27.000Z</time>
      </trkpt>
      <trkpt lat="47.8673" lon="-3.44232">
        <ele>69.7</ele>
        <time>2021-11-25T13:38:24.000Z</time>
      </trkpt>
      <trkpt lat="47.86732" lon="-3.44214">
        <ele>71.1</ele>
        <time>2021-11-25T13:38:21.000Z</time>
      </trkpt>
      <trkpt lat="47.86736" lon="-3.44194">
        <ele>71.6</ele>
        <time>2021-11-25T13:38:18.000Z</time>
      </trkpt>
      <trkpt lat="47.86738" lon="-3.44175">
        <ele>70.6</ele>
        <time>2021-11-25T13:38:15.000Z</time>
      </trkpt>
      <trkpt lat="47.8674" lon="-3.44155">
        <ele>71.1</ele>
        <time>2021-11-25T13:38:12.000Z</time>
      </trkpt>
      <trkpt lat="47.86744" lon="-3.44139">
        <ele>71.4</ele>
        <time>2021-11-25T13:38:09.000Z</time>
      </trkpt>
      <trkpt lat="47.86747" lon="-3.44121">
        <ele>70.3</ele>
        <time>2021-11-25T13:38:06.000Z</time>
      </trkpt>
      <trkpt lat="47.8675" lon="-3.44105">
        <ele>69.8</ele>
        <time>2021-11-25T13:38:03.000Z</time>
      </trkpt>
      <trkpt lat="47.86753" lon="-3.44088">
        <ele>71.4</ele>
        <time>2021-11-25T13:38:00.000Z</time>
      </trkpt>
      <trkpt lat="47.86755" lon="-3.44072">
        <ele>69</ele>
        <time>2021-11-25T13:37:57.000Z</time>
      </trkpt>
      <trkpt lat="47.86756" lon="-3.44057">
        <ele>67.9</ele>
        <time>2021-11-25T13:37:54.000Z</time>
      </trkpt>
      <trkpt lat="47.86759" lon="-3.4404">
        <ele>68.8</ele>
        <time>2021-11-25T13:37:51.000Z</time>
      </trkpt>
      <trkpt lat="47.86761" lon="-3.44023">
        <ele>67.8</ele>
        <time>2021-11-25T13:37:48.000Z</time>
      </trkpt>
      <trkpt lat="47.86762" lon="-3.44005">
        <ele>68.1</ele>
        <time>2021-11-25T13:37:45.000Z</time>
      </trkpt>
      <trkpt lat="47.86766" lon="-3.43982">
        <ele>68.5</ele>
        <time>2021-11-25T13:37:42.000Z</time>
      </trkpt>
      <trkpt lat="47.86771" lon="-3.43963">
        <ele>69.4</ele>
        <time>2021-11-25T13:37:39.000Z</time>
      </trkpt>
      <trkpt lat="47.86775" lon="-3.43945">
        <ele>68.8</ele>
        <time>2021-11-25T13:37:36.000Z</time>
      </trkpt>
      <trkpt lat="47.86783" lon="-3.43926">
        <ele>69.7</ele>
        <time>2021-11-25T13:37:33.000Z</time>
      </trkpt>
      <trkpt lat="47.8679" lon="-3.43908">
        <ele>70.1</ele>
        <time>2021-11-25T13:37:30.000Z</time>
      </trkpt>
      <trkpt lat="47.868" lon="-3.43895">
        <ele>69</ele>
        <time>2021-11-25T13:37:27.000Z</time>
      </trkpt>
      <trkpt lat="47.86806" lon="-3.43882">
        <ele>70</ele>
        <time>2021-11-25T13:37:24.000Z</time>
      </trkpt>
      <trkpt lat="47.86812" lon="-3.43872">
        <ele>68.7</ele>
        <time>2021-11-25T13:37:21.000Z</time>
      </trkpt>
      <trkpt lat="47.86819" lon="-3.43861">
        <ele>68.9</ele>
        <time>2021-11-25T13:37:18.000Z</time>
      </trkpt>
      <trkpt lat="47.86828" lon="-3.43847">
        <ele>69</ele>
        <time>2021-11-25T13:37:15.000Z</time>
      </trkpt>
      <trkpt lat="47.86835" lon="-3.43835">
        <ele>69.7</ele>
        <time>2021-11-25T13:37:12.000Z</time>
      </trkpt>
      <trkpt lat="47.86843" lon="-3.43822">
        <ele>69.6</ele>
        <time>2021-11-25T13:37:09.000Z</time>
      </trkpt>
      <trkpt lat="47.86851" lon="-3.43809">
        <ele>68.9</ele>
        <time>2021-11-25T13:37:06.000Z</time>
      </trkpt>
      <trkpt lat="47.86858" lon="-3.43798">
        <ele>69.2</ele>
        <time>2021-11-25T13:37:03.000Z</time>
      </trkpt>
      <trkpt lat="47.86865" lon="-3.43786">
        <ele>69.2</ele>
        <time>2021-11-25T13:37:00.000Z</time>
      </trkpt>
      <trkpt lat="47.86873" lon="-3.43774">
        <ele>68.9</ele>
        <time>2021-11-25T13:36:57.000Z</time>
      </trkpt>
      <trkpt lat="47.8688" lon="-3.43762">
        <ele>68.1</ele>
        <time>2021-11-25T13:36:54.000Z</time>
      </trkpt>
      <trkpt lat="47.86886" lon="-3.43748">
        <ele>67.7</ele>
        <time>2021-11-25T13:36:51.000Z</time>
      </trkpt>
      <trkpt lat="47.86893" lon="-3.43736">
        <ele>67.4</ele>
        <time>2021-11-25T13:36:48.000Z</time>
      </trkpt>
      <trkpt lat="47.869" lon="-3.43726">
        <ele>67.3</ele>
        <time>2021-11-25T13:36:45.000Z</time>
      </trkpt>
      <trkpt lat="47.86907" lon="-3.43715">
        <ele>66.6</ele>
        <time>2021-11-25T13:36:42.000Z</time>
      </trkpt>
      <trkpt lat="47.86915" lon="-3.43702">
        <ele>66.8</ele>
        <time>2021-11-25T13:36:39.000Z</time>
      </trkpt>
      <trkpt lat="47.86922" lon="-3.4369">
        <ele>66.2</ele>
        <time>2021-11-25T13:36:36.000Z</time>
      </trkpt>
      <trkpt lat="47.86929" lon="-3.43675">
        <ele>65.5</ele>
        <time>2021-11-25T13:36:33.000Z</time>
      </trkpt>
      <trkpt lat="47.86937" lon="-3.43663">
        <ele>65.7</ele>
        <time>2021-11-25T13:36:30.000Z</time>
      </trkpt>
      <trkpt lat="47.86944" lon="-3.4365">
        <ele>65.3</ele>
        <time>2021-11-25T13:36:27.000Z</time>
      </trkpt>
      <trkpt lat="47.86951" lon="-3.43638">
        <ele>65.2</ele>
        <time>2021-11-25T13:36:24.000Z</time>
      </trkpt>
      <trkpt lat="47.86959" lon="-3.43625">
        <ele>65.6</ele>
        <time>2021-11-25T13:36:21.000Z</time>
      </trkpt>
      <trkpt lat="47.86966" lon="-3.43612">
        <ele>64.6</ele>
        <time>2021-11-25T13:36:18.000Z</time>
      </trkpt>
      <trkpt lat="47.86974" lon="-3.43598">
        <ele>63</ele>
        <time>2021-11-25T13:36:15.000Z</time>
      </trkpt>
      <trkpt lat="47.86981" lon="-3.43585">
        <ele>63.9</ele>
        <time>2021-11-25T13:36:12.000Z</time>
      </trkpt>
      <trkpt lat="47.86988" lon="-3.43572">
        <ele>62.4</ele>
        <time>2021-11-25T13:36:09.000Z</time>
      </trkpt>
      <trkpt lat="47.86996" lon="-3.43558">
        <ele>62.8</ele>
        <time>2021-11-25T13:36:06.000Z</time>
      </trkpt>
      <trkpt lat="47.87002" lon="-3.43545">
        <ele>61.4</ele>
        <time>2021-11-25T13:36:03.000Z</time>
      </trkpt>
      <trkpt lat="47.87009" lon="-3.43534">
        <ele>61.2</ele>
        <time>2021-11-25T13:36:00.000Z</time>
      </trkpt>
      <trkpt lat="47.87017" lon="-3.43522">
        <ele>60.3</ele>
        <time>2021-11-25T13:35:57.000Z</time>
      </trkpt>
      <trkpt lat="47.87023" lon="-3.4351">
        <ele>60.7</ele>
        <time>2021-11-25T13:35:54.000Z</time>
      </trkpt>
      <trkpt lat="47.8703" lon="-3.43498">
        <ele>60</ele>
        <time>2021-11-25T13:35:51.000Z</time>
      </trkpt>
      <trkpt lat="47.87038" lon="-3.43483">
        <ele>58.7</ele>
        <time>2021-11-25T13:35:48.000Z</time>
      </trkpt>
      <trkpt lat="47.87044" lon="-3.43468">
        <ele>60.4</ele>
        <time>2021-11-25T13:35:45.000Z</time>
      </trkpt>
      <trkpt lat="47.87051" lon="-3.43453">
        <ele>59.3</ele>
        <time>2021-11-25T13:35:42.000Z</time>
      </trkpt>
      <trkpt lat="47.87057" lon="-3.43439">
        <ele>60.4</ele>
        <time>2021-11-25T13:35:39.000Z</time>
      </trkpt>
      <trkpt lat="47.87061" lon="-3.43426">
        <ele>61.5</ele>
        <time>2021-11-25T13:35:36.000Z</time>
      </trkpt>
      <trkpt lat="47.87065" lon="-3.43414">
        <ele>59.2</ele>
        <time>2021-11-25T13:35:33.000Z</time>
      </trkpt>
      <trkpt lat="47.87068" lon="-3.43402">
        <ele>59.4</ele>
        <time>2021-11-25T13:35:30.000Z</time>
      </trkpt>
      <trkpt lat="47.8707" lon="-3.43389">
        <ele>58.7</ele>
        <time>2021-11-25T13:35:27.000Z</time>
      </trkpt>
      <trkpt lat="47.8707" lon="-3.43378">
        <ele>59.2</ele>
        <time>2021-11-25T13:35:24.000Z</time>
      </trkpt>
      <trkpt lat="47.8707" lon="-3.43368">
        <ele>56.1</ele>
        <time>2021-11-25T13:35:21.000Z</time>
      </trkpt>
      <trkpt lat="47.8707" lon="-3.43355">
        <ele>56.6</ele>
        <time>2021-11-25T13:35:18.000Z</time>
      </trkpt>
      <trkpt lat="47.87071" lon="-3.4334">
        <ele>52.7</ele>
        <time>2021-11-25T13:35:15.000Z</time>
      </trkpt>
      <trkpt lat="47.87072" lon="-3.43324">
        <ele>53.8</ele>
        <time>2021-11-25T13:35:12.000Z</time>
      </trkpt>
      <trkpt lat="47.87073" lon="-3.43308">
        <ele>54.5</ele>
        <time>2021-11-25T13:35:09.000Z</time>
      </trkpt>
      <trkpt lat="47.87075" lon="-3.43291">
        <ele>54.2</ele>
        <time>2021-11-25T13:35:06.000Z</time>
      </trkpt>
      <trkpt lat="47.87078" lon="-3.43272">
        <ele>52.1</ele>
        <time>2021-11-25T13:35:03.000Z</time>
      </trkpt>
      <trkpt lat="47.87082" lon="-3.43254">
        <ele>53</ele>
        <time>2021-11-25T13:35:00.000Z</time>
      </trkpt>
      <trkpt lat="47.87086" lon="-3.43235">
        <ele>53.7</ele>
        <time>2021-11-25T13:34:57.000Z</time>
      </trkpt>
      <trkpt lat="47.8709" lon="-3.43216">
        <ele>53.4</ele>
        <time>2021-11-25T13:34:54.000Z</time>
      </trkpt>
      <trkpt lat="47.87093" lon="-3.43197">
        <ele>53</ele>
        <time>2021-11-25T13:34:51.000Z</time>
      </trkpt>
      <trkpt lat="47.87093" lon="-3.4318">
        <ele>53</ele>
        <time>2021-11-25T13:34:48.000Z</time>
      </trkpt>
      <trkpt lat="47.87094" lon="-3.43164">
        <ele>53.9</ele>
        <time>2021-11-25T13:34:45.000Z</time>
      </trkpt>
      <trkpt lat="47.87095" lon="-3.43148">
        <ele>53.7</ele>
        <time>2021-11-25T13:34:42.000Z</time>
      </trkpt>
      <trkpt lat="47.87096" lon="-3.4313">
        <ele>54.1</ele>
        <time>2021-11-25T13:34:39.000Z</time>
      </trkpt>
      <trkpt lat="47.87098" lon="-3.43115">
        <ele>54.7</ele>
        <time>2021-11-25T13:34:36.000Z</time>
      </trkpt>
      <trkpt lat="47.87099" lon="-3.431">
        <ele>54</ele>
        <time>2021-11-25T13:34:33.000Z</time>
      </trkpt>
      <trkpt lat="47.871" lon="-3.43088">
        <ele>54</ele>
        <time>2021-11-25T13:34:30.000Z</time>
      </trkpt>
      <trkpt lat="47.87099" lon="-3.43077">
        <ele>54.1</ele>
        <time>2021-11-25T13:34:27.000Z</time>
      </trkpt>
      <trkpt lat="47.871" lon="-3.43066">
        <ele>52.6</ele>
        <time>2021-11-25T13:34:24.000Z</time>
      </trkpt>
      <trkpt lat="47.87101" lon="-3.43053">
        <ele>53.2</ele>
        <time>2021-11-25T13:34:21.000Z</time>
      </trkpt>
      <trkpt lat="47.87102" lon="-3.43042">
        <ele>52.6</ele>
        <time>2021-11-25T13:34:18.000Z</time>
      </trkpt>
      <trkpt lat="47.87103" lon="-3.43033">
        <ele>52.5</ele>
        <time>2021-11-25T13:34:15.000Z</time>
      </trkpt>
      <trkpt lat="47.87104" lon="-3.43026">
        <ele>52.5</ele>
        <time>2021-11-25T13:34:12.000Z</time>
      </trkpt>
      <trkpt lat="47.87104" lon="-3.43019">
        <ele>51.7</ele>
        <time>2021-11-25T13:34:09.000Z</time>
      </trkpt>
      <trkpt lat="47.87105" lon="-3.43012">
        <ele>50.9</ele>
        <time>2021-11-25T13:34:06.000Z</time>
      </trkpt>
      <trkpt lat="47.87104" lon="-3.43003">
        <ele>51</ele>
        <time>2021-11-25T13:34:03.000Z</time>
      </trkpt>
      <trkpt lat="47.87104" lon="-3.42997">
        <ele>49.9</ele>
        <time>2021-11-25T13:34:00.000Z</time>
      </trkpt>
      <trkpt lat="47.87104" lon="-3.42992">
        <ele>50.1</ele>
        <time>2021-11-25T13:33:57.000Z</time>
      </trkpt>
      <trkpt lat="47.87104" lon="-3.42987">
        <ele>49.2</ele>
        <time>2021-11-25T13:33:54.000Z</time>
      </trkpt>
      <trkpt lat="47.87104" lon="-3.42982">
        <ele>49.6</ele>
        <time>2021-11-25T13:33:51.000Z</time>
      </trkpt>
      <trkpt lat="47.87103" lon="-3.42976">
        <ele>49.4</ele>
        <time>2021-11-25T13:33:48.000Z</time>
      </trkpt>
      <trkpt lat="47.87104" lon="-3.42968">
        <ele>48.5</ele>
        <time>2021-11-25T13:33:45.000Z</time>
      </trkpt>
      <trkpt lat="47.87103" lon="-3.4296">
        <ele>48.1</ele>
        <time>2021-11-25T13:33:42.000Z</time>
      </trkpt>
      <trkpt lat="47.87102" lon="-3.42952">
        <ele>46.3</ele>
        <time>2021-11-25T13:33:39.000Z</time>
      </trkpt>
      <trkpt lat="47.87102" lon="-3.42944">
        <ele>46.7</ele>
        <time>2021-11-25T13:33:36.000Z</time>
      </trkpt>
      <trkpt lat="47.87102" lon="-3.42935">
        <ele>45.5</ele>
        <time>2021-11-25T13:33:33.000Z</time>
      </trkpt>
      <trkpt lat="47.87103" lon="-3.42927">
        <ele>45.5</ele>
        <time>2021-11-25T13:33:30.000Z</time>
      </trkpt>
      <trkpt lat="47.87104" lon="-3.42919">
        <ele>44.8</ele>
        <time>2021-11-25T13:33:27.000Z</time>
      </trkpt>
      <trkpt lat="47.87105" lon="-3.42911">
        <ele>44.9</ele>
        <time>2021-11-25T13:33:24.000Z</time>
      </trkpt>
      <trkpt lat="47.87105" lon="-3.42904">
        <ele>44</ele>
        <time>2021-11-25T13:33:21.000Z</time>
      </trkpt>
      <trkpt lat="47.87106" lon="-3.42897">
        <ele>44.1</ele>
        <time>2021-11-25T13:33:18.000Z</time>
      </trkpt>
      <trkpt lat="47.87106" lon="-3.42889">
        <ele>43.9</ele>
        <time>2021-11-25T13:33:15.000Z</time>
      </trkpt>
      <trkpt lat="47.87106" lon="-3.42883">
        <ele>43.3</ele>
        <time>2021-11-25T13:33:12.000Z</time>
      </trkpt>
      <trkpt lat="47.87106" lon="-3.42876">
        <ele>40.7</ele>
        <time>2021-11-25T13:33:09.000Z</time>
      </trkpt>
      <trkpt lat="47.87108" lon="-3.42867">
        <ele>40.2</ele>
        <time>2021-11-25T13:33:06.000Z</time>
      </trkpt>
      <trkpt lat="47.87109" lon="-3.42859">
        <ele>40.9</ele>
        <time>2021-11-25T13:33:03.000Z</time>
      </trkpt>
      <trkpt lat="47.87109" lon="-3.42852">
        <ele>38.7</ele>
        <time>2021-11-25T13:33:00.000Z</time>
      </trkpt>
      <trkpt lat="47.87109" lon="-3.42844">
        <ele>38.4</ele>
        <time>2021-11-25T13:32:57.000Z</time>
      </trkpt>
      <trkpt lat="47.8711" lon="-3.42837">
        <ele>37.8</ele>
        <time>2021-11-25T13:32:54.000Z</time>
      </trkpt>
      <trkpt lat="47.87112" lon="-3.42829">
        <ele>37.1</ele>
        <time>2021-11-25T13:32:51.000Z</time>
      </trkpt>
      <trkpt lat="47.87115" lon="-3.4282">
        <ele>36.7</ele>
        <time>2021-11-25T13:32:48.000Z</time>
      </trkpt>
      <trkpt lat="47.87119" lon="-3.42811">
        <ele>35.6</ele>
        <time>2021-11-25T13:32:45.000Z</time>
      </trkpt>
      <trkpt lat="47.87123" lon="-3.42802">
        <ele>36.5</ele>
        <time>2021-11-25T13:32:42.000Z</time>
      </trkpt>
      <trkpt lat="47.87127" lon="-3.42793">
        <ele>32.8</ele>
        <time>2021-11-25T13:32:39.000Z</time>
      </trkpt>
      <trkpt lat="47.87132" lon="-3.42783">
        <ele>36.6</ele>
        <time>2021-11-25T13:32:36.000Z</time>
      </trkpt>
      <trkpt lat="47.87138" lon="-3.42774">
        <ele>35.3</ele>
        <time>2021-11-25T13:32:33.000Z</time>
      </trkpt>
      <trkpt lat="47.87143" lon="-3.42768">
        <ele>34.8</ele>
        <time>2021-11-25T13:32:30.000Z</time>
      </trkpt>
      <trkpt lat="47.87149" lon="-3.42761">
        <ele>33.3</ele>
        <time>2021-11-25T13:32:27.000Z</time>
      </trkpt>
      <trkpt lat="47.87156" lon="-3.42754">
        <ele>33.3</ele>
        <time>2021-11-25T13:32:24.000Z</time>
      </trkpt>
      <trkpt lat="47.87162" lon="-3.42745">
        <ele>33.9</ele>
        <time>2021-11-25T13:32:21.000Z</time>
      </trkpt>
      <trkpt lat="47.87168" lon="-3.42735">
        <ele>32.9</ele>
        <time>2021-11-25T13:32:18.000Z</time>
      </trkpt>
      <trkpt lat="47.87172" lon="-3.42725">
        <ele>33.3</ele>
        <time>2021-11-25T13:32:15.000Z</time>
      </trkpt>
      <trkpt lat="47.87174" lon="-3.42715">
        <ele>33.3</ele>
        <time>2021-11-25T13:32:12.000Z</time>
      </trkpt>
      <trkpt lat="47.87175" lon="-3.42705">
        <ele>33.2</ele>
        <time>2021-11-25T13:32:09.000Z</time>
      </trkpt>
      <trkpt lat="47.87176" lon="-3.42697">
        <ele>34</ele>
        <time>2021-11-25T13:32:06.000Z</time>
      </trkpt>
      <trkpt lat="47.87176" lon="-3.42684">
        <ele>32.7</ele>
        <time>2021-11-25T13:32:03.000Z</time>
      </trkpt>
      <trkpt lat="47.87176" lon="-3.42671">
        <ele>33.6</ele>
        <time>2021-11-25T13:32:00.000Z</time>
      </trkpt>
      <trkpt lat="47.87177" lon="-3.4266">
        <ele>34.6</ele>
        <time>2021-11-25T13:31:57.000Z</time>
      </trkpt>
      <trkpt lat="47.8718" lon="-3.42648">
        <ele>36</ele>
        <time>2021-11-25T13:31:54.000Z</time>
      </trkpt>
      <trkpt lat="47.87183" lon="-3.42632">
        <ele>38</ele>
        <time>2021-11-25T13:31:51.000Z</time>
      </trkpt>
      <trkpt lat="47.87182" lon="-3.42624">
        <ele>37.5</ele>
        <time>2021-11-25T13:31:48.000Z</time>
      </trkpt>
      <trkpt lat="47.87182" lon="-3.42624">
        <ele>37.6</ele>
        <time>2021-11-25T13:31:47.000Z</time>
      </trkpt>
      <trkpt lat="47.87182" lon="-3.42623">
        <ele>38.4</ele>
        <time>2021-11-25T13:31:44.000Z</time>
      </trkpt>
      <trkpt lat="47.87182" lon="-3.42623">
        <ele>38.4</ele>
        <time>2021-11-25T13:31:41.000Z</time>
      </trkpt>
      <trkpt lat="47.87184" lon="-3.42623">
        <ele>38.9</ele>
        <time>2021-11-25T13:31:38.000Z</time>
      </trkpt>
      <trkpt lat="47.87184" lon="-3.42626">
        <ele>38.8</ele>
        <time>2021-11-25T13:31:35.000Z</time>
      </trkpt>
      <trkpt lat="47.87186" lon="-3.42627">
        <ele>39.2</ele>
        <time>2021-11-25T13:31:32.000Z</time>
      </trkpt>
      <trkpt lat="47.87186" lon="-3.42626">
        <ele>39.3</ele>
        <time>2021-11-25T13:31:31.000Z</time>
      </trkpt>
      <trkpt lat="47.87186" lon="-3.42626">
        <ele>39.1</ele>
        <time>2021-11-25T13:31:30.000Z</time>
      </trkpt>
      <trkpt lat="47.87186" lon="-3.42626">
        <ele>39.3</ele>
        <time>2021-11-25T13:31:27.000Z</time>
      </trkpt>
      <trkpt lat="47.87186" lon="-3.42626">
        <ele>39.4</ele>
        <time>2021-11-25T13:31:26.000Z</time>
      </trkpt>
      <trkpt lat="47.87186" lon="-3.42626">
        <ele>39.5</ele>
        <time>2021-11-25T13:31:25.000Z</time>
      </trkpt>
      <trkpt lat="47.87186" lon="-3.42626">
        <ele>39.2</ele>
        <time>2021-11-25T13:31:22.000Z</time>
      </trkpt>
      <trkpt lat="47.87186" lon="-3.42626">
        <ele>39.4</ele>
        <time>2021-11-25T13:31:21.000Z</time>
      </trkpt>
      <trkpt lat="47.87187" lon="-3.42623">
        <ele>39.6</ele>
        <time>2021-11-25T13:31:18.000Z</time>
      </trkpt>
      <trkpt lat="47.87188" lon="-3.42616">
        <ele>40.5</ele>
        <time>2021-11-25T13:31:15.000Z</time>
      </trkpt>
      <trkpt lat="47.87191" lon="-3.4261">
        <ele>40.5</ele>
        <time>2021-11-25T13:31:12.000Z</time>
      </trkpt>
      <trkpt lat="47.87192" lon="-3.42608">
        <ele>40.9</ele>
        <time>2021-11-25T13:31:09.000Z</time>
      </trkpt>
      <trkpt lat="47.87197" lon="-3.42608">
        <ele>41.2</ele>
        <time>2021-11-25T13:31:06.000Z</time>
      </trkpt>
      <trkpt lat="47.87206" lon="-3.42609">
        <ele>41.7</ele>
        <time>2021-11-25T13:31:03.000Z</time>
      </trkpt>
      <trkpt lat="47.87219" lon="-3.42608">
        <ele>41.7</ele>
        <time>2021-11-25T13:31:00.000Z</time>
      </trkpt>
      <trkpt lat="47.87232" lon="-3.42604">
        <ele>45.2</ele>
        <time>2021-11-25T13:30:57.000Z</time>
      </trkpt>
      <trkpt lat="47.87242" lon="-3.42599">
        <ele>44.9</ele>
        <time>2021-11-25T13:30:54.000Z</time>
      </trkpt>
      <trkpt lat="47.87245" lon="-3.42593">
        <ele>46.3</ele>
        <time>2021-11-25T13:30:51.000Z</time>
      </trkpt>
      <trkpt lat="47.87245" lon="-3.42592">
        <ele>46.6</ele>
        <time>2021-11-25T13:30:50.000Z</time>
      </trkpt>
      <trkpt lat="47.87245" lon="-3.42592">
        <ele>46.5</ele>
        <time>2021-11-25T13:30:47.000Z</time>
      </trkpt>
      <trkpt lat="47.87245" lon="-3.42592">
        <ele>46.9</ele>
        <time>2021-11-25T13:30:44.000Z</time>
      </trkpt>
      <trkpt lat="47.87245" lon="-3.42592">
        <ele>46.9</ele>
        <time>2021-11-25T13:30:41.000Z</time>
      </trkpt>
      <trkpt lat="47.87245" lon="-3.42592">
        <ele>46.7</ele>
        <time>2021-11-25T13:30:40.000Z</time>
      </trkpt>
      <trkpt lat="47.87244" lon="-3.4259">
        <ele>47.2</ele>
        <time>2021-11-25T13:30:37.000Z</time>
      </trkpt>
      <trkpt lat="47.87243" lon="-3.42588">
        <ele>46.7</ele>
        <time>2021-11-25T13:30:34.000Z</time>
      </trkpt>
      <trkpt lat="47.87243" lon="-3.42586">
        <ele>47.1</ele>
        <time>2021-11-25T13:30:31.000Z</time>
      </trkpt>
      <trkpt lat="47.87243" lon="-3.42586">
        <ele>46.5</ele>
        <time>2021-11-25T13:30:29.000Z</time>
      </trkpt>
      <trkpt lat="47.87243" lon="-3.42586">
        <ele>46.4</ele>
        <time>2021-11-25T13:30:28.000Z</time>
      </trkpt>
      <trkpt lat="47.87241" lon="-3.42582">
        <ele>47</ele>
        <time>2021-11-25T13:30:25.000Z</time>
      </trkpt>
      <trkpt lat="47.87239" lon="-3.4258">
        <ele>47</ele>
        <time>2021-11-25T13:30:22.000Z</time>
      </trkpt>
      <trkpt lat="47.87236" lon="-3.42577">
        <ele>46.7</ele>
        <time>2021-11-25T13:30:19.000Z</time>
      </trkpt>
      <trkpt lat="47.87233" lon="-3.42574">
        <ele>47.1</ele>
        <time>2021-11-25T13:30:16.000Z</time>
      </trkpt>
      <trkpt lat="47.87233" lon="-3.42573">
        <ele>47.1</ele>
        <time>2021-11-25T13:30:13.000Z</time>
      </trkpt>
      <trkpt lat="47.87232" lon="-3.42571">
        <ele>46.6</ele>
        <time>2021-11-25T13:30:10.000Z</time>
      </trkpt>
      <trkpt lat="47.87232" lon="-3.42571">
        <ele>46.5</ele>
        <time>2021-11-25T13:30:09.000Z</time>
      </trkpt>
      <trkpt lat="47.87232" lon="-3.42571">
        <ele>46.7</ele>
        <time>2021-11-25T13:30:06.000Z</time>
      </trkpt>
      <trkpt lat="47.87232" lon="-3.42571">
        <ele>46.8</ele>
        <time>2021-11-25T13:30:03.000Z</time>
      </trkpt>
      <trkpt lat="47.87232" lon="-3.42571">
        <ele>46.8</ele>
        <time>2021-11-25T13:30:01.000Z</time>
      </trkpt>
      <trkpt lat="47.87233" lon="-3.42574">
        <ele>46.3</ele>
        <time>2021-11-25T13:29:58.000Z</time>
      </trkpt>
      <trkpt lat="47.87237" lon="-3.42579">
        <ele>46.2</ele>
        <time>2021-11-25T13:29:55.000Z</time>
      </trkpt>
      <trkpt lat="47.87244" lon="-3.42583">
        <ele>45.8</ele>
        <time>2021-11-25T13:29:52.000Z</time>
      </trkpt>
      <trkpt lat="47.87258" lon="-3.42587">
        <ele>48.5</ele>
        <time>2021-11-25T13:29:49.000Z</time>
      </trkpt>
      <trkpt lat="47.87272" lon="-3.42591">
        <ele>52.2</ele>
        <time>2021-11-25T13:29:46.000Z</time>
      </trkpt>
      <trkpt lat="47.87286" lon="-3.42593">
        <ele>65.2</ele>
        <time>2021-11-25T13:29:43.000Z</time>
      </trkpt>
      <trkpt lat="47.87299" lon="-3.42595">
        <ele>60.8</ele>
        <time>2021-11-25T13:29:40.000Z</time>
      </trkpt>
      <trkpt lat="47.87312" lon="-3.42599">
        <ele>60.5</ele>
        <time>2021-11-25T13:29:37.000Z</time>
      </trkpt>
      <trkpt lat="47.87325" lon="-3.42603">
        <ele>57</ele>
        <time>2021-11-25T13:29:34.000Z</time>
      </trkpt>
      <trkpt lat="47.87337" lon="-3.42606">
        <ele>58.1</ele>
        <time>2021-11-25T13:29:31.000Z</time>
      </trkpt>
      <trkpt lat="47.87349" lon="-3.42605">
        <ele>64.1</ele>
        <time>2021-11-25T13:29:28.000Z</time>
      </trkpt>
      <trkpt lat="47.87357" lon="-3.42594">
        <ele>66.2</ele>
        <time>2021-11-25T13:29:25.000Z</time>
      </trkpt>
      <trkpt lat="47.87361" lon="-3.42581">
        <ele>68.1</ele>
        <time>2021-11-25T13:29:22.000Z</time>
      </trkpt>
      <trkpt lat="47.87367" lon="-3.42572">
        <ele>68.1</ele>
        <time>2021-11-25T13:29:19.000Z</time>
      </trkpt>
      <trkpt lat="47.87372" lon="-3.42569">
        <ele>68.7</ele>
        <time>2021-11-25T13:29:16.000Z</time>
      </trkpt>
      <trkpt lat="47.87378" lon="-3.42568">
        <ele>69</ele>
        <time>2021-11-25T13:29:13.000Z</time>
      </trkpt>
      <trkpt lat="47.87386" lon="-3.42567">
        <ele>70</ele>
        <time>2021-11-25T13:29:10.000Z</time>
      </trkpt>
      <trkpt lat="47.87396" lon="-3.42567">
        <ele>70.3</ele>
        <time>2021-11-25T13:29:07.000Z</time>
      </trkpt>
      <trkpt lat="47.87407" lon="-3.42567">
        <ele>71.7</ele>
        <time>2021-11-25T13:29:04.000Z</time>
      </trkpt>
      <trkpt lat="47.87417" lon="-3.42569">
        <ele>71.6</ele>
        <time>2021-11-25T13:29:01.000Z</time>
      </trkpt>
      <trkpt lat="47.87432" lon="-3.42572">
        <ele>71.8</ele>
        <time>2021-11-25T13:28:58.000Z</time>
      </trkpt>
      <trkpt lat="47.87447" lon="-3.42575">
        <ele>72</ele>
        <time>2021-11-25T13:28:55.000Z</time>
      </trkpt>
      <trkpt lat="47.87461" lon="-3.42579">
        <ele>71.8</ele>
        <time>2021-11-25T13:28:52.000Z</time>
      </trkpt>
      <trkpt lat="47.87476" lon="-3.42582">
        <ele>72.3</ele>
        <time>2021-11-25T13:28:49.000Z</time>
      </trkpt>
      <trkpt lat="47.8749" lon="-3.42585">
        <ele>72.6</ele>
        <time>2021-11-25T13:28:46.000Z</time>
      </trkpt>
      <trkpt lat="47.87504" lon="-3.42589">
        <ele>72.9</ele>
        <time>2021-11-25T13:28:43.000Z</time>
      </trkpt>
      <trkpt lat="47.87516" lon="-3.42595">
        <ele>71.8</ele>
        <time>2021-11-25T13:28:40.000Z</time>
      </trkpt>
      <trkpt lat="47.87522" lon="-3.4261">
        <ele>70.6</ele>
        <time>2021-11-25T13:28:37.000Z</time>
      </trkpt>
      <trkpt lat="47.87525" lon="-3.42631">
        <ele>70.4</ele>
        <time>2021-11-25T13:28:34.000Z</time>
      </trkpt>
      <trkpt lat="47.87528" lon="-3.42654">
        <ele>70.2</ele>
        <time>2021-11-25T13:28:31.000Z</time>
      </trkpt>
      <trkpt lat="47.87532" lon="-3.42681">
        <ele>70</ele>
        <time>2021-11-25T13:28:28.000Z</time>
      </trkpt>
      <trkpt lat="47.87537" lon="-3.42709">
        <ele>69.3</ele>
        <time>2021-11-25T13:28:25.000Z</time>
      </trkpt>
      <trkpt lat="47.87543" lon="-3.42737">
        <ele>70.1</ele>
        <time>2021-11-25T13:28:22.000Z</time>
      </trkpt>
      <trkpt lat="47.87549" lon="-3.42766">
        <ele>68.8</ele>
        <time>2021-11-25T13:28:19.000Z</time>
      </trkpt>
      <trkpt lat="47.87557" lon="-3.42794">
        <ele>68.6</ele>
        <time>2021-11-25T13:28:16.000Z</time>
      </trkpt>
      <trkpt lat="47.87564" lon="-3.42822">
        <ele>69.5</ele>
        <time>2021-11-25T13:28:13.000Z</time>
      </trkpt>
      <trkpt lat="47.87572" lon="-3.42848">
        <ele>67.9</ele>
        <time>2021-11-25T13:28:10.000Z</time>
      </trkpt>
      <trkpt lat="47.8758" lon="-3.42874">
        <ele>67.3</ele>
        <time>2021-11-25T13:28:07.000Z</time>
      </trkpt>
      <trkpt lat="47.87588" lon="-3.42901">
        <ele>69.3</ele>
        <time>2021-11-25T13:28:04.000Z</time>
      </trkpt>
      <trkpt lat="47.87596" lon="-3.42927">
        <ele>70</ele>
        <time>2021-11-25T13:28:01.000Z</time>
      </trkpt>
      <trkpt lat="47.87604" lon="-3.42953">
        <ele>69.1</ele>
        <time>2021-11-25T13:27:58.000Z</time>
      </trkpt>
      <trkpt lat="47.87611" lon="-3.42978">
        <ele>67.7</ele>
        <time>2021-11-25T13:27:55.000Z</time>
      </trkpt>
      <trkpt lat="47.87615" lon="-3.43005">
        <ele>69.6</ele>
        <time>2021-11-25T13:27:52.000Z</time>
      </trkpt>
      <trkpt lat="47.87618" lon="-3.43035">
        <ele>67.2</ele>
        <time>2021-11-25T13:27:49.000Z</time>
      </trkpt>
      <trkpt lat="47.87619" lon="-3.4307">
        <ele>67.9</ele>
        <time>2021-11-25T13:27:46.000Z</time>
      </trkpt>
      <trkpt lat="47.8762" lon="-3.43107">
        <ele>70.6</ele>
        <time>2021-11-25T13:27:43.000Z</time>
      </trkpt>
      <trkpt lat="47.87621" lon="-3.43142">
        <ele>71.5</ele>
        <time>2021-11-25T13:27:40.000Z</time>
      </trkpt>
      <trkpt lat="47.87622" lon="-3.43176">
        <ele>69.9</ele>
        <time>2021-11-25T13:27:37.000Z</time>
      </trkpt>
      <trkpt lat="47.87623" lon="-3.43209">
        <ele>72.3</ele>
        <time>2021-11-25T13:27:34.000Z</time>
      </trkpt>
      <trkpt lat="47.87624" lon="-3.4324">
        <ele>75.5</ele>
        <time>2021-11-25T13:27:31.000Z</time>
      </trkpt>
      <trkpt lat="47.87626" lon="-3.4327">
        <ele>73.4</ele>
        <time>2021-11-25T13:27:28.000Z</time>
      </trkpt>
      <trkpt lat="47.87626" lon="-3.43298">
        <ele>73.3</ele>
        <time>2021-11-25T13:27:25.000Z</time>
      </trkpt>
      <trkpt lat="47.87626" lon="-3.43326">
        <ele>74</ele>
        <time>2021-11-25T13:27:22.000Z</time>
      </trkpt>
      <trkpt lat="47.87627" lon="-3.43352">
        <ele>73.1</ele>
        <time>2021-11-25T13:27:19.000Z</time>
      </trkpt>
      <trkpt lat="47.87628" lon="-3.43379">
        <ele>74.4</ele>
        <time>2021-11-25T13:27:16.000Z</time>
      </trkpt>
      <trkpt lat="47.87629" lon="-3.43405">
        <ele>73.6</ele>
        <time>2021-11-25T13:27:13.000Z</time>
      </trkpt>
      <trkpt lat="47.8763" lon="-3.43432">
        <ele>74.6</ele>
        <time>2021-11-25T13:27:10.000Z</time>
      </trkpt>
      <trkpt lat="47.87631" lon="-3.43458">
        <ele>73.9</ele>
        <time>2021-11-25T13:27:07.000Z</time>
      </trkpt>
      <trkpt lat="47.87633" lon="-3.43485">
        <ele>73</ele>
        <time>2021-11-25T13:27:04.000Z</time>
      </trkpt>
      <trkpt lat="47.87633" lon="-3.43513">
        <ele>73.2</ele>
        <time>2021-11-25T13:27:01.000Z</time>
      </trkpt>
      <trkpt lat="47.87634" lon="-3.43543">
        <ele>71.8</ele>
        <time>2021-11-25T13:26:58.000Z</time>
      </trkpt>
      <trkpt lat="47.87638" lon="-3.43574">
        <ele>73</ele>
        <time>2021-11-25T13:26:55.000Z</time>
      </trkpt>
      <trkpt lat="47.87644" lon="-3.43604">
        <ele>74.8</ele>
        <time>2021-11-25T13:26:52.000Z</time>
      </trkpt>
      <trkpt lat="47.87651" lon="-3.43632">
        <ele>76.7</ele>
        <time>2021-11-25T13:26:49.000Z</time>
      </trkpt>
      <trkpt lat="47.87661" lon="-3.43655">
        <ele>75.9</ele>
        <time>2021-11-25T13:26:46.000Z</time>
      </trkpt>
      <trkpt lat="47.87671" lon="-3.43676">
        <ele>77.2</ele>
        <time>2021-11-25T13:26:43.000Z</time>
      </trkpt>
      <trkpt lat="47.87684" lon="-3.43686">
        <ele>77.5</ele>
        <time>2021-11-25T13:26:40.000Z</time>
      </trkpt>
      <trkpt lat="47.87694" lon="-3.43673">
        <ele>76.5</ele>
        <time>2021-11-25T13:26:37.000Z</time>
      </trkpt>
      <trkpt lat="47.87701" lon="-3.43647">
        <ele>77.9</ele>
        <time>2021-11-25T13:26:34.000Z</time>
      </trkpt>
      <trkpt lat="47.87708" lon="-3.4362">
        <ele>78.1</ele>
        <time>2021-11-25T13:26:31.000Z</time>
      </trkpt>
      <trkpt lat="47.87716" lon="-3.43595">
        <ele>77.3</ele>
        <time>2021-11-25T13:26:28.000Z</time>
      </trkpt>
      <trkpt lat="47.87723" lon="-3.43569">
        <ele>79</ele>
        <time>2021-11-25T13:26:25.000Z</time>
      </trkpt>
      <trkpt lat="47.87731" lon="-3.43544">
        <ele>78.6</ele>
        <time>2021-11-25T13:26:22.000Z</time>
      </trkpt>
      <trkpt lat="47.87738" lon="-3.43518">
        <ele>78.9</ele>
        <time>2021-11-25T13:26:19.000Z</time>
      </trkpt>
      <trkpt lat="47.87745" lon="-3.43493">
        <ele>80.1</ele>
        <time>2021-11-25T13:26:16.000Z</time>
      </trkpt>
      <trkpt lat="47.87751" lon="-3.43469">
        <ele>80.8</ele>
        <time>2021-11-25T13:26:13.000Z</time>
      </trkpt>
      <trkpt lat="47.87758" lon="-3.43447">
        <ele>81.3</ele>
        <time>2021-11-25T13:26:10.000Z</time>
      </trkpt>
      <trkpt lat="47.87764" lon="-3.43425">
        <ele>81.5</ele>
        <time>2021-11-25T13:26:07.000Z</time>
      </trkpt>
      <trkpt lat="47.87771" lon="-3.43404">
        <ele>81.4</ele>
        <time>2021-11-25T13:26:04.000Z</time>
      </trkpt>
      <trkpt lat="47.87779" lon="-3.43385">
        <ele>81.7</ele>
        <time>2021-11-25T13:26:01.000Z</time>
      </trkpt>
      <trkpt lat="47.87786" lon="-3.43367">
        <ele>81.5</ele>
        <time>2021-11-25T13:25:58.000Z</time>
      </trkpt>
      <trkpt lat="47.87795" lon="-3.43349">
        <ele>81.4</ele>
        <time>2021-11-25T13:25:55.000Z</time>
      </trkpt>
      <trkpt lat="47.87802" lon="-3.43331">
        <ele>80.5</ele>
        <time>2021-11-25T13:25:52.000Z</time>
      </trkpt>
      <trkpt lat="47.87809" lon="-3.43314">
        <ele>79.9</ele>
        <time>2021-11-25T13:25:49.000Z</time>
      </trkpt>
      <trkpt lat="47.87815" lon="-3.43298">
        <ele>81.1</ele>
        <time>2021-11-25T13:25:46.000Z</time>
      </trkpt>
      <trkpt lat="47.87821" lon="-3.43282">
        <ele>80.2</ele>
        <time>2021-11-25T13:25:43.000Z</time>
      </trkpt>
      <trkpt lat="47.87827" lon="-3.43268">
        <ele>81.1</ele>
        <time>2021-11-25T13:25:40.000Z</time>
      </trkpt>
      <trkpt lat="47.87834" lon="-3.43254">
        <ele>81.1</ele>
        <time>2021-11-25T13:25:37.000Z</time>
      </trkpt>
      <trkpt lat="47.8784" lon="-3.43242">
        <ele>81.2</ele>
        <time>2021-11-25T13:25:34.000Z</time>
      </trkpt>
      <trkpt lat="47.87847" lon="-3.43235">
        <ele>81.5</ele>
        <time>2021-11-25T13:25:31.000Z</time>
      </trkpt>
      <trkpt lat="47.87853" lon="-3.43234">
        <ele>82.1</ele>
        <time>2021-11-25T13:25:28.000Z</time>
      </trkpt>
      <trkpt lat="47.8786" lon="-3.43233">
        <ele>81.1</ele>
        <time>2021-11-25T13:25:25.000Z</time>
      </trkpt>
      <trkpt lat="47.87868" lon="-3.43231">
        <ele>82.8</ele>
        <time>2021-11-25T13:25:22.000Z</time>
      </trkpt>
      <trkpt lat="47.87876" lon="-3.4323">
        <ele>80.8</ele>
        <time>2021-11-25T13:25:19.000Z</time>
      </trkpt>
      <trkpt lat="47.87884" lon="-3.4323">
        <ele>80.8</ele>
        <time>2021-11-25T13:25:16.000Z</time>
      </trkpt>
      <trkpt lat="47.87892" lon="-3.43231">
        <ele>82.4</ele>
        <time>2021-11-25T13:25:13.000Z</time>
      </trkpt>
      <trkpt lat="47.879" lon="-3.43232">
        <ele>80.9</ele>
        <time>2021-11-25T13:25:10.000Z</time>
      </trkpt>
      <trkpt lat="47.87908" lon="-3.43234">
        <ele>81.1</ele>
        <time>2021-11-25T13:25:07.000Z</time>
      </trkpt>
      <trkpt lat="47.87915" lon="-3.43232">
        <ele>80</ele>
        <time>2021-11-25T13:25:04.000Z</time>
      </trkpt>
      <trkpt lat="47.87922" lon="-3.43228">
        <ele>80.9</ele>
        <time>2021-11-25T13:25:01.000Z</time>
      </trkpt>
      <trkpt lat="47.87928" lon="-3.43223">
        <ele>79.5</ele>
        <time>2021-11-25T13:24:58.000Z</time>
      </trkpt>
      <trkpt lat="47.87934" lon="-3.43218">
        <ele>78.3</ele>
        <time>2021-11-25T13:24:55.000Z</time>
      </trkpt>
      <trkpt lat="47.87938" lon="-3.43211">
        <ele>79.4</ele>
        <time>2021-11-25T13:24:52.000Z</time>
      </trkpt>
      <trkpt lat="47.8794" lon="-3.43203">
        <ele>77.8</ele>
        <time>2021-11-25T13:24:49.000Z</time>
      </trkpt>
      <trkpt lat="47.87939" lon="-3.43194">
        <ele>78.4</ele>
        <time>2021-11-25T13:24:46.000Z</time>
      </trkpt>
      <trkpt lat="47.87942" lon="-3.43187">
        <ele>75.8</ele>
        <time>2021-11-25T13:24:43.000Z</time>
      </trkpt>
      <trkpt lat="47.87948" lon="-3.43185">
        <ele>76.1</ele>
        <time>2021-11-25T13:24:40.000Z</time>
      </trkpt>
      <trkpt lat="47.87954" lon="-3.43185">
        <ele>75.9</ele>
        <time>2021-11-25T13:24:37.000Z</time>
      </trkpt>
      <trkpt lat="47.87959" lon="-3.43185">
        <ele>75.3</ele>
        <time>2021-11-25T13:24:34.000Z</time>
      </trkpt>
      <trkpt lat="47.87965" lon="-3.43182">
        <ele>74.7</ele>
        <time>2021-11-25T13:24:31.000Z</time>
      </trkpt>
      <trkpt lat="47.87971" lon="-3.4318">
        <ele>74.4</ele>
        <time>2021-11-25T13:24:28.000Z</time>
      </trkpt>
      <trkpt lat="47.87977" lon="-3.43177">
        <ele>72.6</ele>
        <time>2021-11-25T13:24:25.000Z</time>
      </trkpt>
      <trkpt lat="47.87983" lon="-3.43174">
        <ele>72.1</ele>
        <time>2021-11-25T13:24:22.000Z</time>
      </trkpt>
      <trkpt lat="47.87988" lon="-3.43171">
        <ele>71.3</ele>
        <time>2021-11-25T13:24:19.000Z</time>
      </trkpt>
      <trkpt lat="47.87995" lon="-3.43167">
        <ele>71.4</ele>
        <time>2021-11-25T13:24:16.000Z</time>
      </trkpt>
      <trkpt lat="47.88003" lon="-3.43162">
        <ele>70.4</ele>
        <time>2021-11-25T13:24:13.000Z</time>
      </trkpt>
      <trkpt lat="47.88013" lon="-3.43157">
        <ele>68.4</ele>
        <time>2021-11-25T13:24:10.000Z</time>
      </trkpt>
      <trkpt lat="47.88023" lon="-3.43151">
        <ele>66.6</ele>
        <time>2021-11-25T13:24:07.000Z</time>
      </trkpt>
      <trkpt lat="47.88037" lon="-3.43143">
        <ele>65.6</ele>
        <time>2021-11-25T13:24:04.000Z</time>
      </trkpt>
      <trkpt lat="47.8805" lon="-3.43133">
        <ele>65.7</ele>
        <time>2021-11-25T13:24:01.000Z</time>
      </trkpt>
      <trkpt lat="47.88056" lon="-3.4312">
        <ele>69.3</ele>
        <time>2021-11-25T13:23:58.000Z</time>
      </trkpt>
      <trkpt lat="47.88059" lon="-3.43106">
        <ele>68.7</ele>
        <time>2021-11-25T13:23:55.000Z</time>
      </trkpt>
      <trkpt lat="47.88059" lon="-3.43089">
        <ele>68.1</ele>
        <time>2021-11-25T13:23:52.000Z</time>
      </trkpt>
      <trkpt lat="47.88062" lon="-3.43072">
        <ele>74.7</ele>
        <time>2021-11-25T13:23:49.000Z</time>
      </trkpt>
      <trkpt lat="47.88062" lon="-3.43057">
        <ele>71.9</ele>
        <time>2021-11-25T13:23:46.000Z</time>
      </trkpt>
      <trkpt lat="47.88063" lon="-3.43044">
        <ele>68.1</ele>
        <time>2021-11-25T13:23:43.000Z</time>
      </trkpt>
      <trkpt lat="47.88065" lon="-3.4303">
        <ele>67.8</ele>
        <time>2021-11-25T13:23:40.000Z</time>
      </trkpt>
      <trkpt lat="47.88066" lon="-3.43013">
        <ele>65.4</ele>
        <time>2021-11-25T13:23:37.000Z</time>
      </trkpt>
      <trkpt lat="47.88065" lon="-3.42998">
        <ele>68.7</ele>
        <time>2021-11-25T13:23:34.000Z</time>
      </trkpt>
      <trkpt lat="47.88066" lon="-3.42981">
        <ele>72.3</ele>
        <time>2021-11-25T13:23:31.000Z</time>
      </trkpt>
      <trkpt lat="47.88066" lon="-3.42965">
        <ele>71.4</ele>
        <time>2021-11-25T13:23:28.000Z</time>
      </trkpt>
      <trkpt lat="47.88066" lon="-3.42953">
        <ele>71.5</ele>
        <time>2021-11-25T13:23:25.000Z</time>
      </trkpt>
      <trkpt lat="47.88065" lon="-3.42943">
        <ele>71</ele>
        <time>2021-11-25T13:23:22.000Z</time>
      </trkpt>
      <trkpt lat="47.88065" lon="-3.42936">
        <ele>70.9</ele>
        <time>2021-11-25T13:23:19.000Z</time>
      </trkpt>
      <trkpt lat="47.88066" lon="-3.42934">
        <ele>70.8</ele>
        <time>2021-11-25T13:23:16.000Z</time>
      </trkpt>
      <trkpt lat="47.88069" lon="-3.42933">
        <ele>71.1</ele>
        <time>2021-11-25T13:23:13.000Z</time>
      </trkpt>
      <trkpt lat="47.88073" lon="-3.42931">
        <ele>70.4</ele>
        <time>2021-11-25T13:23:10.000Z</time>
      </trkpt>
      <trkpt lat="47.88078" lon="-3.42928">
        <ele>70.7</ele>
        <time>2021-11-25T13:23:07.000Z</time>
      </trkpt>
      <trkpt lat="47.88085" lon="-3.42925">
        <ele>67.4</ele>
        <time>2021-11-25T13:23:04.000Z</time>
      </trkpt>
      <trkpt lat="47.88097" lon="-3.4292">
        <ele>74.5</ele>
        <time>2021-11-25T13:23:01.000Z</time>
      </trkpt>
      <trkpt lat="47.88116" lon="-3.42918">
        <ele>74.9</ele>
        <time>2021-11-25T13:22:58.000Z</time>
      </trkpt>
      <trkpt lat="47.88134" lon="-3.42919">
        <ele>75.7</ele>
        <time>2021-11-25T13:22:55.000Z</time>
      </trkpt>
      <trkpt lat="47.88151" lon="-3.4292">
        <ele>74.7</ele>
        <time>2021-11-25T13:22:52.000Z</time>
      </trkpt>
      <trkpt lat="47.88168" lon="-3.42919">
        <ele>78</ele>
        <time>2021-11-25T13:22:49.000Z</time>
      </trkpt>
      <trkpt lat="47.88184" lon="-3.42914">
        <ele>79.5</ele>
        <time>2021-11-25T13:22:46.000Z</time>
      </trkpt>
      <trkpt lat="47.88196" lon="-3.42907">
        <ele>77.9</ele>
        <time>2021-11-25T13:22:43.000Z</time>
      </trkpt>
      <trkpt lat="47.88208" lon="-3.42898">
        <ele>80.7</ele>
        <time>2021-11-25T13:22:40.000Z</time>
      </trkpt>
      <trkpt lat="47.88218" lon="-3.42895">
        <ele>80.3</ele>
        <time>2021-11-25T13:22:37.000Z</time>
      </trkpt>
      <trkpt lat="47.88229" lon="-3.42891">
        <ele>81.6</ele>
        <time>2021-11-25T13:22:34.000Z</time>
      </trkpt>
      <trkpt lat="47.8824" lon="-3.42886">
        <ele>80.4</ele>
        <time>2021-11-25T13:22:31.000Z</time>
      </trkpt>
      <trkpt lat="47.88251" lon="-3.42881">
        <ele>80.2</ele>
        <time>2021-11-25T13:22:28.000Z</time>
      </trkpt>
      <trkpt lat="47.88261" lon="-3.42875">
        <ele>83.2</ele>
        <time>2021-11-25T13:22:25.000Z</time>
      </trkpt>
      <trkpt lat="47.88268" lon="-3.42871">
        <ele>81</ele>
        <time>2021-11-25T13:22:22.000Z</time>
      </trkpt>
      <trkpt lat="47.88272" lon="-3.42865">
        <ele>81</ele>
        <time>2021-11-25T13:22:19.000Z</time>
      </trkpt>
      <trkpt lat="47.88274" lon="-3.42855">
        <ele>78.7</ele>
        <time>2021-11-25T13:22:16.000Z</time>
      </trkpt>
      <trkpt lat="47.88275" lon="-3.42842">
        <ele>80.7</ele>
        <time>2021-11-25T13:22:13.000Z</time>
      </trkpt>
      <trkpt lat="47.88276" lon="-3.42829">
        <ele>80.5</ele>
        <time>2021-11-25T13:22:10.000Z</time>
      </trkpt>
      <trkpt lat="47.88276" lon="-3.42817">
        <ele>78.5</ele>
        <time>2021-11-25T13:22:07.000Z</time>
      </trkpt>
      <trkpt lat="47.88276" lon="-3.42803">
        <ele>78.5</ele>
        <time>2021-11-25T13:22:04.000Z</time>
      </trkpt>
      <trkpt lat="47.88277" lon="-3.4279">
        <ele>78.8</ele>
        <time>2021-11-25T13:22:01.000Z</time>
      </trkpt>
      <trkpt lat="47.88277" lon="-3.42776">
        <ele>74.4</ele>
        <time>2021-11-25T13:21:58.000Z</time>
      </trkpt>
      <trkpt lat="47.88277" lon="-3.42761">
        <ele>77</ele>
        <time>2021-11-25T13:21:55.000Z</time>
      </trkpt>
      <trkpt lat="47.88277" lon="-3.42746">
        <ele>80.2</ele>
        <time>2021-11-25T13:21:52.000Z</time>
      </trkpt>
      <trkpt lat="47.88277" lon="-3.42736">
        <ele>77.5</ele>
        <time>2021-11-25T13:21:49.000Z</time>
      </trkpt>
      <trkpt lat="47.88279" lon="-3.42729">
        <ele>77.7</ele>
        <time>2021-11-25T13:21:46.000Z</time>
      </trkpt>
      <trkpt lat="47.88279" lon="-3.42722">
        <ele>77.4</ele>
        <time>2021-11-25T13:21:43.000Z</time>
      </trkpt>
      <trkpt lat="47.88279" lon="-3.42709">
        <ele>77.2</ele>
        <time>2021-11-25T13:21:40.000Z</time>
      </trkpt>
      <trkpt lat="47.88279" lon="-3.42692">
        <ele>74</ele>
        <time>2021-11-25T13:21:37.000Z</time>
      </trkpt>
      <trkpt lat="47.8828" lon="-3.42672">
        <ele>76.7</ele>
        <time>2021-11-25T13:21:34.000Z</time>
      </trkpt>
      <trkpt lat="47.8828" lon="-3.42654">
        <ele>78.6</ele>
        <time>2021-11-25T13:21:31.000Z</time>
      </trkpt>
      <trkpt lat="47.88281" lon="-3.42636">
        <ele>78.7</ele>
        <time>2021-11-25T13:21:28.000Z</time>
      </trkpt>
      <trkpt lat="47.88283" lon="-3.42619">
        <ele>81.5</ele>
        <time>2021-11-25T13:21:25.000Z</time>
      </trkpt>
      <trkpt lat="47.88287" lon="-3.42604">
        <ele>80.1</ele>
        <time>2021-11-25T13:21:22.000Z</time>
      </trkpt>
      <trkpt lat="47.8829" lon="-3.42588">
        <ele>78.3</ele>
        <time>2021-11-25T13:21:19.000Z</time>
      </trkpt>
      <trkpt lat="47.88293" lon="-3.42571">
        <ele>80.3</ele>
        <time>2021-11-25T13:21:16.000Z</time>
      </trkpt>
      <trkpt lat="47.88297" lon="-3.42555">
        <ele>80.1</ele>
        <time>2021-11-25T13:21:13.000Z</time>
      </trkpt>
      <trkpt lat="47.883" lon="-3.4254">
        <ele>81</ele>
        <time>2021-11-25T13:21:10.000Z</time>
      </trkpt>
      <trkpt lat="47.88302" lon="-3.42526">
        <ele>80</ele>
        <time>2021-11-25T13:21:07.000Z</time>
      </trkpt>
      <trkpt lat="47.88304" lon="-3.42513">
        <ele>77.3</ele>
        <time>2021-11-25T13:21:04.000Z</time>
      </trkpt>
      <trkpt lat="47.88305" lon="-3.425">
        <ele>78.5</ele>
        <time>2021-11-25T13:21:01.000Z</time>
      </trkpt>
      <trkpt lat="47.88306" lon="-3.42489">
        <ele>79.6</ele>
        <time>2021-11-25T13:20:58.000Z</time>
      </trkpt>
      <trkpt lat="47.88306" lon="-3.42479">
        <ele>78.2</ele>
        <time>2021-11-25T13:20:55.000Z</time>
      </trkpt>
      <trkpt lat="47.88307" lon="-3.42468">
        <ele>79.2</ele>
        <time>2021-11-25T13:20:52.000Z</time>
      </trkpt>
      <trkpt lat="47.88308" lon="-3.42457">
        <ele>78.8</ele>
        <time>2021-11-25T13:20:49.000Z</time>
      </trkpt>
      <trkpt lat="47.88309" lon="-3.42446">
        <ele>78.7</ele>
        <time>2021-11-25T13:20:46.000Z</time>
      </trkpt>
      <trkpt lat="47.8831" lon="-3.42437">
        <ele>78.2</ele>
        <time>2021-11-25T13:20:43.000Z</time>
      </trkpt>
      <trkpt lat="47.88311" lon="-3.42427">
        <ele>77.4</ele>
        <time>2021-11-25T13:20:40.000Z</time>
      </trkpt>
      <trkpt lat="47.88311" lon="-3.42417">
        <ele>77.6</ele>
        <time>2021-11-25T13:20:37.000Z</time>
      </trkpt>
      <trkpt lat="47.88311" lon="-3.42408">
        <ele>77.4</ele>
        <time>2021-11-25T13:20:34.000Z</time>
      </trkpt>
      <trkpt lat="47.88312" lon="-3.42398">
        <ele>75.9</ele>
        <time>2021-11-25T13:20:31.000Z</time>
      </trkpt>
      <trkpt lat="47.88312" lon="-3.42387">
        <ele>76.4</ele>
        <time>2021-11-25T13:20:28.000Z</time>
      </trkpt>
      <trkpt lat="47.88313" lon="-3.42378">
        <ele>77.9</ele>
        <time>2021-11-25T13:20:25.000Z</time>
      </trkpt>
      <trkpt lat="47.88313" lon="-3.42369">
        <ele>76.3</ele>
        <time>2021-11-25T13:20:22.000Z</time>
      </trkpt>
      <trkpt lat="47.88313" lon="-3.4236">
        <ele>73.7</ele>
        <time>2021-11-25T13:20:19.000Z</time>
      </trkpt>
      <trkpt lat="47.88314" lon="-3.42351">
        <ele>75.8</ele>
        <time>2021-11-25T13:20:16.000Z</time>
      </trkpt>
      <trkpt lat="47.88315" lon="-3.42341">
        <ele>73.1</ele>
        <time>2021-11-25T13:20:13.000Z</time>
      </trkpt>
      <trkpt lat="47.88316" lon="-3.42332">
        <ele>75.1</ele>
        <time>2021-11-25T13:20:10.000Z</time>
      </trkpt>
      <trkpt lat="47.88317" lon="-3.42322">
        <ele>74.9</ele>
        <time>2021-11-25T13:20:07.000Z</time>
      </trkpt>
      <trkpt lat="47.88318" lon="-3.42313">
        <ele>74.9</ele>
        <time>2021-11-25T13:20:04.000Z</time>
      </trkpt>
      <trkpt lat="47.88318" lon="-3.42305">
        <ele>72.2</ele>
        <time>2021-11-25T13:20:01.000Z</time>
      </trkpt>
      <trkpt lat="47.88318" lon="-3.42297">
        <ele>72.5</ele>
        <time>2021-11-25T13:19:58.000Z</time>
      </trkpt>
      <trkpt lat="47.88319" lon="-3.4229">
        <ele>71.4</ele>
        <time>2021-11-25T13:19:55.000Z</time>
      </trkpt>
      <trkpt lat="47.88319" lon="-3.42283">
        <ele>72.1</ele>
        <time>2021-11-25T13:19:52.000Z</time>
      </trkpt>
      <trkpt lat="47.88319" lon="-3.42276">
        <ele>70.2</ele>
        <time>2021-11-25T13:19:49.000Z</time>
      </trkpt>
      <trkpt lat="47.8832" lon="-3.42268">
        <ele>69.7</ele>
        <time>2021-11-25T13:19:46.000Z</time>
      </trkpt>
      <trkpt lat="47.8832" lon="-3.4226">
        <ele>70.7</ele>
        <time>2021-11-25T13:19:43.000Z</time>
      </trkpt>
      <trkpt lat="47.8832" lon="-3.42253">
        <ele>69.2</ele>
        <time>2021-11-25T13:19:40.000Z</time>
      </trkpt>
      <trkpt lat="47.88321" lon="-3.42245">
        <ele>69.7</ele>
        <time>2021-11-25T13:19:37.000Z</time>
      </trkpt>
      <trkpt lat="47.88321" lon="-3.42236">
        <ele>68.1</ele>
        <time>2021-11-25T13:19:34.000Z</time>
      </trkpt>
      <trkpt lat="47.88322" lon="-3.42228">
        <ele>67.8</ele>
        <time>2021-11-25T13:19:31.000Z</time>
      </trkpt>
      <trkpt lat="47.88322" lon="-3.42221">
        <ele>66.5</ele>
        <time>2021-11-25T13:19:28.000Z</time>
      </trkpt>
      <trkpt lat="47.88322" lon="-3.42215">
        <ele>66</ele>
        <time>2021-11-25T13:19:25.000Z</time>
      </trkpt>
      <trkpt lat="47.88322" lon="-3.42207">
        <ele>64.5</ele>
        <time>2021-11-25T13:19:22.000Z</time>
      </trkpt>
      <trkpt lat="47.88323" lon="-3.422">
        <ele>64.3</ele>
        <time>2021-11-25T13:19:19.000Z</time>
      </trkpt>
      <trkpt lat="47.88326" lon="-3.42193">
        <ele>63.9</ele>
        <time>2021-11-25T13:19:16.000Z</time>
      </trkpt>
      <trkpt lat="47.88332" lon="-3.4219">
        <ele>64.2</ele>
        <time>2021-11-25T13:19:13.000Z</time>
      </trkpt>
      <trkpt lat="47.88338" lon="-3.4219">
        <ele>63</ele>
        <time>2021-11-25T13:19:10.000Z</time>
      </trkpt>
      <trkpt lat="47.88345" lon="-3.42191">
        <ele>62.5</ele>
        <time>2021-11-25T13:19:07.000Z</time>
      </trkpt>
      <trkpt lat="47.88351" lon="-3.42191">
        <ele>61</ele>
        <time>2021-11-25T13:19:04.000Z</time>
      </trkpt>
      <trkpt lat="47.88357" lon="-3.4219">
        <ele>60.5</ele>
        <time>2021-11-25T13:19:01.000Z</time>
      </trkpt>
      <trkpt lat="47.88363" lon="-3.42188">
        <ele>60.9</ele>
        <time>2021-11-25T13:18:58.000Z</time>
      </trkpt>
      <trkpt lat="47.88369" lon="-3.42185">
        <ele>60.5</ele>
        <time>2021-11-25T13:18:55.000Z</time>
      </trkpt>
      <trkpt lat="47.88374" lon="-3.42181">
        <ele>59.4</ele>
        <time>2021-11-25T13:18:52.000Z</time>
      </trkpt>
      <trkpt lat="47.88379" lon="-3.42177">
        <ele>58.3</ele>
        <time>2021-11-25T13:18:49.000Z</time>
      </trkpt>
      <trkpt lat="47.88384" lon="-3.4217">
        <ele>56.2</ele>
        <time>2021-11-25T13:18:46.000Z</time>
      </trkpt>
      <trkpt lat="47.88389" lon="-3.42164">
        <ele>55.8</ele>
        <time>2021-11-25T13:18:43.000Z</time>
      </trkpt>
      <trkpt lat="47.88393" lon="-3.42156">
        <ele>55.9</ele>
        <time>2021-11-25T13:18:40.000Z</time>
      </trkpt>
      <trkpt lat="47.88396" lon="-3.42149">
        <ele>54.1</ele>
        <time>2021-11-25T13:18:37.000Z</time>
      </trkpt>
      <trkpt lat="47.884" lon="-3.42139">
        <ele>53.5</ele>
        <time>2021-11-25T13:18:34.000Z</time>
      </trkpt>
      <trkpt lat="47.88402" lon="-3.4213">
        <ele>52.3</ele>
        <time>2021-11-25T13:18:31.000Z</time>
      </trkpt>
      <trkpt lat="47.88405" lon="-3.42119">
        <ele>51.2</ele>
        <time>2021-11-25T13:18:28.000Z</time>
      </trkpt>
      <trkpt lat="47.88407" lon="-3.42111">
        <ele>50</ele>
        <time>2021-11-25T13:18:25.000Z</time>
      </trkpt>
      <trkpt lat="47.88408" lon="-3.42102">
        <ele>50.3</ele>
        <time>2021-11-25T13:18:22.000Z</time>
      </trkpt>
      <trkpt lat="47.88412" lon="-3.42093">
        <ele>48.2</ele>
        <time>2021-11-25T13:18:19.000Z</time>
      </trkpt>
      <trkpt lat="47.88418" lon="-3.42086">
        <ele>47.8</ele>
        <time>2021-11-25T13:18:16.000Z</time>
      </trkpt>
      <trkpt lat="47.88427" lon="-3.42085">
        <ele>46.2</ele>
        <time>2021-11-25T13:18:13.000Z</time>
      </trkpt>
      <trkpt lat="47.88439" lon="-3.42093">
        <ele>44.5</ele>
        <time>2021-11-25T13:18:10.000Z</time>
      </trkpt>
      <trkpt lat="47.88453" lon="-3.42102">
        <ele>44.7</ele>
        <time>2021-11-25T13:18:07.000Z</time>
      </trkpt>
      <trkpt lat="47.88468" lon="-3.4211">
        <ele>44.8</ele>
        <time>2021-11-25T13:18:04.000Z</time>
      </trkpt>
      <trkpt lat="47.88483" lon="-3.4212">
        <ele>43.9</ele>
        <time>2021-11-25T13:18:01.000Z</time>
      </trkpt>
      <trkpt lat="47.88498" lon="-3.42129">
        <ele>43.6</ele>
        <time>2021-11-25T13:17:58.000Z</time>
      </trkpt>
      <trkpt lat="47.88513" lon="-3.42138">
        <ele>43</ele>
        <time>2021-11-25T13:17:55.000Z</time>
      </trkpt>
      <trkpt lat="47.88528" lon="-3.42146">
        <ele>42.5</ele>
        <time>2021-11-25T13:17:52.000Z</time>
      </trkpt>
      <trkpt lat="47.88544" lon="-3.42155">
        <ele>41</ele>
        <time>2021-11-25T13:17:49.000Z</time>
      </trkpt>
      <trkpt lat="47.88562" lon="-3.42166">
        <ele>40.3</ele>
        <time>2021-11-25T13:17:46.000Z</time>
      </trkpt>
      <trkpt lat="47.88583" lon="-3.42183">
        <ele>39.2</ele>
        <time>2021-11-25T13:17:43.000Z</time>
      </trkpt>
      <trkpt lat="47.88606" lon="-3.42205">
        <ele>37.7</ele>
        <time>2021-11-25T13:17:40.000Z</time>
      </trkpt>
      <trkpt lat="47.88629" lon="-3.42229">
        <ele>37.2</ele>
        <time>2021-11-25T13:17:37.000Z</time>
      </trkpt>
      <trkpt lat="47.88657" lon="-3.42245">
        <ele>39.1</ele>
        <time>2021-11-25T13:17:34.000Z</time>
      </trkpt>
      <trkpt lat="47.88685" lon="-3.42256">
        <ele>40.1</ele>
        <time>2021-11-25T13:17:31.000Z</time>
      </trkpt>
      <trkpt lat="47.88713" lon="-3.42265">
        <ele>41.5</ele>
        <time>2021-11-25T13:17:28.000Z</time>
      </trkpt>
      <trkpt lat="47.8874" lon="-3.42275">
        <ele>42.1</ele>
        <time>2021-11-25T13:17:25.000Z</time>
      </trkpt>
      <trkpt lat="47.88767" lon="-3.42285">
        <ele>41.7</ele>
        <time>2021-11-25T13:17:22.000Z</time>
      </trkpt>
      <trkpt lat="47.88793" lon="-3.42294">
        <ele>43.7</ele>
        <time>2021-11-25T13:17:19.000Z</time>
      </trkpt>
      <trkpt lat="47.88819" lon="-3.42305">
        <ele>44.6</ele>
        <time>2021-11-25T13:17:16.000Z</time>
      </trkpt>
      <trkpt lat="47.88845" lon="-3.42317">
        <ele>45.2</ele>
        <time>2021-11-25T13:17:13.000Z</time>
      </trkpt>
      <trkpt lat="47.88873" lon="-3.4233">
        <ele>45.7</ele>
        <time>2021-11-25T13:17:10.000Z</time>
      </trkpt>
      <trkpt lat="47.88901" lon="-3.42343">
        <ele>47.2</ele>
        <time>2021-11-25T13:17:07.000Z</time>
      </trkpt>
      <trkpt lat="47.88929" lon="-3.42355">
        <ele>48.2</ele>
        <time>2021-11-25T13:17:04.000Z</time>
      </trkpt>
      <trkpt lat="47.88955" lon="-3.42365">
        <ele>50.2</ele>
        <time>2021-11-25T13:17:01.000Z</time>
      </trkpt>
      <trkpt lat="47.8898" lon="-3.42377">
        <ele>51.2</ele>
        <time>2021-11-25T13:16:58.000Z</time>
      </trkpt>
      <trkpt lat="47.89001" lon="-3.42396">
        <ele>54.7</ele>
        <time>2021-11-25T13:16:55.000Z</time>
      </trkpt>
      <trkpt lat="47.89017" lon="-3.42418">
        <ele>55.8</ele>
        <time>2021-11-25T13:16:52.000Z</time>
      </trkpt>
      <trkpt lat="47.8903" lon="-3.42437">
        <ele>57.5</ele>
        <time>2021-11-25T13:16:49.000Z</time>
      </trkpt>
      <trkpt lat="47.89041" lon="-3.42457">
        <ele>57.2</ele>
        <time>2021-11-25T13:16:46.000Z</time>
      </trkpt>
      <trkpt lat="47.89048" lon="-3.42476">
        <ele>58.7</ele>
        <time>2021-11-25T13:16:43.000Z</time>
      </trkpt>
      <trkpt lat="47.89053" lon="-3.42494">
        <ele>59.1</ele>
        <time>2021-11-25T13:16:40.000Z</time>
      </trkpt>
      <trkpt lat="47.8906" lon="-3.42506">
        <ele>59.7</ele>
        <time>2021-11-25T13:16:37.000Z</time>
      </trkpt>
      <trkpt lat="47.89072" lon="-3.42507">
        <ele>62.4</ele>
        <time>2021-11-25T13:16:34.000Z</time>
      </trkpt>
      <trkpt lat="47.8909" lon="-3.42509">
        <ele>63.6</ele>
        <time>2021-11-25T13:16:31.000Z</time>
      </trkpt>
      <trkpt lat="47.89113" lon="-3.42515">
        <ele>64.7</ele>
        <time>2021-11-25T13:16:28.000Z</time>
      </trkpt>
      <trkpt lat="47.89137" lon="-3.42522">
        <ele>68.8</ele>
        <time>2021-11-25T13:16:25.000Z</time>
      </trkpt>
      <trkpt lat="47.89162" lon="-3.4253">
        <ele>72.3</ele>
        <time>2021-11-25T13:16:22.000Z</time>
      </trkpt>
      <trkpt lat="47.89185" lon="-3.42537">
        <ele>76.1</ele>
        <time>2021-11-25T13:16:19.000Z</time>
      </trkpt>
      <trkpt lat="47.89205" lon="-3.42544">
        <ele>75</ele>
        <time>2021-11-25T13:16:16.000Z</time>
      </trkpt>
      <trkpt lat="47.89223" lon="-3.4255">
        <ele>77.5</ele>
        <time>2021-11-25T13:16:13.000Z</time>
      </trkpt>
      <trkpt lat="47.89239" lon="-3.42555">
        <ele>77.4</ele>
        <time>2021-11-25T13:16:10.000Z</time>
      </trkpt>
      <trkpt lat="47.89255" lon="-3.4256">
        <ele>77.5</ele>
        <time>2021-11-25T13:16:07.000Z</time>
      </trkpt>
      <trkpt lat="47.8927" lon="-3.42565">
        <ele>77.5</ele>
        <time>2021-11-25T13:16:04.000Z</time>
      </trkpt>
      <trkpt lat="47.89285" lon="-3.4257">
        <ele>77.2</ele>
        <time>2021-11-25T13:16:01.000Z</time>
      </trkpt>
      <trkpt lat="47.893" lon="-3.42575">
        <ele>75.7</ele>
        <time>2021-11-25T13:15:58.000Z</time>
      </trkpt>
      <trkpt lat="47.89314" lon="-3.4258">
        <ele>76</ele>
        <time>2021-11-25T13:15:55.000Z</time>
      </trkpt>
      <trkpt lat="47.89329" lon="-3.42585">
        <ele>75.5</ele>
        <time>2021-11-25T13:15:52.000Z</time>
      </trkpt>
      <trkpt lat="47.89344" lon="-3.42589">
        <ele>74.3</ele>
        <time>2021-11-25T13:15:49.000Z</time>
      </trkpt>
      <trkpt lat="47.89358" lon="-3.42594">
        <ele>74.8</ele>
        <time>2021-11-25T13:15:46.000Z</time>
      </trkpt>
      <trkpt lat="47.89372" lon="-3.42598">
        <ele>73.9</ele>
        <time>2021-11-25T13:15:43.000Z</time>
      </trkpt>
      <trkpt lat="47.89387" lon="-3.42601">
        <ele>73.6</ele>
        <time>2021-11-25T13:15:40.000Z</time>
      </trkpt>
      <trkpt lat="47.89402" lon="-3.42605">
        <ele>73.7</ele>
        <time>2021-11-25T13:15:37.000Z</time>
      </trkpt>
      <trkpt lat="47.8942" lon="-3.42608">
        <ele>72.9</ele>
        <time>2021-11-25T13:15:34.000Z</time>
      </trkpt>
      <trkpt lat="47.8944" lon="-3.42612">
        <ele>71.5</ele>
        <time>2021-11-25T13:15:31.000Z</time>
      </trkpt>
      <trkpt lat="47.89457" lon="-3.42628">
        <ele>73</ele>
        <time>2021-11-25T13:15:28.000Z</time>
      </trkpt>
      <trkpt lat="47.89466" lon="-3.42651">
        <ele>74.6</ele>
        <time>2021-11-25T13:15:25.000Z</time>
      </trkpt>
      <trkpt lat="47.89474" lon="-3.42675">
        <ele>74.8</ele>
        <time>2021-11-25T13:15:22.000Z</time>
      </trkpt>
      <trkpt lat="47.89482" lon="-3.42699">
        <ele>75.4</ele>
        <time>2021-11-25T13:15:19.000Z</time>
      </trkpt>
      <trkpt lat="47.8949" lon="-3.42721">
        <ele>76.2</ele>
        <time>2021-11-25T13:15:16.000Z</time>
      </trkpt>
      <trkpt lat="47.89499" lon="-3.42742">
        <ele>76</ele>
        <time>2021-11-25T13:15:13.000Z</time>
      </trkpt>
      <trkpt lat="47.89506" lon="-3.4276">
        <ele>75.6</ele>
        <time>2021-11-25T13:15:10.000Z</time>
      </trkpt>
      <trkpt lat="47.89515" lon="-3.42778">
        <ele>74.6</ele>
        <time>2021-11-25T13:15:07.000Z</time>
      </trkpt>
      <trkpt lat="47.89523" lon="-3.42796">
        <ele>73.6</ele>
        <time>2021-11-25T13:15:04.000Z</time>
      </trkpt>
      <trkpt lat="47.8953" lon="-3.42812">
        <ele>72.4</ele>
        <time>2021-11-25T13:15:01.000Z</time>
      </trkpt>
      <trkpt lat="47.89539" lon="-3.4283">
        <ele>72.2</ele>
        <time>2021-11-25T13:14:58.000Z</time>
      </trkpt>
      <trkpt lat="47.89547" lon="-3.42849">
        <ele>70.2</ele>
        <time>2021-11-25T13:14:55.000Z</time>
      </trkpt>
      <trkpt lat="47.89557" lon="-3.4287">
        <ele>69.7</ele>
        <time>2021-11-25T13:14:52.000Z</time>
      </trkpt>
      <trkpt lat="47.89567" lon="-3.42893">
        <ele>68.2</ele>
        <time>2021-11-25T13:14:49.000Z</time>
      </trkpt>
      <trkpt lat="47.89578" lon="-3.42919">
        <ele>66.9</ele>
        <time>2021-11-25T13:14:46.000Z</time>
      </trkpt>
      <trkpt lat="47.89589" lon="-3.42946">
        <ele>66.2</ele>
        <time>2021-11-25T13:14:43.000Z</time>
      </trkpt>
      <trkpt lat="47.89601" lon="-3.42974">
        <ele>66.6</ele>
        <time>2021-11-25T13:14:40.000Z</time>
      </trkpt>
      <trkpt lat="47.89613" lon="-3.43002">
        <ele>67.5</ele>
        <time>2021-11-25T13:14:37.000Z</time>
      </trkpt>
      <trkpt lat="47.89624" lon="-3.4303">
        <ele>68.2</ele>
        <time>2021-11-25T13:14:34.000Z</time>
      </trkpt>
      <trkpt lat="47.89636" lon="-3.43057">
        <ele>68.7</ele>
        <time>2021-11-25T13:14:31.000Z</time>
      </trkpt>
      <trkpt lat="47.89647" lon="-3.43082">
        <ele>69.2</ele>
        <time>2021-11-25T13:14:28.000Z</time>
      </trkpt>
      <trkpt lat="47.89658" lon="-3.43109">
        <ele>69</ele>
        <time>2021-11-25T13:14:25.000Z</time>
      </trkpt>
      <trkpt lat="47.89669" lon="-3.43135">
        <ele>69.1</ele>
        <time>2021-11-25T13:14:22.000Z</time>
      </trkpt>
      <trkpt lat="47.89681" lon="-3.43162">
        <ele>67.6</ele>
        <time>2021-11-25T13:14:19.000Z</time>
      </trkpt>
      <trkpt lat="47.89694" lon="-3.43193">
        <ele>64.4</ele>
        <time>2021-11-25T13:14:16.000Z</time>
      </trkpt>
      <trkpt lat="47.89709" lon="-3.43228">
        <ele>64.9</ele>
        <time>2021-11-25T13:14:13.000Z</time>
      </trkpt>
      <trkpt lat="47.89726" lon="-3.43266">
        <ele>65.8</ele>
        <time>2021-11-25T13:14:10.000Z</time>
      </trkpt>
      <trkpt lat="47.89743" lon="-3.43306">
        <ele>66.9</ele>
        <time>2021-11-25T13:14:07.000Z</time>
      </trkpt>
      <trkpt lat="47.89761" lon="-3.43345">
        <ele>65.3</ele>
        <time>2021-11-25T13:14:04.000Z</time>
      </trkpt>
      <trkpt lat="47.89783" lon="-3.43386">
        <ele>67.6</ele>
        <time>2021-11-25T13:14:01.000Z</time>
      </trkpt>
      <trkpt lat="47.89806" lon="-3.43427">
        <ele>70.3</ele>
        <time>2021-11-25T13:13:58.000Z</time>
      </trkpt>
      <trkpt lat="47.8983" lon="-3.43465">
        <ele>72.9</ele>
        <time>2021-11-25T13:13:55.000Z</time>
      </trkpt>
      <trkpt lat="47.89854" lon="-3.435">
        <ele>75.1</ele>
        <time>2021-11-25T13:13:52.000Z</time>
      </trkpt>
      <trkpt lat="47.89878" lon="-3.43532">
        <ele>78.4</ele>
        <time>2021-11-25T13:13:49.000Z</time>
      </trkpt>
      <trkpt lat="47.899" lon="-3.43561">
        <ele>79.2</ele>
        <time>2021-11-25T13:13:46.000Z</time>
      </trkpt>
      <trkpt lat="47.8992" lon="-3.43587">
        <ele>83.7</ele>
        <time>2021-11-25T13:13:43.000Z</time>
      </trkpt>
      <trkpt lat="47.89939" lon="-3.43613">
        <ele>84.5</ele>
        <time>2021-11-25T13:13:40.000Z</time>
      </trkpt>
      <trkpt lat="47.89957" lon="-3.43638">
        <ele>85.1</ele>
        <time>2021-11-25T13:13:37.000Z</time>
      </trkpt>
      <trkpt lat="47.89976" lon="-3.43663">
        <ele>86.4</ele>
        <time>2021-11-25T13:13:34.000Z</time>
      </trkpt>
      <trkpt lat="47.89995" lon="-3.43688">
        <ele>86.7</ele>
        <time>2021-11-25T13:13:31.000Z</time>
      </trkpt>
      <trkpt lat="47.90014" lon="-3.43714">
        <ele>85.7</ele>
        <time>2021-11-25T13:13:28.000Z</time>
      </trkpt>
      <trkpt lat="47.90034" lon="-3.43742">
        <ele>88.8</ele>
        <time>2021-11-25T13:13:25.000Z</time>
      </trkpt>
      <trkpt lat="47.90054" lon="-3.43772">
        <ele>89.2</ele>
        <time>2021-11-25T13:13:22.000Z</time>
      </trkpt>
      <trkpt lat="47.9007" lon="-3.43802">
        <ele>92.9</ele>
        <time>2021-11-25T13:13:19.000Z</time>
      </trkpt>
      <trkpt lat="47.90082" lon="-3.43833">
        <ele>93.8</ele>
        <time>2021-11-25T13:13:16.000Z</time>
      </trkpt>
      <trkpt lat="47.90091" lon="-3.43862">
        <ele>95.3</ele>
        <time>2021-11-25T13:13:13.000Z</time>
      </trkpt>
      <trkpt lat="47.90098" lon="-3.43889">
        <ele>97.9</ele>
        <time>2021-11-25T13:13:10.000Z</time>
      </trkpt>
      <trkpt lat="47.90105" lon="-3.4391">
        <ele>98.5</ele>
        <time>2021-11-25T13:13:07.000Z</time>
      </trkpt>
      <trkpt lat="47.90113" lon="-3.43928">
        <ele>98.5</ele>
        <time>2021-11-25T13:13:04.000Z</time>
      </trkpt>
      <trkpt lat="47.90117" lon="-3.43945">
        <ele>98.1</ele>
        <time>2021-11-25T13:13:01.000Z</time>
      </trkpt>
      <trkpt lat="47.90116" lon="-3.43965">
        <ele>97.2</ele>
        <time>2021-11-25T13:12:58.000Z</time>
      </trkpt>
      <trkpt lat="47.90115" lon="-3.43984">
        <ele>97.5</ele>
        <time>2021-11-25T13:12:55.000Z</time>
      </trkpt>
      <trkpt lat="47.90113" lon="-3.44004">
        <ele>98.4</ele>
        <time>2021-11-25T13:12:52.000Z</time>
      </trkpt>
      <trkpt lat="47.90111" lon="-3.44025">
        <ele>97.9</ele>
        <time>2021-11-25T13:12:49.000Z</time>
      </trkpt>
      <trkpt lat="47.90109" lon="-3.44045">
        <ele>98.1</ele>
        <time>2021-11-25T13:12:46.000Z</time>
      </trkpt>
      <trkpt lat="47.90107" lon="-3.44065">
        <ele>97.7</ele>
        <time>2021-11-25T13:12:43.000Z</time>
      </trkpt>
      <trkpt lat="47.90105" lon="-3.44086">
        <ele>98.1</ele>
        <time>2021-11-25T13:12:40.000Z</time>
      </trkpt>
      <trkpt lat="47.90103" lon="-3.44106">
        <ele>99.3</ele>
        <time>2021-11-25T13:12:37.000Z</time>
      </trkpt>
      <trkpt lat="47.90101" lon="-3.44125">
        <ele>96.8</ele>
        <time>2021-11-25T13:12:34.000Z</time>
      </trkpt>
      <trkpt lat="47.90098" lon="-3.44143">
        <ele>97.1</ele>
        <time>2021-11-25T13:12:31.000Z</time>
      </trkpt>
      <trkpt lat="47.90095" lon="-3.4416">
        <ele>97.9</ele>
        <time>2021-11-25T13:12:28.000Z</time>
      </trkpt>
      <trkpt lat="47.90091" lon="-3.44177">
        <ele>97.1</ele>
        <time>2021-11-25T13:12:25.000Z</time>
      </trkpt>
      <trkpt lat="47.90088" lon="-3.44192">
        <ele>97.4</ele>
        <time>2021-11-25T13:12:22.000Z</time>
      </trkpt>
      <trkpt lat="47.90084" lon="-3.44205">
        <ele>95.9</ele>
        <time>2021-11-25T13:12:19.000Z</time>
      </trkpt>
      <trkpt lat="47.90084" lon="-3.44219">
        <ele>95.4</ele>
        <time>2021-11-25T13:12:16.000Z</time>
      </trkpt>
      <trkpt lat="47.90087" lon="-3.44228">
        <ele>96.1</ele>
        <time>2021-11-25T13:12:13.000Z</time>
      </trkpt>
      <trkpt lat="47.90088" lon="-3.44229">
        <ele>96.3</ele>
        <time>2021-11-25T13:12:11.000Z</time>
      </trkpt>
      <trkpt lat="47.90088" lon="-3.44229">
        <ele>96.6</ele>
        <time>2021-11-25T13:12:08.000Z</time>
      </trkpt>
      <trkpt lat="47.90088" lon="-3.44229">
        <ele>96.4</ele>
        <time>2021-11-25T13:12:05.000Z</time>
      </trkpt>
      <trkpt lat="47.90088" lon="-3.44229">
        <ele>96.6</ele>
        <time>2021-11-25T13:12:02.000Z</time>
      </trkpt>
      <trkpt lat="47.90088" lon="-3.44229">
        <ele>96.5</ele>
        <time>2021-11-25T13:11:59.000Z</time>
      </trkpt>
      <trkpt lat="47.90088" lon="-3.44229">
        <ele>96.3</ele>
        <time>2021-11-25T13:11:56.000Z</time>
      </trkpt>
      <trkpt lat="47.90088" lon="-3.44229">
        <ele>96.8</ele>
        <time>2021-11-25T13:11:53.000Z</time>
      </trkpt>
      <trkpt lat="47.90088" lon="-3.44229">
        <ele>96.7</ele>
        <time>2021-11-25T13:11:50.000Z</time>
      </trkpt>
      <trkpt lat="47.90088" lon="-3.44229">
        <ele>96.5</ele>
        <time>2021-11-25T13:11:47.000Z</time>
      </trkpt>
      <trkpt lat="47.90088" lon="-3.44229">
        <ele>96.5</ele>
        <time>2021-11-25T13:11:44.000Z</time>
      </trkpt>
      <trkpt lat="47.90088" lon="-3.44229">
        <ele>96.6</ele>
        <time>2021-11-25T13:11:41.000Z</time>
      </trkpt>
      <trkpt lat="47.90088" lon="-3.44229">
        <ele>96.7</ele>
        <time>2021-11-25T13:11:40.000Z</time>
      </trkpt>
      <trkpt lat="47.90088" lon="-3.4423">
        <ele>97.1</ele>
        <time>2021-11-25T13:11:37.000Z</time>
      </trkpt>
      <trkpt lat="47.90088" lon="-3.4423">
        <ele>96.6</ele>
        <time>2021-11-25T13:11:35.000Z</time>
      </trkpt>
      <trkpt lat="47.90088" lon="-3.4423">
        <ele>96.8</ele>
        <time>2021-11-25T13:11:32.000Z</time>
      </trkpt>
      <trkpt lat="47.90088" lon="-3.4423">
        <ele>97.1</ele>
        <time>2021-11-25T13:11:29.000Z</time>
      </trkpt>
      <trkpt lat="47.90088" lon="-3.4423">
        <ele>96.9</ele>
        <time>2021-11-25T13:11:26.000Z</time>
      </trkpt>
      <trkpt lat="47.90088" lon="-3.4423">
        <ele>96.7</ele>
        <time>2021-11-25T13:11:23.000Z</time>
      </trkpt>
      <trkpt lat="47.90088" lon="-3.4423">
        <ele>96.8</ele>
        <time>2021-11-25T13:11:20.000Z</time>
      </trkpt>
      <trkpt lat="47.90088" lon="-3.4423">
        <ele>97.2</ele>
        <time>2021-11-25T13:11:17.000Z</time>
      </trkpt>
      <trkpt lat="47.90088" lon="-3.4423">
        <ele>97</ele>
        <time>2021-11-25T13:11:14.000Z</time>
      </trkpt>
      <trkpt lat="47.90088" lon="-3.4423">
        <ele>97.1</ele>
        <time>2021-11-25T13:11:11.000Z</time>
      </trkpt>
      <trkpt lat="47.90088" lon="-3.4423">
        <ele>97</ele>
        <time>2021-11-25T13:11:10.000Z</time>
      </trkpt>
      <trkpt lat="47.90089" lon="-3.4423">
        <ele>96.6</ele>
        <time>2021-11-25T13:11:08.000Z</time>
      </trkpt>
      <trkpt lat="47.90089" lon="-3.4423">
        <ele>97.3</ele>
        <time>2021-11-25T13:11:05.000Z</time>
      </trkpt>
      <trkpt lat="47.90089" lon="-3.4423">
        <ele>97.2</ele>
        <time>2021-11-25T13:11:02.000Z</time>
      </trkpt>
      <trkpt lat="47.90089" lon="-3.4423">
        <ele>97.2</ele>
        <time>2021-11-25T13:10:59.000Z</time>
      </trkpt>
      <trkpt lat="47.90089" lon="-3.4423">
        <ele>97.6</ele>
        <time>2021-11-25T13:10:56.000Z</time>
      </trkpt>
      <trkpt lat="47.90089" lon="-3.4423">
        <ele>97.8</ele>
        <time>2021-11-25T13:10:53.000Z</time>
      </trkpt>
      <trkpt lat="47.90089" lon="-3.4423">
        <ele>97.5</ele>
        <time>2021-11-25T13:10:50.000Z</time>
      </trkpt>
      <trkpt lat="47.90089" lon="-3.4423">
        <ele>96.9</ele>
        <time>2021-11-25T13:10:47.000Z</time>
      </trkpt>
      <trkpt lat="47.90089" lon="-3.4423">
        <ele>97</ele>
        <time>2021-11-25T13:10:44.000Z</time>
      </trkpt>
      <trkpt lat="47.90089" lon="-3.4423">
        <ele>96.6</ele>
        <time>2021-11-25T13:10:41.000Z</time>
      </trkpt>
      <trkpt lat="47.90089" lon="-3.4423">
        <ele>96.8</ele>
        <time>2021-11-25T13:10:38.000Z</time>
      </trkpt>
      <trkpt lat="47.90089" lon="-3.4423">
        <ele>96.6</ele>
        <time>2021-11-25T13:10:35.000Z</time>
      </trkpt>
      <trkpt lat="47.90089" lon="-3.4423">
        <ele>96.5</ele>
        <time>2021-11-25T13:10:32.000Z</time>
      </trkpt>
      <trkpt lat="47.90089" lon="-3.4423">
        <ele>96.5</ele>
        <time>2021-11-25T13:10:29.000Z</time>
      </trkpt>
      <trkpt lat="47.90089" lon="-3.44232">
        <ele>96.7</ele>
        <time>2021-11-25T13:10:26.000Z</time>
      </trkpt>
      <trkpt lat="47.90092" lon="-3.44238">
        <ele>97.3</ele>
        <time>2021-11-25T13:10:23.000Z</time>
      </trkpt>
      <trkpt lat="47.90097" lon="-3.44247">
        <ele>98.1</ele>
        <time>2021-11-25T13:10:20.000Z</time>
      </trkpt>
      <trkpt lat="47.90101" lon="-3.44257">
        <ele>97.9</ele>
        <time>2021-11-25T13:10:17.000Z</time>
      </trkpt>
      <trkpt lat="47.90104" lon="-3.44267">
        <ele>97.7</ele>
        <time>2021-11-25T13:10:14.000Z</time>
      </trkpt>
      <trkpt lat="47.90106" lon="-3.44279">
        <ele>96.9</ele>
        <time>2021-11-25T13:10:11.000Z</time>
      </trkpt>
      <trkpt lat="47.90109" lon="-3.44291">
        <ele>97</ele>
        <time>2021-11-25T13:10:08.000Z</time>
      </trkpt>
      <trkpt lat="47.90115" lon="-3.44302">
        <ele>96.5</ele>
        <time>2021-11-25T13:10:05.000Z</time>
      </trkpt>
      <trkpt lat="47.90123" lon="-3.44307">
        <ele>97.2</ele>
        <time>2021-11-25T13:10:02.000Z</time>
      </trkpt>
      <trkpt lat="47.90133" lon="-3.44305">
        <ele>97.2</ele>
        <time>2021-11-25T13:09:59.000Z</time>
      </trkpt>
      <trkpt lat="47.90142" lon="-3.44301">
        <ele>96.9</ele>
        <time>2021-11-25T13:09:56.000Z</time>
      </trkpt>
      <trkpt lat="47.90152" lon="-3.44299">
        <ele>96.7</ele>
        <time>2021-11-25T13:09:53.000Z</time>
      </trkpt>
      <trkpt lat="47.9016" lon="-3.44296">
        <ele>95.5</ele>
        <time>2021-11-25T13:09:50.000Z</time>
      </trkpt>
      <trkpt lat="47.90167" lon="-3.44292">
        <ele>95.2</ele>
        <time>2021-11-25T13:09:47.000Z</time>
      </trkpt>
      <trkpt lat="47.90174" lon="-3.44291">
        <ele>94.8</ele>
        <time>2021-11-25T13:09:44.000Z</time>
      </trkpt>
      <trkpt lat="47.90181" lon="-3.44292">
        <ele>94.7</ele>
        <time>2021-11-25T13:09:41.000Z</time>
      </trkpt>
      <trkpt lat="47.90187" lon="-3.44294">
        <ele>94</ele>
        <time>2021-11-25T13:09:38.000Z</time>
      </trkpt>
      <trkpt lat="47.90193" lon="-3.44296">
        <ele>93.4</ele>
        <time>2021-11-25T13:09:35.000Z</time>
      </trkpt>
      <trkpt lat="47.90198" lon="-3.44299">
        <ele>92.8</ele>
        <time>2021-11-25T13:09:32.000Z</time>
      </trkpt>
      <trkpt lat="47.90203" lon="-3.44302">
        <ele>92.1</ele>
        <time>2021-11-25T13:09:29.000Z</time>
      </trkpt>
      <trkpt lat="47.90209" lon="-3.44305">
        <ele>91.4</ele>
        <time>2021-11-25T13:09:26.000Z</time>
      </trkpt>
      <trkpt lat="47.90214" lon="-3.44309">
        <ele>90.9</ele>
        <time>2021-11-25T13:09:23.000Z</time>
      </trkpt>
      <trkpt lat="47.90219" lon="-3.44312">
        <ele>90</ele>
        <time>2021-11-25T13:09:20.000Z</time>
      </trkpt>
      <trkpt lat="47.90224" lon="-3.44315">
        <ele>89.1</ele>
        <time>2021-11-25T13:09:17.000Z</time>
      </trkpt>
      <trkpt lat="47.9023" lon="-3.44319">
        <ele>88.2</ele>
        <time>2021-11-25T13:09:14.000Z</time>
      </trkpt>
      <trkpt lat="47.90235" lon="-3.44323">
        <ele>87.2</ele>
        <time>2021-11-25T13:09:11.000Z</time>
      </trkpt>
      <trkpt lat="47.9024" lon="-3.44326">
        <ele>86.6</ele>
        <time>2021-11-25T13:09:08.000Z</time>
      </trkpt>
      <trkpt lat="47.90245" lon="-3.4433">
        <ele>85.8</ele>
        <time>2021-11-25T13:09:05.000Z</time>
      </trkpt>
      <trkpt lat="47.90249" lon="-3.44335">
        <ele>85.1</ele>
        <time>2021-11-25T13:09:02.000Z</time>
      </trkpt>
      <trkpt lat="47.90254" lon="-3.4434">
        <ele>84.1</ele>
        <time>2021-11-25T13:08:59.000Z</time>
      </trkpt>
      <trkpt lat="47.90259" lon="-3.44345">
        <ele>84.5</ele>
        <time>2021-11-25T13:08:56.000Z</time>
      </trkpt>
      <trkpt lat="47.90264" lon="-3.44349">
        <ele>83.6</ele>
        <time>2021-11-25T13:08:53.000Z</time>
      </trkpt>
      <trkpt lat="47.90269" lon="-3.44354">
        <ele>82.3</ele>
        <time>2021-11-25T13:08:50.000Z</time>
      </trkpt>
      <trkpt lat="47.90274" lon="-3.44359">
        <ele>81.1</ele>
        <time>2021-11-25T13:08:47.000Z</time>
      </trkpt>
      <trkpt lat="47.90279" lon="-3.44364">
        <ele>80.4</ele>
        <time>2021-11-25T13:08:44.000Z</time>
      </trkpt>
      <trkpt lat="47.90284" lon="-3.44369">
        <ele>79.9</ele>
        <time>2021-11-25T13:08:41.000Z</time>
      </trkpt>
      <trkpt lat="47.9029" lon="-3.44374">
        <ele>79</ele>
        <time>2021-11-25T13:08:38.000Z</time>
      </trkpt>
      <trkpt lat="47.90295" lon="-3.44379">
        <ele>78.6</ele>
        <time>2021-11-25T13:08:35.000Z</time>
      </trkpt>
      <trkpt lat="47.903" lon="-3.44384">
        <ele>77.8</ele>
        <time>2021-11-25T13:08:32.000Z</time>
      </trkpt>
      <trkpt lat="47.90305" lon="-3.44389">
        <ele>77.1</ele>
        <time>2021-11-25T13:08:29.000Z</time>
      </trkpt>
      <trkpt lat="47.90311" lon="-3.44394">
        <ele>76.2</ele>
        <time>2021-11-25T13:08:26.000Z</time>
      </trkpt>
      <trkpt lat="47.90317" lon="-3.444">
        <ele>75.7</ele>
        <time>2021-11-25T13:08:23.000Z</time>
      </trkpt>
      <trkpt lat="47.90322" lon="-3.44405">
        <ele>75.2</ele>
        <time>2021-11-25T13:08:20.000Z</time>
      </trkpt>
      <trkpt lat="47.90328" lon="-3.4441">
        <ele>74.4</ele>
        <time>2021-11-25T13:08:17.000Z</time>
      </trkpt>
      <trkpt lat="47.90334" lon="-3.44415">
        <ele>73.2</ele>
        <time>2021-11-25T13:08:14.000Z</time>
      </trkpt>
      <trkpt lat="47.9034" lon="-3.44421">
        <ele>72.6</ele>
        <time>2021-11-25T13:08:11.000Z</time>
      </trkpt>
      <trkpt lat="47.90346" lon="-3.44427">
        <ele>72.6</ele>
        <time>2021-11-25T13:08:08.000Z</time>
      </trkpt>
      <trkpt lat="47.90352" lon="-3.44433">
        <ele>71.9</ele>
        <time>2021-11-25T13:08:05.000Z</time>
      </trkpt>
      <trkpt lat="47.90358" lon="-3.4444">
        <ele>71.4</ele>
        <time>2021-11-25T13:08:02.000Z</time>
      </trkpt>
      <trkpt lat="47.90364" lon="-3.44446">
        <ele>70.7</ele>
        <time>2021-11-25T13:07:59.000Z</time>
      </trkpt>
      <trkpt lat="47.9037" lon="-3.44453">
        <ele>70.1</ele>
        <time>2021-11-25T13:07:56.000Z</time>
      </trkpt>
      <trkpt lat="47.90376" lon="-3.4446">
        <ele>70</ele>
        <time>2021-11-25T13:07:53.000Z</time>
      </trkpt>
      <trkpt lat="47.90382" lon="-3.44467">
        <ele>68.6</ele>
        <time>2021-11-25T13:07:50.000Z</time>
      </trkpt>
      <trkpt lat="47.90388" lon="-3.44474">
        <ele>67.9</ele>
        <time>2021-11-25T13:07:47.000Z</time>
      </trkpt>
      <trkpt lat="47.90394" lon="-3.44481">
        <ele>67.1</ele>
        <time>2021-11-25T13:07:44.000Z</time>
      </trkpt>
      <trkpt lat="47.90399" lon="-3.44488">
        <ele>66.8</ele>
        <time>2021-11-25T13:07:41.000Z</time>
      </trkpt>
      <trkpt lat="47.90405" lon="-3.44495">
        <ele>65.6</ele>
        <time>2021-11-25T13:07:38.000Z</time>
      </trkpt>
      <trkpt lat="47.9041" lon="-3.44502">
        <ele>65.4</ele>
        <time>2021-11-25T13:07:35.000Z</time>
      </trkpt>
      <trkpt lat="47.90415" lon="-3.4451">
        <ele>65</ele>
        <time>2021-11-25T13:07:32.000Z</time>
      </trkpt>
      <trkpt lat="47.9042" lon="-3.44518">
        <ele>63.9</ele>
        <time>2021-11-25T13:07:29.000Z</time>
      </trkpt>
      <trkpt lat="47.90424" lon="-3.44525">
        <ele>63.4</ele>
        <time>2021-11-25T13:07:26.000Z</time>
      </trkpt>
      <trkpt lat="47.90429" lon="-3.44532">
        <ele>62.3</ele>
        <time>2021-11-25T13:07:23.000Z</time>
      </trkpt>
      <trkpt lat="47.90435" lon="-3.44542">
        <ele>61.3</ele>
        <time>2021-11-25T13:07:20.000Z</time>
      </trkpt>
      <trkpt lat="47.90441" lon="-3.44552">
        <ele>61</ele>
        <time>2021-11-25T13:07:17.000Z</time>
      </trkpt>
      <trkpt lat="47.90448" lon="-3.44563">
        <ele>59.4</ele>
        <time>2021-11-25T13:07:14.000Z</time>
      </trkpt>
      <trkpt lat="47.90454" lon="-3.44575">
        <ele>58.4</ele>
        <time>2021-11-25T13:07:11.000Z</time>
      </trkpt>
      <trkpt lat="47.90463" lon="-3.44589">
        <ele>57.4</ele>
        <time>2021-11-25T13:07:08.000Z</time>
      </trkpt>
      <trkpt lat="47.90473" lon="-3.44606">
        <ele>56</ele>
        <time>2021-11-25T13:07:05.000Z</time>
      </trkpt>
      <trkpt lat="47.90484" lon="-3.44623">
        <ele>55.5</ele>
        <time>2021-11-25T13:07:02.000Z</time>
      </trkpt>
      <trkpt lat="47.90497" lon="-3.44638">
        <ele>54.5</ele>
        <time>2021-11-25T13:06:59.000Z</time>
      </trkpt>
      <trkpt lat="47.90511" lon="-3.44651">
        <ele>54.7</ele>
        <time>2021-11-25T13:06:56.000Z</time>
      </trkpt>
      <trkpt lat="47.90527" lon="-3.44662">
        <ele>53.7</ele>
        <time>2021-11-25T13:06:53.000Z</time>
      </trkpt>
      <trkpt lat="47.90545" lon="-3.44674">
        <ele>51.5</ele>
        <time>2021-11-25T13:06:50.000Z</time>
      </trkpt>
      <trkpt lat="47.90565" lon="-3.4469">
        <ele>48.3</ele>
        <time>2021-11-25T13:06:47.000Z</time>
      </trkpt>
      <trkpt lat="47.90591" lon="-3.44708">
        <ele>45.4</ele>
        <time>2021-11-25T13:06:44.000Z</time>
      </trkpt>
      <trkpt lat="47.90623" lon="-3.44733">
        <ele>43.5</ele>
        <time>2021-11-25T13:06:41.000Z</time>
      </trkpt>
      <trkpt lat="47.90656" lon="-3.4477">
        <ele>45</ele>
        <time>2021-11-25T13:06:38.000Z</time>
      </trkpt>
      <trkpt lat="47.90687" lon="-3.44811">
        <ele>49.5</ele>
        <time>2021-11-25T13:06:35.000Z</time>
      </trkpt>
      <trkpt lat="47.90715" lon="-3.44849">
        <ele>54.6</ele>
        <time>2021-11-25T13:06:32.000Z</time>
      </trkpt>
      <trkpt lat="47.90741" lon="-3.44883">
        <ele>60</ele>
        <time>2021-11-25T13:06:29.000Z</time>
      </trkpt>
      <trkpt lat="47.90764" lon="-3.44912">
        <ele>64.8</ele>
        <time>2021-11-25T13:06:26.000Z</time>
      </trkpt>
      <trkpt lat="47.90786" lon="-3.44934">
        <ele>68.3</ele>
        <time>2021-11-25T13:06:23.000Z</time>
      </trkpt>
      <trkpt lat="47.90805" lon="-3.44953">
        <ele>70.9</ele>
        <time>2021-11-25T13:06:20.000Z</time>
      </trkpt>
      <trkpt lat="47.90823" lon="-3.44967">
        <ele>71.5</ele>
        <time>2021-11-25T13:06:17.000Z</time>
      </trkpt>
      <trkpt lat="47.90843" lon="-3.44981">
        <ele>73</ele>
        <time>2021-11-25T13:06:14.000Z</time>
      </trkpt>
      <trkpt lat="47.90862" lon="-3.44995">
        <ele>72.6</ele>
        <time>2021-11-25T13:06:11.000Z</time>
      </trkpt>
      <trkpt lat="47.90881" lon="-3.45007">
        <ele>73.5</ele>
        <time>2021-11-25T13:06:08.000Z</time>
      </trkpt>
      <trkpt lat="47.90898" lon="-3.45016">
        <ele>73.1</ele>
        <time>2021-11-25T13:06:05.000Z</time>
      </trkpt>
      <trkpt lat="47.90916" lon="-3.45025">
        <ele>73.8</ele>
        <time>2021-11-25T13:06:02.000Z</time>
      </trkpt>
      <trkpt lat="47.90933" lon="-3.45031">
        <ele>73.5</ele>
        <time>2021-11-25T13:05:59.000Z</time>
      </trkpt>
      <trkpt lat="47.9095" lon="-3.45039">
        <ele>74.3</ele>
        <time>2021-11-25T13:05:56.000Z</time>
      </trkpt>
      <trkpt lat="47.90967" lon="-3.45046">
        <ele>74.7</ele>
        <time>2021-11-25T13:05:53.000Z</time>
      </trkpt>
      <trkpt lat="47.90984" lon="-3.45053">
        <ele>74.7</ele>
        <time>2021-11-25T13:05:50.000Z</time>
      </trkpt>
      <trkpt lat="47.91001" lon="-3.45059">
        <ele>74.3</ele>
        <time>2021-11-25T13:05:47.000Z</time>
      </trkpt>
      <trkpt lat="47.91018" lon="-3.45063">
        <ele>74.2</ele>
        <time>2021-11-25T13:05:44.000Z</time>
      </trkpt>
      <trkpt lat="47.91034" lon="-3.45066">
        <ele>74.5</ele>
        <time>2021-11-25T13:05:41.000Z</time>
      </trkpt>
      <trkpt lat="47.91051" lon="-3.45067">
        <ele>73.8</ele>
        <time>2021-11-25T13:05:38.000Z</time>
      </trkpt>
      <trkpt lat="47.91069" lon="-3.45067">
        <ele>73.4</ele>
        <time>2021-11-25T13:05:35.000Z</time>
      </trkpt>
      <trkpt lat="47.91087" lon="-3.45066">
        <ele>73</ele>
        <time>2021-11-25T13:05:32.000Z</time>
      </trkpt>
      <trkpt lat="47.91107" lon="-3.45065">
        <ele>71.6</ele>
        <time>2021-11-25T13:05:29.000Z</time>
      </trkpt>
      <trkpt lat="47.91128" lon="-3.45064">
        <ele>70.2</ele>
        <time>2021-11-25T13:05:26.000Z</time>
      </trkpt>
      <trkpt lat="47.91151" lon="-3.45062">
        <ele>72</ele>
        <time>2021-11-25T13:05:23.000Z</time>
      </trkpt>
      <trkpt lat="47.91173" lon="-3.45061">
        <ele>73</ele>
        <time>2021-11-25T13:05:20.000Z</time>
      </trkpt>
      <trkpt lat="47.91195" lon="-3.4506">
        <ele>74.1</ele>
        <time>2021-11-25T13:05:17.000Z</time>
      </trkpt>
      <trkpt lat="47.91215" lon="-3.4506">
        <ele>75</ele>
        <time>2021-11-25T13:05:14.000Z</time>
      </trkpt>
      <trkpt lat="47.91235" lon="-3.45058">
        <ele>76.1</ele>
        <time>2021-11-25T13:05:11.000Z</time>
      </trkpt>
      <trkpt lat="47.91255" lon="-3.45057">
        <ele>75.2</ele>
        <time>2021-11-25T13:05:08.000Z</time>
      </trkpt>
      <trkpt lat="47.91276" lon="-3.45056">
        <ele>74.7</ele>
        <time>2021-11-25T13:05:05.000Z</time>
      </trkpt>
      <trkpt lat="47.91299" lon="-3.45055">
        <ele>74.4</ele>
        <time>2021-11-25T13:05:02.000Z</time>
      </trkpt>
      <trkpt lat="47.91324" lon="-3.45054">
        <ele>74.8</ele>
        <time>2021-11-25T13:04:59.000Z</time>
      </trkpt>
      <trkpt lat="47.91348" lon="-3.45055">
        <ele>75</ele>
        <time>2021-11-25T13:04:56.000Z</time>
      </trkpt>
      <trkpt lat="47.91373" lon="-3.4506">
        <ele>75.3</ele>
        <time>2021-11-25T13:04:53.000Z</time>
      </trkpt>
      <trkpt lat="47.91398" lon="-3.45068">
        <ele>76</ele>
        <time>2021-11-25T13:04:50.000Z</time>
      </trkpt>
      <trkpt lat="47.91424" lon="-3.45076">
        <ele>77.4</ele>
        <time>2021-11-25T13:04:47.000Z</time>
      </trkpt>
      <trkpt lat="47.91448" lon="-3.45081">
        <ele>81.8</ele>
        <time>2021-11-25T13:04:44.000Z</time>
      </trkpt>
      <trkpt lat="47.91467" lon="-3.45079">
        <ele>84.1</ele>
        <time>2021-11-25T13:04:41.000Z</time>
      </trkpt>
      <trkpt lat="47.91483" lon="-3.45074">
        <ele>85.2</ele>
        <time>2021-11-25T13:04:38.000Z</time>
      </trkpt>
      <trkpt lat="47.91498" lon="-3.45069">
        <ele>85.6</ele>
        <time>2021-11-25T13:04:35.000Z</time>
      </trkpt>
      <trkpt lat="47.91511" lon="-3.45061">
        <ele>84.6</ele>
        <time>2021-11-25T13:04:32.000Z</time>
      </trkpt>
      <trkpt lat="47.91522" lon="-3.45047">
        <ele>82.6</ele>
        <time>2021-11-25T13:04:29.000Z</time>
      </trkpt>
      <trkpt lat="47.91532" lon="-3.45031">
        <ele>80.5</ele>
        <time>2021-11-25T13:04:26.000Z</time>
      </trkpt>
      <trkpt lat="47.91542" lon="-3.45009">
        <ele>81.1</ele>
        <time>2021-11-25T13:04:23.000Z</time>
      </trkpt>
      <trkpt lat="47.91548" lon="-3.44983">
        <ele>81.8</ele>
        <time>2021-11-25T13:04:20.000Z</time>
      </trkpt>
      <trkpt lat="47.91554" lon="-3.44956">
        <ele>82.2</ele>
        <time>2021-11-25T13:04:17.000Z</time>
      </trkpt>
      <trkpt lat="47.9156" lon="-3.44928">
        <ele>81.4</ele>
        <time>2021-11-25T13:04:14.000Z</time>
      </trkpt>
      <trkpt lat="47.91567" lon="-3.44902">
        <ele>82</ele>
        <time>2021-11-25T13:04:11.000Z</time>
      </trkpt>
      <trkpt lat="47.91572" lon="-3.44877">
        <ele>83.3</ele>
        <time>2021-11-25T13:04:08.000Z</time>
      </trkpt>
      <trkpt lat="47.91578" lon="-3.44853">
        <ele>84.5</ele>
        <time>2021-11-25T13:04:05.000Z</time>
      </trkpt>
      <trkpt lat="47.91583" lon="-3.4483">
        <ele>83.6</ele>
        <time>2021-11-25T13:04:02.000Z</time>
      </trkpt>
      <trkpt lat="47.91589" lon="-3.44807">
        <ele>84.7</ele>
        <time>2021-11-25T13:03:59.000Z</time>
      </trkpt>
      <trkpt lat="47.91595" lon="-3.44785">
        <ele>84.3</ele>
        <time>2021-11-25T13:03:56.000Z</time>
      </trkpt>
      <trkpt lat="47.916" lon="-3.44763">
        <ele>84</ele>
        <time>2021-11-25T13:03:53.000Z</time>
      </trkpt>
      <trkpt lat="47.91605" lon="-3.44741">
        <ele>85.2</ele>
        <time>2021-11-25T13:03:50.000Z</time>
      </trkpt>
      <trkpt lat="47.9161" lon="-3.4472">
        <ele>82.7</ele>
        <time>2021-11-25T13:03:47.000Z</time>
      </trkpt>
      <trkpt lat="47.91615" lon="-3.44699">
        <ele>84.6</ele>
        <time>2021-11-25T13:03:44.000Z</time>
      </trkpt>
      <trkpt lat="47.9162" lon="-3.44678">
        <ele>84.9</ele>
        <time>2021-11-25T13:03:41.000Z</time>
      </trkpt>
      <trkpt lat="47.91626" lon="-3.44656">
        <ele>86.1</ele>
        <time>2021-11-25T13:03:38.000Z</time>
      </trkpt>
      <trkpt lat="47.91632" lon="-3.44636">
        <ele>85.7</ele>
        <time>2021-11-25T13:03:35.000Z</time>
      </trkpt>
      <trkpt lat="47.91638" lon="-3.44617">
        <ele>83.4</ele>
        <time>2021-11-25T13:03:32.000Z</time>
      </trkpt>
      <trkpt lat="47.91645" lon="-3.44599">
        <ele>84</ele>
        <time>2021-11-25T13:03:29.000Z</time>
      </trkpt>
      <trkpt lat="47.91652" lon="-3.44582">
        <ele>83.9</ele>
        <time>2021-11-25T13:03:26.000Z</time>
      </trkpt>
      <trkpt lat="47.9166" lon="-3.44565">
        <ele>81.6</ele>
        <time>2021-11-25T13:03:23.000Z</time>
      </trkpt>
      <trkpt lat="47.91668" lon="-3.44549">
        <ele>83.1</ele>
        <time>2021-11-25T13:03:20.000Z</time>
      </trkpt>
      <trkpt lat="47.91676" lon="-3.44532">
        <ele>80.8</ele>
        <time>2021-11-25T13:03:17.000Z</time>
      </trkpt>
      <trkpt lat="47.91684" lon="-3.44515">
        <ele>82.1</ele>
        <time>2021-11-25T13:03:14.000Z</time>
      </trkpt>
      <trkpt lat="47.91691" lon="-3.44497">
        <ele>80.7</ele>
        <time>2021-11-25T13:03:11.000Z</time>
      </trkpt>
      <trkpt lat="47.91698" lon="-3.44478">
        <ele>79.5</ele>
        <time>2021-11-25T13:03:08.000Z</time>
      </trkpt>
      <trkpt lat="47.91705" lon="-3.44457">
        <ele>80.6</ele>
        <time>2021-11-25T13:03:05.000Z</time>
      </trkpt>
      <trkpt lat="47.91712" lon="-3.44434">
        <ele>79</ele>
        <time>2021-11-25T13:03:02.000Z</time>
      </trkpt>
      <trkpt lat="47.91717" lon="-3.44411">
        <ele>79.2</ele>
        <time>2021-11-25T13:02:59.000Z</time>
      </trkpt>
      <trkpt lat="47.91722" lon="-3.44386">
        <ele>79.1</ele>
        <time>2021-11-25T13:02:56.000Z</time>
      </trkpt>
      <trkpt lat="47.91726" lon="-3.4436">
        <ele>77.6</ele>
        <time>2021-11-25T13:02:53.000Z</time>
      </trkpt>
      <trkpt lat="47.91731" lon="-3.44334">
        <ele>76.4</ele>
        <time>2021-11-25T13:02:50.000Z</time>
      </trkpt>
      <trkpt lat="47.91736" lon="-3.44308">
        <ele>79.1</ele>
        <time>2021-11-25T13:02:47.000Z</time>
      </trkpt>
      <trkpt lat="47.9174" lon="-3.44282">
        <ele>76.5</ele>
        <time>2021-11-25T13:02:44.000Z</time>
      </trkpt>
      <trkpt lat="47.91745" lon="-3.44255">
        <ele>79.2</ele>
        <time>2021-11-25T13:02:41.000Z</time>
      </trkpt>
      <trkpt lat="47.91749" lon="-3.4423">
        <ele>78.9</ele>
        <time>2021-11-25T13:02:38.000Z</time>
      </trkpt>
      <trkpt lat="47.91753" lon="-3.44206">
        <ele>79.3</ele>
        <time>2021-11-25T13:02:35.000Z</time>
      </trkpt>
      <trkpt lat="47.91758" lon="-3.44182">
        <ele>79.4</ele>
        <time>2021-11-25T13:02:32.000Z</time>
      </trkpt>
      <trkpt lat="47.91763" lon="-3.4416">
        <ele>79.5</ele>
        <time>2021-11-25T13:02:29.000Z</time>
      </trkpt>
      <trkpt lat="47.91767" lon="-3.44137">
        <ele>80.6</ele>
        <time>2021-11-25T13:02:26.000Z</time>
      </trkpt>
      <trkpt lat="47.91772" lon="-3.44116">
        <ele>80.9</ele>
        <time>2021-11-25T13:02:23.000Z</time>
      </trkpt>
      <trkpt lat="47.91779" lon="-3.44094">
        <ele>80.3</ele>
        <time>2021-11-25T13:02:20.000Z</time>
      </trkpt>
      <trkpt lat="47.91786" lon="-3.44072">
        <ele>79</ele>
        <time>2021-11-25T13:02:17.000Z</time>
      </trkpt>
      <trkpt lat="47.91795" lon="-3.44048">
        <ele>77.9</ele>
        <time>2021-11-25T13:02:14.000Z</time>
      </trkpt>
      <trkpt lat="47.91806" lon="-3.44025">
        <ele>80</ele>
        <time>2021-11-25T13:02:11.000Z</time>
      </trkpt>
      <trkpt lat="47.91818" lon="-3.44002">
        <ele>78.3</ele>
        <time>2021-11-25T13:02:08.000Z</time>
      </trkpt>
      <trkpt lat="47.9183" lon="-3.4398">
        <ele>81.3</ele>
        <time>2021-11-25T13:02:05.000Z</time>
      </trkpt>
      <trkpt lat="47.91842" lon="-3.43957">
        <ele>81.3</ele>
        <time>2021-11-25T13:02:02.000Z</time>
      </trkpt>
      <trkpt lat="47.91855" lon="-3.43932">
        <ele>81.9</ele>
        <time>2021-11-25T13:01:59.000Z</time>
      </trkpt>
      <trkpt lat="47.9187" lon="-3.43905">
        <ele>80</ele>
        <time>2021-11-25T13:01:56.000Z</time>
      </trkpt>
      <trkpt lat="47.91884" lon="-3.43872">
        <ele>79.2</ele>
        <time>2021-11-25T13:01:53.000Z</time>
      </trkpt>
      <trkpt lat="47.91896" lon="-3.43838">
        <ele>81.6</ele>
        <time>2021-11-25T13:01:50.000Z</time>
      </trkpt>
      <trkpt lat="47.91905" lon="-3.43805">
        <ele>83.6</ele>
        <time>2021-11-25T13:01:47.000Z</time>
      </trkpt>
      <trkpt lat="47.91911" lon="-3.43779">
        <ele>85.4</ele>
        <time>2021-11-25T13:01:44.000Z</time>
      </trkpt>
      <trkpt lat="47.91917" lon="-3.43756">
        <ele>87</ele>
        <time>2021-11-25T13:01:41.000Z</time>
      </trkpt>
      <trkpt lat="47.91922" lon="-3.43738">
        <ele>88</ele>
        <time>2021-11-25T13:01:38.000Z</time>
      </trkpt>
      <trkpt lat="47.91925" lon="-3.43721">
        <ele>86.2</ele>
        <time>2021-11-25T13:01:35.000Z</time>
      </trkpt>
      <trkpt lat="47.9193" lon="-3.43705">
        <ele>86.1</ele>
        <time>2021-11-25T13:01:32.000Z</time>
      </trkpt>
      <trkpt lat="47.91934" lon="-3.43688">
        <ele>85.9</ele>
        <time>2021-11-25T13:01:29.000Z</time>
      </trkpt>
      <trkpt lat="47.91939" lon="-3.4367">
        <ele>85.3</ele>
        <time>2021-11-25T13:01:26.000Z</time>
      </trkpt>
      <trkpt lat="47.91944" lon="-3.43649">
        <ele>84.8</ele>
        <time>2021-11-25T13:01:23.000Z</time>
      </trkpt>
      <trkpt lat="47.91948" lon="-3.43627">
        <ele>84.3</ele>
        <time>2021-11-25T13:01:20.000Z</time>
      </trkpt>
      <trkpt lat="47.91952" lon="-3.43603">
        <ele>83.6</ele>
        <time>2021-11-25T13:01:17.000Z</time>
      </trkpt>
      <trkpt lat="47.91954" lon="-3.43576">
        <ele>82</ele>
        <time>2021-11-25T13:01:14.000Z</time>
      </trkpt>
      <trkpt lat="47.91954" lon="-3.43549">
        <ele>82.2</ele>
        <time>2021-11-25T13:01:11.000Z</time>
      </trkpt>
      <trkpt lat="47.91953" lon="-3.43523">
        <ele>83.3</ele>
        <time>2021-11-25T13:01:08.000Z</time>
      </trkpt>
      <trkpt lat="47.9195" lon="-3.435">
        <ele>84.7</ele>
        <time>2021-11-25T13:01:05.000Z</time>
      </trkpt>
      <trkpt lat="47.91948" lon="-3.43478">
        <ele>85.5</ele>
        <time>2021-11-25T13:01:02.000Z</time>
      </trkpt>
      <trkpt lat="47.91945" lon="-3.4346">
        <ele>83.3</ele>
        <time>2021-11-25T13:00:59.000Z</time>
      </trkpt>
      <trkpt lat="47.91942" lon="-3.43445">
        <ele>84.1</ele>
        <time>2021-11-25T13:00:56.000Z</time>
      </trkpt>
      <trkpt lat="47.9194" lon="-3.43438">
        <ele>84.6</ele>
        <time>2021-11-25T13:00:53.000Z</time>
      </trkpt>
      <trkpt lat="47.9194" lon="-3.43437">
        <ele>84.7</ele>
        <time>2021-11-25T13:00:51.000Z</time>
      </trkpt>
      <trkpt lat="47.9194" lon="-3.43438">
        <ele>84.7</ele>
        <time>2021-11-25T13:00:50.000Z</time>
      </trkpt>
      <trkpt lat="47.91939" lon="-3.43432">
        <ele>85.1</ele>
        <time>2021-11-25T13:00:47.000Z</time>
      </trkpt>
      <trkpt lat="47.91939" lon="-3.43421">
        <ele>85.3</ele>
        <time>2021-11-25T13:00:44.000Z</time>
      </trkpt>
      <trkpt lat="47.91939" lon="-3.43406">
        <ele>85.3</ele>
        <time>2021-11-25T13:00:41.000Z</time>
      </trkpt>
      <trkpt lat="47.91939" lon="-3.43384">
        <ele>87.2</ele>
        <time>2021-11-25T13:00:38.000Z</time>
      </trkpt>
      <trkpt lat="47.9194" lon="-3.43361">
        <ele>85.9</ele>
        <time>2021-11-25T13:00:35.000Z</time>
      </trkpt>
      <trkpt lat="47.91939" lon="-3.43338">
        <ele>86.8</ele>
        <time>2021-11-25T13:00:32.000Z</time>
      </trkpt>
      <trkpt lat="47.9194" lon="-3.43317">
        <ele>87.8</ele>
        <time>2021-11-25T13:00:29.000Z</time>
      </trkpt>
      <trkpt lat="47.9194" lon="-3.43297">
        <ele>87.8</ele>
        <time>2021-11-25T13:00:26.000Z</time>
      </trkpt>
      <trkpt lat="47.9194" lon="-3.43277">
        <ele>87.1</ele>
        <time>2021-11-25T13:00:23.000Z</time>
      </trkpt>
      <trkpt lat="47.91941" lon="-3.43258">
        <ele>87</ele>
        <time>2021-11-25T13:00:20.000Z</time>
      </trkpt>
      <trkpt lat="47.91941" lon="-3.43239">
        <ele>87.4</ele>
        <time>2021-11-25T13:00:17.000Z</time>
      </trkpt>
      <trkpt lat="47.91941" lon="-3.4322">
        <ele>87.3</ele>
        <time>2021-11-25T13:00:14.000Z</time>
      </trkpt>
      <trkpt lat="47.91941" lon="-3.43201">
        <ele>87.6</ele>
        <time>2021-11-25T13:00:11.000Z</time>
      </trkpt>
      <trkpt lat="47.91941" lon="-3.43184">
        <ele>87.1</ele>
        <time>2021-11-25T13:00:08.000Z</time>
      </trkpt>
      <trkpt lat="47.91941" lon="-3.43167">
        <ele>87</ele>
        <time>2021-11-25T13:00:05.000Z</time>
      </trkpt>
      <trkpt lat="47.91942" lon="-3.43149">
        <ele>86.2</ele>
        <time>2021-11-25T13:00:02.000Z</time>
      </trkpt>
      <trkpt lat="47.91942" lon="-3.43131">
        <ele>85.1</ele>
        <time>2021-11-25T12:59:59.000Z</time>
      </trkpt>
      <trkpt lat="47.91943" lon="-3.43113">
        <ele>84.6</ele>
        <time>2021-11-25T12:59:56.000Z</time>
      </trkpt>
      <trkpt lat="47.91944" lon="-3.43094">
        <ele>84.9</ele>
        <time>2021-11-25T12:59:53.000Z</time>
      </trkpt>
      <trkpt lat="47.91946" lon="-3.43072">
        <ele>81.4</ele>
        <time>2021-11-25T12:59:50.000Z</time>
      </trkpt>
      <trkpt lat="47.91947" lon="-3.43052">
        <ele>83.6</ele>
        <time>2021-11-25T12:59:47.000Z</time>
      </trkpt>
      <trkpt lat="47.91949" lon="-3.43032">
        <ele>83</ele>
        <time>2021-11-25T12:59:44.000Z</time>
      </trkpt>
      <trkpt lat="47.9195" lon="-3.43012">
        <ele>81.2</ele>
        <time>2021-11-25T12:59:41.000Z</time>
      </trkpt>
      <trkpt lat="47.91952" lon="-3.42993">
        <ele>81.8</ele>
        <time>2021-11-25T12:59:38.000Z</time>
      </trkpt>
      <trkpt lat="47.91953" lon="-3.42973">
        <ele>81.3</ele>
        <time>2021-11-25T12:59:35.000Z</time>
      </trkpt>
      <trkpt lat="47.91953" lon="-3.4295">
        <ele>79.1</ele>
        <time>2021-11-25T12:59:32.000Z</time>
      </trkpt>
      <trkpt lat="47.91953" lon="-3.42927">
        <ele>78.9</ele>
        <time>2021-11-25T12:59:29.000Z</time>
      </trkpt>
      <trkpt lat="47.91953" lon="-3.42904">
        <ele>79.5</ele>
        <time>2021-11-25T12:59:26.000Z</time>
      </trkpt>
      <trkpt lat="47.91952" lon="-3.42882">
        <ele>78.4</ele>
        <time>2021-11-25T12:59:23.000Z</time>
      </trkpt>
      <trkpt lat="47.9195" lon="-3.42858">
        <ele>78.1</ele>
        <time>2021-11-25T12:59:20.000Z</time>
      </trkpt>
      <trkpt lat="47.91951" lon="-3.42833">
        <ele>78.8</ele>
        <time>2021-11-25T12:59:17.000Z</time>
      </trkpt>
      <trkpt lat="47.91963" lon="-3.42816">
        <ele>80.8</ele>
        <time>2021-11-25T12:59:14.000Z</time>
      </trkpt>
      <trkpt lat="47.91983" lon="-3.42811">
        <ele>76.8</ele>
        <time>2021-11-25T12:59:11.000Z</time>
      </trkpt>
      <trkpt lat="47.92003" lon="-3.42799">
        <ele>80.6</ele>
        <time>2021-11-25T12:59:08.000Z</time>
      </trkpt>
      <trkpt lat="47.92013" lon="-3.42772">
        <ele>77</ele>
        <time>2021-11-25T12:59:05.000Z</time>
      </trkpt>
      <trkpt lat="47.92019" lon="-3.42743">
        <ele>79.6</ele>
        <time>2021-11-25T12:59:02.000Z</time>
      </trkpt>
      <trkpt lat="47.92026" lon="-3.42714">
        <ele>81</ele>
        <time>2021-11-25T12:58:59.000Z</time>
      </trkpt>
      <trkpt lat="47.92028" lon="-3.42685">
        <ele>78.7</ele>
        <time>2021-11-25T12:58:56.000Z</time>
      </trkpt>
      <trkpt lat="47.92023" lon="-3.42654">
        <ele>80.2</ele>
        <time>2021-11-25T12:58:53.000Z</time>
      </trkpt>
      <trkpt lat="47.92016" lon="-3.42628">
        <ele>81.5</ele>
        <time>2021-11-25T12:58:50.000Z</time>
      </trkpt>
      <trkpt lat="47.92007" lon="-3.42603">
        <ele>84.6</ele>
        <time>2021-11-25T12:58:47.000Z</time>
      </trkpt>
      <trkpt lat="47.91998" lon="-3.42585">
        <ele>85.2</ele>
        <time>2021-11-25T12:58:44.000Z</time>
      </trkpt>
      <trkpt lat="47.91988" lon="-3.42568">
        <ele>84.2</ele>
        <time>2021-11-25T12:58:41.000Z</time>
      </trkpt>
      <trkpt lat="47.91978" lon="-3.42552">
        <ele>85.8</ele>
        <time>2021-11-25T12:58:38.000Z</time>
      </trkpt>
      <trkpt lat="47.91969" lon="-3.42539">
        <ele>86</ele>
        <time>2021-11-25T12:58:35.000Z</time>
      </trkpt>
      <trkpt lat="47.9196" lon="-3.42524">
        <ele>84.4</ele>
        <time>2021-11-25T12:58:32.000Z</time>
      </trkpt>
      <trkpt lat="47.9195" lon="-3.42511">
        <ele>84</ele>
        <time>2021-11-25T12:58:29.000Z</time>
      </trkpt>
      <trkpt lat="47.91942" lon="-3.42499">
        <ele>83.8</ele>
        <time>2021-11-25T12:58:26.000Z</time>
      </trkpt>
      <trkpt lat="47.91931" lon="-3.42486">
        <ele>83.6</ele>
        <time>2021-11-25T12:58:23.000Z</time>
      </trkpt>
      <trkpt lat="47.9192" lon="-3.42474">
        <ele>82.5</ele>
        <time>2021-11-25T12:58:20.000Z</time>
      </trkpt>
      <trkpt lat="47.91913" lon="-3.4246">
        <ele>83.7</ele>
        <time>2021-11-25T12:58:17.000Z</time>
      </trkpt>
      <trkpt lat="47.91907" lon="-3.42445">
        <ele>84.4</ele>
        <time>2021-11-25T12:58:14.000Z</time>
      </trkpt>
      <trkpt lat="47.91904" lon="-3.42429">
        <ele>84.4</ele>
        <time>2021-11-25T12:58:11.000Z</time>
      </trkpt>
      <trkpt lat="47.91902" lon="-3.42412">
        <ele>86.5</ele>
        <time>2021-11-25T12:58:08.000Z</time>
      </trkpt>
      <trkpt lat="47.91902" lon="-3.42398">
        <ele>85.1</ele>
        <time>2021-11-25T12:58:05.000Z</time>
      </trkpt>
      <trkpt lat="47.91901" lon="-3.42389">
        <ele>84.1</ele>
        <time>2021-11-25T12:58:02.000Z</time>
      </trkpt>
      <trkpt lat="47.919" lon="-3.42377">
        <ele>83.8</ele>
        <time>2021-11-25T12:57:59.000Z</time>
      </trkpt>
      <trkpt lat="47.91901" lon="-3.42363">
        <ele>85.4</ele>
        <time>2021-11-25T12:57:56.000Z</time>
      </trkpt>
      <trkpt lat="47.91902" lon="-3.42353">
        <ele>83.8</ele>
        <time>2021-11-25T12:57:53.000Z</time>
      </trkpt>
      <trkpt lat="47.91902" lon="-3.42342">
        <ele>83.4</ele>
        <time>2021-11-25T12:57:50.000Z</time>
      </trkpt>
      <trkpt lat="47.91903" lon="-3.42333">
        <ele>83.4</ele>
        <time>2021-11-25T12:57:47.000Z</time>
      </trkpt>
      <trkpt lat="47.91904" lon="-3.42322">
        <ele>83.9</ele>
        <time>2021-11-25T12:57:44.000Z</time>
      </trkpt>
      <trkpt lat="47.91905" lon="-3.42311">
        <ele>81.8</ele>
        <time>2021-11-25T12:57:41.000Z</time>
      </trkpt>
      <trkpt lat="47.91905" lon="-3.42301">
        <ele>81.3</ele>
        <time>2021-11-25T12:57:38.000Z</time>
      </trkpt>
      <trkpt lat="47.91907" lon="-3.42292">
        <ele>80.7</ele>
        <time>2021-11-25T12:57:35.000Z</time>
      </trkpt>
      <trkpt lat="47.91908" lon="-3.42283">
        <ele>81.2</ele>
        <time>2021-11-25T12:57:32.000Z</time>
      </trkpt>
      <trkpt lat="47.9191" lon="-3.42276">
        <ele>81.2</ele>
        <time>2021-11-25T12:57:29.000Z</time>
      </trkpt>
      <trkpt lat="47.91912" lon="-3.42268">
        <ele>77.9</ele>
        <time>2021-11-25T12:57:26.000Z</time>
      </trkpt>
      <trkpt lat="47.91913" lon="-3.42258">
        <ele>77.9</ele>
        <time>2021-11-25T12:57:23.000Z</time>
      </trkpt>
      <trkpt lat="47.91915" lon="-3.42246">
        <ele>77.2</ele>
        <time>2021-11-25T12:57:20.000Z</time>
      </trkpt>
      <trkpt lat="47.91917" lon="-3.42237">
        <ele>76.2</ele>
        <time>2021-11-25T12:57:17.000Z</time>
      </trkpt>
      <trkpt lat="47.91915" lon="-3.42231">
        <ele>75.5</ele>
        <time>2021-11-25T12:57:14.000Z</time>
      </trkpt>
      <trkpt lat="47.91911" lon="-3.42225">
        <ele>75.1</ele>
        <time>2021-11-25T12:57:11.000Z</time>
      </trkpt>
      <trkpt lat="47.9191" lon="-3.42214">
        <ele>72.8</ele>
        <time>2021-11-25T12:57:08.000Z</time>
      </trkpt>
      <trkpt lat="47.91914" lon="-3.42198">
        <ele>73</ele>
        <time>2021-11-25T12:57:05.000Z</time>
      </trkpt>
      <trkpt lat="47.91919" lon="-3.42183">
        <ele>73.2</ele>
        <time>2021-11-25T12:57:02.000Z</time>
      </trkpt>
      <trkpt lat="47.91922" lon="-3.42172">
        <ele>71.1</ele>
        <time>2021-11-25T12:56:59.000Z</time>
      </trkpt>
      <trkpt lat="47.91928" lon="-3.42152">
        <ele>72.1</ele>
        <time>2021-11-25T12:56:56.000Z</time>
      </trkpt>
      <trkpt lat="47.91937" lon="-3.42129">
        <ele>72.3</ele>
        <time>2021-11-25T12:56:53.000Z</time>
      </trkpt>
      <trkpt lat="47.91941" lon="-3.42115">
        <ele>72.9</ele>
        <time>2021-11-25T12:56:50.000Z</time>
      </trkpt>
      <trkpt lat="47.91939" lon="-3.421">
        <ele>73.9</ele>
        <time>2021-11-25T12:56:47.000Z</time>
      </trkpt>
      <trkpt lat="47.91938" lon="-3.42083">
        <ele>73.2</ele>
        <time>2021-11-25T12:56:44.000Z</time>
      </trkpt>
      <trkpt lat="47.91939" lon="-3.42073">
        <ele>74.6</ele>
        <time>2021-11-25T12:56:41.000Z</time>
      </trkpt>
      <trkpt lat="47.91939" lon="-3.42061">
        <ele>75.1</ele>
        <time>2021-11-25T12:56:38.000Z</time>
      </trkpt>
      <trkpt lat="47.9194" lon="-3.42049">
        <ele>74.1</ele>
        <time>2021-11-25T12:56:35.000Z</time>
      </trkpt>
      <trkpt lat="47.91941" lon="-3.42034">
        <ele>74.9</ele>
        <time>2021-11-25T12:56:32.000Z</time>
      </trkpt>
      <trkpt lat="47.91941" lon="-3.42017">
        <ele>76.3</ele>
        <time>2021-11-25T12:56:29.000Z</time>
      </trkpt>
      <trkpt lat="47.91941" lon="-3.42">
        <ele>75.4</ele>
        <time>2021-11-25T12:56:26.000Z</time>
      </trkpt>
      <trkpt lat="47.91943" lon="-3.41981">
        <ele>74.5</ele>
        <time>2021-11-25T12:56:23.000Z</time>
      </trkpt>
      <trkpt lat="47.91944" lon="-3.41958">
        <ele>75.4</ele>
        <time>2021-11-25T12:56:20.000Z</time>
      </trkpt>
      <trkpt lat="47.91945" lon="-3.41936">
        <ele>78.2</ele>
        <time>2021-11-25T12:56:17.000Z</time>
      </trkpt>
      <trkpt lat="47.91945" lon="-3.41918">
        <ele>76.6</ele>
        <time>2021-11-25T12:56:14.000Z</time>
      </trkpt>
      <trkpt lat="47.91944" lon="-3.41901">
        <ele>74.8</ele>
        <time>2021-11-25T12:56:11.000Z</time>
      </trkpt>
      <trkpt lat="47.91943" lon="-3.41885">
        <ele>77.1</ele>
        <time>2021-11-25T12:56:08.000Z</time>
      </trkpt>
      <trkpt lat="47.91943" lon="-3.41871">
        <ele>77.7</ele>
        <time>2021-11-25T12:56:05.000Z</time>
      </trkpt>
      <trkpt lat="47.91942" lon="-3.41857">
        <ele>76.7</ele>
        <time>2021-11-25T12:56:02.000Z</time>
      </trkpt>
      <trkpt lat="47.91943" lon="-3.41845">
        <ele>76.4</ele>
        <time>2021-11-25T12:55:59.000Z</time>
      </trkpt>
      <trkpt lat="47.91945" lon="-3.41831">
        <ele>75.2</ele>
        <time>2021-11-25T12:55:56.000Z</time>
      </trkpt>
      <trkpt lat="47.91944" lon="-3.41819">
        <ele>77</ele>
        <time>2021-11-25T12:55:53.000Z</time>
      </trkpt>
      <trkpt lat="47.91943" lon="-3.41804">
        <ele>77.2</ele>
        <time>2021-11-25T12:55:50.000Z</time>
      </trkpt>
      <trkpt lat="47.91944" lon="-3.41788">
        <ele>76</ele>
        <time>2021-11-25T12:55:47.000Z</time>
      </trkpt>
      <trkpt lat="47.91944" lon="-3.41778">
        <ele>75.1</ele>
        <time>2021-11-25T12:55:44.000Z</time>
      </trkpt>
      <trkpt lat="47.91944" lon="-3.41769">
        <ele>74.7</ele>
        <time>2021-11-25T12:55:41.000Z</time>
      </trkpt>
      <trkpt lat="47.91944" lon="-3.41758">
        <ele>73.8</ele>
        <time>2021-11-25T12:55:38.000Z</time>
      </trkpt>
      <trkpt lat="47.91947" lon="-3.41742">
        <ele>74.7</ele>
        <time>2021-11-25T12:55:35.000Z</time>
      </trkpt>
      <trkpt lat="47.91949" lon="-3.41725">
        <ele>74.7</ele>
        <time>2021-11-25T12:55:32.000Z</time>
      </trkpt>
      <trkpt lat="47.91949" lon="-3.41708">
        <ele>74.8</ele>
        <time>2021-11-25T12:55:29.000Z</time>
      </trkpt>
      <trkpt lat="47.9195" lon="-3.41694">
        <ele>75.5</ele>
        <time>2021-11-25T12:55:26.000Z</time>
      </trkpt>
      <trkpt lat="47.91952" lon="-3.41682">
        <ele>77.9</ele>
        <time>2021-11-25T12:55:23.000Z</time>
      </trkpt>
      <trkpt lat="47.91953" lon="-3.41674">
        <ele>77.3</ele>
        <time>2021-11-25T12:55:20.000Z</time>
      </trkpt>
      <trkpt lat="47.91955" lon="-3.41666">
        <ele>77</ele>
        <time>2021-11-25T12:55:17.000Z</time>
      </trkpt>
      <trkpt lat="47.91956" lon="-3.41656">
        <ele>76.9</ele>
        <time>2021-11-25T12:55:14.000Z</time>
      </trkpt>
      <trkpt lat="47.91957" lon="-3.41649">
        <ele>75.8</ele>
        <time>2021-11-25T12:55:11.000Z</time>
      </trkpt>
      <trkpt lat="47.91959" lon="-3.41641">
        <ele>76.1</ele>
        <time>2021-11-25T12:55:08.000Z</time>
      </trkpt>
      <trkpt lat="47.91959" lon="-3.41634">
        <ele>75.4</ele>
        <time>2021-11-25T12:55:05.000Z</time>
      </trkpt>
      <trkpt lat="47.9196" lon="-3.41628">
        <ele>75.1</ele>
        <time>2021-11-25T12:55:02.000Z</time>
      </trkpt>
      <trkpt lat="47.9196" lon="-3.41622">
        <ele>74.7</ele>
        <time>2021-11-25T12:54:59.000Z</time>
      </trkpt>
      <trkpt lat="47.9196" lon="-3.41616">
        <ele>74.3</ele>
        <time>2021-11-25T12:54:56.000Z</time>
      </trkpt>
      <trkpt lat="47.9196" lon="-3.41609">
        <ele>73.3</ele>
        <time>2021-11-25T12:54:53.000Z</time>
      </trkpt>
      <trkpt lat="47.9196" lon="-3.41602">
        <ele>72.1</ele>
        <time>2021-11-25T12:54:50.000Z</time>
      </trkpt>
      <trkpt lat="47.9196" lon="-3.41596">
        <ele>71.8</ele>
        <time>2021-11-25T12:54:47.000Z</time>
      </trkpt>
      <trkpt lat="47.91961" lon="-3.4159">
        <ele>70.6</ele>
        <time>2021-11-25T12:54:44.000Z</time>
      </trkpt>
      <trkpt lat="47.91963" lon="-3.41584">
        <ele>70.7</ele>
        <time>2021-11-25T12:54:41.000Z</time>
      </trkpt>
      <trkpt lat="47.91966" lon="-3.41577">
        <ele>69.7</ele>
        <time>2021-11-25T12:54:38.000Z</time>
      </trkpt>
      <trkpt lat="47.91969" lon="-3.4157">
        <ele>69</ele>
        <time>2021-11-25T12:54:35.000Z</time>
      </trkpt>
      <trkpt lat="47.91971" lon="-3.41562">
        <ele>68.9</ele>
        <time>2021-11-25T12:54:32.000Z</time>
      </trkpt>
      <trkpt lat="47.91971" lon="-3.41556">
        <ele>68.3</ele>
        <time>2021-11-25T12:54:29.000Z</time>
      </trkpt>
      <trkpt lat="47.91975" lon="-3.4155">
        <ele>68</ele>
        <time>2021-11-25T12:54:26.000Z</time>
      </trkpt>
      <trkpt lat="47.9198" lon="-3.41546">
        <ele>68.3</ele>
        <time>2021-11-25T12:54:23.000Z</time>
      </trkpt>
      <trkpt lat="47.91984" lon="-3.41542">
        <ele>67.7</ele>
        <time>2021-11-25T12:54:20.000Z</time>
      </trkpt>
      <trkpt lat="47.91988" lon="-3.41536">
        <ele>66.5</ele>
        <time>2021-11-25T12:54:17.000Z</time>
      </trkpt>
      <trkpt lat="47.91992" lon="-3.41531">
        <ele>66.2</ele>
        <time>2021-11-25T12:54:14.000Z</time>
      </trkpt>
      <trkpt lat="47.91995" lon="-3.41526">
        <ele>65.2</ele>
        <time>2021-11-25T12:54:11.000Z</time>
      </trkpt>
      <trkpt lat="47.91998" lon="-3.41522">
        <ele>65.2</ele>
        <time>2021-11-25T12:54:08.000Z</time>
      </trkpt>
      <trkpt lat="47.92001" lon="-3.41517">
        <ele>64</ele>
        <time>2021-11-25T12:54:05.000Z</time>
      </trkpt>
      <trkpt lat="47.92005" lon="-3.41514">
        <ele>63.8</ele>
        <time>2021-11-25T12:54:02.000Z</time>
      </trkpt>
      <trkpt lat="47.92008" lon="-3.41511">
        <ele>63</ele>
        <time>2021-11-25T12:53:59.000Z</time>
      </trkpt>
      <trkpt lat="47.92011" lon="-3.41506">
        <ele>62.9</ele>
        <time>2021-11-25T12:53:56.000Z</time>
      </trkpt>
      <trkpt lat="47.92014" lon="-3.41502">
        <ele>62.7</ele>
        <time>2021-11-25T12:53:53.000Z</time>
      </trkpt>
      <trkpt lat="47.92017" lon="-3.41497">
        <ele>61.7</ele>
        <time>2021-11-25T12:53:50.000Z</time>
      </trkpt>
      <trkpt lat="47.9202" lon="-3.41493">
        <ele>60.8</ele>
        <time>2021-11-25T12:53:47.000Z</time>
      </trkpt>
      <trkpt lat="47.92023" lon="-3.41487">
        <ele>60.2</ele>
        <time>2021-11-25T12:53:44.000Z</time>
      </trkpt>
      <trkpt lat="47.92025" lon="-3.41482">
        <ele>60</ele>
        <time>2021-11-25T12:53:41.000Z</time>
      </trkpt>
      <trkpt lat="47.92028" lon="-3.41477">
        <ele>59.1</ele>
        <time>2021-11-25T12:53:38.000Z</time>
      </trkpt>
      <trkpt lat="47.92031" lon="-3.41472">
        <ele>58.2</ele>
        <time>2021-11-25T12:53:35.000Z</time>
      </trkpt>
      <trkpt lat="47.92033" lon="-3.41468">
        <ele>57.8</ele>
        <time>2021-11-25T12:53:32.000Z</time>
      </trkpt>
      <trkpt lat="47.92035" lon="-3.41464">
        <ele>56.7</ele>
        <time>2021-11-25T12:53:29.000Z</time>
      </trkpt>
      <trkpt lat="47.92038" lon="-3.41459">
        <ele>56.6</ele>
        <time>2021-11-25T12:53:26.000Z</time>
      </trkpt>
      <trkpt lat="47.92041" lon="-3.41454">
        <ele>56.1</ele>
        <time>2021-11-25T12:53:23.000Z</time>
      </trkpt>
      <trkpt lat="47.92044" lon="-3.41449">
        <ele>55.3</ele>
        <time>2021-11-25T12:53:20.000Z</time>
      </trkpt>
      <trkpt lat="47.92047" lon="-3.41445">
        <ele>54.4</ele>
        <time>2021-11-25T12:53:17.000Z</time>
      </trkpt>
      <trkpt lat="47.9205" lon="-3.4144">
        <ele>54</ele>
        <time>2021-11-25T12:53:14.000Z</time>
      </trkpt>
      <trkpt lat="47.92052" lon="-3.41436">
        <ele>52.9</ele>
        <time>2021-11-25T12:53:11.000Z</time>
      </trkpt>
      <trkpt lat="47.92055" lon="-3.41432">
        <ele>52.7</ele>
        <time>2021-11-25T12:53:08.000Z</time>
      </trkpt>
      <trkpt lat="47.92059" lon="-3.41427">
        <ele>51.9</ele>
        <time>2021-11-25T12:53:05.000Z</time>
      </trkpt>
      <trkpt lat="47.92062" lon="-3.41422">
        <ele>51.8</ele>
        <time>2021-11-25T12:53:02.000Z</time>
      </trkpt>
      <trkpt lat="47.92065" lon="-3.41418">
        <ele>50.9</ele>
        <time>2021-11-25T12:52:59.000Z</time>
      </trkpt>
      <trkpt lat="47.92068" lon="-3.41415">
        <ele>50.4</ele>
        <time>2021-11-25T12:52:56.000Z</time>
      </trkpt>
      <trkpt lat="47.92071" lon="-3.41412">
        <ele>48.9</ele>
        <time>2021-11-25T12:52:53.000Z</time>
      </trkpt>
      <trkpt lat="47.92075" lon="-3.41408">
        <ele>47.8</ele>
        <time>2021-11-25T12:52:50.000Z</time>
      </trkpt>
      <trkpt lat="47.92079" lon="-3.41404">
        <ele>47.8</ele>
        <time>2021-11-25T12:52:47.000Z</time>
      </trkpt>
      <trkpt lat="47.92082" lon="-3.414">
        <ele>47.2</ele>
        <time>2021-11-25T12:52:44.000Z</time>
      </trkpt>
      <trkpt lat="47.92086" lon="-3.41397">
        <ele>47.1</ele>
        <time>2021-11-25T12:52:41.000Z</time>
      </trkpt>
      <trkpt lat="47.92091" lon="-3.41393">
        <ele>44.8</ele>
        <time>2021-11-25T12:52:38.000Z</time>
      </trkpt>
      <trkpt lat="47.92095" lon="-3.4139">
        <ele>43.1</ele>
        <time>2021-11-25T12:52:35.000Z</time>
      </trkpt>
      <trkpt lat="47.92099" lon="-3.41388">
        <ele>44.4</ele>
        <time>2021-11-25T12:52:32.000Z</time>
      </trkpt>
      <trkpt lat="47.92104" lon="-3.41387">
        <ele>43.2</ele>
        <time>2021-11-25T12:52:29.000Z</time>
      </trkpt>
      <trkpt lat="47.92109" lon="-3.41387">
        <ele>42.9</ele>
        <time>2021-11-25T12:52:26.000Z</time>
      </trkpt>
      <trkpt lat="47.92115" lon="-3.41388">
        <ele>41.8</ele>
        <time>2021-11-25T12:52:23.000Z</time>
      </trkpt>
      <trkpt lat="47.9212" lon="-3.41391">
        <ele>41.1</ele>
        <time>2021-11-25T12:52:20.000Z</time>
      </trkpt>
      <trkpt lat="47.92125" lon="-3.41393">
        <ele>40.7</ele>
        <time>2021-11-25T12:52:17.000Z</time>
      </trkpt>
      <trkpt lat="47.9213" lon="-3.41397">
        <ele>40.5</ele>
        <time>2021-11-25T12:52:14.000Z</time>
      </trkpt>
      <trkpt lat="47.92137" lon="-3.41401">
        <ele>39.9</ele>
        <time>2021-11-25T12:52:11.000Z</time>
      </trkpt>
      <trkpt lat="47.92144" lon="-3.41403">
        <ele>37.8</ele>
        <time>2021-11-25T12:52:08.000Z</time>
      </trkpt>
      <trkpt lat="47.9215" lon="-3.414">
        <ele>38.3</ele>
        <time>2021-11-25T12:52:05.000Z</time>
      </trkpt>
      <trkpt lat="47.92153" lon="-3.41393">
        <ele>36.9</ele>
        <time>2021-11-25T12:52:02.000Z</time>
      </trkpt>
      <trkpt lat="47.9215" lon="-3.41375">
        <ele>33.1</ele>
        <time>2021-11-25T12:51:59.000Z</time>
      </trkpt>
      <trkpt lat="47.92149" lon="-3.41345">
        <ele>35.4</ele>
        <time>2021-11-25T12:51:56.000Z</time>
      </trkpt>
      <trkpt lat="47.92161" lon="-3.41308">
        <ele>32.8</ele>
        <time>2021-11-25T12:51:53.000Z</time>
      </trkpt>
      <trkpt lat="47.92173" lon="-3.41268">
        <ele>33.5</ele>
        <time>2021-11-25T12:51:50.000Z</time>
      </trkpt>
      <trkpt lat="47.92178" lon="-3.41231">
        <ele>38</ele>
        <time>2021-11-25T12:51:47.000Z</time>
      </trkpt>
      <trkpt lat="47.9218" lon="-3.41196">
        <ele>45.2</ele>
        <time>2021-11-25T12:51:44.000Z</time>
      </trkpt>
      <trkpt lat="47.9219" lon="-3.41182">
        <ele>46.1</ele>
        <time>2021-11-25T12:51:41.000Z</time>
      </trkpt>
      <trkpt lat="47.92204" lon="-3.4119">
        <ele>46.6</ele>
        <time>2021-11-25T12:51:38.000Z</time>
      </trkpt>
      <trkpt lat="47.92225" lon="-3.41195">
        <ele>48.1</ele>
        <time>2021-11-25T12:51:35.000Z</time>
      </trkpt>
      <trkpt lat="47.92247" lon="-3.41189">
        <ele>47.8</ele>
        <time>2021-11-25T12:51:32.000Z</time>
      </trkpt>
      <trkpt lat="47.92268" lon="-3.41178">
        <ele>49</ele>
        <time>2021-11-25T12:51:29.000Z</time>
      </trkpt>
      <trkpt lat="47.92289" lon="-3.41169">
        <ele>50</ele>
        <time>2021-11-25T12:51:26.000Z</time>
      </trkpt>
      <trkpt lat="47.92311" lon="-3.4116">
        <ele>50</ele>
        <time>2021-11-25T12:51:23.000Z</time>
      </trkpt>
      <trkpt lat="47.92331" lon="-3.41149">
        <ele>52.1</ele>
        <time>2021-11-25T12:51:20.000Z</time>
      </trkpt>
      <trkpt lat="47.92347" lon="-3.41133">
        <ele>52.9</ele>
        <time>2021-11-25T12:51:17.000Z</time>
      </trkpt>
      <trkpt lat="47.92358" lon="-3.41116">
        <ele>54.4</ele>
        <time>2021-11-25T12:51:14.000Z</time>
      </trkpt>
      <trkpt lat="47.92368" lon="-3.41097">
        <ele>54.3</ele>
        <time>2021-11-25T12:51:11.000Z</time>
      </trkpt>
      <trkpt lat="47.9238" lon="-3.41079">
        <ele>53.6</ele>
        <time>2021-11-25T12:51:08.000Z</time>
      </trkpt>
      <trkpt lat="47.92398" lon="-3.41064">
        <ele>51.9</ele>
        <time>2021-11-25T12:51:05.000Z</time>
      </trkpt>
      <trkpt lat="47.92419" lon="-3.41057">
        <ele>52.2</ele>
        <time>2021-11-25T12:51:02.000Z</time>
      </trkpt>
      <trkpt lat="47.92442" lon="-3.41054">
        <ele>52.3</ele>
        <time>2021-11-25T12:50:59.000Z</time>
      </trkpt>
      <trkpt lat="47.92464" lon="-3.41053">
        <ele>53.2</ele>
        <time>2021-11-25T12:50:56.000Z</time>
      </trkpt>
      <trkpt lat="47.92488" lon="-3.41057">
        <ele>52.5</ele>
        <time>2021-11-25T12:50:53.000Z</time>
      </trkpt>
      <trkpt lat="47.92514" lon="-3.41068">
        <ele>50.5</ele>
        <time>2021-11-25T12:50:50.000Z</time>
      </trkpt>
      <trkpt lat="47.92544" lon="-3.4108">
        <ele>48.8</ele>
        <time>2021-11-25T12:50:47.000Z</time>
      </trkpt>
      <trkpt lat="47.92577" lon="-3.41087">
        <ele>48.5</ele>
        <time>2021-11-25T12:50:44.000Z</time>
      </trkpt>
      <trkpt lat="47.92616" lon="-3.4109">
        <ele>48</ele>
        <time>2021-11-25T12:50:41.000Z</time>
      </trkpt>
      <trkpt lat="47.92659" lon="-3.41093">
        <ele>50.7</ele>
        <time>2021-11-25T12:50:38.000Z</time>
      </trkpt>
      <trkpt lat="47.92703" lon="-3.41097">
        <ele>53.3</ele>
        <time>2021-11-25T12:50:35.000Z</time>
      </trkpt>
      <trkpt lat="47.92746" lon="-3.411">
        <ele>58.8</ele>
        <time>2021-11-25T12:50:32.000Z</time>
      </trkpt>
      <trkpt lat="47.92784" lon="-3.411">
        <ele>65.6</ele>
        <time>2021-11-25T12:50:29.000Z</time>
      </trkpt>
      <trkpt lat="47.92815" lon="-3.41106">
        <ele>73</ele>
        <time>2021-11-25T12:50:26.000Z</time>
      </trkpt>
      <trkpt lat="47.92842" lon="-3.41115">
        <ele>76</ele>
        <time>2021-11-25T12:50:23.000Z</time>
      </trkpt>
      <trkpt lat="47.92859" lon="-3.41138">
        <ele>76.5</ele>
        <time>2021-11-25T12:50:20.000Z</time>
      </trkpt>
      <trkpt lat="47.92877" lon="-3.41173">
        <ele>75.4</ele>
        <time>2021-11-25T12:50:17.000Z</time>
      </trkpt>
      <trkpt lat="47.92898" lon="-3.41216">
        <ele>77.4</ele>
        <time>2021-11-25T12:50:14.000Z</time>
      </trkpt>
      <trkpt lat="47.9292" lon="-3.4126">
        <ele>80.2</ele>
        <time>2021-11-25T12:50:11.000Z</time>
      </trkpt>
      <trkpt lat="47.92943" lon="-3.413">
        <ele>84.3</ele>
        <time>2021-11-25T12:50:08.000Z</time>
      </trkpt>
      <trkpt lat="47.9297" lon="-3.41329">
        <ele>87.2</ele>
        <time>2021-11-25T12:50:05.000Z</time>
      </trkpt>
      <trkpt lat="47.92999" lon="-3.41346">
        <ele>92.1</ele>
        <time>2021-11-25T12:50:02.000Z</time>
      </trkpt>
      <trkpt lat="47.93027" lon="-3.41353">
        <ele>94.4</ele>
        <time>2021-11-25T12:49:59.000Z</time>
      </trkpt>
      <trkpt lat="47.93054" lon="-3.41354">
        <ele>96.9</ele>
        <time>2021-11-25T12:49:56.000Z</time>
      </trkpt>
      <trkpt lat="47.93081" lon="-3.41353">
        <ele>100.7</ele>
        <time>2021-11-25T12:49:53.000Z</time>
      </trkpt>
      <trkpt lat="47.93107" lon="-3.41351">
        <ele>104.2</ele>
        <time>2021-11-25T12:49:50.000Z</time>
      </trkpt>
      <trkpt lat="47.9313" lon="-3.41348">
        <ele>105.2</ele>
        <time>2021-11-25T12:49:47.000Z</time>
      </trkpt>
      <trkpt lat="47.93152" lon="-3.41342">
        <ele>106.8</ele>
        <time>2021-11-25T12:49:44.000Z</time>
      </trkpt>
      <trkpt lat="47.93171" lon="-3.41332">
        <ele>106.9</ele>
        <time>2021-11-25T12:49:41.000Z</time>
      </trkpt>
      <trkpt lat="47.93189" lon="-3.41321">
        <ele>107.5</ele>
        <time>2021-11-25T12:49:38.000Z</time>
      </trkpt>
      <trkpt lat="47.93206" lon="-3.41308">
        <ele>107.7</ele>
        <time>2021-11-25T12:49:35.000Z</time>
      </trkpt>
      <trkpt lat="47.93223" lon="-3.41295">
        <ele>108.1</ele>
        <time>2021-11-25T12:49:32.000Z</time>
      </trkpt>
      <trkpt lat="47.9324" lon="-3.41284">
        <ele>109.5</ele>
        <time>2021-11-25T12:49:29.000Z</time>
      </trkpt>
      <trkpt lat="47.93257" lon="-3.41275">
        <ele>110</ele>
        <time>2021-11-25T12:49:26.000Z</time>
      </trkpt>
      <trkpt lat="47.93273" lon="-3.41269">
        <ele>110.1</ele>
        <time>2021-11-25T12:49:23.000Z</time>
      </trkpt>
      <trkpt lat="47.93289" lon="-3.41265">
        <ele>110</ele>
        <time>2021-11-25T12:49:20.000Z</time>
      </trkpt>
      <trkpt lat="47.93304" lon="-3.41263">
        <ele>110.4</ele>
        <time>2021-11-25T12:49:17.000Z</time>
      </trkpt>
      <trkpt lat="47.9332" lon="-3.41262">
        <ele>110.6</ele>
        <time>2021-11-25T12:49:14.000Z</time>
      </trkpt>
      <trkpt lat="47.93335" lon="-3.41263">
        <ele>110.4</ele>
        <time>2021-11-25T12:49:11.000Z</time>
      </trkpt>
      <trkpt lat="47.9335" lon="-3.41264">
        <ele>110.4</ele>
        <time>2021-11-25T12:49:08.000Z</time>
      </trkpt>
      <trkpt lat="47.93364" lon="-3.41265">
        <ele>110.4</ele>
        <time>2021-11-25T12:49:05.000Z</time>
      </trkpt>
      <trkpt lat="47.93379" lon="-3.41267">
        <ele>109.7</ele>
        <time>2021-11-25T12:49:02.000Z</time>
      </trkpt>
      <trkpt lat="47.93393" lon="-3.41268">
        <ele>109.2</ele>
        <time>2021-11-25T12:48:59.000Z</time>
      </trkpt>
      <trkpt lat="47.93406" lon="-3.4127">
        <ele>108.8</ele>
        <time>2021-11-25T12:48:56.000Z</time>
      </trkpt>
      <trkpt lat="47.93421" lon="-3.41271">
        <ele>107.9</ele>
        <time>2021-11-25T12:48:53.000Z</time>
      </trkpt>
      <trkpt lat="47.93436" lon="-3.41272">
        <ele>107.3</ele>
        <time>2021-11-25T12:48:50.000Z</time>
      </trkpt>
      <trkpt lat="47.93453" lon="-3.41274">
        <ele>106.7</ele>
        <time>2021-11-25T12:48:47.000Z</time>
      </trkpt>
      <trkpt lat="47.93471" lon="-3.41275">
        <ele>106.1</ele>
        <time>2021-11-25T12:48:44.000Z</time>
      </trkpt>
      <trkpt lat="47.93488" lon="-3.41275">
        <ele>106.5</ele>
        <time>2021-11-25T12:48:41.000Z</time>
      </trkpt>
      <trkpt lat="47.93503" lon="-3.41277">
        <ele>107</ele>
        <time>2021-11-25T12:48:38.000Z</time>
      </trkpt>
      <trkpt lat="47.9352" lon="-3.41281">
        <ele>105.9</ele>
        <time>2021-11-25T12:48:35.000Z</time>
      </trkpt>
      <trkpt lat="47.93537" lon="-3.4129">
        <ele>104.8</ele>
        <time>2021-11-25T12:48:32.000Z</time>
      </trkpt>
      <trkpt lat="47.93553" lon="-3.41304">
        <ele>105.7</ele>
        <time>2021-11-25T12:48:29.000Z</time>
      </trkpt>
      <trkpt lat="47.93567" lon="-3.41319">
        <ele>105.8</ele>
        <time>2021-11-25T12:48:26.000Z</time>
      </trkpt>
      <trkpt lat="47.93578" lon="-3.41337">
        <ele>106.4</ele>
        <time>2021-11-25T12:48:23.000Z</time>
      </trkpt>
      <trkpt lat="47.93587" lon="-3.41356">
        <ele>105.3</ele>
        <time>2021-11-25T12:48:20.000Z</time>
      </trkpt>
      <trkpt lat="47.93594" lon="-3.41374">
        <ele>106.1</ele>
        <time>2021-11-25T12:48:17.000Z</time>
      </trkpt>
      <trkpt lat="47.93606" lon="-3.4138">
        <ele>106.9</ele>
        <time>2021-11-25T12:48:14.000Z</time>
      </trkpt>
      <trkpt lat="47.93624" lon="-3.41378">
        <ele>107.5</ele>
        <time>2021-11-25T12:48:11.000Z</time>
      </trkpt>
      <trkpt lat="47.93642" lon="-3.4137">
        <ele>109.1</ele>
        <time>2021-11-25T12:48:08.000Z</time>
      </trkpt>
      <trkpt lat="47.9365" lon="-3.41355">
        <ele>112</ele>
        <time>2021-11-25T12:48:05.000Z</time>
      </trkpt>
      <trkpt lat="47.93652" lon="-3.41337">
        <ele>111.3</ele>
        <time>2021-11-25T12:48:02.000Z</time>
      </trkpt>
      <trkpt lat="47.9365" lon="-3.4131">
        <ele>110</ele>
        <time>2021-11-25T12:47:59.000Z</time>
      </trkpt>
      <trkpt lat="47.9365" lon="-3.4128">
        <ele>112.2</ele>
        <time>2021-11-25T12:47:56.000Z</time>
      </trkpt>
      <trkpt lat="47.93652" lon="-3.41253">
        <ele>114.6</ele>
        <time>2021-11-25T12:47:53.000Z</time>
      </trkpt>
      <trkpt lat="47.93655" lon="-3.41228">
        <ele>116.4</ele>
        <time>2021-11-25T12:47:50.000Z</time>
      </trkpt>
      <trkpt lat="47.93658" lon="-3.41203">
        <ele>115.2</ele>
        <time>2021-11-25T12:47:47.000Z</time>
      </trkpt>
      <trkpt lat="47.93661" lon="-3.41178">
        <ele>115.5</ele>
        <time>2021-11-25T12:47:44.000Z</time>
      </trkpt>
      <trkpt lat="47.93664" lon="-3.41152">
        <ele>118.3</ele>
        <time>2021-11-25T12:47:41.000Z</time>
      </trkpt>
      <trkpt lat="47.93667" lon="-3.41127">
        <ele>117.1</ele>
        <time>2021-11-25T12:47:38.000Z</time>
      </trkpt>
      <trkpt lat="47.93671" lon="-3.41103">
        <ele>117.5</ele>
        <time>2021-11-25T12:47:35.000Z</time>
      </trkpt>
      <trkpt lat="47.93672" lon="-3.41083">
        <ele>115.4</ele>
        <time>2021-11-25T12:47:32.000Z</time>
      </trkpt>
      <trkpt lat="47.93675" lon="-3.41062">
        <ele>115.9</ele>
        <time>2021-11-25T12:47:29.000Z</time>
      </trkpt>
      <trkpt lat="47.93675" lon="-3.41038">
        <ele>116.1</ele>
        <time>2021-11-25T12:47:26.000Z</time>
      </trkpt>
      <trkpt lat="47.93674" lon="-3.41017">
        <ele>114</ele>
        <time>2021-11-25T12:47:23.000Z</time>
      </trkpt>
      <trkpt lat="47.93667" lon="-3.41001">
        <ele>115.1</ele>
        <time>2021-11-25T12:47:20.000Z</time>
      </trkpt>
      <trkpt lat="47.93656" lon="-3.40988">
        <ele>115</ele>
        <time>2021-11-25T12:47:17.000Z</time>
      </trkpt>
      <trkpt lat="47.93642" lon="-3.40978">
        <ele>116.4</ele>
        <time>2021-11-25T12:47:14.000Z</time>
      </trkpt>
      <trkpt lat="47.93629" lon="-3.40973">
        <ele>113.8</ele>
        <time>2021-11-25T12:47:11.000Z</time>
      </trkpt>
      <trkpt lat="47.93615" lon="-3.40968">
        <ele>113.8</ele>
        <time>2021-11-25T12:47:08.000Z</time>
      </trkpt>
      <trkpt lat="47.93601" lon="-3.4096">
        <ele>115.1</ele>
        <time>2021-11-25T12:47:05.000Z</time>
      </trkpt>
      <trkpt lat="47.93588" lon="-3.40949">
        <ele>113.8</ele>
        <time>2021-11-25T12:47:02.000Z</time>
      </trkpt>
      <trkpt lat="47.93576" lon="-3.40934">
        <ele>115.4</ele>
        <time>2021-11-25T12:46:59.000Z</time>
      </trkpt>
      <trkpt lat="47.93566" lon="-3.40916">
        <ele>116.9</ele>
        <time>2021-11-25T12:46:56.000Z</time>
      </trkpt>
      <trkpt lat="47.93557" lon="-3.40896">
        <ele>115</ele>
        <time>2021-11-25T12:46:53.000Z</time>
      </trkpt>
      <trkpt lat="47.93548" lon="-3.40877">
        <ele>120.3</ele>
        <time>2021-11-25T12:46:50.000Z</time>
      </trkpt>
      <trkpt lat="47.9354" lon="-3.40858">
        <ele>120.1</ele>
        <time>2021-11-25T12:46:47.000Z</time>
      </trkpt>
      <trkpt lat="47.93531" lon="-3.40839">
        <ele>119.1</ele>
        <time>2021-11-25T12:46:44.000Z</time>
      </trkpt>
      <trkpt lat="47.93522" lon="-3.40821">
        <ele>118.6</ele>
        <time>2021-11-25T12:46:41.000Z</time>
      </trkpt>
      <trkpt lat="47.93513" lon="-3.40806">
        <ele>118.8</ele>
        <time>2021-11-25T12:46:38.000Z</time>
      </trkpt>
      <trkpt lat="47.93504" lon="-3.40791">
        <ele>119.3</ele>
        <time>2021-11-25T12:46:35.000Z</time>
      </trkpt>
      <trkpt lat="47.93495" lon="-3.40775">
        <ele>118.3</ele>
        <time>2021-11-25T12:46:32.000Z</time>
      </trkpt>
      <trkpt lat="47.93485" lon="-3.40761">
        <ele>118.9</ele>
        <time>2021-11-25T12:46:29.000Z</time>
      </trkpt>
      <trkpt lat="47.93476" lon="-3.40749">
        <ele>120.9</ele>
        <time>2021-11-25T12:46:26.000Z</time>
      </trkpt>
      <trkpt lat="47.9347" lon="-3.40739">
        <ele>121.1</ele>
        <time>2021-11-25T12:46:23.000Z</time>
      </trkpt>
      <trkpt lat="47.93466" lon="-3.40731">
        <ele>121.2</ele>
        <time>2021-11-25T12:46:20.000Z</time>
      </trkpt>
      <trkpt lat="47.93464" lon="-3.40728">
        <ele>121.5</ele>
        <time>2021-11-25T12:46:17.000Z</time>
      </trkpt>
      <trkpt lat="47.93465" lon="-3.40727">
        <ele>121.2</ele>
        <time>2021-11-25T12:46:14.000Z</time>
      </trkpt>
      <trkpt lat="47.93465" lon="-3.40727">
        <ele>120.8</ele>
        <time>2021-11-25T12:46:11.000Z</time>
      </trkpt>
      <trkpt lat="47.93465" lon="-3.40727">
        <ele>120.9</ele>
        <time>2021-11-25T12:46:08.000Z</time>
      </trkpt>
      <trkpt lat="47.93465" lon="-3.40727">
        <ele>120.9</ele>
        <time>2021-11-25T12:46:05.000Z</time>
      </trkpt>
      <trkpt lat="47.93465" lon="-3.40727">
        <ele>121.1</ele>
        <time>2021-11-25T12:46:02.000Z</time>
      </trkpt>
      <trkpt lat="47.93465" lon="-3.40727">
        <ele>121.2</ele>
        <time>2021-11-25T12:45:59.000Z</time>
      </trkpt>
      <trkpt lat="47.93465" lon="-3.40727">
        <ele>121.2</ele>
        <time>2021-11-25T12:45:56.000Z</time>
      </trkpt>
      <trkpt lat="47.93465" lon="-3.40727">
        <ele>121.2</ele>
        <time>2021-11-25T12:45:53.000Z</time>
      </trkpt>
      <trkpt lat="47.93465" lon="-3.40727">
        <ele>121.2</ele>
        <time>2021-11-25T12:45:50.000Z</time>
      </trkpt>
      <trkpt lat="47.93465" lon="-3.40727">
        <ele>121.5</ele>
        <time>2021-11-25T12:45:47.000Z</time>
      </trkpt>
      <trkpt lat="47.93465" lon="-3.40727">
        <ele>121.3</ele>
        <time>2021-11-25T12:45:46.000Z</time>
      </trkpt>
      <trkpt lat="47.93465" lon="-3.40727">
        <ele>121.2</ele>
        <time>2021-11-25T12:45:45.000Z</time>
      </trkpt>
      <trkpt lat="47.93465" lon="-3.40727">
        <ele>121.4</ele>
        <time>2021-11-25T12:45:42.000Z</time>
      </trkpt>
      <trkpt lat="47.93465" lon="-3.40727">
        <ele>121.3</ele>
        <time>2021-11-25T12:45:39.000Z</time>
      </trkpt>
      <trkpt lat="47.93465" lon="-3.40727">
        <ele>121.4</ele>
        <time>2021-11-25T12:45:36.000Z</time>
      </trkpt>
      <trkpt lat="47.93465" lon="-3.40727">
        <ele>121.3</ele>
        <time>2021-11-25T12:45:33.000Z</time>
      </trkpt>
      <trkpt lat="47.93465" lon="-3.40727">
        <ele>121.4</ele>
        <time>2021-11-25T12:45:30.000Z</time>
      </trkpt>
      <trkpt lat="47.93465" lon="-3.40727">
        <ele>121.3</ele>
        <time>2021-11-25T12:45:29.000Z</time>
      </trkpt>
      <trkpt lat="47.93465" lon="-3.40727">
        <ele>121</ele>
        <time>2021-11-25T12:45:26.000Z</time>
      </trkpt>
      <trkpt lat="47.93465" lon="-3.40727">
        <ele>120.9</ele>
        <time>2021-11-25T12:45:23.000Z</time>
      </trkpt>
      <trkpt lat="47.93465" lon="-3.40727">
        <ele>121.1</ele>
        <time>2021-11-25T12:45:20.000Z</time>
      </trkpt>
      <trkpt lat="47.93465" lon="-3.40727">
        <ele>121.1</ele>
        <time>2021-11-25T12:45:17.000Z</time>
      </trkpt>
      <trkpt lat="47.93465" lon="-3.40727">
        <ele>121.3</ele>
        <time>2021-11-25T12:45:14.000Z</time>
      </trkpt>
      <trkpt lat="47.93465" lon="-3.40727">
        <ele>121.4</ele>
        <time>2021-11-25T12:45:11.000Z</time>
      </trkpt>
      <trkpt lat="47.93465" lon="-3.40727">
        <ele>122.2</ele>
        <time>2021-11-25T12:45:08.000Z</time>
      </trkpt>
      <trkpt lat="47.93465" lon="-3.40727">
        <ele>121.9</ele>
        <time>2021-11-25T12:45:06.000Z</time>
      </trkpt>
      <trkpt lat="47.93465" lon="-3.40727">
        <ele>121.7</ele>
        <time>2021-11-25T12:45:04.000Z</time>
      </trkpt>
      <trkpt lat="47.93465" lon="-3.40727">
        <ele>121.6</ele>
        <time>2021-11-25T12:45:01.000Z</time>
      </trkpt>
      <trkpt lat="47.93465" lon="-3.40727">
        <ele>121.6</ele>
        <time>2021-11-25T12:45:00.000Z</time>
      </trkpt>
      <trkpt lat="47.93465" lon="-3.40727">
        <ele>121.6</ele>
        <time>2021-11-25T12:44:57.000Z</time>
      </trkpt>
      <trkpt lat="47.93465" lon="-3.40727">
        <ele>121.6</ele>
        <time>2021-11-25T12:44:54.000Z</time>
      </trkpt>
      <trkpt lat="47.93465" lon="-3.40727">
        <ele>121.7</ele>
        <time>2021-11-25T12:44:51.000Z</time>
      </trkpt>
      <trkpt lat="47.93465" lon="-3.40727">
        <ele>121.6</ele>
        <time>2021-11-25T12:44:50.000Z</time>
      </trkpt>
      <trkpt lat="47.93465" lon="-3.40727">
        <ele>121.5</ele>
        <time>2021-11-25T12:44:49.000Z</time>
      </trkpt>
      <trkpt lat="47.93465" lon="-3.40727">
        <ele>121.4</ele>
        <time>2021-11-25T12:44:47.000Z</time>
      </trkpt>
      <trkpt lat="47.93465" lon="-3.40727">
        <ele>121.7</ele>
        <time>2021-11-25T12:44:44.000Z</time>
      </trkpt>
      <trkpt lat="47.93465" lon="-3.40727">
        <ele>121.8</ele>
        <time>2021-11-25T12:44:41.000Z</time>
      </trkpt>
      <trkpt lat="47.93465" lon="-3.40727">
        <ele>121.7</ele>
        <time>2021-11-25T12:44:38.000Z</time>
      </trkpt>
      <trkpt lat="47.93465" lon="-3.40727">
        <ele>121.6</ele>
        <time>2021-11-25T12:44:35.000Z</time>
      </trkpt>
      <trkpt lat="47.93465" lon="-3.40727">
        <ele>121.8</ele>
        <time>2021-11-25T12:44:32.000Z</time>
      </trkpt>
      <trkpt lat="47.93465" lon="-3.40727">
        <ele>121.6</ele>
        <time>2021-11-25T12:44:29.000Z</time>
      </trkpt>
      <trkpt lat="47.93465" lon="-3.40727">
        <ele>121.5</ele>
        <time>2021-11-25T12:44:28.000Z</time>
      </trkpt>
      <trkpt lat="47.93465" lon="-3.40727">
        <ele>121.6</ele>
        <time>2021-11-25T12:44:26.000Z</time>
      </trkpt>
      <trkpt lat="47.93465" lon="-3.40727">
        <ele>121.5</ele>
        <time>2021-11-25T12:44:23.000Z</time>
      </trkpt>
      <trkpt lat="47.93465" lon="-3.40727">
        <ele>121.6</ele>
        <time>2021-11-25T12:44:20.000Z</time>
      </trkpt>
      <trkpt lat="47.93465" lon="-3.40727">
        <ele>121.2</ele>
        <time>2021-11-25T12:44:17.000Z</time>
      </trkpt>
      <trkpt lat="47.93465" lon="-3.40727">
        <ele>120.8</ele>
        <time>2021-11-25T12:44:14.000Z</time>
      </trkpt>
      <trkpt lat="47.93465" lon="-3.40727">
        <ele>120.8</ele>
        <time>2021-11-25T12:44:11.000Z</time>
      </trkpt>
      <trkpt lat="47.93465" lon="-3.40727">
        <ele>120.9</ele>
        <time>2021-11-25T12:44:08.000Z</time>
      </trkpt>
      <trkpt lat="47.93465" lon="-3.40727">
        <ele>121</ele>
        <time>2021-11-25T12:44:07.000Z</time>
      </trkpt>
      <trkpt lat="47.93465" lon="-3.40724">
        <ele>120.9</ele>
        <time>2021-11-25T12:44:04.000Z</time>
      </trkpt>
      <trkpt lat="47.9346" lon="-3.40714">
        <ele>121.2</ele>
        <time>2021-11-25T12:44:01.000Z</time>
      </trkpt>
      <trkpt lat="47.93455" lon="-3.40696">
        <ele>122.6</ele>
        <time>2021-11-25T12:43:58.000Z</time>
      </trkpt>
      <trkpt lat="47.93454" lon="-3.40678">
        <ele>123.5</ele>
        <time>2021-11-25T12:43:55.000Z</time>
      </trkpt>
      <trkpt lat="47.93457" lon="-3.40662">
        <ele>121.9</ele>
        <time>2021-11-25T12:43:52.000Z</time>
      </trkpt>
      <trkpt lat="47.9346" lon="-3.40648">
        <ele>122.5</ele>
        <time>2021-11-25T12:43:49.000Z</time>
      </trkpt>
      <trkpt lat="47.93464" lon="-3.40636">
        <ele>122.2</ele>
        <time>2021-11-25T12:43:46.000Z</time>
      </trkpt>
      <trkpt lat="47.93469" lon="-3.40626">
        <ele>121.8</ele>
        <time>2021-11-25T12:43:43.000Z</time>
      </trkpt>
      <trkpt lat="47.93476" lon="-3.4062">
        <ele>122.6</ele>
        <time>2021-11-25T12:43:40.000Z</time>
      </trkpt>
      <trkpt lat="47.93482" lon="-3.40616">
        <ele>120.6</ele>
        <time>2021-11-25T12:43:37.000Z</time>
      </trkpt>
      <trkpt lat="47.93489" lon="-3.40612">
        <ele>120.5</ele>
        <time>2021-11-25T12:43:34.000Z</time>
      </trkpt>
      <trkpt lat="47.93496" lon="-3.4061">
        <ele>120</ele>
        <time>2021-11-25T12:43:31.000Z</time>
      </trkpt>
      <trkpt lat="47.93502" lon="-3.40607">
        <ele>119</ele>
        <time>2021-11-25T12:43:28.000Z</time>
      </trkpt>
      <trkpt lat="47.9351" lon="-3.40604">
        <ele>118.1</ele>
        <time>2021-11-25T12:43:25.000Z</time>
      </trkpt>
      <trkpt lat="47.93515" lon="-3.40597">
        <ele>117.2</ele>
        <time>2021-11-25T12:43:22.000Z</time>
      </trkpt>
      <trkpt lat="47.93519" lon="-3.40588">
        <ele>114.5</ele>
        <time>2021-11-25T12:43:19.000Z</time>
      </trkpt>
      <trkpt lat="47.93523" lon="-3.40576">
        <ele>114.7</ele>
        <time>2021-11-25T12:43:16.000Z</time>
      </trkpt>
      <trkpt lat="47.93523" lon="-3.40566">
        <ele>115.5</ele>
        <time>2021-11-25T12:43:13.000Z</time>
      </trkpt>
      <trkpt lat="47.93521" lon="-3.40555">
        <ele>113.8</ele>
        <time>2021-11-25T12:43:10.000Z</time>
      </trkpt>
      <trkpt lat="47.9352" lon="-3.40543">
        <ele>114.4</ele>
        <time>2021-11-25T12:43:07.000Z</time>
      </trkpt>
      <trkpt lat="47.93518" lon="-3.4053">
        <ele>114.2</ele>
        <time>2021-11-25T12:43:04.000Z</time>
      </trkpt>
      <trkpt lat="47.93516" lon="-3.40518">
        <ele>113.5</ele>
        <time>2021-11-25T12:43:01.000Z</time>
      </trkpt>
      <trkpt lat="47.93513" lon="-3.40508">
        <ele>112.9</ele>
        <time>2021-11-25T12:42:58.000Z</time>
      </trkpt>
      <trkpt lat="47.93512" lon="-3.40502">
        <ele>113.2</ele>
        <time>2021-11-25T12:42:55.000Z</time>
      </trkpt>
      <trkpt lat="47.93511" lon="-3.40499">
        <ele>113.8</ele>
        <time>2021-11-25T12:42:52.000Z</time>
      </trkpt>
      <trkpt lat="47.93511" lon="-3.40499">
        <ele>113.7</ele>
        <time>2021-11-25T12:42:50.000Z</time>
      </trkpt>
      <trkpt lat="47.93511" lon="-3.40499">
        <ele>113.5</ele>
        <time>2021-11-25T12:42:47.000Z</time>
      </trkpt>
      <trkpt lat="47.93511" lon="-3.40499">
        <ele>113.7</ele>
        <time>2021-11-25T12:42:44.000Z</time>
      </trkpt>
      <trkpt lat="47.93511" lon="-3.40499">
        <ele>113.6</ele>
        <time>2021-11-25T12:42:41.000Z</time>
      </trkpt>
      <trkpt lat="47.93511" lon="-3.40499">
        <ele>113.5</ele>
        <time>2021-11-25T12:42:40.000Z</time>
      </trkpt>
      <trkpt lat="47.9351" lon="-3.40497">
        <ele>113.5</ele>
        <time>2021-11-25T12:42:37.000Z</time>
      </trkpt>
      <trkpt lat="47.9351" lon="-3.40491">
        <ele>113.3</ele>
        <time>2021-11-25T12:42:34.000Z</time>
      </trkpt>
      <trkpt lat="47.93509" lon="-3.40485">
        <ele>113.5</ele>
        <time>2021-11-25T12:42:31.000Z</time>
      </trkpt>
      <trkpt lat="47.93508" lon="-3.40476">
        <ele>112.7</ele>
        <time>2021-11-25T12:42:28.000Z</time>
      </trkpt>
      <trkpt lat="47.93506" lon="-3.40468">
        <ele>112.9</ele>
        <time>2021-11-25T12:42:25.000Z</time>
      </trkpt>
      <trkpt lat="47.93504" lon="-3.4046">
        <ele>111.7</ele>
        <time>2021-11-25T12:42:22.000Z</time>
      </trkpt>
      <trkpt lat="47.93502" lon="-3.40452">
        <ele>111.5</ele>
        <time>2021-11-25T12:42:19.000Z</time>
      </trkpt>
      <trkpt lat="47.935" lon="-3.40445">
        <ele>111.8</ele>
        <time>2021-11-25T12:42:16.000Z</time>
      </trkpt>
      <trkpt lat="47.935" lon="-3.40437">
        <ele>110.9</ele>
        <time>2021-11-25T12:42:13.000Z</time>
      </trkpt>
      <trkpt lat="47.935" lon="-3.40428">
        <ele>110.2</ele>
        <time>2021-11-25T12:42:10.000Z</time>
      </trkpt>
      <trkpt lat="47.93501" lon="-3.40419">
        <ele>109.8</ele>
        <time>2021-11-25T12:42:07.000Z</time>
      </trkpt>
      <trkpt lat="47.93501" lon="-3.4041">
        <ele>109.3</ele>
        <time>2021-11-25T12:42:04.000Z</time>
      </trkpt>
      <trkpt lat="47.935" lon="-3.40401">
        <ele>109</ele>
        <time>2021-11-25T12:42:01.000Z</time>
      </trkpt>
      <trkpt lat="47.93499" lon="-3.40392">
        <ele>108.1</ele>
        <time>2021-11-25T12:41:58.000Z</time>
      </trkpt>
      <trkpt lat="47.93497" lon="-3.40382">
        <ele>106.6</ele>
        <time>2021-11-25T12:41:55.000Z</time>
      </trkpt>
      <trkpt lat="47.93496" lon="-3.40372">
        <ele>107</ele>
        <time>2021-11-25T12:41:52.000Z</time>
      </trkpt>
      <trkpt lat="47.93496" lon="-3.40362">
        <ele>107.6</ele>
        <time>2021-11-25T12:41:49.000Z</time>
      </trkpt>
      <trkpt lat="47.93496" lon="-3.40353">
        <ele>106.7</ele>
        <time>2021-11-25T12:41:46.000Z</time>
      </trkpt>
      <trkpt lat="47.93495" lon="-3.40345">
        <ele>105.3</ele>
        <time>2021-11-25T12:41:43.000Z</time>
      </trkpt>
      <trkpt lat="47.93494" lon="-3.40337">
        <ele>105.9</ele>
        <time>2021-11-25T12:41:40.000Z</time>
      </trkpt>
      <trkpt lat="47.93493" lon="-3.40329">
        <ele>105.4</ele>
        <time>2021-11-25T12:41:37.000Z</time>
      </trkpt>
      <trkpt lat="47.93493" lon="-3.40321">
        <ele>104.5</ele>
        <time>2021-11-25T12:41:34.000Z</time>
      </trkpt>
      <trkpt lat="47.93492" lon="-3.40312">
        <ele>103.1</ele>
        <time>2021-11-25T12:41:31.000Z</time>
      </trkpt>
      <trkpt lat="47.93492" lon="-3.40303">
        <ele>103</ele>
        <time>2021-11-25T12:41:28.000Z</time>
      </trkpt>
      <trkpt lat="47.93492" lon="-3.40293">
        <ele>103</ele>
        <time>2021-11-25T12:41:25.000Z</time>
      </trkpt>
      <trkpt lat="47.93492" lon="-3.40285">
        <ele>102.5</ele>
        <time>2021-11-25T12:41:22.000Z</time>
      </trkpt>
      <trkpt lat="47.93494" lon="-3.40279">
        <ele>102.1</ele>
        <time>2021-11-25T12:41:19.000Z</time>
      </trkpt>
      <trkpt lat="47.93497" lon="-3.40274">
        <ele>101.5</ele>
        <time>2021-11-25T12:41:16.000Z</time>
      </trkpt>
      <trkpt lat="47.935" lon="-3.4027">
        <ele>101.4</ele>
        <time>2021-11-25T12:41:13.000Z</time>
      </trkpt>
      <trkpt lat="47.93503" lon="-3.40267">
        <ele>100.1</ele>
        <time>2021-11-25T12:41:10.000Z</time>
      </trkpt>
      <trkpt lat="47.93508" lon="-3.40267">
        <ele>99.2</ele>
        <time>2021-11-25T12:41:07.000Z</time>
      </trkpt>
      <trkpt lat="47.93513" lon="-3.40268">
        <ele>98.6</ele>
        <time>2021-11-25T12:41:04.000Z</time>
      </trkpt>
      <trkpt lat="47.93518" lon="-3.40268">
        <ele>98.4</ele>
        <time>2021-11-25T12:41:01.000Z</time>
      </trkpt>
      <trkpt lat="47.93524" lon="-3.40271">
        <ele>97.4</ele>
        <time>2021-11-25T12:40:58.000Z</time>
      </trkpt>
      <trkpt lat="47.93529" lon="-3.40275">
        <ele>96.3</ele>
        <time>2021-11-25T12:40:55.000Z</time>
      </trkpt>
      <trkpt lat="47.93534" lon="-3.40278">
        <ele>95.9</ele>
        <time>2021-11-25T12:40:52.000Z</time>
      </trkpt>
      <trkpt lat="47.93537" lon="-3.40282">
        <ele>93.9</ele>
        <time>2021-11-25T12:40:49.000Z</time>
      </trkpt>
      <trkpt lat="47.93541" lon="-3.40284">
        <ele>93.9</ele>
        <time>2021-11-25T12:40:46.000Z</time>
      </trkpt>
      <trkpt lat="47.93545" lon="-3.40288">
        <ele>94.4</ele>
        <time>2021-11-25T12:40:43.000Z</time>
      </trkpt>
      <trkpt lat="47.93547" lon="-3.40294">
        <ele>93.6</ele>
        <time>2021-11-25T12:40:40.000Z</time>
      </trkpt>
      <trkpt lat="47.93549" lon="-3.40299">
        <ele>91.9</ele>
        <time>2021-11-25T12:40:37.000Z</time>
      </trkpt>
      <trkpt lat="47.93551" lon="-3.40303">
        <ele>91.9</ele>
        <time>2021-11-25T12:40:34.000Z</time>
      </trkpt>
      <trkpt lat="47.93555" lon="-3.40307">
        <ele>89.5</ele>
        <time>2021-11-25T12:40:31.000Z</time>
      </trkpt>
      <trkpt lat="47.9356" lon="-3.4031">
        <ele>89.6</ele>
        <time>2021-11-25T12:40:28.000Z</time>
      </trkpt>
      <trkpt lat="47.93564" lon="-3.40317">
        <ele>89.9</ele>
        <time>2021-11-25T12:40:25.000Z</time>
      </trkpt>
      <trkpt lat="47.93568" lon="-3.40321">
        <ele>88.2</ele>
        <time>2021-11-25T12:40:22.000Z</time>
      </trkpt>
      <trkpt lat="47.93573" lon="-3.40326">
        <ele>88.4</ele>
        <time>2021-11-25T12:40:19.000Z</time>
      </trkpt>
      <trkpt lat="47.93577" lon="-3.40332">
        <ele>87.7</ele>
        <time>2021-11-25T12:40:16.000Z</time>
      </trkpt>
      <trkpt lat="47.93582" lon="-3.40336">
        <ele>86.3</ele>
        <time>2021-11-25T12:40:13.000Z</time>
      </trkpt>
      <trkpt lat="47.93586" lon="-3.40343">
        <ele>85.9</ele>
        <time>2021-11-25T12:40:10.000Z</time>
      </trkpt>
      <trkpt lat="47.93591" lon="-3.4035">
        <ele>85.1</ele>
        <time>2021-11-25T12:40:07.000Z</time>
      </trkpt>
      <trkpt lat="47.93595" lon="-3.40356">
        <ele>85.2</ele>
        <time>2021-11-25T12:40:04.000Z</time>
      </trkpt>
      <trkpt lat="47.93601" lon="-3.40363">
        <ele>84.6</ele>
        <time>2021-11-25T12:40:01.000Z</time>
      </trkpt>
      <trkpt lat="47.93607" lon="-3.40369">
        <ele>84.4</ele>
        <time>2021-11-25T12:39:58.000Z</time>
      </trkpt>
      <trkpt lat="47.9361" lon="-3.40373">
        <ele>83.8</ele>
        <time>2021-11-25T12:39:55.000Z</time>
      </trkpt>
      <trkpt lat="47.93614" lon="-3.40375">
        <ele>83</ele>
        <time>2021-11-25T12:39:52.000Z</time>
      </trkpt>
      <trkpt lat="47.93619" lon="-3.40378">
        <ele>82.6</ele>
        <time>2021-11-25T12:39:49.000Z</time>
      </trkpt>
      <trkpt lat="47.93623" lon="-3.40384">
        <ele>82.4</ele>
        <time>2021-11-25T12:39:46.000Z</time>
      </trkpt>
      <trkpt lat="47.93628" lon="-3.40387">
        <ele>81</ele>
        <time>2021-11-25T12:39:43.000Z</time>
      </trkpt>
      <trkpt lat="47.93634" lon="-3.40393">
        <ele>81.3</ele>
        <time>2021-11-25T12:39:40.000Z</time>
      </trkpt>
      <trkpt lat="47.9364" lon="-3.40399">
        <ele>81.8</ele>
        <time>2021-11-25T12:39:37.000Z</time>
      </trkpt>
      <trkpt lat="47.93646" lon="-3.40406">
        <ele>79.8</ele>
        <time>2021-11-25T12:39:34.000Z</time>
      </trkpt>
      <trkpt lat="47.9365" lon="-3.40414">
        <ele>80.6</ele>
        <time>2021-11-25T12:39:31.000Z</time>
      </trkpt>
      <trkpt lat="47.93654" lon="-3.40421">
        <ele>80.1</ele>
        <time>2021-11-25T12:39:28.000Z</time>
      </trkpt>
      <trkpt lat="47.93658" lon="-3.40429">
        <ele>79.5</ele>
        <time>2021-11-25T12:39:25.000Z</time>
      </trkpt>
      <trkpt lat="47.93663" lon="-3.40437">
        <ele>79.2</ele>
        <time>2021-11-25T12:39:22.000Z</time>
      </trkpt>
      <trkpt lat="47.93667" lon="-3.40445">
        <ele>77.5</ele>
        <time>2021-11-25T12:39:19.000Z</time>
      </trkpt>
      <trkpt lat="47.93671" lon="-3.40452">
        <ele>77.7</ele>
        <time>2021-11-25T12:39:16.000Z</time>
      </trkpt>
      <trkpt lat="47.93676" lon="-3.40459">
        <ele>76.8</ele>
        <time>2021-11-25T12:39:13.000Z</time>
      </trkpt>
      <trkpt lat="47.93683" lon="-3.40463">
        <ele>76.6</ele>
        <time>2021-11-25T12:39:10.000Z</time>
      </trkpt>
      <trkpt lat="47.93689" lon="-3.40463">
        <ele>76.5</ele>
        <time>2021-11-25T12:39:07.000Z</time>
      </trkpt>
      <trkpt lat="47.93693" lon="-3.40459">
        <ele>76.1</ele>
        <time>2021-11-25T12:39:04.000Z</time>
      </trkpt>
      <trkpt lat="47.93696" lon="-3.4045">
        <ele>74.9</ele>
        <time>2021-11-25T12:39:01.000Z</time>
      </trkpt>
      <trkpt lat="47.93696" lon="-3.40442">
        <ele>74.5</ele>
        <time>2021-11-25T12:38:58.000Z</time>
      </trkpt>
      <trkpt lat="47.93694" lon="-3.40434">
        <ele>74.3</ele>
        <time>2021-11-25T12:38:55.000Z</time>
      </trkpt>
      <trkpt lat="47.93693" lon="-3.40427">
        <ele>73.5</ele>
        <time>2021-11-25T12:38:52.000Z</time>
      </trkpt>
      <trkpt lat="47.93692" lon="-3.40419">
        <ele>72.3</ele>
        <time>2021-11-25T12:38:49.000Z</time>
      </trkpt>
      <trkpt lat="47.93689" lon="-3.40411">
        <ele>72</ele>
        <time>2021-11-25T12:38:46.000Z</time>
      </trkpt>
      <trkpt lat="47.93687" lon="-3.40402">
        <ele>71.2</ele>
        <time>2021-11-25T12:38:43.000Z</time>
      </trkpt>
      <trkpt lat="47.93685" lon="-3.40395">
        <ele>70.3</ele>
        <time>2021-11-25T12:38:40.000Z</time>
      </trkpt>
      <trkpt lat="47.93682" lon="-3.40387">
        <ele>69.1</ele>
        <time>2021-11-25T12:38:37.000Z</time>
      </trkpt>
      <trkpt lat="47.93679" lon="-3.40379">
        <ele>68.7</ele>
        <time>2021-11-25T12:38:34.000Z</time>
      </trkpt>
      <trkpt lat="47.93677" lon="-3.40371">
        <ele>68.2</ele>
        <time>2021-11-25T12:38:31.000Z</time>
      </trkpt>
      <trkpt lat="47.93674" lon="-3.40363">
        <ele>67.7</ele>
        <time>2021-11-25T12:38:28.000Z</time>
      </trkpt>
      <trkpt lat="47.93671" lon="-3.40355">
        <ele>66.5</ele>
        <time>2021-11-25T12:38:25.000Z</time>
      </trkpt>
      <trkpt lat="47.93667" lon="-3.40347">
        <ele>65.1</ele>
        <time>2021-11-25T12:38:22.000Z</time>
      </trkpt>
      <trkpt lat="47.93664" lon="-3.40339">
        <ele>65.2</ele>
        <time>2021-11-25T12:38:19.000Z</time>
      </trkpt>
      <trkpt lat="47.93662" lon="-3.40331">
        <ele>63.4</ele>
        <time>2021-11-25T12:38:16.000Z</time>
      </trkpt>
      <trkpt lat="47.93661" lon="-3.40323">
        <ele>63.6</ele>
        <time>2021-11-25T12:38:13.000Z</time>
      </trkpt>
      <trkpt lat="47.93659" lon="-3.40315">
        <ele>62.7</ele>
        <time>2021-11-25T12:38:10.000Z</time>
      </trkpt>
      <trkpt lat="47.93658" lon="-3.40306">
        <ele>62.4</ele>
        <time>2021-11-25T12:38:07.000Z</time>
      </trkpt>
      <trkpt lat="47.93657" lon="-3.40297">
        <ele>61.7</ele>
        <time>2021-11-25T12:38:04.000Z</time>
      </trkpt>
      <trkpt lat="47.93656" lon="-3.40288">
        <ele>62.3</ele>
        <time>2021-11-25T12:38:01.000Z</time>
      </trkpt>
      <trkpt lat="47.93654" lon="-3.40279">
        <ele>60.7</ele>
        <time>2021-11-25T12:37:58.000Z</time>
      </trkpt>
      <trkpt lat="47.93653" lon="-3.40269">
        <ele>60.8</ele>
        <time>2021-11-25T12:37:55.000Z</time>
      </trkpt>
      <trkpt lat="47.93653" lon="-3.40259">
        <ele>60.2</ele>
        <time>2021-11-25T12:37:52.000Z</time>
      </trkpt>
      <trkpt lat="47.93654" lon="-3.40249">
        <ele>59.9</ele>
        <time>2021-11-25T12:37:49.000Z</time>
      </trkpt>
      <trkpt lat="47.93656" lon="-3.40239">
        <ele>58.3</ele>
        <time>2021-11-25T12:37:46.000Z</time>
      </trkpt>
      <trkpt lat="47.93656" lon="-3.40229">
        <ele>58</ele>
        <time>2021-11-25T12:37:43.000Z</time>
      </trkpt>
      <trkpt lat="47.93655" lon="-3.40219">
        <ele>57.7</ele>
        <time>2021-11-25T12:37:40.000Z</time>
      </trkpt>
      <trkpt lat="47.93655" lon="-3.40209">
        <ele>57.9</ele>
        <time>2021-11-25T12:37:37.000Z</time>
      </trkpt>
      <trkpt lat="47.93654" lon="-3.40199">
        <ele>57</ele>
        <time>2021-11-25T12:37:34.000Z</time>
      </trkpt>
      <trkpt lat="47.93653" lon="-3.4019">
        <ele>55.9</ele>
        <time>2021-11-25T12:37:31.000Z</time>
      </trkpt>
      <trkpt lat="47.93653" lon="-3.4018">
        <ele>55.5</ele>
        <time>2021-11-25T12:37:28.000Z</time>
      </trkpt>
      <trkpt lat="47.93652" lon="-3.4017">
        <ele>55.2</ele>
        <time>2021-11-25T12:37:25.000Z</time>
      </trkpt>
      <trkpt lat="47.93652" lon="-3.4016">
        <ele>55.4</ele>
        <time>2021-11-25T12:37:22.000Z</time>
      </trkpt>
      <trkpt lat="47.9365" lon="-3.40151">
        <ele>55</ele>
        <time>2021-11-25T12:37:19.000Z</time>
      </trkpt>
      <trkpt lat="47.93651" lon="-3.40141">
        <ele>53.7</ele>
        <time>2021-11-25T12:37:16.000Z</time>
      </trkpt>
      <trkpt lat="47.93651" lon="-3.40131">
        <ele>53.7</ele>
        <time>2021-11-25T12:37:13.000Z</time>
      </trkpt>
      <trkpt lat="47.93652" lon="-3.40122">
        <ele>53.9</ele>
        <time>2021-11-25T12:37:10.000Z</time>
      </trkpt>
      <trkpt lat="47.93651" lon="-3.40114">
        <ele>51.9</ele>
        <time>2021-11-25T12:37:07.000Z</time>
      </trkpt>
      <trkpt lat="47.93653" lon="-3.40105">
        <ele>51.1</ele>
        <time>2021-11-25T12:37:04.000Z</time>
      </trkpt>
      <trkpt lat="47.93653" lon="-3.40096">
        <ele>51</ele>
        <time>2021-11-25T12:37:01.000Z</time>
      </trkpt>
      <trkpt lat="47.93654" lon="-3.40088">
        <ele>49.8</ele>
        <time>2021-11-25T12:36:58.000Z</time>
      </trkpt>
      <trkpt lat="47.93655" lon="-3.40079">
        <ele>49.7</ele>
        <time>2021-11-25T12:36:55.000Z</time>
      </trkpt>
      <trkpt lat="47.93655" lon="-3.40071">
        <ele>48.4</ele>
        <time>2021-11-25T12:36:52.000Z</time>
      </trkpt>
      <trkpt lat="47.93655" lon="-3.40063">
        <ele>48.8</ele>
        <time>2021-11-25T12:36:49.000Z</time>
      </trkpt>
      <trkpt lat="47.93655" lon="-3.40054">
        <ele>47.9</ele>
        <time>2021-11-25T12:36:46.000Z</time>
      </trkpt>
      <trkpt lat="47.93655" lon="-3.40046">
        <ele>47.7</ele>
        <time>2021-11-25T12:36:43.000Z</time>
      </trkpt>
      <trkpt lat="47.93654" lon="-3.40038">
        <ele>47.2</ele>
        <time>2021-11-25T12:36:40.000Z</time>
      </trkpt>
      <trkpt lat="47.93652" lon="-3.40031">
        <ele>45.7</ele>
        <time>2021-11-25T12:36:37.000Z</time>
      </trkpt>
      <trkpt lat="47.93652" lon="-3.40023">
        <ele>45.8</ele>
        <time>2021-11-25T12:36:34.000Z</time>
      </trkpt>
      <trkpt lat="47.93651" lon="-3.40014">
        <ele>45.2</ele>
        <time>2021-11-25T12:36:31.000Z</time>
      </trkpt>
      <trkpt lat="47.93648" lon="-3.40006">
        <ele>44.8</ele>
        <time>2021-11-25T12:36:28.000Z</time>
      </trkpt>
      <trkpt lat="47.93647" lon="-3.39998">
        <ele>43.1</ele>
        <time>2021-11-25T12:36:25.000Z</time>
      </trkpt>
      <trkpt lat="47.93647" lon="-3.3999">
        <ele>42.2</ele>
        <time>2021-11-25T12:36:22.000Z</time>
      </trkpt>
      <trkpt lat="47.93647" lon="-3.39983">
        <ele>42.1</ele>
        <time>2021-11-25T12:36:19.000Z</time>
      </trkpt>
      <trkpt lat="47.93647" lon="-3.39974">
        <ele>41.4</ele>
        <time>2021-11-25T12:36:16.000Z</time>
      </trkpt>
      <trkpt lat="47.93647" lon="-3.39963">
        <ele>41.3</ele>
        <time>2021-11-25T12:36:13.000Z</time>
      </trkpt>
      <trkpt lat="47.93645" lon="-3.39954">
        <ele>41.8</ele>
        <time>2021-11-25T12:36:10.000Z</time>
      </trkpt>
      <trkpt lat="47.93644" lon="-3.39947">
        <ele>39.7</ele>
        <time>2021-11-25T12:36:07.000Z</time>
      </trkpt>
      <trkpt lat="47.93642" lon="-3.3994">
        <ele>37.4</ele>
        <time>2021-11-25T12:36:04.000Z</time>
      </trkpt>
      <trkpt lat="47.93642" lon="-3.3993">
        <ele>38.1</ele>
        <time>2021-11-25T12:36:01.000Z</time>
      </trkpt>
      <trkpt lat="47.93641" lon="-3.39922">
        <ele>38.1</ele>
        <time>2021-11-25T12:35:58.000Z</time>
      </trkpt>
      <trkpt lat="47.93641" lon="-3.39915">
        <ele>38</ele>
        <time>2021-11-25T12:35:55.000Z</time>
      </trkpt>
      <trkpt lat="47.9364" lon="-3.3991">
        <ele>38</ele>
        <time>2021-11-25T12:35:52.000Z</time>
      </trkpt>
      <trkpt lat="47.9364" lon="-3.39909">
        <ele>37.7</ele>
        <time>2021-11-25T12:35:49.000Z</time>
      </trkpt>
      <trkpt lat="47.9364" lon="-3.39909">
        <ele>37.5</ele>
        <time>2021-11-25T12:35:46.000Z</time>
      </trkpt>
      <trkpt lat="47.9364" lon="-3.39909">
        <ele>37.7</ele>
        <time>2021-11-25T12:35:43.000Z</time>
      </trkpt>
      <trkpt lat="47.9364" lon="-3.39909">
        <ele>37.3</ele>
        <time>2021-11-25T12:35:40.000Z</time>
      </trkpt>
      <trkpt lat="47.9364" lon="-3.39909">
        <ele>37.1</ele>
        <time>2021-11-25T12:35:37.000Z</time>
      </trkpt>
      <trkpt lat="47.9364" lon="-3.39909">
        <ele>37.4</ele>
        <time>2021-11-25T12:35:34.000Z</time>
      </trkpt>
      <trkpt lat="47.9364" lon="-3.39909">
        <ele>37.3</ele>
        <time>2021-11-25T12:35:33.000Z</time>
      </trkpt>
      <trkpt lat="47.9364" lon="-3.39909">
        <ele>37.4</ele>
        <time>2021-11-25T12:35:32.000Z</time>
      </trkpt>
      <trkpt lat="47.9364" lon="-3.39909">
        <ele>37.3</ele>
        <time>2021-11-25T12:35:29.000Z</time>
      </trkpt>
      <trkpt lat="47.9364" lon="-3.39909">
        <ele>37.3</ele>
        <time>2021-11-25T12:35:26.000Z</time>
      </trkpt>
      <trkpt lat="47.9364" lon="-3.39909">
        <ele>37.5</ele>
        <time>2021-11-25T12:35:23.000Z</time>
      </trkpt>
      <trkpt lat="47.9364" lon="-3.39909">
        <ele>37.6</ele>
        <time>2021-11-25T12:35:20.000Z</time>
      </trkpt>
      <trkpt lat="47.9364" lon="-3.39909">
        <ele>37.7</ele>
        <time>2021-11-25T12:35:19.000Z</time>
      </trkpt>
      <trkpt lat="47.9364" lon="-3.39909">
        <ele>37.9</ele>
        <time>2021-11-25T12:35:17.000Z</time>
      </trkpt>
      <trkpt lat="47.9364" lon="-3.39909">
        <ele>37.7</ele>
        <time>2021-11-25T12:35:14.000Z</time>
      </trkpt>
      <trkpt lat="47.9364" lon="-3.39909">
        <ele>37.9</ele>
        <time>2021-11-25T12:35:12.000Z</time>
      </trkpt>
      <trkpt lat="47.9364" lon="-3.39908">
        <ele>37.6</ele>
        <time>2021-11-25T12:35:10.000Z</time>
      </trkpt>
      <trkpt lat="47.9364" lon="-3.39908">
        <ele>37.4</ele>
        <time>2021-11-25T12:35:07.000Z</time>
      </trkpt>
      <trkpt lat="47.9364" lon="-3.39908">
        <ele>37.6</ele>
        <time>2021-11-25T12:35:04.000Z</time>
      </trkpt>
      <trkpt lat="47.9364" lon="-3.39908">
        <ele>37.4</ele>
        <time>2021-11-25T12:35:01.000Z</time>
      </trkpt>
      <trkpt lat="47.9364" lon="-3.39908">
        <ele>37.6</ele>
        <time>2021-11-25T12:34:58.000Z</time>
      </trkpt>
      <trkpt lat="47.9364" lon="-3.39908">
        <ele>37.5</ele>
        <time>2021-11-25T12:34:55.000Z</time>
      </trkpt>
      <trkpt lat="47.9364" lon="-3.39908">
        <ele>37.4</ele>
        <time>2021-11-25T12:34:52.000Z</time>
      </trkpt>
      <trkpt lat="47.9364" lon="-3.39908">
        <ele>37.2</ele>
        <time>2021-11-25T12:34:49.000Z</time>
      </trkpt>
      <trkpt lat="47.9364" lon="-3.39908">
        <ele>37.2</ele>
        <time>2021-11-25T12:34:46.000Z</time>
      </trkpt>
      <trkpt lat="47.9364" lon="-3.39908">
        <ele>37.3</ele>
        <time>2021-11-25T12:34:43.000Z</time>
      </trkpt>
      <trkpt lat="47.9364" lon="-3.39908">
        <ele>37.3</ele>
        <time>2021-11-25T12:34:42.000Z</time>
      </trkpt>
      <trkpt lat="47.9364" lon="-3.39908">
        <ele>37.3</ele>
        <time>2021-11-25T12:34:39.000Z</time>
      </trkpt>
      <trkpt lat="47.9364" lon="-3.39908">
        <ele>37.3</ele>
        <time>2021-11-25T12:34:36.000Z</time>
      </trkpt>
      <trkpt lat="47.9364" lon="-3.39908">
        <ele>37.5</ele>
        <time>2021-11-25T12:34:33.000Z</time>
      </trkpt>
      <trkpt lat="47.9364" lon="-3.39908">
        <ele>37.6</ele>
        <time>2021-11-25T12:34:30.000Z</time>
      </trkpt>
      <trkpt lat="47.9364" lon="-3.39908">
        <ele>37.7</ele>
        <time>2021-11-25T12:34:29.000Z</time>
      </trkpt>
      <trkpt lat="47.9364" lon="-3.39908">
        <ele>37.5</ele>
        <time>2021-11-25T12:34:26.000Z</time>
      </trkpt>
      <trkpt lat="47.9364" lon="-3.39908">
        <ele>37.2</ele>
        <time>2021-11-25T12:34:23.000Z</time>
      </trkpt>
      <trkpt lat="47.9364" lon="-3.39908">
        <ele>37.2</ele>
        <time>2021-11-25T12:34:20.000Z</time>
      </trkpt>
      <trkpt lat="47.9364" lon="-3.39908">
        <ele>37.5</ele>
        <time>2021-11-25T12:34:17.000Z</time>
      </trkpt>
      <trkpt lat="47.9364" lon="-3.39908">
        <ele>37.3</ele>
        <time>2021-11-25T12:34:14.000Z</time>
      </trkpt>
      <trkpt lat="47.9364" lon="-3.39908">
        <ele>37.4</ele>
        <time>2021-11-25T12:34:11.000Z</time>
      </trkpt>
      <trkpt lat="47.9364" lon="-3.39908">
        <ele>37.3</ele>
        <time>2021-11-25T12:34:08.000Z</time>
      </trkpt>
      <trkpt lat="47.9364" lon="-3.39908">
        <ele>37.3</ele>
        <time>2021-11-25T12:34:05.000Z</time>
      </trkpt>
      <trkpt lat="47.9364" lon="-3.39908">
        <ele>37.4</ele>
        <time>2021-11-25T12:34:04.000Z</time>
      </trkpt>
      <trkpt lat="47.9364" lon="-3.39908">
        <ele>37.5</ele>
        <time>2021-11-25T12:34:01.000Z</time>
      </trkpt>
      <trkpt lat="47.9364" lon="-3.39908">
        <ele>37.5</ele>
        <time>2021-11-25T12:33:58.000Z</time>
      </trkpt>
      <trkpt lat="47.9364" lon="-3.39908">
        <ele>37.3</ele>
        <time>2021-11-25T12:33:55.000Z</time>
      </trkpt>
      <trkpt lat="47.9364" lon="-3.39908">
        <ele>37.3</ele>
        <time>2021-11-25T12:33:52.000Z</time>
      </trkpt>
      <trkpt lat="47.9364" lon="-3.39908">
        <ele>37.3</ele>
        <time>2021-11-25T12:33:49.000Z</time>
      </trkpt>
      <trkpt lat="47.9364" lon="-3.39908">
        <ele>37.3</ele>
        <time>2021-11-25T12:33:46.000Z</time>
      </trkpt>
      <trkpt lat="47.9364" lon="-3.39908">
        <ele>37.3</ele>
        <time>2021-11-25T12:33:43.000Z</time>
      </trkpt>
      <trkpt lat="47.9364" lon="-3.39908">
        <ele>37.2</ele>
        <time>2021-11-25T12:33:40.000Z</time>
      </trkpt>
      <trkpt lat="47.9364" lon="-3.39908">
        <ele>37.2</ele>
        <time>2021-11-25T12:33:37.000Z</time>
      </trkpt>
      <trkpt lat="47.9364" lon="-3.39908">
        <ele>37.2</ele>
        <time>2021-11-25T12:33:36.000Z</time>
      </trkpt>
      <trkpt lat="47.93641" lon="-3.39908">
        <ele>37</ele>
        <time>2021-11-25T12:33:34.000Z</time>
      </trkpt>
      <trkpt lat="47.93641" lon="-3.39908">
        <ele>36.9</ele>
        <time>2021-11-25T12:33:31.000Z</time>
      </trkpt>
      <trkpt lat="47.93641" lon="-3.39908">
        <ele>37.1</ele>
        <time>2021-11-25T12:33:28.000Z</time>
      </trkpt>
      <trkpt lat="47.93641" lon="-3.39908">
        <ele>37</ele>
        <time>2021-11-25T12:33:25.000Z</time>
      </trkpt>
      <trkpt lat="47.93641" lon="-3.39907">
        <ele>37</ele>
        <time>2021-11-25T12:33:22.000Z</time>
      </trkpt>
      <trkpt lat="47.93641" lon="-3.39907">
        <ele>37.2</ele>
        <time>2021-11-25T12:33:19.000Z</time>
      </trkpt>
      <trkpt lat="47.93641" lon="-3.39907">
        <ele>37.2</ele>
        <time>2021-11-25T12:33:16.000Z</time>
      </trkpt>
      <trkpt lat="47.93641" lon="-3.39907">
        <ele>37</ele>
        <time>2021-11-25T12:33:13.000Z</time>
      </trkpt>
      <trkpt lat="47.93641" lon="-3.39907">
        <ele>36.5</ele>
        <time>2021-11-25T12:33:10.000Z</time>
      </trkpt>
      <trkpt lat="47.93641" lon="-3.39907">
        <ele>36.6</ele>
        <time>2021-11-25T12:33:09.000Z</time>
      </trkpt>
      <trkpt lat="47.93641" lon="-3.39907">
        <ele>36.9</ele>
        <time>2021-11-25T12:33:07.000Z</time>
      </trkpt>
      <trkpt lat="47.93641" lon="-3.39907">
        <ele>36.9</ele>
        <time>2021-11-25T12:33:04.000Z</time>
      </trkpt>
      <trkpt lat="47.93641" lon="-3.39907">
        <ele>36.8</ele>
        <time>2021-11-25T12:33:01.000Z</time>
      </trkpt>
      <trkpt lat="47.93641" lon="-3.39907">
        <ele>37.1</ele>
        <time>2021-11-25T12:32:58.000Z</time>
      </trkpt>
      <trkpt lat="47.93641" lon="-3.39907">
        <ele>37</ele>
        <time>2021-11-25T12:32:55.000Z</time>
      </trkpt>
      <trkpt lat="47.93641" lon="-3.39907">
        <ele>36.9</ele>
        <time>2021-11-25T12:32:52.000Z</time>
      </trkpt>
      <trkpt lat="47.93641" lon="-3.39907">
        <ele>37</ele>
        <time>2021-11-25T12:32:49.000Z</time>
      </trkpt>
      <trkpt lat="47.93641" lon="-3.39907">
        <ele>37.1</ele>
        <time>2021-11-25T12:32:46.000Z</time>
      </trkpt>
      <trkpt lat="47.93641" lon="-3.39907">
        <ele>37</ele>
        <time>2021-11-25T12:32:43.000Z</time>
      </trkpt>
      <trkpt lat="47.93641" lon="-3.39907">
        <ele>36.8</ele>
        <time>2021-11-25T12:32:40.000Z</time>
      </trkpt>
      <trkpt lat="47.93641" lon="-3.39907">
        <ele>37</ele>
        <time>2021-11-25T12:32:37.000Z</time>
      </trkpt>
      <trkpt lat="47.93641" lon="-3.39907">
        <ele>36.9</ele>
        <time>2021-11-25T12:32:34.000Z</time>
      </trkpt>
      <trkpt lat="47.93641" lon="-3.39907">
        <ele>36.9</ele>
        <time>2021-11-25T12:32:31.000Z</time>
      </trkpt>
      <trkpt lat="47.93641" lon="-3.39907">
        <ele>36.6</ele>
        <time>2021-11-25T12:32:28.000Z</time>
      </trkpt>
      <trkpt lat="47.93641" lon="-3.39907">
        <ele>36.4</ele>
        <time>2021-11-25T12:32:25.000Z</time>
      </trkpt>
      <trkpt lat="47.93641" lon="-3.39907">
        <ele>36.8</ele>
        <time>2021-11-25T12:32:22.000Z</time>
      </trkpt>
      <trkpt lat="47.93641" lon="-3.39907">
        <ele>36.7</ele>
        <time>2021-11-25T12:32:19.000Z</time>
      </trkpt>
      <trkpt lat="47.93641" lon="-3.39907">
        <ele>36.6</ele>
        <time>2021-11-25T12:32:16.000Z</time>
      </trkpt>
      <trkpt lat="47.93641" lon="-3.39907">
        <ele>36.6</ele>
        <time>2021-11-25T12:32:13.000Z</time>
      </trkpt>
      <trkpt lat="47.93641" lon="-3.39907">
        <ele>36.8</ele>
        <time>2021-11-25T12:32:10.000Z</time>
      </trkpt>
      <trkpt lat="47.93641" lon="-3.39907">
        <ele>36.6</ele>
        <time>2021-11-25T12:32:07.000Z</time>
      </trkpt>
      <trkpt lat="47.93641" lon="-3.39907">
        <ele>36.7</ele>
        <time>2021-11-25T12:32:05.000Z</time>
      </trkpt>
      <trkpt lat="47.93641" lon="-3.39907">
        <ele>36.7</ele>
        <time>2021-11-25T12:32:04.000Z</time>
      </trkpt>
      <trkpt lat="47.93641" lon="-3.39907">
        <ele>36.9</ele>
        <time>2021-11-25T12:32:01.000Z</time>
      </trkpt>
      <trkpt lat="47.93641" lon="-3.39907">
        <ele>36.8</ele>
        <time>2021-11-25T12:31:58.000Z</time>
      </trkpt>
      <trkpt lat="47.93641" lon="-3.39907">
        <ele>36.6</ele>
        <time>2021-11-25T12:31:55.000Z</time>
      </trkpt>
      <trkpt lat="47.93641" lon="-3.39907">
        <ele>36.5</ele>
        <time>2021-11-25T12:31:52.000Z</time>
      </trkpt>
      <trkpt lat="47.93641" lon="-3.39907">
        <ele>36.4</ele>
        <time>2021-11-25T12:31:49.000Z</time>
      </trkpt>
      <trkpt lat="47.93641" lon="-3.39907">
        <ele>36.5</ele>
        <time>2021-11-25T12:31:46.000Z</time>
      </trkpt>
      <trkpt lat="47.93641" lon="-3.39907">
        <ele>36.7</ele>
        <time>2021-11-25T12:31:43.000Z</time>
      </trkpt>
      <trkpt lat="47.93641" lon="-3.39907">
        <ele>36.8</ele>
        <time>2021-11-25T12:31:40.000Z</time>
      </trkpt>
      <trkpt lat="47.93641" lon="-3.39907">
        <ele>36.7</ele>
        <time>2021-11-25T12:31:37.000Z</time>
      </trkpt>
      <trkpt lat="47.93641" lon="-3.39907">
        <ele>37</ele>
        <time>2021-11-25T12:31:34.000Z</time>
      </trkpt>
      <trkpt lat="47.93641" lon="-3.39907">
        <ele>37</ele>
        <time>2021-11-25T12:31:31.000Z</time>
      </trkpt>
      <trkpt lat="47.93641" lon="-3.39907">
        <ele>37.1</ele>
        <time>2021-11-25T12:31:28.000Z</time>
      </trkpt>
      <trkpt lat="47.93641" lon="-3.39907">
        <ele>37</ele>
        <time>2021-11-25T12:31:25.000Z</time>
      </trkpt>
      <trkpt lat="47.93641" lon="-3.39907">
        <ele>37.2</ele>
        <time>2021-11-25T12:31:22.000Z</time>
      </trkpt>
      <trkpt lat="47.93641" lon="-3.39907">
        <ele>37.1</ele>
        <time>2021-11-25T12:31:19.000Z</time>
      </trkpt>
      <trkpt lat="47.93641" lon="-3.39907">
        <ele>36.9</ele>
        <time>2021-11-25T12:31:16.000Z</time>
      </trkpt>
      <trkpt lat="47.93641" lon="-3.39907">
        <ele>36.9</ele>
        <time>2021-11-25T12:31:13.000Z</time>
      </trkpt>
      <trkpt lat="47.93641" lon="-3.39907">
        <ele>37.1</ele>
        <time>2021-11-25T12:31:10.000Z</time>
      </trkpt>
      <trkpt lat="47.93641" lon="-3.39907">
        <ele>37.1</ele>
        <time>2021-11-25T12:31:09.000Z</time>
      </trkpt>
      <trkpt lat="47.93641" lon="-3.39907">
        <ele>36.7</ele>
        <time>2021-11-25T12:31:06.000Z</time>
      </trkpt>
      <trkpt lat="47.93641" lon="-3.39907">
        <ele>36.7</ele>
        <time>2021-11-25T12:31:03.000Z</time>
      </trkpt>
      <trkpt lat="47.93641" lon="-3.39907">
        <ele>36.8</ele>
        <time>2021-11-25T12:31:00.000Z</time>
      </trkpt>
      <trkpt lat="47.93641" lon="-3.39907">
        <ele>36.8</ele>
        <time>2021-11-25T12:30:57.000Z</time>
      </trkpt>
      <trkpt lat="47.93641" lon="-3.39907">
        <ele>36.5</ele>
        <time>2021-11-25T12:30:54.000Z</time>
      </trkpt>
      <trkpt lat="47.93641" lon="-3.39907">
        <ele>37</ele>
        <time>2021-11-25T12:30:51.000Z</time>
      </trkpt>
      <trkpt lat="47.93641" lon="-3.39907">
        <ele>36.7</ele>
        <time>2021-11-25T12:30:48.000Z</time>
      </trkpt>
      <trkpt lat="47.93641" lon="-3.39907">
        <ele>36.7</ele>
        <time>2021-11-25T12:30:45.000Z</time>
      </trkpt>
      <trkpt lat="47.93641" lon="-3.39907">
        <ele>36.9</ele>
        <time>2021-11-25T12:30:42.000Z</time>
      </trkpt>
      <trkpt lat="47.93641" lon="-3.39907">
        <ele>36.8</ele>
        <time>2021-11-25T12:30:39.000Z</time>
      </trkpt>
      <trkpt lat="47.93641" lon="-3.39907">
        <ele>36.8</ele>
        <time>2021-11-25T12:30:36.000Z</time>
      </trkpt>
      <trkpt lat="47.93641" lon="-3.39907">
        <ele>36.8</ele>
        <time>2021-11-25T12:30:33.000Z</time>
      </trkpt>
      <trkpt lat="47.93641" lon="-3.39907">
        <ele>36.9</ele>
        <time>2021-11-25T12:30:30.000Z</time>
      </trkpt>
      <trkpt lat="47.9364" lon="-3.39907">
        <ele>36.8</ele>
        <time>2021-11-25T12:30:28.000Z</time>
      </trkpt>
      <trkpt lat="47.9364" lon="-3.39907">
        <ele>36.8</ele>
        <time>2021-11-25T12:30:27.000Z</time>
      </trkpt>
      <trkpt lat="47.9364" lon="-3.39907">
        <ele>36.7</ele>
        <time>2021-11-25T12:30:24.000Z</time>
      </trkpt>
      <trkpt lat="47.9364" lon="-3.39907">
        <ele>36.7</ele>
        <time>2021-11-25T12:30:21.000Z</time>
      </trkpt>
      <trkpt lat="47.9364" lon="-3.39907">
        <ele>36.9</ele>
        <time>2021-11-25T12:30:20.000Z</time>
      </trkpt>
      <trkpt lat="47.9364" lon="-3.39907">
        <ele>37</ele>
        <time>2021-11-25T12:30:18.000Z</time>
      </trkpt>
      <trkpt lat="47.93639" lon="-3.39905">
        <ele>36.2</ele>
        <time>2021-11-25T12:30:16.000Z</time>
      </trkpt>
      <trkpt lat="47.93637" lon="-3.39896">
        <ele>35.4</ele>
        <time>2021-11-25T12:30:13.000Z</time>
      </trkpt>
      <trkpt lat="47.93636" lon="-3.39887">
        <ele>33.6</ele>
        <time>2021-11-25T12:30:10.000Z</time>
      </trkpt>
      <trkpt lat="47.93638" lon="-3.39875">
        <ele>35.4</ele>
        <time>2021-11-25T12:30:07.000Z</time>
      </trkpt>
      <trkpt lat="47.93639" lon="-3.39862">
        <ele>36.2</ele>
        <time>2021-11-25T12:30:04.000Z</time>
      </trkpt>
      <trkpt lat="47.9364" lon="-3.39846">
        <ele>35.9</ele>
        <time>2021-11-25T12:30:01.000Z</time>
      </trkpt>
      <trkpt lat="47.93639" lon="-3.39837">
        <ele>35.9</ele>
        <time>2021-11-25T12:29:58.000Z</time>
      </trkpt>
      <trkpt lat="47.93644" lon="-3.39834">
        <ele>38.1</ele>
        <time>2021-11-25T12:29:55.000Z</time>
      </trkpt>
      <trkpt lat="47.93651" lon="-3.39833">
        <ele>37.4</ele>
        <time>2021-11-25T12:29:52.000Z</time>
      </trkpt>
      <trkpt lat="47.9366" lon="-3.39837">
        <ele>36.8</ele>
        <time>2021-11-25T12:29:49.000Z</time>
      </trkpt>
      <trkpt lat="47.9367" lon="-3.39839">
        <ele>37</ele>
        <time>2021-11-25T12:29:46.000Z</time>
      </trkpt>
      <trkpt lat="47.93685" lon="-3.39842">
        <ele>39.2</ele>
        <time>2021-11-25T12:29:43.000Z</time>
      </trkpt>
      <trkpt lat="47.93704" lon="-3.39845">
        <ele>38.8</ele>
        <time>2021-11-25T12:29:40.000Z</time>
      </trkpt>
      <trkpt lat="47.93715" lon="-3.39848">
        <ele>38</ele>
        <time>2021-11-25T12:29:37.000Z</time>
      </trkpt>
      <trkpt lat="47.93722" lon="-3.39853">
        <ele>39.2</ele>
        <time>2021-11-25T12:29:34.000Z</time>
      </trkpt>
      <trkpt lat="47.93731" lon="-3.39859">
        <ele>38</ele>
        <time>2021-11-25T12:29:31.000Z</time>
      </trkpt>
      <trkpt lat="47.93739" lon="-3.39866">
        <ele>37.7</ele>
        <time>2021-11-25T12:29:28.000Z</time>
      </trkpt>
      <trkpt lat="47.93747" lon="-3.39869">
        <ele>38.4</ele>
        <time>2021-11-25T12:29:25.000Z</time>
      </trkpt>
      <trkpt lat="47.93754" lon="-3.39871">
        <ele>37.9</ele>
        <time>2021-11-25T12:29:22.000Z</time>
      </trkpt>
      <trkpt lat="47.93762" lon="-3.39873">
        <ele>37.8</ele>
        <time>2021-11-25T12:29:19.000Z</time>
      </trkpt>
      <trkpt lat="47.93769" lon="-3.39878">
        <ele>38.2</ele>
        <time>2021-11-25T12:29:16.000Z</time>
      </trkpt>
      <trkpt lat="47.93776" lon="-3.39883">
        <ele>35.8</ele>
        <time>2021-11-25T12:29:13.000Z</time>
      </trkpt>
      <trkpt lat="47.93783" lon="-3.39887">
        <ele>36.5</ele>
        <time>2021-11-25T12:29:10.000Z</time>
      </trkpt>
      <trkpt lat="47.93791" lon="-3.3989">
        <ele>38.6</ele>
        <time>2021-11-25T12:29:07.000Z</time>
      </trkpt>
      <trkpt lat="47.93797" lon="-3.39893">
        <ele>37</ele>
        <time>2021-11-25T12:29:04.000Z</time>
      </trkpt>
      <trkpt lat="47.93801" lon="-3.39897">
        <ele>37.4</ele>
        <time>2021-11-25T12:29:01.000Z</time>
      </trkpt>
      <trkpt lat="47.93807" lon="-3.399">
        <ele>34.9</ele>
        <time>2021-11-25T12:28:58.000Z</time>
      </trkpt>
      <trkpt lat="47.93812" lon="-3.39906">
        <ele>32.9</ele>
        <time>2021-11-25T12:28:55.000Z</time>
      </trkpt>
      <trkpt lat="47.93819" lon="-3.39911">
        <ele>34.8</ele>
        <time>2021-11-25T12:28:52.000Z</time>
      </trkpt>
      <trkpt lat="47.93829" lon="-3.39917">
        <ele>35.2</ele>
        <time>2021-11-25T12:28:49.000Z</time>
      </trkpt>
      <trkpt lat="47.93837" lon="-3.3992">
        <ele>35.4</ele>
        <time>2021-11-25T12:28:46.000Z</time>
      </trkpt>
      <trkpt lat="47.93844" lon="-3.39923">
        <ele>34.2</ele>
        <time>2021-11-25T12:28:43.000Z</time>
      </trkpt>
      <trkpt lat="47.93857" lon="-3.39923">
        <ele>35.1</ele>
        <time>2021-11-25T12:28:40.000Z</time>
      </trkpt>
      <trkpt lat="47.93868" lon="-3.39922">
        <ele>35.2</ele>
        <time>2021-11-25T12:28:37.000Z</time>
      </trkpt>
      <trkpt lat="47.93877" lon="-3.39922">
        <ele>35.9</ele>
        <time>2021-11-25T12:28:34.000Z</time>
      </trkpt>
      <trkpt lat="47.9388" lon="-3.39927">
        <ele>34.2</ele>
        <time>2021-11-25T12:28:31.000Z</time>
      </trkpt>
      <trkpt lat="47.93886" lon="-3.39931">
        <ele>37.1</ele>
        <time>2021-11-25T12:28:28.000Z</time>
      </trkpt>
      <trkpt lat="47.93893" lon="-3.39934">
        <ele>35.9</ele>
        <time>2021-11-25T12:28:25.000Z</time>
      </trkpt>
      <trkpt lat="47.939" lon="-3.39937">
        <ele>36.2</ele>
        <time>2021-11-25T12:28:22.000Z</time>
      </trkpt>
      <trkpt lat="47.93906" lon="-3.3994">
        <ele>33.7</ele>
        <time>2021-11-25T12:28:19.000Z</time>
      </trkpt>
      <trkpt lat="47.93912" lon="-3.39947">
        <ele>33.4</ele>
        <time>2021-11-25T12:28:16.000Z</time>
      </trkpt>
      <trkpt lat="47.93919" lon="-3.39958">
        <ele>34.7</ele>
        <time>2021-11-25T12:28:13.000Z</time>
      </trkpt>
      <trkpt lat="47.93928" lon="-3.39963">
        <ele>35</ele>
        <time>2021-11-25T12:28:10.000Z</time>
      </trkpt>
      <trkpt lat="47.93941" lon="-3.39965">
        <ele>35.7</ele>
        <time>2021-11-25T12:28:07.000Z</time>
      </trkpt>
      <trkpt lat="47.93952" lon="-3.39969">
        <ele>34.8</ele>
        <time>2021-11-25T12:28:04.000Z</time>
      </trkpt>
      <trkpt lat="47.93963" lon="-3.39968">
        <ele>35.2</ele>
        <time>2021-11-25T12:28:01.000Z</time>
      </trkpt>
      <trkpt lat="47.93972" lon="-3.39973">
        <ele>35.8</ele>
        <time>2021-11-25T12:27:58.000Z</time>
      </trkpt>
      <trkpt lat="47.93982" lon="-3.39979">
        <ele>37</ele>
        <time>2021-11-25T12:27:55.000Z</time>
      </trkpt>
      <trkpt lat="47.93993" lon="-3.39986">
        <ele>35.1</ele>
        <time>2021-11-25T12:27:52.000Z</time>
      </trkpt>
      <trkpt lat="47.94004" lon="-3.39991">
        <ele>34.2</ele>
        <time>2021-11-25T12:27:49.000Z</time>
      </trkpt>
      <trkpt lat="47.94015" lon="-3.39992">
        <ele>36.4</ele>
        <time>2021-11-25T12:27:46.000Z</time>
      </trkpt>
      <trkpt lat="47.94025" lon="-3.39988">
        <ele>35.6</ele>
        <time>2021-11-25T12:27:43.000Z</time>
      </trkpt>
      <trkpt lat="47.94036" lon="-3.39989">
        <ele>35.8</ele>
        <time>2021-11-25T12:27:40.000Z</time>
      </trkpt>
      <trkpt lat="47.94044" lon="-3.3999">
        <ele>35.8</ele>
        <time>2021-11-25T12:27:37.000Z</time>
      </trkpt>
      <trkpt lat="47.94049" lon="-3.39992">
        <ele>35.2</ele>
        <time>2021-11-25T12:27:34.000Z</time>
      </trkpt>
      <trkpt lat="47.94055" lon="-3.39993">
        <ele>34.9</ele>
        <time>2021-11-25T12:27:31.000Z</time>
      </trkpt>
      <trkpt lat="47.94061" lon="-3.39997">
        <ele>36.9</ele>
        <time>2021-11-25T12:27:28.000Z</time>
      </trkpt>
      <trkpt lat="47.94066" lon="-3.40002">
        <ele>36.5</ele>
        <time>2021-11-25T12:27:25.000Z</time>
      </trkpt>
      <trkpt lat="47.94072" lon="-3.40007">
        <ele>34.9</ele>
        <time>2021-11-25T12:27:22.000Z</time>
      </trkpt>
      <trkpt lat="47.94077" lon="-3.40013">
        <ele>34.9</ele>
        <time>2021-11-25T12:27:19.000Z</time>
      </trkpt>
      <trkpt lat="47.94084" lon="-3.40016">
        <ele>36.2</ele>
        <time>2021-11-25T12:27:16.000Z</time>
      </trkpt>
      <trkpt lat="47.9409" lon="-3.40015">
        <ele>33</ele>
        <time>2021-11-25T12:27:13.000Z</time>
      </trkpt>
      <trkpt lat="47.94097" lon="-3.40013">
        <ele>36.8</ele>
        <time>2021-11-25T12:27:10.000Z</time>
      </trkpt>
      <trkpt lat="47.94104" lon="-3.40016">
        <ele>36.8</ele>
        <time>2021-11-25T12:27:07.000Z</time>
      </trkpt>
      <trkpt lat="47.94111" lon="-3.40021">
        <ele>36.9</ele>
        <time>2021-11-25T12:27:04.000Z</time>
      </trkpt>
      <trkpt lat="47.94119" lon="-3.40029">
        <ele>36.1</ele>
        <time>2021-11-25T12:27:01.000Z</time>
      </trkpt>
      <trkpt lat="47.94125" lon="-3.40035">
        <ele>35.2</ele>
        <time>2021-11-25T12:26:58.000Z</time>
      </trkpt>
      <trkpt lat="47.94127" lon="-3.40037">
        <ele>36.3</ele>
        <time>2021-11-25T12:26:55.000Z</time>
      </trkpt>
      <trkpt lat="47.94127" lon="-3.40038">
        <ele>36.5</ele>
        <time>2021-11-25T12:26:54.000Z</time>
      </trkpt>
      <trkpt lat="47.94127" lon="-3.40038">
        <ele>36.5</ele>
        <time>2021-11-25T12:26:53.000Z</time>
      </trkpt>
      <trkpt lat="47.94126" lon="-3.40038">
        <ele>36.3</ele>
        <time>2021-11-25T12:26:50.000Z</time>
      </trkpt>
      <trkpt lat="47.94126" lon="-3.40038">
        <ele>36.2</ele>
        <time>2021-11-25T12:26:47.000Z</time>
      </trkpt>
      <trkpt lat="47.94126" lon="-3.40038">
        <ele>36.4</ele>
        <time>2021-11-25T12:26:44.000Z</time>
      </trkpt>
      <trkpt lat="47.94126" lon="-3.40038">
        <ele>36.4</ele>
        <time>2021-11-25T12:26:41.000Z</time>
      </trkpt>
      <trkpt lat="47.94126" lon="-3.40038">
        <ele>36</ele>
        <time>2021-11-25T12:26:38.000Z</time>
      </trkpt>
      <trkpt lat="47.94126" lon="-3.40038">
        <ele>36.1</ele>
        <time>2021-11-25T12:26:35.000Z</time>
      </trkpt>
      <trkpt lat="47.94126" lon="-3.40038">
        <ele>36.2</ele>
        <time>2021-11-25T12:26:32.000Z</time>
      </trkpt>
      <trkpt lat="47.94126" lon="-3.40038">
        <ele>36.1</ele>
        <time>2021-11-25T12:26:29.000Z</time>
      </trkpt>
      <trkpt lat="47.94126" lon="-3.40038">
        <ele>36</ele>
        <time>2021-11-25T12:26:26.000Z</time>
      </trkpt>
      <trkpt lat="47.94126" lon="-3.40038">
        <ele>36.1</ele>
        <time>2021-11-25T12:26:25.000Z</time>
      </trkpt>
      <trkpt lat="47.94126" lon="-3.40039">
        <ele>36.1</ele>
        <time>2021-11-25T12:26:24.000Z</time>
      </trkpt>
      <trkpt lat="47.94126" lon="-3.40039">
        <ele>35.7</ele>
        <time>2021-11-25T12:26:21.000Z</time>
      </trkpt>
      <trkpt lat="47.94126" lon="-3.40039">
        <ele>36.1</ele>
        <time>2021-11-25T12:26:18.000Z</time>
      </trkpt>
      <trkpt lat="47.94126" lon="-3.40039">
        <ele>36.3</ele>
        <time>2021-11-25T12:26:15.000Z</time>
      </trkpt>
      <trkpt lat="47.94126" lon="-3.40039">
        <ele>36.1</ele>
        <time>2021-11-25T12:26:12.000Z</time>
      </trkpt>
      <trkpt lat="47.94126" lon="-3.40039">
        <ele>36.3</ele>
        <time>2021-11-25T12:26:09.000Z</time>
      </trkpt>
      <trkpt lat="47.94126" lon="-3.40039">
        <ele>36.1</ele>
        <time>2021-11-25T12:26:06.000Z</time>
      </trkpt>
      <trkpt lat="47.94127" lon="-3.40039">
        <ele>36</ele>
        <time>2021-11-25T12:26:03.000Z</time>
      </trkpt>
      <trkpt lat="47.94133" lon="-3.40038">
        <ele>35.8</ele>
        <time>2021-11-25T12:26:00.000Z</time>
      </trkpt>
      <trkpt lat="47.94139" lon="-3.4004">
        <ele>36.1</ele>
        <time>2021-11-25T12:25:57.000Z</time>
      </trkpt>
      <trkpt lat="47.94146" lon="-3.40041">
        <ele>36.5</ele>
        <time>2021-11-25T12:25:54.000Z</time>
      </trkpt>
      <trkpt lat="47.94149" lon="-3.40041">
        <ele>35</ele>
        <time>2021-11-25T12:25:51.000Z</time>
      </trkpt>
      <trkpt lat="47.94151" lon="-3.40043">
        <ele>35.9</ele>
        <time>2021-11-25T12:25:48.000Z</time>
      </trkpt>
      <trkpt lat="47.94151" lon="-3.40047">
        <ele>35.9</ele>
        <time>2021-11-25T12:25:45.000Z</time>
      </trkpt>
      <trkpt lat="47.94155" lon="-3.40052">
        <ele>34.4</ele>
        <time>2021-11-25T12:25:42.000Z</time>
      </trkpt>
      <trkpt lat="47.94167" lon="-3.40059">
        <ele>36.3</ele>
        <time>2021-11-25T12:25:39.000Z</time>
      </trkpt>
      <trkpt lat="47.94178" lon="-3.40064">
        <ele>34</ele>
        <time>2021-11-25T12:25:36.000Z</time>
      </trkpt>
      <trkpt lat="47.94189" lon="-3.40068">
        <ele>36.2</ele>
        <time>2021-11-25T12:25:33.000Z</time>
      </trkpt>
      <trkpt lat="47.94195" lon="-3.40074">
        <ele>36.6</ele>
        <time>2021-11-25T12:25:30.000Z</time>
      </trkpt>
      <trkpt lat="47.94207" lon="-3.40082">
        <ele>36.5</ele>
        <time>2021-11-25T12:25:27.000Z</time>
      </trkpt>
      <trkpt lat="47.94219" lon="-3.40087">
        <ele>32.9</ele>
        <time>2021-11-25T12:25:24.000Z</time>
      </trkpt>
      <trkpt lat="47.9423" lon="-3.4009">
        <ele>35.2</ele>
        <time>2021-11-25T12:25:21.000Z</time>
      </trkpt>
      <trkpt lat="47.9424" lon="-3.40093">
        <ele>37.4</ele>
        <time>2021-11-25T12:25:18.000Z</time>
      </trkpt>
      <trkpt lat="47.94249" lon="-3.40099">
        <ele>36</ele>
        <time>2021-11-25T12:25:15.000Z</time>
      </trkpt>
      <trkpt lat="47.94257" lon="-3.40103">
        <ele>35.5</ele>
        <time>2021-11-25T12:25:12.000Z</time>
      </trkpt>
      <trkpt lat="47.94265" lon="-3.40104">
        <ele>35.3</ele>
        <time>2021-11-25T12:25:09.000Z</time>
      </trkpt>
      <trkpt lat="47.9427" lon="-3.40106">
        <ele>35.7</ele>
        <time>2021-11-25T12:25:06.000Z</time>
      </trkpt>
      <trkpt lat="47.94276" lon="-3.40106">
        <ele>36.8</ele>
        <time>2021-11-25T12:25:03.000Z</time>
      </trkpt>
      <trkpt lat="47.94283" lon="-3.40107">
        <ele>32.1</ele>
        <time>2021-11-25T12:25:00.000Z</time>
      </trkpt>
      <trkpt lat="47.94292" lon="-3.40111">
        <ele>35.8</ele>
        <time>2021-11-25T12:24:57.000Z</time>
      </trkpt>
      <trkpt lat="47.94301" lon="-3.40115">
        <ele>35.5</ele>
        <time>2021-11-25T12:24:54.000Z</time>
      </trkpt>
      <trkpt lat="47.9431" lon="-3.40123">
        <ele>33.7</ele>
        <time>2021-11-25T12:24:51.000Z</time>
      </trkpt>
      <trkpt lat="47.94324" lon="-3.40134">
        <ele>36.6</ele>
        <time>2021-11-25T12:24:48.000Z</time>
      </trkpt>
      <trkpt lat="47.94334" lon="-3.40143">
        <ele>38.1</ele>
        <time>2021-11-25T12:24:45.000Z</time>
      </trkpt>
      <trkpt lat="47.94348" lon="-3.40152">
        <ele>35.1</ele>
        <time>2021-11-25T12:24:42.000Z</time>
      </trkpt>
      <trkpt lat="47.94361" lon="-3.40154">
        <ele>37.5</ele>
        <time>2021-11-25T12:24:39.000Z</time>
      </trkpt>
      <trkpt lat="47.94372" lon="-3.4015">
        <ele>37.3</ele>
        <time>2021-11-25T12:24:36.000Z</time>
      </trkpt>
      <trkpt lat="47.94384" lon="-3.40146">
        <ele>37.8</ele>
        <time>2021-11-25T12:24:33.000Z</time>
      </trkpt>
      <trkpt lat="47.94392" lon="-3.40144">
        <ele>37.3</ele>
        <time>2021-11-25T12:24:30.000Z</time>
      </trkpt>
      <trkpt lat="47.94404" lon="-3.4014">
        <ele>38.4</ele>
        <time>2021-11-25T12:24:27.000Z</time>
      </trkpt>
      <trkpt lat="47.94414" lon="-3.40139">
        <ele>37.4</ele>
        <time>2021-11-25T12:24:24.000Z</time>
      </trkpt>
      <trkpt lat="47.94419" lon="-3.40139">
        <ele>36.7</ele>
        <time>2021-11-25T12:24:21.000Z</time>
      </trkpt>
      <trkpt lat="47.94424" lon="-3.40137">
        <ele>35.8</ele>
        <time>2021-11-25T12:24:18.000Z</time>
      </trkpt>
      <trkpt lat="47.94432" lon="-3.40134">
        <ele>33.8</ele>
        <time>2021-11-25T12:24:15.000Z</time>
      </trkpt>
      <trkpt lat="47.94441" lon="-3.40129">
        <ele>35.7</ele>
        <time>2021-11-25T12:24:12.000Z</time>
      </trkpt>
      <trkpt lat="47.94453" lon="-3.40126">
        <ele>38.4</ele>
        <time>2021-11-25T12:24:09.000Z</time>
      </trkpt>
      <trkpt lat="47.94466" lon="-3.40125">
        <ele>38.9</ele>
        <time>2021-11-25T12:24:06.000Z</time>
      </trkpt>
      <trkpt lat="47.94476" lon="-3.40125">
        <ele>35.2</ele>
        <time>2021-11-25T12:24:03.000Z</time>
      </trkpt>
      <trkpt lat="47.94483" lon="-3.40124">
        <ele>37</ele>
        <time>2021-11-25T12:24:00.000Z</time>
      </trkpt>
      <trkpt lat="47.94489" lon="-3.40124">
        <ele>37.4</ele>
        <time>2021-11-25T12:23:57.000Z</time>
      </trkpt>
      <trkpt lat="47.94496" lon="-3.40125">
        <ele>38</ele>
        <time>2021-11-25T12:23:54.000Z</time>
      </trkpt>
      <trkpt lat="47.94505" lon="-3.40121">
        <ele>37.3</ele>
        <time>2021-11-25T12:23:51.000Z</time>
      </trkpt>
      <trkpt lat="47.94515" lon="-3.40117">
        <ele>38</ele>
        <time>2021-11-25T12:23:48.000Z</time>
      </trkpt>
      <trkpt lat="47.94527" lon="-3.40106">
        <ele>38</ele>
        <time>2021-11-25T12:23:45.000Z</time>
      </trkpt>
      <trkpt lat="47.94539" lon="-3.401">
        <ele>39</ele>
        <time>2021-11-25T12:23:42.000Z</time>
      </trkpt>
      <trkpt lat="47.94547" lon="-3.40091">
        <ele>39.3</ele>
        <time>2021-11-25T12:23:39.000Z</time>
      </trkpt>
      <trkpt lat="47.94554" lon="-3.40078">
        <ele>39.2</ele>
        <time>2021-11-25T12:23:36.000Z</time>
      </trkpt>
      <trkpt lat="47.94562" lon="-3.40067">
        <ele>38.4</ele>
        <time>2021-11-25T12:23:33.000Z</time>
      </trkpt>
      <trkpt lat="47.94566" lon="-3.40055">
        <ele>38.9</ele>
        <time>2021-11-25T12:23:30.000Z</time>
      </trkpt>
      <trkpt lat="47.94573" lon="-3.4005">
        <ele>38.9</ele>
        <time>2021-11-25T12:23:27.000Z</time>
      </trkpt>
      <trkpt lat="47.94579" lon="-3.40049">
        <ele>38.4</ele>
        <time>2021-11-25T12:23:24.000Z</time>
      </trkpt>
      <trkpt lat="47.94583" lon="-3.40043">
        <ele>38.1</ele>
        <time>2021-11-25T12:23:21.000Z</time>
      </trkpt>
      <trkpt lat="47.94587" lon="-3.40034">
        <ele>38.5</ele>
        <time>2021-11-25T12:23:18.000Z</time>
      </trkpt>
      <trkpt lat="47.9459" lon="-3.4002">
        <ele>39.2</ele>
        <time>2021-11-25T12:23:15.000Z</time>
      </trkpt>
      <trkpt lat="47.94599" lon="-3.40009">
        <ele>41.3</ele>
        <time>2021-11-25T12:23:12.000Z</time>
      </trkpt>
      <trkpt lat="47.94604" lon="-3.39995">
        <ele>38.6</ele>
        <time>2021-11-25T12:23:09.000Z</time>
      </trkpt>
      <trkpt lat="47.94607" lon="-3.39982">
        <ele>40.4</ele>
        <time>2021-11-25T12:23:06.000Z</time>
      </trkpt>
      <trkpt lat="47.9461" lon="-3.39967">
        <ele>39</ele>
        <time>2021-11-25T12:23:03.000Z</time>
      </trkpt>
      <trkpt lat="47.9461" lon="-3.39946">
        <ele>41.8</ele>
        <time>2021-11-25T12:23:00.000Z</time>
      </trkpt>
      <trkpt lat="47.94605" lon="-3.39926">
        <ele>40.8</ele>
        <time>2021-11-25T12:22:57.000Z</time>
      </trkpt>
      <trkpt lat="47.94605" lon="-3.39914">
        <ele>42.4</ele>
        <time>2021-11-25T12:22:54.000Z</time>
      </trkpt>
      <trkpt lat="47.94608" lon="-3.39902">
        <ele>41.6</ele>
        <time>2021-11-25T12:22:51.000Z</time>
      </trkpt>
      <trkpt lat="47.9461" lon="-3.39889">
        <ele>38.7</ele>
        <time>2021-11-25T12:22:48.000Z</time>
      </trkpt>
      <trkpt lat="47.94608" lon="-3.39875">
        <ele>44.5</ele>
        <time>2021-11-25T12:22:45.000Z</time>
      </trkpt>
      <trkpt lat="47.94607" lon="-3.39865">
        <ele>45.3</ele>
        <time>2021-11-25T12:22:42.000Z</time>
      </trkpt>
      <trkpt lat="47.94608" lon="-3.39859">
        <ele>44.2</ele>
        <time>2021-11-25T12:22:39.000Z</time>
      </trkpt>
      <trkpt lat="47.94612" lon="-3.39854">
        <ele>42.3</ele>
        <time>2021-11-25T12:22:36.000Z</time>
      </trkpt>
      <trkpt lat="47.94616" lon="-3.39847">
        <ele>42.2</ele>
        <time>2021-11-25T12:22:33.000Z</time>
      </trkpt>
      <trkpt lat="47.94621" lon="-3.3984">
        <ele>41.6</ele>
        <time>2021-11-25T12:22:30.000Z</time>
      </trkpt>
      <trkpt lat="47.94623" lon="-3.39833">
        <ele>41.9</ele>
        <time>2021-11-25T12:22:27.000Z</time>
      </trkpt>
      <trkpt lat="47.94625" lon="-3.39829">
        <ele>40.6</ele>
        <time>2021-11-25T12:22:24.000Z</time>
      </trkpt>
      <trkpt lat="47.94629" lon="-3.39825">
        <ele>40.1</ele>
        <time>2021-11-25T12:22:21.000Z</time>
      </trkpt>
      <trkpt lat="47.94634" lon="-3.39816">
        <ele>39.9</ele>
        <time>2021-11-25T12:22:18.000Z</time>
      </trkpt>
      <trkpt lat="47.94638" lon="-3.39809">
        <ele>40</ele>
        <time>2021-11-25T12:22:15.000Z</time>
      </trkpt>
      <trkpt lat="47.94643" lon="-3.39806">
        <ele>40.2</ele>
        <time>2021-11-25T12:22:12.000Z</time>
      </trkpt>
      <trkpt lat="47.94649" lon="-3.39799">
        <ele>38.5</ele>
        <time>2021-11-25T12:22:09.000Z</time>
      </trkpt>
      <trkpt lat="47.94653" lon="-3.39792">
        <ele>40</ele>
        <time>2021-11-25T12:22:06.000Z</time>
      </trkpt>
      <trkpt lat="47.94659" lon="-3.39785">
        <ele>40.8</ele>
        <time>2021-11-25T12:22:03.000Z</time>
      </trkpt>
      <trkpt lat="47.94666" lon="-3.39776">
        <ele>40</ele>
        <time>2021-11-25T12:22:00.000Z</time>
      </trkpt>
      <trkpt lat="47.94673" lon="-3.39767">
        <ele>38.2</ele>
        <time>2021-11-25T12:21:57.000Z</time>
      </trkpt>
      <trkpt lat="47.94675" lon="-3.39761">
        <ele>41.1</ele>
        <time>2021-11-25T12:21:54.000Z</time>
      </trkpt>
      <trkpt lat="47.94681" lon="-3.39756">
        <ele>39.5</ele>
        <time>2021-11-25T12:21:51.000Z</time>
      </trkpt>
      <trkpt lat="47.94685" lon="-3.39748">
        <ele>40.9</ele>
        <time>2021-11-25T12:21:48.000Z</time>
      </trkpt>
      <trkpt lat="47.94691" lon="-3.39735">
        <ele>41.8</ele>
        <time>2021-11-25T12:21:45.000Z</time>
      </trkpt>
      <trkpt lat="47.94697" lon="-3.39726">
        <ele>40.6</ele>
        <time>2021-11-25T12:21:42.000Z</time>
      </trkpt>
      <trkpt lat="47.94701" lon="-3.39716">
        <ele>39.9</ele>
        <time>2021-11-25T12:21:39.000Z</time>
      </trkpt>
      <trkpt lat="47.94708" lon="-3.39704">
        <ele>38.3</ele>
        <time>2021-11-25T12:21:36.000Z</time>
      </trkpt>
      <trkpt lat="47.94717" lon="-3.39693">
        <ele>38.4</ele>
        <time>2021-11-25T12:21:33.000Z</time>
      </trkpt>
      <trkpt lat="47.9473" lon="-3.39686">
        <ele>38.6</ele>
        <time>2021-11-25T12:21:30.000Z</time>
      </trkpt>
      <trkpt lat="47.94744" lon="-3.39685">
        <ele>41.8</ele>
        <time>2021-11-25T12:21:27.000Z</time>
      </trkpt>
      <trkpt lat="47.94758" lon="-3.39684">
        <ele>41.9</ele>
        <time>2021-11-25T12:21:24.000Z</time>
      </trkpt>
      <trkpt lat="47.94769" lon="-3.39683">
        <ele>43.7</ele>
        <time>2021-11-25T12:21:21.000Z</time>
      </trkpt>
      <trkpt lat="47.94777" lon="-3.39685">
        <ele>41.4</ele>
        <time>2021-11-25T12:21:18.000Z</time>
      </trkpt>
      <trkpt lat="47.94785" lon="-3.3969">
        <ele>41.4</ele>
        <time>2021-11-25T12:21:15.000Z</time>
      </trkpt>
      <trkpt lat="47.94791" lon="-3.39696">
        <ele>41.3</ele>
        <time>2021-11-25T12:21:12.000Z</time>
      </trkpt>
      <trkpt lat="47.94794" lon="-3.39699">
        <ele>40.6</ele>
        <time>2021-11-25T12:21:09.000Z</time>
      </trkpt>
      <trkpt lat="47.94796" lon="-3.397">
        <ele>40.4</ele>
        <time>2021-11-25T12:21:06.000Z</time>
      </trkpt>
      <trkpt lat="47.94797" lon="-3.39701">
        <ele>40.1</ele>
        <time>2021-11-25T12:21:03.000Z</time>
      </trkpt>
      <trkpt lat="47.94798" lon="-3.39701">
        <ele>40.3</ele>
        <time>2021-11-25T12:21:00.000Z</time>
      </trkpt>
      <trkpt lat="47.94802" lon="-3.39701">
        <ele>39.7</ele>
        <time>2021-11-25T12:20:57.000Z</time>
      </trkpt>
      <trkpt lat="47.94808" lon="-3.39702">
        <ele>42.4</ele>
        <time>2021-11-25T12:20:54.000Z</time>
      </trkpt>
      <trkpt lat="47.94818" lon="-3.39707">
        <ele>42.5</ele>
        <time>2021-11-25T12:20:51.000Z</time>
      </trkpt>
      <trkpt lat="47.94829" lon="-3.39705">
        <ele>41.2</ele>
        <time>2021-11-25T12:20:48.000Z</time>
      </trkpt>
      <trkpt lat="47.94842" lon="-3.39702">
        <ele>40</ele>
        <time>2021-11-25T12:20:45.000Z</time>
      </trkpt>
      <trkpt lat="47.94854" lon="-3.39694">
        <ele>42.6</ele>
        <time>2021-11-25T12:20:42.000Z</time>
      </trkpt>
      <trkpt lat="47.94863" lon="-3.39683">
        <ele>41.1</ele>
        <time>2021-11-25T12:20:39.000Z</time>
      </trkpt>
      <trkpt lat="47.94872" lon="-3.39669">
        <ele>40.3</ele>
        <time>2021-11-25T12:20:36.000Z</time>
      </trkpt>
      <trkpt lat="47.94876" lon="-3.39653">
        <ele>40.3</ele>
        <time>2021-11-25T12:20:33.000Z</time>
      </trkpt>
      <trkpt lat="47.94885" lon="-3.39642">
        <ele>42.8</ele>
        <time>2021-11-25T12:20:30.000Z</time>
      </trkpt>
      <trkpt lat="47.94891" lon="-3.39625">
        <ele>40.2</ele>
        <time>2021-11-25T12:20:27.000Z</time>
      </trkpt>
      <trkpt lat="47.94897" lon="-3.39606">
        <ele>41.5</ele>
        <time>2021-11-25T12:20:24.000Z</time>
      </trkpt>
      <trkpt lat="47.94904" lon="-3.39588">
        <ele>42.1</ele>
        <time>2021-11-25T12:20:21.000Z</time>
      </trkpt>
      <trkpt lat="47.94913" lon="-3.39571">
        <ele>42.6</ele>
        <time>2021-11-25T12:20:18.000Z</time>
      </trkpt>
      <trkpt lat="47.94924" lon="-3.39558">
        <ele>40.4</ele>
        <time>2021-11-25T12:20:15.000Z</time>
      </trkpt>
      <trkpt lat="47.94943" lon="-3.39543">
        <ele>41.1</ele>
        <time>2021-11-25T12:20:12.000Z</time>
      </trkpt>
      <trkpt lat="47.94946" lon="-3.39533">
        <ele>42.6</ele>
        <time>2021-11-25T12:20:09.000Z</time>
      </trkpt>
      <trkpt lat="47.94948" lon="-3.3952">
        <ele>43.5</ele>
        <time>2021-11-25T12:20:06.000Z</time>
      </trkpt>
      <trkpt lat="47.94946" lon="-3.3951">
        <ele>43.4</ele>
        <time>2021-11-25T12:20:03.000Z</time>
      </trkpt>
      <trkpt lat="47.94947" lon="-3.39502">
        <ele>42.8</ele>
        <time>2021-11-25T12:20:00.000Z</time>
      </trkpt>
      <trkpt lat="47.9495" lon="-3.39492">
        <ele>42.8</ele>
        <time>2021-11-25T12:19:57.000Z</time>
      </trkpt>
      <trkpt lat="47.94952" lon="-3.3948">
        <ele>42.6</ele>
        <time>2021-11-25T12:19:54.000Z</time>
      </trkpt>
      <trkpt lat="47.94957" lon="-3.39469">
        <ele>41.6</ele>
        <time>2021-11-25T12:19:51.000Z</time>
      </trkpt>
      <trkpt lat="47.94964" lon="-3.39462">
        <ele>42.9</ele>
        <time>2021-11-25T12:19:48.000Z</time>
      </trkpt>
      <trkpt lat="47.94972" lon="-3.39451">
        <ele>44.1</ele>
        <time>2021-11-25T12:19:45.000Z</time>
      </trkpt>
      <trkpt lat="47.94978" lon="-3.3944">
        <ele>40.1</ele>
        <time>2021-11-25T12:19:42.000Z</time>
      </trkpt>
      <trkpt lat="47.94986" lon="-3.39433">
        <ele>43</ele>
        <time>2021-11-25T12:19:39.000Z</time>
      </trkpt>
      <trkpt lat="47.94994" lon="-3.39421">
        <ele>42.9</ele>
        <time>2021-11-25T12:19:36.000Z</time>
      </trkpt>
      <trkpt lat="47.95002" lon="-3.3941">
        <ele>43.1</ele>
        <time>2021-11-25T12:19:33.000Z</time>
      </trkpt>
      <trkpt lat="47.95009" lon="-3.394">
        <ele>40.7</ele>
        <time>2021-11-25T12:19:30.000Z</time>
      </trkpt>
      <trkpt lat="47.95019" lon="-3.39391">
        <ele>43.5</ele>
        <time>2021-11-25T12:19:27.000Z</time>
      </trkpt>
      <trkpt lat="47.95029" lon="-3.39384">
        <ele>41.7</ele>
        <time>2021-11-25T12:19:24.000Z</time>
      </trkpt>
      <trkpt lat="47.95038" lon="-3.39376">
        <ele>42.6</ele>
        <time>2021-11-25T12:19:21.000Z</time>
      </trkpt>
      <trkpt lat="47.95049" lon="-3.39371">
        <ele>41.2</ele>
        <time>2021-11-25T12:19:18.000Z</time>
      </trkpt>
      <trkpt lat="47.9506" lon="-3.39361">
        <ele>42.1</ele>
        <time>2021-11-25T12:19:15.000Z</time>
      </trkpt>
      <trkpt lat="47.95069" lon="-3.39349">
        <ele>43.7</ele>
        <time>2021-11-25T12:19:12.000Z</time>
      </trkpt>
      <trkpt lat="47.95076" lon="-3.39335">
        <ele>39.4</ele>
        <time>2021-11-25T12:19:09.000Z</time>
      </trkpt>
      <trkpt lat="47.95081" lon="-3.3932">
        <ele>42.4</ele>
        <time>2021-11-25T12:19:06.000Z</time>
      </trkpt>
      <trkpt lat="47.95088" lon="-3.39303">
        <ele>42.9</ele>
        <time>2021-11-25T12:19:03.000Z</time>
      </trkpt>
      <trkpt lat="47.95094" lon="-3.39286">
        <ele>43.8</ele>
        <time>2021-11-25T12:19:00.000Z</time>
      </trkpt>
      <trkpt lat="47.95098" lon="-3.39269">
        <ele>41.5</ele>
        <time>2021-11-25T12:18:57.000Z</time>
      </trkpt>
      <trkpt lat="47.95099" lon="-3.39251">
        <ele>41.5</ele>
        <time>2021-11-25T12:18:54.000Z</time>
      </trkpt>
      <trkpt lat="47.95098" lon="-3.39229">
        <ele>41.3</ele>
        <time>2021-11-25T12:18:51.000Z</time>
      </trkpt>
      <trkpt lat="47.95094" lon="-3.39208">
        <ele>42.1</ele>
        <time>2021-11-25T12:18:48.000Z</time>
      </trkpt>
      <trkpt lat="47.95087" lon="-3.39193">
        <ele>42.2</ele>
        <time>2021-11-25T12:18:45.000Z</time>
      </trkpt>
      <trkpt lat="47.95087" lon="-3.39178">
        <ele>42.2</ele>
        <time>2021-11-25T12:18:42.000Z</time>
      </trkpt>
      <trkpt lat="47.95084" lon="-3.39162">
        <ele>42.9</ele>
        <time>2021-11-25T12:18:39.000Z</time>
      </trkpt>
      <trkpt lat="47.95084" lon="-3.3915">
        <ele>42.2</ele>
        <time>2021-11-25T12:18:36.000Z</time>
      </trkpt>
      <trkpt lat="47.95086" lon="-3.39138">
        <ele>39.5</ele>
        <time>2021-11-25T12:18:33.000Z</time>
      </trkpt>
      <trkpt lat="47.95084" lon="-3.39121">
        <ele>42.5</ele>
        <time>2021-11-25T12:18:30.000Z</time>
      </trkpt>
      <trkpt lat="47.95083" lon="-3.39108">
        <ele>41.9</ele>
        <time>2021-11-25T12:18:27.000Z</time>
      </trkpt>
      <trkpt lat="47.95084" lon="-3.39093">
        <ele>43.3</ele>
        <time>2021-11-25T12:18:24.000Z</time>
      </trkpt>
      <trkpt lat="47.95083" lon="-3.39079">
        <ele>41.6</ele>
        <time>2021-11-25T12:18:21.000Z</time>
      </trkpt>
      <trkpt lat="47.95078" lon="-3.39067">
        <ele>41.8</ele>
        <time>2021-11-25T12:18:18.000Z</time>
      </trkpt>
      <trkpt lat="47.95074" lon="-3.39053">
        <ele>41.7</ele>
        <time>2021-11-25T12:18:15.000Z</time>
      </trkpt>
      <trkpt lat="47.95072" lon="-3.39038">
        <ele>43.2</ele>
        <time>2021-11-25T12:18:12.000Z</time>
      </trkpt>
      <trkpt lat="47.9507" lon="-3.39025">
        <ele>43.1</ele>
        <time>2021-11-25T12:18:09.000Z</time>
      </trkpt>
      <trkpt lat="47.95064" lon="-3.39014">
        <ele>42.9</ele>
        <time>2021-11-25T12:18:06.000Z</time>
      </trkpt>
      <trkpt lat="47.95062" lon="-3.39">
        <ele>42.2</ele>
        <time>2021-11-25T12:18:03.000Z</time>
      </trkpt>
      <trkpt lat="47.95059" lon="-3.38979">
        <ele>43</ele>
        <time>2021-11-25T12:18:00.000Z</time>
      </trkpt>
      <trkpt lat="47.95051" lon="-3.3896">
        <ele>45.3</ele>
        <time>2021-11-25T12:17:57.000Z</time>
      </trkpt>
      <trkpt lat="47.95046" lon="-3.38949">
        <ele>47.6</ele>
        <time>2021-11-25T12:17:54.000Z</time>
      </trkpt>
      <trkpt lat="47.95041" lon="-3.38937">
        <ele>49.4</ele>
        <time>2021-11-25T12:17:51.000Z</time>
      </trkpt>
      <trkpt lat="47.95039" lon="-3.38929">
        <ele>49.9</ele>
        <time>2021-11-25T12:17:48.000Z</time>
      </trkpt>
      <trkpt lat="47.95039" lon="-3.38921">
        <ele>48.6</ele>
        <time>2021-11-25T12:17:45.000Z</time>
      </trkpt>
      <trkpt lat="47.95034" lon="-3.3891">
        <ele>53.9</ele>
        <time>2021-11-25T12:17:42.000Z</time>
      </trkpt>
      <trkpt lat="47.9503" lon="-3.38903">
        <ele>50.5</ele>
        <time>2021-11-25T12:17:39.000Z</time>
      </trkpt>
      <trkpt lat="47.95028" lon="-3.38899">
        <ele>49.9</ele>
        <time>2021-11-25T12:17:36.000Z</time>
      </trkpt>
      <trkpt lat="47.95028" lon="-3.38898">
        <ele>50.1</ele>
        <time>2021-11-25T12:17:34.000Z</time>
      </trkpt>
      <trkpt lat="47.95027" lon="-3.38898">
        <ele>49.8</ele>
        <time>2021-11-25T12:17:31.000Z</time>
      </trkpt>
      <trkpt lat="47.95027" lon="-3.38897">
        <ele>50</ele>
        <time>2021-11-25T12:17:29.000Z</time>
      </trkpt>
      <trkpt lat="47.95026" lon="-3.38897">
        <ele>49.8</ele>
        <time>2021-11-25T12:17:27.000Z</time>
      </trkpt>
      <trkpt lat="47.95026" lon="-3.38894">
        <ele>49.4</ele>
        <time>2021-11-25T12:17:24.000Z</time>
      </trkpt>
      <trkpt lat="47.95025" lon="-3.38891">
        <ele>48.9</ele>
        <time>2021-11-25T12:17:21.000Z</time>
      </trkpt>
      <trkpt lat="47.95024" lon="-3.38889">
        <ele>48.7</ele>
        <time>2021-11-25T12:17:18.000Z</time>
      </trkpt>
      <trkpt lat="47.95024" lon="-3.38886">
        <ele>47.9</ele>
        <time>2021-11-25T12:17:15.000Z</time>
      </trkpt>
      <trkpt lat="47.95024" lon="-3.38883">
        <ele>47.7</ele>
        <time>2021-11-25T12:17:12.000Z</time>
      </trkpt>
      <trkpt lat="47.95024" lon="-3.3888">
        <ele>47</ele>
        <time>2021-11-25T12:17:09.000Z</time>
      </trkpt>
      <trkpt lat="47.95023" lon="-3.38875">
        <ele>46.2</ele>
        <time>2021-11-25T12:17:06.000Z</time>
      </trkpt>
      <trkpt lat="47.95022" lon="-3.38872">
        <ele>46.2</ele>
        <time>2021-11-25T12:17:03.000Z</time>
      </trkpt>
      <trkpt lat="47.95023" lon="-3.38871">
        <ele>45.7</ele>
        <time>2021-11-25T12:17:00.000Z</time>
      </trkpt>
      <trkpt lat="47.95022" lon="-3.3887">
        <ele>45.7</ele>
        <time>2021-11-25T12:16:57.000Z</time>
      </trkpt>
      <trkpt lat="47.95022" lon="-3.3887">
        <ele>45.9</ele>
        <time>2021-11-25T12:16:55.000Z</time>
      </trkpt>
      <trkpt lat="47.95022" lon="-3.3887">
        <ele>46</ele>
        <time>2021-11-25T12:16:52.000Z</time>
      </trkpt>
      <trkpt lat="47.95022" lon="-3.3887">
        <ele>45.7</ele>
        <time>2021-11-25T12:16:49.000Z</time>
      </trkpt>
      <trkpt lat="47.95021" lon="-3.3887">
        <ele>45.2</ele>
        <time>2021-11-25T12:16:46.000Z</time>
      </trkpt>
      <trkpt lat="47.95022" lon="-3.38866">
        <ele>45</ele>
        <time>2021-11-25T12:16:43.000Z</time>
      </trkpt>
      <trkpt lat="47.95022" lon="-3.38862">
        <ele>43.9</ele>
        <time>2021-11-25T12:16:40.000Z</time>
      </trkpt>
      <trkpt lat="47.95022" lon="-3.38858">
        <ele>43.7</ele>
        <time>2021-11-25T12:16:37.000Z</time>
      </trkpt>
      <trkpt lat="47.9502" lon="-3.38851">
        <ele>43.6</ele>
        <time>2021-11-25T12:16:34.000Z</time>
      </trkpt>
      <trkpt lat="47.95019" lon="-3.38845">
        <ele>44</ele>
        <time>2021-11-25T12:16:31.000Z</time>
      </trkpt>
      <trkpt lat="47.95016" lon="-3.38834">
        <ele>43.1</ele>
        <time>2021-11-25T12:16:28.000Z</time>
      </trkpt>
      <trkpt lat="47.95013" lon="-3.3882">
        <ele>44.1</ele>
        <time>2021-11-25T12:16:25.000Z</time>
      </trkpt>
      <trkpt lat="47.95014" lon="-3.38808">
        <ele>45.5</ele>
        <time>2021-11-25T12:16:22.000Z</time>
      </trkpt>
      <trkpt lat="47.95017" lon="-3.388">
        <ele>44.6</ele>
        <time>2021-11-25T12:16:19.000Z</time>
      </trkpt>
      <trkpt lat="47.95019" lon="-3.38792">
        <ele>44</ele>
        <time>2021-11-25T12:16:16.000Z</time>
      </trkpt>
      <trkpt lat="47.95023" lon="-3.38788">
        <ele>43.8</ele>
        <time>2021-11-25T12:16:13.000Z</time>
      </trkpt>
      <trkpt lat="47.95029" lon="-3.38788">
        <ele>44.7</ele>
        <time>2021-11-25T12:16:10.000Z</time>
      </trkpt>
      <trkpt lat="47.95035" lon="-3.3879">
        <ele>43.1</ele>
        <time>2021-11-25T12:16:07.000Z</time>
      </trkpt>
      <trkpt lat="47.95042" lon="-3.38792">
        <ele>43.5</ele>
        <time>2021-11-25T12:16:04.000Z</time>
      </trkpt>
      <trkpt lat="47.95047" lon="-3.3879">
        <ele>43.5</ele>
        <time>2021-11-25T12:16:01.000Z</time>
      </trkpt>
      <trkpt lat="47.9505" lon="-3.38782">
        <ele>44.1</ele>
        <time>2021-11-25T12:15:58.000Z</time>
      </trkpt>
      <trkpt lat="47.95051" lon="-3.3877">
        <ele>43.8</ele>
        <time>2021-11-25T12:15:55.000Z</time>
      </trkpt>
      <trkpt lat="47.95053" lon="-3.3876">
        <ele>44.3</ele>
        <time>2021-11-25T12:15:52.000Z</time>
      </trkpt>
      <trkpt lat="47.95058" lon="-3.38752">
        <ele>44.4</ele>
        <time>2021-11-25T12:15:49.000Z</time>
      </trkpt>
      <trkpt lat="47.95061" lon="-3.38744">
        <ele>44.3</ele>
        <time>2021-11-25T12:15:46.000Z</time>
      </trkpt>
      <trkpt lat="47.95059" lon="-3.38736">
        <ele>44.8</ele>
        <time>2021-11-25T12:15:43.000Z</time>
      </trkpt>
      <trkpt lat="47.95054" lon="-3.38733">
        <ele>44.2</ele>
        <time>2021-11-25T12:15:40.000Z</time>
      </trkpt>
      <trkpt lat="47.95052" lon="-3.3873">
        <ele>43.8</ele>
        <time>2021-11-25T12:15:37.000Z</time>
      </trkpt>
      <trkpt lat="47.95053" lon="-3.38723">
        <ele>43.8</ele>
        <time>2021-11-25T12:15:34.000Z</time>
      </trkpt>
      <trkpt lat="47.95056" lon="-3.38717">
        <ele>43.7</ele>
        <time>2021-11-25T12:15:31.000Z</time>
      </trkpt>
      <trkpt lat="47.95061" lon="-3.38709">
        <ele>43.9</ele>
        <time>2021-11-25T12:15:28.000Z</time>
      </trkpt>
      <trkpt lat="47.95064" lon="-3.38704">
        <ele>43.7</ele>
        <time>2021-11-25T12:15:25.000Z</time>
      </trkpt>
      <trkpt lat="47.95064" lon="-3.38699">
        <ele>44</ele>
        <time>2021-11-25T12:15:22.000Z</time>
      </trkpt>
      <trkpt lat="47.95065" lon="-3.38693">
        <ele>44.1</ele>
        <time>2021-11-25T12:15:19.000Z</time>
      </trkpt>
      <trkpt lat="47.95063" lon="-3.38685">
        <ele>44</ele>
        <time>2021-11-25T12:15:16.000Z</time>
      </trkpt>
      <trkpt lat="47.95061" lon="-3.38678">
        <ele>44.2</ele>
        <time>2021-11-25T12:15:13.000Z</time>
      </trkpt>
      <trkpt lat="47.9506" lon="-3.38672">
        <ele>43.1</ele>
        <time>2021-11-25T12:15:10.000Z</time>
      </trkpt>
      <trkpt lat="47.95061" lon="-3.38665">
        <ele>42.9</ele>
        <time>2021-11-25T12:15:07.000Z</time>
      </trkpt>
      <trkpt lat="47.95059" lon="-3.38658">
        <ele>43.1</ele>
        <time>2021-11-25T12:15:04.000Z</time>
      </trkpt>
      <trkpt lat="47.95055" lon="-3.3865">
        <ele>43.3</ele>
        <time>2021-11-25T12:15:01.000Z</time>
      </trkpt>
      <trkpt lat="47.95053" lon="-3.3864">
        <ele>43.3</ele>
        <time>2021-11-25T12:14:58.000Z</time>
      </trkpt>
      <trkpt lat="47.95051" lon="-3.38625">
        <ele>41.3</ele>
        <time>2021-11-25T12:14:55.000Z</time>
      </trkpt>
      <trkpt lat="47.95047" lon="-3.38612">
        <ele>42.9</ele>
        <time>2021-11-25T12:14:52.000Z</time>
      </trkpt>
      <trkpt lat="47.95045" lon="-3.38601">
        <ele>43.4</ele>
        <time>2021-11-25T12:14:49.000Z</time>
      </trkpt>
      <trkpt lat="47.95042" lon="-3.38586">
        <ele>43.7</ele>
        <time>2021-11-25T12:14:46.000Z</time>
      </trkpt>
      <trkpt lat="47.95039" lon="-3.38572">
        <ele>37.5</ele>
        <time>2021-11-25T12:14:43.000Z</time>
      </trkpt>
      <trkpt lat="47.95036" lon="-3.38556">
        <ele>39.1</ele>
        <time>2021-11-25T12:14:40.000Z</time>
      </trkpt>
      <trkpt lat="47.95033" lon="-3.38541">
        <ele>42.8</ele>
        <time>2021-11-25T12:14:37.000Z</time>
      </trkpt>
      <trkpt lat="47.9503" lon="-3.38524">
        <ele>43.4</ele>
        <time>2021-11-25T12:14:34.000Z</time>
      </trkpt>
      <trkpt lat="47.95028" lon="-3.3851">
        <ele>43.4</ele>
        <time>2021-11-25T12:14:31.000Z</time>
      </trkpt>
      <trkpt lat="47.9503" lon="-3.38501">
        <ele>42.9</ele>
        <time>2021-11-25T12:14:28.000Z</time>
      </trkpt>
      <trkpt lat="47.95032" lon="-3.38493">
        <ele>43.7</ele>
        <time>2021-11-25T12:14:25.000Z</time>
      </trkpt>
      <trkpt lat="47.95031" lon="-3.38486">
        <ele>44</ele>
        <time>2021-11-25T12:14:22.000Z</time>
      </trkpt>
      <trkpt lat="47.95027" lon="-3.38479">
        <ele>43.4</ele>
        <time>2021-11-25T12:14:19.000Z</time>
      </trkpt>
      <trkpt lat="47.9502" lon="-3.38471">
        <ele>43.5</ele>
        <time>2021-11-25T12:14:16.000Z</time>
      </trkpt>
      <trkpt lat="47.95017" lon="-3.38465">
        <ele>43.7</ele>
        <time>2021-11-25T12:14:13.000Z</time>
      </trkpt>
      <trkpt lat="47.95013" lon="-3.3846">
        <ele>44.8</ele>
        <time>2021-11-25T12:14:10.000Z</time>
      </trkpt>
      <trkpt lat="47.95007" lon="-3.38453">
        <ele>44.7</ele>
        <time>2021-11-25T12:14:07.000Z</time>
      </trkpt>
      <trkpt lat="47.95001" lon="-3.38447">
        <ele>45.1</ele>
        <time>2021-11-25T12:14:04.000Z</time>
      </trkpt>
      <trkpt lat="47.94994" lon="-3.38444">
        <ele>46.5</ele>
        <time>2021-11-25T12:14:01.000Z</time>
      </trkpt>
      <trkpt lat="47.94985" lon="-3.38439">
        <ele>44.2</ele>
        <time>2021-11-25T12:13:58.000Z</time>
      </trkpt>
      <trkpt lat="47.94975" lon="-3.38434">
        <ele>45.8</ele>
        <time>2021-11-25T12:13:55.000Z</time>
      </trkpt>
      <trkpt lat="47.94966" lon="-3.38426">
        <ele>46.6</ele>
        <time>2021-11-25T12:13:52.000Z</time>
      </trkpt>
      <trkpt lat="47.94965" lon="-3.38418">
        <ele>47.6</ele>
        <time>2021-11-25T12:13:49.000Z</time>
      </trkpt>
      <trkpt lat="47.94964" lon="-3.38413">
        <ele>47.7</ele>
        <time>2021-11-25T12:13:46.000Z</time>
      </trkpt>
      <trkpt lat="47.94957" lon="-3.38408">
        <ele>47.9</ele>
        <time>2021-11-25T12:13:43.000Z</time>
      </trkpt>
      <trkpt lat="47.94948" lon="-3.38403">
        <ele>47</ele>
        <time>2021-11-25T12:13:40.000Z</time>
      </trkpt>
      <trkpt lat="47.94941" lon="-3.38394">
        <ele>46.7</ele>
        <time>2021-11-25T12:13:37.000Z</time>
      </trkpt>
      <trkpt lat="47.94935" lon="-3.38378">
        <ele>46</ele>
        <time>2021-11-25T12:13:34.000Z</time>
      </trkpt>
      <trkpt lat="47.94929" lon="-3.38357">
        <ele>46.2</ele>
        <time>2021-11-25T12:13:31.000Z</time>
      </trkpt>
      <trkpt lat="47.9492" lon="-3.38337">
        <ele>45.8</ele>
        <time>2021-11-25T12:13:28.000Z</time>
      </trkpt>
      <trkpt lat="47.94906" lon="-3.3832">
        <ele>46.5</ele>
        <time>2021-11-25T12:13:25.000Z</time>
      </trkpt>
      <trkpt lat="47.94893" lon="-3.38303">
        <ele>46.8</ele>
        <time>2021-11-25T12:13:22.000Z</time>
      </trkpt>
      <trkpt lat="47.94879" lon="-3.38288">
        <ele>47</ele>
        <time>2021-11-25T12:13:19.000Z</time>
      </trkpt>
      <trkpt lat="47.94866" lon="-3.38274">
        <ele>47.5</ele>
        <time>2021-11-25T12:13:16.000Z</time>
      </trkpt>
      <trkpt lat="47.94852" lon="-3.38263">
        <ele>48.5</ele>
        <time>2021-11-25T12:13:13.000Z</time>
      </trkpt>
      <trkpt lat="47.94842" lon="-3.38245">
        <ele>48.6</ele>
        <time>2021-11-25T12:13:10.000Z</time>
      </trkpt>
      <trkpt lat="47.94849" lon="-3.38226">
        <ele>48.8</ele>
        <time>2021-11-25T12:13:07.000Z</time>
      </trkpt>
      <trkpt lat="47.94861" lon="-3.3821">
        <ele>48.7</ele>
        <time>2021-11-25T12:13:04.000Z</time>
      </trkpt>
      <trkpt lat="47.94863" lon="-3.3819">
        <ele>47.7</ele>
        <time>2021-11-25T12:13:01.000Z</time>
      </trkpt>
      <trkpt lat="47.94856" lon="-3.38174">
        <ele>45.6</ele>
        <time>2021-11-25T12:12:58.000Z</time>
      </trkpt>
      <trkpt lat="47.94846" lon="-3.38161">
        <ele>48.6</ele>
        <time>2021-11-25T12:12:55.000Z</time>
      </trkpt>
      <trkpt lat="47.94835" lon="-3.38145">
        <ele>48.5</ele>
        <time>2021-11-25T12:12:52.000Z</time>
      </trkpt>
      <trkpt lat="47.94824" lon="-3.3813">
        <ele>51.4</ele>
        <time>2021-11-25T12:12:49.000Z</time>
      </trkpt>
      <trkpt lat="47.94812" lon="-3.38113">
        <ele>48.8</ele>
        <time>2021-11-25T12:12:46.000Z</time>
      </trkpt>
      <trkpt lat="47.94799" lon="-3.38096">
        <ele>51.5</ele>
        <time>2021-11-25T12:12:43.000Z</time>
      </trkpt>
      <trkpt lat="47.94786" lon="-3.38079">
        <ele>52.2</ele>
        <time>2021-11-25T12:12:40.000Z</time>
      </trkpt>
      <trkpt lat="47.94775" lon="-3.38064">
        <ele>52.5</ele>
        <time>2021-11-25T12:12:37.000Z</time>
      </trkpt>
      <trkpt lat="47.94776" lon="-3.38045">
        <ele>53.2</ele>
        <time>2021-11-25T12:12:34.000Z</time>
      </trkpt>
      <trkpt lat="47.94782" lon="-3.38025">
        <ele>53.9</ele>
        <time>2021-11-25T12:12:31.000Z</time>
      </trkpt>
      <trkpt lat="47.9479" lon="-3.38001">
        <ele>54.1</ele>
        <time>2021-11-25T12:12:28.000Z</time>
      </trkpt>
      <trkpt lat="47.94796" lon="-3.37975">
        <ele>50.2</ele>
        <time>2021-11-25T12:12:25.000Z</time>
      </trkpt>
      <trkpt lat="47.94805" lon="-3.37949">
        <ele>52.9</ele>
        <time>2021-11-25T12:12:22.000Z</time>
      </trkpt>
      <trkpt lat="47.94816" lon="-3.37922">
        <ele>56.3</ele>
        <time>2021-11-25T12:12:19.000Z</time>
      </trkpt>
      <trkpt lat="47.9483" lon="-3.37899">
        <ele>52.6</ele>
        <time>2021-11-25T12:12:16.000Z</time>
      </trkpt>
      <trkpt lat="47.94841" lon="-3.37878">
        <ele>51.1</ele>
        <time>2021-11-25T12:12:13.000Z</time>
      </trkpt>
      <trkpt lat="47.94851" lon="-3.37856">
        <ele>55.3</ele>
        <time>2021-11-25T12:12:10.000Z</time>
      </trkpt>
      <trkpt lat="47.94865" lon="-3.37831">
        <ele>55.6</ele>
        <time>2021-11-25T12:12:07.000Z</time>
      </trkpt>
      <trkpt lat="47.94877" lon="-3.37807">
        <ele>57.1</ele>
        <time>2021-11-25T12:12:04.000Z</time>
      </trkpt>
      <trkpt lat="47.94883" lon="-3.37779">
        <ele>53.3</ele>
        <time>2021-11-25T12:12:01.000Z</time>
      </trkpt>
      <trkpt lat="47.94888" lon="-3.37755">
        <ele>52.3</ele>
        <time>2021-11-25T12:11:58.000Z</time>
      </trkpt>
      <trkpt lat="47.94896" lon="-3.37731">
        <ele>55.7</ele>
        <time>2021-11-25T12:11:55.000Z</time>
      </trkpt>
      <trkpt lat="47.94902" lon="-3.37707">
        <ele>56.1</ele>
        <time>2021-11-25T12:11:52.000Z</time>
      </trkpt>
      <trkpt lat="47.94905" lon="-3.37683">
        <ele>52.3</ele>
        <time>2021-11-25T12:11:49.000Z</time>
      </trkpt>
      <trkpt lat="47.94904" lon="-3.37658">
        <ele>55.6</ele>
        <time>2021-11-25T12:11:46.000Z</time>
      </trkpt>
      <trkpt lat="47.94902" lon="-3.37631">
        <ele>62.5</ele>
        <time>2021-11-25T12:11:43.000Z</time>
      </trkpt>
      <trkpt lat="47.94903" lon="-3.37601">
        <ele>58.2</ele>
        <time>2021-11-25T12:11:40.000Z</time>
      </trkpt>
      <trkpt lat="47.94907" lon="-3.3758">
        <ele>53.2</ele>
        <time>2021-11-25T12:11:37.000Z</time>
      </trkpt>
      <trkpt lat="47.94914" lon="-3.37559">
        <ele>63.6</ele>
        <time>2021-11-25T12:11:34.000Z</time>
      </trkpt>
      <trkpt lat="47.94921" lon="-3.37538">
        <ele>58.9</ele>
        <time>2021-11-25T12:11:31.000Z</time>
      </trkpt>
      <trkpt lat="47.94926" lon="-3.37518">
        <ele>57.9</ele>
        <time>2021-11-25T12:11:28.000Z</time>
      </trkpt>
      <trkpt lat="47.9493" lon="-3.37496">
        <ele>57.8</ele>
        <time>2021-11-25T12:11:25.000Z</time>
      </trkpt>
      <trkpt lat="47.94935" lon="-3.3748">
        <ele>56.2</ele>
        <time>2021-11-25T12:11:22.000Z</time>
      </trkpt>
      <trkpt lat="47.9494" lon="-3.37461">
        <ele>60.6</ele>
        <time>2021-11-25T12:11:19.000Z</time>
      </trkpt>
      <trkpt lat="47.94947" lon="-3.37443">
        <ele>59.9</ele>
        <time>2021-11-25T12:11:16.000Z</time>
      </trkpt>
      <trkpt lat="47.94954" lon="-3.37423">
        <ele>60.1</ele>
        <time>2021-11-25T12:11:13.000Z</time>
      </trkpt>
      <trkpt lat="47.94961" lon="-3.37402">
        <ele>60.6</ele>
        <time>2021-11-25T12:11:10.000Z</time>
      </trkpt>
      <trkpt lat="47.94969" lon="-3.37382">
        <ele>61.1</ele>
        <time>2021-11-25T12:11:07.000Z</time>
      </trkpt>
      <trkpt lat="47.94973" lon="-3.37366">
        <ele>63.3</ele>
        <time>2021-11-25T12:11:04.000Z</time>
      </trkpt>
      <trkpt lat="47.94973" lon="-3.37352">
        <ele>63.2</ele>
        <time>2021-11-25T12:11:01.000Z</time>
      </trkpt>
      <trkpt lat="47.94972" lon="-3.37333">
        <ele>63.7</ele>
        <time>2021-11-25T12:10:58.000Z</time>
      </trkpt>
      <trkpt lat="47.94972" lon="-3.37314">
        <ele>60.9</ele>
        <time>2021-11-25T12:10:55.000Z</time>
      </trkpt>
      <trkpt lat="47.9497" lon="-3.37298">
        <ele>59.3</ele>
        <time>2021-11-25T12:10:52.000Z</time>
      </trkpt>
      <trkpt lat="47.94968" lon="-3.37281">
        <ele>64.3</ele>
        <time>2021-11-25T12:10:49.000Z</time>
      </trkpt>
      <trkpt lat="47.94965" lon="-3.37265">
        <ele>64</ele>
        <time>2021-11-25T12:10:46.000Z</time>
      </trkpt>
      <trkpt lat="47.94962" lon="-3.37247">
        <ele>64.3</ele>
        <time>2021-11-25T12:10:43.000Z</time>
      </trkpt>
      <trkpt lat="47.94959" lon="-3.37227">
        <ele>63.9</ele>
        <time>2021-11-25T12:10:40.000Z</time>
      </trkpt>
      <trkpt lat="47.94956" lon="-3.37207">
        <ele>66.7</ele>
        <time>2021-11-25T12:10:37.000Z</time>
      </trkpt>
      <trkpt lat="47.94953" lon="-3.37187">
        <ele>62.4</ele>
        <time>2021-11-25T12:10:34.000Z</time>
      </trkpt>
      <trkpt lat="47.94948" lon="-3.3717">
        <ele>63.5</ele>
        <time>2021-11-25T12:10:31.000Z</time>
      </trkpt>
      <trkpt lat="47.94944" lon="-3.37153">
        <ele>62</ele>
        <time>2021-11-25T12:10:28.000Z</time>
      </trkpt>
      <trkpt lat="47.94941" lon="-3.37135">
        <ele>66.9</ele>
        <time>2021-11-25T12:10:25.000Z</time>
      </trkpt>
      <trkpt lat="47.94937" lon="-3.37116">
        <ele>65.9</ele>
        <time>2021-11-25T12:10:22.000Z</time>
      </trkpt>
      <trkpt lat="47.94933" lon="-3.37095">
        <ele>64.1</ele>
        <time>2021-11-25T12:10:19.000Z</time>
      </trkpt>
      <trkpt lat="47.94929" lon="-3.37074">
        <ele>62.7</ele>
        <time>2021-11-25T12:10:16.000Z</time>
      </trkpt>
      <trkpt lat="47.94923" lon="-3.37055">
        <ele>63.1</ele>
        <time>2021-11-25T12:10:13.000Z</time>
      </trkpt>
      <trkpt lat="47.94918" lon="-3.37035">
        <ele>65.1</ele>
        <time>2021-11-25T12:10:10.000Z</time>
      </trkpt>
      <trkpt lat="47.94912" lon="-3.37022">
        <ele>66.7</ele>
        <time>2021-11-25T12:10:07.000Z</time>
      </trkpt>
      <trkpt lat="47.94906" lon="-3.37008">
        <ele>61.8</ele>
        <time>2021-11-25T12:10:04.000Z</time>
      </trkpt>
      <trkpt lat="47.94897" lon="-3.3699">
        <ele>68.4</ele>
        <time>2021-11-25T12:10:01.000Z</time>
      </trkpt>
      <trkpt lat="47.94888" lon="-3.36972">
        <ele>64.1</ele>
        <time>2021-11-25T12:09:58.000Z</time>
      </trkpt>
      <trkpt lat="47.94879" lon="-3.36955">
        <ele>70.6</ele>
        <time>2021-11-25T12:09:55.000Z</time>
      </trkpt>
      <trkpt lat="47.94866" lon="-3.36937">
        <ele>65.1</ele>
        <time>2021-11-25T12:09:52.000Z</time>
      </trkpt>
      <trkpt lat="47.94854" lon="-3.36922">
        <ele>69.3</ele>
        <time>2021-11-25T12:09:49.000Z</time>
      </trkpt>
      <trkpt lat="47.94842" lon="-3.36909">
        <ele>60.6</ele>
        <time>2021-11-25T12:09:46.000Z</time>
      </trkpt>
      <trkpt lat="47.94832" lon="-3.36896">
        <ele>65</ele>
        <time>2021-11-25T12:09:43.000Z</time>
      </trkpt>
      <trkpt lat="47.94822" lon="-3.36884">
        <ele>65.8</ele>
        <time>2021-11-25T12:09:40.000Z</time>
      </trkpt>
      <trkpt lat="47.94808" lon="-3.36874">
        <ele>63.5</ele>
        <time>2021-11-25T12:09:37.000Z</time>
      </trkpt>
      <trkpt lat="47.94794" lon="-3.36862">
        <ele>64.3</ele>
        <time>2021-11-25T12:09:34.000Z</time>
      </trkpt>
      <trkpt lat="47.94779" lon="-3.36848">
        <ele>71.6</ele>
        <time>2021-11-25T12:09:31.000Z</time>
      </trkpt>
      <trkpt lat="47.94764" lon="-3.36836">
        <ele>67.6</ele>
        <time>2021-11-25T12:09:28.000Z</time>
      </trkpt>
      <trkpt lat="47.94753" lon="-3.36825">
        <ele>69.1</ele>
        <time>2021-11-25T12:09:25.000Z</time>
      </trkpt>
      <trkpt lat="47.94741" lon="-3.36815">
        <ele>65.5</ele>
        <time>2021-11-25T12:09:22.000Z</time>
      </trkpt>
      <trkpt lat="47.94728" lon="-3.36805">
        <ele>75.4</ele>
        <time>2021-11-25T12:09:19.000Z</time>
      </trkpt>
      <trkpt lat="47.94717" lon="-3.36796">
        <ele>63.6</ele>
        <time>2021-11-25T12:09:16.000Z</time>
      </trkpt>
      <trkpt lat="47.94704" lon="-3.36785">
        <ele>64.1</ele>
        <time>2021-11-25T12:09:13.000Z</time>
      </trkpt>
      <trkpt lat="47.94691" lon="-3.36777">
        <ele>72.6</ele>
        <time>2021-11-25T12:09:10.000Z</time>
      </trkpt>
      <trkpt lat="47.94677" lon="-3.36771">
        <ele>67.2</ele>
        <time>2021-11-25T12:09:07.000Z</time>
      </trkpt>
      <trkpt lat="47.94666" lon="-3.36767">
        <ele>75.1</ele>
        <time>2021-11-25T12:09:04.000Z</time>
      </trkpt>
      <trkpt lat="47.94655" lon="-3.36763">
        <ele>65.5</ele>
        <time>2021-11-25T12:09:01.000Z</time>
      </trkpt>
      <trkpt lat="47.94641" lon="-3.36758">
        <ele>65.1</ele>
        <time>2021-11-25T12:08:58.000Z</time>
      </trkpt>
      <trkpt lat="47.94629" lon="-3.36756">
        <ele>77.4</ele>
        <time>2021-11-25T12:08:55.000Z</time>
      </trkpt>
      <trkpt lat="47.94616" lon="-3.36752">
        <ele>74</ele>
        <time>2021-11-25T12:08:52.000Z</time>
      </trkpt>
      <trkpt lat="47.94604" lon="-3.36747">
        <ele>68.9</ele>
        <time>2021-11-25T12:08:49.000Z</time>
      </trkpt>
      <trkpt lat="47.94593" lon="-3.36741">
        <ele>74.3</ele>
        <time>2021-11-25T12:08:46.000Z</time>
      </trkpt>
      <trkpt lat="47.94581" lon="-3.36733">
        <ele>78</ele>
        <time>2021-11-25T12:08:43.000Z</time>
      </trkpt>
      <trkpt lat="47.94569" lon="-3.36727">
        <ele>73.5</ele>
        <time>2021-11-25T12:08:40.000Z</time>
      </trkpt>
      <trkpt lat="47.94558" lon="-3.3672">
        <ele>73.4</ele>
        <time>2021-11-25T12:08:37.000Z</time>
      </trkpt>
      <trkpt lat="47.94545" lon="-3.3671">
        <ele>72.5</ele>
        <time>2021-11-25T12:08:34.000Z</time>
      </trkpt>
      <trkpt lat="47.94532" lon="-3.36696">
        <ele>73.5</ele>
        <time>2021-11-25T12:08:31.000Z</time>
      </trkpt>
      <trkpt lat="47.9452" lon="-3.36681">
        <ele>76.2</ele>
        <time>2021-11-25T12:08:28.000Z</time>
      </trkpt>
      <trkpt lat="47.94509" lon="-3.36668">
        <ele>74.5</ele>
        <time>2021-11-25T12:08:25.000Z</time>
      </trkpt>
      <trkpt lat="47.945" lon="-3.36651">
        <ele>78.3</ele>
        <time>2021-11-25T12:08:22.000Z</time>
      </trkpt>
      <trkpt lat="47.94491" lon="-3.36634">
        <ele>75.7</ele>
        <time>2021-11-25T12:08:19.000Z</time>
      </trkpt>
      <trkpt lat="47.94481" lon="-3.36616">
        <ele>82.3</ele>
        <time>2021-11-25T12:08:16.000Z</time>
      </trkpt>
      <trkpt lat="47.94471" lon="-3.36599">
        <ele>80.8</ele>
        <time>2021-11-25T12:08:13.000Z</time>
      </trkpt>
      <trkpt lat="47.9446" lon="-3.3658">
        <ele>79.3</ele>
        <time>2021-11-25T12:08:10.000Z</time>
      </trkpt>
      <trkpt lat="47.94448" lon="-3.36562">
        <ele>80.1</ele>
        <time>2021-11-25T12:08:07.000Z</time>
      </trkpt>
      <trkpt lat="47.94437" lon="-3.36545">
        <ele>87.5</ele>
        <time>2021-11-25T12:08:04.000Z</time>
      </trkpt>
      <trkpt lat="47.94429" lon="-3.36532">
        <ele>78.4</ele>
        <time>2021-11-25T12:08:01.000Z</time>
      </trkpt>
      <trkpt lat="47.94422" lon="-3.3652">
        <ele>82.4</ele>
        <time>2021-11-25T12:07:58.000Z</time>
      </trkpt>
      <trkpt lat="47.94414" lon="-3.36508">
        <ele>78.8</ele>
        <time>2021-11-25T12:07:55.000Z</time>
      </trkpt>
      <trkpt lat="47.94406" lon="-3.36492">
        <ele>81.4</ele>
        <time>2021-11-25T12:07:52.000Z</time>
      </trkpt>
      <trkpt lat="47.94398" lon="-3.36477">
        <ele>78.5</ele>
        <time>2021-11-25T12:07:49.000Z</time>
      </trkpt>
      <trkpt lat="47.94389" lon="-3.36461">
        <ele>77</ele>
        <time>2021-11-25T12:07:46.000Z</time>
      </trkpt>
      <trkpt lat="47.9438" lon="-3.36445">
        <ele>82.5</ele>
        <time>2021-11-25T12:07:43.000Z</time>
      </trkpt>
      <trkpt lat="47.94369" lon="-3.36426">
        <ele>78.6</ele>
        <time>2021-11-25T12:07:40.000Z</time>
      </trkpt>
      <trkpt lat="47.94358" lon="-3.36408">
        <ele>85.2</ele>
        <time>2021-11-25T12:07:37.000Z</time>
      </trkpt>
      <trkpt lat="47.9435" lon="-3.3639">
        <ele>78.6</ele>
        <time>2021-11-25T12:07:34.000Z</time>
      </trkpt>
      <trkpt lat="47.9434" lon="-3.36374">
        <ele>82.1</ele>
        <time>2021-11-25T12:07:31.000Z</time>
      </trkpt>
      <trkpt lat="47.9433" lon="-3.36358">
        <ele>83</ele>
        <time>2021-11-25T12:07:28.000Z</time>
      </trkpt>
      <trkpt lat="47.94319" lon="-3.36342">
        <ele>83.1</ele>
        <time>2021-11-25T12:07:25.000Z</time>
      </trkpt>
      <trkpt lat="47.94306" lon="-3.36324">
        <ele>81.4</ele>
        <time>2021-11-25T12:07:22.000Z</time>
      </trkpt>
      <trkpt lat="47.94295" lon="-3.3631">
        <ele>78.1</ele>
        <time>2021-11-25T12:07:19.000Z</time>
      </trkpt>
      <trkpt lat="47.94282" lon="-3.363">
        <ele>78.5</ele>
        <time>2021-11-25T12:07:16.000Z</time>
      </trkpt>
      <trkpt lat="47.94267" lon="-3.36293">
        <ele>82.7</ele>
        <time>2021-11-25T12:07:13.000Z</time>
      </trkpt>
      <trkpt lat="47.94253" lon="-3.36287">
        <ele>79.5</ele>
        <time>2021-11-25T12:07:10.000Z</time>
      </trkpt>
      <trkpt lat="47.94237" lon="-3.36281">
        <ele>78.7</ele>
        <time>2021-11-25T12:07:07.000Z</time>
      </trkpt>
      <trkpt lat="47.94222" lon="-3.36278">
        <ele>73.1</ele>
        <time>2021-11-25T12:07:04.000Z</time>
      </trkpt>
      <trkpt lat="47.94206" lon="-3.36279">
        <ele>81.9</ele>
        <time>2021-11-25T12:07:01.000Z</time>
      </trkpt>
      <trkpt lat="47.9419" lon="-3.36284">
        <ele>82.7</ele>
        <time>2021-11-25T12:06:58.000Z</time>
      </trkpt>
      <trkpt lat="47.94173" lon="-3.3629">
        <ele>83.6</ele>
        <time>2021-11-25T12:06:55.000Z</time>
      </trkpt>
      <trkpt lat="47.94156" lon="-3.363">
        <ele>84</ele>
        <time>2021-11-25T12:06:52.000Z</time>
      </trkpt>
      <trkpt lat="47.94139" lon="-3.36309">
        <ele>83.6</ele>
        <time>2021-11-25T12:06:49.000Z</time>
      </trkpt>
      <trkpt lat="47.94125" lon="-3.36316">
        <ele>85.5</ele>
        <time>2021-11-25T12:06:46.000Z</time>
      </trkpt>
      <trkpt lat="47.9411" lon="-3.36321">
        <ele>84.2</ele>
        <time>2021-11-25T12:06:43.000Z</time>
      </trkpt>
      <trkpt lat="47.94098" lon="-3.36324">
        <ele>88.9</ele>
        <time>2021-11-25T12:06:40.000Z</time>
      </trkpt>
      <trkpt lat="47.94085" lon="-3.36324">
        <ele>86.6</ele>
        <time>2021-11-25T12:06:37.000Z</time>
      </trkpt>
      <trkpt lat="47.9407" lon="-3.36321">
        <ele>89.8</ele>
        <time>2021-11-25T12:06:34.000Z</time>
      </trkpt>
      <trkpt lat="47.94053" lon="-3.36314">
        <ele>88.6</ele>
        <time>2021-11-25T12:06:31.000Z</time>
      </trkpt>
      <trkpt lat="47.94037" lon="-3.36303">
        <ele>81.5</ele>
        <time>2021-11-25T12:06:28.000Z</time>
      </trkpt>
      <trkpt lat="47.94022" lon="-3.3629">
        <ele>88.4</ele>
        <time>2021-11-25T12:06:25.000Z</time>
      </trkpt>
      <trkpt lat="47.94004" lon="-3.36276">
        <ele>87.2</ele>
        <time>2021-11-25T12:06:22.000Z</time>
      </trkpt>
      <trkpt lat="47.93986" lon="-3.36259">
        <ele>86.4</ele>
        <time>2021-11-25T12:06:19.000Z</time>
      </trkpt>
      <trkpt lat="47.93968" lon="-3.36244">
        <ele>86</ele>
        <time>2021-11-25T12:06:16.000Z</time>
      </trkpt>
      <trkpt lat="47.93951" lon="-3.36229">
        <ele>91.5</ele>
        <time>2021-11-25T12:06:13.000Z</time>
      </trkpt>
      <trkpt lat="47.93937" lon="-3.36213">
        <ele>87.8</ele>
        <time>2021-11-25T12:06:10.000Z</time>
      </trkpt>
      <trkpt lat="47.93924" lon="-3.36195">
        <ele>89</ele>
        <time>2021-11-25T12:06:07.000Z</time>
      </trkpt>
      <trkpt lat="47.93914" lon="-3.36171">
        <ele>91.5</ele>
        <time>2021-11-25T12:06:04.000Z</time>
      </trkpt>
      <trkpt lat="47.93906" lon="-3.3615">
        <ele>93.1</ele>
        <time>2021-11-25T12:06:01.000Z</time>
      </trkpt>
      <trkpt lat="47.93899" lon="-3.36131">
        <ele>90.8</ele>
        <time>2021-11-25T12:05:58.000Z</time>
      </trkpt>
      <trkpt lat="47.93891" lon="-3.36108">
        <ele>89.3</ele>
        <time>2021-11-25T12:05:55.000Z</time>
      </trkpt>
      <trkpt lat="47.93881" lon="-3.36083">
        <ele>93</ele>
        <time>2021-11-25T12:05:52.000Z</time>
      </trkpt>
      <trkpt lat="47.93867" lon="-3.36059">
        <ele>92.2</ele>
        <time>2021-11-25T12:05:49.000Z</time>
      </trkpt>
      <trkpt lat="47.9385" lon="-3.36037">
        <ele>91.7</ele>
        <time>2021-11-25T12:05:46.000Z</time>
      </trkpt>
      <trkpt lat="47.93833" lon="-3.36021">
        <ele>94.4</ele>
        <time>2021-11-25T12:05:43.000Z</time>
      </trkpt>
      <trkpt lat="47.93815" lon="-3.3601">
        <ele>94.1</ele>
        <time>2021-11-25T12:05:40.000Z</time>
      </trkpt>
      <trkpt lat="47.93798" lon="-3.36002">
        <ele>94.1</ele>
        <time>2021-11-25T12:05:37.000Z</time>
      </trkpt>
      <trkpt lat="47.93778" lon="-3.36">
        <ele>96.1</ele>
        <time>2021-11-25T12:05:34.000Z</time>
      </trkpt>
      <trkpt lat="47.93762" lon="-3.36002">
        <ele>94.4</ele>
        <time>2021-11-25T12:05:31.000Z</time>
      </trkpt>
      <trkpt lat="47.93745" lon="-3.36006">
        <ele>97</ele>
        <time>2021-11-25T12:05:28.000Z</time>
      </trkpt>
      <trkpt lat="47.93726" lon="-3.36011">
        <ele>95.5</ele>
        <time>2021-11-25T12:05:25.000Z</time>
      </trkpt>
      <trkpt lat="47.93709" lon="-3.36015">
        <ele>97.9</ele>
        <time>2021-11-25T12:05:22.000Z</time>
      </trkpt>
      <trkpt lat="47.93692" lon="-3.36015">
        <ele>101.2</ele>
        <time>2021-11-25T12:05:19.000Z</time>
      </trkpt>
      <trkpt lat="47.93674" lon="-3.36013">
        <ele>101.2</ele>
        <time>2021-11-25T12:05:16.000Z</time>
      </trkpt>
      <trkpt lat="47.93656" lon="-3.36006">
        <ele>98.3</ele>
        <time>2021-11-25T12:05:13.000Z</time>
      </trkpt>
      <trkpt lat="47.93639" lon="-3.35993">
        <ele>102.3</ele>
        <time>2021-11-25T12:05:10.000Z</time>
      </trkpt>
      <trkpt lat="47.93622" lon="-3.35975">
        <ele>100.9</ele>
        <time>2021-11-25T12:05:07.000Z</time>
      </trkpt>
      <trkpt lat="47.93607" lon="-3.35955">
        <ele>101.5</ele>
        <time>2021-11-25T12:05:04.000Z</time>
      </trkpt>
      <trkpt lat="47.93592" lon="-3.35937">
        <ele>100.1</ele>
        <time>2021-11-25T12:05:01.000Z</time>
      </trkpt>
      <trkpt lat="47.93578" lon="-3.35923">
        <ele>105.1</ele>
        <time>2021-11-25T12:04:58.000Z</time>
      </trkpt>
      <trkpt lat="47.93562" lon="-3.35909">
        <ele>102.3</ele>
        <time>2021-11-25T12:04:55.000Z</time>
      </trkpt>
      <trkpt lat="47.93549" lon="-3.359">
        <ele>103.5</ele>
        <time>2021-11-25T12:04:52.000Z</time>
      </trkpt>
      <trkpt lat="47.93534" lon="-3.35893">
        <ele>102.9</ele>
        <time>2021-11-25T12:04:49.000Z</time>
      </trkpt>
      <trkpt lat="47.93519" lon="-3.35891">
        <ele>104.2</ele>
        <time>2021-11-25T12:04:46.000Z</time>
      </trkpt>
      <trkpt lat="47.93504" lon="-3.35891">
        <ele>102.6</ele>
        <time>2021-11-25T12:04:43.000Z</time>
      </trkpt>
      <trkpt lat="47.9349" lon="-3.35895">
        <ele>101.3</ele>
        <time>2021-11-25T12:04:40.000Z</time>
      </trkpt>
      <trkpt lat="47.93477" lon="-3.35899">
        <ele>98.7</ele>
        <time>2021-11-25T12:04:37.000Z</time>
      </trkpt>
      <trkpt lat="47.93465" lon="-3.35904">
        <ele>102.1</ele>
        <time>2021-11-25T12:04:34.000Z</time>
      </trkpt>
      <trkpt lat="47.93448" lon="-3.35906">
        <ele>100.5</ele>
        <time>2021-11-25T12:04:31.000Z</time>
      </trkpt>
      <trkpt lat="47.93432" lon="-3.35907">
        <ele>105.2</ele>
        <time>2021-11-25T12:04:28.000Z</time>
      </trkpt>
      <trkpt lat="47.93416" lon="-3.35905">
        <ele>105.7</ele>
        <time>2021-11-25T12:04:25.000Z</time>
      </trkpt>
      <trkpt lat="47.93401" lon="-3.35901">
        <ele>103.7</ele>
        <time>2021-11-25T12:04:22.000Z</time>
      </trkpt>
      <trkpt lat="47.93387" lon="-3.35892">
        <ele>105.1</ele>
        <time>2021-11-25T12:04:19.000Z</time>
      </trkpt>
      <trkpt lat="47.93372" lon="-3.35879">
        <ele>104.4</ele>
        <time>2021-11-25T12:04:16.000Z</time>
      </trkpt>
      <trkpt lat="47.93358" lon="-3.35863">
        <ele>106.6</ele>
        <time>2021-11-25T12:04:13.000Z</time>
      </trkpt>
      <trkpt lat="47.93346" lon="-3.35844">
        <ele>105.5</ele>
        <time>2021-11-25T12:04:10.000Z</time>
      </trkpt>
      <trkpt lat="47.93335" lon="-3.35825">
        <ele>105.5</ele>
        <time>2021-11-25T12:04:07.000Z</time>
      </trkpt>
      <trkpt lat="47.93325" lon="-3.35806">
        <ele>109.1</ele>
        <time>2021-11-25T12:04:04.000Z</time>
      </trkpt>
      <trkpt lat="47.93315" lon="-3.35788">
        <ele>108.7</ele>
        <time>2021-11-25T12:04:01.000Z</time>
      </trkpt>
      <trkpt lat="47.93306" lon="-3.35771">
        <ele>109.1</ele>
        <time>2021-11-25T12:03:58.000Z</time>
      </trkpt>
      <trkpt lat="47.933" lon="-3.35752">
        <ele>107</ele>
        <time>2021-11-25T12:03:55.000Z</time>
      </trkpt>
      <trkpt lat="47.93294" lon="-3.35733">
        <ele>115</ele>
        <time>2021-11-25T12:03:52.000Z</time>
      </trkpt>
      <trkpt lat="47.93289" lon="-3.35715">
        <ele>112.5</ele>
        <time>2021-11-25T12:03:49.000Z</time>
      </trkpt>
      <trkpt lat="47.93286" lon="-3.35696">
        <ele>108.3</ele>
        <time>2021-11-25T12:03:46.000Z</time>
      </trkpt>
      <trkpt lat="47.93284" lon="-3.35673">
        <ele>101</ele>
        <time>2021-11-25T12:03:43.000Z</time>
      </trkpt>
      <trkpt lat="47.93284" lon="-3.3565">
        <ele>106.2</ele>
        <time>2021-11-25T12:03:40.000Z</time>
      </trkpt>
      <trkpt lat="47.93287" lon="-3.35624">
        <ele>100.4</ele>
        <time>2021-11-25T12:03:37.000Z</time>
      </trkpt>
      <trkpt lat="47.9329" lon="-3.35601">
        <ele>108.9</ele>
        <time>2021-11-25T12:03:34.000Z</time>
      </trkpt>
      <trkpt lat="47.93293" lon="-3.35577">
        <ele>109.7</ele>
        <time>2021-11-25T12:03:31.000Z</time>
      </trkpt>
      <trkpt lat="47.93296" lon="-3.35551">
        <ele>106.4</ele>
        <time>2021-11-25T12:03:28.000Z</time>
      </trkpt>
      <trkpt lat="47.93296" lon="-3.35525">
        <ele>106.1</ele>
        <time>2021-11-25T12:03:25.000Z</time>
      </trkpt>
      <trkpt lat="47.93292" lon="-3.355">
        <ele>105.8</ele>
        <time>2021-11-25T12:03:22.000Z</time>
      </trkpt>
      <trkpt lat="47.93286" lon="-3.35475">
        <ele>109.6</ele>
        <time>2021-11-25T12:03:19.000Z</time>
      </trkpt>
      <trkpt lat="47.9328" lon="-3.35451">
        <ele>111.8</ele>
        <time>2021-11-25T12:03:16.000Z</time>
      </trkpt>
      <trkpt lat="47.93273" lon="-3.35427">
        <ele>111.6</ele>
        <time>2021-11-25T12:03:13.000Z</time>
      </trkpt>
      <trkpt lat="47.93266" lon="-3.35404">
        <ele>112.4</ele>
        <time>2021-11-25T12:03:10.000Z</time>
      </trkpt>
      <trkpt lat="47.9326" lon="-3.35384">
        <ele>116.9</ele>
        <time>2021-11-25T12:03:07.000Z</time>
      </trkpt>
      <trkpt lat="47.93255" lon="-3.35364">
        <ele>110.9</ele>
        <time>2021-11-25T12:03:04.000Z</time>
      </trkpt>
      <trkpt lat="47.93247" lon="-3.35344">
        <ele>115.7</ele>
        <time>2021-11-25T12:03:01.000Z</time>
      </trkpt>
      <trkpt lat="47.93239" lon="-3.35323">
        <ele>112.4</ele>
        <time>2021-11-25T12:02:58.000Z</time>
      </trkpt>
      <trkpt lat="47.93228" lon="-3.35303">
        <ele>115</ele>
        <time>2021-11-25T12:02:55.000Z</time>
      </trkpt>
      <trkpt lat="47.93215" lon="-3.35289">
        <ele>113.7</ele>
        <time>2021-11-25T12:02:52.000Z</time>
      </trkpt>
      <trkpt lat="47.93199" lon="-3.3529">
        <ele>115.7</ele>
        <time>2021-11-25T12:02:49.000Z</time>
      </trkpt>
      <trkpt lat="47.93181" lon="-3.35293">
        <ele>115.4</ele>
        <time>2021-11-25T12:02:46.000Z</time>
      </trkpt>
      <trkpt lat="47.93163" lon="-3.35294">
        <ele>115.6</ele>
        <time>2021-11-25T12:02:43.000Z</time>
      </trkpt>
      <trkpt lat="47.93143" lon="-3.35295">
        <ele>115.6</ele>
        <time>2021-11-25T12:02:40.000Z</time>
      </trkpt>
      <trkpt lat="47.93124" lon="-3.35296">
        <ele>116.2</ele>
        <time>2021-11-25T12:02:37.000Z</time>
      </trkpt>
      <trkpt lat="47.93104" lon="-3.35297">
        <ele>117.2</ele>
        <time>2021-11-25T12:02:34.000Z</time>
      </trkpt>
      <trkpt lat="47.93085" lon="-3.35298">
        <ele>117.8</ele>
        <time>2021-11-25T12:02:31.000Z</time>
      </trkpt>
      <trkpt lat="47.93067" lon="-3.35299">
        <ele>118.9</ele>
        <time>2021-11-25T12:02:28.000Z</time>
      </trkpt>
      <trkpt lat="47.9305" lon="-3.35301">
        <ele>119.2</ele>
        <time>2021-11-25T12:02:25.000Z</time>
      </trkpt>
      <trkpt lat="47.93034" lon="-3.35303">
        <ele>119.6</ele>
        <time>2021-11-25T12:02:22.000Z</time>
      </trkpt>
      <trkpt lat="47.93018" lon="-3.35305">
        <ele>119.2</ele>
        <time>2021-11-25T12:02:19.000Z</time>
      </trkpt>
      <trkpt lat="47.93003" lon="-3.35307">
        <ele>118.7</ele>
        <time>2021-11-25T12:02:16.000Z</time>
      </trkpt>
      <trkpt lat="47.92988" lon="-3.35309">
        <ele>117.7</ele>
        <time>2021-11-25T12:02:13.000Z</time>
      </trkpt>
      <trkpt lat="47.92974" lon="-3.35313">
        <ele>117.9</ele>
        <time>2021-11-25T12:02:10.000Z</time>
      </trkpt>
      <trkpt lat="47.92963" lon="-3.35309">
        <ele>118.5</ele>
        <time>2021-11-25T12:02:07.000Z</time>
      </trkpt>
      <trkpt lat="47.92967" lon="-3.35294">
        <ele>118.5</ele>
        <time>2021-11-25T12:02:04.000Z</time>
      </trkpt>
      <trkpt lat="47.92976" lon="-3.35279">
        <ele>118.7</ele>
        <time>2021-11-25T12:02:01.000Z</time>
      </trkpt>
      <trkpt lat="47.92984" lon="-3.35263">
        <ele>117.7</ele>
        <time>2021-11-25T12:01:58.000Z</time>
      </trkpt>
      <trkpt lat="47.92992" lon="-3.35247">
        <ele>118</ele>
        <time>2021-11-25T12:01:55.000Z</time>
      </trkpt>
      <trkpt lat="47.92998" lon="-3.35231">
        <ele>117.4</ele>
        <time>2021-11-25T12:01:52.000Z</time>
      </trkpt>
      <trkpt lat="47.92997" lon="-3.35217">
        <ele>116.5</ele>
        <time>2021-11-25T12:01:49.000Z</time>
      </trkpt>
      <trkpt lat="47.92988" lon="-3.35211">
        <ele>116</ele>
        <time>2021-11-25T12:01:46.000Z</time>
      </trkpt>
      <trkpt lat="47.92976" lon="-3.35209">
        <ele>115.4</ele>
        <time>2021-11-25T12:01:43.000Z</time>
      </trkpt>
      <trkpt lat="47.92963" lon="-3.35206">
        <ele>115.2</ele>
        <time>2021-11-25T12:01:40.000Z</time>
      </trkpt>
      <trkpt lat="47.92951" lon="-3.35203">
        <ele>115.4</ele>
        <time>2021-11-25T12:01:37.000Z</time>
      </trkpt>
      <trkpt lat="47.92938" lon="-3.35201">
        <ele>113.7</ele>
        <time>2021-11-25T12:01:34.000Z</time>
      </trkpt>
      <trkpt lat="47.92925" lon="-3.35197">
        <ele>114.2</ele>
        <time>2021-11-25T12:01:31.000Z</time>
      </trkpt>
      <trkpt lat="47.92912" lon="-3.35191">
        <ele>114.1</ele>
        <time>2021-11-25T12:01:28.000Z</time>
      </trkpt>
      <trkpt lat="47.92899" lon="-3.35183">
        <ele>112.7</ele>
        <time>2021-11-25T12:01:25.000Z</time>
      </trkpt>
      <trkpt lat="47.92887" lon="-3.35173">
        <ele>112.1</ele>
        <time>2021-11-25T12:01:22.000Z</time>
      </trkpt>
      <trkpt lat="47.92876" lon="-3.35161">
        <ele>113</ele>
        <time>2021-11-25T12:01:19.000Z</time>
      </trkpt>
      <trkpt lat="47.92866" lon="-3.35148">
        <ele>112.3</ele>
        <time>2021-11-25T12:01:16.000Z</time>
      </trkpt>
      <trkpt lat="47.92857" lon="-3.35132">
        <ele>111.4</ele>
        <time>2021-11-25T12:01:13.000Z</time>
      </trkpt>
      <trkpt lat="47.9285" lon="-3.35114">
        <ele>112</ele>
        <time>2021-11-25T12:01:10.000Z</time>
      </trkpt>
      <trkpt lat="47.92843" lon="-3.35097">
        <ele>110.6</ele>
        <time>2021-11-25T12:01:07.000Z</time>
      </trkpt>
      <trkpt lat="47.92837" lon="-3.35076">
        <ele>112.5</ele>
        <time>2021-11-25T12:01:04.000Z</time>
      </trkpt>
      <trkpt lat="47.92834" lon="-3.35057">
        <ele>110.7</ele>
        <time>2021-11-25T12:01:01.000Z</time>
      </trkpt>
      <trkpt lat="47.92833" lon="-3.35039">
        <ele>107.9</ele>
        <time>2021-11-25T12:00:58.000Z</time>
      </trkpt>
      <trkpt lat="47.92831" lon="-3.35021">
        <ele>109.7</ele>
        <time>2021-11-25T12:00:55.000Z</time>
      </trkpt>
      <trkpt lat="47.92829" lon="-3.35004">
        <ele>107.1</ele>
        <time>2021-11-25T12:00:52.000Z</time>
      </trkpt>
      <trkpt lat="47.92825" lon="-3.34985">
        <ele>107.2</ele>
        <time>2021-11-25T12:00:49.000Z</time>
      </trkpt>
      <trkpt lat="47.92818" lon="-3.34966">
        <ele>108.6</ele>
        <time>2021-11-25T12:00:46.000Z</time>
      </trkpt>
      <trkpt lat="47.92813" lon="-3.3495">
        <ele>108.2</ele>
        <time>2021-11-25T12:00:43.000Z</time>
      </trkpt>
      <trkpt lat="47.92808" lon="-3.34934">
        <ele>107.3</ele>
        <time>2021-11-25T12:00:40.000Z</time>
      </trkpt>
      <trkpt lat="47.92805" lon="-3.34913">
        <ele>108.1</ele>
        <time>2021-11-25T12:00:37.000Z</time>
      </trkpt>
      <trkpt lat="47.928" lon="-3.34894">
        <ele>107</ele>
        <time>2021-11-25T12:00:34.000Z</time>
      </trkpt>
      <trkpt lat="47.92795" lon="-3.34874">
        <ele>104.9</ele>
        <time>2021-11-25T12:00:31.000Z</time>
      </trkpt>
      <trkpt lat="47.9279" lon="-3.34854">
        <ele>107.6</ele>
        <time>2021-11-25T12:00:28.000Z</time>
      </trkpt>
      <trkpt lat="47.92785" lon="-3.34835">
        <ele>108.4</ele>
        <time>2021-11-25T12:00:25.000Z</time>
      </trkpt>
      <trkpt lat="47.92779" lon="-3.34816">
        <ele>106.1</ele>
        <time>2021-11-25T12:00:22.000Z</time>
      </trkpt>
      <trkpt lat="47.92776" lon="-3.34797">
        <ele>103.2</ele>
        <time>2021-11-25T12:00:19.000Z</time>
      </trkpt>
      <trkpt lat="47.92771" lon="-3.34779">
        <ele>105.7</ele>
        <time>2021-11-25T12:00:16.000Z</time>
      </trkpt>
      <trkpt lat="47.92766" lon="-3.34759">
        <ele>104</ele>
        <time>2021-11-25T12:00:13.000Z</time>
      </trkpt>
      <trkpt lat="47.92758" lon="-3.34741">
        <ele>102.5</ele>
        <time>2021-11-25T12:00:10.000Z</time>
      </trkpt>
      <trkpt lat="47.92748" lon="-3.34724">
        <ele>104.3</ele>
        <time>2021-11-25T12:00:07.000Z</time>
      </trkpt>
      <trkpt lat="47.92737" lon="-3.34708">
        <ele>102.5</ele>
        <time>2021-11-25T12:00:04.000Z</time>
      </trkpt>
      <trkpt lat="47.92724" lon="-3.34692">
        <ele>103.8</ele>
        <time>2021-11-25T12:00:01.000Z</time>
      </trkpt>
      <trkpt lat="47.92711" lon="-3.34678">
        <ele>102.6</ele>
        <time>2021-11-25T11:59:58.000Z</time>
      </trkpt>
      <trkpt lat="47.92697" lon="-3.34668">
        <ele>104.7</ele>
        <time>2021-11-25T11:59:55.000Z</time>
      </trkpt>
      <trkpt lat="47.92683" lon="-3.3466">
        <ele>102.2</ele>
        <time>2021-11-25T11:59:52.000Z</time>
      </trkpt>
      <trkpt lat="47.92667" lon="-3.34649">
        <ele>103.9</ele>
        <time>2021-11-25T11:59:49.000Z</time>
      </trkpt>
      <trkpt lat="47.92654" lon="-3.34642">
        <ele>99.7</ele>
        <time>2021-11-25T11:59:46.000Z</time>
      </trkpt>
      <trkpt lat="47.92639" lon="-3.34637">
        <ele>101.2</ele>
        <time>2021-11-25T11:59:43.000Z</time>
      </trkpt>
      <trkpt lat="47.92625" lon="-3.34629">
        <ele>100.5</ele>
        <time>2021-11-25T11:59:40.000Z</time>
      </trkpt>
      <trkpt lat="47.9261" lon="-3.34621">
        <ele>98.6</ele>
        <time>2021-11-25T11:59:37.000Z</time>
      </trkpt>
      <trkpt lat="47.92595" lon="-3.34614">
        <ele>101.1</ele>
        <time>2021-11-25T11:59:34.000Z</time>
      </trkpt>
      <trkpt lat="47.92581" lon="-3.34607">
        <ele>100.4</ele>
        <time>2021-11-25T11:59:31.000Z</time>
      </trkpt>
      <trkpt lat="47.92568" lon="-3.34601">
        <ele>102</ele>
        <time>2021-11-25T11:59:28.000Z</time>
      </trkpt>
      <trkpt lat="47.92556" lon="-3.34592">
        <ele>100.2</ele>
        <time>2021-11-25T11:59:25.000Z</time>
      </trkpt>
      <trkpt lat="47.92543" lon="-3.34586">
        <ele>102.9</ele>
        <time>2021-11-25T11:59:22.000Z</time>
      </trkpt>
      <trkpt lat="47.92532" lon="-3.3458">
        <ele>99.7</ele>
        <time>2021-11-25T11:59:19.000Z</time>
      </trkpt>
      <trkpt lat="47.92519" lon="-3.34574">
        <ele>101.4</ele>
        <time>2021-11-25T11:59:16.000Z</time>
      </trkpt>
      <trkpt lat="47.92508" lon="-3.34569">
        <ele>99.9</ele>
        <time>2021-11-25T11:59:13.000Z</time>
      </trkpt>
      <trkpt lat="47.92496" lon="-3.34563">
        <ele>100.7</ele>
        <time>2021-11-25T11:59:10.000Z</time>
      </trkpt>
      <trkpt lat="47.92484" lon="-3.34558">
        <ele>98.7</ele>
        <time>2021-11-25T11:59:07.000Z</time>
      </trkpt>
      <trkpt lat="47.92472" lon="-3.34551">
        <ele>99.2</ele>
        <time>2021-11-25T11:59:04.000Z</time>
      </trkpt>
      <trkpt lat="47.9246" lon="-3.34545">
        <ele>96.9</ele>
        <time>2021-11-25T11:59:01.000Z</time>
      </trkpt>
      <trkpt lat="47.9245" lon="-3.34541">
        <ele>99.2</ele>
        <time>2021-11-25T11:58:58.000Z</time>
      </trkpt>
      <trkpt lat="47.92439" lon="-3.34536">
        <ele>98.2</ele>
        <time>2021-11-25T11:58:55.000Z</time>
      </trkpt>
      <trkpt lat="47.92429" lon="-3.34533">
        <ele>96.3</ele>
        <time>2021-11-25T11:58:52.000Z</time>
      </trkpt>
      <trkpt lat="47.92418" lon="-3.34529">
        <ele>99</ele>
        <time>2021-11-25T11:58:49.000Z</time>
      </trkpt>
      <trkpt lat="47.9241" lon="-3.34526">
        <ele>98.3</ele>
        <time>2021-11-25T11:58:46.000Z</time>
      </trkpt>
      <trkpt lat="47.92405" lon="-3.34524">
        <ele>98</ele>
        <time>2021-11-25T11:58:43.000Z</time>
      </trkpt>
      <trkpt lat="47.924" lon="-3.34523">
        <ele>97.4</ele>
        <time>2021-11-25T11:58:40.000Z</time>
      </trkpt>
      <trkpt lat="47.92397" lon="-3.34525">
        <ele>97.2</ele>
        <time>2021-11-25T11:58:37.000Z</time>
      </trkpt>
      <trkpt lat="47.92397" lon="-3.34526">
        <ele>97.4</ele>
        <time>2021-11-25T11:58:35.000Z</time>
      </trkpt>
      <trkpt lat="47.92397" lon="-3.34526">
        <ele>97.5</ele>
        <time>2021-11-25T11:58:34.000Z</time>
      </trkpt>
      <trkpt lat="47.92397" lon="-3.34526">
        <ele>97.5</ele>
        <time>2021-11-25T11:58:33.000Z</time>
      </trkpt>
      <trkpt lat="47.92397" lon="-3.34526">
        <ele>97.5</ele>
        <time>2021-11-25T11:58:30.000Z</time>
      </trkpt>
      <trkpt lat="47.92397" lon="-3.34526">
        <ele>97.5</ele>
        <time>2021-11-25T11:58:27.000Z</time>
      </trkpt>
      <trkpt lat="47.92397" lon="-3.34526">
        <ele>97.7</ele>
        <time>2021-11-25T11:58:24.000Z</time>
      </trkpt>
      <trkpt lat="47.92397" lon="-3.34526">
        <ele>97.8</ele>
        <time>2021-11-25T11:58:21.000Z</time>
      </trkpt>
      <trkpt lat="47.92397" lon="-3.34526">
        <ele>97.8</ele>
        <time>2021-11-25T11:58:20.000Z</time>
      </trkpt>
      <trkpt lat="47.92397" lon="-3.34526">
        <ele>97.4</ele>
        <time>2021-11-25T11:58:17.000Z</time>
      </trkpt>
      <trkpt lat="47.92397" lon="-3.34526">
        <ele>97.7</ele>
        <time>2021-11-25T11:58:14.000Z</time>
      </trkpt>
      <trkpt lat="47.92397" lon="-3.34526">
        <ele>97.3</ele>
        <time>2021-11-25T11:58:11.000Z</time>
      </trkpt>
      <trkpt lat="47.92397" lon="-3.34526">
        <ele>97.4</ele>
        <time>2021-11-25T11:58:08.000Z</time>
      </trkpt>
      <trkpt lat="47.92397" lon="-3.34526">
        <ele>97.7</ele>
        <time>2021-11-25T11:58:05.000Z</time>
      </trkpt>
      <trkpt lat="47.92394" lon="-3.34526">
        <ele>97.5</ele>
        <time>2021-11-25T11:58:02.000Z</time>
      </trkpt>
      <trkpt lat="47.92394" lon="-3.34526">
        <ele>97.3</ele>
        <time>2021-11-25T11:57:59.000Z</time>
      </trkpt>
      <trkpt lat="47.92394" lon="-3.34526">
        <ele>97.5</ele>
        <time>2021-11-25T11:57:56.000Z</time>
      </trkpt>
      <trkpt lat="47.92394" lon="-3.34526">
        <ele>97.9</ele>
        <time>2021-11-25T11:57:53.000Z</time>
      </trkpt>
      <trkpt lat="47.92394" lon="-3.34526">
        <ele>97.8</ele>
        <time>2021-11-25T11:57:50.000Z</time>
      </trkpt>
      <trkpt lat="47.92394" lon="-3.34526">
        <ele>97.7</ele>
        <time>2021-11-25T11:57:47.000Z</time>
      </trkpt>
      <trkpt lat="47.92394" lon="-3.34526">
        <ele>97.6</ele>
        <time>2021-11-25T11:57:44.000Z</time>
      </trkpt>
      <trkpt lat="47.92394" lon="-3.34526">
        <ele>97.9</ele>
        <time>2021-11-25T11:57:41.000Z</time>
      </trkpt>
      <trkpt lat="47.92394" lon="-3.34526">
        <ele>97.8</ele>
        <time>2021-11-25T11:57:38.000Z</time>
      </trkpt>
      <trkpt lat="47.92394" lon="-3.34526">
        <ele>97.6</ele>
        <time>2021-11-25T11:57:35.000Z</time>
      </trkpt>
      <trkpt lat="47.92394" lon="-3.34526">
        <ele>97.5</ele>
        <time>2021-11-25T11:57:32.000Z</time>
      </trkpt>
      <trkpt lat="47.92394" lon="-3.34526">
        <ele>97.4</ele>
        <time>2021-11-25T11:57:29.000Z</time>
      </trkpt>
      <trkpt lat="47.92394" lon="-3.34526">
        <ele>97.7</ele>
        <time>2021-11-25T11:57:26.000Z</time>
      </trkpt>
      <trkpt lat="47.92394" lon="-3.34526">
        <ele>97.5</ele>
        <time>2021-11-25T11:57:23.000Z</time>
      </trkpt>
      <trkpt lat="47.92394" lon="-3.34526">
        <ele>97.7</ele>
        <time>2021-11-25T11:57:20.000Z</time>
      </trkpt>
      <trkpt lat="47.92394" lon="-3.34525">
        <ele>97.6</ele>
        <time>2021-11-25T11:57:17.000Z</time>
      </trkpt>
      <trkpt lat="47.92394" lon="-3.34524">
        <ele>97.8</ele>
        <time>2021-11-25T11:57:16.000Z</time>
      </trkpt>
      <trkpt lat="47.92393" lon="-3.34524">
        <ele>97.7</ele>
        <time>2021-11-25T11:57:14.000Z</time>
      </trkpt>
      <trkpt lat="47.92393" lon="-3.34524">
        <ele>97.4</ele>
        <time>2021-11-25T11:57:11.000Z</time>
      </trkpt>
      <trkpt lat="47.92393" lon="-3.34524">
        <ele>97.5</ele>
        <time>2021-11-25T11:57:08.000Z</time>
      </trkpt>
      <trkpt lat="47.92393" lon="-3.34524">
        <ele>97.6</ele>
        <time>2021-11-25T11:57:05.000Z</time>
      </trkpt>
      <trkpt lat="47.92393" lon="-3.34524">
        <ele>97.4</ele>
        <time>2021-11-25T11:57:02.000Z</time>
      </trkpt>
      <trkpt lat="47.92393" lon="-3.34524">
        <ele>97.4</ele>
        <time>2021-11-25T11:56:59.000Z</time>
      </trkpt>
      <trkpt lat="47.92393" lon="-3.34524">
        <ele>97.3</ele>
        <time>2021-11-25T11:56:58.000Z</time>
      </trkpt>
      <trkpt lat="47.92393" lon="-3.34524">
        <ele>97.3</ele>
        <time>2021-11-25T11:56:56.000Z</time>
      </trkpt>
      <trkpt lat="47.92393" lon="-3.34523">
        <ele>97.3</ele>
        <time>2021-11-25T11:56:53.000Z</time>
      </trkpt>
      <trkpt lat="47.92393" lon="-3.34523">
        <ele>97.1</ele>
        <time>2021-11-25T11:56:50.000Z</time>
      </trkpt>
      <trkpt lat="47.92393" lon="-3.34523">
        <ele>97.1</ele>
        <time>2021-11-25T11:56:47.000Z</time>
      </trkpt>
      <trkpt lat="47.92393" lon="-3.34523">
        <ele>97.1</ele>
        <time>2021-11-25T11:56:44.000Z</time>
      </trkpt>
      <trkpt lat="47.92393" lon="-3.34523">
        <ele>97.2</ele>
        <time>2021-11-25T11:56:41.000Z</time>
      </trkpt>
      <trkpt lat="47.92393" lon="-3.34523">
        <ele>97.3</ele>
        <time>2021-11-25T11:56:38.000Z</time>
      </trkpt>
      <trkpt lat="47.92393" lon="-3.34525">
        <ele>97.5</ele>
        <time>2021-11-25T11:56:35.000Z</time>
      </trkpt>
      <trkpt lat="47.92395" lon="-3.34526">
        <ele>97.4</ele>
        <time>2021-11-25T11:56:32.000Z</time>
      </trkpt>
      <trkpt lat="47.92395" lon="-3.34526">
        <ele>97.4</ele>
        <time>2021-11-25T11:56:29.000Z</time>
      </trkpt>
      <trkpt lat="47.92395" lon="-3.34526">
        <ele>97.5</ele>
        <time>2021-11-25T11:56:27.000Z</time>
      </trkpt>
      <trkpt lat="47.92396" lon="-3.34528">
        <ele>97.5</ele>
        <time>2021-11-25T11:56:24.000Z</time>
      </trkpt>
      <trkpt lat="47.92397" lon="-3.34528">
        <ele>97.7</ele>
        <time>2021-11-25T11:56:21.000Z</time>
      </trkpt>
      <trkpt lat="47.92397" lon="-3.34528">
        <ele>97.7</ele>
        <time>2021-11-25T11:56:20.000Z</time>
      </trkpt>
      <trkpt lat="47.92397" lon="-3.34528">
        <ele>97.7</ele>
        <time>2021-11-25T11:56:17.000Z</time>
      </trkpt>
      <trkpt lat="47.92397" lon="-3.34528">
        <ele>97.9</ele>
        <time>2021-11-25T11:56:14.000Z</time>
      </trkpt>
      <trkpt lat="47.92397" lon="-3.34528">
        <ele>97.7</ele>
        <time>2021-11-25T11:56:11.000Z</time>
      </trkpt>
      <trkpt lat="47.92397" lon="-3.34528">
        <ele>97.6</ele>
        <time>2021-11-25T11:56:08.000Z</time>
      </trkpt>
      <trkpt lat="47.92397" lon="-3.34528">
        <ele>97.6</ele>
        <time>2021-11-25T11:56:06.000Z</time>
      </trkpt>
      <trkpt lat="47.92398" lon="-3.34527">
        <ele>98.1</ele>
        <time>2021-11-25T11:56:03.000Z</time>
      </trkpt>
      <trkpt lat="47.924" lon="-3.34525">
        <ele>97.8</ele>
        <time>2021-11-25T11:56:00.000Z</time>
      </trkpt>
      <trkpt lat="47.924" lon="-3.34525">
        <ele>97.7</ele>
        <time>2021-11-25T11:55:57.000Z</time>
      </trkpt>
      <trkpt lat="47.924" lon="-3.34525">
        <ele>97.8</ele>
        <time>2021-11-25T11:55:54.000Z</time>
      </trkpt>
      <trkpt lat="47.924" lon="-3.34525">
        <ele>97.9</ele>
        <time>2021-11-25T11:55:51.000Z</time>
      </trkpt>
      <trkpt lat="47.924" lon="-3.34525">
        <ele>97.7</ele>
        <time>2021-11-25T11:55:48.000Z</time>
      </trkpt>
      <trkpt lat="47.924" lon="-3.34525">
        <ele>98</ele>
        <time>2021-11-25T11:55:45.000Z</time>
      </trkpt>
      <trkpt lat="47.924" lon="-3.34525">
        <ele>97.7</ele>
        <time>2021-11-25T11:55:42.000Z</time>
      </trkpt>
      <trkpt lat="47.924" lon="-3.34525">
        <ele>97.8</ele>
        <time>2021-11-25T11:55:39.000Z</time>
      </trkpt>
      <trkpt lat="47.924" lon="-3.34525">
        <ele>97.6</ele>
        <time>2021-11-25T11:55:36.000Z</time>
      </trkpt>
      <trkpt lat="47.924" lon="-3.34525">
        <ele>97.6</ele>
        <time>2021-11-25T11:55:35.000Z</time>
      </trkpt>
      <trkpt lat="47.924" lon="-3.34525">
        <ele>97.8</ele>
        <time>2021-11-25T11:55:33.000Z</time>
      </trkpt>
      <trkpt lat="47.924" lon="-3.34525">
        <ele>97.6</ele>
        <time>2021-11-25T11:55:30.000Z</time>
      </trkpt>
      <trkpt lat="47.924" lon="-3.34525">
        <ele>97.7</ele>
        <time>2021-11-25T11:55:29.000Z</time>
      </trkpt>
      <trkpt lat="47.924" lon="-3.34524">
        <ele>97.9</ele>
        <time>2021-11-25T11:55:27.000Z</time>
      </trkpt>
      <trkpt lat="47.924" lon="-3.34524">
        <ele>98</ele>
        <time>2021-11-25T11:55:24.000Z</time>
      </trkpt>
      <trkpt lat="47.924" lon="-3.34524">
        <ele>98.1</ele>
        <time>2021-11-25T11:55:23.000Z</time>
      </trkpt>
      <trkpt lat="47.924" lon="-3.34524">
        <ele>98.2</ele>
        <time>2021-11-25T11:55:22.000Z</time>
      </trkpt>
      <trkpt lat="47.924" lon="-3.34524">
        <ele>97.8</ele>
        <time>2021-11-25T11:55:19.000Z</time>
      </trkpt>
      <trkpt lat="47.924" lon="-3.34524">
        <ele>97.5</ele>
        <time>2021-11-25T11:55:16.000Z</time>
      </trkpt>
      <trkpt lat="47.924" lon="-3.34524">
        <ele>97.5</ele>
        <time>2021-11-25T11:55:15.000Z</time>
      </trkpt>
      <trkpt lat="47.924" lon="-3.34524">
        <ele>97.6</ele>
        <time>2021-11-25T11:55:13.000Z</time>
      </trkpt>
      <trkpt lat="47.924" lon="-3.34524">
        <ele>97.7</ele>
        <time>2021-11-25T11:55:10.000Z</time>
      </trkpt>
      <trkpt lat="47.924" lon="-3.34524">
        <ele>97.7</ele>
        <time>2021-11-25T11:55:07.000Z</time>
      </trkpt>
      <trkpt lat="47.924" lon="-3.34524">
        <ele>97.8</ele>
        <time>2021-11-25T11:55:04.000Z</time>
      </trkpt>
      <trkpt lat="47.924" lon="-3.34524">
        <ele>97.7</ele>
        <time>2021-11-25T11:55:01.000Z</time>
      </trkpt>
      <trkpt lat="47.924" lon="-3.34524">
        <ele>97.9</ele>
        <time>2021-11-25T11:54:58.000Z</time>
      </trkpt>
      <trkpt lat="47.924" lon="-3.34524">
        <ele>97.8</ele>
        <time>2021-11-25T11:54:55.000Z</time>
      </trkpt>
      <trkpt lat="47.924" lon="-3.34524">
        <ele>97.7</ele>
        <time>2021-11-25T11:54:52.000Z</time>
      </trkpt>
      <trkpt lat="47.924" lon="-3.34524">
        <ele>97.6</ele>
        <time>2021-11-25T11:54:51.000Z</time>
      </trkpt>
      <trkpt lat="47.92401" lon="-3.34524">
        <ele>97.6</ele>
        <time>2021-11-25T11:54:50.000Z</time>
      </trkpt>
      <trkpt lat="47.92401" lon="-3.34524">
        <ele>97.6</ele>
        <time>2021-11-25T11:54:49.000Z</time>
      </trkpt>
      <trkpt lat="47.92401" lon="-3.34524">
        <ele>98</ele>
        <time>2021-11-25T11:54:46.000Z</time>
      </trkpt>
      <trkpt lat="47.92401" lon="-3.34524">
        <ele>97.7</ele>
        <time>2021-11-25T11:54:43.000Z</time>
      </trkpt>
      <trkpt lat="47.92401" lon="-3.34524">
        <ele>97.8</ele>
        <time>2021-11-25T11:54:40.000Z</time>
      </trkpt>
      <trkpt lat="47.92402" lon="-3.34524">
        <ele>97.7</ele>
        <time>2021-11-25T11:54:38.000Z</time>
      </trkpt>
      <trkpt lat="47.92401" lon="-3.34524">
        <ele>97.9</ele>
        <time>2021-11-25T11:54:35.000Z</time>
      </trkpt>
      <trkpt lat="47.92398" lon="-3.34524">
        <ele>97.2</ele>
        <time>2021-11-25T11:54:32.000Z</time>
      </trkpt>
      <trkpt lat="47.92398" lon="-3.34524">
        <ele>97.5</ele>
        <time>2021-11-25T11:54:31.000Z</time>
      </trkpt>
      <trkpt lat="47.92398" lon="-3.34524">
        <ele>97.5</ele>
        <time>2021-11-25T11:54:29.000Z</time>
      </trkpt>
      <trkpt lat="47.92394" lon="-3.34523">
        <ele>96.9</ele>
        <time>2021-11-25T11:54:26.000Z</time>
      </trkpt>
      <trkpt lat="47.92389" lon="-3.34521">
        <ele>97.3</ele>
        <time>2021-11-25T11:54:23.000Z</time>
      </trkpt>
      <trkpt lat="47.92382" lon="-3.34517">
        <ele>96.9</ele>
        <time>2021-11-25T11:54:20.000Z</time>
      </trkpt>
      <trkpt lat="47.92373" lon="-3.34514">
        <ele>97</ele>
        <time>2021-11-25T11:54:17.000Z</time>
      </trkpt>
      <trkpt lat="47.9236" lon="-3.34511">
        <ele>96.3</ele>
        <time>2021-11-25T11:54:14.000Z</time>
      </trkpt>
      <trkpt lat="47.92345" lon="-3.34506">
        <ele>94.7</ele>
        <time>2021-11-25T11:54:11.000Z</time>
      </trkpt>
      <trkpt lat="47.92333" lon="-3.34501">
        <ele>90</ele>
        <time>2021-11-25T11:54:08.000Z</time>
      </trkpt>
      <trkpt lat="47.9232" lon="-3.34497">
        <ele>95.1</ele>
        <time>2021-11-25T11:54:05.000Z</time>
      </trkpt>
      <trkpt lat="47.92306" lon="-3.34492">
        <ele>94.4</ele>
        <time>2021-11-25T11:54:02.000Z</time>
      </trkpt>
      <trkpt lat="47.92294" lon="-3.34487">
        <ele>92.6</ele>
        <time>2021-11-25T11:53:59.000Z</time>
      </trkpt>
      <trkpt lat="47.92281" lon="-3.34482">
        <ele>94.1</ele>
        <time>2021-11-25T11:53:56.000Z</time>
      </trkpt>
      <trkpt lat="47.92268" lon="-3.34475">
        <ele>92.1</ele>
        <time>2021-11-25T11:53:53.000Z</time>
      </trkpt>
      <trkpt lat="47.92256" lon="-3.34466">
        <ele>90.8</ele>
        <time>2021-11-25T11:53:50.000Z</time>
      </trkpt>
      <trkpt lat="47.92244" lon="-3.34454">
        <ele>92.6</ele>
        <time>2021-11-25T11:53:47.000Z</time>
      </trkpt>
      <trkpt lat="47.92231" lon="-3.3444">
        <ele>91.2</ele>
        <time>2021-11-25T11:53:44.000Z</time>
      </trkpt>
      <trkpt lat="47.92219" lon="-3.34425">
        <ele>90.7</ele>
        <time>2021-11-25T11:53:41.000Z</time>
      </trkpt>
      <trkpt lat="47.92208" lon="-3.34409">
        <ele>91.1</ele>
        <time>2021-11-25T11:53:38.000Z</time>
      </trkpt>
      <trkpt lat="47.92197" lon="-3.3439">
        <ele>91.5</ele>
        <time>2021-11-25T11:53:35.000Z</time>
      </trkpt>
      <trkpt lat="47.92188" lon="-3.34367">
        <ele>90</ele>
        <time>2021-11-25T11:53:32.000Z</time>
      </trkpt>
      <trkpt lat="47.92179" lon="-3.34344">
        <ele>85.6</ele>
        <time>2021-11-25T11:53:29.000Z</time>
      </trkpt>
      <trkpt lat="47.92171" lon="-3.34321">
        <ele>89.5</ele>
        <time>2021-11-25T11:53:26.000Z</time>
      </trkpt>
      <trkpt lat="47.92163" lon="-3.34299">
        <ele>88.5</ele>
        <time>2021-11-25T11:53:23.000Z</time>
      </trkpt>
      <trkpt lat="47.92156" lon="-3.34278">
        <ele>89.4</ele>
        <time>2021-11-25T11:53:20.000Z</time>
      </trkpt>
      <trkpt lat="47.92153" lon="-3.34252">
        <ele>91.3</ele>
        <time>2021-11-25T11:53:17.000Z</time>
      </trkpt>
      <trkpt lat="47.92151" lon="-3.34224">
        <ele>90.7</ele>
        <time>2021-11-25T11:53:14.000Z</time>
      </trkpt>
      <trkpt lat="47.9215" lon="-3.34198">
        <ele>92.5</ele>
        <time>2021-11-25T11:53:11.000Z</time>
      </trkpt>
      <trkpt lat="47.92149" lon="-3.34172">
        <ele>90.7</ele>
        <time>2021-11-25T11:53:08.000Z</time>
      </trkpt>
      <trkpt lat="47.92149" lon="-3.34145">
        <ele>92.7</ele>
        <time>2021-11-25T11:53:05.000Z</time>
      </trkpt>
      <trkpt lat="47.92149" lon="-3.3412">
        <ele>90.9</ele>
        <time>2021-11-25T11:53:02.000Z</time>
      </trkpt>
      <trkpt lat="47.92151" lon="-3.34096">
        <ele>93</ele>
        <time>2021-11-25T11:52:59.000Z</time>
      </trkpt>
      <trkpt lat="47.92153" lon="-3.34074">
        <ele>93.7</ele>
        <time>2021-11-25T11:52:56.000Z</time>
      </trkpt>
      <trkpt lat="47.92154" lon="-3.34053">
        <ele>93.2</ele>
        <time>2021-11-25T11:52:53.000Z</time>
      </trkpt>
      <trkpt lat="47.92157" lon="-3.34032">
        <ele>93.8</ele>
        <time>2021-11-25T11:52:50.000Z</time>
      </trkpt>
      <trkpt lat="47.92158" lon="-3.34012">
        <ele>94.4</ele>
        <time>2021-11-25T11:52:47.000Z</time>
      </trkpt>
      <trkpt lat="47.92158" lon="-3.33992">
        <ele>93.9</ele>
        <time>2021-11-25T11:52:44.000Z</time>
      </trkpt>
      <trkpt lat="47.92157" lon="-3.33974">
        <ele>94</ele>
        <time>2021-11-25T11:52:41.000Z</time>
      </trkpt>
      <trkpt lat="47.92157" lon="-3.33956">
        <ele>93.6</ele>
        <time>2021-11-25T11:52:38.000Z</time>
      </trkpt>
      <trkpt lat="47.92154" lon="-3.3394">
        <ele>93.5</ele>
        <time>2021-11-25T11:52:35.000Z</time>
      </trkpt>
      <trkpt lat="47.92149" lon="-3.33923">
        <ele>91.2</ele>
        <time>2021-11-25T11:52:32.000Z</time>
      </trkpt>
      <trkpt lat="47.92144" lon="-3.33907">
        <ele>92.4</ele>
        <time>2021-11-25T11:52:29.000Z</time>
      </trkpt>
      <trkpt lat="47.92137" lon="-3.33889">
        <ele>93.2</ele>
        <time>2021-11-25T11:52:26.000Z</time>
      </trkpt>
      <trkpt lat="47.9213" lon="-3.33872">
        <ele>89.5</ele>
        <time>2021-11-25T11:52:23.000Z</time>
      </trkpt>
      <trkpt lat="47.92123" lon="-3.33856">
        <ele>91.5</ele>
        <time>2021-11-25T11:52:20.000Z</time>
      </trkpt>
      <trkpt lat="47.92115" lon="-3.33843">
        <ele>91.8</ele>
        <time>2021-11-25T11:52:17.000Z</time>
      </trkpt>
      <trkpt lat="47.92105" lon="-3.3383">
        <ele>87.9</ele>
        <time>2021-11-25T11:52:14.000Z</time>
      </trkpt>
      <trkpt lat="47.92096" lon="-3.33819">
        <ele>88.6</ele>
        <time>2021-11-25T11:52:11.000Z</time>
      </trkpt>
      <trkpt lat="47.92087" lon="-3.33808">
        <ele>87.3</ele>
        <time>2021-11-25T11:52:08.000Z</time>
      </trkpt>
      <trkpt lat="47.92075" lon="-3.33799">
        <ele>87.3</ele>
        <time>2021-11-25T11:52:05.000Z</time>
      </trkpt>
      <trkpt lat="47.92065" lon="-3.33788">
        <ele>87</ele>
        <time>2021-11-25T11:52:02.000Z</time>
      </trkpt>
      <trkpt lat="47.92054" lon="-3.33776">
        <ele>86.9</ele>
        <time>2021-11-25T11:51:59.000Z</time>
      </trkpt>
      <trkpt lat="47.92043" lon="-3.33762">
        <ele>85.8</ele>
        <time>2021-11-25T11:51:56.000Z</time>
      </trkpt>
      <trkpt lat="47.92032" lon="-3.33749">
        <ele>87.1</ele>
        <time>2021-11-25T11:51:53.000Z</time>
      </trkpt>
      <trkpt lat="47.9202" lon="-3.33738">
        <ele>86</ele>
        <time>2021-11-25T11:51:50.000Z</time>
      </trkpt>
      <trkpt lat="47.92009" lon="-3.33726">
        <ele>85.8</ele>
        <time>2021-11-25T11:51:47.000Z</time>
      </trkpt>
      <trkpt lat="47.91998" lon="-3.33713">
        <ele>84.5</ele>
        <time>2021-11-25T11:51:44.000Z</time>
      </trkpt>
      <trkpt lat="47.91987" lon="-3.33701">
        <ele>84</ele>
        <time>2021-11-25T11:51:41.000Z</time>
      </trkpt>
      <trkpt lat="47.91977" lon="-3.3369">
        <ele>84.8</ele>
        <time>2021-11-25T11:51:38.000Z</time>
      </trkpt>
      <trkpt lat="47.91966" lon="-3.33678">
        <ele>84.8</ele>
        <time>2021-11-25T11:51:35.000Z</time>
      </trkpt>
      <trkpt lat="47.91956" lon="-3.33666">
        <ele>85.3</ele>
        <time>2021-11-25T11:51:32.000Z</time>
      </trkpt>
      <trkpt lat="47.91947" lon="-3.33654">
        <ele>83.5</ele>
        <time>2021-11-25T11:51:29.000Z</time>
      </trkpt>
      <trkpt lat="47.91939" lon="-3.3364">
        <ele>87.1</ele>
        <time>2021-11-25T11:51:26.000Z</time>
      </trkpt>
      <trkpt lat="47.91932" lon="-3.33626">
        <ele>86.1</ele>
        <time>2021-11-25T11:51:23.000Z</time>
      </trkpt>
      <trkpt lat="47.91926" lon="-3.33612">
        <ele>84.7</ele>
        <time>2021-11-25T11:51:20.000Z</time>
      </trkpt>
      <trkpt lat="47.91921" lon="-3.33598">
        <ele>83.8</ele>
        <time>2021-11-25T11:51:17.000Z</time>
      </trkpt>
      <trkpt lat="47.91916" lon="-3.33584">
        <ele>84.9</ele>
        <time>2021-11-25T11:51:14.000Z</time>
      </trkpt>
      <trkpt lat="47.91909" lon="-3.33573">
        <ele>85</ele>
        <time>2021-11-25T11:51:11.000Z</time>
      </trkpt>
      <trkpt lat="47.91901" lon="-3.33566">
        <ele>84.9</ele>
        <time>2021-11-25T11:51:08.000Z</time>
      </trkpt>
      <trkpt lat="47.91891" lon="-3.33566">
        <ele>83</ele>
        <time>2021-11-25T11:51:05.000Z</time>
      </trkpt>
      <trkpt lat="47.9188" lon="-3.33565">
        <ele>82.7</ele>
        <time>2021-11-25T11:51:02.000Z</time>
      </trkpt>
      <trkpt lat="47.91869" lon="-3.33565">
        <ele>82.1</ele>
        <time>2021-11-25T11:50:59.000Z</time>
      </trkpt>
      <trkpt lat="47.91857" lon="-3.33564">
        <ele>81.2</ele>
        <time>2021-11-25T11:50:56.000Z</time>
      </trkpt>
      <trkpt lat="47.91845" lon="-3.33564">
        <ele>79.7</ele>
        <time>2021-11-25T11:50:53.000Z</time>
      </trkpt>
      <trkpt lat="47.91832" lon="-3.33565">
        <ele>79.1</ele>
        <time>2021-11-25T11:50:50.000Z</time>
      </trkpt>
      <trkpt lat="47.91822" lon="-3.33559">
        <ele>78.7</ele>
        <time>2021-11-25T11:50:47.000Z</time>
      </trkpt>
      <trkpt lat="47.91813" lon="-3.33546">
        <ele>77</ele>
        <time>2021-11-25T11:50:44.000Z</time>
      </trkpt>
      <trkpt lat="47.91804" lon="-3.33532">
        <ele>77.8</ele>
        <time>2021-11-25T11:50:41.000Z</time>
      </trkpt>
      <trkpt lat="47.91795" lon="-3.33516">
        <ele>77.3</ele>
        <time>2021-11-25T11:50:38.000Z</time>
      </trkpt>
      <trkpt lat="47.91784" lon="-3.33502">
        <ele>78.3</ele>
        <time>2021-11-25T11:50:35.000Z</time>
      </trkpt>
      <trkpt lat="47.91772" lon="-3.33492">
        <ele>77.1</ele>
        <time>2021-11-25T11:50:32.000Z</time>
      </trkpt>
      <trkpt lat="47.91759" lon="-3.33484">
        <ele>77</ele>
        <time>2021-11-25T11:50:29.000Z</time>
      </trkpt>
      <trkpt lat="47.91746" lon="-3.33481">
        <ele>76.7</ele>
        <time>2021-11-25T11:50:26.000Z</time>
      </trkpt>
      <trkpt lat="47.91732" lon="-3.33479">
        <ele>76.3</ele>
        <time>2021-11-25T11:50:23.000Z</time>
      </trkpt>
      <trkpt lat="47.91718" lon="-3.33477">
        <ele>76.4</ele>
        <time>2021-11-25T11:50:20.000Z</time>
      </trkpt>
      <trkpt lat="47.91704" lon="-3.33473">
        <ele>76</ele>
        <time>2021-11-25T11:50:17.000Z</time>
      </trkpt>
      <trkpt lat="47.91691" lon="-3.33464">
        <ele>75.3</ele>
        <time>2021-11-25T11:50:14.000Z</time>
      </trkpt>
      <trkpt lat="47.9168" lon="-3.33464">
        <ele>75.7</ele>
        <time>2021-11-25T11:50:11.000Z</time>
      </trkpt>
      <trkpt lat="47.91673" lon="-3.33476">
        <ele>75.9</ele>
        <time>2021-11-25T11:50:08.000Z</time>
      </trkpt>
      <trkpt lat="47.91668" lon="-3.33494">
        <ele>76.3</ele>
        <time>2021-11-25T11:50:05.000Z</time>
      </trkpt>
      <trkpt lat="47.91659" lon="-3.33503">
        <ele>76.6</ele>
        <time>2021-11-25T11:50:02.000Z</time>
      </trkpt>
      <trkpt lat="47.91645" lon="-3.33498">
        <ele>76.5</ele>
        <time>2021-11-25T11:49:59.000Z</time>
      </trkpt>
      <trkpt lat="47.9163" lon="-3.33492">
        <ele>77.2</ele>
        <time>2021-11-25T11:49:56.000Z</time>
      </trkpt>
      <trkpt lat="47.91616" lon="-3.33486">
        <ele>77.9</ele>
        <time>2021-11-25T11:49:53.000Z</time>
      </trkpt>
      <trkpt lat="47.91607" lon="-3.33491">
        <ele>78.7</ele>
        <time>2021-11-25T11:49:50.000Z</time>
      </trkpt>
      <trkpt lat="47.91603" lon="-3.33508">
        <ele>78.4</ele>
        <time>2021-11-25T11:49:47.000Z</time>
      </trkpt>
      <trkpt lat="47.91601" lon="-3.33527">
        <ele>78.9</ele>
        <time>2021-11-25T11:49:44.000Z</time>
      </trkpt>
      <trkpt lat="47.91597" lon="-3.33537">
        <ele>80</ele>
        <time>2021-11-25T11:49:41.000Z</time>
      </trkpt>
      <trkpt lat="47.91591" lon="-3.33535">
        <ele>78.2</ele>
        <time>2021-11-25T11:49:38.000Z</time>
      </trkpt>
      <trkpt lat="47.91582" lon="-3.33533">
        <ele>77.3</ele>
        <time>2021-11-25T11:49:35.000Z</time>
      </trkpt>
      <trkpt lat="47.9157" lon="-3.33531">
        <ele>77.2</ele>
        <time>2021-11-25T11:49:32.000Z</time>
      </trkpt>
      <trkpt lat="47.91543" lon="-3.33527">
        <ele>80</ele>
      </trkpt>
      <trkpt lat="47.91545" lon="-3.33499">
        <ele>78</ele>
        <time>2021-11-25T11:11:34.000Z</time>
      </trkpt>
      <trkpt lat="47.91544" lon="-3.33483">
        <ele>78.9</ele>
        <time>2021-11-25T11:11:31.000Z</time>
      </trkpt>
      <trkpt lat="47.91544" lon="-3.33469">
        <ele>78.6</ele>
        <time>2021-11-25T11:11:28.000Z</time>
      </trkpt>
      <trkpt lat="47.91543" lon="-3.33462">
        <ele>78.5</ele>
        <time>2021-11-25T11:11:25.000Z</time>
      </trkpt>
      <trkpt lat="47.91543" lon="-3.33462">
        <ele>78.4</ele>
        <time>2021-11-25T11:11:23.000Z</time>
      </trkpt>
      <trkpt lat="47.91544" lon="-3.33461">
        <ele>78.6</ele>
        <time>2021-11-25T11:11:21.000Z</time>
      </trkpt>
      <trkpt lat="47.91544" lon="-3.33457">
        <ele>78.6</ele>
        <time>2021-11-25T11:11:18.000Z</time>
      </trkpt>
      <trkpt lat="47.91545" lon="-3.33451">
        <ele>78.7</ele>
        <time>2021-11-25T11:11:15.000Z</time>
      </trkpt>
      <trkpt lat="47.91545" lon="-3.33444">
        <ele>78.4</ele>
        <time>2021-11-25T11:11:12.000Z</time>
      </trkpt>
      <trkpt lat="47.91545" lon="-3.33435">
        <ele>78.3</ele>
        <time>2021-11-25T11:11:09.000Z</time>
      </trkpt>
      <trkpt lat="47.91543" lon="-3.33425">
        <ele>78</ele>
        <time>2021-11-25T11:11:06.000Z</time>
      </trkpt>
      <trkpt lat="47.91539" lon="-3.33422">
        <ele>78.1</ele>
        <time>2021-11-25T11:11:03.000Z</time>
      </trkpt>
      <trkpt lat="47.91532" lon="-3.33421">
        <ele>77.2</ele>
        <time>2021-11-25T11:11:00.000Z</time>
      </trkpt>
      <trkpt lat="47.91521" lon="-3.33418">
        <ele>77.1</ele>
        <time>2021-11-25T11:10:57.000Z</time>
      </trkpt>
      <trkpt lat="47.91509" lon="-3.33415">
        <ele>77.8</ele>
        <time>2021-11-25T11:10:54.000Z</time>
      </trkpt>
      <trkpt lat="47.91496" lon="-3.33412">
        <ele>76</ele>
        <time>2021-11-25T11:10:51.000Z</time>
      </trkpt>
      <trkpt lat="47.91482" lon="-3.33412">
        <ele>73.8</ele>
        <time>2021-11-25T11:10:48.000Z</time>
      </trkpt>
      <trkpt lat="47.91473" lon="-3.33422">
        <ele>75</ele>
        <time>2021-11-25T11:10:45.000Z</time>
      </trkpt>
      <trkpt lat="47.9147" lon="-3.3344">
        <ele>73.6</ele>
        <time>2021-11-25T11:10:42.000Z</time>
      </trkpt>
      <trkpt lat="47.91466" lon="-3.33458">
        <ele>76.3</ele>
        <time>2021-11-25T11:10:39.000Z</time>
      </trkpt>
      <trkpt lat="47.91462" lon="-3.33473">
        <ele>76.2</ele>
        <time>2021-11-25T11:10:36.000Z</time>
      </trkpt>
      <trkpt lat="47.91454" lon="-3.3348">
        <ele>76</ele>
        <time>2021-11-25T11:10:33.000Z</time>
      </trkpt>
      <trkpt lat="47.91443" lon="-3.33482">
        <ele>75</ele>
        <time>2021-11-25T11:10:30.000Z</time>
      </trkpt>
      <trkpt lat="47.9143" lon="-3.33484">
        <ele>74.9</ele>
        <time>2021-11-25T11:10:27.000Z</time>
      </trkpt>
      <trkpt lat="47.91416" lon="-3.33486">
        <ele>74.4</ele>
        <time>2021-11-25T11:10:24.000Z</time>
      </trkpt>
      <trkpt lat="47.91401" lon="-3.33491">
        <ele>74.1</ele>
        <time>2021-11-25T11:10:21.000Z</time>
      </trkpt>
      <trkpt lat="47.91386" lon="-3.33494">
        <ele>73.7</ele>
        <time>2021-11-25T11:10:18.000Z</time>
      </trkpt>
      <trkpt lat="47.9137" lon="-3.33498">
        <ele>73.4</ele>
        <time>2021-11-25T11:10:15.000Z</time>
      </trkpt>
      <trkpt lat="47.91355" lon="-3.33502">
        <ele>73.4</ele>
        <time>2021-11-25T11:10:12.000Z</time>
      </trkpt>
      <trkpt lat="47.91339" lon="-3.33505">
        <ele>72.6</ele>
        <time>2021-11-25T11:10:09.000Z</time>
      </trkpt>
      <trkpt lat="47.91323" lon="-3.33508">
        <ele>71</ele>
        <time>2021-11-25T11:10:06.000Z</time>
      </trkpt>
      <trkpt lat="47.91305" lon="-3.33512">
        <ele>72.5</ele>
        <time>2021-11-25T11:10:03.000Z</time>
      </trkpt>
      <trkpt lat="47.91288" lon="-3.33516">
        <ele>72.5</ele>
        <time>2021-11-25T11:10:00.000Z</time>
      </trkpt>
      <trkpt lat="47.9127" lon="-3.33522">
        <ele>72.3</ele>
        <time>2021-11-25T11:09:57.000Z</time>
      </trkpt>
      <trkpt lat="47.91252" lon="-3.3353">
        <ele>71.9</ele>
        <time>2021-11-25T11:09:54.000Z</time>
      </trkpt>
      <trkpt lat="47.91234" lon="-3.3354">
        <ele>71.3</ele>
        <time>2021-11-25T11:09:51.000Z</time>
      </trkpt>
      <trkpt lat="47.91216" lon="-3.33549">
        <ele>70.5</ele>
        <time>2021-11-25T11:09:48.000Z</time>
      </trkpt>
      <trkpt lat="47.91197" lon="-3.3356">
        <ele>71.1</ele>
        <time>2021-11-25T11:09:45.000Z</time>
      </trkpt>
      <trkpt lat="47.91179" lon="-3.33569">
        <ele>71.6</ele>
        <time>2021-11-25T11:09:42.000Z</time>
      </trkpt>
      <trkpt lat="47.91161" lon="-3.33578">
        <ele>70.6</ele>
        <time>2021-11-25T11:09:39.000Z</time>
      </trkpt>
      <trkpt lat="47.91144" lon="-3.33587">
        <ele>72.2</ele>
        <time>2021-11-25T11:09:36.000Z</time>
      </trkpt>
      <trkpt lat="47.91129" lon="-3.33594">
        <ele>72.6</ele>
        <time>2021-11-25T11:09:33.000Z</time>
      </trkpt>
      <trkpt lat="47.91117" lon="-3.33601">
        <ele>73.4</ele>
        <time>2021-11-25T11:09:30.000Z</time>
      </trkpt>
      <trkpt lat="47.91114" lon="-3.33616">
        <ele>74.5</ele>
        <time>2021-11-25T11:09:27.000Z</time>
      </trkpt>
      <trkpt lat="47.91114" lon="-3.33636">
        <ele>74.5</ele>
        <time>2021-11-25T11:09:24.000Z</time>
      </trkpt>
      <trkpt lat="47.91114" lon="-3.33664">
        <ele>75.7</ele>
        <time>2021-11-25T11:09:21.000Z</time>
      </trkpt>
      <trkpt lat="47.91114" lon="-3.33693">
        <ele>74.3</ele>
        <time>2021-11-25T11:09:18.000Z</time>
      </trkpt>
      <trkpt lat="47.91113" lon="-3.33727">
        <ele>76.5</ele>
        <time>2021-11-25T11:09:15.000Z</time>
      </trkpt>
      <trkpt lat="47.91112" lon="-3.33761">
        <ele>75.7</ele>
        <time>2021-11-25T11:09:12.000Z</time>
      </trkpt>
      <trkpt lat="47.91111" lon="-3.33796">
        <ele>75.4</ele>
        <time>2021-11-25T11:09:09.000Z</time>
      </trkpt>
      <trkpt lat="47.9111" lon="-3.33829">
        <ele>76.7</ele>
        <time>2021-11-25T11:09:06.000Z</time>
      </trkpt>
      <trkpt lat="47.9111" lon="-3.33862">
        <ele>76.4</ele>
        <time>2021-11-25T11:09:03.000Z</time>
      </trkpt>
      <trkpt lat="47.91109" lon="-3.33894">
        <ele>77.7</ele>
        <time>2021-11-25T11:09:00.000Z</time>
      </trkpt>
      <trkpt lat="47.91108" lon="-3.33923">
        <ele>78.3</ele>
        <time>2021-11-25T11:08:57.000Z</time>
      </trkpt>
      <trkpt lat="47.91107" lon="-3.33951">
        <ele>77.8</ele>
        <time>2021-11-25T11:08:54.000Z</time>
      </trkpt>
      <trkpt lat="47.91106" lon="-3.33976">
        <ele>78.4</ele>
        <time>2021-11-25T11:08:51.000Z</time>
      </trkpt>
      <trkpt lat="47.91106" lon="-3.34001">
        <ele>77.2</ele>
        <time>2021-11-25T11:08:48.000Z</time>
      </trkpt>
      <trkpt lat="47.91104" lon="-3.34023">
        <ele>77.7</ele>
        <time>2021-11-25T11:08:45.000Z</time>
      </trkpt>
      <trkpt lat="47.911" lon="-3.3404">
        <ele>77.9</ele>
        <time>2021-11-25T11:08:42.000Z</time>
      </trkpt>
      <trkpt lat="47.91103" lon="-3.34054">
        <ele>78.1</ele>
        <time>2021-11-25T11:08:39.000Z</time>
      </trkpt>
      <trkpt lat="47.91103" lon="-3.34066">
        <ele>77.6</ele>
        <time>2021-11-25T11:08:36.000Z</time>
      </trkpt>
      <trkpt lat="47.911" lon="-3.34089">
        <ele>77.5</ele>
        <time>2021-11-25T11:08:33.000Z</time>
      </trkpt>
      <trkpt lat="47.91097" lon="-3.34115">
        <ele>78.7</ele>
        <time>2021-11-25T11:08:30.000Z</time>
      </trkpt>
      <trkpt lat="47.91093" lon="-3.34143">
        <ele>77</ele>
        <time>2021-11-25T11:08:27.000Z</time>
      </trkpt>
      <trkpt lat="47.91089" lon="-3.34172">
        <ele>76.7</ele>
        <time>2021-11-25T11:08:24.000Z</time>
      </trkpt>
      <trkpt lat="47.91085" lon="-3.34202">
        <ele>76.4</ele>
        <time>2021-11-25T11:08:21.000Z</time>
      </trkpt>
      <trkpt lat="47.91081" lon="-3.34233">
        <ele>77.3</ele>
        <time>2021-11-25T11:08:18.000Z</time>
      </trkpt>
      <trkpt lat="47.91076" lon="-3.34264">
        <ele>77.3</ele>
        <time>2021-11-25T11:08:15.000Z</time>
      </trkpt>
      <trkpt lat="47.91072" lon="-3.34293">
        <ele>78.7</ele>
        <time>2021-11-25T11:08:12.000Z</time>
      </trkpt>
      <trkpt lat="47.91068" lon="-3.3432">
        <ele>78.6</ele>
        <time>2021-11-25T11:08:09.000Z</time>
      </trkpt>
      <trkpt lat="47.91065" lon="-3.34346">
        <ele>77.4</ele>
        <time>2021-11-25T11:08:06.000Z</time>
      </trkpt>
      <trkpt lat="47.91062" lon="-3.34371">
        <ele>77.3</ele>
        <time>2021-11-25T11:08:03.000Z</time>
      </trkpt>
      <trkpt lat="47.91059" lon="-3.34396">
        <ele>78.5</ele>
        <time>2021-11-25T11:08:00.000Z</time>
      </trkpt>
      <trkpt lat="47.91056" lon="-3.34422">
        <ele>78.3</ele>
        <time>2021-11-25T11:07:57.000Z</time>
      </trkpt>
      <trkpt lat="47.91053" lon="-3.34447">
        <ele>78</ele>
        <time>2021-11-25T11:07:54.000Z</time>
      </trkpt>
      <trkpt lat="47.91051" lon="-3.34472">
        <ele>78.2</ele>
        <time>2021-11-25T11:07:51.000Z</time>
      </trkpt>
      <trkpt lat="47.91049" lon="-3.34497">
        <ele>76.9</ele>
        <time>2021-11-25T11:07:48.000Z</time>
      </trkpt>
      <trkpt lat="47.91046" lon="-3.34522">
        <ele>77.7</ele>
        <time>2021-11-25T11:07:45.000Z</time>
      </trkpt>
      <trkpt lat="47.91042" lon="-3.34545">
        <ele>78.6</ele>
        <time>2021-11-25T11:07:42.000Z</time>
      </trkpt>
      <trkpt lat="47.91039" lon="-3.34567">
        <ele>79.2</ele>
        <time>2021-11-25T11:07:39.000Z</time>
      </trkpt>
      <trkpt lat="47.91036" lon="-3.3459">
        <ele>78.7</ele>
        <time>2021-11-25T11:07:36.000Z</time>
      </trkpt>
      <trkpt lat="47.91033" lon="-3.34612">
        <ele>79.5</ele>
        <time>2021-11-25T11:07:33.000Z</time>
      </trkpt>
      <trkpt lat="47.9103" lon="-3.34632">
        <ele>78.9</ele>
        <time>2021-11-25T11:07:30.000Z</time>
      </trkpt>
      <trkpt lat="47.91027" lon="-3.34653">
        <ele>78.9</ele>
        <time>2021-11-25T11:07:27.000Z</time>
      </trkpt>
      <trkpt lat="47.91024" lon="-3.34674">
        <ele>78</ele>
        <time>2021-11-25T11:07:24.000Z</time>
      </trkpt>
      <trkpt lat="47.91022" lon="-3.34694">
        <ele>77.7</ele>
        <time>2021-11-25T11:07:21.000Z</time>
      </trkpt>
      <trkpt lat="47.91019" lon="-3.34714">
        <ele>77.5</ele>
        <time>2021-11-25T11:07:18.000Z</time>
      </trkpt>
      <trkpt lat="47.91016" lon="-3.34733">
        <ele>77</ele>
        <time>2021-11-25T11:07:15.000Z</time>
      </trkpt>
      <trkpt lat="47.91013" lon="-3.34753">
        <ele>76.4</ele>
        <time>2021-11-25T11:07:12.000Z</time>
      </trkpt>
      <trkpt lat="47.91011" lon="-3.34773">
        <ele>76.1</ele>
        <time>2021-11-25T11:07:09.000Z</time>
      </trkpt>
      <trkpt lat="47.91008" lon="-3.34793">
        <ele>75.4</ele>
        <time>2021-11-25T11:07:06.000Z</time>
      </trkpt>
      <trkpt lat="47.91006" lon="-3.34813">
        <ele>75.7</ele>
        <time>2021-11-25T11:07:03.000Z</time>
      </trkpt>
      <trkpt lat="47.91003" lon="-3.34833">
        <ele>75.7</ele>
        <time>2021-11-25T11:07:00.000Z</time>
      </trkpt>
      <trkpt lat="47.91001" lon="-3.34853">
        <ele>75.6</ele>
        <time>2021-11-25T11:06:57.000Z</time>
      </trkpt>
      <trkpt lat="47.90999" lon="-3.34873">
        <ele>75.1</ele>
        <time>2021-11-25T11:06:54.000Z</time>
      </trkpt>
      <trkpt lat="47.90996" lon="-3.34893">
        <ele>74.5</ele>
        <time>2021-11-25T11:06:51.000Z</time>
      </trkpt>
      <trkpt lat="47.90993" lon="-3.34913">
        <ele>73.7</ele>
        <time>2021-11-25T11:06:48.000Z</time>
      </trkpt>
      <trkpt lat="47.90991" lon="-3.34933">
        <ele>73.6</ele>
        <time>2021-11-25T11:06:45.000Z</time>
      </trkpt>
      <trkpt lat="47.90989" lon="-3.34951">
        <ele>73.3</ele>
        <time>2021-11-25T11:06:42.000Z</time>
      </trkpt>
      <trkpt lat="47.90987" lon="-3.34969">
        <ele>73</ele>
        <time>2021-11-25T11:06:39.000Z</time>
      </trkpt>
      <trkpt lat="47.90985" lon="-3.34986">
        <ele>72.7</ele>
        <time>2021-11-25T11:06:36.000Z</time>
      </trkpt>
      <trkpt lat="47.90983" lon="-3.35004">
        <ele>71.6</ele>
        <time>2021-11-25T11:06:33.000Z</time>
      </trkpt>
      <trkpt lat="47.90982" lon="-3.35022">
        <ele>71.3</ele>
        <time>2021-11-25T11:06:30.000Z</time>
      </trkpt>
      <trkpt lat="47.90981" lon="-3.3504">
        <ele>71</ele>
        <time>2021-11-25T11:06:27.000Z</time>
      </trkpt>
      <trkpt lat="47.90977" lon="-3.35055">
        <ele>70.6</ele>
        <time>2021-11-25T11:06:24.000Z</time>
      </trkpt>
      <trkpt lat="47.90975" lon="-3.35061">
        <ele>70.6</ele>
        <time>2021-11-25T11:06:21.000Z</time>
      </trkpt>
      <trkpt lat="47.90975" lon="-3.35065">
        <ele>70.8</ele>
        <time>2021-11-25T11:06:18.000Z</time>
      </trkpt>
      <trkpt lat="47.90975" lon="-3.35067">
        <ele>71</ele>
        <time>2021-11-25T11:06:15.000Z</time>
      </trkpt>
      <trkpt lat="47.90975" lon="-3.35067">
        <ele>71</ele>
        <time>2021-11-25T11:06:12.000Z</time>
      </trkpt>
      <trkpt lat="47.90975" lon="-3.35067">
        <ele>70.7</ele>
        <time>2021-11-25T11:06:09.000Z</time>
      </trkpt>
      <trkpt lat="47.90975" lon="-3.35067">
        <ele>70.6</ele>
        <time>2021-11-25T11:06:08.000Z</time>
      </trkpt>
      <trkpt lat="47.90975" lon="-3.35067">
        <ele>70.8</ele>
        <time>2021-11-25T11:06:06.000Z</time>
      </trkpt>
      <trkpt lat="47.90975" lon="-3.35067">
        <ele>70.9</ele>
        <time>2021-11-25T11:06:03.000Z</time>
      </trkpt>
      <trkpt lat="47.90975" lon="-3.35067">
        <ele>71</ele>
        <time>2021-11-25T11:06:02.000Z</time>
      </trkpt>
      <trkpt lat="47.90974" lon="-3.35066">
        <ele>70.9</ele>
        <time>2021-11-25T11:06:01.000Z</time>
      </trkpt>
      <trkpt lat="47.90975" lon="-3.35066">
        <ele>71</ele>
        <time>2021-11-25T11:05:58.000Z</time>
      </trkpt>
      <trkpt lat="47.90975" lon="-3.35066">
        <ele>71.1</ele>
        <time>2021-11-25T11:05:56.000Z</time>
      </trkpt>
      <trkpt lat="47.90975" lon="-3.35066">
        <ele>71</ele>
        <time>2021-11-25T11:05:53.000Z</time>
      </trkpt>
      <trkpt lat="47.90974" lon="-3.35065">
        <ele>71.2</ele>
        <time>2021-11-25T11:05:50.000Z</time>
      </trkpt>
      <trkpt lat="47.90974" lon="-3.35065">
        <ele>71.3</ele>
        <time>2021-11-25T11:05:48.000Z</time>
      </trkpt>
      <trkpt lat="47.90974" lon="-3.35065">
        <ele>71.3</ele>
        <time>2021-11-25T11:05:47.000Z</time>
      </trkpt>
      <trkpt lat="47.90974" lon="-3.35065">
        <ele>71.3</ele>
        <time>2021-11-25T11:05:44.000Z</time>
      </trkpt>
      <trkpt lat="47.90974" lon="-3.35065">
        <ele>71.5</ele>
        <time>2021-11-25T11:05:41.000Z</time>
      </trkpt>
      <trkpt lat="47.90974" lon="-3.35065">
        <ele>71.4</ele>
        <time>2021-11-25T11:05:40.000Z</time>
      </trkpt>
      <trkpt lat="47.90974" lon="-3.35066">
        <ele>70.9</ele>
        <time>2021-11-25T11:05:37.000Z</time>
      </trkpt>
      <trkpt lat="47.90974" lon="-3.35066">
        <ele>71</ele>
        <time>2021-11-25T11:05:35.000Z</time>
      </trkpt>
      <trkpt lat="47.90974" lon="-3.35066">
        <ele>71</ele>
        <time>2021-11-25T11:05:34.000Z</time>
      </trkpt>
      <trkpt lat="47.90975" lon="-3.35066">
        <ele>71.2</ele>
        <time>2021-11-25T11:05:31.000Z</time>
      </trkpt>
      <trkpt lat="47.90977" lon="-3.35067">
        <ele>71</ele>
        <time>2021-11-25T11:05:28.000Z</time>
      </trkpt>
      <trkpt lat="47.90977" lon="-3.35068">
        <ele>71</ele>
        <time>2021-11-25T11:05:27.000Z</time>
      </trkpt>
      <trkpt lat="47.90977" lon="-3.35068">
        <ele>71</ele>
        <time>2021-11-25T11:05:26.000Z</time>
      </trkpt>
      <trkpt lat="47.90977" lon="-3.35067">
        <ele>71</ele>
        <time>2021-11-25T11:05:25.000Z</time>
      </trkpt>
      <trkpt lat="47.90977" lon="-3.35067">
        <ele>70.9</ele>
        <time>2021-11-25T11:05:24.000Z</time>
      </trkpt>
      <trkpt lat="47.90977" lon="-3.35067">
        <ele>71.1</ele>
        <time>2021-11-25T11:05:22.000Z</time>
      </trkpt>
      <trkpt lat="47.90977" lon="-3.35067">
        <ele>71.2</ele>
        <time>2021-11-25T11:05:19.000Z</time>
      </trkpt>
      <trkpt lat="47.90977" lon="-3.35067">
        <ele>71.2</ele>
        <time>2021-11-25T11:05:16.000Z</time>
      </trkpt>
      <trkpt lat="47.90977" lon="-3.35067">
        <ele>71.1</ele>
        <time>2021-11-25T11:05:13.000Z</time>
      </trkpt>
      <trkpt lat="47.90977" lon="-3.35067">
        <ele>71.1</ele>
        <time>2021-11-25T11:05:10.000Z</time>
      </trkpt>
      <trkpt lat="47.90977" lon="-3.35067">
        <ele>71.2</ele>
        <time>2021-11-25T11:05:07.000Z</time>
      </trkpt>
      <trkpt lat="47.90977" lon="-3.35067">
        <ele>71.3</ele>
        <time>2021-11-25T11:05:04.000Z</time>
      </trkpt>
      <trkpt lat="47.90977" lon="-3.35067">
        <ele>71.3</ele>
        <time>2021-11-25T11:05:01.000Z</time>
      </trkpt>
      <trkpt lat="47.90977" lon="-3.35067">
        <ele>71.3</ele>
        <time>2021-11-25T11:05:00.000Z</time>
      </trkpt>
      <trkpt lat="47.90977" lon="-3.35067">
        <ele>71.3</ele>
        <time>2021-11-25T11:04:59.000Z</time>
      </trkpt>
      <trkpt lat="47.90977" lon="-3.35067">
        <ele>71.4</ele>
        <time>2021-11-25T11:04:58.000Z</time>
      </trkpt>
      <trkpt lat="47.90977" lon="-3.35067">
        <ele>71.5</ele>
        <time>2021-11-25T11:04:55.000Z</time>
      </trkpt>
      <trkpt lat="47.90977" lon="-3.35066">
        <ele>71.3</ele>
        <time>2021-11-25T11:04:52.000Z</time>
      </trkpt>
      <trkpt lat="47.90978" lon="-3.35066">
        <ele>70.9</ele>
        <time>2021-11-25T11:04:51.000Z</time>
      </trkpt>
      <trkpt lat="47.90978" lon="-3.35066">
        <ele>70.7</ele>
        <time>2021-11-25T11:04:50.000Z</time>
      </trkpt>
      <trkpt lat="47.90978" lon="-3.35067">
        <ele>71.1</ele>
        <time>2021-11-25T11:04:47.000Z</time>
      </trkpt>
      <trkpt lat="47.90978" lon="-3.35067">
        <ele>71</ele>
        <time>2021-11-25T11:04:46.000Z</time>
      </trkpt>
      <trkpt lat="47.90979" lon="-3.35067">
        <ele>71.2</ele>
        <time>2021-11-25T11:04:43.000Z</time>
      </trkpt>
      <trkpt lat="47.90979" lon="-3.35069">
        <ele>71.2</ele>
        <time>2021-11-25T11:04:40.000Z</time>
      </trkpt>
      <trkpt lat="47.90979" lon="-3.35069">
        <ele>71.1</ele>
        <time>2021-11-25T11:04:39.000Z</time>
      </trkpt>
      <trkpt lat="47.90979" lon="-3.35068">
        <ele>71.1</ele>
        <time>2021-11-25T11:04:36.000Z</time>
      </trkpt>
      <trkpt lat="47.90979" lon="-3.35068">
        <ele>71.2</ele>
        <time>2021-11-25T11:04:33.000Z</time>
      </trkpt>
      <trkpt lat="47.90979" lon="-3.35068">
        <ele>71.3</ele>
        <time>2021-11-25T11:04:30.000Z</time>
      </trkpt>
      <trkpt lat="47.90979" lon="-3.35068">
        <ele>71.2</ele>
        <time>2021-11-25T11:04:29.000Z</time>
      </trkpt>
      <trkpt lat="47.90979" lon="-3.35069">
        <ele>71</ele>
        <time>2021-11-25T11:04:27.000Z</time>
      </trkpt>
      <trkpt lat="47.90978" lon="-3.35068">
        <ele>71</ele>
        <time>2021-11-25T11:04:24.000Z</time>
      </trkpt>
      <trkpt lat="47.90978" lon="-3.35068">
        <ele>71.2</ele>
        <time>2021-11-25T11:04:22.000Z</time>
      </trkpt>
      <trkpt lat="47.90976" lon="-3.35068">
        <ele>71.2</ele>
        <time>2021-11-25T11:04:19.000Z</time>
      </trkpt>
      <trkpt lat="47.90976" lon="-3.35068">
        <ele>71</ele>
        <time>2021-11-25T11:04:16.000Z</time>
      </trkpt>
      <trkpt lat="47.90976" lon="-3.35068">
        <ele>71.1</ele>
        <time>2021-11-25T11:04:15.000Z</time>
      </trkpt>
      <trkpt lat="47.90976" lon="-3.35068">
        <ele>71.1</ele>
        <time>2021-11-25T11:04:14.000Z</time>
      </trkpt>
      <trkpt lat="47.90975" lon="-3.35068">
        <ele>71.1</ele>
        <time>2021-11-25T11:04:12.000Z</time>
      </trkpt>
      <trkpt lat="47.90975" lon="-3.35068">
        <ele>71.2</ele>
        <time>2021-11-25T11:04:11.000Z</time>
      </trkpt>
      <trkpt lat="47.90976" lon="-3.35068">
        <ele>71.1</ele>
        <time>2021-11-25T11:04:08.000Z</time>
      </trkpt>
      <trkpt lat="47.90977" lon="-3.35068">
        <ele>71.1</ele>
        <time>2021-11-25T11:04:07.000Z</time>
      </trkpt>
      <trkpt lat="47.90976" lon="-3.35067">
        <ele>71.1</ele>
        <time>2021-11-25T11:04:05.000Z</time>
      </trkpt>
      <trkpt lat="47.90976" lon="-3.35067">
        <ele>71.3</ele>
        <time>2021-11-25T11:04:02.000Z</time>
      </trkpt>
      <trkpt lat="47.90974" lon="-3.35067">
        <ele>71.3</ele>
        <time>2021-11-25T11:03:59.000Z</time>
      </trkpt>
      <trkpt lat="47.90973" lon="-3.35067">
        <ele>71.4</ele>
        <time>2021-11-25T11:03:56.000Z</time>
      </trkpt>
      <trkpt lat="47.90973" lon="-3.35067">
        <ele>71.4</ele>
        <time>2021-11-25T11:03:55.000Z</time>
      </trkpt>
      <trkpt lat="47.90973" lon="-3.35067">
        <ele>71.3</ele>
        <time>2021-11-25T11:03:54.000Z</time>
      </trkpt>
      <trkpt lat="47.90974" lon="-3.35068">
        <ele>71.1</ele>
        <time>2021-11-25T11:03:51.000Z</time>
      </trkpt>
      <trkpt lat="47.90974" lon="-3.35068">
        <ele>71.2</ele>
        <time>2021-11-25T11:03:50.000Z</time>
      </trkpt>
      <trkpt lat="47.90974" lon="-3.35068">
        <ele>71.3</ele>
        <time>2021-11-25T11:03:49.000Z</time>
      </trkpt>
      <trkpt lat="47.90974" lon="-3.35068">
        <ele>71.4</ele>
        <time>2021-11-25T11:03:48.000Z</time>
      </trkpt>
      <trkpt lat="47.90974" lon="-3.35068">
        <ele>71.2</ele>
        <time>2021-11-25T11:03:46.000Z</time>
      </trkpt>
      <trkpt lat="47.90974" lon="-3.35068">
        <ele>71.4</ele>
        <time>2021-11-25T11:03:43.000Z</time>
      </trkpt>
      <trkpt lat="47.90974" lon="-3.35068">
        <ele>71.2</ele>
        <time>2021-11-25T11:03:40.000Z</time>
      </trkpt>
      <trkpt lat="47.90974" lon="-3.35067">
        <ele>71.3</ele>
        <time>2021-11-25T11:03:38.000Z</time>
      </trkpt>
      <trkpt lat="47.90975" lon="-3.35067">
        <ele>71.2</ele>
        <time>2021-11-25T11:03:35.000Z</time>
      </trkpt>
      <trkpt lat="47.90975" lon="-3.35066">
        <ele>71</ele>
        <time>2021-11-25T11:03:33.000Z</time>
      </trkpt>
      <trkpt lat="47.90975" lon="-3.35066">
        <ele>71.2</ele>
        <time>2021-11-25T11:03:31.000Z</time>
      </trkpt>
      <trkpt lat="47.90975" lon="-3.35066">
        <ele>71.4</ele>
        <time>2021-11-25T11:03:28.000Z</time>
      </trkpt>
      <trkpt lat="47.90976" lon="-3.35065">
        <ele>71.5</ele>
        <time>2021-11-25T11:03:25.000Z</time>
      </trkpt>
      <trkpt lat="47.90976" lon="-3.35065">
        <ele>71.4</ele>
        <time>2021-11-25T11:03:23.000Z</time>
      </trkpt>
      <trkpt lat="47.90976" lon="-3.35065">
        <ele>71.1</ele>
        <time>2021-11-25T11:03:20.000Z</time>
      </trkpt>
      <trkpt lat="47.90976" lon="-3.35065">
        <ele>71.2</ele>
        <time>2021-11-25T11:03:17.000Z</time>
      </trkpt>
      <trkpt lat="47.90976" lon="-3.35065">
        <ele>70.8</ele>
        <time>2021-11-25T11:03:14.000Z</time>
      </trkpt>
      <trkpt lat="47.90976" lon="-3.35065">
        <ele>70.8</ele>
        <time>2021-11-25T11:03:11.000Z</time>
      </trkpt>
      <trkpt lat="47.90976" lon="-3.35065">
        <ele>71</ele>
        <time>2021-11-25T11:03:10.000Z</time>
      </trkpt>
      <trkpt lat="47.90976" lon="-3.35065">
        <ele>71</ele>
        <time>2021-11-25T11:03:09.000Z</time>
      </trkpt>
      <trkpt lat="47.90975" lon="-3.35064">
        <ele>71.2</ele>
        <time>2021-11-25T11:03:06.000Z</time>
      </trkpt>
      <trkpt lat="47.90975" lon="-3.35064">
        <ele>71.3</ele>
        <time>2021-11-25T11:03:05.000Z</time>
      </trkpt>
      <trkpt lat="47.90975" lon="-3.35064">
        <ele>71.4</ele>
        <time>2021-11-25T11:03:04.000Z</time>
      </trkpt>
      <trkpt lat="47.90975" lon="-3.35064">
        <ele>71.4</ele>
        <time>2021-11-25T11:03:03.000Z</time>
      </trkpt>
      <trkpt lat="47.90975" lon="-3.35064">
        <ele>71.3</ele>
        <time>2021-11-25T11:03:02.000Z</time>
      </trkpt>
      <trkpt lat="47.90974" lon="-3.35063">
        <ele>71.2</ele>
        <time>2021-11-25T11:02:59.000Z</time>
      </trkpt>
      <trkpt lat="47.90974" lon="-3.35063">
        <ele>71</ele>
        <time>2021-11-25T11:02:58.000Z</time>
      </trkpt>
      <trkpt lat="47.90974" lon="-3.35063">
        <ele>70.6</ele>
        <time>2021-11-25T11:02:55.000Z</time>
      </trkpt>
      <trkpt lat="47.90974" lon="-3.35062">
        <ele>71</ele>
        <time>2021-11-25T11:02:52.000Z</time>
      </trkpt>
      <trkpt lat="47.90974" lon="-3.35062">
        <ele>71.3</ele>
        <time>2021-11-25T11:02:50.000Z</time>
      </trkpt>
      <trkpt lat="47.90974" lon="-3.35062">
        <ele>71.2</ele>
        <time>2021-11-25T11:02:49.000Z</time>
      </trkpt>
      <trkpt lat="47.90974" lon="-3.35062">
        <ele>71.1</ele>
        <time>2021-11-25T11:02:46.000Z</time>
      </trkpt>
      <trkpt lat="47.90974" lon="-3.35062">
        <ele>71.1</ele>
        <time>2021-11-25T11:02:43.000Z</time>
      </trkpt>
      <trkpt lat="47.90974" lon="-3.35062">
        <ele>71.2</ele>
        <time>2021-11-25T11:02:41.000Z</time>
      </trkpt>
      <trkpt lat="47.90974" lon="-3.35062">
        <ele>71.2</ele>
        <time>2021-11-25T11:02:40.000Z</time>
      </trkpt>
      <trkpt lat="47.90974" lon="-3.35062">
        <ele>71.2</ele>
        <time>2021-11-25T11:02:39.000Z</time>
      </trkpt>
      <trkpt lat="47.90976" lon="-3.35062">
        <ele>71.3</ele>
        <time>2021-11-25T11:02:36.000Z</time>
      </trkpt>
      <trkpt lat="47.90976" lon="-3.35062">
        <ele>71.3</ele>
        <time>2021-11-25T11:02:35.000Z</time>
      </trkpt>
      <trkpt lat="47.90976" lon="-3.35062">
        <ele>71.3</ele>
        <time>2021-11-25T11:02:34.000Z</time>
      </trkpt>
      <trkpt lat="47.90976" lon="-3.35062">
        <ele>71.2</ele>
        <time>2021-11-25T11:02:32.000Z</time>
      </trkpt>
      <trkpt lat="47.90976" lon="-3.35061">
        <ele>71.3</ele>
        <time>2021-11-25T11:02:30.000Z</time>
      </trkpt>
      <trkpt lat="47.90976" lon="-3.3506">
        <ele>71.4</ele>
        <time>2021-11-25T11:02:27.000Z</time>
      </trkpt>
      <trkpt lat="47.90976" lon="-3.35059">
        <ele>71.4</ele>
        <time>2021-11-25T11:02:24.000Z</time>
      </trkpt>
      <trkpt lat="47.90976" lon="-3.3506">
        <ele>71.4</ele>
        <time>2021-11-25T11:02:23.000Z</time>
      </trkpt>
      <trkpt lat="47.90976" lon="-3.3506">
        <ele>71.1</ele>
        <time>2021-11-25T11:02:21.000Z</time>
      </trkpt>
      <trkpt lat="47.90976" lon="-3.3506">
        <ele>71.4</ele>
        <time>2021-11-25T11:02:18.000Z</time>
      </trkpt>
      <trkpt lat="47.90977" lon="-3.35059">
        <ele>71.4</ele>
        <time>2021-11-25T11:02:17.000Z</time>
      </trkpt>
      <trkpt lat="47.90977" lon="-3.35059">
        <ele>70.9</ele>
        <time>2021-11-25T11:02:14.000Z</time>
      </trkpt>
      <trkpt lat="47.90977" lon="-3.35059">
        <ele>71.3</ele>
        <time>2021-11-25T11:02:11.000Z</time>
      </trkpt>
      <trkpt lat="47.90977" lon="-3.3506">
        <ele>71.8</ele>
        <time>2021-11-25T11:02:09.000Z</time>
      </trkpt>
      <trkpt lat="47.90977" lon="-3.3506">
        <ele>71.6</ele>
        <time>2021-11-25T11:02:08.000Z</time>
      </trkpt>
      <trkpt lat="47.90977" lon="-3.35059">
        <ele>71.2</ele>
        <time>2021-11-25T11:02:06.000Z</time>
      </trkpt>
      <trkpt lat="47.90976" lon="-3.3506">
        <ele>71.3</ele>
        <time>2021-11-25T11:02:05.000Z</time>
      </trkpt>
      <trkpt lat="47.90976" lon="-3.3506">
        <ele>71.5</ele>
        <time>2021-11-25T11:02:03.000Z</time>
      </trkpt>
      <trkpt lat="47.90977" lon="-3.3506">
        <ele>71.6</ele>
        <time>2021-11-25T11:02:02.000Z</time>
      </trkpt>
      <trkpt lat="47.90977" lon="-3.3506">
        <ele>71.6</ele>
        <time>2021-11-25T11:02:01.000Z</time>
      </trkpt>
      <trkpt lat="47.90977" lon="-3.35059">
        <ele>71.2</ele>
        <time>2021-11-25T11:01:58.000Z</time>
      </trkpt>
      <trkpt lat="47.90977" lon="-3.35059">
        <ele>71.1</ele>
        <time>2021-11-25T11:01:57.000Z</time>
      </trkpt>
      <trkpt lat="47.90977" lon="-3.35059">
        <ele>71</ele>
        <time>2021-11-25T11:01:55.000Z</time>
      </trkpt>
      <trkpt lat="47.90977" lon="-3.35059">
        <ele>71.2</ele>
        <time>2021-11-25T11:01:54.000Z</time>
      </trkpt>
      <trkpt lat="47.90976" lon="-3.3506">
        <ele>71.3</ele>
        <time>2021-11-25T11:01:53.000Z</time>
      </trkpt>
      <trkpt lat="47.90976" lon="-3.3506">
        <ele>70.9</ele>
        <time>2021-11-25T11:01:50.000Z</time>
      </trkpt>
      <trkpt lat="47.90975" lon="-3.35061">
        <ele>71</ele>
        <time>2021-11-25T11:01:47.000Z</time>
      </trkpt>
      <trkpt lat="47.90974" lon="-3.35072">
        <ele>70.5</ele>
        <time>2021-11-25T11:01:44.000Z</time>
      </trkpt>
      <trkpt lat="47.90972" lon="-3.3509">
        <ele>70.3</ele>
        <time>2021-11-25T11:01:41.000Z</time>
      </trkpt>
      <trkpt lat="47.9097" lon="-3.35111">
        <ele>69.8</ele>
        <time>2021-11-25T11:01:38.000Z</time>
      </trkpt>
      <trkpt lat="47.90968" lon="-3.35133">
        <ele>69.7</ele>
        <time>2021-11-25T11:01:35.000Z</time>
      </trkpt>
      <trkpt lat="47.90966" lon="-3.35156">
        <ele>69</ele>
        <time>2021-11-25T11:01:32.000Z</time>
      </trkpt>
      <trkpt lat="47.90965" lon="-3.35179">
        <ele>68.6</ele>
        <time>2021-11-25T11:01:29.000Z</time>
      </trkpt>
      <trkpt lat="47.90963" lon="-3.35201">
        <ele>68.5</ele>
        <time>2021-11-25T11:01:26.000Z</time>
      </trkpt>
      <trkpt lat="47.90962" lon="-3.35223">
        <ele>68.2</ele>
        <time>2021-11-25T11:01:23.000Z</time>
      </trkpt>
      <trkpt lat="47.9096" lon="-3.35246">
        <ele>67.5</ele>
        <time>2021-11-25T11:01:20.000Z</time>
      </trkpt>
      <trkpt lat="47.90958" lon="-3.3527">
        <ele>67.3</ele>
        <time>2021-11-25T11:01:17.000Z</time>
      </trkpt>
      <trkpt lat="47.90957" lon="-3.35294">
        <ele>66.5</ele>
        <time>2021-11-25T11:01:14.000Z</time>
      </trkpt>
      <trkpt lat="47.90955" lon="-3.3532">
        <ele>66.7</ele>
        <time>2021-11-25T11:01:11.000Z</time>
      </trkpt>
      <trkpt lat="47.90954" lon="-3.35344">
        <ele>65.9</ele>
        <time>2021-11-25T11:01:08.000Z</time>
      </trkpt>
      <trkpt lat="47.90952" lon="-3.35368">
        <ele>66.5</ele>
        <time>2021-11-25T11:01:05.000Z</time>
      </trkpt>
      <trkpt lat="47.90951" lon="-3.35391">
        <ele>66.3</ele>
        <time>2021-11-25T11:01:02.000Z</time>
      </trkpt>
      <trkpt lat="47.9095" lon="-3.35414">
        <ele>66.4</ele>
        <time>2021-11-25T11:00:59.000Z</time>
      </trkpt>
      <trkpt lat="47.90949" lon="-3.35436">
        <ele>66.7</ele>
        <time>2021-11-25T11:00:56.000Z</time>
      </trkpt>
      <trkpt lat="47.90948" lon="-3.35459">
        <ele>66.9</ele>
        <time>2021-11-25T11:00:53.000Z</time>
      </trkpt>
      <trkpt lat="47.90947" lon="-3.3548">
        <ele>66.4</ele>
        <time>2021-11-25T11:00:50.000Z</time>
      </trkpt>
      <trkpt lat="47.90947" lon="-3.35502">
        <ele>65.9</ele>
        <time>2021-11-25T11:00:47.000Z</time>
      </trkpt>
      <trkpt lat="47.90948" lon="-3.35523">
        <ele>65.7</ele>
        <time>2021-11-25T11:00:44.000Z</time>
      </trkpt>
      <trkpt lat="47.90949" lon="-3.35545">
        <ele>65.5</ele>
        <time>2021-11-25T11:00:41.000Z</time>
      </trkpt>
      <trkpt lat="47.90947" lon="-3.35563">
        <ele>65.2</ele>
        <time>2021-11-25T11:00:38.000Z</time>
      </trkpt>
      <trkpt lat="47.90946" lon="-3.35584">
        <ele>65.2</ele>
        <time>2021-11-25T11:00:35.000Z</time>
      </trkpt>
      <trkpt lat="47.90946" lon="-3.35603">
        <ele>64.1</ele>
        <time>2021-11-25T11:00:32.000Z</time>
      </trkpt>
      <trkpt lat="47.90946" lon="-3.35624">
        <ele>63.6</ele>
        <time>2021-11-25T11:00:29.000Z</time>
      </trkpt>
      <trkpt lat="47.90947" lon="-3.35645">
        <ele>63.3</ele>
        <time>2021-11-25T11:00:26.000Z</time>
      </trkpt>
      <trkpt lat="47.90946" lon="-3.35667">
        <ele>63.4</ele>
        <time>2021-11-25T11:00:23.000Z</time>
      </trkpt>
      <trkpt lat="47.90947" lon="-3.35689">
        <ele>62.6</ele>
        <time>2021-11-25T11:00:20.000Z</time>
      </trkpt>
      <trkpt lat="47.90947" lon="-3.35711">
        <ele>62.8</ele>
        <time>2021-11-25T11:00:17.000Z</time>
      </trkpt>
      <trkpt lat="47.90947" lon="-3.35733">
        <ele>61.2</ele>
        <time>2021-11-25T11:00:14.000Z</time>
      </trkpt>
      <trkpt lat="47.90948" lon="-3.35756">
        <ele>60.9</ele>
        <time>2021-11-25T11:00:11.000Z</time>
      </trkpt>
      <trkpt lat="47.90948" lon="-3.35778">
        <ele>61.3</ele>
        <time>2021-11-25T11:00:08.000Z</time>
      </trkpt>
      <trkpt lat="47.90949" lon="-3.35801">
        <ele>60.9</ele>
        <time>2021-11-25T11:00:05.000Z</time>
      </trkpt>
      <trkpt lat="47.90949" lon="-3.35824">
        <ele>59.8</ele>
        <time>2021-11-25T11:00:02.000Z</time>
      </trkpt>
      <trkpt lat="47.9095" lon="-3.35848">
        <ele>59.5</ele>
        <time>2021-11-25T10:59:59.000Z</time>
      </trkpt>
      <trkpt lat="47.90952" lon="-3.35871">
        <ele>59.1</ele>
        <time>2021-11-25T10:59:56.000Z</time>
      </trkpt>
      <trkpt lat="47.90953" lon="-3.35894">
        <ele>58.7</ele>
        <time>2021-11-25T10:59:53.000Z</time>
      </trkpt>
      <trkpt lat="47.90954" lon="-3.35919">
        <ele>57.8</ele>
        <time>2021-11-25T10:59:50.000Z</time>
      </trkpt>
      <trkpt lat="47.90955" lon="-3.35944">
        <ele>58</ele>
        <time>2021-11-25T10:59:47.000Z</time>
      </trkpt>
      <trkpt lat="47.90956" lon="-3.35969">
        <ele>57.8</ele>
        <time>2021-11-25T10:59:44.000Z</time>
      </trkpt>
      <trkpt lat="47.90958" lon="-3.35994">
        <ele>57.2</ele>
        <time>2021-11-25T10:59:41.000Z</time>
      </trkpt>
      <trkpt lat="47.90959" lon="-3.36019">
        <ele>57.1</ele>
        <time>2021-11-25T10:59:38.000Z</time>
      </trkpt>
      <trkpt lat="47.90961" lon="-3.36044">
        <ele>55.3</ele>
        <time>2021-11-25T10:59:35.000Z</time>
      </trkpt>
      <trkpt lat="47.90964" lon="-3.36068">
        <ele>55.5</ele>
        <time>2021-11-25T10:59:32.000Z</time>
      </trkpt>
      <trkpt lat="47.90967" lon="-3.36093">
        <ele>56</ele>
        <time>2021-11-25T10:59:29.000Z</time>
      </trkpt>
      <trkpt lat="47.90967" lon="-3.36116">
        <ele>57</ele>
        <time>2021-11-25T10:59:26.000Z</time>
      </trkpt>
      <trkpt lat="47.90967" lon="-3.36138">
        <ele>55.8</ele>
        <time>2021-11-25T10:59:23.000Z</time>
      </trkpt>
      <trkpt lat="47.90962" lon="-3.3616">
        <ele>56.3</ele>
        <time>2021-11-25T10:59:20.000Z</time>
      </trkpt>
      <trkpt lat="47.90958" lon="-3.36184">
        <ele>56.8</ele>
        <time>2021-11-25T10:59:17.000Z</time>
      </trkpt>
      <trkpt lat="47.90953" lon="-3.36206">
        <ele>56.3</ele>
        <time>2021-11-25T10:59:14.000Z</time>
      </trkpt>
      <trkpt lat="47.90949" lon="-3.36228">
        <ele>55.5</ele>
        <time>2021-11-25T10:59:11.000Z</time>
      </trkpt>
      <trkpt lat="47.90943" lon="-3.3625">
        <ele>54</ele>
        <time>2021-11-25T10:59:08.000Z</time>
      </trkpt>
      <trkpt lat="47.90937" lon="-3.36271">
        <ele>56.3</ele>
        <time>2021-11-25T10:59:05.000Z</time>
      </trkpt>
      <trkpt lat="47.90931" lon="-3.36293">
        <ele>54.9</ele>
        <time>2021-11-25T10:59:02.000Z</time>
      </trkpt>
      <trkpt lat="47.90925" lon="-3.36313">
        <ele>56.1</ele>
        <time>2021-11-25T10:58:59.000Z</time>
      </trkpt>
      <trkpt lat="47.9092" lon="-3.36334">
        <ele>56.5</ele>
        <time>2021-11-25T10:58:56.000Z</time>
      </trkpt>
      <trkpt lat="47.90914" lon="-3.36353">
        <ele>56.6</ele>
        <time>2021-11-25T10:58:53.000Z</time>
      </trkpt>
      <trkpt lat="47.9091" lon="-3.36372">
        <ele>56.6</ele>
        <time>2021-11-25T10:58:50.000Z</time>
      </trkpt>
      <trkpt lat="47.90905" lon="-3.3639">
        <ele>56.1</ele>
        <time>2021-11-25T10:58:47.000Z</time>
      </trkpt>
      <trkpt lat="47.909" lon="-3.36408">
        <ele>56.6</ele>
        <time>2021-11-25T10:58:44.000Z</time>
      </trkpt>
      <trkpt lat="47.90895" lon="-3.36426">
        <ele>55.8</ele>
        <time>2021-11-25T10:58:41.000Z</time>
      </trkpt>
      <trkpt lat="47.9089" lon="-3.36443">
        <ele>53.7</ele>
        <time>2021-11-25T10:58:38.000Z</time>
      </trkpt>
      <trkpt lat="47.90885" lon="-3.3646">
        <ele>53.7</ele>
        <time>2021-11-25T10:58:35.000Z</time>
      </trkpt>
      <trkpt lat="47.9088" lon="-3.36476">
        <ele>56.3</ele>
        <time>2021-11-25T10:58:32.000Z</time>
      </trkpt>
      <trkpt lat="47.90875" lon="-3.36493">
        <ele>54.7</ele>
        <time>2021-11-25T10:58:29.000Z</time>
      </trkpt>
      <trkpt lat="47.9087" lon="-3.3651">
        <ele>56.6</ele>
        <time>2021-11-25T10:58:26.000Z</time>
      </trkpt>
      <trkpt lat="47.90865" lon="-3.36527">
        <ele>54</ele>
        <time>2021-11-25T10:58:23.000Z</time>
      </trkpt>
      <trkpt lat="47.90857" lon="-3.36544">
        <ele>51.8</ele>
        <time>2021-11-25T10:58:20.000Z</time>
      </trkpt>
      <trkpt lat="47.90849" lon="-3.36562">
        <ele>54.7</ele>
        <time>2021-11-25T10:58:17.000Z</time>
      </trkpt>
      <trkpt lat="47.90839" lon="-3.36579">
        <ele>52.3</ele>
        <time>2021-11-25T10:58:14.000Z</time>
      </trkpt>
      <trkpt lat="47.90827" lon="-3.36596">
        <ele>50.2</ele>
        <time>2021-11-25T10:58:11.000Z</time>
      </trkpt>
      <trkpt lat="47.90813" lon="-3.36612">
        <ele>50.8</ele>
        <time>2021-11-25T10:58:08.000Z</time>
      </trkpt>
      <trkpt lat="47.90799" lon="-3.36625">
        <ele>51.9</ele>
        <time>2021-11-25T10:58:05.000Z</time>
      </trkpt>
      <trkpt lat="47.90784" lon="-3.36637">
        <ele>51.5</ele>
        <time>2021-11-25T10:58:02.000Z</time>
      </trkpt>
      <trkpt lat="47.90768" lon="-3.36645">
        <ele>53.5</ele>
        <time>2021-11-25T10:57:59.000Z</time>
      </trkpt>
      <trkpt lat="47.90751" lon="-3.36652">
        <ele>51.5</ele>
        <time>2021-11-25T10:57:56.000Z</time>
      </trkpt>
      <trkpt lat="47.90735" lon="-3.36658">
        <ele>51.5</ele>
        <time>2021-11-25T10:57:53.000Z</time>
      </trkpt>
      <trkpt lat="47.90719" lon="-3.36661">
        <ele>52.6</ele>
        <time>2021-11-25T10:57:50.000Z</time>
      </trkpt>
      <trkpt lat="47.90702" lon="-3.36662">
        <ele>51.9</ele>
        <time>2021-11-25T10:57:47.000Z</time>
      </trkpt>
      <trkpt lat="47.90686" lon="-3.3666">
        <ele>50.5</ele>
        <time>2021-11-25T10:57:44.000Z</time>
      </trkpt>
      <trkpt lat="47.90671" lon="-3.36656">
        <ele>52.3</ele>
        <time>2021-11-25T10:57:41.000Z</time>
      </trkpt>
      <trkpt lat="47.90656" lon="-3.36651">
        <ele>52.5</ele>
        <time>2021-11-25T10:57:38.000Z</time>
      </trkpt>
      <trkpt lat="47.9064" lon="-3.36645">
        <ele>46</ele>
        <time>2021-11-25T10:57:35.000Z</time>
      </trkpt>
      <trkpt lat="47.90624" lon="-3.36639">
        <ele>51.6</ele>
        <time>2021-11-25T10:57:32.000Z</time>
      </trkpt>
      <trkpt lat="47.90607" lon="-3.36633">
        <ele>51.5</ele>
        <time>2021-11-25T10:57:29.000Z</time>
      </trkpt>
      <trkpt lat="47.90592" lon="-3.36627">
        <ele>52.5</ele>
        <time>2021-11-25T10:57:26.000Z</time>
      </trkpt>
      <trkpt lat="47.90576" lon="-3.36621">
        <ele>52.1</ele>
        <time>2021-11-25T10:57:23.000Z</time>
      </trkpt>
      <trkpt lat="47.9056" lon="-3.36615">
        <ele>52.8</ele>
        <time>2021-11-25T10:57:20.000Z</time>
      </trkpt>
      <trkpt lat="47.90545" lon="-3.36609">
        <ele>52.5</ele>
        <time>2021-11-25T10:57:17.000Z</time>
      </trkpt>
      <trkpt lat="47.9053" lon="-3.36604">
        <ele>53.3</ele>
        <time>2021-11-25T10:57:14.000Z</time>
      </trkpt>
      <trkpt lat="47.90515" lon="-3.36598">
        <ele>52.3</ele>
        <time>2021-11-25T10:57:11.000Z</time>
      </trkpt>
      <trkpt lat="47.90499" lon="-3.36592">
        <ele>50</ele>
        <time>2021-11-25T10:57:08.000Z</time>
      </trkpt>
      <trkpt lat="47.90485" lon="-3.36586">
        <ele>47.4</ele>
        <time>2021-11-25T10:57:05.000Z</time>
      </trkpt>
      <trkpt lat="47.90473" lon="-3.36581">
        <ele>48.5</ele>
        <time>2021-11-25T10:57:02.000Z</time>
      </trkpt>
      <trkpt lat="47.90459" lon="-3.36574">
        <ele>50.7</ele>
        <time>2021-11-25T10:56:59.000Z</time>
      </trkpt>
      <trkpt lat="47.90442" lon="-3.36565">
        <ele>51.2</ele>
        <time>2021-11-25T10:56:56.000Z</time>
      </trkpt>
      <trkpt lat="47.90428" lon="-3.36562">
        <ele>52.2</ele>
        <time>2021-11-25T10:56:53.000Z</time>
      </trkpt>
      <trkpt lat="47.90413" lon="-3.36564">
        <ele>50.7</ele>
        <time>2021-11-25T10:56:50.000Z</time>
      </trkpt>
      <trkpt lat="47.904" lon="-3.36569">
        <ele>52.3</ele>
        <time>2021-11-25T10:56:47.000Z</time>
      </trkpt>
      <trkpt lat="47.90386" lon="-3.36577">
        <ele>51.5</ele>
        <time>2021-11-25T10:56:44.000Z</time>
      </trkpt>
      <trkpt lat="47.90373" lon="-3.36589">
        <ele>51.7</ele>
        <time>2021-11-25T10:56:41.000Z</time>
      </trkpt>
      <trkpt lat="47.90362" lon="-3.36604">
        <ele>50.3</ele>
        <time>2021-11-25T10:56:38.000Z</time>
      </trkpt>
      <trkpt lat="47.90352" lon="-3.36621">
        <ele>49</ele>
        <time>2021-11-25T10:56:35.000Z</time>
      </trkpt>
      <trkpt lat="47.90342" lon="-3.36638">
        <ele>48.1</ele>
        <time>2021-11-25T10:56:32.000Z</time>
      </trkpt>
      <trkpt lat="47.90332" lon="-3.36656">
        <ele>48.4</ele>
        <time>2021-11-25T10:56:29.000Z</time>
      </trkpt>
      <trkpt lat="47.90322" lon="-3.36675">
        <ele>46</ele>
        <time>2021-11-25T10:56:26.000Z</time>
      </trkpt>
      <trkpt lat="47.90311" lon="-3.36693">
        <ele>49</ele>
        <time>2021-11-25T10:56:23.000Z</time>
      </trkpt>
      <trkpt lat="47.90301" lon="-3.36709">
        <ele>49.5</ele>
        <time>2021-11-25T10:56:20.000Z</time>
      </trkpt>
      <trkpt lat="47.90289" lon="-3.36725">
        <ele>48.2</ele>
        <time>2021-11-25T10:56:17.000Z</time>
      </trkpt>
      <trkpt lat="47.90278" lon="-3.3674">
        <ele>50.4</ele>
        <time>2021-11-25T10:56:14.000Z</time>
      </trkpt>
      <trkpt lat="47.90266" lon="-3.36757">
        <ele>47.3</ele>
        <time>2021-11-25T10:56:11.000Z</time>
      </trkpt>
      <trkpt lat="47.90254" lon="-3.36773">
        <ele>47.3</ele>
        <time>2021-11-25T10:56:08.000Z</time>
      </trkpt>
      <trkpt lat="47.90241" lon="-3.3679">
        <ele>50</ele>
        <time>2021-11-25T10:56:05.000Z</time>
      </trkpt>
      <trkpt lat="47.90227" lon="-3.36805">
        <ele>48.9</ele>
        <time>2021-11-25T10:56:02.000Z</time>
      </trkpt>
      <trkpt lat="47.90213" lon="-3.3682">
        <ele>47.8</ele>
        <time>2021-11-25T10:55:59.000Z</time>
      </trkpt>
      <trkpt lat="47.90199" lon="-3.36835">
        <ele>45.9</ele>
        <time>2021-11-25T10:55:56.000Z</time>
      </trkpt>
      <trkpt lat="47.90184" lon="-3.36849">
        <ele>49</ele>
        <time>2021-11-25T10:55:53.000Z</time>
      </trkpt>
      <trkpt lat="47.9017" lon="-3.36863">
        <ele>49.6</ele>
        <time>2021-11-25T10:55:50.000Z</time>
      </trkpt>
      <trkpt lat="47.90156" lon="-3.36875">
        <ele>46.3</ele>
        <time>2021-11-25T10:55:47.000Z</time>
      </trkpt>
      <trkpt lat="47.90142" lon="-3.36886">
        <ele>46.8</ele>
        <time>2021-11-25T10:55:44.000Z</time>
      </trkpt>
      <trkpt lat="47.90128" lon="-3.36897">
        <ele>47.5</ele>
        <time>2021-11-25T10:55:41.000Z</time>
      </trkpt>
      <trkpt lat="47.90114" lon="-3.36907">
        <ele>47.4</ele>
        <time>2021-11-25T10:55:38.000Z</time>
      </trkpt>
      <trkpt lat="47.90098" lon="-3.36918">
        <ele>46.7</ele>
        <time>2021-11-25T10:55:35.000Z</time>
      </trkpt>
      <trkpt lat="47.90081" lon="-3.36929">
        <ele>47.4</ele>
        <time>2021-11-25T10:55:32.000Z</time>
      </trkpt>
      <trkpt lat="47.90064" lon="-3.36941">
        <ele>47.9</ele>
        <time>2021-11-25T10:55:29.000Z</time>
      </trkpt>
      <trkpt lat="47.9005" lon="-3.3694">
        <ele>50.3</ele>
        <time>2021-11-25T10:55:26.000Z</time>
      </trkpt>
      <trkpt lat="47.90047" lon="-3.36913">
        <ele>50.4</ele>
        <time>2021-11-25T10:55:23.000Z</time>
      </trkpt>
      <trkpt lat="47.90044" lon="-3.36889">
        <ele>52.1</ele>
        <time>2021-11-25T10:55:20.000Z</time>
      </trkpt>
      <trkpt lat="47.90033" lon="-3.36875">
        <ele>51.9</ele>
        <time>2021-11-25T10:55:17.000Z</time>
      </trkpt>
      <trkpt lat="47.9002" lon="-3.36867">
        <ele>51.8</ele>
        <time>2021-11-25T10:55:14.000Z</time>
      </trkpt>
      <trkpt lat="47.90007" lon="-3.36861">
        <ele>51.3</ele>
        <time>2021-11-25T10:55:11.000Z</time>
      </trkpt>
      <trkpt lat="47.89992" lon="-3.36857">
        <ele>51.2</ele>
        <time>2021-11-25T10:55:08.000Z</time>
      </trkpt>
      <trkpt lat="47.89977" lon="-3.36853">
        <ele>50.5</ele>
        <time>2021-11-25T10:55:05.000Z</time>
      </trkpt>
      <trkpt lat="47.89961" lon="-3.3685">
        <ele>51.1</ele>
        <time>2021-11-25T10:55:02.000Z</time>
      </trkpt>
      <trkpt lat="47.89948" lon="-3.36853">
        <ele>51.1</ele>
        <time>2021-11-25T10:54:59.000Z</time>
      </trkpt>
      <trkpt lat="47.89936" lon="-3.36859">
        <ele>50.8</ele>
        <time>2021-11-25T10:54:56.000Z</time>
      </trkpt>
      <trkpt lat="47.89924" lon="-3.36868">
        <ele>50.4</ele>
        <time>2021-11-25T10:54:53.000Z</time>
      </trkpt>
      <trkpt lat="47.89913" lon="-3.3688">
        <ele>50.1</ele>
        <time>2021-11-25T10:54:50.000Z</time>
      </trkpt>
      <trkpt lat="47.89902" lon="-3.36894">
        <ele>49.4</ele>
        <time>2021-11-25T10:54:47.000Z</time>
      </trkpt>
      <trkpt lat="47.89892" lon="-3.36907">
        <ele>49.6</ele>
        <time>2021-11-25T10:54:44.000Z</time>
      </trkpt>
      <trkpt lat="47.89883" lon="-3.36917">
        <ele>49.6</ele>
        <time>2021-11-25T10:54:41.000Z</time>
      </trkpt>
      <trkpt lat="47.89872" lon="-3.36926">
        <ele>48.1</ele>
        <time>2021-11-25T10:54:38.000Z</time>
      </trkpt>
      <trkpt lat="47.89857" lon="-3.36933">
        <ele>46.4</ele>
        <time>2021-11-25T10:54:35.000Z</time>
      </trkpt>
      <trkpt lat="47.89843" lon="-3.36941">
        <ele>45.4</ele>
        <time>2021-11-25T10:54:32.000Z</time>
      </trkpt>
      <trkpt lat="47.89829" lon="-3.36953">
        <ele>44.9</ele>
        <time>2021-11-25T10:54:29.000Z</time>
      </trkpt>
      <trkpt lat="47.89811" lon="-3.36965">
        <ele>45</ele>
        <time>2021-11-25T10:54:26.000Z</time>
      </trkpt>
      <trkpt lat="47.89792" lon="-3.36976">
        <ele>45.3</ele>
        <time>2021-11-25T10:54:23.000Z</time>
      </trkpt>
      <trkpt lat="47.89774" lon="-3.36985">
        <ele>46.2</ele>
        <time>2021-11-25T10:54:20.000Z</time>
      </trkpt>
      <trkpt lat="47.89758" lon="-3.3699">
        <ele>46.5</ele>
        <time>2021-11-25T10:54:17.000Z</time>
      </trkpt>
      <trkpt lat="47.89743" lon="-3.36991">
        <ele>46.3</ele>
        <time>2021-11-25T10:54:14.000Z</time>
      </trkpt>
      <trkpt lat="47.8973" lon="-3.36991">
        <ele>45.9</ele>
        <time>2021-11-25T10:54:11.000Z</time>
      </trkpt>
      <trkpt lat="47.89715" lon="-3.36991">
        <ele>46.3</ele>
        <time>2021-11-25T10:54:08.000Z</time>
      </trkpt>
      <trkpt lat="47.897" lon="-3.36991">
        <ele>46.6</ele>
        <time>2021-11-25T10:54:05.000Z</time>
      </trkpt>
      <trkpt lat="47.89685" lon="-3.36992">
        <ele>45.9</ele>
        <time>2021-11-25T10:54:02.000Z</time>
      </trkpt>
      <trkpt lat="47.89668" lon="-3.36992">
        <ele>46.3</ele>
        <time>2021-11-25T10:53:59.000Z</time>
      </trkpt>
      <trkpt lat="47.89653" lon="-3.36992">
        <ele>46.2</ele>
        <time>2021-11-25T10:53:56.000Z</time>
      </trkpt>
      <trkpt lat="47.89637" lon="-3.36991">
        <ele>46.3</ele>
        <time>2021-11-25T10:53:53.000Z</time>
      </trkpt>
      <trkpt lat="47.89621" lon="-3.36991">
        <ele>46.2</ele>
        <time>2021-11-25T10:53:50.000Z</time>
      </trkpt>
      <trkpt lat="47.89606" lon="-3.36991">
        <ele>46</ele>
        <time>2021-11-25T10:53:47.000Z</time>
      </trkpt>
      <trkpt lat="47.89592" lon="-3.36993">
        <ele>45.8</ele>
        <time>2021-11-25T10:53:44.000Z</time>
      </trkpt>
      <trkpt lat="47.89579" lon="-3.36995">
        <ele>45.3</ele>
        <time>2021-11-25T10:53:41.000Z</time>
      </trkpt>
      <trkpt lat="47.89566" lon="-3.36997">
        <ele>45.5</ele>
        <time>2021-11-25T10:53:38.000Z</time>
      </trkpt>
      <trkpt lat="47.89553" lon="-3.37">
        <ele>44.9</ele>
        <time>2021-11-25T10:53:35.000Z</time>
      </trkpt>
      <trkpt lat="47.89541" lon="-3.37004">
        <ele>45</ele>
        <time>2021-11-25T10:53:32.000Z</time>
      </trkpt>
      <trkpt lat="47.89531" lon="-3.37009">
        <ele>44.9</ele>
        <time>2021-11-25T10:53:29.000Z</time>
      </trkpt>
      <trkpt lat="47.8952" lon="-3.37015">
        <ele>44.3</ele>
        <time>2021-11-25T10:53:26.000Z</time>
      </trkpt>
      <trkpt lat="47.8951" lon="-3.3702">
        <ele>43.8</ele>
        <time>2021-11-25T10:53:23.000Z</time>
      </trkpt>
      <trkpt lat="47.89497" lon="-3.37021">
        <ele>40.7</ele>
        <time>2021-11-25T10:53:20.000Z</time>
      </trkpt>
      <trkpt lat="47.89484" lon="-3.37026">
        <ele>42.2</ele>
        <time>2021-11-25T10:53:17.000Z</time>
      </trkpt>
      <trkpt lat="47.89472" lon="-3.37031">
        <ele>43.6</ele>
        <time>2021-11-25T10:53:14.000Z</time>
      </trkpt>
      <trkpt lat="47.89459" lon="-3.37037">
        <ele>43.3</ele>
        <time>2021-11-25T10:53:11.000Z</time>
      </trkpt>
      <trkpt lat="47.89446" lon="-3.37042">
        <ele>43.4</ele>
        <time>2021-11-25T10:53:08.000Z</time>
      </trkpt>
      <trkpt lat="47.89433" lon="-3.37046">
        <ele>42</ele>
        <time>2021-11-25T10:53:05.000Z</time>
      </trkpt>
      <trkpt lat="47.89419" lon="-3.37051">
        <ele>44.8</ele>
        <time>2021-11-25T10:53:02.000Z</time>
      </trkpt>
      <trkpt lat="47.89407" lon="-3.37056">
        <ele>41.5</ele>
        <time>2021-11-25T10:52:59.000Z</time>
      </trkpt>
      <trkpt lat="47.89394" lon="-3.3706">
        <ele>43.7</ele>
        <time>2021-11-25T10:52:56.000Z</time>
      </trkpt>
      <trkpt lat="47.89382" lon="-3.37064">
        <ele>40.5</ele>
        <time>2021-11-25T10:52:53.000Z</time>
      </trkpt>
      <trkpt lat="47.89367" lon="-3.37069">
        <ele>42.2</ele>
        <time>2021-11-25T10:52:50.000Z</time>
      </trkpt>
      <trkpt lat="47.89353" lon="-3.37074">
        <ele>42.4</ele>
        <time>2021-11-25T10:52:47.000Z</time>
      </trkpt>
      <trkpt lat="47.8934" lon="-3.3708">
        <ele>45</ele>
        <time>2021-11-25T10:52:44.000Z</time>
      </trkpt>
      <trkpt lat="47.89328" lon="-3.37089">
        <ele>43.4</ele>
        <time>2021-11-25T10:52:41.000Z</time>
      </trkpt>
      <trkpt lat="47.89316" lon="-3.37097">
        <ele>42.1</ele>
        <time>2021-11-25T10:52:38.000Z</time>
      </trkpt>
      <trkpt lat="47.89304" lon="-3.37106">
        <ele>42.1</ele>
        <time>2021-11-25T10:52:35.000Z</time>
      </trkpt>
      <trkpt lat="47.89293" lon="-3.37115">
        <ele>43.9</ele>
        <time>2021-11-25T10:52:32.000Z</time>
      </trkpt>
      <trkpt lat="47.8928" lon="-3.37125">
        <ele>42.5</ele>
        <time>2021-11-25T10:52:29.000Z</time>
      </trkpt>
      <trkpt lat="47.89268" lon="-3.37135">
        <ele>45.3</ele>
        <time>2021-11-25T10:52:26.000Z</time>
      </trkpt>
      <trkpt lat="47.89258" lon="-3.37146">
        <ele>43.3</ele>
        <time>2021-11-25T10:52:23.000Z</time>
      </trkpt>
      <trkpt lat="47.89247" lon="-3.37156">
        <ele>40.8</ele>
        <time>2021-11-25T10:52:20.000Z</time>
      </trkpt>
      <trkpt lat="47.89235" lon="-3.37166">
        <ele>42.9</ele>
        <time>2021-11-25T10:52:17.000Z</time>
      </trkpt>
      <trkpt lat="47.89223" lon="-3.37176">
        <ele>47.4</ele>
        <time>2021-11-25T10:52:14.000Z</time>
      </trkpt>
      <trkpt lat="47.89213" lon="-3.37184">
        <ele>41.5</ele>
        <time>2021-11-25T10:52:11.000Z</time>
      </trkpt>
      <trkpt lat="47.89203" lon="-3.37194">
        <ele>41.2</ele>
        <time>2021-11-25T10:52:08.000Z</time>
      </trkpt>
      <trkpt lat="47.89192" lon="-3.37205">
        <ele>43.4</ele>
        <time>2021-11-25T10:52:05.000Z</time>
      </trkpt>
      <trkpt lat="47.8918" lon="-3.37216">
        <ele>41.7</ele>
        <time>2021-11-25T10:52:02.000Z</time>
      </trkpt>
      <trkpt lat="47.89169" lon="-3.37227">
        <ele>42.1</ele>
        <time>2021-11-25T10:51:59.000Z</time>
      </trkpt>
      <trkpt lat="47.8916" lon="-3.3724">
        <ele>42.9</ele>
        <time>2021-11-25T10:51:56.000Z</time>
      </trkpt>
      <trkpt lat="47.89151" lon="-3.37252">
        <ele>43.5</ele>
        <time>2021-11-25T10:51:53.000Z</time>
      </trkpt>
      <trkpt lat="47.89141" lon="-3.37264">
        <ele>34.7</ele>
        <time>2021-11-25T10:51:50.000Z</time>
      </trkpt>
      <trkpt lat="47.89131" lon="-3.37279">
        <ele>43.8</ele>
        <time>2021-11-25T10:51:47.000Z</time>
      </trkpt>
      <trkpt lat="47.89124" lon="-3.37294">
        <ele>42</ele>
        <time>2021-11-25T10:51:44.000Z</time>
      </trkpt>
      <trkpt lat="47.89119" lon="-3.37309">
        <ele>39</ele>
        <time>2021-11-25T10:51:41.000Z</time>
      </trkpt>
      <trkpt lat="47.89114" lon="-3.37327">
        <ele>41.8</ele>
        <time>2021-11-25T10:51:38.000Z</time>
      </trkpt>
      <trkpt lat="47.89111" lon="-3.37347">
        <ele>44.7</ele>
        <time>2021-11-25T10:51:35.000Z</time>
      </trkpt>
      <trkpt lat="47.89114" lon="-3.37368">
        <ele>41.6</ele>
        <time>2021-11-25T10:51:32.000Z</time>
      </trkpt>
      <trkpt lat="47.89115" lon="-3.37387">
        <ele>41.3</ele>
        <time>2021-11-25T10:51:29.000Z</time>
      </trkpt>
      <trkpt lat="47.89117" lon="-3.37405">
        <ele>42.8</ele>
        <time>2021-11-25T10:51:26.000Z</time>
      </trkpt>
      <trkpt lat="47.89121" lon="-3.37421">
        <ele>40.9</ele>
        <time>2021-11-25T10:51:23.000Z</time>
      </trkpt>
      <trkpt lat="47.89126" lon="-3.37435">
        <ele>38.5</ele>
        <time>2021-11-25T10:51:20.000Z</time>
      </trkpt>
      <trkpt lat="47.89133" lon="-3.37449">
        <ele>39.4</ele>
        <time>2021-11-25T10:51:17.000Z</time>
      </trkpt>
      <trkpt lat="47.89138" lon="-3.37461">
        <ele>40</ele>
        <time>2021-11-25T10:51:14.000Z</time>
      </trkpt>
      <trkpt lat="47.89145" lon="-3.37474">
        <ele>40.1</ele>
        <time>2021-11-25T10:51:11.000Z</time>
      </trkpt>
      <trkpt lat="47.89152" lon="-3.3749">
        <ele>41.6</ele>
        <time>2021-11-25T10:51:08.000Z</time>
      </trkpt>
      <trkpt lat="47.89162" lon="-3.37507">
        <ele>38.4</ele>
        <time>2021-11-25T10:51:05.000Z</time>
      </trkpt>
      <trkpt lat="47.8917" lon="-3.37526">
        <ele>40.9</ele>
        <time>2021-11-25T10:51:02.000Z</time>
      </trkpt>
      <trkpt lat="47.89179" lon="-3.37543">
        <ele>40.2</ele>
        <time>2021-11-25T10:50:59.000Z</time>
      </trkpt>
      <trkpt lat="47.89187" lon="-3.37557">
        <ele>41.1</ele>
        <time>2021-11-25T10:50:56.000Z</time>
      </trkpt>
      <trkpt lat="47.89195" lon="-3.37573">
        <ele>40.1</ele>
        <time>2021-11-25T10:50:53.000Z</time>
      </trkpt>
      <trkpt lat="47.89203" lon="-3.37589">
        <ele>40</ele>
        <time>2021-11-25T10:50:50.000Z</time>
      </trkpt>
      <trkpt lat="47.8921" lon="-3.37606">
        <ele>36.4</ele>
        <time>2021-11-25T10:50:47.000Z</time>
      </trkpt>
      <trkpt lat="47.89217" lon="-3.37621">
        <ele>38.9</ele>
        <time>2021-11-25T10:50:44.000Z</time>
      </trkpt>
      <trkpt lat="47.89222" lon="-3.37636">
        <ele>41.7</ele>
        <time>2021-11-25T10:50:41.000Z</time>
      </trkpt>
      <trkpt lat="47.89227" lon="-3.37653">
        <ele>39.8</ele>
        <time>2021-11-25T10:50:38.000Z</time>
      </trkpt>
      <trkpt lat="47.89231" lon="-3.37669">
        <ele>39.6</ele>
        <time>2021-11-25T10:50:35.000Z</time>
      </trkpt>
      <trkpt lat="47.89237" lon="-3.37687">
        <ele>40.7</ele>
        <time>2021-11-25T10:50:32.000Z</time>
      </trkpt>
      <trkpt lat="47.89243" lon="-3.37707">
        <ele>39.7</ele>
        <time>2021-11-25T10:50:29.000Z</time>
      </trkpt>
      <trkpt lat="47.89243" lon="-3.37728">
        <ele>39.9</ele>
        <time>2021-11-25T10:50:26.000Z</time>
      </trkpt>
      <trkpt lat="47.89245" lon="-3.37749">
        <ele>32.5</ele>
        <time>2021-11-25T10:50:23.000Z</time>
      </trkpt>
      <trkpt lat="47.89247" lon="-3.37769">
        <ele>41</ele>
        <time>2021-11-25T10:50:20.000Z</time>
      </trkpt>
      <trkpt lat="47.89248" lon="-3.3779">
        <ele>38.2</ele>
        <time>2021-11-25T10:50:17.000Z</time>
      </trkpt>
      <trkpt lat="47.89249" lon="-3.37814">
        <ele>39.3</ele>
        <time>2021-11-25T10:50:14.000Z</time>
      </trkpt>
      <trkpt lat="47.89251" lon="-3.37841">
        <ele>39.1</ele>
        <time>2021-11-25T10:50:11.000Z</time>
      </trkpt>
      <trkpt lat="47.89252" lon="-3.37868">
        <ele>38.5</ele>
        <time>2021-11-25T10:50:08.000Z</time>
      </trkpt>
      <trkpt lat="47.89253" lon="-3.37893">
        <ele>33.7</ele>
        <time>2021-11-25T10:50:05.000Z</time>
      </trkpt>
      <trkpt lat="47.89256" lon="-3.37914">
        <ele>42</ele>
        <time>2021-11-25T10:50:02.000Z</time>
      </trkpt>
      <trkpt lat="47.89259" lon="-3.37937">
        <ele>40.7</ele>
        <time>2021-11-25T10:49:59.000Z</time>
      </trkpt>
      <trkpt lat="47.8926" lon="-3.37959">
        <ele>38.3</ele>
        <time>2021-11-25T10:49:56.000Z</time>
      </trkpt>
      <trkpt lat="47.89257" lon="-3.3798">
        <ele>39.2</ele>
        <time>2021-11-25T10:49:53.000Z</time>
      </trkpt>
      <trkpt lat="47.89257" lon="-3.38001">
        <ele>39.8</ele>
        <time>2021-11-25T10:49:50.000Z</time>
      </trkpt>
      <trkpt lat="47.89252" lon="-3.38023">
        <ele>38.2</ele>
        <time>2021-11-25T10:49:47.000Z</time>
      </trkpt>
      <trkpt lat="47.89242" lon="-3.3804">
        <ele>40.6</ele>
        <time>2021-11-25T10:49:44.000Z</time>
      </trkpt>
      <trkpt lat="47.8923" lon="-3.38057">
        <ele>39.3</ele>
        <time>2021-11-25T10:49:41.000Z</time>
      </trkpt>
      <trkpt lat="47.89218" lon="-3.38076">
        <ele>38.4</ele>
        <time>2021-11-25T10:49:38.000Z</time>
      </trkpt>
      <trkpt lat="47.89212" lon="-3.38089">
        <ele>37.7</ele>
        <time>2021-11-25T10:49:35.000Z</time>
      </trkpt>
      <trkpt lat="47.89204" lon="-3.38096">
        <ele>36.9</ele>
        <time>2021-11-25T10:49:32.000Z</time>
      </trkpt>
      <trkpt lat="47.89192" lon="-3.38096">
        <ele>39.5</ele>
        <time>2021-11-25T10:49:29.000Z</time>
      </trkpt>
      <trkpt lat="47.8918" lon="-3.38099">
        <ele>38.5</ele>
        <time>2021-11-25T10:49:26.000Z</time>
      </trkpt>
      <trkpt lat="47.8917" lon="-3.38101">
        <ele>37</ele>
        <time>2021-11-25T10:49:23.000Z</time>
      </trkpt>
      <trkpt lat="47.89158" lon="-3.38102">
        <ele>36.5</ele>
        <time>2021-11-25T10:49:20.000Z</time>
      </trkpt>
      <trkpt lat="47.89145" lon="-3.381">
        <ele>41.2</ele>
        <time>2021-11-25T10:49:17.000Z</time>
      </trkpt>
      <trkpt lat="47.89132" lon="-3.38094">
        <ele>36.1</ele>
        <time>2021-11-25T10:49:14.000Z</time>
      </trkpt>
      <trkpt lat="47.89119" lon="-3.38084">
        <ele>37.3</ele>
        <time>2021-11-25T10:49:11.000Z</time>
      </trkpt>
      <trkpt lat="47.89106" lon="-3.38074">
        <ele>39.3</ele>
        <time>2021-11-25T10:49:08.000Z</time>
      </trkpt>
      <trkpt lat="47.89093" lon="-3.38062">
        <ele>34.6</ele>
        <time>2021-11-25T10:49:05.000Z</time>
      </trkpt>
      <trkpt lat="47.89081" lon="-3.3805">
        <ele>38.7</ele>
        <time>2021-11-25T10:49:02.000Z</time>
      </trkpt>
      <trkpt lat="47.8907" lon="-3.3804">
        <ele>37.8</ele>
        <time>2021-11-25T10:48:59.000Z</time>
      </trkpt>
      <trkpt lat="47.89058" lon="-3.38033">
        <ele>38.7</ele>
        <time>2021-11-25T10:48:56.000Z</time>
      </trkpt>
      <trkpt lat="47.89049" lon="-3.38029">
        <ele>39.6</ele>
        <time>2021-11-25T10:48:53.000Z</time>
      </trkpt>
      <trkpt lat="47.89038" lon="-3.38027">
        <ele>39.4</ele>
        <time>2021-11-25T10:48:50.000Z</time>
      </trkpt>
      <trkpt lat="47.89025" lon="-3.38028">
        <ele>37.6</ele>
        <time>2021-11-25T10:48:47.000Z</time>
      </trkpt>
      <trkpt lat="47.89016" lon="-3.3803">
        <ele>38.1</ele>
        <time>2021-11-25T10:48:44.000Z</time>
      </trkpt>
      <trkpt lat="47.89005" lon="-3.38033">
        <ele>37.8</ele>
        <time>2021-11-25T10:48:41.000Z</time>
      </trkpt>
      <trkpt lat="47.88995" lon="-3.3804">
        <ele>37</ele>
        <time>2021-11-25T10:48:38.000Z</time>
      </trkpt>
      <trkpt lat="47.88986" lon="-3.38048">
        <ele>37.2</ele>
        <time>2021-11-25T10:48:35.000Z</time>
      </trkpt>
      <trkpt lat="47.8898" lon="-3.38056">
        <ele>39.3</ele>
        <time>2021-11-25T10:48:32.000Z</time>
      </trkpt>
      <trkpt lat="47.88972" lon="-3.38063">
        <ele>37.9</ele>
        <time>2021-11-25T10:48:29.000Z</time>
      </trkpt>
      <trkpt lat="47.88963" lon="-3.38071">
        <ele>39</ele>
        <time>2021-11-25T10:48:26.000Z</time>
      </trkpt>
      <trkpt lat="47.88956" lon="-3.38081">
        <ele>37.7</ele>
        <time>2021-11-25T10:48:23.000Z</time>
      </trkpt>
      <trkpt lat="47.88947" lon="-3.38091">
        <ele>34.8</ele>
        <time>2021-11-25T10:48:20.000Z</time>
      </trkpt>
      <trkpt lat="47.8894" lon="-3.381">
        <ele>35.9</ele>
        <time>2021-11-25T10:48:17.000Z</time>
      </trkpt>
      <trkpt lat="47.88934" lon="-3.3811">
        <ele>35.7</ele>
        <time>2021-11-25T10:48:14.000Z</time>
      </trkpt>
      <trkpt lat="47.88925" lon="-3.38119">
        <ele>34.9</ele>
        <time>2021-11-25T10:48:11.000Z</time>
      </trkpt>
      <trkpt lat="47.88917" lon="-3.3813">
        <ele>36.2</ele>
        <time>2021-11-25T10:48:08.000Z</time>
      </trkpt>
      <trkpt lat="47.88908" lon="-3.38141">
        <ele>37.3</ele>
        <time>2021-11-25T10:48:05.000Z</time>
      </trkpt>
      <trkpt lat="47.889" lon="-3.38153">
        <ele>33.7</ele>
        <time>2021-11-25T10:48:02.000Z</time>
      </trkpt>
      <trkpt lat="47.88891" lon="-3.38163">
        <ele>35.7</ele>
        <time>2021-11-25T10:47:59.000Z</time>
      </trkpt>
      <trkpt lat="47.88883" lon="-3.38175">
        <ele>32.1</ele>
        <time>2021-11-25T10:47:56.000Z</time>
      </trkpt>
      <trkpt lat="47.88873" lon="-3.38184">
        <ele>30.8</ele>
        <time>2021-11-25T10:47:53.000Z</time>
      </trkpt>
      <trkpt lat="47.88864" lon="-3.38194">
        <ele>33.7</ele>
        <time>2021-11-25T10:47:50.000Z</time>
      </trkpt>
      <trkpt lat="47.88853" lon="-3.38204">
        <ele>34</ele>
        <time>2021-11-25T10:47:47.000Z</time>
      </trkpt>
      <trkpt lat="47.88843" lon="-3.38216">
        <ele>33.7</ele>
        <time>2021-11-25T10:47:44.000Z</time>
      </trkpt>
      <trkpt lat="47.88833" lon="-3.38226">
        <ele>31.4</ele>
        <time>2021-11-25T10:47:41.000Z</time>
      </trkpt>
      <trkpt lat="47.88824" lon="-3.38238">
        <ele>35.5</ele>
        <time>2021-11-25T10:47:38.000Z</time>
      </trkpt>
      <trkpt lat="47.88813" lon="-3.38249">
        <ele>33.3</ele>
        <time>2021-11-25T10:47:35.000Z</time>
      </trkpt>
      <trkpt lat="47.88804" lon="-3.38262">
        <ele>32.1</ele>
        <time>2021-11-25T10:47:32.000Z</time>
      </trkpt>
      <trkpt lat="47.88793" lon="-3.38272">
        <ele>32.3</ele>
        <time>2021-11-25T10:47:29.000Z</time>
      </trkpt>
      <trkpt lat="47.88785" lon="-3.38282">
        <ele>32.1</ele>
        <time>2021-11-25T10:47:26.000Z</time>
      </trkpt>
      <trkpt lat="47.88778" lon="-3.3829">
        <ele>34.5</ele>
        <time>2021-11-25T10:47:23.000Z</time>
      </trkpt>
      <trkpt lat="47.88769" lon="-3.38299">
        <ele>32.8</ele>
        <time>2021-11-25T10:47:20.000Z</time>
      </trkpt>
      <trkpt lat="47.88762" lon="-3.38307">
        <ele>31.1</ele>
        <time>2021-11-25T10:47:17.000Z</time>
      </trkpt>
      <trkpt lat="47.88756" lon="-3.38319">
        <ele>29.9</ele>
        <time>2021-11-25T10:47:14.000Z</time>
      </trkpt>
      <trkpt lat="47.88747" lon="-3.38328">
        <ele>35.8</ele>
        <time>2021-11-25T10:47:11.000Z</time>
      </trkpt>
      <trkpt lat="47.88741" lon="-3.38338">
        <ele>32.9</ele>
        <time>2021-11-25T10:47:08.000Z</time>
      </trkpt>
      <trkpt lat="47.88733" lon="-3.38345">
        <ele>29.7</ele>
        <time>2021-11-25T10:47:05.000Z</time>
      </trkpt>
      <trkpt lat="47.88726" lon="-3.38354">
        <ele>34.6</ele>
        <time>2021-11-25T10:47:02.000Z</time>
      </trkpt>
      <trkpt lat="47.88719" lon="-3.38362">
        <ele>30.8</ele>
        <time>2021-11-25T10:46:59.000Z</time>
      </trkpt>
      <trkpt lat="47.88713" lon="-3.38367">
        <ele>32.7</ele>
        <time>2021-11-25T10:46:56.000Z</time>
      </trkpt>
      <trkpt lat="47.88707" lon="-3.38373">
        <ele>32.5</ele>
        <time>2021-11-25T10:46:53.000Z</time>
      </trkpt>
      <trkpt lat="47.88701" lon="-3.38377">
        <ele>32.3</ele>
        <time>2021-11-25T10:46:50.000Z</time>
      </trkpt>
      <trkpt lat="47.88697" lon="-3.3838">
        <ele>32.2</ele>
        <time>2021-11-25T10:46:47.000Z</time>
      </trkpt>
      <trkpt lat="47.88693" lon="-3.38383">
        <ele>32.2</ele>
        <time>2021-11-25T10:46:44.000Z</time>
      </trkpt>
      <trkpt lat="47.8869" lon="-3.38388">
        <ele>31.9</ele>
        <time>2021-11-25T10:46:41.000Z</time>
      </trkpt>
      <trkpt lat="47.88685" lon="-3.3839">
        <ele>33.4</ele>
        <time>2021-11-25T10:46:38.000Z</time>
      </trkpt>
      <trkpt lat="47.88678" lon="-3.38394">
        <ele>36</ele>
        <time>2021-11-25T10:46:35.000Z</time>
      </trkpt>
      <trkpt lat="47.88667" lon="-3.384">
        <ele>33</ele>
        <time>2021-11-25T10:46:32.000Z</time>
      </trkpt>
      <trkpt lat="47.88654" lon="-3.38402">
        <ele>29.7</ele>
        <time>2021-11-25T10:46:29.000Z</time>
      </trkpt>
      <trkpt lat="47.88642" lon="-3.38402">
        <ele>31.4</ele>
        <time>2021-11-25T10:46:26.000Z</time>
      </trkpt>
      <trkpt lat="47.88631" lon="-3.38401">
        <ele>35.2</ele>
        <time>2021-11-25T10:46:23.000Z</time>
      </trkpt>
      <trkpt lat="47.88618" lon="-3.38398">
        <ele>31.3</ele>
        <time>2021-11-25T10:46:20.000Z</time>
      </trkpt>
      <trkpt lat="47.88606" lon="-3.38391">
        <ele>34.5</ele>
        <time>2021-11-25T10:46:17.000Z</time>
      </trkpt>
      <trkpt lat="47.88593" lon="-3.38382">
        <ele>33.4</ele>
        <time>2021-11-25T10:46:14.000Z</time>
      </trkpt>
      <trkpt lat="47.88579" lon="-3.38372">
        <ele>34.4</ele>
        <time>2021-11-25T10:46:11.000Z</time>
      </trkpt>
      <trkpt lat="47.88566" lon="-3.38362">
        <ele>36.1</ele>
        <time>2021-11-25T10:46:08.000Z</time>
      </trkpt>
      <trkpt lat="47.88556" lon="-3.38353">
        <ele>31.7</ele>
        <time>2021-11-25T10:46:05.000Z</time>
      </trkpt>
      <trkpt lat="47.88544" lon="-3.38347">
        <ele>29.9</ele>
        <time>2021-11-25T10:46:02.000Z</time>
      </trkpt>
      <trkpt lat="47.88534" lon="-3.38342">
        <ele>29.4</ele>
        <time>2021-11-25T10:45:59.000Z</time>
      </trkpt>
      <trkpt lat="47.8852" lon="-3.3834">
        <ele>33</ele>
        <time>2021-11-25T10:45:56.000Z</time>
      </trkpt>
      <trkpt lat="47.88507" lon="-3.3834">
        <ele>34.3</ele>
        <time>2021-11-25T10:45:53.000Z</time>
      </trkpt>
      <trkpt lat="47.88494" lon="-3.38343">
        <ele>31.1</ele>
        <time>2021-11-25T10:45:50.000Z</time>
      </trkpt>
      <trkpt lat="47.88483" lon="-3.38348">
        <ele>33.6</ele>
        <time>2021-11-25T10:45:47.000Z</time>
      </trkpt>
      <trkpt lat="47.88473" lon="-3.38353">
        <ele>27.8</ele>
        <time>2021-11-25T10:45:44.000Z</time>
      </trkpt>
      <trkpt lat="47.88461" lon="-3.38362">
        <ele>25.2</ele>
        <time>2021-11-25T10:45:41.000Z</time>
      </trkpt>
      <trkpt lat="47.88448" lon="-3.38371">
        <ele>31</ele>
        <time>2021-11-25T10:45:38.000Z</time>
      </trkpt>
      <trkpt lat="47.88437" lon="-3.38383">
        <ele>31.1</ele>
        <time>2021-11-25T10:45:35.000Z</time>
      </trkpt>
      <trkpt lat="47.88426" lon="-3.38396">
        <ele>33.1</ele>
        <time>2021-11-25T10:45:32.000Z</time>
      </trkpt>
      <trkpt lat="47.88416" lon="-3.3841">
        <ele>27.1</ele>
        <time>2021-11-25T10:45:29.000Z</time>
      </trkpt>
      <trkpt lat="47.88405" lon="-3.38424">
        <ele>30</ele>
        <time>2021-11-25T10:45:26.000Z</time>
      </trkpt>
      <trkpt lat="47.88391" lon="-3.38438">
        <ele>33.3</ele>
        <time>2021-11-25T10:45:23.000Z</time>
      </trkpt>
      <trkpt lat="47.88375" lon="-3.38446">
        <ele>30.4</ele>
        <time>2021-11-25T10:45:20.000Z</time>
      </trkpt>
      <trkpt lat="47.88357" lon="-3.38453">
        <ele>26.6</ele>
        <time>2021-11-25T10:45:17.000Z</time>
      </trkpt>
      <trkpt lat="47.88335" lon="-3.38462">
        <ele>28.5</ele>
        <time>2021-11-25T10:45:14.000Z</time>
      </trkpt>
      <trkpt lat="47.88315" lon="-3.38464">
        <ele>28.2</ele>
        <time>2021-11-25T10:45:11.000Z</time>
      </trkpt>
      <trkpt lat="47.88297" lon="-3.38468">
        <ele>28.3</ele>
        <time>2021-11-25T10:45:08.000Z</time>
      </trkpt>
      <trkpt lat="47.88274" lon="-3.38471">
        <ele>29.3</ele>
        <time>2021-11-25T10:45:05.000Z</time>
      </trkpt>
      <trkpt lat="47.88247" lon="-3.38475">
        <ele>26.8</ele>
        <time>2021-11-25T10:45:02.000Z</time>
      </trkpt>
      <trkpt lat="47.88226" lon="-3.38475">
        <ele>26.1</ele>
        <time>2021-11-25T10:44:59.000Z</time>
      </trkpt>
      <trkpt lat="47.88215" lon="-3.3847">
        <ele>29.8</ele>
        <time>2021-11-25T10:44:56.000Z</time>
      </trkpt>
      <trkpt lat="47.88204" lon="-3.38463">
        <ele>26.6</ele>
        <time>2021-11-25T10:44:53.000Z</time>
      </trkpt>
      <trkpt lat="47.88201" lon="-3.38458">
        <ele>29.9</ele>
        <time>2021-11-25T10:44:50.000Z</time>
      </trkpt>
      <trkpt lat="47.88196" lon="-3.38448">
        <ele>31.2</ele>
        <time>2021-11-25T10:44:47.000Z</time>
      </trkpt>
      <trkpt lat="47.88191" lon="-3.38439">
        <ele>28.8</ele>
        <time>2021-11-25T10:44:44.000Z</time>
      </trkpt>
      <trkpt lat="47.88181" lon="-3.38427">
        <ele>21.8</ele>
        <time>2021-11-25T10:44:41.000Z</time>
      </trkpt>
      <trkpt lat="47.8817" lon="-3.38417">
        <ele>29.9</ele>
        <time>2021-11-25T10:44:38.000Z</time>
      </trkpt>
      <trkpt lat="47.88155" lon="-3.38411">
        <ele>27.7</ele>
        <time>2021-11-25T10:44:35.000Z</time>
      </trkpt>
      <trkpt lat="47.88139" lon="-3.38409">
        <ele>26.6</ele>
        <time>2021-11-25T10:44:32.000Z</time>
      </trkpt>
      <trkpt lat="47.88125" lon="-3.38412">
        <ele>30.8</ele>
        <time>2021-11-25T10:44:29.000Z</time>
      </trkpt>
      <trkpt lat="47.88114" lon="-3.38418">
        <ele>23.9</ele>
        <time>2021-11-25T10:44:26.000Z</time>
      </trkpt>
      <trkpt lat="47.881" lon="-3.38426">
        <ele>25.8</ele>
        <time>2021-11-25T10:44:23.000Z</time>
      </trkpt>
      <trkpt lat="47.88086" lon="-3.38437">
        <ele>26.1</ele>
        <time>2021-11-25T10:44:20.000Z</time>
      </trkpt>
      <trkpt lat="47.88078" lon="-3.38449">
        <ele>24.5</ele>
        <time>2021-11-25T10:44:17.000Z</time>
      </trkpt>
      <trkpt lat="47.88068" lon="-3.38462">
        <ele>26.8</ele>
        <time>2021-11-25T10:44:14.000Z</time>
      </trkpt>
      <trkpt lat="47.88059" lon="-3.38476">
        <ele>29.6</ele>
        <time>2021-11-25T10:44:11.000Z</time>
      </trkpt>
      <trkpt lat="47.88053" lon="-3.38494">
        <ele>22.9</ele>
        <time>2021-11-25T10:44:08.000Z</time>
      </trkpt>
      <trkpt lat="47.8804" lon="-3.38513">
        <ele>27.9</ele>
        <time>2021-11-25T10:44:05.000Z</time>
      </trkpt>
      <trkpt lat="47.88033" lon="-3.38532">
        <ele>25.2</ele>
        <time>2021-11-25T10:44:02.000Z</time>
      </trkpt>
      <trkpt lat="47.88025" lon="-3.38554">
        <ele>25.4</ele>
        <time>2021-11-25T10:43:59.000Z</time>
      </trkpt>
      <trkpt lat="47.88019" lon="-3.38571">
        <ele>27.2</ele>
        <time>2021-11-25T10:43:56.000Z</time>
      </trkpt>
      <trkpt lat="47.88015" lon="-3.38586">
        <ele>29.4</ele>
        <time>2021-11-25T10:43:53.000Z</time>
      </trkpt>
      <trkpt lat="47.88009" lon="-3.386">
        <ele>30.7</ele>
        <time>2021-11-25T10:43:50.000Z</time>
      </trkpt>
      <trkpt lat="47.87998" lon="-3.38611">
        <ele>27</ele>
        <time>2021-11-25T10:43:47.000Z</time>
      </trkpt>
      <trkpt lat="47.87984" lon="-3.38621">
        <ele>28.4</ele>
        <time>2021-11-25T10:43:44.000Z</time>
      </trkpt>
      <trkpt lat="47.87978" lon="-3.38632">
        <ele>26.6</ele>
        <time>2021-11-25T10:43:41.000Z</time>
      </trkpt>
      <trkpt lat="47.87971" lon="-3.38643">
        <ele>26.6</ele>
        <time>2021-11-25T10:43:38.000Z</time>
      </trkpt>
      <trkpt lat="47.87963" lon="-3.38653">
        <ele>25.5</ele>
        <time>2021-11-25T10:43:35.000Z</time>
      </trkpt>
      <trkpt lat="47.87956" lon="-3.38658">
        <ele>25.7</ele>
        <time>2021-11-25T10:43:32.000Z</time>
      </trkpt>
      <trkpt lat="47.87947" lon="-3.38664">
        <ele>26.2</ele>
        <time>2021-11-25T10:43:29.000Z</time>
      </trkpt>
      <trkpt lat="47.87933" lon="-3.38665">
        <ele>27.1</ele>
        <time>2021-11-25T10:43:26.000Z</time>
      </trkpt>
      <trkpt lat="47.87922" lon="-3.38663">
        <ele>22.8</ele>
        <time>2021-11-25T10:43:23.000Z</time>
      </trkpt>
      <trkpt lat="47.87913" lon="-3.38659">
        <ele>21.5</ele>
        <time>2021-11-25T10:43:20.000Z</time>
      </trkpt>
      <trkpt lat="47.87895" lon="-3.38653">
        <ele>25</ele>
        <time>2021-11-25T10:43:17.000Z</time>
      </trkpt>
      <trkpt lat="47.8787" lon="-3.38651">
        <ele>28.4</ele>
        <time>2021-11-25T10:43:14.000Z</time>
      </trkpt>
      <trkpt lat="47.87841" lon="-3.38645">
        <ele>25.1</ele>
        <time>2021-11-25T10:43:11.000Z</time>
      </trkpt>
      <trkpt lat="47.87819" lon="-3.38637">
        <ele>26</ele>
        <time>2021-11-25T10:43:08.000Z</time>
      </trkpt>
      <trkpt lat="47.87804" lon="-3.38628">
        <ele>25</ele>
        <time>2021-11-25T10:43:05.000Z</time>
      </trkpt>
      <trkpt lat="47.87793" lon="-3.3862">
        <ele>23.8</ele>
        <time>2021-11-25T10:43:02.000Z</time>
      </trkpt>
      <trkpt lat="47.87776" lon="-3.3861">
        <ele>25.1</ele>
        <time>2021-11-25T10:42:59.000Z</time>
      </trkpt>
      <trkpt lat="47.8776" lon="-3.38598">
        <ele>25.7</ele>
        <time>2021-11-25T10:42:56.000Z</time>
      </trkpt>
      <trkpt lat="47.87746" lon="-3.38592">
        <ele>22.1</ele>
        <time>2021-11-25T10:42:53.000Z</time>
      </trkpt>
      <trkpt lat="47.87736" lon="-3.38583">
        <ele>25.6</ele>
        <time>2021-11-25T10:42:50.000Z</time>
      </trkpt>
      <trkpt lat="47.87729" lon="-3.38573">
        <ele>27.2</ele>
        <time>2021-11-25T10:42:47.000Z</time>
      </trkpt>
      <trkpt lat="47.8772" lon="-3.38565">
        <ele>23.4</ele>
        <time>2021-11-25T10:42:44.000Z</time>
      </trkpt>
      <trkpt lat="47.87712" lon="-3.38557">
        <ele>26.3</ele>
        <time>2021-11-25T10:42:41.000Z</time>
      </trkpt>
      <trkpt lat="47.87701" lon="-3.38549">
        <ele>20.9</ele>
        <time>2021-11-25T10:42:38.000Z</time>
      </trkpt>
      <trkpt lat="47.87691" lon="-3.38539">
        <ele>24.8</ele>
        <time>2021-11-25T10:42:35.000Z</time>
      </trkpt>
      <trkpt lat="47.87682" lon="-3.38534">
        <ele>24.6</ele>
        <time>2021-11-25T10:42:32.000Z</time>
      </trkpt>
      <trkpt lat="47.87674" lon="-3.38533">
        <ele>24.6</ele>
        <time>2021-11-25T10:42:29.000Z</time>
      </trkpt>
      <trkpt lat="47.87666" lon="-3.38533">
        <ele>25.2</ele>
        <time>2021-11-25T10:42:26.000Z</time>
      </trkpt>
      <trkpt lat="47.87658" lon="-3.38536">
        <ele>26.1</ele>
        <time>2021-11-25T10:42:23.000Z</time>
      </trkpt>
      <trkpt lat="47.87652" lon="-3.38538">
        <ele>20.6</ele>
        <time>2021-11-25T10:42:20.000Z</time>
      </trkpt>
      <trkpt lat="47.87645" lon="-3.38544">
        <ele>24.5</ele>
        <time>2021-11-25T10:42:17.000Z</time>
      </trkpt>
      <trkpt lat="47.87636" lon="-3.38549">
        <ele>24.4</ele>
        <time>2021-11-25T10:42:14.000Z</time>
      </trkpt>
      <trkpt lat="47.87626" lon="-3.38558">
        <ele>22.3</ele>
        <time>2021-11-25T10:42:11.000Z</time>
      </trkpt>
      <trkpt lat="47.87618" lon="-3.38568">
        <ele>25</ele>
        <time>2021-11-25T10:42:08.000Z</time>
      </trkpt>
      <trkpt lat="47.87613" lon="-3.38581">
        <ele>21.2</ele>
        <time>2021-11-25T10:42:05.000Z</time>
      </trkpt>
      <trkpt lat="47.87607" lon="-3.38594">
        <ele>23.3</ele>
        <time>2021-11-25T10:42:02.000Z</time>
      </trkpt>
      <trkpt lat="47.87601" lon="-3.38608">
        <ele>22.8</ele>
        <time>2021-11-25T10:41:59.000Z</time>
      </trkpt>
      <trkpt lat="47.87592" lon="-3.38624">
        <ele>24.1</ele>
        <time>2021-11-25T10:41:56.000Z</time>
      </trkpt>
      <trkpt lat="47.87572" lon="-3.38636">
        <ele>21.5</ele>
        <time>2021-11-25T10:41:53.000Z</time>
      </trkpt>
      <trkpt lat="47.87564" lon="-3.38649">
        <ele>23.9</ele>
        <time>2021-11-25T10:41:50.000Z</time>
      </trkpt>
      <trkpt lat="47.87557" lon="-3.38659">
        <ele>21.6</ele>
        <time>2021-11-25T10:41:47.000Z</time>
      </trkpt>
      <trkpt lat="47.87548" lon="-3.38668">
        <ele>22.1</ele>
        <time>2021-11-25T10:41:44.000Z</time>
      </trkpt>
      <trkpt lat="47.87543" lon="-3.38676">
        <ele>20.3</ele>
        <time>2021-11-25T10:41:41.000Z</time>
      </trkpt>
      <trkpt lat="47.87539" lon="-3.38682">
        <ele>26.5</ele>
        <time>2021-11-25T10:41:38.000Z</time>
      </trkpt>
      <trkpt lat="47.87528" lon="-3.38685">
        <ele>22.2</ele>
        <time>2021-11-25T10:41:35.000Z</time>
      </trkpt>
      <trkpt lat="47.8752" lon="-3.38684">
        <ele>25.1</ele>
        <time>2021-11-25T10:41:32.000Z</time>
      </trkpt>
      <trkpt lat="47.8751" lon="-3.38684">
        <ele>17.3</ele>
        <time>2021-11-25T10:41:29.000Z</time>
      </trkpt>
      <trkpt lat="47.87493" lon="-3.38677">
        <ele>21.1</ele>
        <time>2021-11-25T10:41:26.000Z</time>
      </trkpt>
      <trkpt lat="47.87482" lon="-3.38669">
        <ele>22.8</ele>
        <time>2021-11-25T10:41:23.000Z</time>
      </trkpt>
      <trkpt lat="47.87469" lon="-3.38663">
        <ele>23.6</ele>
        <time>2021-11-25T10:41:20.000Z</time>
      </trkpt>
      <trkpt lat="47.87457" lon="-3.38657">
        <ele>22</ele>
        <time>2021-11-25T10:41:17.000Z</time>
      </trkpt>
      <trkpt lat="47.87444" lon="-3.3865">
        <ele>20.4</ele>
        <time>2021-11-25T10:41:14.000Z</time>
      </trkpt>
      <trkpt lat="47.87432" lon="-3.38642">
        <ele>23.5</ele>
        <time>2021-11-25T10:41:11.000Z</time>
      </trkpt>
      <trkpt lat="47.87422" lon="-3.38636">
        <ele>24.3</ele>
        <time>2021-11-25T10:41:08.000Z</time>
      </trkpt>
      <trkpt lat="47.87412" lon="-3.38633">
        <ele>24.9</ele>
        <time>2021-11-25T10:41:05.000Z</time>
      </trkpt>
      <trkpt lat="47.874" lon="-3.38629">
        <ele>29.2</ele>
        <time>2021-11-25T10:41:02.000Z</time>
      </trkpt>
      <trkpt lat="47.87387" lon="-3.38624">
        <ele>24.4</ele>
        <time>2021-11-25T10:40:59.000Z</time>
      </trkpt>
      <trkpt lat="47.87377" lon="-3.38618">
        <ele>21.9</ele>
        <time>2021-11-25T10:40:56.000Z</time>
      </trkpt>
      <trkpt lat="47.87369" lon="-3.38616">
        <ele>24.5</ele>
        <time>2021-11-25T10:40:53.000Z</time>
      </trkpt>
      <trkpt lat="47.87362" lon="-3.38615">
        <ele>22.4</ele>
        <time>2021-11-25T10:40:50.000Z</time>
      </trkpt>
      <trkpt lat="47.87353" lon="-3.38613">
        <ele>23.1</ele>
        <time>2021-11-25T10:40:47.000Z</time>
      </trkpt>
      <trkpt lat="47.87344" lon="-3.38611">
        <ele>20.8</ele>
        <time>2021-11-25T10:40:44.000Z</time>
      </trkpt>
      <trkpt lat="47.87337" lon="-3.38608">
        <ele>17.6</ele>
        <time>2021-11-25T10:40:41.000Z</time>
      </trkpt>
      <trkpt lat="47.8733" lon="-3.38603">
        <ele>21.7</ele>
        <time>2021-11-25T10:40:38.000Z</time>
      </trkpt>
      <trkpt lat="47.87321" lon="-3.38601">
        <ele>18.9</ele>
        <time>2021-11-25T10:40:35.000Z</time>
      </trkpt>
      <trkpt lat="47.87311" lon="-3.38596">
        <ele>21</ele>
        <time>2021-11-25T10:40:32.000Z</time>
      </trkpt>
      <trkpt lat="47.87303" lon="-3.38592">
        <ele>21.2</ele>
        <time>2021-11-25T10:40:29.000Z</time>
      </trkpt>
      <trkpt lat="47.87294" lon="-3.38586">
        <ele>21.4</ele>
        <time>2021-11-25T10:40:26.000Z</time>
      </trkpt>
      <trkpt lat="47.87283" lon="-3.3858">
        <ele>21.1</ele>
        <time>2021-11-25T10:40:23.000Z</time>
      </trkpt>
      <trkpt lat="47.87271" lon="-3.38573">
        <ele>20</ele>
        <time>2021-11-25T10:40:20.000Z</time>
      </trkpt>
      <trkpt lat="47.8726" lon="-3.38567">
        <ele>18.6</ele>
        <time>2021-11-25T10:40:17.000Z</time>
      </trkpt>
      <trkpt lat="47.8725" lon="-3.38564">
        <ele>20.2</ele>
        <time>2021-11-25T10:40:14.000Z</time>
      </trkpt>
      <trkpt lat="47.87239" lon="-3.38561">
        <ele>16.9</ele>
        <time>2021-11-25T10:40:11.000Z</time>
      </trkpt>
      <trkpt lat="47.87226" lon="-3.38558">
        <ele>18</ele>
        <time>2021-11-25T10:40:08.000Z</time>
      </trkpt>
      <trkpt lat="47.87216" lon="-3.38554">
        <ele>18.4</ele>
        <time>2021-11-25T10:40:05.000Z</time>
      </trkpt>
      <trkpt lat="47.87203" lon="-3.38549">
        <ele>18.5</ele>
        <time>2021-11-25T10:40:02.000Z</time>
      </trkpt>
      <trkpt lat="47.87191" lon="-3.38546">
        <ele>16.3</ele>
        <time>2021-11-25T10:39:59.000Z</time>
      </trkpt>
      <trkpt lat="47.87179" lon="-3.38541">
        <ele>16.3</ele>
        <time>2021-11-25T10:39:56.000Z</time>
      </trkpt>
      <trkpt lat="47.87168" lon="-3.38537">
        <ele>16.3</ele>
        <time>2021-11-25T10:39:53.000Z</time>
      </trkpt>
      <trkpt lat="47.87157" lon="-3.38533">
        <ele>18.6</ele>
        <time>2021-11-25T10:39:50.000Z</time>
      </trkpt>
      <trkpt lat="47.87146" lon="-3.38528">
        <ele>14.7</ele>
        <time>2021-11-25T10:39:47.000Z</time>
      </trkpt>
      <trkpt lat="47.87137" lon="-3.38525">
        <ele>16.5</ele>
        <time>2021-11-25T10:39:44.000Z</time>
      </trkpt>
      <trkpt lat="47.87128" lon="-3.3852">
        <ele>16.4</ele>
        <time>2021-11-25T10:39:41.000Z</time>
      </trkpt>
      <trkpt lat="47.87117" lon="-3.38519">
        <ele>18.6</ele>
        <time>2021-11-25T10:39:38.000Z</time>
      </trkpt>
      <trkpt lat="47.87105" lon="-3.38517">
        <ele>17.7</ele>
        <time>2021-11-25T10:39:35.000Z</time>
      </trkpt>
      <trkpt lat="47.87093" lon="-3.38518">
        <ele>16.9</ele>
        <time>2021-11-25T10:39:32.000Z</time>
      </trkpt>
      <trkpt lat="47.87081" lon="-3.3852">
        <ele>13.1</ele>
        <time>2021-11-25T10:39:29.000Z</time>
      </trkpt>
      <trkpt lat="47.87068" lon="-3.38523">
        <ele>17.2</ele>
        <time>2021-11-25T10:39:26.000Z</time>
      </trkpt>
      <trkpt lat="47.87052" lon="-3.38527">
        <ele>15.3</ele>
        <time>2021-11-25T10:39:23.000Z</time>
      </trkpt>
      <trkpt lat="47.87039" lon="-3.38532">
        <ele>19</ele>
        <time>2021-11-25T10:39:20.000Z</time>
      </trkpt>
      <trkpt lat="47.87023" lon="-3.38539">
        <ele>23</ele>
        <time>2021-11-25T10:39:17.000Z</time>
      </trkpt>
      <trkpt lat="47.87011" lon="-3.38549">
        <ele>23.3</ele>
        <time>2021-11-25T10:39:14.000Z</time>
      </trkpt>
      <trkpt lat="47.86999" lon="-3.3856">
        <ele>14.7</ele>
        <time>2021-11-25T10:39:11.000Z</time>
      </trkpt>
      <trkpt lat="47.8699" lon="-3.38573">
        <ele>19.4</ele>
        <time>2021-11-25T10:39:08.000Z</time>
      </trkpt>
      <trkpt lat="47.86982" lon="-3.38585">
        <ele>18.2</ele>
        <time>2021-11-25T10:39:05.000Z</time>
      </trkpt>
      <trkpt lat="47.86976" lon="-3.386">
        <ele>17.4</ele>
        <time>2021-11-25T10:39:02.000Z</time>
      </trkpt>
      <trkpt lat="47.86969" lon="-3.38615">
        <ele>16.9</ele>
        <time>2021-11-25T10:38:59.000Z</time>
      </trkpt>
      <trkpt lat="47.86963" lon="-3.38629">
        <ele>17.9</ele>
        <time>2021-11-25T10:38:56.000Z</time>
      </trkpt>
      <trkpt lat="47.86959" lon="-3.38647">
        <ele>18.8</ele>
        <time>2021-11-25T10:38:53.000Z</time>
      </trkpt>
      <trkpt lat="47.86956" lon="-3.38664">
        <ele>17.8</ele>
        <time>2021-11-25T10:38:50.000Z</time>
      </trkpt>
      <trkpt lat="47.86951" lon="-3.38684">
        <ele>19.6</ele>
        <time>2021-11-25T10:38:47.000Z</time>
      </trkpt>
      <trkpt lat="47.86946" lon="-3.38702">
        <ele>17.9</ele>
        <time>2021-11-25T10:38:44.000Z</time>
      </trkpt>
      <trkpt lat="47.8694" lon="-3.3872">
        <ele>16</ele>
        <time>2021-11-25T10:38:41.000Z</time>
      </trkpt>
      <trkpt lat="47.86936" lon="-3.38738">
        <ele>17.9</ele>
        <time>2021-11-25T10:38:38.000Z</time>
      </trkpt>
      <trkpt lat="47.86932" lon="-3.38758">
        <ele>19.9</ele>
        <time>2021-11-25T10:38:35.000Z</time>
      </trkpt>
      <trkpt lat="47.8693" lon="-3.38777">
        <ele>16.9</ele>
        <time>2021-11-25T10:38:32.000Z</time>
      </trkpt>
      <trkpt lat="47.86931" lon="-3.38797">
        <ele>17.7</ele>
        <time>2021-11-25T10:38:29.000Z</time>
      </trkpt>
      <trkpt lat="47.86932" lon="-3.38817">
        <ele>17</ele>
        <time>2021-11-25T10:38:26.000Z</time>
      </trkpt>
      <trkpt lat="47.86933" lon="-3.38836">
        <ele>17.2</ele>
        <time>2021-11-25T10:38:23.000Z</time>
      </trkpt>
      <trkpt lat="47.86933" lon="-3.38854">
        <ele>17</ele>
        <time>2021-11-25T10:38:20.000Z</time>
      </trkpt>
      <trkpt lat="47.86925" lon="-3.38865">
        <ele>17</ele>
        <time>2021-11-25T10:38:17.000Z</time>
      </trkpt>
      <trkpt lat="47.86908" lon="-3.38851">
        <ele>20.5</ele>
        <time>2021-11-25T10:38:14.000Z</time>
      </trkpt>
      <trkpt lat="47.86895" lon="-3.38822">
        <ele>20.9</ele>
        <time>2021-11-25T10:38:11.000Z</time>
      </trkpt>
      <trkpt lat="47.8688" lon="-3.38793">
        <ele>25.2</ele>
        <time>2021-11-25T10:38:08.000Z</time>
      </trkpt>
      <trkpt lat="47.86859" lon="-3.38766">
        <ele>26.2</ele>
        <time>2021-11-25T10:38:05.000Z</time>
      </trkpt>
      <trkpt lat="47.86834" lon="-3.38738">
        <ele>29.5</ele>
        <time>2021-11-25T10:38:02.000Z</time>
      </trkpt>
      <trkpt lat="47.86808" lon="-3.38709">
        <ele>33.3</ele>
        <time>2021-11-25T10:37:59.000Z</time>
      </trkpt>
      <trkpt lat="47.86784" lon="-3.3868">
        <ele>35.3</ele>
        <time>2021-11-25T10:37:56.000Z</time>
      </trkpt>
      <trkpt lat="47.86762" lon="-3.38651">
        <ele>37.3</ele>
        <time>2021-11-25T10:37:53.000Z</time>
      </trkpt>
      <trkpt lat="47.86739" lon="-3.38624">
        <ele>40.6</ele>
        <time>2021-11-25T10:37:50.000Z</time>
      </trkpt>
      <trkpt lat="47.86718" lon="-3.38596">
        <ele>43.2</ele>
        <time>2021-11-25T10:37:47.000Z</time>
      </trkpt>
      <trkpt lat="47.86702" lon="-3.38568">
        <ele>46</ele>
        <time>2021-11-25T10:37:44.000Z</time>
      </trkpt>
      <trkpt lat="47.86686" lon="-3.38543">
        <ele>47.1</ele>
        <time>2021-11-25T10:37:41.000Z</time>
      </trkpt>
      <trkpt lat="47.8667" lon="-3.3852">
        <ele>48.1</ele>
        <time>2021-11-25T10:37:38.000Z</time>
      </trkpt>
      <trkpt lat="47.86655" lon="-3.385">
        <ele>49.1</ele>
        <time>2021-11-25T10:37:35.000Z</time>
      </trkpt>
      <trkpt lat="47.86641" lon="-3.3848">
        <ele>50</ele>
        <time>2021-11-25T10:37:32.000Z</time>
      </trkpt>
      <trkpt lat="47.86628" lon="-3.38458">
        <ele>50.4</ele>
        <time>2021-11-25T10:37:29.000Z</time>
      </trkpt>
      <trkpt lat="47.86615" lon="-3.38435">
        <ele>51.4</ele>
        <time>2021-11-25T10:37:26.000Z</time>
      </trkpt>
      <trkpt lat="47.86601" lon="-3.38414">
        <ele>52.7</ele>
        <time>2021-11-25T10:37:23.000Z</time>
      </trkpt>
      <trkpt lat="47.86588" lon="-3.38396">
        <ele>54</ele>
        <time>2021-11-25T10:37:20.000Z</time>
      </trkpt>
      <trkpt lat="47.86575" lon="-3.3838">
        <ele>53.8</ele>
        <time>2021-11-25T10:37:17.000Z</time>
      </trkpt>
      <trkpt lat="47.8656" lon="-3.38368">
        <ele>54.2</ele>
        <time>2021-11-25T10:37:14.000Z</time>
      </trkpt>
      <trkpt lat="47.86545" lon="-3.38359">
        <ele>54.9</ele>
        <time>2021-11-25T10:37:11.000Z</time>
      </trkpt>
      <trkpt lat="47.86534" lon="-3.38346">
        <ele>55.7</ele>
        <time>2021-11-25T10:37:08.000Z</time>
      </trkpt>
      <trkpt lat="47.86526" lon="-3.38336">
        <ele>56.3</ele>
        <time>2021-11-25T10:37:05.000Z</time>
      </trkpt>
      <trkpt lat="47.86516" lon="-3.38335">
        <ele>56.5</ele>
        <time>2021-11-25T10:37:02.000Z</time>
      </trkpt>
      <trkpt lat="47.86506" lon="-3.38336">
        <ele>55.5</ele>
        <time>2021-11-25T10:36:59.000Z</time>
      </trkpt>
      <trkpt lat="47.86495" lon="-3.38334">
        <ele>55.1</ele>
        <time>2021-11-25T10:36:56.000Z</time>
      </trkpt>
      <trkpt lat="47.86484" lon="-3.38331">
        <ele>54.8</ele>
        <time>2021-11-25T10:36:53.000Z</time>
      </trkpt>
      <trkpt lat="47.86474" lon="-3.3833">
        <ele>54.5</ele>
        <time>2021-11-25T10:36:50.000Z</time>
      </trkpt>
      <trkpt lat="47.86465" lon="-3.38329">
        <ele>54.6</ele>
        <time>2021-11-25T10:36:47.000Z</time>
      </trkpt>
      <trkpt lat="47.86456" lon="-3.38328">
        <ele>53.7</ele>
        <time>2021-11-25T10:36:44.000Z</time>
      </trkpt>
      <trkpt lat="47.86447" lon="-3.38327">
        <ele>52.8</ele>
        <time>2021-11-25T10:36:41.000Z</time>
      </trkpt>
      <trkpt lat="47.86437" lon="-3.38326">
        <ele>52.3</ele>
        <time>2021-11-25T10:36:38.000Z</time>
      </trkpt>
      <trkpt lat="47.86428" lon="-3.38325">
        <ele>51.7</ele>
        <time>2021-11-25T10:36:35.000Z</time>
      </trkpt>
      <trkpt lat="47.86419" lon="-3.38324">
        <ele>52.1</ele>
        <time>2021-11-25T10:36:32.000Z</time>
      </trkpt>
      <trkpt lat="47.86409" lon="-3.38323">
        <ele>50.5</ele>
        <time>2021-11-25T10:36:29.000Z</time>
      </trkpt>
      <trkpt lat="47.864" lon="-3.38323">
        <ele>50.2</ele>
        <time>2021-11-25T10:36:26.000Z</time>
      </trkpt>
      <trkpt lat="47.8639" lon="-3.38321">
        <ele>49.2</ele>
        <time>2021-11-25T10:36:23.000Z</time>
      </trkpt>
      <trkpt lat="47.8638" lon="-3.38319">
        <ele>48.3</ele>
        <time>2021-11-25T10:36:20.000Z</time>
      </trkpt>
      <trkpt lat="47.8637" lon="-3.38318">
        <ele>48.1</ele>
        <time>2021-11-25T10:36:17.000Z</time>
      </trkpt>
      <trkpt lat="47.8636" lon="-3.38318">
        <ele>46.6</ele>
        <time>2021-11-25T10:36:14.000Z</time>
      </trkpt>
      <trkpt lat="47.86348" lon="-3.38316">
        <ele>46.4</ele>
        <time>2021-11-25T10:36:11.000Z</time>
      </trkpt>
      <trkpt lat="47.86338" lon="-3.38314">
        <ele>45.5</ele>
        <time>2021-11-25T10:36:08.000Z</time>
      </trkpt>
      <trkpt lat="47.86327" lon="-3.38312">
        <ele>44.8</ele>
        <time>2021-11-25T10:36:05.000Z</time>
      </trkpt>
      <trkpt lat="47.86316" lon="-3.38309">
        <ele>44.2</ele>
        <time>2021-11-25T10:36:02.000Z</time>
      </trkpt>
      <trkpt lat="47.86304" lon="-3.38306">
        <ele>43.6</ele>
        <time>2021-11-25T10:35:59.000Z</time>
      </trkpt>
      <trkpt lat="47.86293" lon="-3.38305">
        <ele>42.7</ele>
        <time>2021-11-25T10:35:56.000Z</time>
      </trkpt>
      <trkpt lat="47.86283" lon="-3.38304">
        <ele>42</ele>
        <time>2021-11-25T10:35:53.000Z</time>
      </trkpt>
      <trkpt lat="47.86271" lon="-3.38303">
        <ele>41.1</ele>
        <time>2021-11-25T10:35:50.000Z</time>
      </trkpt>
      <trkpt lat="47.86258" lon="-3.38302">
        <ele>40.5</ele>
        <time>2021-11-25T10:35:47.000Z</time>
      </trkpt>
      <trkpt lat="47.86244" lon="-3.383">
        <ele>39.7</ele>
        <time>2021-11-25T10:35:44.000Z</time>
      </trkpt>
      <trkpt lat="47.86231" lon="-3.38302">
        <ele>38.8</ele>
        <time>2021-11-25T10:35:41.000Z</time>
      </trkpt>
      <trkpt lat="47.86218" lon="-3.38304">
        <ele>37.4</ele>
        <time>2021-11-25T10:35:38.000Z</time>
      </trkpt>
      <trkpt lat="47.86205" lon="-3.38305">
        <ele>37</ele>
        <time>2021-11-25T10:35:35.000Z</time>
      </trkpt>
      <trkpt lat="47.86194" lon="-3.38308">
        <ele>36.1</ele>
        <time>2021-11-25T10:35:32.000Z</time>
      </trkpt>
      <trkpt lat="47.86184" lon="-3.3831">
        <ele>35.8</ele>
        <time>2021-11-25T10:35:29.000Z</time>
      </trkpt>
      <trkpt lat="47.86173" lon="-3.38313">
        <ele>34.7</ele>
        <time>2021-11-25T10:35:26.000Z</time>
      </trkpt>
      <trkpt lat="47.86161" lon="-3.38317">
        <ele>33.9</ele>
        <time>2021-11-25T10:35:23.000Z</time>
      </trkpt>
      <trkpt lat="47.86148" lon="-3.3832">
        <ele>32.4</ele>
        <time>2021-11-25T10:35:20.000Z</time>
      </trkpt>
      <trkpt lat="47.86135" lon="-3.38323">
        <ele>31.2</ele>
        <time>2021-11-25T10:35:17.000Z</time>
      </trkpt>
      <trkpt lat="47.86121" lon="-3.38327">
        <ele>29.9</ele>
        <time>2021-11-25T10:35:14.000Z</time>
      </trkpt>
      <trkpt lat="47.86104" lon="-3.38331">
        <ele>28.4</ele>
        <time>2021-11-25T10:35:11.000Z</time>
      </trkpt>
      <trkpt lat="47.86087" lon="-3.38337">
        <ele>27</ele>
        <time>2021-11-25T10:35:08.000Z</time>
      </trkpt>
      <trkpt lat="47.8607" lon="-3.38346">
        <ele>26.1</ele>
        <time>2021-11-25T10:35:05.000Z</time>
      </trkpt>
      <trkpt lat="47.86053" lon="-3.38361">
        <ele>23.1</ele>
        <time>2021-11-25T10:35:02.000Z</time>
      </trkpt>
      <trkpt lat="47.86034" lon="-3.38378">
        <ele>22.5</ele>
        <time>2021-11-25T10:34:59.000Z</time>
      </trkpt>
      <trkpt lat="47.86012" lon="-3.38396">
        <ele>20.8</ele>
        <time>2021-11-25T10:34:56.000Z</time>
      </trkpt>
      <trkpt lat="47.85987" lon="-3.38417">
        <ele>20.2</ele>
        <time>2021-11-25T10:34:53.000Z</time>
      </trkpt>
      <trkpt lat="47.85959" lon="-3.38438">
        <ele>23.3</ele>
        <time>2021-11-25T10:34:50.000Z</time>
      </trkpt>
      <trkpt lat="47.85929" lon="-3.3846">
        <ele>26.9</ele>
        <time>2021-11-25T10:34:47.000Z</time>
      </trkpt>
      <trkpt lat="47.85899" lon="-3.38468">
        <ele>28.6</ele>
        <time>2021-11-25T10:34:44.000Z</time>
      </trkpt>
      <trkpt lat="47.85869" lon="-3.38466">
        <ele>30.6</ele>
        <time>2021-11-25T10:34:41.000Z</time>
      </trkpt>
      <trkpt lat="47.8584" lon="-3.38458">
        <ele>32.3</ele>
        <time>2021-11-25T10:34:38.000Z</time>
      </trkpt>
      <trkpt lat="47.85812" lon="-3.38447">
        <ele>33.5</ele>
        <time>2021-11-25T10:34:35.000Z</time>
      </trkpt>
      <trkpt lat="47.85787" lon="-3.38441">
        <ele>36</ele>
        <time>2021-11-25T10:34:32.000Z</time>
      </trkpt>
      <trkpt lat="47.85762" lon="-3.38438">
        <ele>37.5</ele>
        <time>2021-11-25T10:34:29.000Z</time>
      </trkpt>
      <trkpt lat="47.85738" lon="-3.38434">
        <ele>39.6</ele>
        <time>2021-11-25T10:34:26.000Z</time>
      </trkpt>
      <trkpt lat="47.85716" lon="-3.38432">
        <ele>43</ele>
        <time>2021-11-25T10:34:23.000Z</time>
      </trkpt>
      <trkpt lat="47.85694" lon="-3.3843">
        <ele>39.7</ele>
        <time>2021-11-25T10:34:20.000Z</time>
      </trkpt>
      <trkpt lat="47.85673" lon="-3.38429">
        <ele>41</ele>
        <time>2021-11-25T10:34:17.000Z</time>
      </trkpt>
      <trkpt lat="47.85652" lon="-3.38429">
        <ele>41.5</ele>
        <time>2021-11-25T10:34:14.000Z</time>
      </trkpt>
      <trkpt lat="47.8563" lon="-3.38431">
        <ele>42.9</ele>
        <time>2021-11-25T10:34:11.000Z</time>
      </trkpt>
      <trkpt lat="47.85609" lon="-3.38432">
        <ele>42.5</ele>
        <time>2021-11-25T10:34:08.000Z</time>
      </trkpt>
      <trkpt lat="47.85588" lon="-3.38441">
        <ele>42.7</ele>
        <time>2021-11-25T10:34:05.000Z</time>
      </trkpt>
      <trkpt lat="47.85566" lon="-3.38451">
        <ele>42.9</ele>
        <time>2021-11-25T10:34:02.000Z</time>
      </trkpt>
      <trkpt lat="47.85544" lon="-3.38457">
        <ele>46.2</ele>
        <time>2021-11-25T10:33:59.000Z</time>
      </trkpt>
      <trkpt lat="47.85522" lon="-3.38458">
        <ele>47.2</ele>
        <time>2021-11-25T10:33:56.000Z</time>
      </trkpt>
      <trkpt lat="47.85502" lon="-3.38456">
        <ele>47.6</ele>
        <time>2021-11-25T10:33:53.000Z</time>
      </trkpt>
      <trkpt lat="47.85484" lon="-3.38454">
        <ele>47.6</ele>
        <time>2021-11-25T10:33:50.000Z</time>
      </trkpt>
      <trkpt lat="47.85465" lon="-3.38456">
        <ele>47.1</ele>
        <time>2021-11-25T10:33:47.000Z</time>
      </trkpt>
      <trkpt lat="47.85447" lon="-3.3846">
        <ele>48.2</ele>
        <time>2021-11-25T10:33:44.000Z</time>
      </trkpt>
      <trkpt lat="47.85429" lon="-3.3846">
        <ele>48.2</ele>
        <time>2021-11-25T10:33:41.000Z</time>
      </trkpt>
      <trkpt lat="47.85413" lon="-3.38455">
        <ele>50.2</ele>
        <time>2021-11-25T10:33:38.000Z</time>
      </trkpt>
      <trkpt lat="47.85399" lon="-3.38448">
        <ele>51.9</ele>
        <time>2021-11-25T10:33:35.000Z</time>
      </trkpt>
      <trkpt lat="47.85389" lon="-3.38437">
        <ele>50.6</ele>
        <time>2021-11-25T10:33:32.000Z</time>
      </trkpt>
      <trkpt lat="47.85381" lon="-3.38427">
        <ele>51.1</ele>
        <time>2021-11-25T10:33:29.000Z</time>
      </trkpt>
      <trkpt lat="47.85373" lon="-3.3842">
        <ele>50.4</ele>
        <time>2021-11-25T10:33:26.000Z</time>
      </trkpt>
      <trkpt lat="47.85364" lon="-3.38428">
        <ele>50.6</ele>
        <time>2021-11-25T10:33:23.000Z</time>
      </trkpt>
      <trkpt lat="47.85357" lon="-3.38447">
        <ele>49.2</ele>
        <time>2021-11-25T10:33:20.000Z</time>
      </trkpt>
      <trkpt lat="47.85352" lon="-3.38469">
        <ele>50.3</ele>
        <time>2021-11-25T10:33:17.000Z</time>
      </trkpt>
      <trkpt lat="47.85349" lon="-3.38492">
        <ele>50.6</ele>
        <time>2021-11-25T10:33:14.000Z</time>
      </trkpt>
      <trkpt lat="47.85344" lon="-3.38513">
        <ele>50</ele>
        <time>2021-11-25T10:33:11.000Z</time>
      </trkpt>
      <trkpt lat="47.85333" lon="-3.38529">
        <ele>49.9</ele>
        <time>2021-11-25T10:33:08.000Z</time>
      </trkpt>
      <trkpt lat="47.85317" lon="-3.38534">
        <ele>50.1</ele>
        <time>2021-11-25T10:33:05.000Z</time>
      </trkpt>
      <trkpt lat="47.85301" lon="-3.38539">
        <ele>49.5</ele>
        <time>2021-11-25T10:33:02.000Z</time>
      </trkpt>
      <trkpt lat="47.85285" lon="-3.38543">
        <ele>49.9</ele>
        <time>2021-11-25T10:32:59.000Z</time>
      </trkpt>
      <trkpt lat="47.85268" lon="-3.38547">
        <ele>50</ele>
        <time>2021-11-25T10:32:56.000Z</time>
      </trkpt>
      <trkpt lat="47.85251" lon="-3.38551">
        <ele>49.9</ele>
        <time>2021-11-25T10:32:53.000Z</time>
      </trkpt>
      <trkpt lat="47.85235" lon="-3.38555">
        <ele>49.4</ele>
        <time>2021-11-25T10:32:50.000Z</time>
      </trkpt>
      <trkpt lat="47.8522" lon="-3.38558">
        <ele>48.7</ele>
        <time>2021-11-25T10:32:47.000Z</time>
      </trkpt>
      <trkpt lat="47.85205" lon="-3.3856">
        <ele>49.7</ele>
        <time>2021-11-25T10:32:44.000Z</time>
      </trkpt>
      <trkpt lat="47.8519" lon="-3.38561">
        <ele>49.4</ele>
        <time>2021-11-25T10:32:41.000Z</time>
      </trkpt>
      <trkpt lat="47.85176" lon="-3.38561">
        <ele>49.8</ele>
        <time>2021-11-25T10:32:38.000Z</time>
      </trkpt>
      <trkpt lat="47.85162" lon="-3.3856">
        <ele>50.5</ele>
        <time>2021-11-25T10:32:35.000Z</time>
      </trkpt>
      <trkpt lat="47.85151" lon="-3.38561">
        <ele>50.2</ele>
        <time>2021-11-25T10:32:32.000Z</time>
      </trkpt>
      <trkpt lat="47.85148" lon="-3.38571">
        <ele>49.7</ele>
        <time>2021-11-25T10:32:29.000Z</time>
      </trkpt>
      <trkpt lat="47.85147" lon="-3.38586">
        <ele>50</ele>
        <time>2021-11-25T10:32:26.000Z</time>
      </trkpt>
      <trkpt lat="47.85145" lon="-3.38602">
        <ele>49.9</ele>
        <time>2021-11-25T10:32:23.000Z</time>
      </trkpt>
      <trkpt lat="47.85143" lon="-3.38618">
        <ele>49.6</ele>
        <time>2021-11-25T10:32:20.000Z</time>
      </trkpt>
      <trkpt lat="47.8514" lon="-3.38634">
        <ele>49.6</ele>
        <time>2021-11-25T10:32:17.000Z</time>
      </trkpt>
      <trkpt lat="47.85137" lon="-3.38653">
        <ele>49.7</ele>
        <time>2021-11-25T10:32:14.000Z</time>
      </trkpt>
      <trkpt lat="47.85134" lon="-3.3867">
        <ele>49.5</ele>
        <time>2021-11-25T10:32:11.000Z</time>
      </trkpt>
      <trkpt lat="47.85132" lon="-3.38688">
        <ele>49.5</ele>
        <time>2021-11-25T10:32:08.000Z</time>
      </trkpt>
      <trkpt lat="47.85129" lon="-3.38706">
        <ele>48.8</ele>
        <time>2021-11-25T10:32:05.000Z</time>
      </trkpt>
      <trkpt lat="47.85126" lon="-3.38723">
        <ele>49.1</ele>
        <time>2021-11-25T10:32:02.000Z</time>
      </trkpt>
      <trkpt lat="47.85124" lon="-3.38741">
        <ele>48.9</ele>
        <time>2021-11-25T10:31:59.000Z</time>
      </trkpt>
      <trkpt lat="47.85121" lon="-3.38759">
        <ele>48.6</ele>
        <time>2021-11-25T10:31:56.000Z</time>
      </trkpt>
      <trkpt lat="47.85119" lon="-3.38776">
        <ele>47.8</ele>
        <time>2021-11-25T10:31:53.000Z</time>
      </trkpt>
      <trkpt lat="47.85116" lon="-3.38794">
        <ele>47.3</ele>
        <time>2021-11-25T10:31:50.000Z</time>
      </trkpt>
      <trkpt lat="47.85113" lon="-3.38813">
        <ele>46.7</ele>
        <time>2021-11-25T10:31:47.000Z</time>
      </trkpt>
      <trkpt lat="47.8511" lon="-3.38832">
        <ele>46.4</ele>
        <time>2021-11-25T10:31:44.000Z</time>
      </trkpt>
      <trkpt lat="47.85107" lon="-3.38851">
        <ele>46.1</ele>
        <time>2021-11-25T10:31:41.000Z</time>
      </trkpt>
      <trkpt lat="47.85104" lon="-3.3887">
        <ele>45.2</ele>
        <time>2021-11-25T10:31:38.000Z</time>
      </trkpt>
      <trkpt lat="47.85101" lon="-3.38889">
        <ele>45.1</ele>
        <time>2021-11-25T10:31:35.000Z</time>
      </trkpt>
      <trkpt lat="47.85098" lon="-3.38907">
        <ele>45.1</ele>
        <time>2021-11-25T10:31:32.000Z</time>
      </trkpt>
      <trkpt lat="47.85096" lon="-3.38926">
        <ele>44.3</ele>
        <time>2021-11-25T10:31:29.000Z</time>
      </trkpt>
      <trkpt lat="47.85093" lon="-3.38944">
        <ele>43.6</ele>
        <time>2021-11-25T10:31:26.000Z</time>
      </trkpt>
      <trkpt lat="47.8509" lon="-3.38962">
        <ele>43.1</ele>
        <time>2021-11-25T10:31:23.000Z</time>
      </trkpt>
      <trkpt lat="47.85087" lon="-3.3898">
        <ele>42.9</ele>
        <time>2021-11-25T10:31:20.000Z</time>
      </trkpt>
      <trkpt lat="47.85082" lon="-3.38995">
        <ele>42.8</ele>
        <time>2021-11-25T10:31:17.000Z</time>
      </trkpt>
      <trkpt lat="47.85071" lon="-3.39001">
        <ele>42.7</ele>
        <time>2021-11-25T10:31:14.000Z</time>
      </trkpt>
      <trkpt lat="47.8506" lon="-3.39003">
        <ele>41.3</ele>
        <time>2021-11-25T10:31:11.000Z</time>
      </trkpt>
      <trkpt lat="47.8505" lon="-3.39005">
        <ele>41.7</ele>
        <time>2021-11-25T10:31:08.000Z</time>
      </trkpt>
      <trkpt lat="47.85041" lon="-3.39012">
        <ele>40.6</ele>
        <time>2021-11-25T10:31:05.000Z</time>
      </trkpt>
      <trkpt lat="47.85033" lon="-3.39017">
        <ele>40.5</ele>
        <time>2021-11-25T10:31:02.000Z</time>
      </trkpt>
      <trkpt lat="47.85025" lon="-3.39019">
        <ele>42.9</ele>
        <time>2021-11-25T10:30:59.000Z</time>
      </trkpt>
      <trkpt lat="47.85017" lon="-3.39023">
        <ele>39.8</ele>
        <time>2021-11-25T10:30:56.000Z</time>
      </trkpt>
      <trkpt lat="47.85009" lon="-3.39031">
        <ele>41</ele>
        <time>2021-11-25T10:30:53.000Z</time>
      </trkpt>
      <trkpt lat="47.85004" lon="-3.39042">
        <ele>39</ele>
        <time>2021-11-25T10:30:50.000Z</time>
      </trkpt>
      <trkpt lat="47.85004" lon="-3.39051">
        <ele>39.6</ele>
        <time>2021-11-25T10:30:47.000Z</time>
      </trkpt>
      <trkpt lat="47.85003" lon="-3.39053">
        <ele>39.4</ele>
        <time>2021-11-25T10:30:44.000Z</time>
      </trkpt>
      <trkpt lat="47.85004" lon="-3.39048">
        <ele>39.3</ele>
        <time>2021-11-25T10:30:41.000Z</time>
      </trkpt>
      <trkpt lat="47.85004" lon="-3.39048">
        <ele>39.5</ele>
        <time>2021-11-25T10:30:39.000Z</time>
      </trkpt>
      <trkpt lat="47.85004" lon="-3.39047">
        <ele>39.1</ele>
        <time>2021-11-25T10:30:36.000Z</time>
      </trkpt>
      <trkpt lat="47.85004" lon="-3.39036">
        <ele>39.7</ele>
        <time>2021-11-25T10:30:33.000Z</time>
      </trkpt>
      <trkpt lat="47.85003" lon="-3.39022">
        <ele>40.5</ele>
        <time>2021-11-25T10:30:30.000Z</time>
      </trkpt>
      <trkpt lat="47.84999" lon="-3.39015">
        <ele>41.3</ele>
        <time>2021-11-25T10:30:27.000Z</time>
      </trkpt>
      <trkpt lat="47.84994" lon="-3.39012">
        <ele>39.2</ele>
        <time>2021-11-25T10:30:24.000Z</time>
      </trkpt>
      <trkpt lat="47.84989" lon="-3.39016">
        <ele>39.3</ele>
        <time>2021-11-25T10:30:21.000Z</time>
      </trkpt>
      <trkpt lat="47.84984" lon="-3.3902">
        <ele>38.2</ele>
        <time>2021-11-25T10:30:18.000Z</time>
      </trkpt>
      <trkpt lat="47.84978" lon="-3.39023">
        <ele>38.1</ele>
        <time>2021-11-25T10:30:15.000Z</time>
      </trkpt>
      <trkpt lat="47.84972" lon="-3.39028">
        <ele>36.2</ele>
        <time>2021-11-25T10:30:12.000Z</time>
      </trkpt>
      <trkpt lat="47.84966" lon="-3.39035">
        <ele>37.1</ele>
        <time>2021-11-25T10:30:09.000Z</time>
      </trkpt>
      <trkpt lat="47.84961" lon="-3.39042">
        <ele>35.9</ele>
        <time>2021-11-25T10:30:06.000Z</time>
      </trkpt>
      <trkpt lat="47.84955" lon="-3.39049">
        <ele>35</ele>
        <time>2021-11-25T10:30:03.000Z</time>
      </trkpt>
      <trkpt lat="47.84951" lon="-3.39054">
        <ele>34.7</ele>
        <time>2021-11-25T10:30:00.000Z</time>
      </trkpt>
      <trkpt lat="47.84945" lon="-3.39058">
        <ele>34.7</ele>
        <time>2021-11-25T10:29:57.000Z</time>
      </trkpt>
      <trkpt lat="47.84939" lon="-3.39063">
        <ele>33.3</ele>
        <time>2021-11-25T10:29:54.000Z</time>
      </trkpt>
      <trkpt lat="47.84933" lon="-3.39067">
        <ele>33.7</ele>
        <time>2021-11-25T10:29:51.000Z</time>
      </trkpt>
      <trkpt lat="47.84927" lon="-3.39071">
        <ele>32.1</ele>
        <time>2021-11-25T10:29:48.000Z</time>
      </trkpt>
      <trkpt lat="47.8492" lon="-3.39076">
        <ele>32.6</ele>
        <time>2021-11-25T10:29:45.000Z</time>
      </trkpt>
      <trkpt lat="47.84913" lon="-3.39081">
        <ele>30.2</ele>
        <time>2021-11-25T10:29:42.000Z</time>
      </trkpt>
      <trkpt lat="47.84907" lon="-3.39087">
        <ele>27.5</ele>
        <time>2021-11-25T10:29:39.000Z</time>
      </trkpt>
      <trkpt lat="47.84901" lon="-3.39093">
        <ele>27.7</ele>
        <time>2021-11-25T10:29:36.000Z</time>
      </trkpt>
      <trkpt lat="47.84895" lon="-3.39098">
        <ele>27.1</ele>
        <time>2021-11-25T10:29:33.000Z</time>
      </trkpt>
      <trkpt lat="47.84887" lon="-3.39103">
        <ele>25.5</ele>
        <time>2021-11-25T10:29:30.000Z</time>
      </trkpt>
      <trkpt lat="47.84879" lon="-3.39104">
        <ele>24.6</ele>
        <time>2021-11-25T10:29:27.000Z</time>
      </trkpt>
      <trkpt lat="47.84872" lon="-3.39105">
        <ele>22.3</ele>
        <time>2021-11-25T10:29:24.000Z</time>
      </trkpt>
      <trkpt lat="47.84864" lon="-3.39105">
        <ele>21.6</ele>
        <time>2021-11-25T10:29:21.000Z</time>
      </trkpt>
      <trkpt lat="47.84857" lon="-3.39105">
        <ele>17.8</ele>
        <time>2021-11-25T10:29:18.000Z</time>
      </trkpt>
      <trkpt lat="47.84846" lon="-3.39101">
        <ele>24.5</ele>
        <time>2021-11-25T10:29:15.000Z</time>
      </trkpt>
      <trkpt lat="47.84832" lon="-3.39085">
        <ele>20.8</ele>
        <time>2021-11-25T10:29:12.000Z</time>
      </trkpt>
      <trkpt lat="47.84819" lon="-3.39068">
        <ele>21.4</ele>
        <time>2021-11-25T10:29:09.000Z</time>
      </trkpt>
      <trkpt lat="47.84807" lon="-3.39053">
        <ele>23.9</ele>
        <time>2021-11-25T10:29:06.000Z</time>
      </trkpt>
      <trkpt lat="47.84797" lon="-3.39037">
        <ele>19.2</ele>
        <time>2021-11-25T10:29:03.000Z</time>
      </trkpt>
      <trkpt lat="47.84785" lon="-3.39017">
        <ele>15.4</ele>
        <time>2021-11-25T10:29:00.000Z</time>
      </trkpt>
      <trkpt lat="47.84771" lon="-3.39002">
        <ele>25</ele>
        <time>2021-11-25T10:28:57.000Z</time>
      </trkpt>
      <trkpt lat="47.8476" lon="-3.38989">
        <ele>25</ele>
        <time>2021-11-25T10:28:54.000Z</time>
      </trkpt>
      <trkpt lat="47.84749" lon="-3.38975">
        <ele>25.5</ele>
        <time>2021-11-25T10:28:51.000Z</time>
      </trkpt>
      <trkpt lat="47.8474" lon="-3.38961">
        <ele>28.5</ele>
        <time>2021-11-25T10:28:48.000Z</time>
      </trkpt>
      <trkpt lat="47.84731" lon="-3.38948">
        <ele>27.8</ele>
        <time>2021-11-25T10:28:45.000Z</time>
      </trkpt>
      <trkpt lat="47.84724" lon="-3.38937">
        <ele>25.5</ele>
        <time>2021-11-25T10:28:42.000Z</time>
      </trkpt>
      <trkpt lat="47.84718" lon="-3.38927">
        <ele>26.6</ele>
        <time>2021-11-25T10:28:39.000Z</time>
      </trkpt>
      <trkpt lat="47.84711" lon="-3.38918">
        <ele>26.4</ele>
        <time>2021-11-25T10:28:36.000Z</time>
      </trkpt>
      <trkpt lat="47.84704" lon="-3.38906">
        <ele>26.1</ele>
        <time>2021-11-25T10:28:33.000Z</time>
      </trkpt>
      <trkpt lat="47.84695" lon="-3.38892">
        <ele>25</ele>
        <time>2021-11-25T10:28:30.000Z</time>
      </trkpt>
      <trkpt lat="47.84687" lon="-3.38882">
        <ele>26.1</ele>
        <time>2021-11-25T10:28:27.000Z</time>
      </trkpt>
      <trkpt lat="47.84681" lon="-3.3887">
        <ele>24.8</ele>
        <time>2021-11-25T10:28:24.000Z</time>
      </trkpt>
      <trkpt lat="47.84675" lon="-3.38859">
        <ele>26.4</ele>
        <time>2021-11-25T10:28:21.000Z</time>
      </trkpt>
      <trkpt lat="47.8467" lon="-3.38849">
        <ele>25.1</ele>
        <time>2021-11-25T10:28:18.000Z</time>
      </trkpt>
      <trkpt lat="47.84665" lon="-3.3884">
        <ele>24.9</ele>
        <time>2021-11-25T10:28:15.000Z</time>
      </trkpt>
      <trkpt lat="47.84661" lon="-3.38832">
        <ele>24.4</ele>
        <time>2021-11-25T10:28:12.000Z</time>
      </trkpt>
      <trkpt lat="47.84657" lon="-3.38826">
        <ele>24.5</ele>
        <time>2021-11-25T10:28:09.000Z</time>
      </trkpt>
      <trkpt lat="47.84655" lon="-3.38815">
        <ele>23.8</ele>
        <time>2021-11-25T10:28:06.000Z</time>
      </trkpt>
      <trkpt lat="47.84654" lon="-3.38805">
        <ele>20.8</ele>
        <time>2021-11-25T10:28:03.000Z</time>
      </trkpt>
      <trkpt lat="47.84654" lon="-3.38797">
        <ele>21.5</ele>
        <time>2021-11-25T10:28:00.000Z</time>
      </trkpt>
      <trkpt lat="47.84653" lon="-3.38789">
        <ele>21.8</ele>
        <time>2021-11-25T10:27:57.000Z</time>
      </trkpt>
      <trkpt lat="47.84651" lon="-3.38781">
        <ele>19.3</ele>
        <time>2021-11-25T10:27:54.000Z</time>
      </trkpt>
      <trkpt lat="47.8465" lon="-3.38773">
        <ele>16.5</ele>
        <time>2021-11-25T10:27:51.000Z</time>
      </trkpt>
      <trkpt lat="47.84649" lon="-3.38761">
        <ele>16.2</ele>
        <time>2021-11-25T10:27:48.000Z</time>
      </trkpt>
      <trkpt lat="47.84652" lon="-3.38748">
        <ele>14.3</ele>
        <time>2021-11-25T10:27:45.000Z</time>
      </trkpt>
      <trkpt lat="47.84656" lon="-3.38732">
        <ele>16.4</ele>
        <time>2021-11-25T10:27:42.000Z</time>
      </trkpt>
      <trkpt lat="47.8466" lon="-3.38719">
        <ele>18.1</ele>
        <time>2021-11-25T10:27:39.000Z</time>
      </trkpt>
      <trkpt lat="47.84665" lon="-3.38708">
        <ele>16.8</ele>
        <time>2021-11-25T10:27:36.000Z</time>
      </trkpt>
      <trkpt lat="47.84667" lon="-3.38699">
        <ele>15.9</ele>
        <time>2021-11-25T10:27:33.000Z</time>
      </trkpt>
      <trkpt lat="47.84671" lon="-3.38691">
        <ele>13.2</ele>
        <time>2021-11-25T10:27:30.000Z</time>
      </trkpt>
      <trkpt lat="47.84673" lon="-3.38677">
        <ele>15.1</ele>
        <time>2021-11-25T10:27:27.000Z</time>
      </trkpt>
      <trkpt lat="47.84675" lon="-3.38663">
        <ele>13</ele>
        <time>2021-11-25T10:27:24.000Z</time>
      </trkpt>
      <trkpt lat="47.84679" lon="-3.38642">
        <ele>12.3</ele>
        <time>2021-11-25T10:27:21.000Z</time>
      </trkpt>
      <trkpt lat="47.84682" lon="-3.38627">
        <ele>13.3</ele>
        <time>2021-11-25T10:27:18.000Z</time>
      </trkpt>
      <trkpt lat="47.84682" lon="-3.38615">
        <ele>14.7</ele>
        <time>2021-11-25T10:27:15.000Z</time>
      </trkpt>
      <trkpt lat="47.84681" lon="-3.38605">
        <ele>15.4</ele>
        <time>2021-11-25T10:27:12.000Z</time>
      </trkpt>
      <trkpt lat="47.84679" lon="-3.38592">
        <ele>14.9</ele>
        <time>2021-11-25T10:27:09.000Z</time>
      </trkpt>
      <trkpt lat="47.84677" lon="-3.3858">
        <ele>14.8</ele>
        <time>2021-11-25T10:27:06.000Z</time>
      </trkpt>
      <trkpt lat="47.84674" lon="-3.38571">
        <ele>15.5</ele>
        <time>2021-11-25T10:27:03.000Z</time>
      </trkpt>
      <trkpt lat="47.84671" lon="-3.38565">
        <ele>14.4</ele>
        <time>2021-11-25T10:27:00.000Z</time>
      </trkpt>
      <trkpt lat="47.84666" lon="-3.38559">
        <ele>14</ele>
        <time>2021-11-25T10:26:57.000Z</time>
      </trkpt>
      <trkpt lat="47.84664" lon="-3.3855">
        <ele>15.8</ele>
        <time>2021-11-25T10:26:54.000Z</time>
      </trkpt>
      <trkpt lat="47.84661" lon="-3.38544">
        <ele>14.9</ele>
        <time>2021-11-25T10:26:51.000Z</time>
      </trkpt>
      <trkpt lat="47.84656" lon="-3.38538">
        <ele>14</ele>
        <time>2021-11-25T10:26:48.000Z</time>
      </trkpt>
      <trkpt lat="47.84652" lon="-3.38537">
        <ele>14.8</ele>
        <time>2021-11-25T10:26:45.000Z</time>
      </trkpt>
      <trkpt lat="47.84648" lon="-3.3854">
        <ele>15</ele>
        <time>2021-11-25T10:26:42.000Z</time>
      </trkpt>
      <trkpt lat="47.84646" lon="-3.38545">
        <ele>15.5</ele>
        <time>2021-11-25T10:26:39.000Z</time>
      </trkpt>
      <trkpt lat="47.84647" lon="-3.38553">
        <ele>15.4</ele>
        <time>2021-11-25T10:26:36.000Z</time>
      </trkpt>
      <trkpt lat="47.84648" lon="-3.38564">
        <ele>15.2</ele>
        <time>2021-11-25T10:26:33.000Z</time>
      </trkpt>
      <trkpt lat="47.84648" lon="-3.38576">
        <ele>12.9</ele>
        <time>2021-11-25T10:26:30.000Z</time>
      </trkpt>
      <trkpt lat="47.84648" lon="-3.38588">
        <ele>13.6</ele>
        <time>2021-11-25T10:26:27.000Z</time>
      </trkpt>
      <trkpt lat="47.84648" lon="-3.38598">
        <ele>12.6</ele>
        <time>2021-11-25T10:26:24.000Z</time>
      </trkpt>
      <trkpt lat="47.84648" lon="-3.38607">
        <ele>11.6</ele>
        <time>2021-11-25T10:26:21.000Z</time>
      </trkpt>
      <trkpt lat="47.84647" lon="-3.38618">
        <ele>11.9</ele>
        <time>2021-11-25T10:26:18.000Z</time>
      </trkpt>
      <trkpt lat="47.84648" lon="-3.38629">
        <ele>12.8</ele>
        <time>2021-11-25T10:26:15.000Z</time>
      </trkpt>
      <trkpt lat="47.84647" lon="-3.38637">
        <ele>11.3</ele>
        <time>2021-11-25T10:26:12.000Z</time>
      </trkpt>
      <trkpt lat="47.84646" lon="-3.38645">
        <ele>11.5</ele>
        <time>2021-11-25T10:26:09.000Z</time>
      </trkpt>
      <trkpt lat="47.84643" lon="-3.38655">
        <ele>11.6</ele>
        <time>2021-11-25T10:26:06.000Z</time>
      </trkpt>
      <trkpt lat="47.84639" lon="-3.38664">
        <ele>12.9</ele>
        <time>2021-11-25T10:26:03.000Z</time>
      </trkpt>
      <trkpt lat="47.84636" lon="-3.38666">
        <ele>12.9</ele>
        <time>2021-11-25T10:26:00.000Z</time>
      </trkpt>
      <trkpt lat="47.84633" lon="-3.3867">
        <ele>13.3</ele>
        <time>2021-11-25T10:25:57.000Z</time>
      </trkpt>
      <trkpt lat="47.84625" lon="-3.38676">
        <ele>13.2</ele>
        <time>2021-11-25T10:25:54.000Z</time>
      </trkpt>
      <trkpt lat="47.84621" lon="-3.38683">
        <ele>12.5</ele>
        <time>2021-11-25T10:25:51.000Z</time>
      </trkpt>
      <trkpt lat="47.84618" lon="-3.38692">
        <ele>11.5</ele>
        <time>2021-11-25T10:25:48.000Z</time>
      </trkpt>
      <trkpt lat="47.84612" lon="-3.38701">
        <ele>9.7</ele>
        <time>2021-11-25T10:25:45.000Z</time>
      </trkpt>
      <trkpt lat="47.84607" lon="-3.38712">
        <ele>11.4</ele>
        <time>2021-11-25T10:25:42.000Z</time>
      </trkpt>
      <trkpt lat="47.84603" lon="-3.38723">
        <ele>11</ele>
        <time>2021-11-25T10:25:39.000Z</time>
      </trkpt>
      <trkpt lat="47.84599" lon="-3.38735">
        <ele>10.6</ele>
        <time>2021-11-25T10:25:36.000Z</time>
      </trkpt>
      <trkpt lat="47.84596" lon="-3.38751">
        <ele>11.6</ele>
        <time>2021-11-25T10:25:33.000Z</time>
      </trkpt>
      <trkpt lat="47.84595" lon="-3.38763">
        <ele>12.2</ele>
        <time>2021-11-25T10:25:30.000Z</time>
      </trkpt>
      <trkpt lat="47.84592" lon="-3.38771">
        <ele>11.8</ele>
        <time>2021-11-25T10:25:27.000Z</time>
      </trkpt>
      <trkpt lat="47.8459" lon="-3.3878">
        <ele>11.6</ele>
        <time>2021-11-25T10:25:24.000Z</time>
      </trkpt>
      <trkpt lat="47.84588" lon="-3.38792">
        <ele>11.4</ele>
        <time>2021-11-25T10:25:21.000Z</time>
      </trkpt>
      <trkpt lat="47.84586" lon="-3.38804">
        <ele>10.9</ele>
        <time>2021-11-25T10:25:18.000Z</time>
      </trkpt>
      <trkpt lat="47.84586" lon="-3.38811">
        <ele>11.1</ele>
        <time>2021-11-25T10:25:15.000Z</time>
      </trkpt>
      <trkpt lat="47.84584" lon="-3.38819">
        <ele>11.1</ele>
        <time>2021-11-25T10:25:12.000Z</time>
      </trkpt>
      <trkpt lat="47.8458" lon="-3.38831">
        <ele>10.4</ele>
        <time>2021-11-25T10:25:09.000Z</time>
      </trkpt>
      <trkpt lat="47.84575" lon="-3.38846">
        <ele>10</ele>
        <time>2021-11-25T10:25:06.000Z</time>
      </trkpt>
      <trkpt lat="47.84568" lon="-3.3886">
        <ele>10.8</ele>
        <time>2021-11-25T10:25:03.000Z</time>
      </trkpt>
      <trkpt lat="47.84562" lon="-3.38875">
        <ele>10.3</ele>
        <time>2021-11-25T10:25:00.000Z</time>
      </trkpt>
      <trkpt lat="47.84558" lon="-3.3889">
        <ele>9.7</ele>
        <time>2021-11-25T10:24:57.000Z</time>
      </trkpt>
      <trkpt lat="47.84557" lon="-3.38907">
        <ele>7.9</ele>
        <time>2021-11-25T10:24:54.000Z</time>
      </trkpt>
      <trkpt lat="47.84557" lon="-3.38923">
        <ele>6.6</ele>
        <time>2021-11-25T10:24:51.000Z</time>
      </trkpt>
      <trkpt lat="47.84557" lon="-3.38939">
        <ele>5.4</ele>
        <time>2021-11-25T10:24:48.000Z</time>
      </trkpt>
      <trkpt lat="47.84558" lon="-3.38956">
        <ele>5.4</ele>
        <time>2021-11-25T10:24:45.000Z</time>
      </trkpt>
      <trkpt lat="47.84558" lon="-3.38973">
        <ele>5</ele>
        <time>2021-11-25T10:24:42.000Z</time>
      </trkpt>
      <trkpt lat="47.84552" lon="-3.38986">
        <ele>4.8</ele>
        <time>2021-11-25T10:24:39.000Z</time>
      </trkpt>
      <trkpt lat="47.84544" lon="-3.38996">
        <ele>8.9</ele>
        <time>2021-11-25T10:24:36.000Z</time>
      </trkpt>
      <trkpt lat="47.84536" lon="-3.38996">
        <ele>6.7</ele>
        <time>2021-11-25T10:24:33.000Z</time>
      </trkpt>
      <trkpt lat="47.8453" lon="-3.38993">
        <ele>9.2</ele>
        <time>2021-11-25T10:24:30.000Z</time>
      </trkpt>
      <trkpt lat="47.84522" lon="-3.38991">
        <ele>8</ele>
        <time>2021-11-25T10:24:27.000Z</time>
      </trkpt>
      <trkpt lat="47.84517" lon="-3.38989">
        <ele>10.8</ele>
        <time>2021-11-25T10:24:24.000Z</time>
      </trkpt>
      <trkpt lat="47.84511" lon="-3.38993">
        <ele>12.4</ele>
        <time>2021-11-25T10:24:21.000Z</time>
      </trkpt>
      <trkpt lat="47.84505" lon="-3.38994">
        <ele>13.5</ele>
        <time>2021-11-25T10:24:18.000Z</time>
      </trkpt>
      <trkpt lat="47.84499" lon="-3.38994">
        <ele>13.6</ele>
        <time>2021-11-25T10:24:15.000Z</time>
      </trkpt>
      <trkpt lat="47.84495" lon="-3.38994">
        <ele>14.9</ele>
        <time>2021-11-25T10:24:12.000Z</time>
      </trkpt>
      <trkpt lat="47.84489" lon="-3.38995">
        <ele>14.8</ele>
        <time>2021-11-25T10:24:09.000Z</time>
      </trkpt>
      <trkpt lat="47.84483" lon="-3.38996">
        <ele>17.6</ele>
        <time>2021-11-25T10:24:06.000Z</time>
      </trkpt>
      <trkpt lat="47.84479" lon="-3.38998">
        <ele>19</ele>
        <time>2021-11-25T10:24:03.000Z</time>
      </trkpt>
      <trkpt lat="47.84477" lon="-3.39003">
        <ele>21.7</ele>
        <time>2021-11-25T10:24:00.000Z</time>
      </trkpt>
      <trkpt lat="47.84475" lon="-3.39007">
        <ele>20.5</ele>
        <time>2021-11-25T10:23:57.000Z</time>
      </trkpt>
      <trkpt lat="47.84475" lon="-3.39007">
        <ele>20.6</ele>
        <time>2021-11-25T10:23:56.000Z</time>
      </trkpt>
      <trkpt lat="47.84474" lon="-3.39007">
        <ele>20.2</ele>
        <time>2021-11-25T10:23:53.000Z</time>
      </trkpt>
      <trkpt lat="47.84471" lon="-3.39007">
        <ele>20.7</ele>
        <time>2021-11-25T10:23:50.000Z</time>
      </trkpt>
      <trkpt lat="47.8447" lon="-3.39008">
        <ele>21.4</ele>
        <time>2021-11-25T10:23:47.000Z</time>
      </trkpt>
      <trkpt lat="47.84469" lon="-3.39008">
        <ele>22.7</ele>
        <time>2021-11-25T10:23:44.000Z</time>
      </trkpt>
      <trkpt lat="47.84468" lon="-3.39009">
        <ele>22.5</ele>
        <time>2021-11-25T10:23:41.000Z</time>
      </trkpt>
      <trkpt lat="47.84468" lon="-3.39012">
        <ele>23.3</ele>
        <time>2021-11-25T10:23:38.000Z</time>
      </trkpt>
      <trkpt lat="47.84467" lon="-3.39014">
        <ele>23.1</ele>
        <time>2021-11-25T10:23:35.000Z</time>
      </trkpt>
      <trkpt lat="47.84465" lon="-3.39014">
        <ele>23.4</ele>
        <time>2021-11-25T10:23:32.000Z</time>
      </trkpt>
      <trkpt lat="47.84463" lon="-3.39016">
        <ele>23.1</ele>
        <time>2021-11-25T10:23:29.000Z</time>
      </trkpt>
      <trkpt lat="47.8446" lon="-3.39024">
        <ele>24.4</ele>
        <time>2021-11-25T10:23:26.000Z</time>
      </trkpt>
      <trkpt lat="47.84459" lon="-3.39032">
        <ele>24.8</ele>
        <time>2021-11-25T10:23:23.000Z</time>
      </trkpt>
      <trkpt lat="47.84455" lon="-3.3903">
        <ele>26.7</ele>
        <time>2021-11-25T10:23:20.000Z</time>
      </trkpt>
      <trkpt lat="47.84451" lon="-3.39024">
        <ele>26.4</ele>
        <time>2021-11-25T10:23:17.000Z</time>
      </trkpt>
      <trkpt lat="47.84447" lon="-3.39019">
        <ele>27.9</ele>
        <time>2021-11-25T10:23:14.000Z</time>
      </trkpt>
      <trkpt lat="47.84438" lon="-3.39013">
        <ele>27.3</ele>
        <time>2021-11-25T10:23:11.000Z</time>
      </trkpt>
      <trkpt lat="47.84428" lon="-3.39008">
        <ele>31.3</ele>
        <time>2021-11-25T10:23:08.000Z</time>
      </trkpt>
      <trkpt lat="47.84419" lon="-3.39013">
        <ele>30.2</ele>
        <time>2021-11-25T10:23:05.000Z</time>
      </trkpt>
      <trkpt lat="47.84408" lon="-3.39017">
        <ele>30.9</ele>
        <time>2021-11-25T10:23:02.000Z</time>
      </trkpt>
      <trkpt lat="47.84396" lon="-3.39021">
        <ele>31</ele>
        <time>2021-11-25T10:22:59.000Z</time>
      </trkpt>
      <trkpt lat="47.84379" lon="-3.39023">
        <ele>33.8</ele>
        <time>2021-11-25T10:22:56.000Z</time>
      </trkpt>
      <trkpt lat="47.84363" lon="-3.39021">
        <ele>33</ele>
        <time>2021-11-25T10:22:53.000Z</time>
      </trkpt>
      <trkpt lat="47.84348" lon="-3.39019">
        <ele>30.1</ele>
        <time>2021-11-25T10:22:50.000Z</time>
      </trkpt>
      <trkpt lat="47.84334" lon="-3.3902">
        <ele>32.4</ele>
        <time>2021-11-25T10:22:47.000Z</time>
      </trkpt>
      <trkpt lat="47.84318" lon="-3.3902">
        <ele>37.4</ele>
        <time>2021-11-25T10:22:44.000Z</time>
      </trkpt>
      <trkpt lat="47.84299" lon="-3.39021">
        <ele>33.8</ele>
        <time>2021-11-25T10:22:41.000Z</time>
      </trkpt>
      <trkpt lat="47.84271" lon="-3.39022">
        <ele>32.4</ele>
        <time>2021-11-25T10:22:38.000Z</time>
      </trkpt>
      <trkpt lat="47.84249" lon="-3.39023">
        <ele>26.2</ele>
        <time>2021-11-25T10:22:35.000Z</time>
      </trkpt>
      <trkpt lat="47.84235" lon="-3.3902">
        <ele>45.6</ele>
        <time>2021-11-25T10:22:32.000Z</time>
      </trkpt>
      <trkpt lat="47.84223" lon="-3.39019">
        <ele>36.8</ele>
        <time>2021-11-25T10:22:29.000Z</time>
      </trkpt>
      <trkpt lat="47.84212" lon="-3.39016">
        <ele>41.5</ele>
        <time>2021-11-25T10:22:26.000Z</time>
      </trkpt>
      <trkpt lat="47.84198" lon="-3.39014">
        <ele>42.4</ele>
        <time>2021-11-25T10:22:23.000Z</time>
      </trkpt>
      <trkpt lat="47.84188" lon="-3.39013">
        <ele>40.9</ele>
        <time>2021-11-25T10:22:20.000Z</time>
      </trkpt>
      <trkpt lat="47.84177" lon="-3.39008">
        <ele>42</ele>
        <time>2021-11-25T10:22:17.000Z</time>
      </trkpt>
      <trkpt lat="47.84166" lon="-3.39004">
        <ele>40.3</ele>
        <time>2021-11-25T10:22:14.000Z</time>
      </trkpt>
      <trkpt lat="47.84155" lon="-3.39001">
        <ele>41.3</ele>
        <time>2021-11-25T10:22:11.000Z</time>
      </trkpt>
      <trkpt lat="47.84143" lon="-3.38998">
        <ele>45.8</ele>
        <time>2021-11-25T10:22:08.000Z</time>
      </trkpt>
      <trkpt lat="47.84134" lon="-3.38992">
        <ele>40.2</ele>
        <time>2021-11-25T10:22:05.000Z</time>
      </trkpt>
      <trkpt lat="47.84123" lon="-3.38986">
        <ele>38.5</ele>
        <time>2021-11-25T10:22:02.000Z</time>
      </trkpt>
      <trkpt lat="47.84114" lon="-3.38977">
        <ele>40.4</ele>
        <time>2021-11-25T10:21:59.000Z</time>
      </trkpt>
      <trkpt lat="47.84105" lon="-3.38968">
        <ele>38.4</ele>
        <time>2021-11-25T10:21:56.000Z</time>
      </trkpt>
      <trkpt lat="47.84095" lon="-3.38954">
        <ele>38.4</ele>
        <time>2021-11-25T10:21:53.000Z</time>
      </trkpt>
      <trkpt lat="47.84086" lon="-3.38934">
        <ele>40.6</ele>
        <time>2021-11-25T10:21:50.000Z</time>
      </trkpt>
      <trkpt lat="47.8408" lon="-3.38917">
        <ele>38.8</ele>
        <time>2021-11-25T10:21:47.000Z</time>
      </trkpt>
      <trkpt lat="47.84077" lon="-3.38906">
        <ele>40.4</ele>
        <time>2021-11-25T10:21:44.000Z</time>
      </trkpt>
      <trkpt lat="47.84071" lon="-3.38906">
        <ele>41.1</ele>
        <time>2021-11-25T10:21:41.000Z</time>
      </trkpt>
      <trkpt lat="47.8406" lon="-3.38914">
        <ele>42.1</ele>
        <time>2021-11-25T10:21:38.000Z</time>
      </trkpt>
      <trkpt lat="47.84045" lon="-3.3892">
        <ele>42</ele>
        <time>2021-11-25T10:21:35.000Z</time>
      </trkpt>
      <trkpt lat="47.84031" lon="-3.38924">
        <ele>41.4</ele>
        <time>2021-11-25T10:21:32.000Z</time>
      </trkpt>
      <trkpt lat="47.84016" lon="-3.38927">
        <ele>41.3</ele>
        <time>2021-11-25T10:21:29.000Z</time>
      </trkpt>
      <trkpt lat="47.84001" lon="-3.3893">
        <ele>39.4</ele>
        <time>2021-11-25T10:21:26.000Z</time>
      </trkpt>
      <trkpt lat="47.83984" lon="-3.3893">
        <ele>40.5</ele>
        <time>2021-11-25T10:21:23.000Z</time>
      </trkpt>
      <trkpt lat="47.83965" lon="-3.3893">
        <ele>41.8</ele>
        <time>2021-11-25T10:21:20.000Z</time>
      </trkpt>
      <trkpt lat="47.83946" lon="-3.3893">
        <ele>40.8</ele>
        <time>2021-11-25T10:21:17.000Z</time>
      </trkpt>
      <trkpt lat="47.83929" lon="-3.38929">
        <ele>39.1</ele>
        <time>2021-11-25T10:21:14.000Z</time>
      </trkpt>
      <trkpt lat="47.83911" lon="-3.38927">
        <ele>43.6</ele>
        <time>2021-11-25T10:21:11.000Z</time>
      </trkpt>
      <trkpt lat="47.83898" lon="-3.38927">
        <ele>44.3</ele>
        <time>2021-11-25T10:21:08.000Z</time>
      </trkpt>
      <trkpt lat="47.8389" lon="-3.38931">
        <ele>43.2</ele>
        <time>2021-11-25T10:21:05.000Z</time>
      </trkpt>
      <trkpt lat="47.83883" lon="-3.38938">
        <ele>44.9</ele>
        <time>2021-11-25T10:21:02.000Z</time>
      </trkpt>
      <trkpt lat="47.83875" lon="-3.38943">
        <ele>42.9</ele>
        <time>2021-11-25T10:20:59.000Z</time>
      </trkpt>
      <trkpt lat="47.83868" lon="-3.38949">
        <ele>42.1</ele>
        <time>2021-11-25T10:20:56.000Z</time>
      </trkpt>
      <trkpt lat="47.83863" lon="-3.38954">
        <ele>44</ele>
        <time>2021-11-25T10:20:53.000Z</time>
      </trkpt>
      <trkpt lat="47.83856" lon="-3.38958">
        <ele>40.5</ele>
        <time>2021-11-25T10:20:50.000Z</time>
      </trkpt>
      <trkpt lat="47.8385" lon="-3.3896">
        <ele>42.6</ele>
        <time>2021-11-25T10:20:47.000Z</time>
      </trkpt>
      <trkpt lat="47.83845" lon="-3.38964">
        <ele>41.7</ele>
        <time>2021-11-25T10:20:44.000Z</time>
      </trkpt>
      <trkpt lat="47.8384" lon="-3.38968">
        <ele>41.7</ele>
        <time>2021-11-25T10:20:41.000Z</time>
      </trkpt>
      <trkpt lat="47.83832" lon="-3.38971">
        <ele>41.3</ele>
        <time>2021-11-25T10:20:38.000Z</time>
      </trkpt>
      <trkpt lat="47.83826" lon="-3.38974">
        <ele>39.4</ele>
        <time>2021-11-25T10:20:35.000Z</time>
      </trkpt>
      <trkpt lat="47.8382" lon="-3.38977">
        <ele>40.6</ele>
        <time>2021-11-25T10:20:32.000Z</time>
      </trkpt>
      <trkpt lat="47.83815" lon="-3.38979">
        <ele>38.6</ele>
        <time>2021-11-25T10:20:29.000Z</time>
      </trkpt>
      <trkpt lat="47.83811" lon="-3.38982">
        <ele>36.7</ele>
        <time>2021-11-25T10:20:26.000Z</time>
      </trkpt>
      <trkpt lat="47.83807" lon="-3.38986">
        <ele>38.3</ele>
        <time>2021-11-25T10:20:23.000Z</time>
      </trkpt>
      <trkpt lat="47.83802" lon="-3.38989">
        <ele>35.9</ele>
        <time>2021-11-25T10:20:20.000Z</time>
      </trkpt>
      <trkpt lat="47.83797" lon="-3.38993">
        <ele>34.9</ele>
        <time>2021-11-25T10:20:17.000Z</time>
      </trkpt>
      <trkpt lat="47.83791" lon="-3.38995">
        <ele>35.7</ele>
        <time>2021-11-25T10:20:14.000Z</time>
      </trkpt>
      <trkpt lat="47.83786" lon="-3.38997">
        <ele>35.1</ele>
        <time>2021-11-25T10:20:11.000Z</time>
      </trkpt>
      <trkpt lat="47.8378" lon="-3.38996">
        <ele>33.4</ele>
        <time>2021-11-25T10:20:08.000Z</time>
      </trkpt>
      <trkpt lat="47.83775" lon="-3.38998">
        <ele>33.6</ele>
        <time>2021-11-25T10:20:05.000Z</time>
      </trkpt>
      <trkpt lat="47.83772" lon="-3.39">
        <ele>32.3</ele>
        <time>2021-11-25T10:20:02.000Z</time>
      </trkpt>
      <trkpt lat="47.83768" lon="-3.39002">
        <ele>29.6</ele>
        <time>2021-11-25T10:19:59.000Z</time>
      </trkpt>
      <trkpt lat="47.83764" lon="-3.39006">
        <ele>32</ele>
        <time>2021-11-25T10:19:56.000Z</time>
      </trkpt>
      <trkpt lat="47.83758" lon="-3.39011">
        <ele>30.6</ele>
        <time>2021-11-25T10:19:53.000Z</time>
      </trkpt>
      <trkpt lat="47.83753" lon="-3.39015">
        <ele>28.9</ele>
        <time>2021-11-25T10:19:50.000Z</time>
      </trkpt>
      <trkpt lat="47.83747" lon="-3.3902">
        <ele>28.7</ele>
        <time>2021-11-25T10:19:47.000Z</time>
      </trkpt>
      <trkpt lat="47.83741" lon="-3.39025">
        <ele>27.5</ele>
        <time>2021-11-25T10:19:44.000Z</time>
      </trkpt>
      <trkpt lat="47.83736" lon="-3.39031">
        <ele>27</ele>
        <time>2021-11-25T10:19:41.000Z</time>
      </trkpt>
      <trkpt lat="47.83731" lon="-3.39037">
        <ele>26.6</ele>
        <time>2021-11-25T10:19:38.000Z</time>
      </trkpt>
      <trkpt lat="47.83727" lon="-3.39044">
        <ele>25.8</ele>
        <time>2021-11-25T10:19:35.000Z</time>
      </trkpt>
      <trkpt lat="47.83723" lon="-3.39051">
        <ele>24.5</ele>
        <time>2021-11-25T10:19:32.000Z</time>
      </trkpt>
      <trkpt lat="47.83718" lon="-3.39058">
        <ele>23.4</ele>
        <time>2021-11-25T10:19:29.000Z</time>
      </trkpt>
      <trkpt lat="47.83713" lon="-3.39065">
        <ele>22.2</ele>
        <time>2021-11-25T10:19:26.000Z</time>
      </trkpt>
      <trkpt lat="47.83708" lon="-3.39072">
        <ele>21.3</ele>
        <time>2021-11-25T10:19:23.000Z</time>
      </trkpt>
      <trkpt lat="47.83703" lon="-3.39078">
        <ele>20.4</ele>
        <time>2021-11-25T10:19:20.000Z</time>
      </trkpt>
      <trkpt lat="47.83698" lon="-3.39086">
        <ele>19.1</ele>
        <time>2021-11-25T10:19:17.000Z</time>
      </trkpt>
      <trkpt lat="47.83693" lon="-3.39094">
        <ele>18.2</ele>
        <time>2021-11-25T10:19:14.000Z</time>
      </trkpt>
      <trkpt lat="47.83688" lon="-3.39102">
        <ele>17.1</ele>
        <time>2021-11-25T10:19:11.000Z</time>
      </trkpt>
      <trkpt lat="47.83683" lon="-3.39111">
        <ele>16.8</ele>
        <time>2021-11-25T10:19:08.000Z</time>
      </trkpt>
      <trkpt lat="47.83676" lon="-3.39119">
        <ele>14.8</ele>
        <time>2021-11-25T10:19:05.000Z</time>
      </trkpt>
      <trkpt lat="47.83671" lon="-3.39128">
        <ele>14.4</ele>
        <time>2021-11-25T10:19:02.000Z</time>
      </trkpt>
      <trkpt lat="47.83665" lon="-3.39138">
        <ele>13.9</ele>
        <time>2021-11-25T10:18:59.000Z</time>
      </trkpt>
      <trkpt lat="47.83658" lon="-3.39149">
        <ele>13</ele>
        <time>2021-11-25T10:18:56.000Z</time>
      </trkpt>
      <trkpt lat="47.8365" lon="-3.39159">
        <ele>12.2</ele>
        <time>2021-11-25T10:18:53.000Z</time>
      </trkpt>
      <trkpt lat="47.83643" lon="-3.39167">
        <ele>11.8</ele>
        <time>2021-11-25T10:18:50.000Z</time>
      </trkpt>
      <trkpt lat="47.83635" lon="-3.39176">
        <ele>11.3</ele>
        <time>2021-11-25T10:18:47.000Z</time>
      </trkpt>
      <trkpt lat="47.83627" lon="-3.39185">
        <ele>10.4</ele>
        <time>2021-11-25T10:18:44.000Z</time>
      </trkpt>
      <trkpt lat="47.83618" lon="-3.39193">
        <ele>9.7</ele>
        <time>2021-11-25T10:18:41.000Z</time>
      </trkpt>
      <trkpt lat="47.83612" lon="-3.39204">
        <ele>9.4</ele>
        <time>2021-11-25T10:18:38.000Z</time>
      </trkpt>
      <trkpt lat="47.83614" lon="-3.39219">
        <ele>8.8</ele>
        <time>2021-11-25T10:18:35.000Z</time>
      </trkpt>
      <trkpt lat="47.83619" lon="-3.39233">
        <ele>8.8</ele>
        <time>2021-11-25T10:18:32.000Z</time>
      </trkpt>
      <trkpt lat="47.83622" lon="-3.39249">
        <ele>8.8</ele>
        <time>2021-11-25T10:18:29.000Z</time>
      </trkpt>
      <trkpt lat="47.83625" lon="-3.39266">
        <ele>8.1</ele>
        <time>2021-11-25T10:18:26.000Z</time>
      </trkpt>
      <trkpt lat="47.83629" lon="-3.39284">
        <ele>7.8</ele>
        <time>2021-11-25T10:18:23.000Z</time>
      </trkpt>
      <trkpt lat="47.83632" lon="-3.39302">
        <ele>8.4</ele>
        <time>2021-11-25T10:18:20.000Z</time>
      </trkpt>
      <trkpt lat="47.83635" lon="-3.39321">
        <ele>7.4</ele>
        <time>2021-11-25T10:18:17.000Z</time>
      </trkpt>
      <trkpt lat="47.83636" lon="-3.39338">
        <ele>6.5</ele>
        <time>2021-11-25T10:18:14.000Z</time>
      </trkpt>
      <trkpt lat="47.83629" lon="-3.39346">
        <ele>4.4</ele>
        <time>2021-11-25T10:18:11.000Z</time>
      </trkpt>
      <trkpt lat="47.83619" lon="-3.39346">
        <ele>4.2</ele>
        <time>2021-11-25T10:18:08.000Z</time>
      </trkpt>
      <trkpt lat="47.83607" lon="-3.39342">
        <ele>3.1</ele>
        <time>2021-11-25T10:18:05.000Z</time>
      </trkpt>
      <trkpt lat="47.83596" lon="-3.39342">
        <ele>2.6</ele>
        <time>2021-11-25T10:18:02.000Z</time>
      </trkpt>
      <trkpt lat="47.83585" lon="-3.39344">
        <ele>1.9</ele>
        <time>2021-11-25T10:17:59.000Z</time>
      </trkpt>
      <trkpt lat="47.83573" lon="-3.39348">
        <ele>1.9</ele>
        <time>2021-11-25T10:17:56.000Z</time>
      </trkpt>
      <trkpt lat="47.83563" lon="-3.39347">
        <ele>1</ele>
        <time>2021-11-25T10:17:53.000Z</time>
      </trkpt>
      <trkpt lat="47.83559" lon="-3.39336">
        <ele>2.7</ele>
        <time>2021-11-25T10:17:50.000Z</time>
      </trkpt>
      <trkpt lat="47.8355" lon="-3.39323">
        <ele>2.4</ele>
        <time>2021-11-25T10:17:47.000Z</time>
      </trkpt>
      <trkpt lat="47.83537" lon="-3.39309">
        <ele>2</ele>
        <time>2021-11-25T10:17:44.000Z</time>
      </trkpt>
      <trkpt lat="47.83525" lon="-3.39292">
        <ele>2.6</ele>
        <time>2021-11-25T10:17:41.000Z</time>
      </trkpt>
      <trkpt lat="47.83514" lon="-3.39274">
        <ele>3</ele>
        <time>2021-11-25T10:17:38.000Z</time>
      </trkpt>
      <trkpt lat="47.83505" lon="-3.39255">
        <ele>2.8</ele>
        <time>2021-11-25T10:17:35.000Z</time>
      </trkpt>
      <trkpt lat="47.83497" lon="-3.39235">
        <ele>2.9</ele>
        <time>2021-11-25T10:17:32.000Z</time>
      </trkpt>
      <trkpt lat="47.83491" lon="-3.39213">
        <ele>2.5</ele>
        <time>2021-11-25T10:17:29.000Z</time>
      </trkpt>
      <trkpt lat="47.83486" lon="-3.3919">
        <ele>2.7</ele>
        <time>2021-11-25T10:17:26.000Z</time>
      </trkpt>
      <trkpt lat="47.83482" lon="-3.39169">
        <ele>2.7</ele>
        <time>2021-11-25T10:17:23.000Z</time>
      </trkpt>
      <trkpt lat="47.83478" lon="-3.39148">
        <ele>0.7</ele>
        <time>2021-11-25T10:17:20.000Z</time>
      </trkpt>
      <trkpt lat="47.8347" lon="-3.39131">
        <ele>0.7</ele>
        <time>2021-11-25T10:17:17.000Z</time>
      </trkpt>
      <trkpt lat="47.83458" lon="-3.39127">
        <ele>0.1</ele>
        <time>2021-11-25T10:17:14.000Z</time>
      </trkpt>
      <trkpt lat="47.83445" lon="-3.39133">
        <ele>-0.4</ele>
        <time>2021-11-25T10:17:11.000Z</time>
      </trkpt>
      <trkpt lat="47.83431" lon="-3.39126">
        <ele>-0.3</ele>
        <time>2021-11-25T10:17:08.000Z</time>
      </trkpt>
      <trkpt lat="47.83421" lon="-3.39112">
        <ele>-0.6</ele>
        <time>2021-11-25T10:17:05.000Z</time>
      </trkpt>
      <trkpt lat="47.83413" lon="-3.39097">
        <ele>-1.8</ele>
        <time>2021-11-25T10:17:02.000Z</time>
      </trkpt>
      <trkpt lat="47.83408" lon="-3.39084">
        <ele>-0.2</ele>
        <time>2021-11-25T10:16:59.000Z</time>
      </trkpt>
      <trkpt lat="47.83401" lon="-3.3907">
        <ele>-0.5</ele>
        <time>2021-11-25T10:16:56.000Z</time>
      </trkpt>
      <trkpt lat="47.83394" lon="-3.39051">
        <ele>-1.6</ele>
        <time>2021-11-25T10:16:53.000Z</time>
      </trkpt>
      <trkpt lat="47.83386" lon="-3.3903">
        <ele>-1.9</ele>
        <time>2021-11-25T10:16:50.000Z</time>
      </trkpt>
      <trkpt lat="47.83378" lon="-3.39008">
        <ele>-1</ele>
        <time>2021-11-25T10:16:47.000Z</time>
      </trkpt>
      <trkpt lat="47.83369" lon="-3.38986">
        <ele>-1.3</ele>
        <time>2021-11-25T10:16:44.000Z</time>
      </trkpt>
      <trkpt lat="47.8336" lon="-3.38963">
        <ele>0.6</ele>
        <time>2021-11-25T10:16:41.000Z</time>
      </trkpt>
      <trkpt lat="47.83351" lon="-3.38944">
        <ele>-0.6</ele>
        <time>2021-11-25T10:16:38.000Z</time>
      </trkpt>
      <trkpt lat="47.83343" lon="-3.38925">
        <ele>1</ele>
        <time>2021-11-25T10:16:35.000Z</time>
      </trkpt>
      <trkpt lat="47.83337" lon="-3.38906">
        <ele>0.5</ele>
        <time>2021-11-25T10:16:32.000Z</time>
      </trkpt>
      <trkpt lat="47.8333" lon="-3.38894">
        <ele>2.8</ele>
        <time>2021-11-25T10:16:29.000Z</time>
      </trkpt>
      <trkpt lat="47.83323" lon="-3.38899">
        <ele>2.4</ele>
        <time>2021-11-25T10:16:26.000Z</time>
      </trkpt>
      <trkpt lat="47.83316" lon="-3.38909">
        <ele>3.1</ele>
        <time>2021-11-25T10:16:23.000Z</time>
      </trkpt>
      <trkpt lat="47.83307" lon="-3.38919">
        <ele>5.5</ele>
        <time>2021-11-25T10:16:20.000Z</time>
      </trkpt>
      <trkpt lat="47.83298" lon="-3.38927">
        <ele>3</ele>
        <time>2021-11-25T10:16:17.000Z</time>
      </trkpt>
      <trkpt lat="47.83291" lon="-3.38934">
        <ele>3.6</ele>
        <time>2021-11-25T10:16:14.000Z</time>
      </trkpt>
      <trkpt lat="47.83286" lon="-3.38935">
        <ele>2.2</ele>
        <time>2021-11-25T10:16:11.000Z</time>
      </trkpt>
      <trkpt lat="47.8328" lon="-3.38923">
        <ele>1.2</ele>
        <time>2021-11-25T10:16:08.000Z</time>
      </trkpt>
      <trkpt lat="47.83271" lon="-3.38906">
        <ele>-0.1</ele>
        <time>2021-11-25T10:16:05.000Z</time>
      </trkpt>
      <trkpt lat="47.83262" lon="-3.3889">
        <ele>-2</ele>
        <time>2021-11-25T10:16:02.000Z</time>
      </trkpt>
      <trkpt lat="47.83253" lon="-3.38872">
        <ele>1.7</ele>
        <time>2021-11-25T10:15:59.000Z</time>
      </trkpt>
      <trkpt lat="47.83243" lon="-3.38856">
        <ele>0.1</ele>
        <time>2021-11-25T10:15:56.000Z</time>
      </trkpt>
      <trkpt lat="47.83235" lon="-3.38841">
        <ele>1.3</ele>
        <time>2021-11-25T10:15:53.000Z</time>
      </trkpt>
      <trkpt lat="47.83228" lon="-3.38827">
        <ele>4.2</ele>
        <time>2021-11-25T10:15:50.000Z</time>
      </trkpt>
      <trkpt lat="47.8322" lon="-3.38816">
        <ele>1.3</ele>
        <time>2021-11-25T10:15:47.000Z</time>
      </trkpt>
      <trkpt lat="47.83213" lon="-3.38805">
        <ele>1</ele>
        <time>2021-11-25T10:15:44.000Z</time>
      </trkpt>
      <trkpt lat="47.83206" lon="-3.3879">
        <ele>-1.6</ele>
        <time>2021-11-25T10:15:41.000Z</time>
      </trkpt>
      <trkpt lat="47.83198" lon="-3.38778">
        <ele>0.5</ele>
        <time>2021-11-25T10:15:38.000Z</time>
      </trkpt>
      <trkpt lat="47.83187" lon="-3.38765">
        <ele>2.5</ele>
        <time>2021-11-25T10:15:35.000Z</time>
      </trkpt>
      <trkpt lat="47.83172" lon="-3.38757">
        <ele>-0.3</ele>
        <time>2021-11-25T10:15:32.000Z</time>
      </trkpt>
      <trkpt lat="47.83161" lon="-3.38755">
        <ele>0.3</ele>
        <time>2021-11-25T10:15:29.000Z</time>
      </trkpt>
      <trkpt lat="47.83148" lon="-3.38753">
        <ele>0.4</ele>
        <time>2021-11-25T10:15:26.000Z</time>
      </trkpt>
      <trkpt lat="47.83138" lon="-3.38757">
        <ele>-1.5</ele>
        <time>2021-11-25T10:15:23.000Z</time>
      </trkpt>
      <trkpt lat="47.83128" lon="-3.38767">
        <ele>-0.4</ele>
        <time>2021-11-25T10:15:20.000Z</time>
      </trkpt>
      <trkpt lat="47.83122" lon="-3.38778">
        <ele>-3.8</ele>
        <time>2021-11-25T10:15:17.000Z</time>
      </trkpt>
      <trkpt lat="47.83113" lon="-3.38792">
        <ele>-0.8</ele>
        <time>2021-11-25T10:15:14.000Z</time>
      </trkpt>
      <trkpt lat="47.83107" lon="-3.3881">
        <ele>0.1</ele>
        <time>2021-11-25T10:15:11.000Z</time>
      </trkpt>
      <trkpt lat="47.831" lon="-3.38824">
        <ele>-0.1</ele>
        <time>2021-11-25T10:15:08.000Z</time>
      </trkpt>
      <trkpt lat="47.83094" lon="-3.38839">
        <ele>-1.1</ele>
        <time>2021-11-25T10:15:05.000Z</time>
      </trkpt>
      <trkpt lat="47.83089" lon="-3.38852">
        <ele>-1.2</ele>
        <time>2021-11-25T10:15:02.000Z</time>
      </trkpt>
      <trkpt lat="47.8308" lon="-3.38863">
        <ele>-1.1</ele>
        <time>2021-11-25T10:14:59.000Z</time>
      </trkpt>
      <trkpt lat="47.83072" lon="-3.38874">
        <ele>4</ele>
        <time>2021-11-25T10:14:56.000Z</time>
      </trkpt>
      <trkpt lat="47.83066" lon="-3.38884">
        <ele>3.7</ele>
        <time>2021-11-25T10:14:53.000Z</time>
      </trkpt>
      <trkpt lat="47.83059" lon="-3.389">
        <ele>-2.8</ele>
        <time>2021-11-25T10:14:50.000Z</time>
      </trkpt>
      <trkpt lat="47.83057" lon="-3.38909">
        <ele>4</ele>
        <time>2021-11-25T10:14:47.000Z</time>
      </trkpt>
      <trkpt lat="47.83056" lon="-3.38915">
        <ele>5</ele>
        <time>2021-11-25T10:14:44.000Z</time>
      </trkpt>
      <trkpt lat="47.83052" lon="-3.38921">
        <ele>5.8</ele>
        <time>2021-11-25T10:14:41.000Z</time>
      </trkpt>
      <trkpt lat="47.83046" lon="-3.38925">
        <ele>7.5</ele>
        <time>2021-11-25T10:14:38.000Z</time>
      </trkpt>
      <trkpt lat="47.83041" lon="-3.3893">
        <ele>8.9</ele>
        <time>2021-11-25T10:14:35.000Z</time>
      </trkpt>
      <trkpt lat="47.83035" lon="-3.38933">
        <ele>9</ele>
        <time>2021-11-25T10:14:32.000Z</time>
      </trkpt>
      <trkpt lat="47.83026" lon="-3.38933">
        <ele>11.4</ele>
        <time>2021-11-25T10:14:29.000Z</time>
      </trkpt>
      <trkpt lat="47.83018" lon="-3.38929">
        <ele>11.7</ele>
        <time>2021-11-25T10:14:26.000Z</time>
      </trkpt>
      <trkpt lat="47.83006" lon="-3.3893">
        <ele>15.6</ele>
        <time>2021-11-25T10:14:23.000Z</time>
      </trkpt>
      <trkpt lat="47.82997" lon="-3.38932">
        <ele>11.5</ele>
        <time>2021-11-25T10:14:20.000Z</time>
      </trkpt>
      <trkpt lat="47.82989" lon="-3.38936">
        <ele>13.4</ele>
        <time>2021-11-25T10:14:17.000Z</time>
      </trkpt>
      <trkpt lat="47.82981" lon="-3.38939">
        <ele>14.1</ele>
        <time>2021-11-25T10:14:14.000Z</time>
      </trkpt>
      <trkpt lat="47.82974" lon="-3.38941">
        <ele>14.1</ele>
        <time>2021-11-25T10:14:11.000Z</time>
      </trkpt>
      <trkpt lat="47.82969" lon="-3.38945">
        <ele>13.7</ele>
        <time>2021-11-25T10:14:08.000Z</time>
      </trkpt>
      <trkpt lat="47.82967" lon="-3.38948">
        <ele>14.8</ele>
        <time>2021-11-25T10:14:05.000Z</time>
      </trkpt>
      <trkpt lat="47.82967" lon="-3.38948">
        <ele>14.2</ele>
        <time>2021-11-25T10:14:02.000Z</time>
      </trkpt>
      <trkpt lat="47.82967" lon="-3.38948">
        <ele>14.2</ele>
        <time>2021-11-25T10:13:59.000Z</time>
      </trkpt>
      <trkpt lat="47.82967" lon="-3.38948">
        <ele>14.2</ele>
        <time>2021-11-25T10:13:56.000Z</time>
      </trkpt>
      <trkpt lat="47.82967" lon="-3.38948">
        <ele>14.2</ele>
        <time>2021-11-25T10:13:53.000Z</time>
      </trkpt>
      <trkpt lat="47.82967" lon="-3.38948">
        <ele>14.5</ele>
        <time>2021-11-25T10:13:50.000Z</time>
      </trkpt>
      <trkpt lat="47.82967" lon="-3.38948">
        <ele>14.6</ele>
        <time>2021-11-25T10:13:47.000Z</time>
      </trkpt>
      <trkpt lat="47.82967" lon="-3.38948">
        <ele>14.6</ele>
        <time>2021-11-25T10:13:44.000Z</time>
      </trkpt>
      <trkpt lat="47.82967" lon="-3.38947">
        <ele>14.7</ele>
        <time>2021-11-25T10:13:42.000Z</time>
      </trkpt>
      <trkpt lat="47.82966" lon="-3.38946">
        <ele>14.6</ele>
        <time>2021-11-25T10:13:40.000Z</time>
      </trkpt>
      <trkpt lat="47.82964" lon="-3.38947">
        <ele>14.6</ele>
        <time>2021-11-25T10:13:37.000Z</time>
      </trkpt>
      <trkpt lat="47.82963" lon="-3.38948">
        <ele>14.5</ele>
        <time>2021-11-25T10:13:34.000Z</time>
      </trkpt>
      <trkpt lat="47.82961" lon="-3.38947">
        <ele>14.6</ele>
        <time>2021-11-25T10:13:31.000Z</time>
      </trkpt>
      <trkpt lat="47.82959" lon="-3.38947">
        <ele>15.1</ele>
        <time>2021-11-25T10:13:28.000Z</time>
      </trkpt>
      <trkpt lat="47.82955" lon="-3.38946">
        <ele>13.6</ele>
        <time>2021-11-25T10:13:25.000Z</time>
      </trkpt>
      <trkpt lat="47.82953" lon="-3.38944">
        <ele>13.1</ele>
        <time>2021-11-25T10:13:22.000Z</time>
      </trkpt>
      <trkpt lat="47.82951" lon="-3.38943">
        <ele>12.7</ele>
        <time>2021-11-25T10:13:19.000Z</time>
      </trkpt>
      <trkpt lat="47.8295" lon="-3.38942">
        <ele>11.7</ele>
        <time>2021-11-25T10:13:16.000Z</time>
      </trkpt>
      <trkpt lat="47.82948" lon="-3.38942">
        <ele>12.2</ele>
        <time>2021-11-25T10:13:13.000Z</time>
      </trkpt>
      <trkpt lat="47.82947" lon="-3.38942">
        <ele>11.9</ele>
        <time>2021-11-25T10:13:10.000Z</time>
      </trkpt>
      <trkpt lat="47.82943" lon="-3.38943">
        <ele>11.1</ele>
        <time>2021-11-25T10:13:07.000Z</time>
      </trkpt>
      <trkpt lat="47.82937" lon="-3.38945">
        <ele>10.5</ele>
        <time>2021-11-25T10:13:04.000Z</time>
      </trkpt>
      <trkpt lat="47.82931" lon="-3.38949">
        <ele>10.8</ele>
        <time>2021-11-25T10:13:01.000Z</time>
      </trkpt>
      <trkpt lat="47.82924" lon="-3.38954">
        <ele>10.8</ele>
        <time>2021-11-25T10:12:58.000Z</time>
      </trkpt>
      <trkpt lat="47.82918" lon="-3.38956">
        <ele>10.5</ele>
        <time>2021-11-25T10:12:55.000Z</time>
      </trkpt>
      <trkpt lat="47.82912" lon="-3.38959">
        <ele>11</ele>
        <time>2021-11-25T10:12:52.000Z</time>
      </trkpt>
      <trkpt lat="47.82907" lon="-3.38962">
        <ele>11.6</ele>
        <time>2021-11-25T10:12:49.000Z</time>
      </trkpt>
      <trkpt lat="47.82902" lon="-3.38963">
        <ele>11.8</ele>
        <time>2021-11-25T10:12:46.000Z</time>
      </trkpt>
      <trkpt lat="47.82897" lon="-3.38965">
        <ele>11.1</ele>
        <time>2021-11-25T10:12:43.000Z</time>
      </trkpt>
      <trkpt lat="47.8289" lon="-3.38967">
        <ele>10.5</ele>
        <time>2021-11-25T10:12:40.000Z</time>
      </trkpt>
      <trkpt lat="47.82884" lon="-3.3897">
        <ele>10.2</ele>
        <time>2021-11-25T10:12:37.000Z</time>
      </trkpt>
      <trkpt lat="47.82879" lon="-3.38971">
        <ele>9.1</ele>
        <time>2021-11-25T10:12:34.000Z</time>
      </trkpt>
      <trkpt lat="47.82875" lon="-3.38971">
        <ele>8.8</ele>
        <time>2021-11-25T10:12:31.000Z</time>
      </trkpt>
      <trkpt lat="47.82871" lon="-3.38972">
        <ele>9</ele>
        <time>2021-11-25T10:12:28.000Z</time>
      </trkpt>
      <trkpt lat="47.82865" lon="-3.38972">
        <ele>6.8</ele>
        <time>2021-11-25T10:12:25.000Z</time>
      </trkpt>
      <trkpt lat="47.82859" lon="-3.38971">
        <ele>5.1</ele>
        <time>2021-11-25T10:12:22.000Z</time>
      </trkpt>
      <trkpt lat="47.82853" lon="-3.38968">
        <ele>3.9</ele>
        <time>2021-11-25T10:12:19.000Z</time>
      </trkpt>
      <trkpt lat="47.82846" lon="-3.38969">
        <ele>2.9</ele>
        <time>2021-11-25T10:12:16.000Z</time>
      </trkpt>
      <trkpt lat="47.82841" lon="-3.38968">
        <ele>2.9</ele>
        <time>2021-11-25T10:12:13.000Z</time>
      </trkpt>
      <trkpt lat="47.82835" lon="-3.38965">
        <ele>1.1</ele>
        <time>2021-11-25T10:12:10.000Z</time>
      </trkpt>
      <trkpt lat="47.82831" lon="-3.38963">
        <ele>-0.5</ele>
        <time>2021-11-25T10:12:07.000Z</time>
      </trkpt>
      <trkpt lat="47.82826" lon="-3.38964">
        <ele>0.4</ele>
        <time>2021-11-25T10:12:04.000Z</time>
      </trkpt>
      <trkpt lat="47.82816" lon="-3.38968">
        <ele>-0.3</ele>
        <time>2021-11-25T10:12:01.000Z</time>
      </trkpt>
      <trkpt lat="47.82803" lon="-3.38974">
        <ele>-2.2</ele>
        <time>2021-11-25T10:11:58.000Z</time>
      </trkpt>
      <trkpt lat="47.82789" lon="-3.3898">
        <ele>-1.5</ele>
        <time>2021-11-25T10:11:55.000Z</time>
      </trkpt>
      <trkpt lat="47.82775" lon="-3.38979">
        <ele>1.2</ele>
        <time>2021-11-25T10:11:52.000Z</time>
      </trkpt>
      <trkpt lat="47.82764" lon="-3.38985">
        <ele>-0.2</ele>
        <time>2021-11-25T10:11:49.000Z</time>
      </trkpt>
      <trkpt lat="47.82754" lon="-3.38993">
        <ele>0.3</ele>
        <time>2021-11-25T10:11:46.000Z</time>
      </trkpt>
      <trkpt lat="47.82747" lon="-3.39005">
        <ele>-0.3</ele>
        <time>2021-11-25T10:11:43.000Z</time>
      </trkpt>
      <trkpt lat="47.82741" lon="-3.39019">
        <ele>-0.7</ele>
        <time>2021-11-25T10:11:40.000Z</time>
      </trkpt>
      <trkpt lat="47.82735" lon="-3.39029">
        <ele>5.1</ele>
        <time>2021-11-25T10:11:37.000Z</time>
      </trkpt>
      <trkpt lat="47.82727" lon="-3.39039">
        <ele>0.8</ele>
        <time>2021-11-25T10:11:34.000Z</time>
      </trkpt>
      <trkpt lat="47.82714" lon="-3.39046">
        <ele>4.1</ele>
        <time>2021-11-25T10:11:31.000Z</time>
      </trkpt>
      <trkpt lat="47.82702" lon="-3.39055">
        <ele>3.8</ele>
        <time>2021-11-25T10:11:28.000Z</time>
      </trkpt>
      <trkpt lat="47.82689" lon="-3.39066">
        <ele>2.1</ele>
        <time>2021-11-25T10:11:25.000Z</time>
      </trkpt>
      <trkpt lat="47.82678" lon="-3.39074">
        <ele>2.7</ele>
        <time>2021-11-25T10:11:22.000Z</time>
      </trkpt>
      <trkpt lat="47.82664" lon="-3.39077">
        <ele>3.4</ele>
        <time>2021-11-25T10:11:19.000Z</time>
      </trkpt>
      <trkpt lat="47.82651" lon="-3.39086">
        <ele>2.1</ele>
        <time>2021-11-25T10:11:16.000Z</time>
      </trkpt>
      <trkpt lat="47.82644" lon="-3.39104">
        <ele>5.1</ele>
        <time>2021-11-25T10:11:13.000Z</time>
      </trkpt>
      <trkpt lat="47.82639" lon="-3.39124">
        <ele>1.4</ele>
        <time>2021-11-25T10:11:10.000Z</time>
      </trkpt>
      <trkpt lat="47.82637" lon="-3.39143">
        <ele>6.2</ele>
        <time>2021-11-25T10:11:07.000Z</time>
      </trkpt>
      <trkpt lat="47.82633" lon="-3.39158">
        <ele>8.9</ele>
        <time>2021-11-25T10:11:04.000Z</time>
      </trkpt>
      <trkpt lat="47.82627" lon="-3.39169">
        <ele>4</ele>
        <time>2021-11-25T10:11:01.000Z</time>
      </trkpt>
      <trkpt lat="47.82626" lon="-3.39194">
        <ele>4.2</ele>
        <time>2021-11-25T10:08:51.000Z</time>
      </trkpt>
      <trkpt lat="47.82646" lon="-3.39216">
        <ele>4.9</ele>
        <time>2021-11-25T10:08:48.000Z</time>
      </trkpt>
      <trkpt lat="47.82666" lon="-3.39234">
        <ele>6.9</ele>
        <time>2021-11-25T10:08:45.000Z</time>
      </trkpt>
      <trkpt lat="47.82683" lon="-3.39255">
        <ele>7.5</ele>
        <time>2021-11-25T10:08:42.000Z</time>
      </trkpt>
      <trkpt lat="47.82701" lon="-3.39276">
        <ele>12.9</ele>
        <time>2021-11-25T10:08:39.000Z</time>
      </trkpt>
      <trkpt lat="47.82721" lon="-3.393">
        <ele>14.5</ele>
        <time>2021-11-25T10:08:36.000Z</time>
      </trkpt>
      <trkpt lat="47.82738" lon="-3.39322">
        <ele>16.2</ele>
        <time>2021-11-25T10:08:33.000Z</time>
      </trkpt>
      <trkpt lat="47.82751" lon="-3.39341">
        <ele>17.4</ele>
        <time>2021-11-25T10:08:30.000Z</time>
      </trkpt>
      <trkpt lat="47.82765" lon="-3.39362">
        <ele>17.7</ele>
        <time>2021-11-25T10:08:27.000Z</time>
      </trkpt>
      <trkpt lat="47.82782" lon="-3.39378">
        <ele>18.3</ele>
        <time>2021-11-25T10:08:24.000Z</time>
      </trkpt>
      <trkpt lat="47.828" lon="-3.39393">
        <ele>18.2</ele>
        <time>2021-11-25T10:08:21.000Z</time>
      </trkpt>
      <trkpt lat="47.82817" lon="-3.39407">
        <ele>19</ele>
        <time>2021-11-25T10:08:18.000Z</time>
      </trkpt>
      <trkpt lat="47.82835" lon="-3.3942">
        <ele>18.3</ele>
        <time>2021-11-25T10:08:15.000Z</time>
      </trkpt>
      <trkpt lat="47.82853" lon="-3.39434">
        <ele>17.4</ele>
        <time>2021-11-25T10:08:12.000Z</time>
      </trkpt>
      <trkpt lat="47.82871" lon="-3.39447">
        <ele>16.9</ele>
        <time>2021-11-25T10:08:09.000Z</time>
      </trkpt>
      <trkpt lat="47.82889" lon="-3.3946">
        <ele>17.5</ele>
        <time>2021-11-25T10:08:06.000Z</time>
      </trkpt>
      <trkpt lat="47.82907" lon="-3.39473">
        <ele>17.9</ele>
        <time>2021-11-25T10:08:03.000Z</time>
      </trkpt>
      <trkpt lat="47.82926" lon="-3.39488">
        <ele>18</ele>
        <time>2021-11-25T10:08:00.000Z</time>
      </trkpt>
      <trkpt lat="47.82946" lon="-3.39501">
        <ele>18.7</ele>
        <time>2021-11-25T10:07:57.000Z</time>
      </trkpt>
      <trkpt lat="47.82963" lon="-3.39509">
        <ele>20.4</ele>
        <time>2021-11-25T10:07:54.000Z</time>
      </trkpt>
      <trkpt lat="47.82975" lon="-3.39516">
        <ele>21.9</ele>
        <time>2021-11-25T10:07:51.000Z</time>
      </trkpt>
      <trkpt lat="47.82978" lon="-3.39526">
        <ele>21.5</ele>
        <time>2021-11-25T10:07:48.000Z</time>
      </trkpt>
      <trkpt lat="47.82972" lon="-3.39538">
        <ele>19.9</ele>
        <time>2021-11-25T10:07:45.000Z</time>
      </trkpt>
      <trkpt lat="47.82962" lon="-3.39554">
        <ele>19.9</ele>
        <time>2021-11-25T10:07:42.000Z</time>
      </trkpt>
      <trkpt lat="47.82949" lon="-3.39572">
        <ele>23.4</ele>
        <time>2021-11-25T10:07:39.000Z</time>
      </trkpt>
      <trkpt lat="47.82936" lon="-3.3959">
        <ele>26</ele>
        <time>2021-11-25T10:07:36.000Z</time>
      </trkpt>
      <trkpt lat="47.82923" lon="-3.39607">
        <ele>24.9</ele>
        <time>2021-11-25T10:07:33.000Z</time>
      </trkpt>
      <trkpt lat="47.8291" lon="-3.39622">
        <ele>22.9</ele>
        <time>2021-11-25T10:07:30.000Z</time>
      </trkpt>
      <trkpt lat="47.829" lon="-3.39637">
        <ele>26.1</ele>
        <time>2021-11-25T10:07:27.000Z</time>
      </trkpt>
      <trkpt lat="47.82896" lon="-3.39656">
        <ele>28.6</ele>
        <time>2021-11-25T10:07:24.000Z</time>
      </trkpt>
      <trkpt lat="47.82893" lon="-3.39678">
        <ele>29.3</ele>
        <time>2021-11-25T10:07:21.000Z</time>
      </trkpt>
      <trkpt lat="47.82892" lon="-3.39698">
        <ele>28.7</ele>
        <time>2021-11-25T10:07:18.000Z</time>
      </trkpt>
      <trkpt lat="47.82891" lon="-3.39716">
        <ele>32</ele>
        <time>2021-11-25T10:07:15.000Z</time>
      </trkpt>
      <trkpt lat="47.82889" lon="-3.39735">
        <ele>30.1</ele>
        <time>2021-11-25T10:07:12.000Z</time>
      </trkpt>
      <trkpt lat="47.82887" lon="-3.39756">
        <ele>28.9</ele>
        <time>2021-11-25T10:07:09.000Z</time>
      </trkpt>
      <trkpt lat="47.82885" lon="-3.39776">
        <ele>31.8</ele>
        <time>2021-11-25T10:07:06.000Z</time>
      </trkpt>
      <trkpt lat="47.82883" lon="-3.39795">
        <ele>31</ele>
        <time>2021-11-25T10:07:03.000Z</time>
      </trkpt>
      <trkpt lat="47.82881" lon="-3.39813">
        <ele>29.8</ele>
        <time>2021-11-25T10:07:00.000Z</time>
      </trkpt>
      <trkpt lat="47.82875" lon="-3.39826">
        <ele>27.3</ele>
        <time>2021-11-25T10:06:57.000Z</time>
      </trkpt>
      <trkpt lat="47.82862" lon="-3.39826">
        <ele>27.2</ele>
        <time>2021-11-25T10:06:54.000Z</time>
      </trkpt>
      <trkpt lat="47.82848" lon="-3.39824">
        <ele>26.9</ele>
        <time>2021-11-25T10:06:51.000Z</time>
      </trkpt>
      <trkpt lat="47.82833" lon="-3.39821">
        <ele>26.1</ele>
        <time>2021-11-25T10:06:48.000Z</time>
      </trkpt>
      <trkpt lat="47.82819" lon="-3.3982">
        <ele>26.6</ele>
        <time>2021-11-25T10:06:45.000Z</time>
      </trkpt>
      <trkpt lat="47.82807" lon="-3.39823">
        <ele>25.9</ele>
        <time>2021-11-25T10:06:42.000Z</time>
      </trkpt>
      <trkpt lat="47.82797" lon="-3.39836">
        <ele>24.8</ele>
        <time>2021-11-25T10:06:39.000Z</time>
      </trkpt>
      <trkpt lat="47.82789" lon="-3.39854">
        <ele>25.4</ele>
        <time>2021-11-25T10:06:36.000Z</time>
      </trkpt>
      <trkpt lat="47.82782" lon="-3.39873">
        <ele>26.1</ele>
        <time>2021-11-25T10:06:33.000Z</time>
      </trkpt>
      <trkpt lat="47.82775" lon="-3.39892">
        <ele>26.5</ele>
        <time>2021-11-25T10:06:30.000Z</time>
      </trkpt>
      <trkpt lat="47.82771" lon="-3.39911">
        <ele>27</ele>
        <time>2021-11-25T10:06:27.000Z</time>
      </trkpt>
      <trkpt lat="47.82767" lon="-3.39928">
        <ele>26.2</ele>
        <time>2021-11-25T10:06:24.000Z</time>
      </trkpt>
      <trkpt lat="47.82764" lon="-3.39947">
        <ele>25</ele>
        <time>2021-11-25T10:06:21.000Z</time>
      </trkpt>
      <trkpt lat="47.8276" lon="-3.39967">
        <ele>25.7</ele>
        <time>2021-11-25T10:06:18.000Z</time>
      </trkpt>
      <trkpt lat="47.82756" lon="-3.39987">
        <ele>25.6</ele>
        <time>2021-11-25T10:06:15.000Z</time>
      </trkpt>
      <trkpt lat="47.82753" lon="-3.40008">
        <ele>24.7</ele>
        <time>2021-11-25T10:06:12.000Z</time>
      </trkpt>
      <trkpt lat="47.82751" lon="-3.4003">
        <ele>25.3</ele>
        <time>2021-11-25T10:06:09.000Z</time>
      </trkpt>
      <trkpt lat="47.8275" lon="-3.40053">
        <ele>25</ele>
        <time>2021-11-25T10:06:06.000Z</time>
      </trkpt>
      <trkpt lat="47.82747" lon="-3.40077">
        <ele>24.9</ele>
        <time>2021-11-25T10:06:03.000Z</time>
      </trkpt>
      <trkpt lat="47.82746" lon="-3.40101">
        <ele>24.1</ele>
        <time>2021-11-25T10:06:00.000Z</time>
      </trkpt>
      <trkpt lat="47.82742" lon="-3.40125">
        <ele>24.1</ele>
        <time>2021-11-25T10:05:57.000Z</time>
      </trkpt>
      <trkpt lat="47.82736" lon="-3.40145">
        <ele>23.8</ele>
        <time>2021-11-25T10:05:54.000Z</time>
      </trkpt>
      <trkpt lat="47.82752" lon="-3.40144">
        <ele>23.1</ele>
        <time>2021-11-25T10:04:50.000Z</time>
      </trkpt>
      <trkpt lat="47.82778" lon="-3.4014">
        <ele>23.9</ele>
        <time>2021-11-25T10:04:47.000Z</time>
      </trkpt>
      <trkpt lat="47.82804" lon="-3.40142">
        <ele>24.6</ele>
        <time>2021-11-25T10:04:44.000Z</time>
      </trkpt>
      <trkpt lat="47.8283" lon="-3.40142">
        <ele>27.4</ele>
        <time>2021-11-25T10:04:41.000Z</time>
      </trkpt>
      <trkpt lat="47.82853" lon="-3.40143">
        <ele>26.8</ele>
        <time>2021-11-25T10:04:38.000Z</time>
      </trkpt>
      <trkpt lat="47.82877" lon="-3.4014">
        <ele>28.2</ele>
        <time>2021-11-25T10:04:35.000Z</time>
      </trkpt>
      <trkpt lat="47.82901" lon="-3.40136">
        <ele>28.3</ele>
        <time>2021-11-25T10:04:32.000Z</time>
      </trkpt>
      <trkpt lat="47.82925" lon="-3.4013">
        <ele>28.7</ele>
        <time>2021-11-25T10:04:29.000Z</time>
      </trkpt>
      <trkpt lat="47.82949" lon="-3.40127">
        <ele>29.8</ele>
        <time>2021-11-25T10:04:26.000Z</time>
      </trkpt>
      <trkpt lat="47.82975" lon="-3.40123">
        <ele>29.3</ele>
        <time>2021-11-25T10:04:23.000Z</time>
      </trkpt>
      <trkpt lat="47.83001" lon="-3.4012">
        <ele>30.5</ele>
        <time>2021-11-25T10:04:20.000Z</time>
      </trkpt>
      <trkpt lat="47.83026" lon="-3.40117">
        <ele>32.4</ele>
        <time>2021-11-25T10:04:17.000Z</time>
      </trkpt>
      <trkpt lat="47.83048" lon="-3.40113">
        <ele>34.3</ele>
        <time>2021-11-25T10:04:14.000Z</time>
      </trkpt>
      <trkpt lat="47.83067" lon="-3.40105">
        <ele>35.1</ele>
        <time>2021-11-25T10:04:11.000Z</time>
      </trkpt>
      <trkpt lat="47.83087" lon="-3.40099">
        <ele>36.8</ele>
        <time>2021-11-25T10:04:08.000Z</time>
      </trkpt>
      <trkpt lat="47.83106" lon="-3.40092">
        <ele>37</ele>
        <time>2021-11-25T10:04:05.000Z</time>
      </trkpt>
      <trkpt lat="47.83127" lon="-3.40086">
        <ele>37.4</ele>
        <time>2021-11-25T10:04:02.000Z</time>
      </trkpt>
      <trkpt lat="47.83146" lon="-3.4008">
        <ele>39.4</ele>
        <time>2021-11-25T10:03:59.000Z</time>
      </trkpt>
      <trkpt lat="47.83162" lon="-3.40083">
        <ele>40.2</ele>
        <time>2021-11-25T10:03:56.000Z</time>
      </trkpt>
      <trkpt lat="47.83171" lon="-3.40097">
        <ele>40.8</ele>
        <time>2021-11-25T10:03:53.000Z</time>
      </trkpt>
      <trkpt lat="47.83179" lon="-3.40108">
        <ele>40.9</ele>
        <time>2021-11-25T10:03:50.000Z</time>
      </trkpt>
      <trkpt lat="47.83181" lon="-3.40125">
        <ele>41.2</ele>
        <time>2021-11-25T10:03:47.000Z</time>
      </trkpt>
      <trkpt lat="47.8318" lon="-3.40145">
        <ele>40.7</ele>
        <time>2021-11-25T10:03:44.000Z</time>
      </trkpt>
      <trkpt lat="47.83178" lon="-3.40164">
        <ele>39.8</ele>
        <time>2021-11-25T10:03:41.000Z</time>
      </trkpt>
      <trkpt lat="47.83176" lon="-3.40184">
        <ele>39.3</ele>
        <time>2021-11-25T10:03:38.000Z</time>
      </trkpt>
      <trkpt lat="47.83173" lon="-3.40204">
        <ele>39.2</ele>
        <time>2021-11-25T10:03:35.000Z</time>
      </trkpt>
      <trkpt lat="47.83171" lon="-3.40223">
        <ele>39.1</ele>
        <time>2021-11-25T10:03:32.000Z</time>
      </trkpt>
      <trkpt lat="47.83169" lon="-3.40242">
        <ele>38.3</ele>
        <time>2021-11-25T10:03:29.000Z</time>
      </trkpt>
      <trkpt lat="47.83167" lon="-3.40261">
        <ele>36.7</ele>
        <time>2021-11-25T10:03:26.000Z</time>
      </trkpt>
      <trkpt lat="47.83165" lon="-3.4028">
        <ele>36.9</ele>
        <time>2021-11-25T10:03:23.000Z</time>
      </trkpt>
      <trkpt lat="47.83164" lon="-3.403">
        <ele>36.8</ele>
        <time>2021-11-25T10:03:20.000Z</time>
      </trkpt>
      <trkpt lat="47.83161" lon="-3.4032">
        <ele>36.7</ele>
        <time>2021-11-25T10:03:17.000Z</time>
      </trkpt>
      <trkpt lat="47.83157" lon="-3.4034">
        <ele>36.3</ele>
        <time>2021-11-25T10:03:14.000Z</time>
      </trkpt>
      <trkpt lat="47.83151" lon="-3.4036">
        <ele>34.8</ele>
        <time>2021-11-25T10:03:11.000Z</time>
      </trkpt>
      <trkpt lat="47.83143" lon="-3.40377">
        <ele>35.2</ele>
        <time>2021-11-25T10:03:08.000Z</time>
      </trkpt>
      <trkpt lat="47.83132" lon="-3.40392">
        <ele>34.1</ele>
        <time>2021-11-25T10:03:05.000Z</time>
      </trkpt>
      <trkpt lat="47.83122" lon="-3.40403">
        <ele>34.3</ele>
        <time>2021-11-25T10:03:02.000Z</time>
      </trkpt>
      <trkpt lat="47.83114" lon="-3.4041">
        <ele>34.3</ele>
        <time>2021-11-25T10:02:59.000Z</time>
      </trkpt>
      <trkpt lat="47.8311" lon="-3.40412">
        <ele>33.9</ele>
        <time>2021-11-25T10:02:56.000Z</time>
      </trkpt>
      <trkpt lat="47.8311" lon="-3.40413">
        <ele>33.8</ele>
        <time>2021-11-25T10:02:53.000Z</time>
      </trkpt>
      <trkpt lat="47.83109" lon="-3.40412">
        <ele>34.4</ele>
        <time>2021-11-25T10:02:50.000Z</time>
      </trkpt>
      <trkpt lat="47.83109" lon="-3.40411">
        <ele>34.4</ele>
        <time>2021-11-25T10:02:49.000Z</time>
      </trkpt>
      <trkpt lat="47.83109" lon="-3.40411">
        <ele>34.3</ele>
        <time>2021-11-25T10:02:48.000Z</time>
      </trkpt>
      <trkpt lat="47.83109" lon="-3.40411">
        <ele>34.4</ele>
        <time>2021-11-25T10:02:47.000Z</time>
      </trkpt>
      <trkpt lat="47.83109" lon="-3.40411">
        <ele>34</ele>
        <time>2021-11-25T10:02:44.000Z</time>
      </trkpt>
      <trkpt lat="47.83109" lon="-3.40412">
        <ele>34.1</ele>
        <time>2021-11-25T10:02:43.000Z</time>
      </trkpt>
      <trkpt lat="47.83107" lon="-3.40413">
        <ele>33.9</ele>
        <time>2021-11-25T10:02:40.000Z</time>
      </trkpt>
      <trkpt lat="47.83101" lon="-3.40419">
        <ele>33.8</ele>
        <time>2021-11-25T10:02:37.000Z</time>
      </trkpt>
      <trkpt lat="47.83089" lon="-3.40425">
        <ele>32.6</ele>
        <time>2021-11-25T10:02:34.000Z</time>
      </trkpt>
      <trkpt lat="47.83079" lon="-3.40435">
        <ele>32.2</ele>
        <time>2021-11-25T10:02:31.000Z</time>
      </trkpt>
      <trkpt lat="47.83071" lon="-3.40447">
        <ele>31.7</ele>
        <time>2021-11-25T10:02:28.000Z</time>
      </trkpt>
      <trkpt lat="47.83061" lon="-3.40461">
        <ele>30.8</ele>
        <time>2021-11-25T10:02:25.000Z</time>
      </trkpt>
      <trkpt lat="47.83052" lon="-3.40473">
        <ele>29.8</ele>
        <time>2021-11-25T10:02:22.000Z</time>
      </trkpt>
      <trkpt lat="47.83043" lon="-3.40487">
        <ele>29.7</ele>
        <time>2021-11-25T10:02:19.000Z</time>
      </trkpt>
      <trkpt lat="47.83035" lon="-3.40502">
        <ele>30.7</ele>
        <time>2021-11-25T10:02:16.000Z</time>
      </trkpt>
      <trkpt lat="47.83026" lon="-3.40516">
        <ele>30</ele>
        <time>2021-11-25T10:02:13.000Z</time>
      </trkpt>
      <trkpt lat="47.83017" lon="-3.40531">
        <ele>29.4</ele>
        <time>2021-11-25T10:02:10.000Z</time>
      </trkpt>
      <trkpt lat="47.83008" lon="-3.40546">
        <ele>29.6</ele>
        <time>2021-11-25T10:02:07.000Z</time>
      </trkpt>
      <trkpt lat="47.82999" lon="-3.40561">
        <ele>26.8</ele>
        <time>2021-11-25T10:02:04.000Z</time>
      </trkpt>
      <trkpt lat="47.82988" lon="-3.40576">
        <ele>27.9</ele>
        <time>2021-11-25T10:02:01.000Z</time>
      </trkpt>
      <trkpt lat="47.82978" lon="-3.40593">
        <ele>26.6</ele>
        <time>2021-11-25T10:01:58.000Z</time>
      </trkpt>
      <trkpt lat="47.82967" lon="-3.40609">
        <ele>26.5</ele>
        <time>2021-11-25T10:01:55.000Z</time>
      </trkpt>
      <trkpt lat="47.82955" lon="-3.40626">
        <ele>25.5</ele>
        <time>2021-11-25T10:01:52.000Z</time>
      </trkpt>
      <trkpt lat="47.82944" lon="-3.40641">
        <ele>26.2</ele>
        <time>2021-11-25T10:01:49.000Z</time>
      </trkpt>
      <trkpt lat="47.82933" lon="-3.40656">
        <ele>26.3</ele>
        <time>2021-11-25T10:01:46.000Z</time>
      </trkpt>
      <trkpt lat="47.82923" lon="-3.40672">
        <ele>25</ele>
        <time>2021-11-25T10:01:43.000Z</time>
      </trkpt>
      <trkpt lat="47.82913" lon="-3.40688">
        <ele>25.1</ele>
        <time>2021-11-25T10:01:40.000Z</time>
      </trkpt>
      <trkpt lat="47.82903" lon="-3.40704">
        <ele>25.6</ele>
        <time>2021-11-25T10:01:37.000Z</time>
      </trkpt>
      <trkpt lat="47.82893" lon="-3.4072">
        <ele>26</ele>
        <time>2021-11-25T10:01:34.000Z</time>
      </trkpt>
      <trkpt lat="47.82881" lon="-3.40737">
        <ele>26.9</ele>
        <time>2021-11-25T10:01:31.000Z</time>
      </trkpt>
      <trkpt lat="47.8287" lon="-3.40753">
        <ele>25.4</ele>
        <time>2021-11-25T10:01:28.000Z</time>
      </trkpt>
      <trkpt lat="47.8286" lon="-3.40768">
        <ele>24.2</ele>
        <time>2021-11-25T10:01:25.000Z</time>
      </trkpt>
      <trkpt lat="47.82849" lon="-3.40783">
        <ele>25.2</ele>
        <time>2021-11-25T10:01:22.000Z</time>
      </trkpt>
      <trkpt lat="47.82837" lon="-3.408">
        <ele>27.8</ele>
        <time>2021-11-25T10:01:19.000Z</time>
      </trkpt>
      <trkpt lat="47.82828" lon="-3.40812">
        <ele>26.2</ele>
        <time>2021-11-25T10:01:16.000Z</time>
      </trkpt>
      <trkpt lat="47.82819" lon="-3.40823">
        <ele>24.9</ele>
        <time>2021-11-25T10:01:13.000Z</time>
      </trkpt>
      <trkpt lat="47.82807" lon="-3.40833">
        <ele>25.3</ele>
        <time>2021-11-25T10:01:10.000Z</time>
      </trkpt>
      <trkpt lat="47.82794" lon="-3.40842">
        <ele>24.7</ele>
        <time>2021-11-25T10:01:07.000Z</time>
      </trkpt>
      <trkpt lat="47.82781" lon="-3.4085">
        <ele>24.8</ele>
        <time>2021-11-25T10:01:04.000Z</time>
      </trkpt>
      <trkpt lat="47.82767" lon="-3.40857">
        <ele>24.9</ele>
        <time>2021-11-25T10:01:01.000Z</time>
      </trkpt>
      <trkpt lat="47.82754" lon="-3.40864">
        <ele>23.8</ele>
        <time>2021-11-25T10:00:58.000Z</time>
      </trkpt>
      <trkpt lat="47.82741" lon="-3.40871">
        <ele>24.7</ele>
        <time>2021-11-25T10:00:55.000Z</time>
      </trkpt>
      <trkpt lat="47.82726" lon="-3.40878">
        <ele>23.3</ele>
        <time>2021-11-25T10:00:52.000Z</time>
      </trkpt>
      <trkpt lat="47.82714" lon="-3.40884">
        <ele>23.9</ele>
        <time>2021-11-25T10:00:49.000Z</time>
      </trkpt>
      <trkpt lat="47.82703" lon="-3.40891">
        <ele>22</ele>
        <time>2021-11-25T10:00:46.000Z</time>
      </trkpt>
      <trkpt lat="47.82691" lon="-3.40897">
        <ele>21.6</ele>
        <time>2021-11-25T10:00:43.000Z</time>
      </trkpt>
      <trkpt lat="47.82679" lon="-3.40903">
        <ele>21.3</ele>
        <time>2021-11-25T10:00:40.000Z</time>
      </trkpt>
      <trkpt lat="47.82667" lon="-3.40908">
        <ele>22.1</ele>
        <time>2021-11-25T10:00:37.000Z</time>
      </trkpt>
      <trkpt lat="47.82655" lon="-3.40914">
        <ele>22.1</ele>
        <time>2021-11-25T10:00:34.000Z</time>
      </trkpt>
      <trkpt lat="47.8264" lon="-3.4092">
        <ele>20.6</ele>
        <time>2021-11-25T10:00:31.000Z</time>
      </trkpt>
      <trkpt lat="47.82626" lon="-3.40926">
        <ele>19.6</ele>
        <time>2021-11-25T10:00:28.000Z</time>
      </trkpt>
      <trkpt lat="47.82613" lon="-3.40933">
        <ele>19.8</ele>
        <time>2021-11-25T10:00:25.000Z</time>
      </trkpt>
      <trkpt lat="47.826" lon="-3.40939">
        <ele>20</ele>
        <time>2021-11-25T10:00:22.000Z</time>
      </trkpt>
      <trkpt lat="47.82587" lon="-3.40945">
        <ele>19.2</ele>
        <time>2021-11-25T10:00:19.000Z</time>
      </trkpt>
      <trkpt lat="47.82574" lon="-3.4095">
        <ele>18.3</ele>
        <time>2021-11-25T10:00:16.000Z</time>
      </trkpt>
      <trkpt lat="47.82563" lon="-3.40957">
        <ele>16.9</ele>
        <time>2021-11-25T10:00:13.000Z</time>
      </trkpt>
      <trkpt lat="47.82547" lon="-3.40965">
        <ele>16.3</ele>
        <time>2021-11-25T10:00:10.000Z</time>
      </trkpt>
      <trkpt lat="47.8253" lon="-3.40972">
        <ele>17.6</ele>
        <time>2021-11-25T10:00:07.000Z</time>
      </trkpt>
      <trkpt lat="47.82513" lon="-3.4098">
        <ele>17.7</ele>
        <time>2021-11-25T10:00:04.000Z</time>
      </trkpt>
      <trkpt lat="47.82496" lon="-3.40988">
        <ele>18.2</ele>
        <time>2021-11-25T10:00:01.000Z</time>
      </trkpt>
      <trkpt lat="47.82481" lon="-3.40995">
        <ele>17.9</ele>
        <time>2021-11-25T09:59:58.000Z</time>
      </trkpt>
      <trkpt lat="47.82464" lon="-3.41003">
        <ele>17.1</ele>
        <time>2021-11-25T09:59:55.000Z</time>
      </trkpt>
      <trkpt lat="47.82448" lon="-3.41008">
        <ele>18.4</ele>
        <time>2021-11-25T09:59:52.000Z</time>
      </trkpt>
      <trkpt lat="47.82432" lon="-3.41015">
        <ele>17.1</ele>
        <time>2021-11-25T09:59:49.000Z</time>
      </trkpt>
      <trkpt lat="47.82417" lon="-3.41022">
        <ele>18.5</ele>
        <time>2021-11-25T09:59:46.000Z</time>
      </trkpt>
      <trkpt lat="47.824" lon="-3.41029">
        <ele>17.3</ele>
        <time>2021-11-25T09:59:43.000Z</time>
      </trkpt>
      <trkpt lat="47.82385" lon="-3.41034">
        <ele>17.5</ele>
        <time>2021-11-25T09:59:40.000Z</time>
      </trkpt>
      <trkpt lat="47.82371" lon="-3.4104">
        <ele>17.4</ele>
        <time>2021-11-25T09:59:37.000Z</time>
      </trkpt>
      <trkpt lat="47.82358" lon="-3.41041">
        <ele>15.9</ele>
        <time>2021-11-25T09:59:34.000Z</time>
      </trkpt>
      <trkpt lat="47.82344" lon="-3.41038">
        <ele>17.7</ele>
        <time>2021-11-25T09:59:31.000Z</time>
      </trkpt>
      <trkpt lat="47.8233" lon="-3.41032">
        <ele>18</ele>
        <time>2021-11-25T09:59:28.000Z</time>
      </trkpt>
      <trkpt lat="47.82315" lon="-3.41022">
        <ele>16.6</ele>
        <time>2021-11-25T09:59:25.000Z</time>
      </trkpt>
      <trkpt lat="47.82302" lon="-3.41008">
        <ele>16.9</ele>
        <time>2021-11-25T09:59:22.000Z</time>
      </trkpt>
      <trkpt lat="47.82289" lon="-3.40995">
        <ele>16.7</ele>
        <time>2021-11-25T09:59:19.000Z</time>
      </trkpt>
      <trkpt lat="47.82275" lon="-3.40982">
        <ele>16.4</ele>
        <time>2021-11-25T09:59:16.000Z</time>
      </trkpt>
      <trkpt lat="47.82261" lon="-3.40967">
        <ele>16.3</ele>
        <time>2021-11-25T09:59:13.000Z</time>
      </trkpt>
      <trkpt lat="47.82248" lon="-3.40953">
        <ele>17.6</ele>
        <time>2021-11-25T09:59:10.000Z</time>
      </trkpt>
      <trkpt lat="47.82235" lon="-3.40938">
        <ele>18.3</ele>
        <time>2021-11-25T09:59:07.000Z</time>
      </trkpt>
      <trkpt lat="47.82221" lon="-3.40925">
        <ele>18.5</ele>
        <time>2021-11-25T09:59:04.000Z</time>
      </trkpt>
      <trkpt lat="47.82208" lon="-3.40912">
        <ele>18.9</ele>
        <time>2021-11-25T09:59:01.000Z</time>
      </trkpt>
      <trkpt lat="47.82194" lon="-3.40898">
        <ele>17.8</ele>
        <time>2021-11-25T09:58:58.000Z</time>
      </trkpt>
      <trkpt lat="47.82181" lon="-3.40882">
        <ele>17.4</ele>
        <time>2021-11-25T09:58:55.000Z</time>
      </trkpt>
      <trkpt lat="47.82167" lon="-3.40866">
        <ele>18.5</ele>
        <time>2021-11-25T09:58:52.000Z</time>
      </trkpt>
      <trkpt lat="47.82152" lon="-3.4085">
        <ele>18.5</ele>
        <time>2021-11-25T09:58:49.000Z</time>
      </trkpt>
      <trkpt lat="47.82136" lon="-3.40834">
        <ele>19.4</ele>
        <time>2021-11-25T09:58:46.000Z</time>
      </trkpt>
      <trkpt lat="47.82119" lon="-3.40819">
        <ele>19</ele>
        <time>2021-11-25T09:58:43.000Z</time>
      </trkpt>
      <trkpt lat="47.82101" lon="-3.40805">
        <ele>19.7</ele>
        <time>2021-11-25T09:58:40.000Z</time>
      </trkpt>
      <trkpt lat="47.82085" lon="-3.40792">
        <ele>20.7</ele>
        <time>2021-11-25T09:58:37.000Z</time>
      </trkpt>
      <trkpt lat="47.82069" lon="-3.40779">
        <ele>20.8</ele>
        <time>2021-11-25T09:58:34.000Z</time>
      </trkpt>
      <trkpt lat="47.82053" lon="-3.40765">
        <ele>20.7</ele>
        <time>2021-11-25T09:58:31.000Z</time>
      </trkpt>
      <trkpt lat="47.82038" lon="-3.40753">
        <ele>22</ele>
        <time>2021-11-25T09:58:28.000Z</time>
      </trkpt>
      <trkpt lat="47.82021" lon="-3.40742">
        <ele>21.9</ele>
        <time>2021-11-25T09:58:25.000Z</time>
      </trkpt>
      <trkpt lat="47.82004" lon="-3.40731">
        <ele>23.6</ele>
        <time>2021-11-25T09:58:22.000Z</time>
      </trkpt>
      <trkpt lat="47.81991" lon="-3.40725">
        <ele>24.2</ele>
        <time>2021-11-25T09:58:19.000Z</time>
      </trkpt>
      <trkpt lat="47.81973" lon="-3.40715">
        <ele>23.6</ele>
        <time>2021-11-25T09:58:16.000Z</time>
      </trkpt>
      <trkpt lat="47.8196" lon="-3.40709">
        <ele>23.4</ele>
        <time>2021-11-25T09:58:13.000Z</time>
      </trkpt>
      <trkpt lat="47.81945" lon="-3.40702">
        <ele>24.5</ele>
        <time>2021-11-25T09:58:10.000Z</time>
      </trkpt>
      <trkpt lat="47.8193" lon="-3.40698">
        <ele>26.4</ele>
        <time>2021-11-25T09:58:07.000Z</time>
      </trkpt>
      <trkpt lat="47.81913" lon="-3.40698">
        <ele>25.2</ele>
        <time>2021-11-25T09:58:04.000Z</time>
      </trkpt>
      <trkpt lat="47.819" lon="-3.40696">
        <ele>27</ele>
        <time>2021-11-25T09:58:01.000Z</time>
      </trkpt>
      <trkpt lat="47.81883" lon="-3.40697">
        <ele>28.4</ele>
        <time>2021-11-25T09:57:58.000Z</time>
      </trkpt>
      <trkpt lat="47.81862" lon="-3.4069">
        <ele>25.4</ele>
        <time>2021-11-25T09:57:55.000Z</time>
      </trkpt>
      <trkpt lat="47.81846" lon="-3.40671">
        <ele>26.1</ele>
        <time>2021-11-25T09:57:52.000Z</time>
      </trkpt>
      <trkpt lat="47.81833" lon="-3.40673">
        <ele>27.9</ele>
        <time>2021-11-25T09:57:48.000Z</time>
      </trkpt>
      <trkpt lat="47.81819" lon="-3.40671">
        <ele>28.9</ele>
        <time>2021-11-25T09:57:45.000Z</time>
      </trkpt>
      <trkpt lat="47.81802" lon="-3.40665">
        <ele>28.6</ele>
        <time>2021-11-25T09:57:42.000Z</time>
      </trkpt>
      <trkpt lat="47.81784" lon="-3.40662">
        <ele>31.1</ele>
        <time>2021-11-25T09:57:39.000Z</time>
      </trkpt>
      <trkpt lat="47.81766" lon="-3.40661">
        <ele>30.4</ele>
        <time>2021-11-25T09:57:36.000Z</time>
      </trkpt>
      <trkpt lat="47.81747" lon="-3.40658">
        <ele>30.5</ele>
        <time>2021-11-25T09:57:33.000Z</time>
      </trkpt>
      <trkpt lat="47.8173" lon="-3.40659">
        <ele>31.1</ele>
        <time>2021-11-25T09:57:30.000Z</time>
      </trkpt>
      <trkpt lat="47.81714" lon="-3.40659">
        <ele>32.5</ele>
        <time>2021-11-25T09:57:27.000Z</time>
      </trkpt>
      <trkpt lat="47.81699" lon="-3.40658">
        <ele>31.8</ele>
        <time>2021-11-25T09:57:24.000Z</time>
      </trkpt>
      <trkpt lat="47.81684" lon="-3.40662">
        <ele>32.6</ele>
        <time>2021-11-25T09:57:21.000Z</time>
      </trkpt>
      <trkpt lat="47.81669" lon="-3.40665">
        <ele>35.7</ele>
        <time>2021-11-25T09:57:18.000Z</time>
      </trkpt>
      <trkpt lat="47.81655" lon="-3.40671">
        <ele>35.8</ele>
        <time>2021-11-25T09:57:15.000Z</time>
      </trkpt>
      <trkpt lat="47.81642" lon="-3.40675">
        <ele>35.3</ele>
        <time>2021-11-25T09:57:12.000Z</time>
      </trkpt>
      <trkpt lat="47.81628" lon="-3.4068">
        <ele>34.1</ele>
        <time>2021-11-25T09:57:09.000Z</time>
      </trkpt>
      <trkpt lat="47.81614" lon="-3.40686">
        <ele>34.7</ele>
        <time>2021-11-25T09:57:06.000Z</time>
      </trkpt>
      <trkpt lat="47.81597" lon="-3.40692">
        <ele>34.7</ele>
        <time>2021-11-25T09:57:03.000Z</time>
      </trkpt>
      <trkpt lat="47.81582" lon="-3.40697">
        <ele>34.7</ele>
        <time>2021-11-25T09:57:00.000Z</time>
      </trkpt>
      <trkpt lat="47.81569" lon="-3.40703">
        <ele>35.2</ele>
        <time>2021-11-25T09:56:57.000Z</time>
      </trkpt>
      <trkpt lat="47.81557" lon="-3.40707">
        <ele>34.7</ele>
        <time>2021-11-25T09:56:54.000Z</time>
      </trkpt>
      <trkpt lat="47.81546" lon="-3.40713">
        <ele>34.4</ele>
        <time>2021-11-25T09:56:51.000Z</time>
      </trkpt>
      <trkpt lat="47.81534" lon="-3.40717">
        <ele>34.2</ele>
        <time>2021-11-25T09:56:48.000Z</time>
      </trkpt>
      <trkpt lat="47.81522" lon="-3.40721">
        <ele>33.7</ele>
        <time>2021-11-25T09:56:45.000Z</time>
      </trkpt>
      <trkpt lat="47.8151" lon="-3.40726">
        <ele>33.2</ele>
        <time>2021-11-25T09:56:42.000Z</time>
      </trkpt>
      <trkpt lat="47.81498" lon="-3.4073">
        <ele>33</ele>
        <time>2021-11-25T09:56:39.000Z</time>
      </trkpt>
      <trkpt lat="47.81484" lon="-3.40734">
        <ele>33.9</ele>
        <time>2021-11-25T09:56:36.000Z</time>
      </trkpt>
      <trkpt lat="47.81471" lon="-3.40737">
        <ele>32.8</ele>
        <time>2021-11-25T09:56:33.000Z</time>
      </trkpt>
      <trkpt lat="47.81458" lon="-3.4074">
        <ele>32</ele>
        <time>2021-11-25T09:56:30.000Z</time>
      </trkpt>
      <trkpt lat="47.8145" lon="-3.40745">
        <ele>31.2</ele>
        <time>2021-11-25T09:56:27.000Z</time>
      </trkpt>
      <trkpt lat="47.81438" lon="-3.40749">
        <ele>30.8</ele>
        <time>2021-11-25T09:56:24.000Z</time>
      </trkpt>
      <trkpt lat="47.81425" lon="-3.40754">
        <ele>31.1</ele>
        <time>2021-11-25T09:56:21.000Z</time>
      </trkpt>
      <trkpt lat="47.81412" lon="-3.40758">
        <ele>30.3</ele>
        <time>2021-11-25T09:56:18.000Z</time>
      </trkpt>
      <trkpt lat="47.81399" lon="-3.40761">
        <ele>31.1</ele>
        <time>2021-11-25T09:56:15.000Z</time>
      </trkpt>
      <trkpt lat="47.81388" lon="-3.40759">
        <ele>30.9</ele>
        <time>2021-11-25T09:56:12.000Z</time>
      </trkpt>
      <trkpt lat="47.8138" lon="-3.4076">
        <ele>31.6</ele>
        <time>2021-11-25T09:56:09.000Z</time>
      </trkpt>
      <trkpt lat="47.81373" lon="-3.40762">
        <ele>30.3</ele>
        <time>2021-11-25T09:56:06.000Z</time>
      </trkpt>
      <trkpt lat="47.81363" lon="-3.40761">
        <ele>29.1</ele>
        <time>2021-11-25T09:56:03.000Z</time>
      </trkpt>
      <trkpt lat="47.81353" lon="-3.4076">
        <ele>26.9</ele>
        <time>2021-11-25T09:56:00.000Z</time>
      </trkpt>
      <trkpt lat="47.8134" lon="-3.4076">
        <ele>27.1</ele>
        <time>2021-11-25T09:55:57.000Z</time>
      </trkpt>
      <trkpt lat="47.81327" lon="-3.40761">
        <ele>26.8</ele>
        <time>2021-11-25T09:55:54.000Z</time>
      </trkpt>
      <trkpt lat="47.81314" lon="-3.40763">
        <ele>27</ele>
        <time>2021-11-25T09:55:51.000Z</time>
      </trkpt>
      <trkpt lat="47.81301" lon="-3.40765">
        <ele>26.4</ele>
        <time>2021-11-25T09:55:48.000Z</time>
      </trkpt>
      <trkpt lat="47.81286" lon="-3.40767">
        <ele>26.9</ele>
        <time>2021-11-25T09:55:45.000Z</time>
      </trkpt>
      <trkpt lat="47.81273" lon="-3.40771">
        <ele>27</ele>
        <time>2021-11-25T09:55:42.000Z</time>
      </trkpt>
      <trkpt lat="47.81262" lon="-3.40775">
        <ele>27.7</ele>
        <time>2021-11-25T09:55:39.000Z</time>
      </trkpt>
      <trkpt lat="47.81251" lon="-3.4078">
        <ele>27</ele>
        <time>2021-11-25T09:55:36.000Z</time>
      </trkpt>
      <trkpt lat="47.81243" lon="-3.40785">
        <ele>27.2</ele>
        <time>2021-11-25T09:55:33.000Z</time>
      </trkpt>
      <trkpt lat="47.81235" lon="-3.40798">
        <ele>26</ele>
        <time>2021-11-25T09:55:30.000Z</time>
      </trkpt>
      <trkpt lat="47.81223" lon="-3.40811">
        <ele>25.5</ele>
        <time>2021-11-25T09:55:27.000Z</time>
      </trkpt>
      <trkpt lat="47.81213" lon="-3.40826">
        <ele>25.1</ele>
        <time>2021-11-25T09:55:24.000Z</time>
      </trkpt>
      <trkpt lat="47.81205" lon="-3.40839">
        <ele>25.5</ele>
        <time>2021-11-25T09:55:21.000Z</time>
      </trkpt>
      <trkpt lat="47.81197" lon="-3.40852">
        <ele>26.2</ele>
        <time>2021-11-25T09:55:18.000Z</time>
      </trkpt>
      <trkpt lat="47.81188" lon="-3.40867">
        <ele>25.4</ele>
        <time>2021-11-25T09:55:15.000Z</time>
      </trkpt>
      <trkpt lat="47.81179" lon="-3.40881">
        <ele>24.2</ele>
        <time>2021-11-25T09:55:12.000Z</time>
      </trkpt>
      <trkpt lat="47.81169" lon="-3.40891">
        <ele>23.6</ele>
        <time>2021-11-25T09:55:09.000Z</time>
      </trkpt>
      <trkpt lat="47.81157" lon="-3.40903">
        <ele>23.7</ele>
        <time>2021-11-25T09:55:06.000Z</time>
      </trkpt>
      <trkpt lat="47.81145" lon="-3.40913">
        <ele>23</ele>
        <time>2021-11-25T09:55:03.000Z</time>
      </trkpt>
      <trkpt lat="47.81134" lon="-3.40923">
        <ele>23.5</ele>
        <time>2021-11-25T09:55:00.000Z</time>
      </trkpt>
      <trkpt lat="47.81123" lon="-3.40935">
        <ele>22.2</ele>
        <time>2021-11-25T09:54:57.000Z</time>
      </trkpt>
      <trkpt lat="47.81111" lon="-3.40945">
        <ele>20.1</ele>
        <time>2021-11-25T09:54:54.000Z</time>
      </trkpt>
      <trkpt lat="47.81098" lon="-3.40957">
        <ele>21.8</ele>
        <time>2021-11-25T09:54:51.000Z</time>
      </trkpt>
      <trkpt lat="47.81083" lon="-3.40969">
        <ele>20.2</ele>
        <time>2021-11-25T09:54:48.000Z</time>
      </trkpt>
      <trkpt lat="47.81071" lon="-3.4098">
        <ele>19.1</ele>
        <time>2021-11-25T09:54:45.000Z</time>
      </trkpt>
      <trkpt lat="47.81058" lon="-3.4099">
        <ele>19.4</ele>
        <time>2021-11-25T09:54:42.000Z</time>
      </trkpt>
      <trkpt lat="47.81045" lon="-3.41001">
        <ele>19.4</ele>
        <time>2021-11-25T09:54:39.000Z</time>
      </trkpt>
      <trkpt lat="47.8103" lon="-3.41014">
        <ele>17.3</ele>
        <time>2021-11-25T09:54:36.000Z</time>
      </trkpt>
      <trkpt lat="47.81015" lon="-3.41025">
        <ele>15.6</ele>
        <time>2021-11-25T09:54:33.000Z</time>
      </trkpt>
      <trkpt lat="47.81" lon="-3.41037">
        <ele>17.7</ele>
        <time>2021-11-25T09:54:30.000Z</time>
      </trkpt>
      <trkpt lat="47.80988" lon="-3.41048">
        <ele>17.1</ele>
        <time>2021-11-25T09:54:27.000Z</time>
      </trkpt>
      <trkpt lat="47.80975" lon="-3.41059">
        <ele>17.8</ele>
        <time>2021-11-25T09:54:24.000Z</time>
      </trkpt>
      <trkpt lat="47.80961" lon="-3.41073">
        <ele>16.7</ele>
        <time>2021-11-25T09:54:21.000Z</time>
      </trkpt>
      <trkpt lat="47.80945" lon="-3.41087">
        <ele>17.3</ele>
        <time>2021-11-25T09:54:18.000Z</time>
      </trkpt>
      <trkpt lat="47.80931" lon="-3.41102">
        <ele>15.9</ele>
        <time>2021-11-25T09:54:15.000Z</time>
      </trkpt>
      <trkpt lat="47.80914" lon="-3.41116">
        <ele>16.9</ele>
        <time>2021-11-25T09:54:12.000Z</time>
      </trkpt>
      <trkpt lat="47.80896" lon="-3.41134">
        <ele>16</ele>
        <time>2021-11-25T09:54:09.000Z</time>
      </trkpt>
      <trkpt lat="47.80876" lon="-3.41147">
        <ele>17.2</ele>
        <time>2021-11-25T09:54:06.000Z</time>
      </trkpt>
      <trkpt lat="47.80856" lon="-3.41155">
        <ele>16.1</ele>
        <time>2021-11-25T09:54:03.000Z</time>
      </trkpt>
      <trkpt lat="47.80835" lon="-3.4116">
        <ele>16.3</ele>
        <time>2021-11-25T09:54:00.000Z</time>
      </trkpt>
      <trkpt lat="47.80813" lon="-3.41159">
        <ele>16.4</ele>
        <time>2021-11-25T09:53:57.000Z</time>
      </trkpt>
      <trkpt lat="47.80791" lon="-3.41155">
        <ele>16.7</ele>
        <time>2021-11-25T09:53:54.000Z</time>
      </trkpt>
      <trkpt lat="47.80769" lon="-3.41151">
        <ele>18.6</ele>
        <time>2021-11-25T09:53:51.000Z</time>
      </trkpt>
      <trkpt lat="47.80748" lon="-3.41146">
        <ele>20</ele>
        <time>2021-11-25T09:53:48.000Z</time>
      </trkpt>
      <trkpt lat="47.80725" lon="-3.4114">
        <ele>21.8</ele>
        <time>2021-11-25T09:53:45.000Z</time>
      </trkpt>
      <trkpt lat="47.80701" lon="-3.41134">
        <ele>20.7</ele>
        <time>2021-11-25T09:53:42.000Z</time>
      </trkpt>
      <trkpt lat="47.80676" lon="-3.41133">
        <ele>21</ele>
        <time>2021-11-25T09:53:39.000Z</time>
      </trkpt>
      <trkpt lat="47.80652" lon="-3.41134">
        <ele>21.7</ele>
        <time>2021-11-25T09:53:36.000Z</time>
      </trkpt>
      <trkpt lat="47.80631" lon="-3.41139">
        <ele>24.1</ele>
        <time>2021-11-25T09:53:33.000Z</time>
      </trkpt>
      <trkpt lat="47.8061" lon="-3.41146">
        <ele>24.3</ele>
        <time>2021-11-25T09:53:30.000Z</time>
      </trkpt>
      <trkpt lat="47.8059" lon="-3.41154">
        <ele>24.1</ele>
        <time>2021-11-25T09:53:27.000Z</time>
      </trkpt>
      <trkpt lat="47.80569" lon="-3.41163">
        <ele>24.1</ele>
        <time>2021-11-25T09:53:24.000Z</time>
      </trkpt>
      <trkpt lat="47.80547" lon="-3.41171">
        <ele>24</ele>
        <time>2021-11-25T09:53:21.000Z</time>
      </trkpt>
      <trkpt lat="47.80525" lon="-3.41179">
        <ele>24</ele>
        <time>2021-11-25T09:53:18.000Z</time>
      </trkpt>
      <trkpt lat="47.80501" lon="-3.41187">
        <ele>26.1</ele>
        <time>2021-11-25T09:53:15.000Z</time>
      </trkpt>
      <trkpt lat="47.80478" lon="-3.41195">
        <ele>25.6</ele>
        <time>2021-11-25T09:53:12.000Z</time>
      </trkpt>
      <trkpt lat="47.80454" lon="-3.41205">
        <ele>28.3</ele>
        <time>2021-11-25T09:53:09.000Z</time>
      </trkpt>
      <trkpt lat="47.80431" lon="-3.41213">
        <ele>28.8</ele>
        <time>2021-11-25T09:53:06.000Z</time>
      </trkpt>
      <trkpt lat="47.80409" lon="-3.4122">
        <ele>28.9</ele>
        <time>2021-11-25T09:53:03.000Z</time>
      </trkpt>
      <trkpt lat="47.80388" lon="-3.41227">
        <ele>29.7</ele>
        <time>2021-11-25T09:53:00.000Z</time>
      </trkpt>
      <trkpt lat="47.80368" lon="-3.41235">
        <ele>30.3</ele>
        <time>2021-11-25T09:52:57.000Z</time>
      </trkpt>
      <trkpt lat="47.80348" lon="-3.41241">
        <ele>30.7</ele>
        <time>2021-11-25T09:52:54.000Z</time>
      </trkpt>
      <trkpt lat="47.80329" lon="-3.41247">
        <ele>32.4</ele>
        <time>2021-11-25T09:52:51.000Z</time>
      </trkpt>
      <trkpt lat="47.8031" lon="-3.4125">
        <ele>31.2</ele>
        <time>2021-11-25T09:52:48.000Z</time>
      </trkpt>
      <trkpt lat="47.8029" lon="-3.41251">
        <ele>32.8</ele>
        <time>2021-11-25T09:52:45.000Z</time>
      </trkpt>
      <trkpt lat="47.80272" lon="-3.41249">
        <ele>32.7</ele>
        <time>2021-11-25T09:52:42.000Z</time>
      </trkpt>
      <trkpt lat="47.80256" lon="-3.41244">
        <ele>33.5</ele>
        <time>2021-11-25T09:52:39.000Z</time>
      </trkpt>
      <trkpt lat="47.80242" lon="-3.41237">
        <ele>35.2</ele>
        <time>2021-11-25T09:52:36.000Z</time>
      </trkpt>
      <trkpt lat="47.80226" lon="-3.41231">
        <ele>34.9</ele>
        <time>2021-11-25T09:52:33.000Z</time>
      </trkpt>
      <trkpt lat="47.80211" lon="-3.41223">
        <ele>33.4</ele>
        <time>2021-11-25T09:52:30.000Z</time>
      </trkpt>
      <trkpt lat="47.80196" lon="-3.41217">
        <ele>34</ele>
        <time>2021-11-25T09:52:27.000Z</time>
      </trkpt>
      <trkpt lat="47.80183" lon="-3.4121">
        <ele>34.8</ele>
        <time>2021-11-25T09:52:24.000Z</time>
      </trkpt>
      <trkpt lat="47.80172" lon="-3.41207">
        <ele>36.1</ele>
        <time>2021-11-25T09:52:21.000Z</time>
      </trkpt>
      <trkpt lat="47.80165" lon="-3.41216">
        <ele>35.8</ele>
        <time>2021-11-25T09:52:18.000Z</time>
      </trkpt>
      <trkpt lat="47.80162" lon="-3.41224">
        <ele>37.4</ele>
        <time>2021-11-25T09:52:15.000Z</time>
      </trkpt>
      <trkpt lat="47.80159" lon="-3.41232">
        <ele>38.7</ele>
        <time>2021-11-25T09:52:12.000Z</time>
      </trkpt>
      <trkpt lat="47.80154" lon="-3.41234">
        <ele>36.5</ele>
        <time>2021-11-25T09:52:09.000Z</time>
      </trkpt>
      <trkpt lat="47.80145" lon="-3.41234">
        <ele>39.9</ele>
        <time>2021-11-25T09:52:06.000Z</time>
      </trkpt>
      <trkpt lat="47.80137" lon="-3.41232">
        <ele>41.7</ele>
        <time>2021-11-25T09:52:03.000Z</time>
      </trkpt>
      <trkpt lat="47.80126" lon="-3.41228">
        <ele>40.8</ele>
        <time>2021-11-25T09:52:00.000Z</time>
      </trkpt>
      <trkpt lat="47.80115" lon="-3.41225">
        <ele>40.5</ele>
        <time>2021-11-25T09:51:57.000Z</time>
      </trkpt>
      <trkpt lat="47.80105" lon="-3.41227">
        <ele>40.8</ele>
        <time>2021-11-25T09:51:54.000Z</time>
      </trkpt>
      <trkpt lat="47.80096" lon="-3.41229">
        <ele>40.7</ele>
        <time>2021-11-25T09:51:51.000Z</time>
      </trkpt>
      <trkpt lat="47.80089" lon="-3.41231">
        <ele>41.4</ele>
        <time>2021-11-25T09:51:48.000Z</time>
      </trkpt>
      <trkpt lat="47.80084" lon="-3.41244">
        <ele>41.3</ele>
        <time>2021-11-25T09:51:45.000Z</time>
      </trkpt>
      <trkpt lat="47.80083" lon="-3.41265">
        <ele>43.4</ele>
        <time>2021-11-25T09:51:42.000Z</time>
      </trkpt>
      <trkpt lat="47.80081" lon="-3.41287">
        <ele>44.3</ele>
        <time>2021-11-25T09:51:39.000Z</time>
      </trkpt>
      <trkpt lat="47.80083" lon="-3.41302">
        <ele>44.2</ele>
        <time>2021-11-25T09:51:36.000Z</time>
      </trkpt>
      <trkpt lat="47.80086" lon="-3.4131">
        <ele>44.2</ele>
        <time>2021-11-25T09:51:33.000Z</time>
      </trkpt>
      <trkpt lat="47.8009" lon="-3.41318">
        <ele>44.6</ele>
        <time>2021-11-25T09:51:30.000Z</time>
      </trkpt>
      <trkpt lat="47.80092" lon="-3.41329">
        <ele>42.2</ele>
        <time>2021-11-25T09:51:27.000Z</time>
      </trkpt>
      <trkpt lat="47.80092" lon="-3.41339">
        <ele>43.1</ele>
        <time>2021-11-25T09:51:24.000Z</time>
      </trkpt>
      <trkpt lat="47.80093" lon="-3.41348">
        <ele>42.4</ele>
        <time>2021-11-25T09:51:21.000Z</time>
      </trkpt>
      <trkpt lat="47.80089" lon="-3.41361">
        <ele>42.5</ele>
        <time>2021-11-25T09:51:18.000Z</time>
      </trkpt>
      <trkpt lat="47.80085" lon="-3.41375">
        <ele>42.5</ele>
        <time>2021-11-25T09:51:15.000Z</time>
      </trkpt>
      <trkpt lat="47.80079" lon="-3.41389">
        <ele>40.9</ele>
        <time>2021-11-25T09:51:12.000Z</time>
      </trkpt>
      <trkpt lat="47.8007" lon="-3.41396">
        <ele>40.7</ele>
        <time>2021-11-25T09:51:09.000Z</time>
      </trkpt>
      <trkpt lat="47.80061" lon="-3.41399">
        <ele>41.7</ele>
        <time>2021-11-25T09:51:06.000Z</time>
      </trkpt>
      <trkpt lat="47.80055" lon="-3.41406">
        <ele>41.6</ele>
        <time>2021-11-25T09:51:03.000Z</time>
      </trkpt>
      <trkpt lat="47.80048" lon="-3.41419">
        <ele>40.5</ele>
        <time>2021-11-25T09:51:00.000Z</time>
      </trkpt>
      <trkpt lat="47.80043" lon="-3.41433">
        <ele>40.5</ele>
        <time>2021-11-25T09:50:57.000Z</time>
      </trkpt>
      <trkpt lat="47.80037" lon="-3.41445">
        <ele>40.7</ele>
        <time>2021-11-25T09:50:54.000Z</time>
      </trkpt>
      <trkpt lat="47.8003" lon="-3.4146">
        <ele>38.9</ele>
        <time>2021-11-25T09:50:51.000Z</time>
      </trkpt>
      <trkpt lat="47.80022" lon="-3.41465">
        <ele>41.3</ele>
        <time>2021-11-25T09:50:48.000Z</time>
      </trkpt>
      <trkpt lat="47.80017" lon="-3.41457">
        <ele>40.9</ele>
        <time>2021-11-25T09:50:45.000Z</time>
      </trkpt>
      <trkpt lat="47.80009" lon="-3.41452">
        <ele>41.2</ele>
        <time>2021-11-25T09:50:42.000Z</time>
      </trkpt>
      <trkpt lat="47.79999" lon="-3.41456">
        <ele>38.8</ele>
        <time>2021-11-25T09:50:39.000Z</time>
      </trkpt>
      <trkpt lat="47.79993" lon="-3.41458">
        <ele>40.5</ele>
        <time>2021-11-25T09:50:36.000Z</time>
      </trkpt>
      <trkpt lat="47.79987" lon="-3.41465">
        <ele>38.6</ele>
        <time>2021-11-25T09:50:33.000Z</time>
      </trkpt>
      <trkpt lat="47.79986" lon="-3.41476">
        <ele>38.6</ele>
        <time>2021-11-25T09:50:30.000Z</time>
      </trkpt>
      <trkpt lat="47.79982" lon="-3.41482">
        <ele>38.6</ele>
        <time>2021-11-25T09:50:27.000Z</time>
      </trkpt>
      <trkpt lat="47.79981" lon="-3.41484">
        <ele>39</ele>
        <time>2021-11-25T09:50:24.000Z</time>
      </trkpt>
      <trkpt lat="47.79981" lon="-3.41485">
        <ele>38.9</ele>
        <time>2021-11-25T09:50:22.000Z</time>
      </trkpt>
      <trkpt lat="47.79981" lon="-3.41485">
        <ele>38.7</ele>
        <time>2021-11-25T09:50:21.000Z</time>
      </trkpt>
      <trkpt lat="47.79981" lon="-3.41485">
        <ele>38.6</ele>
        <time>2021-11-25T09:50:18.000Z</time>
      </trkpt>
      <trkpt lat="47.79981" lon="-3.41484">
        <ele>38.5</ele>
        <time>2021-11-25T09:50:15.000Z</time>
      </trkpt>
      <trkpt lat="47.79982" lon="-3.41485">
        <ele>38.7</ele>
        <time>2021-11-25T09:50:12.000Z</time>
      </trkpt>
      <trkpt lat="47.7998" lon="-3.41482">
        <ele>38.6</ele>
        <time>2021-11-25T09:50:09.000Z</time>
      </trkpt>
      <trkpt lat="47.79972" lon="-3.4147">
        <ele>38.6</ele>
        <time>2021-11-25T09:50:06.000Z</time>
      </trkpt>
      <trkpt lat="47.79964" lon="-3.41458">
        <ele>37.4</ele>
        <time>2021-11-25T09:50:03.000Z</time>
      </trkpt>
      <trkpt lat="47.79952" lon="-3.41449">
        <ele>37</ele>
        <time>2021-11-25T09:50:00.000Z</time>
      </trkpt>
      <trkpt lat="47.7994" lon="-3.41459">
        <ele>37.4</ele>
        <time>2021-11-25T09:49:57.000Z</time>
      </trkpt>
      <trkpt lat="47.79935" lon="-3.41473">
        <ele>37.6</ele>
        <time>2021-11-25T09:49:54.000Z</time>
      </trkpt>
      <trkpt lat="47.79927" lon="-3.41477">
        <ele>38.2</ele>
        <time>2021-11-25T09:49:51.000Z</time>
      </trkpt>
      <trkpt lat="47.79917" lon="-3.41488">
        <ele>36.9</ele>
        <time>2021-11-25T09:49:48.000Z</time>
      </trkpt>
      <trkpt lat="47.79902" lon="-3.41508">
        <ele>34.9</ele>
        <time>2021-11-25T09:49:45.000Z</time>
      </trkpt>
      <trkpt lat="47.79888" lon="-3.4153">
        <ele>39</ele>
        <time>2021-11-25T09:49:42.000Z</time>
      </trkpt>
      <trkpt lat="47.79875" lon="-3.41553">
        <ele>40.2</ele>
        <time>2021-11-25T09:49:39.000Z</time>
      </trkpt>
      <trkpt lat="47.79862" lon="-3.41573">
        <ele>37.5</ele>
        <time>2021-11-25T09:49:36.000Z</time>
      </trkpt>
      <trkpt lat="47.7985" lon="-3.41595">
        <ele>36.5</ele>
        <time>2021-11-25T09:49:33.000Z</time>
      </trkpt>
      <trkpt lat="47.79838" lon="-3.41618">
        <ele>38.6</ele>
        <time>2021-11-25T09:49:30.000Z</time>
      </trkpt>
      <trkpt lat="47.79822" lon="-3.41644">
        <ele>34.5</ele>
        <time>2021-11-25T09:49:27.000Z</time>
      </trkpt>
      <trkpt lat="47.79804" lon="-3.41672">
        <ele>35.4</ele>
        <time>2021-11-25T09:49:24.000Z</time>
      </trkpt>
      <trkpt lat="47.79792" lon="-3.41706">
        <ele>43.4</ele>
        <time>2021-11-25T09:49:21.000Z</time>
      </trkpt>
      <trkpt lat="47.79783" lon="-3.41738">
        <ele>43.2</ele>
        <time>2021-11-25T09:49:18.000Z</time>
      </trkpt>
      <trkpt lat="47.79775" lon="-3.41767">
        <ele>40.8</ele>
        <time>2021-11-25T09:49:15.000Z</time>
      </trkpt>
      <trkpt lat="47.79766" lon="-3.41793">
        <ele>46.2</ele>
        <time>2021-11-25T09:49:12.000Z</time>
      </trkpt>
      <trkpt lat="47.79759" lon="-3.41818">
        <ele>48.6</ele>
        <time>2021-11-25T09:49:09.000Z</time>
      </trkpt>
      <trkpt lat="47.79757" lon="-3.41839">
        <ele>44.6</ele>
        <time>2021-11-25T09:49:06.000Z</time>
      </trkpt>
      <trkpt lat="47.79752" lon="-3.41855">
        <ele>45.9</ele>
        <time>2021-11-25T09:49:03.000Z</time>
      </trkpt>
      <trkpt lat="47.79747" lon="-3.41874">
        <ele>50.4</ele>
        <time>2021-11-25T09:49:00.000Z</time>
      </trkpt>
      <trkpt lat="47.79748" lon="-3.41892">
        <ele>51.3</ele>
        <time>2021-11-25T09:48:57.000Z</time>
      </trkpt>
      <trkpt lat="47.79748" lon="-3.41908">
        <ele>51.1</ele>
        <time>2021-11-25T09:48:54.000Z</time>
      </trkpt>
      <trkpt lat="47.79747" lon="-3.41921">
        <ele>50.3</ele>
        <time>2021-11-25T09:48:51.000Z</time>
      </trkpt>
      <trkpt lat="47.79747" lon="-3.41935">
        <ele>51.2</ele>
        <time>2021-11-25T09:48:48.000Z</time>
      </trkpt>
      <trkpt lat="47.79745" lon="-3.41946">
        <ele>50</ele>
        <time>2021-11-25T09:48:45.000Z</time>
      </trkpt>
      <trkpt lat="47.79744" lon="-3.41956">
        <ele>51.3</ele>
        <time>2021-11-25T09:48:42.000Z</time>
      </trkpt>
      <trkpt lat="47.79742" lon="-3.41965">
        <ele>51.3</ele>
        <time>2021-11-25T09:48:39.000Z</time>
      </trkpt>
      <trkpt lat="47.7974" lon="-3.41976">
        <ele>49.2</ele>
        <time>2021-11-25T09:48:36.000Z</time>
      </trkpt>
      <trkpt lat="47.79742" lon="-3.41985">
        <ele>46.5</ele>
        <time>2021-11-25T09:48:33.000Z</time>
      </trkpt>
      <trkpt lat="47.79742" lon="-3.41993">
        <ele>46.9</ele>
        <time>2021-11-25T09:48:30.000Z</time>
      </trkpt>
      <trkpt lat="47.79743" lon="-3.42001">
        <ele>47.1</ele>
        <time>2021-11-25T09:48:27.000Z</time>
      </trkpt>
      <trkpt lat="47.79744" lon="-3.42009">
        <ele>43.7</ele>
        <time>2021-11-25T09:48:24.000Z</time>
      </trkpt>
      <trkpt lat="47.79745" lon="-3.42017">
        <ele>41.7</ele>
        <time>2021-11-25T09:48:21.000Z</time>
      </trkpt>
      <trkpt lat="47.79746" lon="-3.42026">
        <ele>43.9</ele>
        <time>2021-11-25T09:48:18.000Z</time>
      </trkpt>
      <trkpt lat="47.79745" lon="-3.42035">
        <ele>41.1</ele>
        <time>2021-11-25T09:48:15.000Z</time>
      </trkpt>
      <trkpt lat="47.79745" lon="-3.42043">
        <ele>41.3</ele>
        <time>2021-11-25T09:48:12.000Z</time>
      </trkpt>
      <trkpt lat="47.79746" lon="-3.42051">
        <ele>39.8</ele>
        <time>2021-11-25T09:48:09.000Z</time>
      </trkpt>
      <trkpt lat="47.79746" lon="-3.42059">
        <ele>37.9</ele>
        <time>2021-11-25T09:48:06.000Z</time>
      </trkpt>
      <trkpt lat="47.79745" lon="-3.42068">
        <ele>36.5</ele>
        <time>2021-11-25T09:48:03.000Z</time>
      </trkpt>
      <trkpt lat="47.79744" lon="-3.42078">
        <ele>36</ele>
        <time>2021-11-25T09:48:00.000Z</time>
      </trkpt>
      <trkpt lat="47.79744" lon="-3.42089">
        <ele>33.2</ele>
        <time>2021-11-25T09:47:57.000Z</time>
      </trkpt>
      <trkpt lat="47.79748" lon="-3.42101">
        <ele>32</ele>
        <time>2021-11-25T09:47:54.000Z</time>
      </trkpt>
      <trkpt lat="47.79755" lon="-3.42112">
        <ele>33.8</ele>
        <time>2021-11-25T09:47:51.000Z</time>
      </trkpt>
      <trkpt lat="47.79762" lon="-3.42124">
        <ele>33.6</ele>
        <time>2021-11-25T09:47:48.000Z</time>
      </trkpt>
      <trkpt lat="47.79764" lon="-3.42142">
        <ele>34.3</ele>
        <time>2021-11-25T09:47:45.000Z</time>
      </trkpt>
      <trkpt lat="47.79763" lon="-3.42167">
        <ele>34</ele>
        <time>2021-11-25T09:47:42.000Z</time>
      </trkpt>
      <trkpt lat="47.79763" lon="-3.42193">
        <ele>30</ele>
        <time>2021-11-25T09:47:39.000Z</time>
      </trkpt>
      <trkpt lat="47.79763" lon="-3.42219">
        <ele>31.4</ele>
        <time>2021-11-25T09:47:36.000Z</time>
      </trkpt>
      <trkpt lat="47.79763" lon="-3.42248">
        <ele>31.8</ele>
        <time>2021-11-25T09:47:33.000Z</time>
      </trkpt>
      <trkpt lat="47.79763" lon="-3.42278">
        <ele>36.2</ele>
        <time>2021-11-25T09:47:30.000Z</time>
      </trkpt>
      <trkpt lat="47.79763" lon="-3.42306">
        <ele>34.7</ele>
        <time>2021-11-25T09:47:27.000Z</time>
      </trkpt>
      <trkpt lat="47.79762" lon="-3.42331">
        <ele>31.5</ele>
        <time>2021-11-25T09:47:24.000Z</time>
      </trkpt>
      <trkpt lat="47.79764" lon="-3.42356">
        <ele>35.6</ele>
        <time>2021-11-25T09:47:21.000Z</time>
      </trkpt>
      <trkpt lat="47.79763" lon="-3.42383">
        <ele>41.1</ele>
        <time>2021-11-25T09:47:18.000Z</time>
      </trkpt>
      <trkpt lat="47.79763" lon="-3.42408">
        <ele>40.6</ele>
        <time>2021-11-25T09:47:15.000Z</time>
      </trkpt>
      <trkpt lat="47.79765" lon="-3.42432">
        <ele>37.4</ele>
        <time>2021-11-25T09:47:12.000Z</time>
      </trkpt>
      <trkpt lat="47.79765" lon="-3.42456">
        <ele>41.7</ele>
        <time>2021-11-25T09:47:09.000Z</time>
      </trkpt>
      <trkpt lat="47.79764" lon="-3.42479">
        <ele>39.9</ele>
        <time>2021-11-25T09:47:06.000Z</time>
      </trkpt>
      <trkpt lat="47.79764" lon="-3.42501">
        <ele>41.5</ele>
        <time>2021-11-25T09:47:03.000Z</time>
      </trkpt>
      <trkpt lat="47.79764" lon="-3.42516">
        <ele>41.3</ele>
        <time>2021-11-25T09:47:00.000Z</time>
      </trkpt>
      <trkpt lat="47.79762" lon="-3.42532">
        <ele>41</ele>
        <time>2021-11-25T09:46:57.000Z</time>
      </trkpt>
      <trkpt lat="47.7976" lon="-3.42554">
        <ele>43.6</ele>
        <time>2021-11-25T09:46:54.000Z</time>
      </trkpt>
      <trkpt lat="47.79759" lon="-3.42579">
        <ele>44.6</ele>
        <time>2021-11-25T09:46:51.000Z</time>
      </trkpt>
      <trkpt lat="47.79757" lon="-3.42605">
        <ele>45</ele>
        <time>2021-11-25T09:46:48.000Z</time>
      </trkpt>
      <trkpt lat="47.79752" lon="-3.42629">
        <ele>45.6</ele>
        <time>2021-11-25T09:46:45.000Z</time>
      </trkpt>
      <trkpt lat="47.79743" lon="-3.4265">
        <ele>45.7</ele>
        <time>2021-11-25T09:46:42.000Z</time>
      </trkpt>
      <trkpt lat="47.79733" lon="-3.42666">
        <ele>42.3</ele>
        <time>2021-11-25T09:46:39.000Z</time>
      </trkpt>
      <trkpt lat="47.79721" lon="-3.42678">
        <ele>43.1</ele>
        <time>2021-11-25T09:46:36.000Z</time>
      </trkpt>
      <trkpt lat="47.79708" lon="-3.42683">
        <ele>44.5</ele>
        <time>2021-11-25T09:46:33.000Z</time>
      </trkpt>
      <trkpt lat="47.79694" lon="-3.42689">
        <ele>42.6</ele>
        <time>2021-11-25T09:46:30.000Z</time>
      </trkpt>
      <trkpt lat="47.7968" lon="-3.42694">
        <ele>44.2</ele>
        <time>2021-11-25T09:46:27.000Z</time>
      </trkpt>
      <trkpt lat="47.79665" lon="-3.427">
        <ele>42</ele>
        <time>2021-11-25T09:46:24.000Z</time>
      </trkpt>
      <trkpt lat="47.79651" lon="-3.42707">
        <ele>44</ele>
        <time>2021-11-25T09:46:21.000Z</time>
      </trkpt>
      <trkpt lat="47.79637" lon="-3.42713">
        <ele>43</ele>
        <time>2021-11-25T09:46:18.000Z</time>
      </trkpt>
      <trkpt lat="47.79622" lon="-3.42718">
        <ele>42.3</ele>
        <time>2021-11-25T09:46:15.000Z</time>
      </trkpt>
      <trkpt lat="47.79609" lon="-3.4272">
        <ele>42.9</ele>
        <time>2021-11-25T09:46:12.000Z</time>
      </trkpt>
      <trkpt lat="47.79596" lon="-3.42717">
        <ele>43.4</ele>
        <time>2021-11-25T09:46:09.000Z</time>
      </trkpt>
      <trkpt lat="47.79584" lon="-3.42713">
        <ele>43.6</ele>
        <time>2021-11-25T09:46:06.000Z</time>
      </trkpt>
      <trkpt lat="47.79571" lon="-3.42709">
        <ele>43.2</ele>
        <time>2021-11-25T09:46:03.000Z</time>
      </trkpt>
      <trkpt lat="47.7956" lon="-3.42706">
        <ele>43.6</ele>
        <time>2021-11-25T09:46:00.000Z</time>
      </trkpt>
      <trkpt lat="47.7955" lon="-3.42704">
        <ele>42.7</ele>
        <time>2021-11-25T09:45:57.000Z</time>
      </trkpt>
      <trkpt lat="47.79541" lon="-3.4271">
        <ele>42</ele>
        <time>2021-11-25T09:45:54.000Z</time>
      </trkpt>
      <trkpt lat="47.79536" lon="-3.42728">
        <ele>42.1</ele>
        <time>2021-11-25T09:45:51.000Z</time>
      </trkpt>
      <trkpt lat="47.79531" lon="-3.42749">
        <ele>40.1</ele>
        <time>2021-11-25T09:45:48.000Z</time>
      </trkpt>
      <trkpt lat="47.79524" lon="-3.42769">
        <ele>40</ele>
        <time>2021-11-25T09:45:45.000Z</time>
      </trkpt>
      <trkpt lat="47.79514" lon="-3.42785">
        <ele>42.5</ele>
        <time>2021-11-25T09:45:42.000Z</time>
      </trkpt>
      <trkpt lat="47.79504" lon="-3.428">
        <ele>39.7</ele>
        <time>2021-11-25T09:45:39.000Z</time>
      </trkpt>
      <trkpt lat="47.79486" lon="-3.42808">
        <ele>36.9</ele>
        <time>2021-11-25T09:45:36.000Z</time>
      </trkpt>
      <trkpt lat="47.79461" lon="-3.42817">
        <ele>36.1</ele>
        <time>2021-11-25T09:45:33.000Z</time>
      </trkpt>
      <trkpt lat="47.79435" lon="-3.42828">
        <ele>38.1</ele>
        <time>2021-11-25T09:45:30.000Z</time>
      </trkpt>
      <trkpt lat="47.79413" lon="-3.4284">
        <ele>38.8</ele>
        <time>2021-11-25T09:45:27.000Z</time>
      </trkpt>
      <trkpt lat="47.79393" lon="-3.42852">
        <ele>42</ele>
        <time>2021-11-25T09:45:24.000Z</time>
      </trkpt>
      <trkpt lat="47.79375" lon="-3.42863">
        <ele>44.3</ele>
        <time>2021-11-25T09:45:21.000Z</time>
      </trkpt>
      <trkpt lat="47.79359" lon="-3.42873">
        <ele>45.6</ele>
        <time>2021-11-25T09:45:18.000Z</time>
      </trkpt>
      <trkpt lat="47.79347" lon="-3.42881">
        <ele>46.6</ele>
        <time>2021-11-25T09:45:15.000Z</time>
      </trkpt>
      <trkpt lat="47.79339" lon="-3.4289">
        <ele>46.7</ele>
        <time>2021-11-25T09:45:12.000Z</time>
      </trkpt>
      <trkpt lat="47.79326" lon="-3.42899">
        <ele>47.1</ele>
        <time>2021-11-25T09:45:09.000Z</time>
      </trkpt>
      <trkpt lat="47.79312" lon="-3.42912">
        <ele>47.4</ele>
        <time>2021-11-25T09:45:06.000Z</time>
      </trkpt>
      <trkpt lat="47.79298" lon="-3.42923">
        <ele>48.5</ele>
        <time>2021-11-25T09:45:03.000Z</time>
      </trkpt>
      <trkpt lat="47.79284" lon="-3.42935">
        <ele>48.9</ele>
        <time>2021-11-25T09:45:00.000Z</time>
      </trkpt>
      <trkpt lat="47.79271" lon="-3.42945">
        <ele>49.4</ele>
        <time>2021-11-25T09:44:57.000Z</time>
      </trkpt>
      <trkpt lat="47.79258" lon="-3.42954">
        <ele>51.6</ele>
        <time>2021-11-25T09:44:54.000Z</time>
      </trkpt>
      <trkpt lat="47.79244" lon="-3.42957">
        <ele>49.1</ele>
        <time>2021-11-25T09:44:51.000Z</time>
      </trkpt>
      <trkpt lat="47.79231" lon="-3.42956">
        <ele>50.6</ele>
        <time>2021-11-25T09:44:48.000Z</time>
      </trkpt>
      <trkpt lat="47.79218" lon="-3.42954">
        <ele>49.5</ele>
        <time>2021-11-25T09:44:45.000Z</time>
      </trkpt>
      <trkpt lat="47.79205" lon="-3.4295">
        <ele>50.2</ele>
        <time>2021-11-25T09:44:42.000Z</time>
      </trkpt>
      <trkpt lat="47.79191" lon="-3.42945">
        <ele>48</ele>
        <time>2021-11-25T09:44:39.000Z</time>
      </trkpt>
      <trkpt lat="47.79177" lon="-3.4294">
        <ele>49.5</ele>
        <time>2021-11-25T09:44:36.000Z</time>
      </trkpt>
      <trkpt lat="47.79165" lon="-3.42936">
        <ele>49.9</ele>
        <time>2021-11-25T09:44:33.000Z</time>
      </trkpt>
      <trkpt lat="47.79152" lon="-3.42933">
        <ele>47.5</ele>
        <time>2021-11-25T09:44:30.000Z</time>
      </trkpt>
      <trkpt lat="47.79139" lon="-3.4293">
        <ele>48</ele>
        <time>2021-11-25T09:44:27.000Z</time>
      </trkpt>
      <trkpt lat="47.79126" lon="-3.4293">
        <ele>43.8</ele>
        <time>2021-11-25T09:44:24.000Z</time>
      </trkpt>
      <trkpt lat="47.79113" lon="-3.4293">
        <ele>47.7</ele>
        <time>2021-11-25T09:44:21.000Z</time>
      </trkpt>
      <trkpt lat="47.79101" lon="-3.42931">
        <ele>46</ele>
        <time>2021-11-25T09:44:18.000Z</time>
      </trkpt>
      <trkpt lat="47.79088" lon="-3.42933">
        <ele>45.6</ele>
        <time>2021-11-25T09:44:15.000Z</time>
      </trkpt>
      <trkpt lat="47.79076" lon="-3.42935">
        <ele>47</ele>
        <time>2021-11-25T09:44:12.000Z</time>
      </trkpt>
      <trkpt lat="47.79063" lon="-3.42936">
        <ele>43.3</ele>
        <time>2021-11-25T09:44:09.000Z</time>
      </trkpt>
      <trkpt lat="47.79049" lon="-3.42937">
        <ele>43.8</ele>
        <time>2021-11-25T09:44:06.000Z</time>
      </trkpt>
      <trkpt lat="47.79033" lon="-3.42938">
        <ele>43.2</ele>
        <time>2021-11-25T09:44:03.000Z</time>
      </trkpt>
      <trkpt lat="47.79019" lon="-3.42934">
        <ele>45.4</ele>
        <time>2021-11-25T09:44:00.000Z</time>
      </trkpt>
      <trkpt lat="47.79009" lon="-3.42924">
        <ele>47.2</ele>
        <time>2021-11-25T09:43:57.000Z</time>
      </trkpt>
      <trkpt lat="47.79001" lon="-3.42914">
        <ele>46.3</ele>
        <time>2021-11-25T09:43:54.000Z</time>
      </trkpt>
      <trkpt lat="47.78991" lon="-3.42903">
        <ele>44.8</ele>
        <time>2021-11-25T09:43:51.000Z</time>
      </trkpt>
      <trkpt lat="47.78978" lon="-3.42895">
        <ele>45.3</ele>
        <time>2021-11-25T09:43:48.000Z</time>
      </trkpt>
      <trkpt lat="47.78967" lon="-3.42897">
        <ele>44.8</ele>
        <time>2021-11-25T09:43:45.000Z</time>
      </trkpt>
      <trkpt lat="47.78963" lon="-3.42907">
        <ele>45.4</ele>
        <time>2021-11-25T09:43:42.000Z</time>
      </trkpt>
      <trkpt lat="47.78964" lon="-3.42921">
        <ele>42</ele>
        <time>2021-11-25T09:43:39.000Z</time>
      </trkpt>
      <trkpt lat="47.78974" lon="-3.42941">
        <ele>46</ele>
        <time>2021-11-25T09:43:36.000Z</time>
      </trkpt>
      <trkpt lat="47.78983" lon="-3.42958">
        <ele>46</ele>
        <time>2021-11-25T09:43:33.000Z</time>
      </trkpt>
      <trkpt lat="47.7899" lon="-3.4297">
        <ele>49.8</ele>
        <time>2021-11-25T09:43:30.000Z</time>
      </trkpt>
      <trkpt lat="47.78996" lon="-3.42986">
        <ele>50.2</ele>
        <time>2021-11-25T09:43:27.000Z</time>
      </trkpt>
      <trkpt lat="47.79003" lon="-3.43005">
        <ele>47.4</ele>
        <time>2021-11-25T09:43:24.000Z</time>
      </trkpt>
      <trkpt lat="47.7901" lon="-3.43022">
        <ele>48.5</ele>
        <time>2021-11-25T09:43:21.000Z</time>
      </trkpt>
      <trkpt lat="47.79015" lon="-3.4304">
        <ele>48.7</ele>
        <time>2021-11-25T09:43:18.000Z</time>
      </trkpt>
      <trkpt lat="47.79018" lon="-3.43059">
        <ele>50.4</ele>
        <time>2021-11-25T09:43:15.000Z</time>
      </trkpt>
      <trkpt lat="47.79021" lon="-3.43077">
        <ele>49.1</ele>
        <time>2021-11-25T09:43:12.000Z</time>
      </trkpt>
      <trkpt lat="47.79027" lon="-3.43092">
        <ele>48.7</ele>
        <time>2021-11-25T09:43:09.000Z</time>
      </trkpt>
      <trkpt lat="47.79031" lon="-3.43107">
        <ele>49</ele>
        <time>2021-11-25T09:43:06.000Z</time>
      </trkpt>
      <trkpt lat="47.79037" lon="-3.4312">
        <ele>49.9</ele>
        <time>2021-11-25T09:43:03.000Z</time>
      </trkpt>
      <trkpt lat="47.79042" lon="-3.43132">
        <ele>48.2</ele>
        <time>2021-11-25T09:43:00.000Z</time>
      </trkpt>
      <trkpt lat="47.79047" lon="-3.43146">
        <ele>48.3</ele>
        <time>2021-11-25T09:42:57.000Z</time>
      </trkpt>
      <trkpt lat="47.79052" lon="-3.43161">
        <ele>49.4</ele>
        <time>2021-11-25T09:42:54.000Z</time>
      </trkpt>
      <trkpt lat="47.79057" lon="-3.43175">
        <ele>49.7</ele>
        <time>2021-11-25T09:42:51.000Z</time>
      </trkpt>
      <trkpt lat="47.79061" lon="-3.43189">
        <ele>48.8</ele>
        <time>2021-11-25T09:42:48.000Z</time>
      </trkpt>
      <trkpt lat="47.79065" lon="-3.43202">
        <ele>47</ele>
        <time>2021-11-25T09:42:45.000Z</time>
      </trkpt>
      <trkpt lat="47.79069" lon="-3.43216">
        <ele>47.6</ele>
        <time>2021-11-25T09:42:42.000Z</time>
      </trkpt>
      <trkpt lat="47.79073" lon="-3.43231">
        <ele>47</ele>
        <time>2021-11-25T09:42:39.000Z</time>
      </trkpt>
      <trkpt lat="47.79079" lon="-3.43246">
        <ele>45.7</ele>
        <time>2021-11-25T09:42:36.000Z</time>
      </trkpt>
      <trkpt lat="47.79083" lon="-3.43262">
        <ele>45.3</ele>
        <time>2021-11-25T09:42:33.000Z</time>
      </trkpt>
      <trkpt lat="47.7909" lon="-3.43281">
        <ele>43.3</ele>
        <time>2021-11-25T09:42:30.000Z</time>
      </trkpt>
      <trkpt lat="47.79098" lon="-3.43305">
        <ele>44.8</ele>
        <time>2021-11-25T09:42:27.000Z</time>
      </trkpt>
      <trkpt lat="47.79108" lon="-3.43327">
        <ele>44.5</ele>
        <time>2021-11-25T09:42:24.000Z</time>
      </trkpt>
      <trkpt lat="47.79116" lon="-3.43349">
        <ele>44.9</ele>
        <time>2021-11-25T09:42:21.000Z</time>
      </trkpt>
      <trkpt lat="47.79124" lon="-3.43369">
        <ele>47.2</ele>
        <time>2021-11-25T09:42:18.000Z</time>
      </trkpt>
      <trkpt lat="47.79129" lon="-3.43387">
        <ele>49</ele>
        <time>2021-11-25T09:42:15.000Z</time>
      </trkpt>
      <trkpt lat="47.79133" lon="-3.43407">
        <ele>47.2</ele>
        <time>2021-11-25T09:42:12.000Z</time>
      </trkpt>
      <trkpt lat="47.79137" lon="-3.43427">
        <ele>49.4</ele>
        <time>2021-11-25T09:42:09.000Z</time>
      </trkpt>
      <trkpt lat="47.79142" lon="-3.43445">
        <ele>50.1</ele>
        <time>2021-11-25T09:42:06.000Z</time>
      </trkpt>
      <trkpt lat="47.79145" lon="-3.43457">
        <ele>50.1</ele>
        <time>2021-11-25T09:42:03.000Z</time>
      </trkpt>
      <trkpt lat="47.79148" lon="-3.43468">
        <ele>50.6</ele>
        <time>2021-11-25T09:42:00.000Z</time>
      </trkpt>
      <trkpt lat="47.79152" lon="-3.43477">
        <ele>50.3</ele>
        <time>2021-11-25T09:41:57.000Z</time>
      </trkpt>
      <trkpt lat="47.79156" lon="-3.43489">
        <ele>49.7</ele>
        <time>2021-11-25T09:41:54.000Z</time>
      </trkpt>
      <trkpt lat="47.7916" lon="-3.43501">
        <ele>50.2</ele>
        <time>2021-11-25T09:41:51.000Z</time>
      </trkpt>
      <trkpt lat="47.79164" lon="-3.43511">
        <ele>50.4</ele>
        <time>2021-11-25T09:41:48.000Z</time>
      </trkpt>
      <trkpt lat="47.79169" lon="-3.43523">
        <ele>48.3</ele>
        <time>2021-11-25T09:41:45.000Z</time>
      </trkpt>
      <trkpt lat="47.79173" lon="-3.43532">
        <ele>47.8</ele>
        <time>2021-11-25T09:41:42.000Z</time>
      </trkpt>
      <trkpt lat="47.79178" lon="-3.43541">
        <ele>48.4</ele>
        <time>2021-11-25T09:41:39.000Z</time>
      </trkpt>
      <trkpt lat="47.79183" lon="-3.43552">
        <ele>45.7</ele>
        <time>2021-11-25T09:41:36.000Z</time>
      </trkpt>
      <trkpt lat="47.79186" lon="-3.43566">
        <ele>46.8</ele>
        <time>2021-11-25T09:41:33.000Z</time>
      </trkpt>
      <trkpt lat="47.79181" lon="-3.4358">
        <ele>46.9</ele>
        <time>2021-11-25T09:41:30.000Z</time>
      </trkpt>
      <trkpt lat="47.79174" lon="-3.43595">
        <ele>46.5</ele>
        <time>2021-11-25T09:41:27.000Z</time>
      </trkpt>
      <trkpt lat="47.79167" lon="-3.4361">
        <ele>45.5</ele>
        <time>2021-11-25T09:41:24.000Z</time>
      </trkpt>
      <trkpt lat="47.79161" lon="-3.43625">
        <ele>46</ele>
        <time>2021-11-25T09:41:21.000Z</time>
      </trkpt>
      <trkpt lat="47.79154" lon="-3.4364">
        <ele>42.2</ele>
        <time>2021-11-25T09:41:18.000Z</time>
      </trkpt>
      <trkpt lat="47.79146" lon="-3.43656">
        <ele>43.1</ele>
        <time>2021-11-25T09:41:15.000Z</time>
      </trkpt>
      <trkpt lat="47.79139" lon="-3.4367">
        <ele>41.7</ele>
        <time>2021-11-25T09:41:12.000Z</time>
      </trkpt>
      <trkpt lat="47.79132" lon="-3.43686">
        <ele>42.1</ele>
        <time>2021-11-25T09:41:09.000Z</time>
      </trkpt>
      <trkpt lat="47.79124" lon="-3.437">
        <ele>40.6</ele>
        <time>2021-11-25T09:41:06.000Z</time>
      </trkpt>
      <trkpt lat="47.79116" lon="-3.43714">
        <ele>41.4</ele>
        <time>2021-11-25T09:41:03.000Z</time>
      </trkpt>
      <trkpt lat="47.79108" lon="-3.43729">
        <ele>40.9</ele>
        <time>2021-11-25T09:41:00.000Z</time>
      </trkpt>
      <trkpt lat="47.79097" lon="-3.43742">
        <ele>40.4</ele>
        <time>2021-11-25T09:40:57.000Z</time>
      </trkpt>
      <trkpt lat="47.79087" lon="-3.43752">
        <ele>45</ele>
        <time>2021-11-25T09:40:54.000Z</time>
      </trkpt>
      <trkpt lat="47.79077" lon="-3.43761">
        <ele>41</ele>
        <time>2021-11-25T09:40:51.000Z</time>
      </trkpt>
      <trkpt lat="47.79066" lon="-3.4377">
        <ele>39.3</ele>
        <time>2021-11-25T09:40:48.000Z</time>
      </trkpt>
      <trkpt lat="47.79056" lon="-3.43777">
        <ele>44.4</ele>
        <time>2021-11-25T09:40:45.000Z</time>
      </trkpt>
      <trkpt lat="47.79045" lon="-3.43776">
        <ele>42.9</ele>
        <time>2021-11-25T09:40:42.000Z</time>
      </trkpt>
      <trkpt lat="47.79034" lon="-3.43769">
        <ele>42.4</ele>
        <time>2021-11-25T09:40:39.000Z</time>
      </trkpt>
      <trkpt lat="47.79025" lon="-3.43764">
        <ele>42.7</ele>
        <time>2021-11-25T09:40:36.000Z</time>
      </trkpt>
      <trkpt lat="47.79018" lon="-3.43758">
        <ele>42.9</ele>
        <time>2021-11-25T09:40:33.000Z</time>
      </trkpt>
      <trkpt lat="47.79014" lon="-3.43758">
        <ele>42.7</ele>
        <time>2021-11-25T09:40:30.000Z</time>
      </trkpt>
      <trkpt lat="47.79006" lon="-3.43765">
        <ele>42.6</ele>
        <time>2021-11-25T09:40:27.000Z</time>
      </trkpt>
      <trkpt lat="47.78999" lon="-3.43778">
        <ele>42.2</ele>
        <time>2021-11-25T09:40:24.000Z</time>
      </trkpt>
      <trkpt lat="47.78994" lon="-3.43799">
        <ele>39.5</ele>
        <time>2021-11-25T09:40:21.000Z</time>
      </trkpt>
      <trkpt lat="47.78985" lon="-3.43824">
        <ele>42.9</ele>
        <time>2021-11-25T09:40:18.000Z</time>
      </trkpt>
      <trkpt lat="47.78976" lon="-3.43849">
        <ele>44.6</ele>
        <time>2021-11-25T09:40:15.000Z</time>
      </trkpt>
      <trkpt lat="47.78967" lon="-3.43866">
        <ele>45.4</ele>
        <time>2021-11-25T09:40:12.000Z</time>
      </trkpt>
      <trkpt lat="47.78968" lon="-3.43881">
        <ele>45.7</ele>
        <time>2021-11-25T09:40:09.000Z</time>
      </trkpt>
      <trkpt lat="47.78974" lon="-3.43897">
        <ele>43.7</ele>
        <time>2021-11-25T09:40:06.000Z</time>
      </trkpt>
      <trkpt lat="47.7898" lon="-3.43914">
        <ele>46.1</ele>
        <time>2021-11-25T09:40:03.000Z</time>
      </trkpt>
      <trkpt lat="47.78999" lon="-3.43917">
        <ele>64.4</ele>
        <time>2021-11-16T10:49:28.000Z</time>
      </trkpt>
      <trkpt lat="47.79007" lon="-3.43914">
        <ele>63.2</ele>
        <time>2021-11-16T10:49:25.000Z</time>
      </trkpt>
      <trkpt lat="47.79015" lon="-3.4391">
        <ele>62.1</ele>
        <time>2021-11-16T10:49:22.000Z</time>
      </trkpt>
      <trkpt lat="47.79022" lon="-3.43906">
        <ele>62.2</ele>
        <time>2021-11-16T10:49:19.000Z</time>
      </trkpt>
      <trkpt lat="47.79029" lon="-3.43904">
        <ele>62.5</ele>
        <time>2021-11-16T10:49:16.000Z</time>
      </trkpt>
      <trkpt lat="47.79034" lon="-3.43901">
        <ele>62.6</ele>
        <time>2021-11-16T10:49:13.000Z</time>
      </trkpt>
      <trkpt lat="47.79034" lon="-3.43901">
        <ele>62.6</ele>
        <time>2021-11-16T10:49:11.000Z</time>
      </trkpt>
      <trkpt lat="47.79034" lon="-3.43901">
        <ele>62.6</ele>
        <time>2021-11-16T10:49:10.000Z</time>
      </trkpt>
      <trkpt lat="47.79034" lon="-3.43901">
        <ele>62.1</ele>
        <time>2021-11-16T10:49:09.000Z</time>
      </trkpt>
      <trkpt lat="47.79034" lon="-3.439">
        <ele>62.5</ele>
        <time>2021-11-16T10:49:06.000Z</time>
      </trkpt>
      <trkpt lat="47.79034" lon="-3.43899">
        <ele>62.5</ele>
        <time>2021-11-16T10:49:05.000Z</time>
      </trkpt>
      <trkpt lat="47.79034" lon="-3.43899">
        <ele>62.6</ele>
        <time>2021-11-16T10:49:02.000Z</time>
      </trkpt>
      <trkpt lat="47.79034" lon="-3.43899">
        <ele>62.7</ele>
        <time>2021-11-16T10:48:59.000Z</time>
      </trkpt>
      <trkpt lat="47.79034" lon="-3.43899">
        <ele>62.5</ele>
        <time>2021-11-16T10:48:56.000Z</time>
      </trkpt>
      <trkpt lat="47.79034" lon="-3.43899">
        <ele>62.4</ele>
        <time>2021-11-16T10:48:53.000Z</time>
      </trkpt>
      <trkpt lat="47.79034" lon="-3.439">
        <ele>62.3</ele>
        <time>2021-11-16T10:48:50.000Z</time>
      </trkpt>
      <trkpt lat="47.79034" lon="-3.439">
        <ele>62.4</ele>
        <time>2021-11-16T10:48:47.000Z</time>
      </trkpt>
      <trkpt lat="47.79034" lon="-3.439">
        <ele>62.2</ele>
        <time>2021-11-16T10:48:44.000Z</time>
      </trkpt>
      <trkpt lat="47.79034" lon="-3.439">
        <ele>62.4</ele>
        <time>2021-11-16T10:48:41.000Z</time>
      </trkpt>
      <trkpt lat="47.79034" lon="-3.439">
        <ele>62.4</ele>
        <time>2021-11-16T10:48:38.000Z</time>
      </trkpt>
      <trkpt lat="47.79034" lon="-3.439">
        <ele>62.3</ele>
        <time>2021-11-16T10:48:35.000Z</time>
      </trkpt>
      <trkpt lat="47.79034" lon="-3.439">
        <ele>62.4</ele>
        <time>2021-11-16T10:48:32.000Z</time>
      </trkpt>
      <trkpt lat="47.79034" lon="-3.439">
        <ele>62.6</ele>
        <time>2021-11-16T10:48:29.000Z</time>
      </trkpt>
      <trkpt lat="47.79034" lon="-3.439">
        <ele>62.7</ele>
        <time>2021-11-16T10:48:26.000Z</time>
      </trkpt>
      <trkpt lat="47.79034" lon="-3.439">
        <ele>62.5</ele>
        <time>2021-11-16T10:48:25.000Z</time>
      </trkpt>
      <trkpt lat="47.79033" lon="-3.43902">
        <ele>62.8</ele>
        <time>2021-11-16T10:48:22.000Z</time>
      </trkpt>
      <trkpt lat="47.79033" lon="-3.43902">
        <ele>62.9</ele>
        <time>2021-11-16T10:48:21.000Z</time>
      </trkpt>
      <trkpt lat="47.79033" lon="-3.43902">
        <ele>62.8</ele>
        <time>2021-11-16T10:48:20.000Z</time>
      </trkpt>
      <trkpt lat="47.7904" lon="-3.43899">
        <ele>60.5</ele>
        <time>2021-11-16T10:48:17.000Z</time>
      </trkpt>
      <trkpt lat="47.79056" lon="-3.43894">
        <ele>62.1</ele>
        <time>2021-11-16T10:48:14.000Z</time>
      </trkpt>
      <trkpt lat="47.79072" lon="-3.43891">
        <ele>59.2</ele>
        <time>2021-11-16T10:48:11.000Z</time>
      </trkpt>
      <trkpt lat="47.79087" lon="-3.43894">
        <ele>59.3</ele>
        <time>2021-11-16T10:48:08.000Z</time>
      </trkpt>
      <trkpt lat="47.79104" lon="-3.43898">
        <ele>64.2</ele>
        <time>2021-11-16T10:48:05.000Z</time>
      </trkpt>
      <trkpt lat="47.79121" lon="-3.43903">
        <ele>61.4</ele>
        <time>2021-11-16T10:48:02.000Z</time>
      </trkpt>
      <trkpt lat="47.79139" lon="-3.43909">
        <ele>60.6</ele>
        <time>2021-11-16T10:47:59.000Z</time>
      </trkpt>
      <trkpt lat="47.79156" lon="-3.43915">
        <ele>63.2</ele>
        <time>2021-11-16T10:47:56.000Z</time>
      </trkpt>
      <trkpt lat="47.79173" lon="-3.43919">
        <ele>65.4</ele>
        <time>2021-11-16T10:47:53.000Z</time>
      </trkpt>
      <trkpt lat="47.79189" lon="-3.43922">
        <ele>62.9</ele>
        <time>2021-11-16T10:47:50.000Z</time>
      </trkpt>
      <trkpt lat="47.79205" lon="-3.43924">
        <ele>63.5</ele>
        <time>2021-11-16T10:47:47.000Z</time>
      </trkpt>
      <trkpt lat="47.7922" lon="-3.43926">
        <ele>65.4</ele>
        <time>2021-11-16T10:47:44.000Z</time>
      </trkpt>
      <trkpt lat="47.79234" lon="-3.43927">
        <ele>65.9</ele>
        <time>2021-11-16T10:47:41.000Z</time>
      </trkpt>
      <trkpt lat="47.79247" lon="-3.4393">
        <ele>65.4</ele>
        <time>2021-11-16T10:47:38.000Z</time>
      </trkpt>
      <trkpt lat="47.7926" lon="-3.43932">
        <ele>67.9</ele>
        <time>2021-11-16T10:47:35.000Z</time>
      </trkpt>
      <trkpt lat="47.79273" lon="-3.43933">
        <ele>62.5</ele>
        <time>2021-11-16T10:47:32.000Z</time>
      </trkpt>
      <trkpt lat="47.79284" lon="-3.43935">
        <ele>67.7</ele>
        <time>2021-11-16T10:47:29.000Z</time>
      </trkpt>
      <trkpt lat="47.79296" lon="-3.43937">
        <ele>62.9</ele>
        <time>2021-11-16T10:47:26.000Z</time>
      </trkpt>
      <trkpt lat="47.79306" lon="-3.43939">
        <ele>62.7</ele>
        <time>2021-11-16T10:47:23.000Z</time>
      </trkpt>
      <trkpt lat="47.79318" lon="-3.43941">
        <ele>63.2</ele>
        <time>2021-11-16T10:47:20.000Z</time>
      </trkpt>
      <trkpt lat="47.79329" lon="-3.43942">
        <ele>65.4</ele>
        <time>2021-11-16T10:47:17.000Z</time>
      </trkpt>
      <trkpt lat="47.79339" lon="-3.43943">
        <ele>61.3</ele>
        <time>2021-11-16T10:47:14.000Z</time>
      </trkpt>
      <trkpt lat="47.7935" lon="-3.43944">
        <ele>64.1</ele>
        <time>2021-11-16T10:47:11.000Z</time>
      </trkpt>
      <trkpt lat="47.79365" lon="-3.43945">
        <ele>59.6</ele>
        <time>2021-11-16T10:47:08.000Z</time>
      </trkpt>
      <trkpt lat="47.79384" lon="-3.43948">
        <ele>61</ele>
        <time>2021-11-16T10:47:05.000Z</time>
      </trkpt>
      <trkpt lat="47.79403" lon="-3.43956">
        <ele>59.2</ele>
        <time>2021-11-16T10:47:02.000Z</time>
      </trkpt>
      <trkpt lat="47.79422" lon="-3.43959">
        <ele>64.1</ele>
        <time>2021-11-16T10:46:59.000Z</time>
      </trkpt>
      <trkpt lat="47.79437" lon="-3.43963">
        <ele>56.2</ele>
        <time>2021-11-16T10:46:56.000Z</time>
      </trkpt>
      <trkpt lat="47.79449" lon="-3.43966">
        <ele>62.1</ele>
        <time>2021-11-16T10:46:53.000Z</time>
      </trkpt>
      <trkpt lat="47.79454" lon="-3.43979">
        <ele>62</ele>
        <time>2021-11-16T10:46:50.000Z</time>
      </trkpt>
      <trkpt lat="47.79452" lon="-3.44">
        <ele>63.9</ele>
        <time>2021-11-16T10:46:47.000Z</time>
      </trkpt>
      <trkpt lat="47.79451" lon="-3.44023">
        <ele>66.6</ele>
        <time>2021-11-16T10:46:44.000Z</time>
      </trkpt>
      <trkpt lat="47.7945" lon="-3.44042">
        <ele>65.6</ele>
        <time>2021-11-16T10:46:41.000Z</time>
      </trkpt>
      <trkpt lat="47.79448" lon="-3.44057">
        <ele>65.7</ele>
        <time>2021-11-16T10:46:38.000Z</time>
      </trkpt>
      <trkpt lat="47.79451" lon="-3.44063">
        <ele>66.8</ele>
        <time>2021-11-16T10:46:35.000Z</time>
      </trkpt>
      <trkpt lat="47.79451" lon="-3.44063">
        <ele>66.7</ele>
        <time>2021-11-16T10:46:34.000Z</time>
      </trkpt>
      <trkpt lat="47.79451" lon="-3.44063">
        <ele>66.7</ele>
        <time>2021-11-16T10:46:33.000Z</time>
      </trkpt>
      <trkpt lat="47.79452" lon="-3.44064">
        <ele>66.6</ele>
        <time>2021-11-16T10:46:30.000Z</time>
      </trkpt>
      <trkpt lat="47.79454" lon="-3.44065">
        <ele>66.5</ele>
        <time>2021-11-16T10:46:27.000Z</time>
      </trkpt>
      <trkpt lat="47.79466" lon="-3.44059">
        <ele>65.4</ele>
        <time>2021-11-16T10:46:24.000Z</time>
      </trkpt>
      <trkpt lat="47.79481" lon="-3.44052">
        <ele>65.4</ele>
        <time>2021-11-16T10:46:21.000Z</time>
      </trkpt>
      <trkpt lat="47.79496" lon="-3.44046">
        <ele>66.6</ele>
        <time>2021-11-16T10:46:18.000Z</time>
      </trkpt>
      <trkpt lat="47.79509" lon="-3.44043">
        <ele>69.4</ele>
        <time>2021-11-16T10:46:15.000Z</time>
      </trkpt>
      <trkpt lat="47.79522" lon="-3.44042">
        <ele>63.7</ele>
        <time>2021-11-16T10:46:12.000Z</time>
      </trkpt>
      <trkpt lat="47.79535" lon="-3.44041">
        <ele>63</ele>
        <time>2021-11-16T10:46:09.000Z</time>
      </trkpt>
      <trkpt lat="47.79547" lon="-3.44042">
        <ele>67.3</ele>
        <time>2021-11-16T10:46:06.000Z</time>
      </trkpt>
      <trkpt lat="47.79561" lon="-3.44046">
        <ele>66.5</ele>
        <time>2021-11-16T10:46:03.000Z</time>
      </trkpt>
      <trkpt lat="47.79575" lon="-3.44051">
        <ele>67.2</ele>
        <time>2021-11-16T10:46:00.000Z</time>
      </trkpt>
      <trkpt lat="47.7959" lon="-3.44054">
        <ele>65.4</ele>
        <time>2021-11-16T10:45:57.000Z</time>
      </trkpt>
      <trkpt lat="47.79606" lon="-3.44059">
        <ele>63.4</ele>
        <time>2021-11-16T10:45:54.000Z</time>
      </trkpt>
      <trkpt lat="47.79622" lon="-3.44066">
        <ele>65.1</ele>
        <time>2021-11-16T10:45:51.000Z</time>
      </trkpt>
      <trkpt lat="47.79637" lon="-3.4407">
        <ele>64.3</ele>
        <time>2021-11-16T10:45:48.000Z</time>
      </trkpt>
      <trkpt lat="47.79651" lon="-3.44076">
        <ele>65.2</ele>
        <time>2021-11-16T10:45:45.000Z</time>
      </trkpt>
      <trkpt lat="47.79666" lon="-3.44082">
        <ele>67.5</ele>
        <time>2021-11-16T10:45:42.000Z</time>
      </trkpt>
      <trkpt lat="47.79681" lon="-3.44086">
        <ele>64.6</ele>
        <time>2021-11-16T10:45:39.000Z</time>
      </trkpt>
      <trkpt lat="47.79696" lon="-3.44093">
        <ele>65</ele>
        <time>2021-11-16T10:45:36.000Z</time>
      </trkpt>
      <trkpt lat="47.79712" lon="-3.441">
        <ele>64.7</ele>
        <time>2021-11-16T10:45:33.000Z</time>
      </trkpt>
      <trkpt lat="47.79728" lon="-3.44104">
        <ele>64.4</ele>
        <time>2021-11-16T10:45:30.000Z</time>
      </trkpt>
      <trkpt lat="47.79743" lon="-3.44109">
        <ele>62</ele>
        <time>2021-11-16T10:45:27.000Z</time>
      </trkpt>
      <trkpt lat="47.79759" lon="-3.44114">
        <ele>65.8</ele>
        <time>2021-11-16T10:45:24.000Z</time>
      </trkpt>
      <trkpt lat="47.79775" lon="-3.44119">
        <ele>63.6</ele>
        <time>2021-11-16T10:45:21.000Z</time>
      </trkpt>
      <trkpt lat="47.7979" lon="-3.44126">
        <ele>62.1</ele>
        <time>2021-11-16T10:45:18.000Z</time>
      </trkpt>
      <trkpt lat="47.79805" lon="-3.44132">
        <ele>65.4</ele>
        <time>2021-11-16T10:45:15.000Z</time>
      </trkpt>
      <trkpt lat="47.7982" lon="-3.44138">
        <ele>66.4</ele>
        <time>2021-11-16T10:45:12.000Z</time>
      </trkpt>
      <trkpt lat="47.79835" lon="-3.44145">
        <ele>64.2</ele>
        <time>2021-11-16T10:45:09.000Z</time>
      </trkpt>
      <trkpt lat="47.79851" lon="-3.44152">
        <ele>61.5</ele>
        <time>2021-11-16T10:45:06.000Z</time>
      </trkpt>
      <trkpt lat="47.79866" lon="-3.4416">
        <ele>61</ele>
        <time>2021-11-16T10:45:03.000Z</time>
      </trkpt>
      <trkpt lat="47.79881" lon="-3.44167">
        <ele>62.2</ele>
        <time>2021-11-16T10:45:00.000Z</time>
      </trkpt>
      <trkpt lat="47.79896" lon="-3.44174">
        <ele>63.2</ele>
        <time>2021-11-16T10:44:57.000Z</time>
      </trkpt>
      <trkpt lat="47.79911" lon="-3.44181">
        <ele>60.3</ele>
        <time>2021-11-16T10:44:54.000Z</time>
      </trkpt>
      <trkpt lat="47.79926" lon="-3.44186">
        <ele>65</ele>
        <time>2021-11-16T10:44:51.000Z</time>
      </trkpt>
      <trkpt lat="47.79941" lon="-3.44192">
        <ele>63.6</ele>
        <time>2021-11-16T10:44:48.000Z</time>
      </trkpt>
      <trkpt lat="47.79956" lon="-3.44197">
        <ele>63.6</ele>
        <time>2021-11-16T10:44:45.000Z</time>
      </trkpt>
      <trkpt lat="47.7997" lon="-3.44201">
        <ele>64.6</ele>
        <time>2021-11-16T10:44:42.000Z</time>
      </trkpt>
      <trkpt lat="47.79984" lon="-3.44206">
        <ele>64.4</ele>
        <time>2021-11-16T10:44:39.000Z</time>
      </trkpt>
      <trkpt lat="47.79999" lon="-3.44213">
        <ele>64.3</ele>
        <time>2021-11-16T10:44:36.000Z</time>
      </trkpt>
      <trkpt lat="47.80013" lon="-3.44219">
        <ele>60.7</ele>
        <time>2021-11-16T10:44:33.000Z</time>
      </trkpt>
      <trkpt lat="47.80027" lon="-3.44225">
        <ele>63.4</ele>
        <time>2021-11-16T10:44:30.000Z</time>
      </trkpt>
      <trkpt lat="47.80041" lon="-3.44229">
        <ele>65.3</ele>
        <time>2021-11-16T10:44:27.000Z</time>
      </trkpt>
      <trkpt lat="47.80055" lon="-3.44235">
        <ele>58.9</ele>
        <time>2021-11-16T10:44:24.000Z</time>
      </trkpt>
      <trkpt lat="47.80068" lon="-3.44243">
        <ele>63.3</ele>
        <time>2021-11-16T10:44:21.000Z</time>
      </trkpt>
      <trkpt lat="47.80082" lon="-3.44255">
        <ele>64.2</ele>
        <time>2021-11-16T10:44:18.000Z</time>
      </trkpt>
      <trkpt lat="47.80097" lon="-3.44268">
        <ele>63.1</ele>
        <time>2021-11-16T10:44:15.000Z</time>
      </trkpt>
      <trkpt lat="47.80114" lon="-3.44276">
        <ele>65.1</ele>
        <time>2021-11-16T10:44:12.000Z</time>
      </trkpt>
      <trkpt lat="47.80132" lon="-3.44282">
        <ele>63.5</ele>
        <time>2021-11-16T10:44:09.000Z</time>
      </trkpt>
      <trkpt lat="47.8015" lon="-3.44287">
        <ele>64.4</ele>
        <time>2021-11-16T10:44:06.000Z</time>
      </trkpt>
      <trkpt lat="47.80167" lon="-3.44291">
        <ele>63.5</ele>
        <time>2021-11-16T10:44:03.000Z</time>
      </trkpt>
      <trkpt lat="47.80185" lon="-3.44293">
        <ele>61.3</ele>
        <time>2021-11-16T10:44:00.000Z</time>
      </trkpt>
      <trkpt lat="47.80203" lon="-3.44297">
        <ele>65.2</ele>
        <time>2021-11-16T10:43:57.000Z</time>
      </trkpt>
      <trkpt lat="47.8022" lon="-3.44303">
        <ele>64.5</ele>
        <time>2021-11-16T10:43:54.000Z</time>
      </trkpt>
      <trkpt lat="47.80237" lon="-3.44311">
        <ele>65.3</ele>
        <time>2021-11-16T10:43:51.000Z</time>
      </trkpt>
      <trkpt lat="47.80251" lon="-3.44323">
        <ele>63.8</ele>
        <time>2021-11-16T10:43:48.000Z</time>
      </trkpt>
      <trkpt lat="47.80267" lon="-3.44326">
        <ele>64.6</ele>
        <time>2021-11-16T10:43:45.000Z</time>
      </trkpt>
      <trkpt lat="47.80283" lon="-3.44332">
        <ele>62.9</ele>
        <time>2021-11-16T10:43:42.000Z</time>
      </trkpt>
      <trkpt lat="47.80298" lon="-3.44341">
        <ele>67.7</ele>
        <time>2021-11-16T10:43:39.000Z</time>
      </trkpt>
      <trkpt lat="47.80309" lon="-3.44357">
        <ele>63.9</ele>
        <time>2021-11-16T10:43:36.000Z</time>
      </trkpt>
      <trkpt lat="47.80323" lon="-3.44365">
        <ele>65</ele>
        <time>2021-11-16T10:43:33.000Z</time>
      </trkpt>
      <trkpt lat="47.80336" lon="-3.44371">
        <ele>63.9</ele>
        <time>2021-11-16T10:43:30.000Z</time>
      </trkpt>
      <trkpt lat="47.80348" lon="-3.44375">
        <ele>64.9</ele>
        <time>2021-11-16T10:43:27.000Z</time>
      </trkpt>
      <trkpt lat="47.8036" lon="-3.44372">
        <ele>64.3</ele>
        <time>2021-11-16T10:43:24.000Z</time>
      </trkpt>
      <trkpt lat="47.80365" lon="-3.44356">
        <ele>63.6</ele>
        <time>2021-11-16T10:43:21.000Z</time>
      </trkpt>
      <trkpt lat="47.80368" lon="-3.44343">
        <ele>63.6</ele>
        <time>2021-11-16T10:43:18.000Z</time>
      </trkpt>
      <trkpt lat="47.8037" lon="-3.44333">
        <ele>64.6</ele>
        <time>2021-11-16T10:43:15.000Z</time>
      </trkpt>
      <trkpt lat="47.8037" lon="-3.4433">
        <ele>64.5</ele>
        <time>2021-11-16T10:43:12.000Z</time>
      </trkpt>
      <trkpt lat="47.8037" lon="-3.4433">
        <ele>64.7</ele>
        <time>2021-11-16T10:43:09.000Z</time>
      </trkpt>
      <trkpt lat="47.8037" lon="-3.4433">
        <ele>64.7</ele>
        <time>2021-11-16T10:43:06.000Z</time>
      </trkpt>
      <trkpt lat="47.8037" lon="-3.4433">
        <ele>64.6</ele>
        <time>2021-11-16T10:43:03.000Z</time>
      </trkpt>
      <trkpt lat="47.8037" lon="-3.4433">
        <ele>64.4</ele>
        <time>2021-11-16T10:43:00.000Z</time>
      </trkpt>
      <trkpt lat="47.8037" lon="-3.4433">
        <ele>64.4</ele>
        <time>2021-11-16T10:42:57.000Z</time>
      </trkpt>
      <trkpt lat="47.8037" lon="-3.4433">
        <ele>64.4</ele>
        <time>2021-11-16T10:42:54.000Z</time>
      </trkpt>
      <trkpt lat="47.8037" lon="-3.4433">
        <ele>64.4</ele>
        <time>2021-11-16T10:42:52.000Z</time>
      </trkpt>
      <trkpt lat="47.80371" lon="-3.44326">
        <ele>64.5</ele>
        <time>2021-11-16T10:42:49.000Z</time>
      </trkpt>
      <trkpt lat="47.80373" lon="-3.44318">
        <ele>64.3</ele>
        <time>2021-11-16T10:42:46.000Z</time>
      </trkpt>
      <trkpt lat="47.80376" lon="-3.44301">
        <ele>63.2</ele>
        <time>2021-11-16T10:42:43.000Z</time>
      </trkpt>
      <trkpt lat="47.8038" lon="-3.44278">
        <ele>63.2</ele>
        <time>2021-11-16T10:42:40.000Z</time>
      </trkpt>
      <trkpt lat="47.80383" lon="-3.44253">
        <ele>63.9</ele>
        <time>2021-11-16T10:42:37.000Z</time>
      </trkpt>
      <trkpt lat="47.80386" lon="-3.44231">
        <ele>64.4</ele>
        <time>2021-11-16T10:42:34.000Z</time>
      </trkpt>
      <trkpt lat="47.80388" lon="-3.44213">
        <ele>65.8</ele>
        <time>2021-11-16T10:42:31.000Z</time>
      </trkpt>
      <trkpt lat="47.80391" lon="-3.44201">
        <ele>65.7</ele>
        <time>2021-11-16T10:42:28.000Z</time>
      </trkpt>
      <trkpt lat="47.80393" lon="-3.44193">
        <ele>65.8</ele>
        <time>2021-11-16T10:42:25.000Z</time>
      </trkpt>
      <trkpt lat="47.80396" lon="-3.44177">
        <ele>65.9</ele>
        <time>2021-11-16T10:42:22.000Z</time>
      </trkpt>
      <trkpt lat="47.80396" lon="-3.44165">
        <ele>66.4</ele>
        <time>2021-11-16T10:42:19.000Z</time>
      </trkpt>
      <trkpt lat="47.80392" lon="-3.44164">
        <ele>67.3</ele>
        <time>2021-11-16T10:42:16.000Z</time>
      </trkpt>
      <trkpt lat="47.80381" lon="-3.44163">
        <ele>67.5</ele>
        <time>2021-11-16T10:42:13.000Z</time>
      </trkpt>
      <trkpt lat="47.80364" lon="-3.4416">
        <ele>68.8</ele>
        <time>2021-11-16T10:42:10.000Z</time>
      </trkpt>
      <trkpt lat="47.80347" lon="-3.44155">
        <ele>70.2</ele>
        <time>2021-11-16T10:42:07.000Z</time>
      </trkpt>
      <trkpt lat="47.80336" lon="-3.44154">
        <ele>71.3</ele>
        <time>2021-11-16T10:42:04.000Z</time>
      </trkpt>
      <trkpt lat="47.80328" lon="-3.44149">
        <ele>72</ele>
        <time>2021-11-16T10:42:01.000Z</time>
      </trkpt>
      <trkpt lat="47.80325" lon="-3.44139">
        <ele>71.9</ele>
        <time>2021-11-16T10:41:58.000Z</time>
      </trkpt>
      <trkpt lat="47.80325" lon="-3.44128">
        <ele>70.2</ele>
        <time>2021-11-16T10:41:55.000Z</time>
      </trkpt>
      <trkpt lat="47.80326" lon="-3.44115">
        <ele>70.7</ele>
        <time>2021-11-16T10:41:52.000Z</time>
      </trkpt>
      <trkpt lat="47.80327" lon="-3.44103">
        <ele>68.7</ele>
        <time>2021-11-16T10:41:49.000Z</time>
      </trkpt>
      <trkpt lat="47.80332" lon="-3.44088">
        <ele>68.7</ele>
        <time>2021-11-16T10:41:46.000Z</time>
      </trkpt>
      <trkpt lat="47.80338" lon="-3.44075">
        <ele>66.6</ele>
        <time>2021-11-16T10:41:43.000Z</time>
      </trkpt>
      <trkpt lat="47.80343" lon="-3.44064">
        <ele>66.9</ele>
        <time>2021-11-16T10:41:40.000Z</time>
      </trkpt>
      <trkpt lat="47.80343" lon="-3.44052">
        <ele>66.1</ele>
        <time>2021-11-16T10:41:37.000Z</time>
      </trkpt>
      <trkpt lat="47.80345" lon="-3.44037">
        <ele>65.8</ele>
        <time>2021-11-16T10:41:34.000Z</time>
      </trkpt>
      <trkpt lat="47.80344" lon="-3.44024">
        <ele>65.8</ele>
        <time>2021-11-16T10:41:31.000Z</time>
      </trkpt>
      <trkpt lat="47.80343" lon="-3.44014">
        <ele>65.1</ele>
        <time>2021-11-16T10:41:28.000Z</time>
      </trkpt>
      <trkpt lat="47.80337" lon="-3.44007">
        <ele>64.7</ele>
        <time>2021-11-16T10:41:25.000Z</time>
      </trkpt>
      <trkpt lat="47.80336" lon="-3.43992">
        <ele>63.4</ele>
        <time>2021-11-16T10:41:22.000Z</time>
      </trkpt>
      <trkpt lat="47.80336" lon="-3.43977">
        <ele>62.4</ele>
        <time>2021-11-16T10:41:19.000Z</time>
      </trkpt>
      <trkpt lat="47.80335" lon="-3.43959">
        <ele>60.8</ele>
        <time>2021-11-16T10:41:16.000Z</time>
      </trkpt>
      <trkpt lat="47.80333" lon="-3.43941">
        <ele>60.1</ele>
        <time>2021-11-16T10:41:13.000Z</time>
      </trkpt>
      <trkpt lat="47.80331" lon="-3.43921">
        <ele>59.4</ele>
        <time>2021-11-16T10:41:10.000Z</time>
      </trkpt>
      <trkpt lat="47.8033" lon="-3.43898">
        <ele>58.1</ele>
        <time>2021-11-16T10:41:07.000Z</time>
      </trkpt>
      <trkpt lat="47.80335" lon="-3.43878">
        <ele>58.1</ele>
        <time>2021-11-16T10:41:04.000Z</time>
      </trkpt>
      <trkpt lat="47.80343" lon="-3.43861">
        <ele>59</ele>
        <time>2021-11-16T10:41:01.000Z</time>
      </trkpt>
      <trkpt lat="47.80347" lon="-3.43844">
        <ele>60.2</ele>
        <time>2021-11-16T10:40:58.000Z</time>
      </trkpt>
      <trkpt lat="47.80349" lon="-3.43835">
        <ele>59.6</ele>
        <time>2021-11-16T10:40:55.000Z</time>
      </trkpt>
      <trkpt lat="47.8035" lon="-3.43829">
        <ele>59.8</ele>
        <time>2021-11-16T10:40:52.000Z</time>
      </trkpt>
      <trkpt lat="47.80351" lon="-3.43826">
        <ele>59.6</ele>
        <time>2021-11-16T10:40:49.000Z</time>
      </trkpt>
      <trkpt lat="47.80351" lon="-3.4382">
        <ele>60.3</ele>
        <time>2021-11-16T10:40:46.000Z</time>
      </trkpt>
      <trkpt lat="47.80354" lon="-3.43814">
        <ele>59.4</ele>
        <time>2021-11-16T10:40:43.000Z</time>
      </trkpt>
      <trkpt lat="47.80355" lon="-3.43809">
        <ele>59.7</ele>
        <time>2021-11-16T10:40:40.000Z</time>
      </trkpt>
      <trkpt lat="47.80358" lon="-3.43793">
        <ele>60.9</ele>
        <time>2021-11-16T10:40:37.000Z</time>
      </trkpt>
      <trkpt lat="47.8036" lon="-3.43775">
        <ele>62.5</ele>
        <time>2021-11-16T10:40:34.000Z</time>
      </trkpt>
      <trkpt lat="47.80362" lon="-3.4376">
        <ele>61.5</ele>
        <time>2021-11-16T10:40:31.000Z</time>
      </trkpt>
      <trkpt lat="47.80363" lon="-3.43745">
        <ele>62.3</ele>
        <time>2021-11-16T10:40:28.000Z</time>
      </trkpt>
      <trkpt lat="47.80364" lon="-3.43729">
        <ele>63.1</ele>
        <time>2021-11-16T10:40:25.000Z</time>
      </trkpt>
      <trkpt lat="47.80367" lon="-3.43711">
        <ele>60.9</ele>
        <time>2021-11-16T10:40:22.000Z</time>
      </trkpt>
      <trkpt lat="47.8037" lon="-3.43693">
        <ele>61.3</ele>
        <time>2021-11-16T10:40:19.000Z</time>
      </trkpt>
      <trkpt lat="47.80374" lon="-3.43677">
        <ele>61.1</ele>
        <time>2021-11-16T10:40:16.000Z</time>
      </trkpt>
      <trkpt lat="47.80377" lon="-3.43664">
        <ele>61.5</ele>
        <time>2021-11-16T10:40:13.000Z</time>
      </trkpt>
      <trkpt lat="47.80375" lon="-3.43655">
        <ele>62.4</ele>
        <time>2021-11-16T10:40:10.000Z</time>
      </trkpt>
      <trkpt lat="47.80371" lon="-3.43655">
        <ele>61.8</ele>
        <time>2021-11-16T10:40:07.000Z</time>
      </trkpt>
      <trkpt lat="47.8037" lon="-3.43657">
        <ele>61.7</ele>
        <time>2021-11-16T10:40:04.000Z</time>
      </trkpt>
      <trkpt lat="47.8037" lon="-3.43657">
        <ele>62.1</ele>
        <time>2021-11-16T10:40:03.000Z</time>
      </trkpt>
      <trkpt lat="47.8037" lon="-3.43657">
        <ele>62.1</ele>
        <time>2021-11-16T10:40:02.000Z</time>
      </trkpt>
      <trkpt lat="47.80371" lon="-3.43657">
        <ele>61.9</ele>
        <time>2021-11-16T10:40:00.000Z</time>
      </trkpt>
      <trkpt lat="47.80371" lon="-3.43657">
        <ele>62</ele>
        <time>2021-11-16T10:39:57.000Z</time>
      </trkpt>
      <trkpt lat="47.80371" lon="-3.43657">
        <ele>62</ele>
        <time>2021-11-16T10:39:54.000Z</time>
      </trkpt>
      <trkpt lat="47.80371" lon="-3.43657">
        <ele>61.8</ele>
        <time>2021-11-16T10:39:51.000Z</time>
      </trkpt>
      <trkpt lat="47.80371" lon="-3.43657">
        <ele>61.9</ele>
        <time>2021-11-16T10:39:48.000Z</time>
      </trkpt>
      <trkpt lat="47.80371" lon="-3.43657">
        <ele>61.9</ele>
        <time>2021-11-16T10:39:45.000Z</time>
      </trkpt>
      <trkpt lat="47.80371" lon="-3.43657">
        <ele>62.1</ele>
        <time>2021-11-16T10:39:42.000Z</time>
      </trkpt>
      <trkpt lat="47.80371" lon="-3.43657">
        <ele>61.8</ele>
        <time>2021-11-16T10:39:39.000Z</time>
      </trkpt>
      <trkpt lat="47.80371" lon="-3.43657">
        <ele>61.4</ele>
        <time>2021-11-16T10:39:36.000Z</time>
      </trkpt>
      <trkpt lat="47.80371" lon="-3.43657">
        <ele>61.7</ele>
        <time>2021-11-16T10:39:33.000Z</time>
      </trkpt>
      <trkpt lat="47.80371" lon="-3.43657">
        <ele>61.8</ele>
        <time>2021-11-16T10:39:30.000Z</time>
      </trkpt>
      <trkpt lat="47.80371" lon="-3.43657">
        <ele>61.8</ele>
        <time>2021-11-16T10:39:27.000Z</time>
      </trkpt>
      <trkpt lat="47.80371" lon="-3.43657">
        <ele>61.8</ele>
        <time>2021-11-16T10:39:24.000Z</time>
      </trkpt>
      <trkpt lat="47.80371" lon="-3.43657">
        <ele>61.9</ele>
        <time>2021-11-16T10:39:21.000Z</time>
      </trkpt>
      <trkpt lat="47.80371" lon="-3.43657">
        <ele>61.8</ele>
        <time>2021-11-16T10:39:18.000Z</time>
      </trkpt>
      <trkpt lat="47.80371" lon="-3.43657">
        <ele>61.9</ele>
        <time>2021-11-16T10:39:15.000Z</time>
      </trkpt>
      <trkpt lat="47.80371" lon="-3.43657">
        <ele>61.6</ele>
        <time>2021-11-16T10:39:12.000Z</time>
      </trkpt>
      <trkpt lat="47.80371" lon="-3.43658">
        <ele>61.7</ele>
        <time>2021-11-16T10:39:10.000Z</time>
      </trkpt>
      <trkpt lat="47.80375" lon="-3.43659">
        <ele>61.9</ele>
        <time>2021-11-16T10:39:07.000Z</time>
      </trkpt>
      <trkpt lat="47.80377" lon="-3.43659">
        <ele>61.8</ele>
        <time>2021-11-16T10:39:04.000Z</time>
      </trkpt>
      <trkpt lat="47.80377" lon="-3.43658">
        <ele>61.7</ele>
        <time>2021-11-16T10:39:02.000Z</time>
      </trkpt>
      <trkpt lat="47.80377" lon="-3.43658">
        <ele>61.9</ele>
        <time>2021-11-16T10:38:59.000Z</time>
      </trkpt>
      <trkpt lat="47.80377" lon="-3.43658">
        <ele>61.8</ele>
        <time>2021-11-16T10:38:58.000Z</time>
      </trkpt>
      <trkpt lat="47.80377" lon="-3.43658">
        <ele>61.8</ele>
        <time>2021-11-16T10:38:57.000Z</time>
      </trkpt>
      <trkpt lat="47.80377" lon="-3.43658">
        <ele>61.6</ele>
        <time>2021-11-16T10:38:54.000Z</time>
      </trkpt>
      <trkpt lat="47.80377" lon="-3.43658">
        <ele>61.7</ele>
        <time>2021-11-16T10:38:51.000Z</time>
      </trkpt>
      <trkpt lat="47.80377" lon="-3.43657">
        <ele>61.9</ele>
        <time>2021-11-16T10:38:48.000Z</time>
      </trkpt>
      <trkpt lat="47.80377" lon="-3.43657">
        <ele>61.7</ele>
        <time>2021-11-16T10:38:45.000Z</time>
      </trkpt>
      <trkpt lat="47.80377" lon="-3.43657">
        <ele>61.5</ele>
        <time>2021-11-16T10:38:42.000Z</time>
      </trkpt>
      <trkpt lat="47.80377" lon="-3.43657">
        <ele>61.7</ele>
        <time>2021-11-16T10:38:39.000Z</time>
      </trkpt>
      <trkpt lat="47.80377" lon="-3.43657">
        <ele>61.3</ele>
        <time>2021-11-16T10:38:36.000Z</time>
      </trkpt>
      <trkpt lat="47.80377" lon="-3.43656">
        <ele>61.5</ele>
        <time>2021-11-16T10:38:33.000Z</time>
      </trkpt>
      <trkpt lat="47.80377" lon="-3.43654">
        <ele>60.9</ele>
        <time>2021-11-16T10:38:30.000Z</time>
      </trkpt>
      <trkpt lat="47.80371" lon="-3.43651">
        <ele>61.4</ele>
        <time>2021-11-16T10:38:27.000Z</time>
      </trkpt>
      <trkpt lat="47.80362" lon="-3.43657">
        <ele>61.9</ele>
        <time>2021-11-16T10:38:24.000Z</time>
      </trkpt>
      <trkpt lat="47.80355" lon="-3.43667">
        <ele>62.2</ele>
        <time>2021-11-16T10:38:21.000Z</time>
      </trkpt>
      <trkpt lat="47.80346" lon="-3.43669">
        <ele>62.4</ele>
        <time>2021-11-16T10:38:18.000Z</time>
      </trkpt>
      <trkpt lat="47.80336" lon="-3.43671">
        <ele>60.1</ele>
        <time>2021-11-16T10:38:15.000Z</time>
      </trkpt>
      <trkpt lat="47.8033" lon="-3.43683">
        <ele>61</ele>
        <time>2021-11-16T10:38:12.000Z</time>
      </trkpt>
      <trkpt lat="47.80322" lon="-3.43697">
        <ele>60.1</ele>
        <time>2021-11-16T10:38:09.000Z</time>
      </trkpt>
      <trkpt lat="47.80316" lon="-3.43705">
        <ele>60.4</ele>
        <time>2021-11-16T10:38:06.000Z</time>
      </trkpt>
      <trkpt lat="47.80307" lon="-3.43702">
        <ele>61.6</ele>
        <time>2021-11-16T10:38:03.000Z</time>
      </trkpt>
      <trkpt lat="47.80298" lon="-3.437">
        <ele>59.4</ele>
        <time>2021-11-16T10:38:00.000Z</time>
      </trkpt>
      <trkpt lat="47.80291" lon="-3.43694">
        <ele>59.4</ele>
        <time>2021-11-16T10:37:57.000Z</time>
      </trkpt>
      <trkpt lat="47.80286" lon="-3.43684">
        <ele>57.1</ele>
        <time>2021-11-16T10:37:54.000Z</time>
      </trkpt>
      <trkpt lat="47.8028" lon="-3.43672">
        <ele>57.2</ele>
        <time>2021-11-16T10:37:51.000Z</time>
      </trkpt>
      <trkpt lat="47.80273" lon="-3.4366">
        <ele>58.3</ele>
        <time>2021-11-16T10:37:48.000Z</time>
      </trkpt>
      <trkpt lat="47.80266" lon="-3.4365">
        <ele>57.6</ele>
        <time>2021-11-16T10:37:45.000Z</time>
      </trkpt>
      <trkpt lat="47.8026" lon="-3.43647">
        <ele>60.5</ele>
        <time>2021-11-16T10:37:42.000Z</time>
      </trkpt>
      <trkpt lat="47.80253" lon="-3.43656">
        <ele>56.1</ele>
        <time>2021-11-16T10:37:39.000Z</time>
      </trkpt>
      <trkpt lat="47.80248" lon="-3.43669">
        <ele>57.9</ele>
        <time>2021-11-16T10:37:36.000Z</time>
      </trkpt>
      <trkpt lat="47.80244" lon="-3.43678">
        <ele>57.1</ele>
        <time>2021-11-16T10:37:33.000Z</time>
      </trkpt>
      <trkpt lat="47.80238" lon="-3.43674">
        <ele>58.7</ele>
        <time>2021-11-16T10:37:30.000Z</time>
      </trkpt>
      <trkpt lat="47.80238" lon="-3.43654">
        <ele>56.5</ele>
        <time>2021-11-16T10:37:27.000Z</time>
      </trkpt>
      <trkpt lat="47.80241" lon="-3.43632">
        <ele>56.9</ele>
        <time>2021-11-16T10:37:24.000Z</time>
      </trkpt>
      <trkpt lat="47.80244" lon="-3.4361">
        <ele>55.6</ele>
        <time>2021-11-16T10:37:21.000Z</time>
      </trkpt>
      <trkpt lat="47.80246" lon="-3.43591">
        <ele>60</ele>
        <time>2021-11-16T10:37:18.000Z</time>
      </trkpt>
      <trkpt lat="47.80246" lon="-3.43569">
        <ele>56.4</ele>
        <time>2021-11-16T10:37:15.000Z</time>
      </trkpt>
      <trkpt lat="47.80248" lon="-3.43547">
        <ele>58.3</ele>
        <time>2021-11-16T10:37:12.000Z</time>
      </trkpt>
      <trkpt lat="47.8025" lon="-3.43527">
        <ele>57.9</ele>
        <time>2021-11-16T10:37:09.000Z</time>
      </trkpt>
      <trkpt lat="47.80251" lon="-3.43513">
        <ele>58.5</ele>
        <time>2021-11-16T10:37:06.000Z</time>
      </trkpt>
      <trkpt lat="47.80253" lon="-3.43499">
        <ele>55.5</ele>
        <time>2021-11-16T10:37:03.000Z</time>
      </trkpt>
      <trkpt lat="47.80255" lon="-3.43484">
        <ele>58.9</ele>
        <time>2021-11-16T10:37:00.000Z</time>
      </trkpt>
      <trkpt lat="47.80255" lon="-3.43471">
        <ele>59.2</ele>
        <time>2021-11-16T10:36:57.000Z</time>
      </trkpt>
      <trkpt lat="47.80256" lon="-3.43459">
        <ele>58.2</ele>
        <time>2021-11-16T10:36:54.000Z</time>
      </trkpt>
      <trkpt lat="47.80257" lon="-3.43448">
        <ele>56.4</ele>
        <time>2021-11-16T10:36:51.000Z</time>
      </trkpt>
      <trkpt lat="47.80259" lon="-3.43435">
        <ele>56.3</ele>
        <time>2021-11-16T10:36:48.000Z</time>
      </trkpt>
      <trkpt lat="47.80263" lon="-3.43423">
        <ele>55.2</ele>
        <time>2021-11-16T10:36:45.000Z</time>
      </trkpt>
      <trkpt lat="47.8027" lon="-3.4341">
        <ele>55.4</ele>
        <time>2021-11-16T10:36:42.000Z</time>
      </trkpt>
      <trkpt lat="47.80278" lon="-3.43396">
        <ele>50</ele>
        <time>2021-11-16T10:36:39.000Z</time>
      </trkpt>
      <trkpt lat="47.80286" lon="-3.43385">
        <ele>53.8</ele>
        <time>2021-11-16T10:36:36.000Z</time>
      </trkpt>
      <trkpt lat="47.80291" lon="-3.43372">
        <ele>50.3</ele>
        <time>2021-11-16T10:36:33.000Z</time>
      </trkpt>
      <trkpt lat="47.80284" lon="-3.43357">
        <ele>54.4</ele>
        <time>2021-11-16T10:36:30.000Z</time>
      </trkpt>
      <trkpt lat="47.80274" lon="-3.43348">
        <ele>53.9</ele>
        <time>2021-11-16T10:36:27.000Z</time>
      </trkpt>
      <trkpt lat="47.80268" lon="-3.43332">
        <ele>50.1</ele>
        <time>2021-11-16T10:36:24.000Z</time>
      </trkpt>
      <trkpt lat="47.80272" lon="-3.43318">
        <ele>51.3</ele>
        <time>2021-11-16T10:36:21.000Z</time>
      </trkpt>
      <trkpt lat="47.8028" lon="-3.43306">
        <ele>50.6</ele>
        <time>2021-11-16T10:36:18.000Z</time>
      </trkpt>
      <trkpt lat="47.80293" lon="-3.43292">
        <ele>50.2</ele>
        <time>2021-11-16T10:36:15.000Z</time>
      </trkpt>
      <trkpt lat="47.80304" lon="-3.43274">
        <ele>50.7</ele>
        <time>2021-11-16T10:36:12.000Z</time>
      </trkpt>
      <trkpt lat="47.80315" lon="-3.43255">
        <ele>50.1</ele>
        <time>2021-11-16T10:36:09.000Z</time>
      </trkpt>
      <trkpt lat="47.80326" lon="-3.43237">
        <ele>50.7</ele>
        <time>2021-11-16T10:36:06.000Z</time>
      </trkpt>
      <trkpt lat="47.80337" lon="-3.43219">
        <ele>50.3</ele>
        <time>2021-11-16T10:36:03.000Z</time>
      </trkpt>
      <trkpt lat="47.80346" lon="-3.432">
        <ele>50.3</ele>
        <time>2021-11-16T10:36:00.000Z</time>
      </trkpt>
      <trkpt lat="47.80352" lon="-3.4318">
        <ele>51.7</ele>
        <time>2021-11-16T10:35:57.000Z</time>
      </trkpt>
      <trkpt lat="47.80358" lon="-3.4316">
        <ele>50.7</ele>
        <time>2021-11-16T10:35:54.000Z</time>
      </trkpt>
      <trkpt lat="47.80368" lon="-3.43138">
        <ele>49.9</ele>
        <time>2021-11-16T10:35:51.000Z</time>
      </trkpt>
      <trkpt lat="47.80379" lon="-3.43118">
        <ele>52</ele>
        <time>2021-11-16T10:35:48.000Z</time>
      </trkpt>
      <trkpt lat="47.80388" lon="-3.431">
        <ele>49.7</ele>
        <time>2021-11-16T10:35:45.000Z</time>
      </trkpt>
      <trkpt lat="47.80397" lon="-3.43082">
        <ele>49.4</ele>
        <time>2021-11-16T10:35:42.000Z</time>
      </trkpt>
      <trkpt lat="47.80404" lon="-3.4307">
        <ele>51.5</ele>
        <time>2021-11-16T10:35:39.000Z</time>
      </trkpt>
      <trkpt lat="47.80416" lon="-3.43062">
        <ele>49</ele>
        <time>2021-11-16T10:35:36.000Z</time>
      </trkpt>
      <trkpt lat="47.8043" lon="-3.43059">
        <ele>49.5</ele>
        <time>2021-11-16T10:35:33.000Z</time>
      </trkpt>
      <trkpt lat="47.80445" lon="-3.43061">
        <ele>50</ele>
        <time>2021-11-16T10:35:30.000Z</time>
      </trkpt>
      <trkpt lat="47.80458" lon="-3.43062">
        <ele>48.7</ele>
        <time>2021-11-16T10:35:27.000Z</time>
      </trkpt>
      <trkpt lat="47.80471" lon="-3.43064">
        <ele>49.6</ele>
        <time>2021-11-16T10:35:24.000Z</time>
      </trkpt>
      <trkpt lat="47.80483" lon="-3.43061">
        <ele>48.4</ele>
        <time>2021-11-16T10:35:21.000Z</time>
      </trkpt>
      <trkpt lat="47.80494" lon="-3.43062">
        <ele>49.1</ele>
        <time>2021-11-16T10:35:18.000Z</time>
      </trkpt>
      <trkpt lat="47.80502" lon="-3.43063">
        <ele>49.6</ele>
        <time>2021-11-16T10:35:15.000Z</time>
      </trkpt>
      <trkpt lat="47.80509" lon="-3.43063">
        <ele>49.5</ele>
        <time>2021-11-16T10:35:12.000Z</time>
      </trkpt>
      <trkpt lat="47.80509" lon="-3.43061">
        <ele>50.1</ele>
        <time>2021-11-16T10:35:09.000Z</time>
      </trkpt>
      <trkpt lat="47.80509" lon="-3.43061">
        <ele>49.8</ele>
        <time>2021-11-16T10:35:06.000Z</time>
      </trkpt>
      <trkpt lat="47.80509" lon="-3.43061">
        <ele>49.7</ele>
        <time>2021-11-16T10:35:05.000Z</time>
      </trkpt>
      <trkpt lat="47.80509" lon="-3.43061">
        <ele>50</ele>
        <time>2021-11-16T10:35:02.000Z</time>
      </trkpt>
      <trkpt lat="47.80509" lon="-3.43061">
        <ele>50.1</ele>
        <time>2021-11-16T10:34:59.000Z</time>
      </trkpt>
      <trkpt lat="47.80509" lon="-3.43061">
        <ele>50.1</ele>
        <time>2021-11-16T10:34:56.000Z</time>
      </trkpt>
      <trkpt lat="47.80509" lon="-3.43061">
        <ele>50.2</ele>
        <time>2021-11-16T10:34:53.000Z</time>
      </trkpt>
      <trkpt lat="47.80509" lon="-3.43061">
        <ele>50.2</ele>
        <time>2021-11-16T10:34:50.000Z</time>
      </trkpt>
      <trkpt lat="47.80509" lon="-3.43061">
        <ele>50</ele>
        <time>2021-11-16T10:34:47.000Z</time>
      </trkpt>
      <trkpt lat="47.80509" lon="-3.43061">
        <ele>50</ele>
        <time>2021-11-16T10:34:44.000Z</time>
      </trkpt>
      <trkpt lat="47.80509" lon="-3.43061">
        <ele>50</ele>
        <time>2021-11-16T10:34:43.000Z</time>
      </trkpt>
      <trkpt lat="47.80509" lon="-3.4306">
        <ele>50.1</ele>
        <time>2021-11-16T10:34:42.000Z</time>
      </trkpt>
      <trkpt lat="47.80509" lon="-3.4306">
        <ele>50.3</ele>
        <time>2021-11-16T10:34:39.000Z</time>
      </trkpt>
      <trkpt lat="47.80509" lon="-3.4306">
        <ele>50</ele>
        <time>2021-11-16T10:34:36.000Z</time>
      </trkpt>
      <trkpt lat="47.80509" lon="-3.4306">
        <ele>49.9</ele>
        <time>2021-11-16T10:34:33.000Z</time>
      </trkpt>
      <trkpt lat="47.8051" lon="-3.4306">
        <ele>49.9</ele>
        <time>2021-11-16T10:34:31.000Z</time>
      </trkpt>
      <trkpt lat="47.8051" lon="-3.43061">
        <ele>50.3</ele>
        <time>2021-11-16T10:34:30.000Z</time>
      </trkpt>
      <trkpt lat="47.80511" lon="-3.43062">
        <ele>50.1</ele>
        <time>2021-11-16T10:34:27.000Z</time>
      </trkpt>
      <trkpt lat="47.80514" lon="-3.43067">
        <ele>49.7</ele>
        <time>2021-11-16T10:34:24.000Z</time>
      </trkpt>
      <trkpt lat="47.80522" lon="-3.43073">
        <ele>49.4</ele>
        <time>2021-11-16T10:34:21.000Z</time>
      </trkpt>
      <trkpt lat="47.80534" lon="-3.4308">
        <ele>49.1</ele>
        <time>2021-11-16T10:34:18.000Z</time>
      </trkpt>
      <trkpt lat="47.8055" lon="-3.4309">
        <ele>48.4</ele>
        <time>2021-11-16T10:34:15.000Z</time>
      </trkpt>
      <trkpt lat="47.8057" lon="-3.43098">
        <ele>47.8</ele>
        <time>2021-11-16T10:34:12.000Z</time>
      </trkpt>
      <trkpt lat="47.80588" lon="-3.43112">
        <ele>50.8</ele>
        <time>2021-11-16T10:34:09.000Z</time>
      </trkpt>
      <trkpt lat="47.80597" lon="-3.43136">
        <ele>49.5</ele>
        <time>2021-11-16T10:34:06.000Z</time>
      </trkpt>
      <trkpt lat="47.80607" lon="-3.43156">
        <ele>48.5</ele>
        <time>2021-11-16T10:34:03.000Z</time>
      </trkpt>
      <trkpt lat="47.80617" lon="-3.43178">
        <ele>49</ele>
        <time>2021-11-16T10:34:00.000Z</time>
      </trkpt>
      <trkpt lat="47.80627" lon="-3.43199">
        <ele>49.4</ele>
        <time>2021-11-16T10:33:57.000Z</time>
      </trkpt>
      <trkpt lat="47.80636" lon="-3.43226">
        <ele>49.7</ele>
        <time>2021-11-16T10:33:54.000Z</time>
      </trkpt>
      <trkpt lat="47.80637" lon="-3.43253">
        <ele>50.3</ele>
        <time>2021-11-16T10:33:51.000Z</time>
      </trkpt>
      <trkpt lat="47.80639" lon="-3.43276">
        <ele>49</ele>
        <time>2021-11-16T10:33:48.000Z</time>
      </trkpt>
      <trkpt lat="47.80638" lon="-3.43301">
        <ele>50.8</ele>
        <time>2021-11-16T10:33:45.000Z</time>
      </trkpt>
      <trkpt lat="47.80637" lon="-3.43324">
        <ele>49.8</ele>
        <time>2021-11-16T10:33:42.000Z</time>
      </trkpt>
      <trkpt lat="47.80637" lon="-3.43349">
        <ele>50.8</ele>
        <time>2021-11-16T10:33:39.000Z</time>
      </trkpt>
      <trkpt lat="47.80643" lon="-3.43373">
        <ele>51.8</ele>
        <time>2021-11-16T10:33:36.000Z</time>
      </trkpt>
      <trkpt lat="47.80659" lon="-3.43393">
        <ele>50.9</ele>
        <time>2021-11-16T10:33:33.000Z</time>
      </trkpt>
      <trkpt lat="47.80674" lon="-3.43408">
        <ele>51.7</ele>
        <time>2021-11-16T10:33:30.000Z</time>
      </trkpt>
      <trkpt lat="47.80691" lon="-3.43419">
        <ele>51.8</ele>
        <time>2021-11-16T10:33:27.000Z</time>
      </trkpt>
      <trkpt lat="47.80708" lon="-3.43423">
        <ele>53.7</ele>
        <time>2021-11-16T10:33:24.000Z</time>
      </trkpt>
      <trkpt lat="47.80724" lon="-3.43426">
        <ele>53.9</ele>
        <time>2021-11-16T10:33:21.000Z</time>
      </trkpt>
      <trkpt lat="47.80739" lon="-3.4343">
        <ele>52.5</ele>
        <time>2021-11-16T10:33:18.000Z</time>
      </trkpt>
      <trkpt lat="47.80753" lon="-3.43433">
        <ele>53.7</ele>
        <time>2021-11-16T10:33:15.000Z</time>
      </trkpt>
      <trkpt lat="47.80765" lon="-3.4344">
        <ele>54.4</ele>
        <time>2021-11-16T10:33:12.000Z</time>
      </trkpt>
      <trkpt lat="47.80775" lon="-3.43447">
        <ele>54.3</ele>
        <time>2021-11-16T10:33:09.000Z</time>
      </trkpt>
      <trkpt lat="47.80785" lon="-3.43455">
        <ele>53.6</ele>
        <time>2021-11-16T10:33:06.000Z</time>
      </trkpt>
      <trkpt lat="47.80796" lon="-3.43462">
        <ele>53.1</ele>
        <time>2021-11-16T10:33:03.000Z</time>
      </trkpt>
      <trkpt lat="47.80805" lon="-3.43467">
        <ele>54.7</ele>
        <time>2021-11-16T10:33:00.000Z</time>
      </trkpt>
      <trkpt lat="47.80811" lon="-3.43471">
        <ele>55</ele>
        <time>2021-11-16T10:32:57.000Z</time>
      </trkpt>
      <trkpt lat="47.80817" lon="-3.43476">
        <ele>54.4</ele>
        <time>2021-11-16T10:32:54.000Z</time>
      </trkpt>
      <trkpt lat="47.80819" lon="-3.43479">
        <ele>54.9</ele>
        <time>2021-11-16T10:32:51.000Z</time>
      </trkpt>
      <trkpt lat="47.80821" lon="-3.43481">
        <ele>54.5</ele>
        <time>2021-11-16T10:32:48.000Z</time>
      </trkpt>
      <trkpt lat="47.80823" lon="-3.43483">
        <ele>54.4</ele>
        <time>2021-11-16T10:32:45.000Z</time>
      </trkpt>
      <trkpt lat="47.80823" lon="-3.43486">
        <ele>54.7</ele>
        <time>2021-11-16T10:32:42.000Z</time>
      </trkpt>
      <trkpt lat="47.80824" lon="-3.43489">
        <ele>54.6</ele>
        <time>2021-11-16T10:32:39.000Z</time>
      </trkpt>
      <trkpt lat="47.80824" lon="-3.43491">
        <ele>54.2</ele>
        <time>2021-11-16T10:32:36.000Z</time>
      </trkpt>
      <trkpt lat="47.80825" lon="-3.43493">
        <ele>54.6</ele>
        <time>2021-11-16T10:32:33.000Z</time>
      </trkpt>
      <trkpt lat="47.80824" lon="-3.43494">
        <ele>54.5</ele>
        <time>2021-11-16T10:32:30.000Z</time>
      </trkpt>
      <trkpt lat="47.8083" lon="-3.435">
        <ele>53.2</ele>
        <time>2021-11-16T10:32:27.000Z</time>
      </trkpt>
      <trkpt lat="47.80851" lon="-3.43504">
        <ele>52.8</ele>
        <time>2021-11-16T10:32:24.000Z</time>
      </trkpt>
      <trkpt lat="47.80873" lon="-3.43511">
        <ele>53.3</ele>
        <time>2021-11-16T10:32:21.000Z</time>
      </trkpt>
      <trkpt lat="47.80897" lon="-3.43516">
        <ele>53.4</ele>
        <time>2021-11-16T10:32:18.000Z</time>
      </trkpt>
      <trkpt lat="47.80921" lon="-3.43522">
        <ele>53.9</ele>
        <time>2021-11-16T10:32:15.000Z</time>
      </trkpt>
      <trkpt lat="47.80946" lon="-3.43527">
        <ele>54.8</ele>
        <time>2021-11-16T10:32:12.000Z</time>
      </trkpt>
      <trkpt lat="47.8097" lon="-3.43533">
        <ele>55.9</ele>
        <time>2021-11-16T10:32:09.000Z</time>
      </trkpt>
      <trkpt lat="47.80993" lon="-3.43537">
        <ele>56.2</ele>
        <time>2021-11-16T10:32:06.000Z</time>
      </trkpt>
      <trkpt lat="47.81017" lon="-3.43538">
        <ele>56.6</ele>
        <time>2021-11-16T10:32:03.000Z</time>
      </trkpt>
      <trkpt lat="47.81039" lon="-3.43535">
        <ele>57.4</ele>
        <time>2021-11-16T10:32:00.000Z</time>
      </trkpt>
      <trkpt lat="47.81062" lon="-3.43531">
        <ele>58.4</ele>
        <time>2021-11-16T10:31:57.000Z</time>
      </trkpt>
      <trkpt lat="47.81083" lon="-3.43526">
        <ele>58.8</ele>
        <time>2021-11-16T10:31:54.000Z</time>
      </trkpt>
      <trkpt lat="47.81105" lon="-3.43522">
        <ele>59</ele>
        <time>2021-11-16T10:31:51.000Z</time>
      </trkpt>
      <trkpt lat="47.81126" lon="-3.43517">
        <ele>60.6</ele>
        <time>2021-11-16T10:31:48.000Z</time>
      </trkpt>
      <trkpt lat="47.81147" lon="-3.43513">
        <ele>60.3</ele>
        <time>2021-11-16T10:31:45.000Z</time>
      </trkpt>
      <trkpt lat="47.81168" lon="-3.43508">
        <ele>59.2</ele>
        <time>2021-11-16T10:31:42.000Z</time>
      </trkpt>
      <trkpt lat="47.81188" lon="-3.43502">
        <ele>60.8</ele>
        <time>2021-11-16T10:31:39.000Z</time>
      </trkpt>
      <trkpt lat="47.81209" lon="-3.43498">
        <ele>60.8</ele>
        <time>2021-11-16T10:31:36.000Z</time>
      </trkpt>
      <trkpt lat="47.8123" lon="-3.43496">
        <ele>61.6</ele>
        <time>2021-11-16T10:31:33.000Z</time>
      </trkpt>
      <trkpt lat="47.81252" lon="-3.43495">
        <ele>62.3</ele>
        <time>2021-11-16T10:31:30.000Z</time>
      </trkpt>
      <trkpt lat="47.81272" lon="-3.43495">
        <ele>62.8</ele>
        <time>2021-11-16T10:31:27.000Z</time>
      </trkpt>
      <trkpt lat="47.81292" lon="-3.43494">
        <ele>63.4</ele>
        <time>2021-11-16T10:31:24.000Z</time>
      </trkpt>
      <trkpt lat="47.81311" lon="-3.43494">
        <ele>64.1</ele>
        <time>2021-11-16T10:31:21.000Z</time>
      </trkpt>
      <trkpt lat="47.81328" lon="-3.43494">
        <ele>64.7</ele>
        <time>2021-11-16T10:31:18.000Z</time>
      </trkpt>
      <trkpt lat="47.81344" lon="-3.43495">
        <ele>64.8</ele>
        <time>2021-11-16T10:31:15.000Z</time>
      </trkpt>
      <trkpt lat="47.81359" lon="-3.43495">
        <ele>66.2</ele>
        <time>2021-11-16T10:31:12.000Z</time>
      </trkpt>
      <trkpt lat="47.81373" lon="-3.43495">
        <ele>65.5</ele>
        <time>2021-11-16T10:31:09.000Z</time>
      </trkpt>
      <trkpt lat="47.81385" lon="-3.43493">
        <ele>65.3</ele>
        <time>2021-11-16T10:31:06.000Z</time>
      </trkpt>
      <trkpt lat="47.81398" lon="-3.43489">
        <ele>64.5</ele>
        <time>2021-11-16T10:31:03.000Z</time>
      </trkpt>
      <trkpt lat="47.8141" lon="-3.43485">
        <ele>64.3</ele>
        <time>2021-11-16T10:31:00.000Z</time>
      </trkpt>
      <trkpt lat="47.81422" lon="-3.4348">
        <ele>63.8</ele>
        <time>2021-11-16T10:30:57.000Z</time>
      </trkpt>
      <trkpt lat="47.81434" lon="-3.43474">
        <ele>63.1</ele>
        <time>2021-11-16T10:30:54.000Z</time>
      </trkpt>
      <trkpt lat="47.81446" lon="-3.43468">
        <ele>62</ele>
        <time>2021-11-16T10:30:51.000Z</time>
      </trkpt>
      <trkpt lat="47.81457" lon="-3.43462">
        <ele>61.6</ele>
        <time>2021-11-16T10:30:48.000Z</time>
      </trkpt>
      <trkpt lat="47.81468" lon="-3.43456">
        <ele>60</ele>
        <time>2021-11-16T10:30:45.000Z</time>
      </trkpt>
      <trkpt lat="47.81479" lon="-3.43449">
        <ele>60</ele>
        <time>2021-11-16T10:30:42.000Z</time>
      </trkpt>
      <trkpt lat="47.8149" lon="-3.43441">
        <ele>58.4</ele>
        <time>2021-11-16T10:30:39.000Z</time>
      </trkpt>
      <trkpt lat="47.81502" lon="-3.43433">
        <ele>58.8</ele>
        <time>2021-11-16T10:30:36.000Z</time>
      </trkpt>
      <trkpt lat="47.81513" lon="-3.43426">
        <ele>56.8</ele>
        <time>2021-11-16T10:30:33.000Z</time>
      </trkpt>
      <trkpt lat="47.81526" lon="-3.43419">
        <ele>56.6</ele>
        <time>2021-11-16T10:30:30.000Z</time>
      </trkpt>
      <trkpt lat="47.81538" lon="-3.43415">
        <ele>56.6</ele>
        <time>2021-11-16T10:30:27.000Z</time>
      </trkpt>
      <trkpt lat="47.81551" lon="-3.43413">
        <ele>55</ele>
        <time>2021-11-16T10:30:24.000Z</time>
      </trkpt>
      <trkpt lat="47.81564" lon="-3.43415">
        <ele>54.1</ele>
        <time>2021-11-16T10:30:21.000Z</time>
      </trkpt>
      <trkpt lat="47.81577" lon="-3.43418">
        <ele>54</ele>
        <time>2021-11-16T10:30:18.000Z</time>
      </trkpt>
      <trkpt lat="47.81588" lon="-3.43424">
        <ele>53.6</ele>
        <time>2021-11-16T10:30:15.000Z</time>
      </trkpt>
      <trkpt lat="47.816" lon="-3.43431">
        <ele>52.9</ele>
        <time>2021-11-16T10:30:12.000Z</time>
      </trkpt>
      <trkpt lat="47.81613" lon="-3.4344">
        <ele>51.8</ele>
        <time>2021-11-16T10:30:09.000Z</time>
      </trkpt>
      <trkpt lat="47.81625" lon="-3.43448">
        <ele>51.2</ele>
        <time>2021-11-16T10:30:06.000Z</time>
      </trkpt>
      <trkpt lat="47.81637" lon="-3.43456">
        <ele>50.5</ele>
        <time>2021-11-16T10:30:03.000Z</time>
      </trkpt>
      <trkpt lat="47.8165" lon="-3.43463">
        <ele>50</ele>
        <time>2021-11-16T10:30:00.000Z</time>
      </trkpt>
      <trkpt lat="47.81664" lon="-3.43471">
        <ele>49.1</ele>
        <time>2021-11-16T10:29:57.000Z</time>
      </trkpt>
      <trkpt lat="47.81677" lon="-3.4348">
        <ele>47.1</ele>
        <time>2021-11-16T10:29:54.000Z</time>
      </trkpt>
      <trkpt lat="47.81692" lon="-3.43489">
        <ele>46.7</ele>
        <time>2021-11-16T10:29:51.000Z</time>
      </trkpt>
      <trkpt lat="47.81706" lon="-3.43497">
        <ele>46.6</ele>
        <time>2021-11-16T10:29:48.000Z</time>
      </trkpt>
      <trkpt lat="47.81722" lon="-3.43506">
        <ele>45</ele>
        <time>2021-11-16T10:29:45.000Z</time>
      </trkpt>
      <trkpt lat="47.81739" lon="-3.43515">
        <ele>45.4</ele>
        <time>2021-11-16T10:29:42.000Z</time>
      </trkpt>
      <trkpt lat="47.81758" lon="-3.43524">
        <ele>43.3</ele>
        <time>2021-11-16T10:29:39.000Z</time>
      </trkpt>
      <trkpt lat="47.81778" lon="-3.43529">
        <ele>43.9</ele>
        <time>2021-11-16T10:29:36.000Z</time>
      </trkpt>
      <trkpt lat="47.81797" lon="-3.43539">
        <ele>43.8</ele>
        <time>2021-11-16T10:29:33.000Z</time>
      </trkpt>
      <trkpt lat="47.81805" lon="-3.43573">
        <ele>45.4</ele>
        <time>2021-11-16T10:29:30.000Z</time>
      </trkpt>
      <trkpt lat="47.8181" lon="-3.43614">
        <ele>46</ele>
        <time>2021-11-16T10:29:27.000Z</time>
      </trkpt>
      <trkpt lat="47.81815" lon="-3.43654">
        <ele>47.4</ele>
        <time>2021-11-16T10:29:24.000Z</time>
      </trkpt>
      <trkpt lat="47.81819" lon="-3.43692">
        <ele>47</ele>
        <time>2021-11-16T10:29:21.000Z</time>
      </trkpt>
      <trkpt lat="47.81823" lon="-3.43728">
        <ele>49.2</ele>
        <time>2021-11-16T10:29:18.000Z</time>
      </trkpt>
      <trkpt lat="47.81818" lon="-3.43761">
        <ele>50.4</ele>
        <time>2021-11-16T10:29:15.000Z</time>
      </trkpt>
      <trkpt lat="47.81808" lon="-3.43791">
        <ele>49.4</ele>
        <time>2021-11-16T10:29:12.000Z</time>
      </trkpt>
      <trkpt lat="47.81799" lon="-3.43821">
        <ele>49.7</ele>
        <time>2021-11-16T10:29:09.000Z</time>
      </trkpt>
      <trkpt lat="47.8179" lon="-3.4385">
        <ele>50.7</ele>
        <time>2021-11-16T10:29:06.000Z</time>
      </trkpt>
      <trkpt lat="47.81781" lon="-3.43879">
        <ele>52.3</ele>
        <time>2021-11-16T10:29:03.000Z</time>
      </trkpt>
      <trkpt lat="47.81772" lon="-3.43906">
        <ele>53.1</ele>
        <time>2021-11-16T10:29:00.000Z</time>
      </trkpt>
      <trkpt lat="47.81764" lon="-3.43933">
        <ele>54.3</ele>
        <time>2021-11-16T10:28:57.000Z</time>
      </trkpt>
      <trkpt lat="47.81755" lon="-3.43958">
        <ele>53.3</ele>
        <time>2021-11-16T10:28:54.000Z</time>
      </trkpt>
      <trkpt lat="47.81747" lon="-3.43985">
        <ele>55.4</ele>
        <time>2021-11-16T10:28:51.000Z</time>
      </trkpt>
      <trkpt lat="47.81739" lon="-3.44011">
        <ele>54.5</ele>
        <time>2021-11-16T10:28:48.000Z</time>
      </trkpt>
      <trkpt lat="47.81734" lon="-3.4404">
        <ele>53.8</ele>
        <time>2021-11-16T10:28:45.000Z</time>
      </trkpt>
      <trkpt lat="47.81745" lon="-3.4406">
        <ele>55.4</ele>
        <time>2021-11-16T10:28:42.000Z</time>
      </trkpt>
      <trkpt lat="47.81761" lon="-3.44071">
        <ele>55.4</ele>
        <time>2021-11-16T10:28:39.000Z</time>
      </trkpt>
      <trkpt lat="47.81776" lon="-3.44082">
        <ele>56</ele>
        <time>2021-11-16T10:28:36.000Z</time>
      </trkpt>
      <trkpt lat="47.8179" lon="-3.44092">
        <ele>56.4</ele>
        <time>2021-11-16T10:28:33.000Z</time>
      </trkpt>
      <trkpt lat="47.81801" lon="-3.44099">
        <ele>56.8</ele>
        <time>2021-11-16T10:28:30.000Z</time>
      </trkpt>
      <trkpt lat="47.81812" lon="-3.44105">
        <ele>56.4</ele>
        <time>2021-11-16T10:28:27.000Z</time>
      </trkpt>
      <trkpt lat="47.81823" lon="-3.4411">
        <ele>55.6</ele>
        <time>2021-11-16T10:28:24.000Z</time>
      </trkpt>
      <trkpt lat="47.81833" lon="-3.44116">
        <ele>55.4</ele>
        <time>2021-11-16T10:28:21.000Z</time>
      </trkpt>
      <trkpt lat="47.81843" lon="-3.4412">
        <ele>54.5</ele>
        <time>2021-11-16T10:28:18.000Z</time>
      </trkpt>
      <trkpt lat="47.81853" lon="-3.44126">
        <ele>54</ele>
        <time>2021-11-16T10:28:15.000Z</time>
      </trkpt>
      <trkpt lat="47.81864" lon="-3.4413">
        <ele>53.1</ele>
        <time>2021-11-16T10:28:12.000Z</time>
      </trkpt>
      <trkpt lat="47.81876" lon="-3.44133">
        <ele>52</ele>
        <time>2021-11-16T10:28:09.000Z</time>
      </trkpt>
      <trkpt lat="47.81888" lon="-3.44135">
        <ele>51</ele>
        <time>2021-11-16T10:28:06.000Z</time>
      </trkpt>
      <trkpt lat="47.81899" lon="-3.44137">
        <ele>50.2</ele>
        <time>2021-11-16T10:28:03.000Z</time>
      </trkpt>
      <trkpt lat="47.8191" lon="-3.44138">
        <ele>49.6</ele>
        <time>2021-11-16T10:28:00.000Z</time>
      </trkpt>
      <trkpt lat="47.81922" lon="-3.44139">
        <ele>48.5</ele>
        <time>2021-11-16T10:27:57.000Z</time>
      </trkpt>
      <trkpt lat="47.81935" lon="-3.44139">
        <ele>47.8</ele>
        <time>2021-11-16T10:27:54.000Z</time>
      </trkpt>
      <trkpt lat="47.81949" lon="-3.44141">
        <ele>46.4</ele>
        <time>2021-11-16T10:27:51.000Z</time>
      </trkpt>
      <trkpt lat="47.81962" lon="-3.44152">
        <ele>46.1</ele>
        <time>2021-11-16T10:27:48.000Z</time>
      </trkpt>
      <trkpt lat="47.81969" lon="-3.44169">
        <ele>45</ele>
        <time>2021-11-16T10:27:45.000Z</time>
      </trkpt>
      <trkpt lat="47.81969" lon="-3.44197">
        <ele>42.9</ele>
        <time>2021-11-16T10:27:42.000Z</time>
      </trkpt>
      <trkpt lat="47.81959" lon="-3.44228">
        <ele>41.5</ele>
        <time>2021-11-16T10:27:39.000Z</time>
      </trkpt>
      <trkpt lat="47.81947" lon="-3.44265">
        <ele>39.2</ele>
        <time>2021-11-16T10:27:36.000Z</time>
      </trkpt>
      <trkpt lat="47.81933" lon="-3.44309">
        <ele>37.5</ele>
        <time>2021-11-16T10:27:33.000Z</time>
      </trkpt>
      <trkpt lat="47.81919" lon="-3.44359">
        <ele>38.6</ele>
        <time>2021-11-16T10:27:30.000Z</time>
      </trkpt>
      <trkpt lat="47.81909" lon="-3.44409">
        <ele>41</ele>
        <time>2021-11-16T10:27:27.000Z</time>
      </trkpt>
      <trkpt lat="47.81902" lon="-3.44457">
        <ele>43.6</ele>
        <time>2021-11-16T10:27:24.000Z</time>
      </trkpt>
      <trkpt lat="47.81895" lon="-3.44503">
        <ele>45.9</ele>
        <time>2021-11-16T10:27:21.000Z</time>
      </trkpt>
      <trkpt lat="47.81888" lon="-3.44549">
        <ele>48.3</ele>
        <time>2021-11-16T10:27:18.000Z</time>
      </trkpt>
      <trkpt lat="47.81883" lon="-3.44593">
        <ele>51.3</ele>
        <time>2021-11-16T10:27:15.000Z</time>
      </trkpt>
      <trkpt lat="47.81881" lon="-3.44633">
        <ele>53.5</ele>
        <time>2021-11-16T10:27:12.000Z</time>
      </trkpt>
      <trkpt lat="47.81881" lon="-3.44671">
        <ele>54.7</ele>
        <time>2021-11-16T10:27:09.000Z</time>
      </trkpt>
      <trkpt lat="47.8188" lon="-3.44709">
        <ele>53.7</ele>
        <time>2021-11-16T10:27:06.000Z</time>
      </trkpt>
      <trkpt lat="47.8188" lon="-3.44752">
        <ele>51.2</ele>
        <time>2021-11-16T10:27:03.000Z</time>
      </trkpt>
      <trkpt lat="47.81882" lon="-3.44801">
        <ele>52.8</ele>
        <time>2021-11-16T10:27:00.000Z</time>
      </trkpt>
      <trkpt lat="47.8189" lon="-3.44847">
        <ele>56.6</ele>
        <time>2021-11-16T10:26:57.000Z</time>
      </trkpt>
      <trkpt lat="47.81899" lon="-3.44883">
        <ele>58.5</ele>
        <time>2021-11-16T10:26:54.000Z</time>
      </trkpt>
      <trkpt lat="47.81901" lon="-3.44916">
        <ele>61.5</ele>
        <time>2021-11-16T10:26:51.000Z</time>
      </trkpt>
      <trkpt lat="47.81902" lon="-3.44947">
        <ele>62</ele>
        <time>2021-11-16T10:26:48.000Z</time>
      </trkpt>
      <trkpt lat="47.81904" lon="-3.44973">
        <ele>63</ele>
        <time>2021-11-16T10:26:45.000Z</time>
      </trkpt>
      <trkpt lat="47.81906" lon="-3.44997">
        <ele>63.1</ele>
        <time>2021-11-16T10:26:42.000Z</time>
      </trkpt>
      <trkpt lat="47.81906" lon="-3.4502">
        <ele>62.9</ele>
        <time>2021-11-16T10:26:39.000Z</time>
      </trkpt>
      <trkpt lat="47.81908" lon="-3.45042">
        <ele>62.6</ele>
        <time>2021-11-16T10:26:36.000Z</time>
      </trkpt>
      <trkpt lat="47.8191" lon="-3.45064">
        <ele>62.5</ele>
        <time>2021-11-16T10:26:33.000Z</time>
      </trkpt>
      <trkpt lat="47.81912" lon="-3.45085">
        <ele>62.6</ele>
        <time>2021-11-16T10:26:30.000Z</time>
      </trkpt>
      <trkpt lat="47.81915" lon="-3.45105">
        <ele>63.2</ele>
        <time>2021-11-16T10:26:27.000Z</time>
      </trkpt>
      <trkpt lat="47.81917" lon="-3.45121">
        <ele>64</ele>
        <time>2021-11-16T10:26:24.000Z</time>
      </trkpt>
      <trkpt lat="47.81922" lon="-3.45132">
        <ele>63.5</ele>
        <time>2021-11-16T10:26:21.000Z</time>
      </trkpt>
      <trkpt lat="47.81924" lon="-3.45152">
        <ele>62.8</ele>
        <time>2021-11-16T10:26:18.000Z</time>
      </trkpt>
      <trkpt lat="47.81925" lon="-3.45174">
        <ele>62.4</ele>
        <time>2021-11-16T10:26:15.000Z</time>
      </trkpt>
      <trkpt lat="47.81925" lon="-3.45196">
        <ele>62</ele>
        <time>2021-11-16T10:26:12.000Z</time>
      </trkpt>
      <trkpt lat="47.81925" lon="-3.45218">
        <ele>61.6</ele>
        <time>2021-11-16T10:26:09.000Z</time>
      </trkpt>
      <trkpt lat="47.81926" lon="-3.45242">
        <ele>61</ele>
        <time>2021-11-16T10:26:06.000Z</time>
      </trkpt>
      <trkpt lat="47.81931" lon="-3.45265">
        <ele>60</ele>
        <time>2021-11-16T10:26:03.000Z</time>
      </trkpt>
      <trkpt lat="47.81943" lon="-3.45283">
        <ele>59.4</ele>
        <time>2021-11-16T10:26:00.000Z</time>
      </trkpt>
      <trkpt lat="47.81961" lon="-3.4529">
        <ele>59.5</ele>
        <time>2021-11-16T10:25:57.000Z</time>
      </trkpt>
      <trkpt lat="47.81979" lon="-3.45293">
        <ele>59.7</ele>
        <time>2021-11-16T10:25:54.000Z</time>
      </trkpt>
      <trkpt lat="47.81996" lon="-3.453">
        <ele>60.7</ele>
        <time>2021-11-16T10:25:51.000Z</time>
      </trkpt>
      <trkpt lat="47.82009" lon="-3.45311">
        <ele>61.2</ele>
        <time>2021-11-16T10:25:48.000Z</time>
      </trkpt>
      <trkpt lat="47.82021" lon="-3.45324">
        <ele>61.6</ele>
        <time>2021-11-16T10:25:45.000Z</time>
      </trkpt>
      <trkpt lat="47.82032" lon="-3.45334">
        <ele>62</ele>
        <time>2021-11-16T10:25:42.000Z</time>
      </trkpt>
      <trkpt lat="47.82042" lon="-3.45341">
        <ele>61.2</ele>
        <time>2021-11-16T10:25:39.000Z</time>
      </trkpt>
      <trkpt lat="47.82051" lon="-3.4535">
        <ele>60.8</ele>
        <time>2021-11-16T10:25:36.000Z</time>
      </trkpt>
      <trkpt lat="47.82061" lon="-3.45358">
        <ele>60.1</ele>
        <time>2021-11-16T10:25:33.000Z</time>
      </trkpt>
      <trkpt lat="47.82071" lon="-3.45365">
        <ele>59.2</ele>
        <time>2021-11-16T10:25:30.000Z</time>
      </trkpt>
      <trkpt lat="47.82081" lon="-3.45371">
        <ele>58.3</ele>
        <time>2021-11-16T10:25:27.000Z</time>
      </trkpt>
      <trkpt lat="47.82091" lon="-3.45375">
        <ele>58.1</ele>
        <time>2021-11-16T10:25:24.000Z</time>
      </trkpt>
      <trkpt lat="47.82101" lon="-3.45378">
        <ele>57.3</ele>
        <time>2021-11-16T10:25:21.000Z</time>
      </trkpt>
      <trkpt lat="47.82111" lon="-3.45378">
        <ele>56.3</ele>
        <time>2021-11-16T10:25:18.000Z</time>
      </trkpt>
      <trkpt lat="47.82122" lon="-3.45379">
        <ele>55.7</ele>
        <time>2021-11-16T10:25:15.000Z</time>
      </trkpt>
      <trkpt lat="47.82133" lon="-3.45381">
        <ele>54.5</ele>
        <time>2021-11-16T10:25:12.000Z</time>
      </trkpt>
      <trkpt lat="47.82143" lon="-3.45386">
        <ele>53.8</ele>
        <time>2021-11-16T10:25:09.000Z</time>
      </trkpt>
      <trkpt lat="47.82153" lon="-3.45392">
        <ele>52.7</ele>
        <time>2021-11-16T10:25:06.000Z</time>
      </trkpt>
      <trkpt lat="47.82162" lon="-3.45401">
        <ele>51.7</ele>
        <time>2021-11-16T10:25:03.000Z</time>
      </trkpt>
      <trkpt lat="47.8217" lon="-3.4541">
        <ele>51.5</ele>
        <time>2021-11-16T10:25:00.000Z</time>
      </trkpt>
      <trkpt lat="47.82179" lon="-3.45421">
        <ele>50.8</ele>
        <time>2021-11-16T10:24:57.000Z</time>
      </trkpt>
      <trkpt lat="47.82188" lon="-3.45431">
        <ele>49.6</ele>
        <time>2021-11-16T10:24:54.000Z</time>
      </trkpt>
      <trkpt lat="47.82197" lon="-3.45442">
        <ele>49.1</ele>
        <time>2021-11-16T10:24:51.000Z</time>
      </trkpt>
      <trkpt lat="47.82206" lon="-3.45453">
        <ele>48.2</ele>
        <time>2021-11-16T10:24:48.000Z</time>
      </trkpt>
      <trkpt lat="47.82215" lon="-3.45464">
        <ele>47.3</ele>
        <time>2021-11-16T10:24:45.000Z</time>
      </trkpt>
      <trkpt lat="47.82224" lon="-3.45475">
        <ele>47.1</ele>
        <time>2021-11-16T10:24:42.000Z</time>
      </trkpt>
      <trkpt lat="47.82233" lon="-3.45486">
        <ele>46.1</ele>
        <time>2021-11-16T10:24:39.000Z</time>
      </trkpt>
      <trkpt lat="47.82241" lon="-3.45498">
        <ele>45.3</ele>
        <time>2021-11-16T10:24:36.000Z</time>
      </trkpt>
      <trkpt lat="47.8225" lon="-3.45508">
        <ele>44.1</ele>
        <time>2021-11-16T10:24:33.000Z</time>
      </trkpt>
      <trkpt lat="47.82261" lon="-3.45518">
        <ele>43.6</ele>
        <time>2021-11-16T10:24:30.000Z</time>
      </trkpt>
      <trkpt lat="47.82273" lon="-3.45523">
        <ele>42.7</ele>
        <time>2021-11-16T10:24:27.000Z</time>
      </trkpt>
      <trkpt lat="47.82287" lon="-3.45527">
        <ele>41.3</ele>
        <time>2021-11-16T10:24:24.000Z</time>
      </trkpt>
      <trkpt lat="47.82303" lon="-3.4554">
        <ele>40</ele>
        <time>2021-11-16T10:24:21.000Z</time>
      </trkpt>
      <trkpt lat="47.82315" lon="-3.45565">
        <ele>38.9</ele>
        <time>2021-11-16T10:24:18.000Z</time>
      </trkpt>
      <trkpt lat="47.82325" lon="-3.45593">
        <ele>39</ele>
        <time>2021-11-16T10:24:15.000Z</time>
      </trkpt>
      <trkpt lat="47.82338" lon="-3.45618">
        <ele>38.7</ele>
        <time>2021-11-16T10:24:12.000Z</time>
      </trkpt>
      <trkpt lat="47.82359" lon="-3.45636">
        <ele>37.8</ele>
        <time>2021-11-16T10:24:09.000Z</time>
      </trkpt>
      <trkpt lat="47.82382" lon="-3.45651">
        <ele>35.9</ele>
        <time>2021-11-16T10:24:06.000Z</time>
      </trkpt>
      <trkpt lat="47.82408" lon="-3.45667">
        <ele>36.1</ele>
        <time>2021-11-16T10:24:03.000Z</time>
      </trkpt>
      <trkpt lat="47.82435" lon="-3.45691">
        <ele>37.1</ele>
        <time>2021-11-16T10:24:00.000Z</time>
      </trkpt>
      <trkpt lat="47.82451" lon="-3.45727">
        <ele>39.3</ele>
        <time>2021-11-16T10:23:57.000Z</time>
      </trkpt>
      <trkpt lat="47.82444" lon="-3.45765">
        <ele>41.6</ele>
        <time>2021-11-16T10:23:54.000Z</time>
      </trkpt>
      <trkpt lat="47.82433" lon="-3.45801">
        <ele>41.9</ele>
        <time>2021-11-16T10:23:51.000Z</time>
      </trkpt>
      <trkpt lat="47.82424" lon="-3.4584">
        <ele>41.4</ele>
        <time>2021-11-16T10:23:48.000Z</time>
      </trkpt>
      <trkpt lat="47.82417" lon="-3.45879">
        <ele>42.2</ele>
        <time>2021-11-16T10:23:45.000Z</time>
      </trkpt>
      <trkpt lat="47.8241" lon="-3.4592">
        <ele>43.2</ele>
        <time>2021-11-16T10:23:42.000Z</time>
      </trkpt>
      <trkpt lat="47.82402" lon="-3.45962">
        <ele>43.7</ele>
        <time>2021-11-16T10:23:39.000Z</time>
      </trkpt>
      <trkpt lat="47.82393" lon="-3.46006">
        <ele>45.3</ele>
        <time>2021-11-16T10:23:36.000Z</time>
      </trkpt>
      <trkpt lat="47.82381" lon="-3.4605">
        <ele>46.7</ele>
        <time>2021-11-16T10:23:33.000Z</time>
      </trkpt>
      <trkpt lat="47.8237" lon="-3.46092">
        <ele>48.3</ele>
        <time>2021-11-16T10:23:30.000Z</time>
      </trkpt>
      <trkpt lat="47.82363" lon="-3.46132">
        <ele>51.5</ele>
        <time>2021-11-16T10:23:27.000Z</time>
      </trkpt>
      <trkpt lat="47.82357" lon="-3.46169">
        <ele>53.7</ele>
        <time>2021-11-16T10:23:24.000Z</time>
      </trkpt>
      <trkpt lat="47.82352" lon="-3.46201">
        <ele>54.1</ele>
        <time>2021-11-16T10:23:21.000Z</time>
      </trkpt>
      <trkpt lat="47.82347" lon="-3.46231">
        <ele>54.2</ele>
        <time>2021-11-16T10:23:18.000Z</time>
      </trkpt>
      <trkpt lat="47.82341" lon="-3.46259">
        <ele>55.3</ele>
        <time>2021-11-16T10:23:15.000Z</time>
      </trkpt>
      <trkpt lat="47.82337" lon="-3.46287">
        <ele>55.2</ele>
        <time>2021-11-16T10:23:12.000Z</time>
      </trkpt>
      <trkpt lat="47.82331" lon="-3.46317">
        <ele>53.1</ele>
        <time>2021-11-16T10:23:09.000Z</time>
      </trkpt>
      <trkpt lat="47.8233" lon="-3.46352">
        <ele>51.3</ele>
        <time>2021-11-16T10:23:06.000Z</time>
      </trkpt>
      <trkpt lat="47.82334" lon="-3.4639">
        <ele>51.6</ele>
        <time>2021-11-16T10:23:03.000Z</time>
      </trkpt>
      <trkpt lat="47.8234" lon="-3.46426">
        <ele>54.6</ele>
        <time>2021-11-16T10:23:00.000Z</time>
      </trkpt>
      <trkpt lat="47.82347" lon="-3.46461">
        <ele>55.6</ele>
        <time>2021-11-16T10:22:57.000Z</time>
      </trkpt>
      <trkpt lat="47.82353" lon="-3.46497">
        <ele>55.4</ele>
        <time>2021-11-16T10:22:54.000Z</time>
      </trkpt>
      <trkpt lat="47.82361" lon="-3.46535">
        <ele>56</ele>
        <time>2021-11-16T10:22:51.000Z</time>
      </trkpt>
      <trkpt lat="47.82368" lon="-3.46572">
        <ele>56.5</ele>
        <time>2021-11-16T10:22:48.000Z</time>
      </trkpt>
      <trkpt lat="47.82376" lon="-3.46605">
        <ele>58.3</ele>
        <time>2021-11-16T10:22:45.000Z</time>
      </trkpt>
      <trkpt lat="47.82385" lon="-3.46632">
        <ele>59.4</ele>
        <time>2021-11-16T10:22:42.000Z</time>
      </trkpt>
      <trkpt lat="47.82394" lon="-3.46652">
        <ele>60.1</ele>
        <time>2021-11-16T10:22:39.000Z</time>
      </trkpt>
      <trkpt lat="47.82402" lon="-3.46671">
        <ele>59.7</ele>
        <time>2021-11-16T10:22:36.000Z</time>
      </trkpt>
      <trkpt lat="47.82409" lon="-3.46691">
        <ele>60.2</ele>
        <time>2021-11-16T10:22:33.000Z</time>
      </trkpt>
      <trkpt lat="47.82416" lon="-3.46709">
        <ele>59.7</ele>
        <time>2021-11-16T10:22:30.000Z</time>
      </trkpt>
      <trkpt lat="47.82423" lon="-3.46728">
        <ele>60.8</ele>
        <time>2021-11-16T10:22:27.000Z</time>
      </trkpt>
      <trkpt lat="47.82429" lon="-3.46748">
        <ele>59.2</ele>
        <time>2021-11-16T10:22:24.000Z</time>
      </trkpt>
      <trkpt lat="47.82435" lon="-3.46767">
        <ele>59.5</ele>
        <time>2021-11-16T10:22:21.000Z</time>
      </trkpt>
      <trkpt lat="47.82441" lon="-3.46786">
        <ele>57.8</ele>
        <time>2021-11-16T10:22:18.000Z</time>
      </trkpt>
      <trkpt lat="47.82447" lon="-3.46808">
        <ele>57.2</ele>
        <time>2021-11-16T10:22:15.000Z</time>
      </trkpt>
      <trkpt lat="47.82454" lon="-3.4683">
        <ele>57.2</ele>
        <time>2021-11-16T10:22:12.000Z</time>
      </trkpt>
      <trkpt lat="47.82461" lon="-3.46852">
        <ele>56.5</ele>
        <time>2021-11-16T10:22:09.000Z</time>
      </trkpt>
      <trkpt lat="47.82469" lon="-3.46875">
        <ele>55.8</ele>
        <time>2021-11-16T10:22:06.000Z</time>
      </trkpt>
      <trkpt lat="47.82477" lon="-3.46898">
        <ele>54.2</ele>
        <time>2021-11-16T10:22:03.000Z</time>
      </trkpt>
      <trkpt lat="47.82486" lon="-3.46923">
        <ele>52.9</ele>
        <time>2021-11-16T10:22:00.000Z</time>
      </trkpt>
      <trkpt lat="47.82496" lon="-3.46951">
        <ele>52.4</ele>
        <time>2021-11-16T10:21:57.000Z</time>
      </trkpt>
      <trkpt lat="47.82508" lon="-3.46984">
        <ele>51.3</ele>
        <time>2021-11-16T10:21:54.000Z</time>
      </trkpt>
      <trkpt lat="47.82521" lon="-3.4702">
        <ele>51.1</ele>
        <time>2021-11-16T10:21:51.000Z</time>
      </trkpt>
      <trkpt lat="47.82536" lon="-3.47059">
        <ele>51</ele>
        <time>2021-11-16T10:21:48.000Z</time>
      </trkpt>
      <trkpt lat="47.82543" lon="-3.47101">
        <ele>54.2</ele>
        <time>2021-11-16T10:21:45.000Z</time>
      </trkpt>
      <trkpt lat="47.82539" lon="-3.47138">
        <ele>56.1</ele>
        <time>2021-11-16T10:21:42.000Z</time>
      </trkpt>
      <trkpt lat="47.82526" lon="-3.47165">
        <ele>56.6</ele>
        <time>2021-11-16T10:21:39.000Z</time>
      </trkpt>
      <trkpt lat="47.82512" lon="-3.47186">
        <ele>59.2</ele>
        <time>2021-11-16T10:21:36.000Z</time>
      </trkpt>
      <trkpt lat="47.82499" lon="-3.47206">
        <ele>59.6</ele>
        <time>2021-11-16T10:21:33.000Z</time>
      </trkpt>
      <trkpt lat="47.82485" lon="-3.47227">
        <ele>60.1</ele>
        <time>2021-11-16T10:21:30.000Z</time>
      </trkpt>
      <trkpt lat="47.82478" lon="-3.47256">
        <ele>59</ele>
        <time>2021-11-16T10:21:27.000Z</time>
      </trkpt>
      <trkpt lat="47.82492" lon="-3.4728">
        <ele>60.4</ele>
        <time>2021-11-16T10:21:24.000Z</time>
      </trkpt>
      <trkpt lat="47.82509" lon="-3.47302">
        <ele>59.3</ele>
        <time>2021-11-16T10:21:21.000Z</time>
      </trkpt>
      <trkpt lat="47.82526" lon="-3.4732">
        <ele>60</ele>
        <time>2021-11-16T10:21:18.000Z</time>
      </trkpt>
      <trkpt lat="47.82542" lon="-3.4734">
        <ele>60.5</ele>
        <time>2021-11-16T10:21:15.000Z</time>
      </trkpt>
      <trkpt lat="47.82558" lon="-3.47359">
        <ele>60.2</ele>
        <time>2021-11-16T10:21:12.000Z</time>
      </trkpt>
      <trkpt lat="47.82571" lon="-3.47384">
        <ele>60.4</ele>
        <time>2021-11-16T10:21:09.000Z</time>
      </trkpt>
      <trkpt lat="47.82571" lon="-3.47415">
        <ele>61.3</ele>
        <time>2021-11-16T10:21:06.000Z</time>
      </trkpt>
      <trkpt lat="47.8257" lon="-3.47446">
        <ele>62</ele>
        <time>2021-11-16T10:21:03.000Z</time>
      </trkpt>
      <trkpt lat="47.82572" lon="-3.47476">
        <ele>62</ele>
        <time>2021-11-16T10:21:00.000Z</time>
      </trkpt>
      <trkpt lat="47.82577" lon="-3.47504">
        <ele>63.1</ele>
        <time>2021-11-16T10:20:57.000Z</time>
      </trkpt>
      <trkpt lat="47.82581" lon="-3.4753">
        <ele>63.2</ele>
        <time>2021-11-16T10:20:54.000Z</time>
      </trkpt>
      <trkpt lat="47.82585" lon="-3.47559">
        <ele>63.2</ele>
        <time>2021-11-16T10:20:51.000Z</time>
      </trkpt>
      <trkpt lat="47.82587" lon="-3.47588">
        <ele>63.2</ele>
        <time>2021-11-16T10:20:48.000Z</time>
      </trkpt>
      <trkpt lat="47.82588" lon="-3.47617">
        <ele>64.6</ele>
        <time>2021-11-16T10:20:45.000Z</time>
      </trkpt>
      <trkpt lat="47.82588" lon="-3.47644">
        <ele>64.8</ele>
        <time>2021-11-16T10:20:42.000Z</time>
      </trkpt>
      <trkpt lat="47.82588" lon="-3.47671">
        <ele>64.6</ele>
        <time>2021-11-16T10:20:39.000Z</time>
      </trkpt>
      <trkpt lat="47.82585" lon="-3.47698">
        <ele>64.9</ele>
        <time>2021-11-16T10:20:36.000Z</time>
      </trkpt>
      <trkpt lat="47.82577" lon="-3.4772">
        <ele>64.6</ele>
        <time>2021-11-16T10:20:33.000Z</time>
      </trkpt>
      <trkpt lat="47.82566" lon="-3.4774">
        <ele>64.4</ele>
        <time>2021-11-16T10:20:30.000Z</time>
      </trkpt>
      <trkpt lat="47.82555" lon="-3.4776">
        <ele>64.1</ele>
        <time>2021-11-16T10:20:27.000Z</time>
      </trkpt>
      <trkpt lat="47.82546" lon="-3.47782">
        <ele>63.3</ele>
        <time>2021-11-16T10:20:24.000Z</time>
      </trkpt>
      <trkpt lat="47.82541" lon="-3.47806">
        <ele>62.7</ele>
        <time>2021-11-16T10:20:21.000Z</time>
      </trkpt>
      <trkpt lat="47.82536" lon="-3.47831">
        <ele>62</ele>
        <time>2021-11-16T10:20:18.000Z</time>
      </trkpt>
      <trkpt lat="47.8253" lon="-3.47857">
        <ele>61.1</ele>
        <time>2021-11-16T10:20:15.000Z</time>
      </trkpt>
      <trkpt lat="47.82523" lon="-3.47884">
        <ele>61.4</ele>
        <time>2021-11-16T10:20:12.000Z</time>
      </trkpt>
      <trkpt lat="47.82516" lon="-3.47912">
        <ele>60.8</ele>
        <time>2021-11-16T10:20:09.000Z</time>
      </trkpt>
      <trkpt lat="47.82509" lon="-3.4794">
        <ele>60.4</ele>
        <time>2021-11-16T10:20:06.000Z</time>
      </trkpt>
      <trkpt lat="47.82501" lon="-3.47968">
        <ele>60.5</ele>
        <time>2021-11-16T10:20:03.000Z</time>
      </trkpt>
      <trkpt lat="47.82494" lon="-3.47996">
        <ele>61.4</ele>
        <time>2021-11-16T10:20:00.000Z</time>
      </trkpt>
      <trkpt lat="47.82486" lon="-3.48023">
        <ele>60.8</ele>
        <time>2021-11-16T10:19:57.000Z</time>
      </trkpt>
      <trkpt lat="47.82479" lon="-3.4805">
        <ele>60.3</ele>
        <time>2021-11-16T10:19:54.000Z</time>
      </trkpt>
      <trkpt lat="47.82472" lon="-3.48077">
        <ele>61</ele>
        <time>2021-11-16T10:19:51.000Z</time>
      </trkpt>
      <trkpt lat="47.82465" lon="-3.48103">
        <ele>60.4</ele>
        <time>2021-11-16T10:19:48.000Z</time>
      </trkpt>
      <trkpt lat="47.82458" lon="-3.4813">
        <ele>60.5</ele>
        <time>2021-11-16T10:19:45.000Z</time>
      </trkpt>
      <trkpt lat="47.82453" lon="-3.48158">
        <ele>60.1</ele>
        <time>2021-11-16T10:19:42.000Z</time>
      </trkpt>
      <trkpt lat="47.82451" lon="-3.48187">
        <ele>60.2</ele>
        <time>2021-11-16T10:19:39.000Z</time>
      </trkpt>
      <trkpt lat="47.82452" lon="-3.48217">
        <ele>59.6</ele>
        <time>2021-11-16T10:19:36.000Z</time>
      </trkpt>
      <trkpt lat="47.82454" lon="-3.48247">
        <ele>59.1</ele>
        <time>2021-11-16T10:19:33.000Z</time>
      </trkpt>
      <trkpt lat="47.82455" lon="-3.48279">
        <ele>59.2</ele>
        <time>2021-11-16T10:19:30.000Z</time>
      </trkpt>
      <trkpt lat="47.82456" lon="-3.48312">
        <ele>59.2</ele>
        <time>2021-11-16T10:19:27.000Z</time>
      </trkpt>
      <trkpt lat="47.82457" lon="-3.48345">
        <ele>59.6</ele>
        <time>2021-11-16T10:19:24.000Z</time>
      </trkpt>
      <trkpt lat="47.82458" lon="-3.48378">
        <ele>59.4</ele>
        <time>2021-11-16T10:19:21.000Z</time>
      </trkpt>
      <trkpt lat="47.8246" lon="-3.48412">
        <ele>59.9</ele>
        <time>2021-11-16T10:19:18.000Z</time>
      </trkpt>
      <trkpt lat="47.8246" lon="-3.48445">
        <ele>59.8</ele>
        <time>2021-11-16T10:19:15.000Z</time>
      </trkpt>
      <trkpt lat="47.82458" lon="-3.48477">
        <ele>60.7</ele>
        <time>2021-11-16T10:19:12.000Z</time>
      </trkpt>
      <trkpt lat="47.82451" lon="-3.48507">
        <ele>60.7</ele>
        <time>2021-11-16T10:19:09.000Z</time>
      </trkpt>
      <trkpt lat="47.82442" lon="-3.48536">
        <ele>60.8</ele>
        <time>2021-11-16T10:19:06.000Z</time>
      </trkpt>
      <trkpt lat="47.82433" lon="-3.48564">
        <ele>61.1</ele>
        <time>2021-11-16T10:19:03.000Z</time>
      </trkpt>
      <trkpt lat="47.82425" lon="-3.48592">
        <ele>61.7</ele>
        <time>2021-11-16T10:19:00.000Z</time>
      </trkpt>
      <trkpt lat="47.82416" lon="-3.48622">
        <ele>61.4</ele>
        <time>2021-11-16T10:18:57.000Z</time>
      </trkpt>
      <trkpt lat="47.82409" lon="-3.48651">
        <ele>61.3</ele>
        <time>2021-11-16T10:18:54.000Z</time>
      </trkpt>
      <trkpt lat="47.82401" lon="-3.4868">
        <ele>61.7</ele>
        <time>2021-11-16T10:18:51.000Z</time>
      </trkpt>
      <trkpt lat="47.8239" lon="-3.48707">
        <ele>62</ele>
        <time>2021-11-16T10:18:48.000Z</time>
      </trkpt>
      <trkpt lat="47.82377" lon="-3.48734">
        <ele>61</ele>
        <time>2021-11-16T10:18:45.000Z</time>
      </trkpt>
      <trkpt lat="47.82368" lon="-3.48763">
        <ele>61.5</ele>
        <time>2021-11-16T10:18:42.000Z</time>
      </trkpt>
      <trkpt lat="47.82366" lon="-3.48793">
        <ele>61.7</ele>
        <time>2021-11-16T10:18:39.000Z</time>
      </trkpt>
      <trkpt lat="47.82374" lon="-3.48818">
        <ele>63.2</ele>
        <time>2021-11-16T10:18:36.000Z</time>
      </trkpt>
      <trkpt lat="47.82385" lon="-3.48839">
        <ele>63.9</ele>
        <time>2021-11-16T10:18:33.000Z</time>
      </trkpt>
      <trkpt lat="47.82396" lon="-3.48859">
        <ele>63.5</ele>
        <time>2021-11-16T10:18:30.000Z</time>
      </trkpt>
      <trkpt lat="47.82407" lon="-3.4888">
        <ele>62.1</ele>
        <time>2021-11-16T10:18:27.000Z</time>
      </trkpt>
      <trkpt lat="47.82417" lon="-3.48902">
        <ele>62.8</ele>
        <time>2021-11-16T10:18:24.000Z</time>
      </trkpt>
      <trkpt lat="47.82427" lon="-3.48925">
        <ele>61.6</ele>
        <time>2021-11-16T10:18:21.000Z</time>
      </trkpt>
      <trkpt lat="47.82436" lon="-3.4895">
        <ele>60.2</ele>
        <time>2021-11-16T10:18:18.000Z</time>
      </trkpt>
      <trkpt lat="47.82445" lon="-3.48977">
        <ele>59.7</ele>
        <time>2021-11-16T10:18:15.000Z</time>
      </trkpt>
      <trkpt lat="47.82454" lon="-3.49006">
        <ele>59.6</ele>
        <time>2021-11-16T10:18:12.000Z</time>
      </trkpt>
      <trkpt lat="47.8246" lon="-3.49037">
        <ele>60.1</ele>
        <time>2021-11-16T10:18:09.000Z</time>
      </trkpt>
      <trkpt lat="47.82451" lon="-3.49112">
        <ele>47.5</ele>
        <time>2021-11-25T13:59:31.000Z</time>
      </trkpt>
      <trkpt lat="47.82438" lon="-3.49144">
        <ele>44.8</ele>
        <time>2021-11-25T13:59:34.000Z</time>
      </trkpt>
      <trkpt lat="47.82431" lon="-3.49177">
        <ele>46</ele>
        <time>2021-11-25T13:59:37.000Z</time>
      </trkpt>
      <trkpt lat="47.82431" lon="-3.49207">
        <ele>46.3</ele>
        <time>2021-11-25T13:59:40.000Z</time>
      </trkpt>
      <trkpt lat="47.82448" lon="-3.49219">
        <ele>47.2</ele>
        <time>2021-11-25T13:59:43.000Z</time>
      </trkpt>
      <trkpt lat="47.82467" lon="-3.49225">
        <ele>47.4</ele>
        <time>2021-11-25T13:59:46.000Z</time>
      </trkpt>
      <trkpt lat="47.82485" lon="-3.49237">
        <ele>47.1</ele>
        <time>2021-11-25T13:59:49.000Z</time>
      </trkpt>
      <trkpt lat="47.82501" lon="-3.4925">
        <ele>45.9</ele>
        <time>2021-11-25T13:59:52.000Z</time>
      </trkpt>
      <trkpt lat="47.82517" lon="-3.49265">
        <ele>46.7</ele>
        <time>2021-11-25T13:59:55.000Z</time>
      </trkpt>
      <trkpt lat="47.82532" lon="-3.49281">
        <ele>46</ele>
        <time>2021-11-25T13:59:58.000Z</time>
      </trkpt>
      <trkpt lat="47.82546" lon="-3.49298">
        <ele>46.6</ele>
        <time>2021-11-25T14:00:01.000Z</time>
      </trkpt>
      <trkpt lat="47.82561" lon="-3.49317">
        <ele>46.8</ele>
        <time>2021-11-25T14:00:04.000Z</time>
      </trkpt>
      <trkpt lat="47.82575" lon="-3.49333">
        <ele>47.3</ele>
        <time>2021-11-25T14:00:07.000Z</time>
      </trkpt>
      <trkpt lat="47.82589" lon="-3.49349">
        <ele>48.4</ele>
        <time>2021-11-25T14:00:10.000Z</time>
      </trkpt>
      <trkpt lat="47.82603" lon="-3.49366">
        <ele>48.1</ele>
        <time>2021-11-25T14:00:13.000Z</time>
      </trkpt>
      <trkpt lat="47.82617" lon="-3.4938">
        <ele>47.5</ele>
        <time>2021-11-25T14:00:16.000Z</time>
      </trkpt>
      <trkpt lat="47.82631" lon="-3.49395">
        <ele>48.6</ele>
        <time>2021-11-25T14:00:19.000Z</time>
      </trkpt>
      <trkpt lat="47.82644" lon="-3.4941">
        <ele>48.7</ele>
        <time>2021-11-25T14:00:22.000Z</time>
      </trkpt>
      <trkpt lat="47.82656" lon="-3.49421">
        <ele>49.7</ele>
        <time>2021-11-25T14:00:25.000Z</time>
      </trkpt>
      <trkpt lat="47.82666" lon="-3.49432">
        <ele>49.2</ele>
        <time>2021-11-25T14:00:28.000Z</time>
      </trkpt>
      <trkpt lat="47.82678" lon="-3.49442">
        <ele>49.8</ele>
        <time>2021-11-25T14:00:31.000Z</time>
      </trkpt>
      <trkpt lat="47.82689" lon="-3.49452">
        <ele>50.4</ele>
        <time>2021-11-25T14:00:34.000Z</time>
      </trkpt>
      <trkpt lat="47.82698" lon="-3.49466">
        <ele>48.2</ele>
        <time>2021-11-25T14:00:37.000Z</time>
      </trkpt>
      <trkpt lat="47.82697" lon="-3.49486">
        <ele>48.8</ele>
        <time>2021-11-25T14:00:40.000Z</time>
      </trkpt>
      <trkpt lat="47.8269" lon="-3.49504">
        <ele>49.2</ele>
        <time>2021-11-25T14:00:43.000Z</time>
      </trkpt>
      <trkpt lat="47.82681" lon="-3.49523">
        <ele>49.1</ele>
        <time>2021-11-25T14:00:46.000Z</time>
      </trkpt>
      <trkpt lat="47.82672" lon="-3.49542">
        <ele>48.2</ele>
        <time>2021-11-25T14:00:49.000Z</time>
      </trkpt>
      <trkpt lat="47.82662" lon="-3.49562">
        <ele>47.5</ele>
        <time>2021-11-25T14:00:52.000Z</time>
      </trkpt>
      <trkpt lat="47.82651" lon="-3.49583">
        <ele>47.3</ele>
        <time>2021-11-25T14:00:55.000Z</time>
      </trkpt>
      <trkpt lat="47.82638" lon="-3.49609">
        <ele>45</ele>
        <time>2021-11-25T14:00:58.000Z</time>
      </trkpt>
      <trkpt lat="47.82624" lon="-3.49638">
        <ele>43.4</ele>
        <time>2021-11-25T14:01:01.000Z</time>
      </trkpt>
      <trkpt lat="47.82609" lon="-3.49668">
        <ele>42.2</ele>
        <time>2021-11-25T14:01:04.000Z</time>
      </trkpt>
      <trkpt lat="47.82595" lon="-3.49697">
        <ele>43.4</ele>
        <time>2021-11-25T14:01:07.000Z</time>
      </trkpt>
      <trkpt lat="47.82583" lon="-3.49722">
        <ele>44.5</ele>
        <time>2021-11-25T14:01:10.000Z</time>
      </trkpt>
      <trkpt lat="47.82574" lon="-3.49742">
        <ele>46.8</ele>
        <time>2021-11-25T14:01:13.000Z</time>
      </trkpt>
      <trkpt lat="47.82568" lon="-3.49759">
        <ele>48.5</ele>
        <time>2021-11-25T14:01:16.000Z</time>
      </trkpt>
      <trkpt lat="47.82562" lon="-3.49777">
        <ele>49</ele>
        <time>2021-11-25T14:01:19.000Z</time>
      </trkpt>
      <trkpt lat="47.82557" lon="-3.49796">
        <ele>50.4</ele>
        <time>2021-11-25T14:01:22.000Z</time>
      </trkpt>
      <trkpt lat="47.82555" lon="-3.49815">
        <ele>51.2</ele>
        <time>2021-11-25T14:01:25.000Z</time>
      </trkpt>
      <trkpt lat="47.82553" lon="-3.49834">
        <ele>52.6</ele>
        <time>2021-11-25T14:01:28.000Z</time>
      </trkpt>
      <trkpt lat="47.82551" lon="-3.49854">
        <ele>52</ele>
        <time>2021-11-25T14:01:31.000Z</time>
      </trkpt>
      <trkpt lat="47.82552" lon="-3.49875">
        <ele>51.9</ele>
        <time>2021-11-25T14:01:34.000Z</time>
      </trkpt>
      <trkpt lat="47.82554" lon="-3.49897">
        <ele>52.4</ele>
        <time>2021-11-25T14:01:37.000Z</time>
      </trkpt>
      <trkpt lat="47.82556" lon="-3.49918">
        <ele>52.6</ele>
        <time>2021-11-25T14:01:40.000Z</time>
      </trkpt>
      <trkpt lat="47.82557" lon="-3.49939">
        <ele>53.4</ele>
        <time>2021-11-25T14:01:43.000Z</time>
      </trkpt>
      <trkpt lat="47.8256" lon="-3.49959">
        <ele>52.6</ele>
        <time>2021-11-25T14:01:46.000Z</time>
      </trkpt>
      <trkpt lat="47.82564" lon="-3.49982">
        <ele>51.2</ele>
        <time>2021-11-25T14:01:49.000Z</time>
      </trkpt>
      <trkpt lat="47.82566" lon="-3.50008">
        <ele>49.7</ele>
        <time>2021-11-25T14:01:52.000Z</time>
      </trkpt>
      <trkpt lat="47.82558" lon="-3.5003">
        <ele>48.1</ele>
        <time>2021-11-25T14:01:55.000Z</time>
      </trkpt>
      <trkpt lat="47.82543" lon="-3.50043">
        <ele>48.7</ele>
        <time>2021-11-25T14:02:19.000Z</time>
      </trkpt>
      <trkpt lat="47.82529" lon="-3.50037">
        <ele>48.2</ele>
        <time>2021-11-25T14:02:22.000Z</time>
      </trkpt>
      <trkpt lat="47.82514" lon="-3.5003">
        <ele>46.7</ele>
        <time>2021-11-25T14:02:25.000Z</time>
      </trkpt>
      <trkpt lat="47.82497" lon="-3.50031">
        <ele>47.7</ele>
        <time>2021-11-25T14:02:28.000Z</time>
      </trkpt>
      <trkpt lat="47.82479" lon="-3.50039">
        <ele>46.9</ele>
        <time>2021-11-25T14:02:31.000Z</time>
      </trkpt>
      <trkpt lat="47.82461" lon="-3.50048">
        <ele>45.3</ele>
        <time>2021-11-25T14:02:34.000Z</time>
      </trkpt>
      <trkpt lat="47.82443" lon="-3.50055">
        <ele>46.7</ele>
        <time>2021-11-25T14:02:37.000Z</time>
      </trkpt>
      <trkpt lat="47.82426" lon="-3.50063">
        <ele>46.8</ele>
        <time>2021-11-25T14:02:40.000Z</time>
      </trkpt>
      <trkpt lat="47.82409" lon="-3.5007">
        <ele>46.7</ele>
        <time>2021-11-25T14:02:43.000Z</time>
      </trkpt>
      <trkpt lat="47.82392" lon="-3.50073">
        <ele>46.4</ele>
        <time>2021-11-25T14:02:46.000Z</time>
      </trkpt>
      <trkpt lat="47.82374" lon="-3.5007">
        <ele>46.1</ele>
        <time>2021-11-25T14:02:49.000Z</time>
      </trkpt>
      <trkpt lat="47.82357" lon="-3.50067">
        <ele>46.4</ele>
        <time>2021-11-25T14:02:52.000Z</time>
      </trkpt>
      <trkpt lat="47.82338" lon="-3.50063">
        <ele>46.2</ele>
        <time>2021-11-25T14:02:55.000Z</time>
      </trkpt>
      <trkpt lat="47.8232" lon="-3.50059">
        <ele>45.1</ele>
        <time>2021-11-25T14:02:58.000Z</time>
      </trkpt>
      <trkpt lat="47.823" lon="-3.50055">
        <ele>46.2</ele>
        <time>2021-11-25T14:03:01.000Z</time>
      </trkpt>
      <trkpt lat="47.8228" lon="-3.5005">
        <ele>45</ele>
        <time>2021-11-25T14:03:04.000Z</time>
      </trkpt>
      <trkpt lat="47.8226" lon="-3.50046">
        <ele>43.9</ele>
        <time>2021-11-25T14:03:07.000Z</time>
      </trkpt>
      <trkpt lat="47.82237" lon="-3.50041">
        <ele>42.1</ele>
        <time>2021-11-25T14:03:10.000Z</time>
      </trkpt>
      <trkpt lat="47.82213" lon="-3.50036">
        <ele>41.8</ele>
        <time>2021-11-25T14:03:13.000Z</time>
      </trkpt>
      <trkpt lat="47.82187" lon="-3.50031">
        <ele>40.2</ele>
        <time>2021-11-25T14:03:16.000Z</time>
      </trkpt>
      <trkpt lat="47.82161" lon="-3.50026">
        <ele>38.5</ele>
        <time>2021-11-25T14:03:19.000Z</time>
      </trkpt>
      <trkpt lat="47.82134" lon="-3.50021">
        <ele>37.5</ele>
        <time>2021-11-25T14:03:22.000Z</time>
      </trkpt>
      <trkpt lat="47.82107" lon="-3.50015">
        <ele>36.5</ele>
        <time>2021-11-25T14:03:25.000Z</time>
      </trkpt>
      <trkpt lat="47.82079" lon="-3.50009">
        <ele>33.7</ele>
        <time>2021-11-25T14:03:28.000Z</time>
      </trkpt>
      <trkpt lat="47.82051" lon="-3.50003">
        <ele>33.2</ele>
        <time>2021-11-25T14:03:31.000Z</time>
      </trkpt>
      <trkpt lat="47.82023" lon="-3.49998">
        <ele>34</ele>
        <time>2021-11-25T14:03:34.000Z</time>
      </trkpt>
      <trkpt lat="47.81998" lon="-3.49992">
        <ele>34.4</ele>
        <time>2021-11-25T14:03:37.000Z</time>
      </trkpt>
      <trkpt lat="47.81975" lon="-3.49992">
        <ele>35.9</ele>
        <time>2021-11-25T14:03:40.000Z</time>
      </trkpt>
      <trkpt lat="47.81954" lon="-3.49995">
        <ele>35.4</ele>
        <time>2021-11-25T14:03:43.000Z</time>
      </trkpt>
      <trkpt lat="47.81934" lon="-3.49999">
        <ele>38.3</ele>
        <time>2021-11-25T14:03:46.000Z</time>
      </trkpt>
      <trkpt lat="47.81915" lon="-3.50003">
        <ele>38.7</ele>
        <time>2021-11-25T14:03:49.000Z</time>
      </trkpt>
      <trkpt lat="47.81897" lon="-3.50004">
        <ele>38.7</ele>
        <time>2021-11-25T14:03:52.000Z</time>
      </trkpt>
      <trkpt lat="47.81879" lon="-3.50004">
        <ele>39.2</ele>
        <time>2021-11-25T14:03:55.000Z</time>
      </trkpt>
      <trkpt lat="47.81863" lon="-3.5">
        <ele>40.1</ele>
        <time>2021-11-25T14:03:58.000Z</time>
      </trkpt>
      <trkpt lat="47.81848" lon="-3.49995">
        <ele>40.9</ele>
        <time>2021-11-25T14:04:01.000Z</time>
      </trkpt>
      <trkpt lat="47.81834" lon="-3.49991">
        <ele>42.5</ele>
        <time>2021-11-25T14:04:04.000Z</time>
      </trkpt>
      <trkpt lat="47.8182" lon="-3.49988">
        <ele>43.2</ele>
        <time>2021-11-25T14:04:07.000Z</time>
      </trkpt>
      <trkpt lat="47.81807" lon="-3.49984">
        <ele>42.5</ele>
        <time>2021-11-25T14:04:10.000Z</time>
      </trkpt>
      <trkpt lat="47.81794" lon="-3.49982">
        <ele>43.8</ele>
        <time>2021-11-25T14:04:13.000Z</time>
      </trkpt>
      <trkpt lat="47.8178" lon="-3.49981">
        <ele>44.3</ele>
        <time>2021-11-25T14:04:16.000Z</time>
      </trkpt>
      <trkpt lat="47.81766" lon="-3.49981">
        <ele>45</ele>
        <time>2021-11-25T14:04:19.000Z</time>
      </trkpt>
      <trkpt lat="47.81752" lon="-3.49981">
        <ele>44.9</ele>
        <time>2021-11-25T14:04:22.000Z</time>
      </trkpt>
      <trkpt lat="47.81739" lon="-3.49981">
        <ele>45.2</ele>
        <time>2021-11-25T14:04:25.000Z</time>
      </trkpt>
      <trkpt lat="47.81724" lon="-3.4998">
        <ele>46.6</ele>
        <time>2021-11-25T14:04:28.000Z</time>
      </trkpt>
      <trkpt lat="47.81711" lon="-3.49981">
        <ele>47.1</ele>
        <time>2021-11-25T14:04:31.000Z</time>
      </trkpt>
      <trkpt lat="47.81698" lon="-3.49981">
        <ele>47.6</ele>
        <time>2021-11-25T14:04:34.000Z</time>
      </trkpt>
      <trkpt lat="47.81687" lon="-3.49981">
        <ele>49</ele>
        <time>2021-11-25T14:04:37.000Z</time>
      </trkpt>
      <trkpt lat="47.81676" lon="-3.4998">
        <ele>49.6</ele>
        <time>2021-11-25T14:04:40.000Z</time>
      </trkpt>
      <trkpt lat="47.81666" lon="-3.49978">
        <ele>50.7</ele>
        <time>2021-11-25T14:04:43.000Z</time>
      </trkpt>
      <trkpt lat="47.81656" lon="-3.49976">
        <ele>51</ele>
        <time>2021-11-25T14:04:46.000Z</time>
      </trkpt>
      <trkpt lat="47.81645" lon="-3.49974">
        <ele>51.7</ele>
        <time>2021-11-25T14:04:49.000Z</time>
      </trkpt>
      <trkpt lat="47.81634" lon="-3.49972">
        <ele>52.3</ele>
        <time>2021-11-25T14:04:52.000Z</time>
      </trkpt>
      <trkpt lat="47.81623" lon="-3.49969">
        <ele>52.8</ele>
        <time>2021-11-25T14:04:55.000Z</time>
      </trkpt>
      <trkpt lat="47.81612" lon="-3.49965">
        <ele>53.6</ele>
        <time>2021-11-25T14:04:58.000Z</time>
      </trkpt>
      <trkpt lat="47.81599" lon="-3.49961">
        <ele>53.1</ele>
        <time>2021-11-25T14:05:01.000Z</time>
      </trkpt>
      <trkpt lat="47.81586" lon="-3.49955">
        <ele>52.9</ele>
        <time>2021-11-25T14:05:04.000Z</time>
      </trkpt>
      <trkpt lat="47.81573" lon="-3.49949">
        <ele>53.6</ele>
        <time>2021-11-25T14:05:07.000Z</time>
      </trkpt>
      <trkpt lat="47.81564" lon="-3.49937">
        <ele>52.2</ele>
        <time>2021-11-25T14:05:10.000Z</time>
      </trkpt>
      <trkpt lat="47.81559" lon="-3.49917">
        <ele>51.9</ele>
        <time>2021-11-25T14:05:13.000Z</time>
      </trkpt>
      <trkpt lat="47.81559" lon="-3.49899">
        <ele>51.8</ele>
        <time>2021-11-25T14:05:16.000Z</time>
      </trkpt>
      <trkpt lat="47.81567" lon="-3.49888">
        <ele>52.4</ele>
        <time>2021-11-25T14:05:19.000Z</time>
      </trkpt>
      <trkpt lat="47.81578" lon="-3.49877">
        <ele>53.2</ele>
        <time>2021-11-25T14:05:22.000Z</time>
      </trkpt>
      <trkpt lat="47.81585" lon="-3.49861">
        <ele>53.5</ele>
        <time>2021-11-25T14:05:25.000Z</time>
      </trkpt>
      <trkpt lat="47.81592" lon="-3.49843">
        <ele>53.7</ele>
        <time>2021-11-25T14:05:28.000Z</time>
      </trkpt>
      <trkpt lat="47.81598" lon="-3.49822">
        <ele>53.6</ele>
        <time>2021-11-25T14:05:31.000Z</time>
      </trkpt>
      <trkpt lat="47.81599" lon="-3.49799">
        <ele>53.2</ele>
        <time>2021-11-25T14:05:34.000Z</time>
      </trkpt>
      <trkpt lat="47.81596" lon="-3.49776">
        <ele>52.5</ele>
        <time>2021-11-25T14:05:37.000Z</time>
      </trkpt>
      <trkpt lat="47.81592" lon="-3.49755">
        <ele>53.3</ele>
        <time>2021-11-25T14:05:40.000Z</time>
      </trkpt>
      <trkpt lat="47.81589" lon="-3.49738">
        <ele>53.7</ele>
        <time>2021-11-25T14:05:43.000Z</time>
      </trkpt>
      <trkpt lat="47.81586" lon="-3.49733">
        <ele>54.5</ele>
        <time>2021-11-25T14:05:46.000Z</time>
      </trkpt>
      <trkpt lat="47.81583" lon="-3.49732">
        <ele>54.2</ele>
        <time>2021-11-25T14:05:49.000Z</time>
      </trkpt>
      <trkpt lat="47.81577" lon="-3.49734">
        <ele>54.1</ele>
        <time>2021-11-25T14:05:52.000Z</time>
      </trkpt>
      <trkpt lat="47.81566" lon="-3.49741">
        <ele>54.1</ele>
        <time>2021-11-25T14:05:55.000Z</time>
      </trkpt>
      <trkpt lat="47.81551" lon="-3.49747">
        <ele>54</ele>
        <time>2021-11-25T14:05:58.000Z</time>
      </trkpt>
      <trkpt lat="47.81535" lon="-3.49753">
        <ele>52.9</ele>
        <time>2021-11-25T14:06:01.000Z</time>
      </trkpt>
      <trkpt lat="47.81518" lon="-3.4976">
        <ele>53.4</ele>
        <time>2021-11-25T14:06:04.000Z</time>
      </trkpt>
      <trkpt lat="47.815" lon="-3.49766">
        <ele>53.3</ele>
        <time>2021-11-25T14:06:07.000Z</time>
      </trkpt>
      <trkpt lat="47.81481" lon="-3.49772">
        <ele>52.6</ele>
        <time>2021-11-25T14:06:10.000Z</time>
      </trkpt>
      <trkpt lat="47.81462" lon="-3.49781">
        <ele>51.9</ele>
        <time>2021-11-25T14:06:13.000Z</time>
      </trkpt>
      <trkpt lat="47.81444" lon="-3.49798">
        <ele>51.6</ele>
        <time>2021-11-25T14:06:16.000Z</time>
      </trkpt>
      <trkpt lat="47.8143" lon="-3.49821">
        <ele>51.7</ele>
        <time>2021-11-25T14:06:19.000Z</time>
      </trkpt>
      <trkpt lat="47.81417" lon="-3.49844">
        <ele>52.2</ele>
        <time>2021-11-25T14:06:22.000Z</time>
      </trkpt>
      <trkpt lat="47.81406" lon="-3.49864">
        <ele>53</ele>
        <time>2021-11-25T14:06:25.000Z</time>
      </trkpt>
      <trkpt lat="47.81396" lon="-3.49882">
        <ele>53.7</ele>
        <time>2021-11-25T14:06:28.000Z</time>
      </trkpt>
      <trkpt lat="47.81386" lon="-3.499">
        <ele>54.7</ele>
        <time>2021-11-25T14:06:31.000Z</time>
      </trkpt>
      <trkpt lat="47.81377" lon="-3.49917">
        <ele>55.2</ele>
        <time>2021-11-25T14:06:34.000Z</time>
      </trkpt>
      <trkpt lat="47.81367" lon="-3.49933">
        <ele>56.6</ele>
        <time>2021-11-25T14:06:37.000Z</time>
      </trkpt>
      <trkpt lat="47.81356" lon="-3.49948">
        <ele>57.1</ele>
        <time>2021-11-25T14:06:40.000Z</time>
      </trkpt>
      <trkpt lat="47.81342" lon="-3.49962">
        <ele>56</ele>
        <time>2021-11-25T14:06:43.000Z</time>
      </trkpt>
      <trkpt lat="47.81327" lon="-3.49976">
        <ele>55.5</ele>
        <time>2021-11-25T14:06:46.000Z</time>
      </trkpt>
      <trkpt lat="47.8131" lon="-3.4999">
        <ele>54.5</ele>
        <time>2021-11-25T14:06:49.000Z</time>
      </trkpt>
      <trkpt lat="47.81294" lon="-3.50005">
        <ele>54</ele>
        <time>2021-11-25T14:06:52.000Z</time>
      </trkpt>
      <trkpt lat="47.81276" lon="-3.5002">
        <ele>52.8</ele>
        <time>2021-11-25T14:06:55.000Z</time>
      </trkpt>
      <trkpt lat="47.81258" lon="-3.50036">
        <ele>52.2</ele>
        <time>2021-11-25T14:06:58.000Z</time>
      </trkpt>
      <trkpt lat="47.8124" lon="-3.50052">
        <ele>51.9</ele>
        <time>2021-11-25T14:07:01.000Z</time>
      </trkpt>
      <trkpt lat="47.81222" lon="-3.50069">
        <ele>51.4</ele>
        <time>2021-11-25T14:07:04.000Z</time>
      </trkpt>
      <trkpt lat="47.81204" lon="-3.50084">
        <ele>50.9</ele>
        <time>2021-11-25T14:07:07.000Z</time>
      </trkpt>
      <trkpt lat="47.81185" lon="-3.50101">
        <ele>50.6</ele>
        <time>2021-11-25T14:07:10.000Z</time>
      </trkpt>
      <trkpt lat="47.81166" lon="-3.50119">
        <ele>50.2</ele>
        <time>2021-11-25T14:07:13.000Z</time>
      </trkpt>
      <trkpt lat="47.81146" lon="-3.50137">
        <ele>49.3</ele>
        <time>2021-11-25T14:07:16.000Z</time>
      </trkpt>
      <trkpt lat="47.81125" lon="-3.50155">
        <ele>49.7</ele>
        <time>2021-11-25T14:07:19.000Z</time>
      </trkpt>
      <trkpt lat="47.81104" lon="-3.50175">
        <ele>48.2</ele>
        <time>2021-11-25T14:07:22.000Z</time>
      </trkpt>
      <trkpt lat="47.81081" lon="-3.50195">
        <ele>47.2</ele>
        <time>2021-11-25T14:07:25.000Z</time>
      </trkpt>
      <trkpt lat="47.8106" lon="-3.50216">
        <ele>46.9</ele>
        <time>2021-11-25T14:07:28.000Z</time>
      </trkpt>
      <trkpt lat="47.81037" lon="-3.50243">
        <ele>43.6</ele>
        <time>2021-11-25T14:07:31.000Z</time>
      </trkpt>
      <trkpt lat="47.81017" lon="-3.50279">
        <ele>40.3</ele>
        <time>2021-11-25T14:07:34.000Z</time>
      </trkpt>
      <trkpt lat="47.80998" lon="-3.50316">
        <ele>38.9</ele>
        <time>2021-11-25T14:07:37.000Z</time>
      </trkpt>
      <trkpt lat="47.8098" lon="-3.50349">
        <ele>40.3</ele>
        <time>2021-11-25T14:07:40.000Z</time>
      </trkpt>
      <trkpt lat="47.80964" lon="-3.50379">
        <ele>40.5</ele>
        <time>2021-11-25T14:07:43.000Z</time>
      </trkpt>
      <trkpt lat="47.80949" lon="-3.50407">
        <ele>41.7</ele>
        <time>2021-11-25T14:07:46.000Z</time>
      </trkpt>
      <trkpt lat="47.80937" lon="-3.5043">
        <ele>41.9</ele>
        <time>2021-11-25T14:07:49.000Z</time>
      </trkpt>
      <trkpt lat="47.80929" lon="-3.50446">
        <ele>44</ele>
        <time>2021-11-25T14:07:52.000Z</time>
      </trkpt>
      <trkpt lat="47.80917" lon="-3.50452">
        <ele>44.6</ele>
        <time>2021-11-25T14:07:55.000Z</time>
      </trkpt>
      <trkpt lat="47.80903" lon="-3.50448">
        <ele>43.6</ele>
        <time>2021-11-25T14:07:58.000Z</time>
      </trkpt>
      <trkpt lat="47.8089" lon="-3.50435">
        <ele>43.2</ele>
        <time>2021-11-25T14:08:01.000Z</time>
      </trkpt>
      <trkpt lat="47.8088" lon="-3.50412">
        <ele>42.5</ele>
        <time>2021-11-25T14:08:04.000Z</time>
      </trkpt>
      <trkpt lat="47.8087" lon="-3.50384">
        <ele>40.5</ele>
        <time>2021-11-25T14:08:07.000Z</time>
      </trkpt>
      <trkpt lat="47.8086" lon="-3.50357">
        <ele>39.9</ele>
        <time>2021-11-25T14:08:10.000Z</time>
      </trkpt>
      <trkpt lat="47.8085" lon="-3.50329">
        <ele>40.3</ele>
        <time>2021-11-25T14:08:13.000Z</time>
      </trkpt>
      <trkpt lat="47.80837" lon="-3.503">
        <ele>38.7</ele>
        <time>2021-11-25T14:08:16.000Z</time>
      </trkpt>
      <trkpt lat="47.80821" lon="-3.5027">
        <ele>35.1</ele>
        <time>2021-11-25T14:08:19.000Z</time>
      </trkpt>
      <trkpt lat="47.80802" lon="-3.50242">
        <ele>35.8</ele>
        <time>2021-11-25T14:08:22.000Z</time>
      </trkpt>
      <trkpt lat="47.80782" lon="-3.50224">
        <ele>37.7</ele>
        <time>2021-11-25T14:08:25.000Z</time>
      </trkpt>
      <trkpt lat="47.80763" lon="-3.50214">
        <ele>40.6</ele>
        <time>2021-11-25T14:08:28.000Z</time>
      </trkpt>
      <trkpt lat="47.80746" lon="-3.50207">
        <ele>41.7</ele>
        <time>2021-11-25T14:08:31.000Z</time>
      </trkpt>
      <trkpt lat="47.80731" lon="-3.50201">
        <ele>42</ele>
        <time>2021-11-25T14:08:34.000Z</time>
      </trkpt>
      <trkpt lat="47.80717" lon="-3.50195">
        <ele>44.1</ele>
        <time>2021-11-25T14:08:37.000Z</time>
      </trkpt>
      <trkpt lat="47.80703" lon="-3.50189">
        <ele>44.2</ele>
        <time>2021-11-25T14:08:40.000Z</time>
      </trkpt>
      <trkpt lat="47.80691" lon="-3.50186">
        <ele>45.3</ele>
        <time>2021-11-25T14:08:43.000Z</time>
      </trkpt>
      <trkpt lat="47.8068" lon="-3.50182">
        <ele>45.7</ele>
        <time>2021-11-25T14:08:46.000Z</time>
      </trkpt>
      <trkpt lat="47.80668" lon="-3.50178">
        <ele>46.6</ele>
        <time>2021-11-25T14:08:49.000Z</time>
      </trkpt>
      <trkpt lat="47.80658" lon="-3.50174">
        <ele>47.8</ele>
        <time>2021-11-25T14:08:52.000Z</time>
      </trkpt>
      <trkpt lat="47.80648" lon="-3.50171">
        <ele>48.4</ele>
        <time>2021-11-25T14:08:55.000Z</time>
      </trkpt>
      <trkpt lat="47.80638" lon="-3.50168">
        <ele>49</ele>
        <time>2021-11-25T14:08:58.000Z</time>
      </trkpt>
      <trkpt lat="47.80629" lon="-3.50166">
        <ele>50.1</ele>
        <time>2021-11-25T14:09:01.000Z</time>
      </trkpt>
      <trkpt lat="47.8062" lon="-3.50162">
        <ele>50.4</ele>
        <time>2021-11-25T14:09:04.000Z</time>
      </trkpt>
      <trkpt lat="47.8061" lon="-3.50159">
        <ele>51.2</ele>
        <time>2021-11-25T14:09:07.000Z</time>
      </trkpt>
      <trkpt lat="47.80601" lon="-3.50156">
        <ele>52</ele>
        <time>2021-11-25T14:09:10.000Z</time>
      </trkpt>
      <trkpt lat="47.80591" lon="-3.50153">
        <ele>52.9</ele>
        <time>2021-11-25T14:09:13.000Z</time>
      </trkpt>
      <trkpt lat="47.80581" lon="-3.50149">
        <ele>53.5</ele>
        <time>2021-11-25T14:09:16.000Z</time>
      </trkpt>
      <trkpt lat="47.80571" lon="-3.50146">
        <ele>54.5</ele>
        <time>2021-11-25T14:09:19.000Z</time>
      </trkpt>
      <trkpt lat="47.80561" lon="-3.50143">
        <ele>54.6</ele>
        <time>2021-11-25T14:09:22.000Z</time>
      </trkpt>
      <trkpt lat="47.80552" lon="-3.5014">
        <ele>55.6</ele>
        <time>2021-11-25T14:09:25.000Z</time>
      </trkpt>
      <trkpt lat="47.80542" lon="-3.50138">
        <ele>56.8</ele>
        <time>2021-11-25T14:09:28.000Z</time>
      </trkpt>
      <trkpt lat="47.80531" lon="-3.50134">
        <ele>56.6</ele>
        <time>2021-11-25T14:09:31.000Z</time>
      </trkpt>
      <trkpt lat="47.80521" lon="-3.5013">
        <ele>56.7</ele>
        <time>2021-11-25T14:09:34.000Z</time>
      </trkpt>
      <trkpt lat="47.80511" lon="-3.50124">
        <ele>57.4</ele>
        <time>2021-11-25T14:09:37.000Z</time>
      </trkpt>
      <trkpt lat="47.80501" lon="-3.50116">
        <ele>57.3</ele>
        <time>2021-11-25T14:09:40.000Z</time>
      </trkpt>
      <trkpt lat="47.80492" lon="-3.50107">
        <ele>59</ele>
        <time>2021-11-25T14:09:43.000Z</time>
      </trkpt>
      <trkpt lat="47.80485" lon="-3.50096">
        <ele>58.9</ele>
        <time>2021-11-25T14:09:46.000Z</time>
      </trkpt>
      <trkpt lat="47.80476" lon="-3.50086">
        <ele>58.3</ele>
        <time>2021-11-25T14:09:49.000Z</time>
      </trkpt>
      <trkpt lat="47.80468" lon="-3.50096">
        <ele>59.2</ele>
        <time>2021-11-25T14:09:52.000Z</time>
      </trkpt>
      <trkpt lat="47.80472" lon="-3.50114">
        <ele>58.6</ele>
        <time>2021-11-25T14:09:55.000Z</time>
      </trkpt>
      <trkpt lat="47.80477" lon="-3.50133">
        <ele>58.6</ele>
        <time>2021-11-25T14:09:58.000Z</time>
      </trkpt>
      <trkpt lat="47.80482" lon="-3.50155">
        <ele>57.8</ele>
        <time>2021-11-25T14:10:01.000Z</time>
      </trkpt>
      <trkpt lat="47.80486" lon="-3.50181">
        <ele>57.8</ele>
        <time>2021-11-25T14:10:04.000Z</time>
      </trkpt>
      <trkpt lat="47.80491" lon="-3.50207">
        <ele>57</ele>
        <time>2021-11-25T14:10:07.000Z</time>
      </trkpt>
      <trkpt lat="47.80497" lon="-3.50234">
        <ele>55.1</ele>
        <time>2021-11-25T14:10:10.000Z</time>
      </trkpt>
      <trkpt lat="47.80502" lon="-3.50258">
        <ele>55.1</ele>
        <time>2021-11-25T14:10:13.000Z</time>
      </trkpt>
      <trkpt lat="47.80506" lon="-3.50281">
        <ele>57</ele>
        <time>2021-11-25T14:10:16.000Z</time>
      </trkpt>
      <trkpt lat="47.8051" lon="-3.503">
        <ele>57.1</ele>
        <time>2021-11-25T14:10:19.000Z</time>
      </trkpt>
      <trkpt lat="47.80513" lon="-3.50319">
        <ele>58.1</ele>
        <time>2021-11-25T14:10:22.000Z</time>
      </trkpt>
      <trkpt lat="47.80517" lon="-3.50337">
        <ele>58.5</ele>
        <time>2021-11-25T14:10:25.000Z</time>
      </trkpt>
      <trkpt lat="47.80522" lon="-3.50355">
        <ele>59.9</ele>
        <time>2021-11-25T14:10:28.000Z</time>
      </trkpt>
      <trkpt lat="47.80529" lon="-3.50365">
        <ele>59.6</ele>
        <time>2021-11-25T14:10:31.000Z</time>
      </trkpt>
      <trkpt lat="47.8054" lon="-3.50365">
        <ele>58.8</ele>
        <time>2021-11-25T14:10:34.000Z</time>
      </trkpt>
      <trkpt lat="47.80551" lon="-3.50363">
        <ele>58.6</ele>
        <time>2021-11-25T14:10:37.000Z</time>
      </trkpt>
      <trkpt lat="47.80565" lon="-3.50362">
        <ele>58.8</ele>
        <time>2021-11-25T14:10:40.000Z</time>
      </trkpt>
      <trkpt lat="47.80578" lon="-3.50359">
        <ele>52.1</ele>
        <time>2021-11-25T14:10:43.000Z</time>
      </trkpt>
      <trkpt lat="47.8059" lon="-3.50354">
        <ele>56.5</ele>
        <time>2021-11-25T14:10:46.000Z</time>
      </trkpt>
      <trkpt lat="47.80602" lon="-3.50348">
        <ele>52.6</ele>
        <time>2021-11-25T14:10:49.000Z</time>
      </trkpt>
      <trkpt lat="47.80614" lon="-3.50341">
        <ele>53.2</ele>
        <time>2021-11-25T14:10:52.000Z</time>
      </trkpt>
      <trkpt lat="47.80626" lon="-3.5034">
        <ele>52.4</ele>
        <time>2021-11-25T14:10:55.000Z</time>
      </trkpt>
      <trkpt lat="47.80635" lon="-3.50348">
        <ele>54.8</ele>
        <time>2021-11-25T14:10:58.000Z</time>
      </trkpt>
      <trkpt lat="47.80639" lon="-3.50365">
        <ele>54</ele>
        <time>2021-11-25T14:11:01.000Z</time>
      </trkpt>
      <trkpt lat="47.80637" lon="-3.50381">
        <ele>51.9</ele>
        <time>2021-11-25T14:11:04.000Z</time>
      </trkpt>
      <trkpt lat="47.80638" lon="-3.50403">
        <ele>54.1</ele>
        <time>2021-11-25T14:11:07.000Z</time>
      </trkpt>
      <trkpt lat="47.80637" lon="-3.50423">
        <ele>50.1</ele>
        <time>2021-11-25T14:11:10.000Z</time>
      </trkpt>
      <trkpt lat="47.80635" lon="-3.50438">
        <ele>51.9</ele>
        <time>2021-11-25T14:11:13.000Z</time>
      </trkpt>
      <trkpt lat="47.80635" lon="-3.50454">
        <ele>51.2</ele>
        <time>2021-11-25T14:11:16.000Z</time>
      </trkpt>
      <trkpt lat="47.80628" lon="-3.50471">
        <ele>47.8</ele>
        <time>2021-11-25T14:11:19.000Z</time>
      </trkpt>
      <trkpt lat="47.80619" lon="-3.50487">
        <ele>48.9</ele>
        <time>2021-11-25T14:11:22.000Z</time>
      </trkpt>
      <trkpt lat="47.80612" lon="-3.50502">
        <ele>47</ele>
        <time>2021-11-25T14:11:25.000Z</time>
      </trkpt>
      <trkpt lat="47.80603" lon="-3.50508">
        <ele>46.9</ele>
        <time>2021-11-25T14:11:28.000Z</time>
      </trkpt>
      <trkpt lat="47.80595" lon="-3.50515">
        <ele>49.1</ele>
        <time>2021-11-25T14:11:31.000Z</time>
      </trkpt>
      <trkpt lat="47.80587" lon="-3.50523">
        <ele>48.4</ele>
        <time>2021-11-25T14:11:34.000Z</time>
      </trkpt>
      <trkpt lat="47.80583" lon="-3.50531">
        <ele>47.7</ele>
        <time>2021-11-25T14:11:37.000Z</time>
      </trkpt>
      <trkpt lat="47.8058" lon="-3.50544">
        <ele>47</ele>
        <time>2021-11-25T14:11:40.000Z</time>
      </trkpt>
      <trkpt lat="47.80576" lon="-3.50555">
        <ele>45.2</ele>
        <time>2021-11-25T14:11:43.000Z</time>
      </trkpt>
      <trkpt lat="47.8057" lon="-3.50569">
        <ele>45.5</ele>
        <time>2021-11-25T14:11:46.000Z</time>
      </trkpt>
      <trkpt lat="47.80565" lon="-3.50588">
        <ele>45.7</ele>
        <time>2021-11-25T14:11:49.000Z</time>
      </trkpt>
      <trkpt lat="47.80561" lon="-3.50606">
        <ele>45.4</ele>
        <time>2021-11-25T14:11:52.000Z</time>
      </trkpt>
      <trkpt lat="47.80559" lon="-3.50624">
        <ele>44.2</ele>
        <time>2021-11-25T14:11:55.000Z</time>
      </trkpt>
      <trkpt lat="47.80555" lon="-3.50639">
        <ele>44.4</ele>
        <time>2021-11-25T14:11:58.000Z</time>
      </trkpt>
      <trkpt lat="47.80551" lon="-3.50654">
        <ele>47.9</ele>
        <time>2021-11-25T14:12:01.000Z</time>
      </trkpt>
      <trkpt lat="47.80548" lon="-3.50669">
        <ele>47.2</ele>
        <time>2021-11-25T14:12:04.000Z</time>
      </trkpt>
      <trkpt lat="47.80549" lon="-3.50684">
        <ele>46.6</ele>
        <time>2021-11-25T14:12:07.000Z</time>
      </trkpt>
      <trkpt lat="47.80552" lon="-3.50697">
        <ele>49.6</ele>
        <time>2021-11-25T14:12:10.000Z</time>
      </trkpt>
      <trkpt lat="47.80555" lon="-3.50714">
        <ele>46.9</ele>
        <time>2021-11-25T14:12:13.000Z</time>
      </trkpt>
      <trkpt lat="47.80553" lon="-3.50733">
        <ele>46.2</ele>
        <time>2021-11-25T14:12:16.000Z</time>
      </trkpt>
      <trkpt lat="47.80553" lon="-3.50753">
        <ele>45.7</ele>
        <time>2021-11-25T14:12:19.000Z</time>
      </trkpt>
      <trkpt lat="47.80557" lon="-3.50763">
        <ele>45</ele>
        <time>2021-11-25T14:12:22.000Z</time>
      </trkpt>
      <trkpt lat="47.80563" lon="-3.50778">
        <ele>45</ele>
        <time>2021-11-25T14:12:25.000Z</time>
      </trkpt>
      <trkpt lat="47.80567" lon="-3.508">
        <ele>43</ele>
        <time>2021-11-25T14:12:28.000Z</time>
      </trkpt>
      <trkpt lat="47.80574" lon="-3.50823">
        <ele>36.3</ele>
        <time>2021-11-25T14:12:31.000Z</time>
      </trkpt>
      <trkpt lat="47.80575" lon="-3.50848">
        <ele>36.6</ele>
        <time>2021-11-25T14:12:34.000Z</time>
      </trkpt>
      <trkpt lat="47.8057" lon="-3.50871">
        <ele>40</ele>
        <time>2021-11-25T14:12:37.000Z</time>
      </trkpt>
      <trkpt lat="47.80566" lon="-3.50889">
        <ele>40.6</ele>
        <time>2021-11-25T14:12:40.000Z</time>
      </trkpt>
      <trkpt lat="47.80565" lon="-3.50905">
        <ele>37.7</ele>
        <time>2021-11-25T14:12:43.000Z</time>
      </trkpt>
      <trkpt lat="47.80562" lon="-3.50916">
        <ele>32.7</ele>
        <time>2021-11-25T14:12:46.000Z</time>
      </trkpt>
      <trkpt lat="47.80553" lon="-3.50915">
        <ele>34.9</ele>
        <time>2021-11-25T14:12:49.000Z</time>
      </trkpt>
      <trkpt lat="47.80547" lon="-3.50914">
        <ele>34.6</ele>
        <time>2021-11-25T14:12:52.000Z</time>
      </trkpt>
      <trkpt lat="47.8054" lon="-3.50914">
        <ele>34.7</ele>
        <time>2021-11-25T14:12:55.000Z</time>
      </trkpt>
      <trkpt lat="47.80529" lon="-3.50915">
        <ele>37.3</ele>
        <time>2021-11-25T14:12:58.000Z</time>
      </trkpt>
      <trkpt lat="47.8052" lon="-3.50921">
        <ele>35.9</ele>
        <time>2021-11-25T14:13:01.000Z</time>
      </trkpt>
      <trkpt lat="47.80514" lon="-3.50929">
        <ele>36.4</ele>
        <time>2021-11-25T14:13:04.000Z</time>
      </trkpt>
      <trkpt lat="47.8051" lon="-3.50938">
        <ele>37.3</ele>
        <time>2021-11-25T14:13:07.000Z</time>
      </trkpt>
      <trkpt lat="47.80506" lon="-3.50949">
        <ele>38.4</ele>
        <time>2021-11-25T14:13:10.000Z</time>
      </trkpt>
      <trkpt lat="47.80504" lon="-3.50954">
        <ele>40.5</ele>
        <time>2021-11-25T14:13:13.000Z</time>
      </trkpt>
      <trkpt lat="47.80502" lon="-3.5096">
        <ele>39.5</ele>
        <time>2021-11-25T14:13:16.000Z</time>
      </trkpt>
      <trkpt lat="47.80502" lon="-3.50968">
        <ele>40.7</ele>
        <time>2021-11-25T14:13:19.000Z</time>
      </trkpt>
      <trkpt lat="47.80503" lon="-3.50976">
        <ele>39.1</ele>
        <time>2021-11-25T14:13:22.000Z</time>
      </trkpt>
      <trkpt lat="47.80503" lon="-3.50987">
        <ele>40.1</ele>
        <time>2021-11-25T14:13:25.000Z</time>
      </trkpt>
      <trkpt lat="47.80503" lon="-3.51002">
        <ele>39.8</ele>
        <time>2021-11-25T14:13:28.000Z</time>
      </trkpt>
      <trkpt lat="47.80508" lon="-3.51022">
        <ele>37.7</ele>
        <time>2021-11-25T14:13:31.000Z</time>
      </trkpt>
      <trkpt lat="47.80509" lon="-3.51046">
        <ele>35.6</ele>
        <time>2021-11-25T14:13:34.000Z</time>
      </trkpt>
      <trkpt lat="47.80505" lon="-3.51079">
        <ele>36.4</ele>
        <time>2021-11-25T14:13:37.000Z</time>
      </trkpt>
      <trkpt lat="47.80493" lon="-3.51113">
        <ele>31.3</ele>
        <time>2021-11-25T14:13:40.000Z</time>
      </trkpt>
      <trkpt lat="47.80479" lon="-3.51145">
        <ele>29.4</ele>
        <time>2021-11-25T14:13:43.000Z</time>
      </trkpt>
      <trkpt lat="47.80479" lon="-3.51172">
        <ele>32</ele>
        <time>2021-11-25T14:13:46.000Z</time>
      </trkpt>
      <trkpt lat="47.80484" lon="-3.51186">
        <ele>32.3</ele>
        <time>2021-11-25T14:13:49.000Z</time>
      </trkpt>
      <trkpt lat="47.80487" lon="-3.51196">
        <ele>34</ele>
        <time>2021-11-25T14:13:52.000Z</time>
      </trkpt>
      <trkpt lat="47.80487" lon="-3.51208">
        <ele>35.5</ele>
        <time>2021-11-25T14:13:55.000Z</time>
      </trkpt>
      <trkpt lat="47.80488" lon="-3.51222">
        <ele>35.1</ele>
        <time>2021-11-25T14:13:58.000Z</time>
      </trkpt>
      <trkpt lat="47.80489" lon="-3.51237">
        <ele>35.3</ele>
        <time>2021-11-25T14:14:01.000Z</time>
      </trkpt>
      <trkpt lat="47.80489" lon="-3.51253">
        <ele>36.6</ele>
        <time>2021-11-25T14:14:04.000Z</time>
      </trkpt>
      <trkpt lat="47.80489" lon="-3.51269">
        <ele>35.3</ele>
        <time>2021-11-25T14:14:07.000Z</time>
      </trkpt>
      <trkpt lat="47.80488" lon="-3.51286">
        <ele>35.2</ele>
        <time>2021-11-25T14:14:10.000Z</time>
      </trkpt>
      <trkpt lat="47.80486" lon="-3.51301">
        <ele>36.3</ele>
        <time>2021-11-25T14:14:13.000Z</time>
      </trkpt>
      <trkpt lat="47.80484" lon="-3.51318">
        <ele>35.6</ele>
        <time>2021-11-25T14:14:16.000Z</time>
      </trkpt>
      <trkpt lat="47.80481" lon="-3.51335">
        <ele>37.1</ele>
        <time>2021-11-25T14:14:19.000Z</time>
      </trkpt>
      <trkpt lat="47.80478" lon="-3.51353">
        <ele>35.7</ele>
        <time>2021-11-25T14:14:22.000Z</time>
      </trkpt>
      <trkpt lat="47.80474" lon="-3.5137">
        <ele>34.9</ele>
        <time>2021-11-25T14:14:25.000Z</time>
      </trkpt>
      <trkpt lat="47.80468" lon="-3.51388">
        <ele>35.8</ele>
        <time>2021-11-25T14:14:28.000Z</time>
      </trkpt>
      <trkpt lat="47.8046" lon="-3.51409">
        <ele>36.3</ele>
        <time>2021-11-25T14:14:31.000Z</time>
      </trkpt>
      <trkpt lat="47.8045" lon="-3.51428">
        <ele>36.8</ele>
        <time>2021-11-25T14:14:34.000Z</time>
      </trkpt>
      <trkpt lat="47.80443" lon="-3.51449">
        <ele>37.7</ele>
        <time>2021-11-25T14:14:37.000Z</time>
      </trkpt>
      <trkpt lat="47.80437" lon="-3.5147">
        <ele>37.5</ele>
        <time>2021-11-25T14:14:40.000Z</time>
      </trkpt>
      <trkpt lat="47.8043" lon="-3.51487">
        <ele>38.1</ele>
        <time>2021-11-25T14:14:43.000Z</time>
      </trkpt>
      <trkpt lat="47.80423" lon="-3.51502">
        <ele>37</ele>
        <time>2021-11-25T14:14:46.000Z</time>
      </trkpt>
      <trkpt lat="47.80416" lon="-3.51516">
        <ele>38.4</ele>
        <time>2021-11-25T14:14:49.000Z</time>
      </trkpt>
      <trkpt lat="47.80412" lon="-3.51531">
        <ele>39.4</ele>
        <time>2021-11-25T14:14:52.000Z</time>
      </trkpt>
      <trkpt lat="47.80408" lon="-3.51544">
        <ele>39.8</ele>
        <time>2021-11-25T14:14:55.000Z</time>
      </trkpt>
      <trkpt lat="47.80405" lon="-3.51555">
        <ele>39.3</ele>
        <time>2021-11-25T14:14:58.000Z</time>
      </trkpt>
      <trkpt lat="47.80404" lon="-3.51566">
        <ele>38.2</ele>
        <time>2021-11-25T14:15:01.000Z</time>
      </trkpt>
      <trkpt lat="47.80403" lon="-3.51577">
        <ele>42</ele>
        <time>2021-11-25T14:15:04.000Z</time>
      </trkpt>
      <trkpt lat="47.80403" lon="-3.51589">
        <ele>40.8</ele>
        <time>2021-11-25T14:15:07.000Z</time>
      </trkpt>
      <trkpt lat="47.80402" lon="-3.51603">
        <ele>42.6</ele>
        <time>2021-11-25T14:15:10.000Z</time>
      </trkpt>
      <trkpt lat="47.804" lon="-3.51616">
        <ele>42.1</ele>
        <time>2021-11-25T14:15:13.000Z</time>
      </trkpt>
      <trkpt lat="47.80399" lon="-3.51628">
        <ele>44.1</ele>
        <time>2021-11-25T14:15:16.000Z</time>
      </trkpt>
      <trkpt lat="47.80398" lon="-3.51638">
        <ele>44</ele>
        <time>2021-11-25T14:15:19.000Z</time>
      </trkpt>
      <trkpt lat="47.80397" lon="-3.51648">
        <ele>45.4</ele>
        <time>2021-11-25T14:15:22.000Z</time>
      </trkpt>
      <trkpt lat="47.80395" lon="-3.51658">
        <ele>47</ele>
        <time>2021-11-25T14:15:25.000Z</time>
      </trkpt>
      <trkpt lat="47.80392" lon="-3.51667">
        <ele>45.5</ele>
        <time>2021-11-25T14:15:28.000Z</time>
      </trkpt>
      <trkpt lat="47.80388" lon="-3.51674">
        <ele>48.2</ele>
        <time>2021-11-25T14:15:31.000Z</time>
      </trkpt>
      <trkpt lat="47.80383" lon="-3.5168">
        <ele>48.1</ele>
        <time>2021-11-25T14:15:34.000Z</time>
      </trkpt>
      <trkpt lat="47.80378" lon="-3.51684">
        <ele>48.8</ele>
        <time>2021-11-25T14:15:37.000Z</time>
      </trkpt>
      <trkpt lat="47.80371" lon="-3.5169">
        <ele>49</ele>
        <time>2021-11-25T14:15:40.000Z</time>
      </trkpt>
      <trkpt lat="47.80365" lon="-3.51695">
        <ele>49.5</ele>
        <time>2021-11-25T14:15:43.000Z</time>
      </trkpt>
      <trkpt lat="47.80356" lon="-3.51702">
        <ele>49.7</ele>
        <time>2021-11-25T14:15:46.000Z</time>
      </trkpt>
      <trkpt lat="47.80345" lon="-3.51708">
        <ele>48.1</ele>
        <time>2021-11-25T14:15:49.000Z</time>
      </trkpt>
      <trkpt lat="47.80332" lon="-3.51711">
        <ele>44.9</ele>
        <time>2021-11-25T14:15:52.000Z</time>
      </trkpt>
      <trkpt lat="47.80316" lon="-3.51707">
        <ele>44.8</ele>
        <time>2021-11-25T14:15:55.000Z</time>
      </trkpt>
      <trkpt lat="47.803" lon="-3.51706">
        <ele>42.4</ele>
        <time>2021-11-25T14:15:58.000Z</time>
      </trkpt>
      <trkpt lat="47.80286" lon="-3.51704">
        <ele>45.2</ele>
        <time>2021-11-25T14:16:01.000Z</time>
      </trkpt>
      <trkpt lat="47.80273" lon="-3.51699">
        <ele>45.6</ele>
        <time>2021-11-25T14:16:04.000Z</time>
      </trkpt>
      <trkpt lat="47.80262" lon="-3.51694">
        <ele>45.8</ele>
        <time>2021-11-25T14:16:07.000Z</time>
      </trkpt>
      <trkpt lat="47.80247" lon="-3.51691">
        <ele>44</ele>
        <time>2021-11-25T14:16:10.000Z</time>
      </trkpt>
      <trkpt lat="47.80225" lon="-3.51694">
        <ele>32.3</ele>
        <time>2021-11-25T14:16:13.000Z</time>
      </trkpt>
      <trkpt lat="47.80202" lon="-3.51704">
        <ele>34.2</ele>
        <time>2021-11-25T14:16:16.000Z</time>
      </trkpt>
      <trkpt lat="47.80181" lon="-3.51703">
        <ele>40</ele>
        <time>2021-11-25T14:16:19.000Z</time>
      </trkpt>
      <trkpt lat="47.80165" lon="-3.51695">
        <ele>42.9</ele>
        <time>2021-11-25T14:16:22.000Z</time>
      </trkpt>
      <trkpt lat="47.80151" lon="-3.51689">
        <ele>41</ele>
        <time>2021-11-25T14:16:25.000Z</time>
      </trkpt>
      <trkpt lat="47.80141" lon="-3.51683">
        <ele>43.4</ele>
        <time>2021-11-25T14:16:28.000Z</time>
      </trkpt>
      <trkpt lat="47.80134" lon="-3.51681">
        <ele>44.9</ele>
        <time>2021-11-25T14:16:31.000Z</time>
      </trkpt>
      <trkpt lat="47.80132" lon="-3.51685">
        <ele>44.2</ele>
        <time>2021-11-25T14:16:34.000Z</time>
      </trkpt>
      <trkpt lat="47.80132" lon="-3.51693">
        <ele>45.1</ele>
        <time>2021-11-25T14:16:37.000Z</time>
      </trkpt>
      <trkpt lat="47.80131" lon="-3.51704">
        <ele>47.1</ele>
        <time>2021-11-25T14:16:40.000Z</time>
      </trkpt>
      <trkpt lat="47.80129" lon="-3.51714">
        <ele>46.8</ele>
        <time>2021-11-25T14:16:43.000Z</time>
      </trkpt>
      <trkpt lat="47.80127" lon="-3.51724">
        <ele>47.1</ele>
        <time>2021-11-25T14:16:46.000Z</time>
      </trkpt>
      <trkpt lat="47.80124" lon="-3.51735">
        <ele>48</ele>
        <time>2021-11-25T14:16:49.000Z</time>
      </trkpt>
      <trkpt lat="47.80122" lon="-3.51745">
        <ele>47.6</ele>
        <time>2021-11-25T14:16:52.000Z</time>
      </trkpt>
      <trkpt lat="47.80116" lon="-3.51756">
        <ele>47.7</ele>
        <time>2021-11-25T14:16:55.000Z</time>
      </trkpt>
      <trkpt lat="47.80109" lon="-3.51768">
        <ele>45.6</ele>
        <time>2021-11-25T14:16:58.000Z</time>
      </trkpt>
      <trkpt lat="47.80102" lon="-3.51781">
        <ele>39.3</ele>
        <time>2021-11-25T14:17:01.000Z</time>
      </trkpt>
      <trkpt lat="47.80086" lon="-3.518">
        <ele>37.1</ele>
        <time>2021-11-25T14:17:04.000Z</time>
      </trkpt>
      <trkpt lat="47.80062" lon="-3.51817">
        <ele>33.9</ele>
        <time>2021-11-25T14:17:07.000Z</time>
      </trkpt>
      <trkpt lat="47.8005" lon="-3.51825">
        <ele>42.1</ele>
        <time>2021-11-25T14:17:10.000Z</time>
      </trkpt>
      <trkpt lat="47.80041" lon="-3.51825">
        <ele>43.1</ele>
        <time>2021-11-25T14:17:13.000Z</time>
      </trkpt>
      <trkpt lat="47.80032" lon="-3.51821">
        <ele>42.7</ele>
        <time>2021-11-25T14:17:16.000Z</time>
      </trkpt>
      <trkpt lat="47.80024" lon="-3.51816">
        <ele>43.6</ele>
        <time>2021-11-25T14:17:19.000Z</time>
      </trkpt>
      <trkpt lat="47.80016" lon="-3.5181">
        <ele>43.9</ele>
        <time>2021-11-25T14:17:22.000Z</time>
      </trkpt>
      <trkpt lat="47.8001" lon="-3.51802">
        <ele>43</ele>
        <time>2021-11-25T14:17:25.000Z</time>
      </trkpt>
      <trkpt lat="47.80005" lon="-3.51796">
        <ele>44.9</ele>
        <time>2021-11-25T14:17:28.000Z</time>
      </trkpt>
      <trkpt lat="47.79999" lon="-3.51793">
        <ele>46.5</ele>
        <time>2021-11-25T14:17:31.000Z</time>
      </trkpt>
      <trkpt lat="47.79996" lon="-3.51792">
        <ele>46.8</ele>
        <time>2021-11-25T14:17:34.000Z</time>
      </trkpt>
      <trkpt lat="47.79993" lon="-3.5179">
        <ele>47.6</ele>
        <time>2021-11-25T14:17:37.000Z</time>
      </trkpt>
      <trkpt lat="47.79989" lon="-3.51787">
        <ele>48.2</ele>
        <time>2021-11-25T14:17:40.000Z</time>
      </trkpt>
      <trkpt lat="47.79984" lon="-3.51788">
        <ele>49.3</ele>
        <time>2021-11-25T14:17:43.000Z</time>
      </trkpt>
      <trkpt lat="47.79975" lon="-3.51789">
        <ele>50.5</ele>
        <time>2021-11-25T14:17:46.000Z</time>
      </trkpt>
      <trkpt lat="47.79968" lon="-3.5179">
        <ele>51.6</ele>
        <time>2021-11-25T14:17:49.000Z</time>
      </trkpt>
      <trkpt lat="47.79963" lon="-3.5179">
        <ele>51.5</ele>
        <time>2021-11-25T14:17:52.000Z</time>
      </trkpt>
      <trkpt lat="47.79957" lon="-3.51791">
        <ele>51.9</ele>
        <time>2021-11-25T14:17:55.000Z</time>
      </trkpt>
      <trkpt lat="47.79952" lon="-3.51793">
        <ele>51.9</ele>
        <time>2021-11-25T14:17:58.000Z</time>
      </trkpt>
      <trkpt lat="47.79944" lon="-3.51792">
        <ele>52.8</ele>
        <time>2021-11-25T14:18:01.000Z</time>
      </trkpt>
      <trkpt lat="47.79936" lon="-3.51791">
        <ele>52</ele>
        <time>2021-11-25T14:18:04.000Z</time>
      </trkpt>
      <trkpt lat="47.79927" lon="-3.51792">
        <ele>53.1</ele>
        <time>2021-11-25T14:18:07.000Z</time>
      </trkpt>
      <trkpt lat="47.79918" lon="-3.51793">
        <ele>52.4</ele>
        <time>2021-11-25T14:18:10.000Z</time>
      </trkpt>
      <trkpt lat="47.79907" lon="-3.51796">
        <ele>53.9</ele>
        <time>2021-11-25T14:18:13.000Z</time>
      </trkpt>
      <trkpt lat="47.79897" lon="-3.51803">
        <ele>52</ele>
        <time>2021-11-25T14:18:16.000Z</time>
      </trkpt>
      <trkpt lat="47.79886" lon="-3.51811">
        <ele>50.7</ele>
        <time>2021-11-25T14:18:19.000Z</time>
      </trkpt>
      <trkpt lat="47.79876" lon="-3.5182">
        <ele>51</ele>
        <time>2021-11-25T14:18:22.000Z</time>
      </trkpt>
      <trkpt lat="47.79867" lon="-3.51828">
        <ele>52.9</ele>
        <time>2021-11-25T14:18:25.000Z</time>
      </trkpt>
      <trkpt lat="47.79857" lon="-3.51837">
        <ele>50.2</ele>
        <time>2021-11-25T14:18:28.000Z</time>
      </trkpt>
      <trkpt lat="47.79847" lon="-3.51846">
        <ele>51.8</ele>
        <time>2021-11-25T14:18:31.000Z</time>
      </trkpt>
      <trkpt lat="47.79838" lon="-3.51856">
        <ele>50.4</ele>
        <time>2021-11-25T14:18:34.000Z</time>
      </trkpt>
      <trkpt lat="47.79827" lon="-3.51868">
        <ele>50.6</ele>
        <time>2021-11-25T14:18:37.000Z</time>
      </trkpt>
      <trkpt lat="47.79813" lon="-3.51878">
        <ele>48.6</ele>
        <time>2021-11-25T14:18:40.000Z</time>
      </trkpt>
      <trkpt lat="47.79795" lon="-3.51886">
        <ele>47.9</ele>
        <time>2021-11-25T14:18:43.000Z</time>
      </trkpt>
      <trkpt lat="47.79774" lon="-3.51895">
        <ele>48.8</ele>
        <time>2021-11-25T14:18:46.000Z</time>
      </trkpt>
      <trkpt lat="47.79758" lon="-3.51899">
        <ele>46.9</ele>
        <time>2021-11-25T14:18:49.000Z</time>
      </trkpt>
      <trkpt lat="47.79749" lon="-3.51902">
        <ele>47.9</ele>
        <time>2021-11-25T14:18:52.000Z</time>
      </trkpt>
      <trkpt lat="47.79739" lon="-3.51907">
        <ele>46.6</ele>
        <time>2021-11-25T14:18:55.000Z</time>
      </trkpt>
      <trkpt lat="47.7973" lon="-3.51916">
        <ele>45.6</ele>
        <time>2021-11-25T14:18:58.000Z</time>
      </trkpt>
      <trkpt lat="47.7972" lon="-3.51925">
        <ele>47.9</ele>
        <time>2021-11-25T14:19:01.000Z</time>
      </trkpt>
      <trkpt lat="47.79711" lon="-3.51931">
        <ele>47.6</ele>
        <time>2021-11-25T14:19:04.000Z</time>
      </trkpt>
      <trkpt lat="47.79701" lon="-3.51938">
        <ele>46.3</ele>
        <time>2021-11-25T14:19:07.000Z</time>
      </trkpt>
      <trkpt lat="47.79694" lon="-3.51945">
        <ele>48.1</ele>
        <time>2021-11-25T14:19:10.000Z</time>
      </trkpt>
      <trkpt lat="47.79688" lon="-3.51955">
        <ele>48.7</ele>
        <time>2021-11-25T14:19:13.000Z</time>
      </trkpt>
      <trkpt lat="47.79682" lon="-3.51964">
        <ele>46.4</ele>
        <time>2021-11-25T14:19:16.000Z</time>
      </trkpt>
      <trkpt lat="47.79678" lon="-3.51975">
        <ele>47.8</ele>
        <time>2021-11-25T14:19:19.000Z</time>
      </trkpt>
      <trkpt lat="47.79669" lon="-3.51983">
        <ele>45.2</ele>
        <time>2021-11-25T14:19:22.000Z</time>
      </trkpt>
      <trkpt lat="47.7966" lon="-3.51988">
        <ele>45.8</ele>
        <time>2021-11-25T14:19:25.000Z</time>
      </trkpt>
      <trkpt lat="47.79652" lon="-3.51997">
        <ele>48.4</ele>
        <time>2021-11-25T14:19:28.000Z</time>
      </trkpt>
      <trkpt lat="47.79645" lon="-3.52004">
        <ele>45.6</ele>
        <time>2021-11-25T14:19:31.000Z</time>
      </trkpt>
      <trkpt lat="47.79636" lon="-3.52016">
        <ele>46.4</ele>
        <time>2021-11-25T14:19:34.000Z</time>
      </trkpt>
      <trkpt lat="47.79626" lon="-3.52031">
        <ele>44.5</ele>
        <time>2021-11-25T14:19:37.000Z</time>
      </trkpt>
      <trkpt lat="47.79616" lon="-3.52047">
        <ele>41.5</ele>
        <time>2021-11-25T14:19:40.000Z</time>
      </trkpt>
      <trkpt lat="47.79612" lon="-3.52067">
        <ele>43.2</ele>
        <time>2021-11-25T14:19:43.000Z</time>
      </trkpt>
      <trkpt lat="47.79609" lon="-3.52085">
        <ele>43.9</ele>
        <time>2021-11-25T14:19:46.000Z</time>
      </trkpt>
      <trkpt lat="47.79603" lon="-3.521">
        <ele>43.8</ele>
        <time>2021-11-25T14:19:49.000Z</time>
      </trkpt>
      <trkpt lat="47.79597" lon="-3.52114">
        <ele>38.7</ele>
        <time>2021-11-25T14:19:52.000Z</time>
      </trkpt>
      <trkpt lat="47.79591" lon="-3.52132">
        <ele>35.8</ele>
        <time>2021-11-25T14:19:55.000Z</time>
      </trkpt>
      <trkpt lat="47.79586" lon="-3.52154">
        <ele>42.7</ele>
        <time>2021-11-25T14:19:58.000Z</time>
      </trkpt>
      <trkpt lat="47.79587" lon="-3.52173">
        <ele>40.7</ele>
        <time>2021-11-25T14:20:01.000Z</time>
      </trkpt>
      <trkpt lat="47.79589" lon="-3.52189">
        <ele>34.9</ele>
        <time>2021-11-25T14:20:04.000Z</time>
      </trkpt>
      <trkpt lat="47.79592" lon="-3.52203">
        <ele>35.9</ele>
        <time>2021-11-25T14:20:07.000Z</time>
      </trkpt>
      <trkpt lat="47.79594" lon="-3.52209">
        <ele>34.8</ele>
        <time>2021-11-25T14:20:10.000Z</time>
      </trkpt>
      <trkpt lat="47.79592" lon="-3.52217">
        <ele>35.4</ele>
        <time>2021-11-25T14:20:13.000Z</time>
      </trkpt>
      <trkpt lat="47.79591" lon="-3.52227">
        <ele>35.6</ele>
        <time>2021-11-25T14:20:16.000Z</time>
      </trkpt>
      <trkpt lat="47.79589" lon="-3.52241">
        <ele>34.4</ele>
        <time>2021-11-25T14:20:19.000Z</time>
      </trkpt>
      <trkpt lat="47.79585" lon="-3.52251">
        <ele>33.4</ele>
        <time>2021-11-25T14:20:22.000Z</time>
      </trkpt>
      <trkpt lat="47.79577" lon="-3.52255">
        <ele>35.2</ele>
        <time>2021-11-25T14:20:25.000Z</time>
      </trkpt>
      <trkpt lat="47.79571" lon="-3.52254">
        <ele>35.8</ele>
        <time>2021-11-25T14:20:28.000Z</time>
      </trkpt>
      <trkpt lat="47.79568" lon="-3.52256">
        <ele>36.6</ele>
        <time>2021-11-25T14:20:31.000Z</time>
      </trkpt>
      <trkpt lat="47.79568" lon="-3.52265">
        <ele>37</ele>
        <time>2021-11-25T14:20:34.000Z</time>
      </trkpt>
      <trkpt lat="47.79565" lon="-3.52271">
        <ele>37.1</ele>
        <time>2021-11-25T14:20:37.000Z</time>
      </trkpt>
      <trkpt lat="47.79559" lon="-3.52272">
        <ele>37.3</ele>
        <time>2021-11-25T14:20:40.000Z</time>
      </trkpt>
      <trkpt lat="47.79553" lon="-3.52277">
        <ele>37.5</ele>
        <time>2021-11-25T14:20:43.000Z</time>
      </trkpt>
      <trkpt lat="47.7955" lon="-3.52285">
        <ele>35.2</ele>
        <time>2021-11-25T14:20:46.000Z</time>
      </trkpt>
      <trkpt lat="47.79544" lon="-3.52287">
        <ele>37.9</ele>
        <time>2021-11-25T14:20:49.000Z</time>
      </trkpt>
      <trkpt lat="47.7954" lon="-3.52291">
        <ele>39.9</ele>
        <time>2021-11-25T14:20:52.000Z</time>
      </trkpt>
      <trkpt lat="47.79535" lon="-3.52295">
        <ele>39.4</ele>
        <time>2021-11-25T14:20:55.000Z</time>
      </trkpt>
      <trkpt lat="47.79531" lon="-3.52299">
        <ele>39.3</ele>
        <time>2021-11-25T14:20:58.000Z</time>
      </trkpt>
      <trkpt lat="47.79528" lon="-3.52306">
        <ele>39.6</ele>
        <time>2021-11-25T14:21:01.000Z</time>
      </trkpt>
      <trkpt lat="47.79527" lon="-3.52318">
        <ele>38.8</ele>
        <time>2021-11-25T14:21:04.000Z</time>
      </trkpt>
      <trkpt lat="47.79527" lon="-3.52329">
        <ele>38.9</ele>
        <time>2021-11-25T14:21:07.000Z</time>
      </trkpt>
      <trkpt lat="47.79522" lon="-3.52337">
        <ele>39.6</ele>
        <time>2021-11-25T14:21:10.000Z</time>
      </trkpt>
      <trkpt lat="47.79516" lon="-3.52341">
        <ele>38</ele>
        <time>2021-11-25T14:21:13.000Z</time>
      </trkpt>
      <trkpt lat="47.79509" lon="-3.52345">
        <ele>39.5</ele>
        <time>2021-11-25T14:21:16.000Z</time>
      </trkpt>
      <trkpt lat="47.79504" lon="-3.5235">
        <ele>40</ele>
        <time>2021-11-25T14:21:19.000Z</time>
      </trkpt>
      <trkpt lat="47.79499" lon="-3.52361">
        <ele>40.4</ele>
        <time>2021-11-25T14:21:22.000Z</time>
      </trkpt>
      <trkpt lat="47.79497" lon="-3.52367">
        <ele>38.9</ele>
        <time>2021-11-25T14:21:25.000Z</time>
      </trkpt>
      <trkpt lat="47.79494" lon="-3.52366">
        <ele>39.9</ele>
        <time>2021-11-25T14:21:28.000Z</time>
      </trkpt>
      <trkpt lat="47.79491" lon="-3.52364">
        <ele>40.7</ele>
        <time>2021-11-25T14:21:31.000Z</time>
      </trkpt>
      <trkpt lat="47.79488" lon="-3.52366">
        <ele>40.2</ele>
        <time>2021-11-25T14:21:34.000Z</time>
      </trkpt>
      <trkpt lat="47.79483" lon="-3.52371">
        <ele>40.5</ele>
        <time>2021-11-25T14:21:37.000Z</time>
      </trkpt>
      <trkpt lat="47.79477" lon="-3.52375">
        <ele>40.6</ele>
        <time>2021-11-25T14:21:40.000Z</time>
      </trkpt>
      <trkpt lat="47.79466" lon="-3.5238">
        <ele>40.1</ele>
        <time>2021-11-25T14:21:43.000Z</time>
      </trkpt>
      <trkpt lat="47.79459" lon="-3.52385">
        <ele>40.1</ele>
        <time>2021-11-25T14:21:46.000Z</time>
      </trkpt>
      <trkpt lat="47.79451" lon="-3.52388">
        <ele>39.9</ele>
        <time>2021-11-25T14:21:49.000Z</time>
      </trkpt>
      <trkpt lat="47.79442" lon="-3.52388">
        <ele>42.9</ele>
        <time>2021-11-25T14:21:52.000Z</time>
      </trkpt>
      <trkpt lat="47.79435" lon="-3.52394">
        <ele>41.5</ele>
        <time>2021-11-25T14:21:55.000Z</time>
      </trkpt>
      <trkpt lat="47.79427" lon="-3.52402">
        <ele>40.1</ele>
        <time>2021-11-25T14:21:58.000Z</time>
      </trkpt>
      <trkpt lat="47.79418" lon="-3.52406">
        <ele>40.1</ele>
        <time>2021-11-25T14:22:01.000Z</time>
      </trkpt>
      <trkpt lat="47.7941" lon="-3.52407">
        <ele>39.9</ele>
        <time>2021-11-25T14:22:04.000Z</time>
      </trkpt>
      <trkpt lat="47.79404" lon="-3.52409">
        <ele>40.1</ele>
        <time>2021-11-25T14:22:07.000Z</time>
      </trkpt>
      <trkpt lat="47.79398" lon="-3.52412">
        <ele>38.7</ele>
        <time>2021-11-25T14:22:10.000Z</time>
      </trkpt>
      <trkpt lat="47.79391" lon="-3.52422">
        <ele>37.8</ele>
        <time>2021-11-25T14:22:13.000Z</time>
      </trkpt>
      <trkpt lat="47.79386" lon="-3.5243">
        <ele>36.5</ele>
        <time>2021-11-25T14:22:16.000Z</time>
      </trkpt>
      <trkpt lat="47.79386" lon="-3.52434">
        <ele>36.9</ele>
        <time>2021-11-25T14:22:19.000Z</time>
      </trkpt>
      <trkpt lat="47.79384" lon="-3.5244">
        <ele>36.9</ele>
        <time>2021-11-25T14:22:22.000Z</time>
      </trkpt>
      <trkpt lat="47.79375" lon="-3.52439">
        <ele>37.3</ele>
        <time>2021-11-25T14:22:25.000Z</time>
      </trkpt>
      <trkpt lat="47.79365" lon="-3.52436">
        <ele>37.9</ele>
        <time>2021-11-25T14:22:28.000Z</time>
      </trkpt>
      <trkpt lat="47.79354" lon="-3.52433">
        <ele>38.3</ele>
        <time>2021-11-25T14:22:31.000Z</time>
      </trkpt>
      <trkpt lat="47.79344" lon="-3.52429">
        <ele>38.7</ele>
        <time>2021-11-25T14:22:34.000Z</time>
      </trkpt>
      <trkpt lat="47.79333" lon="-3.52423">
        <ele>39.2</ele>
        <time>2021-11-25T14:22:37.000Z</time>
      </trkpt>
      <trkpt lat="47.79323" lon="-3.52416">
        <ele>39.6</ele>
        <time>2021-11-25T14:22:40.000Z</time>
      </trkpt>
      <trkpt lat="47.79313" lon="-3.52409">
        <ele>39.7</ele>
        <time>2021-11-25T14:22:43.000Z</time>
      </trkpt>
      <trkpt lat="47.79302" lon="-3.52401">
        <ele>40.3</ele>
        <time>2021-11-25T14:22:46.000Z</time>
      </trkpt>
      <trkpt lat="47.79292" lon="-3.52391">
        <ele>40.6</ele>
        <time>2021-11-25T14:22:49.000Z</time>
      </trkpt>
      <trkpt lat="47.79282" lon="-3.5238">
        <ele>41</ele>
        <time>2021-11-25T14:22:52.000Z</time>
      </trkpt>
      <trkpt lat="47.79273" lon="-3.52368">
        <ele>40.8</ele>
        <time>2021-11-25T14:22:55.000Z</time>
      </trkpt>
      <trkpt lat="47.79264" lon="-3.52354">
        <ele>40.5</ele>
        <time>2021-11-25T14:22:58.000Z</time>
      </trkpt>
      <trkpt lat="47.79254" lon="-3.5234">
        <ele>40.8</ele>
        <time>2021-11-25T14:23:01.000Z</time>
      </trkpt>
      <trkpt lat="47.79246" lon="-3.52325">
        <ele>41.4</ele>
        <time>2021-11-25T14:23:04.000Z</time>
      </trkpt>
      <trkpt lat="47.79239" lon="-3.52309">
        <ele>41.4</ele>
        <time>2021-11-25T14:23:07.000Z</time>
      </trkpt>
      <trkpt lat="47.79232" lon="-3.52293">
        <ele>41.3</ele>
        <time>2021-11-25T14:23:10.000Z</time>
      </trkpt>
      <trkpt lat="47.79226" lon="-3.52277">
        <ele>41.1</ele>
        <time>2021-11-25T14:23:13.000Z</time>
      </trkpt>
      <trkpt lat="47.79221" lon="-3.5226">
        <ele>41.8</ele>
        <time>2021-11-25T14:23:16.000Z</time>
      </trkpt>
      <trkpt lat="47.79217" lon="-3.52242">
        <ele>42.1</ele>
        <time>2021-11-25T14:23:19.000Z</time>
      </trkpt>
      <trkpt lat="47.79214" lon="-3.52223">
        <ele>41.6</ele>
        <time>2021-11-25T14:23:22.000Z</time>
      </trkpt>
      <trkpt lat="47.79211" lon="-3.52204">
        <ele>42.6</ele>
        <time>2021-11-25T14:23:25.000Z</time>
      </trkpt>
      <trkpt lat="47.7921" lon="-3.52185">
        <ele>41.9</ele>
        <time>2021-11-25T14:23:28.000Z</time>
      </trkpt>
      <trkpt lat="47.79209" lon="-3.52165">
        <ele>42</ele>
        <time>2021-11-25T14:23:31.000Z</time>
      </trkpt>
      <trkpt lat="47.79208" lon="-3.52145">
        <ele>42.1</ele>
        <time>2021-11-25T14:23:34.000Z</time>
      </trkpt>
      <trkpt lat="47.79209" lon="-3.52124">
        <ele>42.1</ele>
        <time>2021-11-25T14:23:37.000Z</time>
      </trkpt>
      <trkpt lat="47.79209" lon="-3.52104">
        <ele>42.3</ele>
        <time>2021-11-25T14:23:40.000Z</time>
      </trkpt>
      <trkpt lat="47.79209" lon="-3.52085">
        <ele>42.6</ele>
        <time>2021-11-25T14:23:43.000Z</time>
      </trkpt>
      <trkpt lat="47.7921" lon="-3.52065">
        <ele>42.8</ele>
        <time>2021-11-25T14:23:46.000Z</time>
      </trkpt>
      <trkpt lat="47.7921" lon="-3.52046">
        <ele>43.4</ele>
        <time>2021-11-25T14:23:49.000Z</time>
      </trkpt>
      <trkpt lat="47.79211" lon="-3.52027">
        <ele>43.2</ele>
        <time>2021-11-25T14:23:52.000Z</time>
      </trkpt>
      <trkpt lat="47.79211" lon="-3.52008">
        <ele>44.7</ele>
        <time>2021-11-25T14:23:55.000Z</time>
      </trkpt>
      <trkpt lat="47.79211" lon="-3.5199">
        <ele>44.2</ele>
        <time>2021-11-25T14:23:58.000Z</time>
      </trkpt>
      <trkpt lat="47.7921" lon="-3.51971">
        <ele>44.6</ele>
        <time>2021-11-25T14:24:01.000Z</time>
      </trkpt>
      <trkpt lat="47.7921" lon="-3.5195">
        <ele>41.4</ele>
        <time>2021-11-25T14:24:04.000Z</time>
      </trkpt>
      <trkpt lat="47.79211" lon="-3.51929">
        <ele>38.7</ele>
        <time>2021-11-25T14:24:07.000Z</time>
      </trkpt>
      <trkpt lat="47.79211" lon="-3.51908">
        <ele>41.5</ele>
        <time>2021-11-25T14:24:10.000Z</time>
      </trkpt>
      <trkpt lat="47.79212" lon="-3.51886">
        <ele>41.8</ele>
        <time>2021-11-25T14:24:13.000Z</time>
      </trkpt>
      <trkpt lat="47.79212" lon="-3.51865">
        <ele>42.7</ele>
        <time>2021-11-25T14:24:16.000Z</time>
      </trkpt>
      <trkpt lat="47.79208" lon="-3.51846">
        <ele>37.7</ele>
        <time>2021-11-25T14:24:19.000Z</time>
      </trkpt>
      <trkpt lat="47.79205" lon="-3.51824">
        <ele>38.7</ele>
        <time>2021-11-25T14:24:22.000Z</time>
      </trkpt>
      <trkpt lat="47.79204" lon="-3.51797">
        <ele>41.4</ele>
        <time>2021-11-25T14:24:25.000Z</time>
      </trkpt>
      <trkpt lat="47.79205" lon="-3.51768">
        <ele>34.1</ele>
        <time>2021-11-25T14:24:28.000Z</time>
      </trkpt>
      <trkpt lat="47.79208" lon="-3.51739">
        <ele>35.7</ele>
        <time>2021-11-25T14:24:31.000Z</time>
      </trkpt>
      <trkpt lat="47.79214" lon="-3.51708">
        <ele>31</ele>
        <time>2021-11-25T14:24:34.000Z</time>
      </trkpt>
      <trkpt lat="47.79214" lon="-3.51678">
        <ele>30.5</ele>
        <time>2021-11-25T14:24:37.000Z</time>
      </trkpt>
      <trkpt lat="47.79213" lon="-3.51651">
        <ele>26.8</ele>
        <time>2021-11-25T14:24:40.000Z</time>
      </trkpt>
      <trkpt lat="47.79209" lon="-3.51626">
        <ele>27.4</ele>
        <time>2021-11-25T14:24:43.000Z</time>
      </trkpt>
      <trkpt lat="47.79199" lon="-3.51606">
        <ele>33.1</ele>
        <time>2021-11-25T14:24:46.000Z</time>
      </trkpt>
      <trkpt lat="47.79185" lon="-3.51598">
        <ele>28.9</ele>
        <time>2021-11-25T14:24:49.000Z</time>
      </trkpt>
      <trkpt lat="47.79168" lon="-3.51595">
        <ele>28</ele>
        <time>2021-11-25T14:24:52.000Z</time>
      </trkpt>
      <trkpt lat="47.79149" lon="-3.51596">
        <ele>25.1</ele>
        <time>2021-11-25T14:24:55.000Z</time>
      </trkpt>
      <trkpt lat="47.79132" lon="-3.51595">
        <ele>28</ele>
        <time>2021-11-25T14:24:58.000Z</time>
      </trkpt>
      <trkpt lat="47.79113" lon="-3.51593">
        <ele>26.6</ele>
        <time>2021-11-25T14:25:01.000Z</time>
      </trkpt>
      <trkpt lat="47.79093" lon="-3.51589">
        <ele>25.3</ele>
        <time>2021-11-25T14:25:04.000Z</time>
      </trkpt>
      <trkpt lat="47.79075" lon="-3.51585">
        <ele>25.7</ele>
        <time>2021-11-25T14:25:07.000Z</time>
      </trkpt>
      <trkpt lat="47.79058" lon="-3.51586">
        <ele>28.4</ele>
        <time>2021-11-25T14:25:10.000Z</time>
      </trkpt>
      <trkpt lat="47.79043" lon="-3.51587">
        <ele>31.7</ele>
        <time>2021-11-25T14:25:13.000Z</time>
      </trkpt>
      <trkpt lat="47.7903" lon="-3.51586">
        <ele>25.6</ele>
        <time>2021-11-25T14:25:16.000Z</time>
      </trkpt>
      <trkpt lat="47.79016" lon="-3.51586">
        <ele>23.6</ele>
        <time>2021-11-25T14:25:19.000Z</time>
      </trkpt>
      <trkpt lat="47.79002" lon="-3.51587">
        <ele>25.8</ele>
        <time>2021-11-25T14:25:22.000Z</time>
      </trkpt>
      <trkpt lat="47.78984" lon="-3.51592">
        <ele>25.6</ele>
        <time>2021-11-25T14:25:25.000Z</time>
      </trkpt>
      <trkpt lat="47.7897" lon="-3.51596">
        <ele>21.5</ele>
        <time>2021-11-25T14:25:28.000Z</time>
      </trkpt>
      <trkpt lat="47.78955" lon="-3.51601">
        <ele>24.2</ele>
        <time>2021-11-25T14:25:31.000Z</time>
      </trkpt>
      <trkpt lat="47.78939" lon="-3.51603">
        <ele>22.6</ele>
        <time>2021-11-25T14:25:34.000Z</time>
      </trkpt>
      <trkpt lat="47.78924" lon="-3.51598">
        <ele>23.2</ele>
        <time>2021-11-25T14:25:37.000Z</time>
      </trkpt>
      <trkpt lat="47.78909" lon="-3.51592">
        <ele>25.2</ele>
        <time>2021-11-25T14:25:40.000Z</time>
      </trkpt>
      <trkpt lat="47.78892" lon="-3.51584">
        <ele>24</ele>
        <time>2021-11-25T14:25:43.000Z</time>
      </trkpt>
      <trkpt lat="47.78875" lon="-3.51576">
        <ele>24.5</ele>
        <time>2021-11-25T14:25:46.000Z</time>
      </trkpt>
      <trkpt lat="47.7886" lon="-3.51566">
        <ele>21</ele>
        <time>2021-11-25T14:25:49.000Z</time>
      </trkpt>
      <trkpt lat="47.78841" lon="-3.51553">
        <ele>19</ele>
        <time>2021-11-25T14:25:52.000Z</time>
      </trkpt>
      <trkpt lat="47.78826" lon="-3.51542">
        <ele>22.8</ele>
        <time>2021-11-25T14:25:55.000Z</time>
      </trkpt>
      <trkpt lat="47.7881" lon="-3.51533">
        <ele>24.1</ele>
        <time>2021-11-25T14:25:58.000Z</time>
      </trkpt>
      <trkpt lat="47.78793" lon="-3.51522">
        <ele>21.6</ele>
        <time>2021-11-25T14:26:01.000Z</time>
      </trkpt>
      <trkpt lat="47.78772" lon="-3.51517">
        <ele>18.6</ele>
        <time>2021-11-25T14:26:04.000Z</time>
      </trkpt>
      <trkpt lat="47.78752" lon="-3.51516">
        <ele>17.6</ele>
        <time>2021-11-25T14:26:07.000Z</time>
      </trkpt>
      <trkpt lat="47.78729" lon="-3.51515">
        <ele>9.4</ele>
        <time>2021-11-25T14:26:10.000Z</time>
      </trkpt>
      <trkpt lat="47.78707" lon="-3.51508">
        <ele>18</ele>
        <time>2021-11-25T14:26:13.000Z</time>
      </trkpt>
      <trkpt lat="47.78686" lon="-3.51495">
        <ele>8.7</ele>
        <time>2021-11-25T14:26:16.000Z</time>
      </trkpt>
      <trkpt lat="47.78668" lon="-3.51482">
        <ele>4.7</ele>
        <time>2021-11-25T14:26:19.000Z</time>
      </trkpt>
      <trkpt lat="47.78631" lon="-3.51477">
        <ele>12</ele>
      </trkpt>
      <trkpt lat="47.78631" lon="-3.51458">
        <ele>13.9</ele>
      </trkpt>
      <trkpt lat="47.78632" lon="-3.51344">
        <ele>24.2</ele>
      </trkpt>
      <trkpt lat="47.78628" lon="-3.51306">
        <ele>29.3</ele>
      </trkpt>
      <trkpt lat="47.7862" lon="-3.50989">
        <ele>44.3</ele>
      </trkpt>
      <trkpt lat="47.78615" lon="-3.50956">
        <ele>43.6</ele>
      </trkpt>
      <trkpt lat="47.78575" lon="-3.50899">
        <ele>43</ele>
      </trkpt>
      <trkpt lat="47.78552" lon="-3.50799">
        <ele>43.8</ele>
      </trkpt>
      <trkpt lat="47.78565" lon="-3.50791">
        <ele>44.5</ele>
      </trkpt>
      <trkpt lat="47.78582" lon="-3.5078">
        <ele>45</ele>
      </trkpt>
      <trkpt lat="47.78596" lon="-3.50774">
        <ele>46</ele>
      </trkpt>
      <trkpt lat="47.78602" lon="-3.50773">
        <ele>46.4</ele>
      </trkpt>
      <trkpt lat="47.78605" lon="-3.50764">
        <ele>46.7</ele>
      </trkpt>
      <trkpt lat="47.78616" lon="-3.50739">
        <ele>47.5</ele>
      </trkpt>
      <trkpt lat="47.78636" lon="-3.50714">
        <ele>48</ele>
      </trkpt>
      <trkpt lat="47.78652" lon="-3.50678">
        <ele>48</ele>
      </trkpt>
      <trkpt lat="47.7866" lon="-3.50658">
        <ele>48.3</ele>
      </trkpt>
      <trkpt lat="47.78665" lon="-3.50645">
        <ele>48.1</ele>
      </trkpt>
      <trkpt lat="47.78672" lon="-3.50636">
        <ele>47.8</ele>
      </trkpt>
      <trkpt lat="47.78717" lon="-3.50618">
        <ele>46.5</ele>
      </trkpt>
      <trkpt lat="47.78734" lon="-3.50613">
        <ele>45.3</ele>
      </trkpt>
      <trkpt lat="47.7877" lon="-3.50612">
        <ele>43.4</ele>
      </trkpt>
      <trkpt lat="47.78838" lon="-3.50645">
        <ele>47.1</ele>
      </trkpt>
      <trkpt lat="47.7891" lon="-3.50659">
        <ele>47.2</ele>
      </trkpt>
      <trkpt lat="47.78913" lon="-3.50659">
        <ele>47.2</ele>
      </trkpt>
      <trkpt lat="47.78924" lon="-3.50659">
        <ele>47.1</ele>
      </trkpt>
      <trkpt lat="47.78967" lon="-3.50645">
        <ele>47.8</ele>
      </trkpt>
      <trkpt lat="47.78988" lon="-3.50615">
        <ele>48.8</ele>
      </trkpt>
      <trkpt lat="47.79007" lon="-3.506">
        <ele>49.6</ele>
      </trkpt>
      <trkpt lat="47.79062" lon="-3.50634">
        <ele>51.6</ele>
      </trkpt>
      <trkpt lat="47.79096" lon="-3.50649">
        <ele>51.1</ele>
      </trkpt>
      <trkpt lat="47.7911" lon="-3.50647">
        <ele>50.6</ele>
      </trkpt>
      <trkpt lat="47.79153" lon="-3.50644">
        <ele>49.4</ele>
      </trkpt>
      <trkpt lat="47.79256" lon="-3.50688">
        <ele>43.1</ele>
      </trkpt>
      <trkpt lat="47.79227" lon="-3.50626">
        <ele>39.9</ele>
      </trkpt>
      <trkpt lat="47.79204" lon="-3.50586">
        <ele>38.3</ele>
      </trkpt>
      <trkpt lat="47.79188" lon="-3.50564">
        <ele>36.1</ele>
      </trkpt>
      <trkpt lat="47.79169" lon="-3.50546">
        <ele>34.5</ele>
      </trkpt>
      <trkpt lat="47.79157" lon="-3.50534">
        <ele>33.5</ele>
      </trkpt>
      <trkpt lat="47.79136" lon="-3.50505">
        <ele>32.7</ele>
      </trkpt>
      <trkpt lat="47.79122" lon="-3.5049">
        <ele>33.5</ele>
      </trkpt>
      <trkpt lat="47.79112" lon="-3.50451">
        <ele>34.6</ele>
      </trkpt>
      <trkpt lat="47.79117" lon="-3.50435">
        <ele>34.1</ele>
      </trkpt>
      <trkpt lat="47.79117" lon="-3.50415">
        <ele>34.3</ele>
      </trkpt>
      <trkpt lat="47.79092" lon="-3.50329">
        <ele>28.6</ele>
      </trkpt>
      <trkpt lat="47.79079" lon="-3.50283">
        <ele>24.8</ele>
      </trkpt>
      <trkpt lat="47.79131" lon="-3.50312">
        <ele>26.6</ele>
      </trkpt>
      <trkpt lat="47.79149" lon="-3.50305">
        <ele>28.1</ele>
      </trkpt>
      <trkpt lat="47.79206" lon="-3.50272">
        <ele>32.2</ele>
      </trkpt>
      <trkpt lat="47.79226" lon="-3.5026">
        <ele>32.4</ele>
      </trkpt>
      <trkpt lat="47.79243" lon="-3.50222">
        <ele>39</ele>
      </trkpt>
      <trkpt lat="47.79241" lon="-3.50211">
        <ele>39.8</ele>
      </trkpt>
      <trkpt lat="47.79253" lon="-3.502">
        <ele>40.6</ele>
      </trkpt>
      <trkpt lat="47.79312" lon="-3.50146">
        <ele>39.7</ele>
      </trkpt>
      <trkpt lat="47.79346" lon="-3.50124">
        <ele>38.1</ele>
      </trkpt>
      <trkpt lat="47.79357" lon="-3.50118">
        <ele>37.3</ele>
      </trkpt>
      <trkpt lat="47.79368" lon="-3.50112">
        <ele>37.2</ele>
      </trkpt>
      <trkpt lat="47.79367" lon="-3.50109">
        <ele>37.3</ele>
      </trkpt>
      <trkpt lat="47.79367" lon="-3.501">
        <ele>37.5</ele>
      </trkpt>
      <trkpt lat="47.79371" lon="-3.50094">
        <ele>37.8</ele>
      </trkpt>
      <trkpt lat="47.79374" lon="-3.50093">
        <ele>37.8</ele>
      </trkpt>
      <trkpt lat="47.79377" lon="-3.50093">
        <ele>37.9</ele>
      </trkpt>
      <trkpt lat="47.7938" lon="-3.50095">
        <ele>37.9</ele>
      </trkpt>
      <trkpt lat="47.79381" lon="-3.50097">
        <ele>37.9</ele>
      </trkpt>
      <trkpt lat="47.7939" lon="-3.50085">
        <ele>38.2</ele>
      </trkpt>
      <trkpt lat="47.79394" lon="-3.5008">
        <ele>39</ele>
      </trkpt>
      <trkpt lat="47.7942" lon="-3.50052">
        <ele>42.5</ele>
      </trkpt>
      <trkpt lat="47.79419" lon="-3.50042">
        <ele>43.1</ele>
      </trkpt>
      <trkpt lat="47.79418" lon="-3.50031">
        <ele>43.9</ele>
      </trkpt>
      <trkpt lat="47.79421" lon="-3.50017">
        <ele>45.1</ele>
      </trkpt>
      <trkpt lat="47.79432" lon="-3.49984">
        <ele>47.7</ele>
      </trkpt>
      <trkpt lat="47.7944" lon="-3.49972">
        <ele>48.7</ele>
      </trkpt>
      <trkpt lat="47.7944" lon="-3.49957">
        <ele>49.8</ele>
      </trkpt>
      <trkpt lat="47.79446" lon="-3.49932">
        <ele>51</ele>
      </trkpt>
      <trkpt lat="47.79452" lon="-3.49906">
        <ele>51.3</ele>
      </trkpt>
      <trkpt lat="47.79468" lon="-3.49813">
        <ele>54</ele>
      </trkpt>
      <trkpt lat="47.79468" lon="-3.49812">
        <ele>54</ele>
      </trkpt>
      <trkpt lat="47.79478" lon="-3.49775">
        <ele>54.1</ele>
      </trkpt>
      <trkpt lat="47.79481" lon="-3.49748">
        <ele>54.4</ele>
      </trkpt>
      <trkpt lat="47.79483" lon="-3.49711">
        <ele>54</ele>
      </trkpt>
      <trkpt lat="47.79479" lon="-3.49692">
        <ele>53.8</ele>
      </trkpt>
      <trkpt lat="47.79477" lon="-3.49684">
        <ele>53.8</ele>
      </trkpt>
      <trkpt lat="47.79478" lon="-3.49675">
        <ele>53.8</ele>
      </trkpt>
      <trkpt lat="47.79488" lon="-3.49659">
        <ele>53.6</ele>
      </trkpt>
      <trkpt lat="47.79496" lon="-3.49641">
        <ele>53.3</ele>
      </trkpt>
      <trkpt lat="47.79498" lon="-3.49618">
        <ele>53.1</ele>
      </trkpt>
      <trkpt lat="47.79498" lon="-3.49583">
        <ele>53.1</ele>
      </trkpt>
      <trkpt lat="47.79505" lon="-3.49531">
        <ele>52.6</ele>
      </trkpt>
      <trkpt lat="47.79504" lon="-3.49508">
        <ele>52.1</ele>
      </trkpt>
      <trkpt lat="47.79505" lon="-3.495">
        <ele>51.8</ele>
      </trkpt>
      <trkpt lat="47.79506" lon="-3.49484">
        <ele>51.8</ele>
      </trkpt>
      <trkpt lat="47.79514" lon="-3.49444">
        <ele>51.5</ele>
      </trkpt>
      <trkpt lat="47.79511" lon="-3.49379">
        <ele>50.2</ele>
      </trkpt>
      <trkpt lat="47.7951" lon="-3.49376">
        <ele>50.2</ele>
      </trkpt>
      <trkpt lat="47.79516" lon="-3.49348">
        <ele>49</ele>
      </trkpt>
      <trkpt lat="47.79504" lon="-3.49315">
        <ele>48.2</ele>
      </trkpt>
      <trkpt lat="47.79501" lon="-3.49299">
        <ele>47.7</ele>
      </trkpt>
      <trkpt lat="47.79503" lon="-3.49293">
        <ele>47.4</ele>
      </trkpt>
      <trkpt lat="47.79507" lon="-3.49287">
        <ele>47.1</ele>
      </trkpt>
      <trkpt lat="47.79508" lon="-3.49285">
        <ele>47</ele>
      </trkpt>
      <trkpt lat="47.79523" lon="-3.49264">
        <ele>46.2</ele>
      </trkpt>
      <trkpt lat="47.79528" lon="-3.49165">
        <ele>43.9</ele>
      </trkpt>
      <trkpt lat="47.79534" lon="-3.49147">
        <ele>43.3</ele>
      </trkpt>
      <trkpt lat="47.79534" lon="-3.49123">
        <ele>42.4</ele>
      </trkpt>
      <trkpt lat="47.79534" lon="-3.49112">
        <ele>42</ele>
      </trkpt>
      <trkpt lat="47.79534" lon="-3.49095">
        <ele>42</ele>
      </trkpt>
      <trkpt lat="47.79532" lon="-3.48961">
        <ele>44.5</ele>
      </trkpt>
      <trkpt lat="47.79532" lon="-3.48891">
        <ele>47.9</ele>
      </trkpt>
      <trkpt lat="47.79541" lon="-3.48869">
        <ele>49.1</ele>
      </trkpt>
      <trkpt lat="47.79543" lon="-3.48863">
        <ele>49.4</ele>
      </trkpt>
      <trkpt lat="47.79542" lon="-3.48855">
        <ele>50.1</ele>
      </trkpt>
      <trkpt lat="47.7953" lon="-3.48829">
        <ele>51.3</ele>
      </trkpt>
      <trkpt lat="47.79527" lon="-3.48817">
        <ele>51.5</ele>
      </trkpt>
      <trkpt lat="47.79531" lon="-3.48802">
        <ele>52.4</ele>
      </trkpt>
      <trkpt lat="47.79532" lon="-3.48777">
        <ele>54.2</ele>
      </trkpt>
      <trkpt lat="47.79528" lon="-3.48746">
        <ele>55</ele>
      </trkpt>
      <trkpt lat="47.7952" lon="-3.48729">
        <ele>54.4</ele>
      </trkpt>
      <trkpt lat="47.79527" lon="-3.48696">
        <ele>54</ele>
      </trkpt>
      <trkpt lat="47.79529" lon="-3.4868">
        <ele>53.5</ele>
      </trkpt>
      <trkpt lat="47.79531" lon="-3.48643">
        <ele>52.3</ele>
      </trkpt>
      <trkpt lat="47.79529" lon="-3.48612">
        <ele>51.1</ele>
      </trkpt>
      <trkpt lat="47.79529" lon="-3.48607">
        <ele>51</ele>
      </trkpt>
      <trkpt lat="47.79529" lon="-3.48603">
        <ele>51</ele>
      </trkpt>
      <trkpt lat="47.79528" lon="-3.48584">
        <ele>51</ele>
      </trkpt>
      <trkpt lat="47.79524" lon="-3.48565">
        <ele>50.9</ele>
      </trkpt>
      <trkpt lat="47.79525" lon="-3.48517">
        <ele>49.7</ele>
      </trkpt>
      <trkpt lat="47.7952" lon="-3.48488">
        <ele>49</ele>
      </trkpt>
      <trkpt lat="47.79521" lon="-3.48469">
        <ele>48.5</ele>
      </trkpt>
      <trkpt lat="47.79514" lon="-3.4839">
        <ele>50</ele>
      </trkpt>
      <trkpt lat="47.79511" lon="-3.48367">
        <ele>49.5</ele>
      </trkpt>
      <trkpt lat="47.79494" lon="-3.4836">
        <ele>50.7</ele>
      </trkpt>
      <trkpt lat="47.79489" lon="-3.48342">
        <ele>52.1</ele>
      </trkpt>
      <trkpt lat="47.79513" lon="-3.48321">
        <ele>50.9</ele>
      </trkpt>
      <trkpt lat="47.7952" lon="-3.48231">
        <ele>59.9</ele>
      </trkpt>
      <trkpt lat="47.795" lon="-3.48239">
        <ele>60.8</ele>
      </trkpt>
      <trkpt lat="47.79489" lon="-3.48243">
        <ele>61.2</ele>
      </trkpt>
      <trkpt lat="47.79442" lon="-3.48261">
        <ele>62.6</ele>
      </trkpt>
      <trkpt lat="47.79402" lon="-3.48277">
        <ele>61.5</ele>
      </trkpt>
      <trkpt lat="47.79298" lon="-3.48304">
        <ele>56.8</ele>
      </trkpt>
      <trkpt lat="47.79286" lon="-3.48307">
        <ele>56.3</ele>
      </trkpt>
      <trkpt lat="47.79286" lon="-3.4829">
        <ele>56.5</ele>
      </trkpt>
      <trkpt lat="47.79286" lon="-3.48233">
        <ele>56.6</ele>
      </trkpt>
      <trkpt lat="47.79286" lon="-3.48231">
        <ele>56.6</ele>
      </trkpt>
      <trkpt lat="47.79286" lon="-3.48233">
        <ele>56.6</ele>
      </trkpt>
      <trkpt lat="47.79281" lon="-3.48232">
        <ele>56.2</ele>
      </trkpt>
      <trkpt lat="47.79148" lon="-3.48262">
        <ele>46.9</ele>
      </trkpt>
      <trkpt lat="47.79125" lon="-3.48268">
        <ele>45.6</ele>
      </trkpt>
      <trkpt lat="47.7911" lon="-3.48271">
        <ele>44.8</ele>
      </trkpt>
      <trkpt lat="47.79045" lon="-3.48267">
        <ele>48.1</ele>
      </trkpt>
      <trkpt lat="47.79018" lon="-3.48276">
        <ele>50.3</ele>
      </trkpt>
      <trkpt lat="47.7901" lon="-3.48274">
        <ele>50.5</ele>
      </trkpt>
      <trkpt lat="47.79001" lon="-3.48269">
        <ele>50.6</ele>
      </trkpt>
      <trkpt lat="47.78928" lon="-3.4827">
        <ele>47.1</ele>
      </trkpt>
      <trkpt lat="47.78888" lon="-3.48256">
        <ele>42.1</ele>
      </trkpt>
      <trkpt lat="47.78879" lon="-3.48277">
        <ele>40.9</ele>
      </trkpt>
      <trkpt lat="47.78876" lon="-3.48266">
        <ele>40.2</ele>
      </trkpt>
      <trkpt lat="47.78849" lon="-3.48163">
        <ele>37.3</ele>
      </trkpt>
      <trkpt lat="47.78845" lon="-3.48144">
        <ele>36.7</ele>
      </trkpt>
      <trkpt lat="47.7883" lon="-3.48071">
        <ele>34.2</ele>
      </trkpt>
      <trkpt lat="47.78829" lon="-3.48062">
        <ele>33.8</ele>
      </trkpt>
      <trkpt lat="47.78825" lon="-3.48063">
        <ele>33.5</ele>
      </trkpt>
      <trkpt lat="47.78816" lon="-3.48061">
        <ele>32.7</ele>
      </trkpt>
      <trkpt lat="47.78811" lon="-3.48058">
        <ele>32.3</ele>
      </trkpt>
      <trkpt lat="47.78808" lon="-3.48053">
        <ele>32.2</ele>
      </trkpt>
      <trkpt lat="47.78805" lon="-3.48047">
        <ele>32</ele>
      </trkpt>
      <trkpt lat="47.78803" lon="-3.4804">
        <ele>31.8</ele>
      </trkpt>
      <trkpt lat="47.78802" lon="-3.48033">
        <ele>31.7</ele>
      </trkpt>
      <trkpt lat="47.78803" lon="-3.48026">
        <ele>31.8</ele>
      </trkpt>
      <trkpt lat="47.78804" lon="-3.48019">
        <ele>31.9</ele>
      </trkpt>
      <trkpt lat="47.78804" lon="-3.48018">
        <ele>31.9</ele>
      </trkpt>
      <trkpt lat="47.78806" lon="-3.48013">
        <ele>32</ele>
      </trkpt>
      <trkpt lat="47.78813" lon="-3.48003">
        <ele>32.5</ele>
      </trkpt>
      <trkpt lat="47.78818" lon="-3.48001">
        <ele>32.9</ele>
      </trkpt>
      <trkpt lat="47.78814" lon="-3.47992">
        <ele>32.5</ele>
      </trkpt>
      <trkpt lat="47.78813" lon="-3.47986">
        <ele>32.4</ele>
      </trkpt>
      <trkpt lat="47.78807" lon="-3.47971">
        <ele>32</ele>
      </trkpt>
      <trkpt lat="47.78797" lon="-3.4795">
        <ele>31.1</ele>
      </trkpt>
      <trkpt lat="47.78788" lon="-3.47937">
        <ele>30.8</ele>
      </trkpt>
      <trkpt lat="47.78778" lon="-3.4793">
        <ele>30.5</ele>
      </trkpt>
      <trkpt lat="47.7877" lon="-3.47926">
        <ele>30.5</ele>
      </trkpt>
      <trkpt lat="47.78728" lon="-3.47911">
        <ele>32.4</ele>
      </trkpt>
      <trkpt lat="47.78713" lon="-3.479">
        <ele>33.7</ele>
      </trkpt>
      <trkpt lat="47.787" lon="-3.47873">
        <ele>34.7</ele>
      </trkpt>
      <trkpt lat="47.78672" lon="-3.47806">
        <ele>38.6</ele>
      </trkpt>
      <trkpt lat="47.78652" lon="-3.4777">
        <ele>41.1</ele>
      </trkpt>
      <trkpt lat="47.78606" lon="-3.47693">
        <ele>42.1</ele>
      </trkpt>
      <trkpt lat="47.78585" lon="-3.47669">
        <ele>42</ele>
      </trkpt>
      <trkpt lat="47.78555" lon="-3.47642">
        <ele>42</ele>
      </trkpt>
      <trkpt lat="47.78525" lon="-3.47622">
        <ele>43.1</ele>
      </trkpt>
      <trkpt lat="47.78517" lon="-3.47616">
        <ele>43.4</ele>
      </trkpt>
      <trkpt lat="47.78496" lon="-3.47598">
        <ele>44.8</ele>
      </trkpt>
      <trkpt lat="47.78478" lon="-3.47569">
        <ele>46.1</ele>
      </trkpt>
      <trkpt lat="47.78463" lon="-3.47528">
        <ele>47.3</ele>
      </trkpt>
      <trkpt lat="47.78438" lon="-3.47456">
        <ele>46.9</ele>
      </trkpt>
      <trkpt lat="47.78437" lon="-3.47441">
        <ele>46.4</ele>
      </trkpt>
      <trkpt lat="47.78433" lon="-3.47442">
        <ele>46.4</ele>
      </trkpt>
      <trkpt lat="47.78376" lon="-3.47451">
        <ele>45</ele>
      </trkpt>
      <trkpt lat="47.78353" lon="-3.47434">
        <ele>44.8</ele>
      </trkpt>
      <trkpt lat="47.78127" lon="-3.47274">
        <ele>44.5</ele>
      </trkpt>
      <trkpt lat="47.78127" lon="-3.47278">
        <ele>44.6</ele>
      </trkpt>
      <trkpt lat="47.78127" lon="-3.47274">
        <ele>44.5</ele>
      </trkpt>
      <trkpt lat="47.78147" lon="-3.47103">
        <ele>40.9</ele>
      </trkpt>
      <trkpt lat="47.78046" lon="-3.47118">
        <ele>40.4</ele>
      </trkpt>
      <trkpt lat="47.78033" lon="-3.4712">
        <ele>39.9</ele>
      </trkpt>
      <trkpt lat="47.7797" lon="-3.47145">
        <ele>34.9</ele>
      </trkpt>
      <trkpt lat="47.77961" lon="-3.47149">
        <ele>34.4</ele>
      </trkpt>
      <trkpt lat="47.77936" lon="-3.47153">
        <ele>33</ele>
      </trkpt>
      <trkpt lat="47.77884" lon="-3.47163">
        <ele>31.3</ele>
      </trkpt>
      <trkpt lat="47.77825" lon="-3.47171">
        <ele>31.4</ele>
      </trkpt>
      <trkpt lat="47.77725" lon="-3.4717">
        <ele>27.3</ele>
      </trkpt>
      <trkpt lat="47.77679" lon="-3.47183">
        <ele>30.9</ele>
      </trkpt>
      <trkpt lat="47.77638" lon="-3.47171">
        <ele>35.4</ele>
      </trkpt>
      <trkpt lat="47.77625" lon="-3.47168">
        <ele>36.1</ele>
      </trkpt>
      <trkpt lat="47.77597" lon="-3.47145">
        <ele>35.3</ele>
      </trkpt>
      <trkpt lat="47.77568" lon="-3.47144">
        <ele>33.3</ele>
      </trkpt>
      <trkpt lat="47.77522" lon="-3.47168">
        <ele>30.4</ele>
      </trkpt>
      <trkpt lat="47.7748" lon="-3.47176">
        <ele>25.9</ele>
      </trkpt>
      <trkpt lat="47.77461" lon="-3.47187">
        <ele>23.4</ele>
      </trkpt>
      <trkpt lat="47.77438" lon="-3.47217">
        <ele>39.4</ele>
        <time>2021-11-16T11:00:49.000Z</time>
      </trkpt>
      <trkpt lat="47.77418" lon="-3.47228">
        <ele>37.9</ele>
        <time>2021-11-16T11:00:52.000Z</time>
      </trkpt>
      <trkpt lat="47.77399" lon="-3.4722">
        <ele>38.5</ele>
        <time>2021-11-16T11:00:55.000Z</time>
      </trkpt>
      <trkpt lat="47.77388" lon="-3.47201">
        <ele>39.3</ele>
        <time>2021-11-16T11:00:58.000Z</time>
      </trkpt>
      <trkpt lat="47.77377" lon="-3.47184">
        <ele>39.8</ele>
        <time>2021-11-16T11:01:01.000Z</time>
      </trkpt>
      <trkpt lat="47.77361" lon="-3.47178">
        <ele>42.5</ele>
        <time>2021-11-16T11:01:04.000Z</time>
      </trkpt>
      <trkpt lat="47.77343" lon="-3.47178">
        <ele>43.4</ele>
        <time>2021-11-16T11:01:07.000Z</time>
      </trkpt>
      <trkpt lat="47.77325" lon="-3.4718">
        <ele>44.8</ele>
        <time>2021-11-16T11:01:10.000Z</time>
      </trkpt>
      <trkpt lat="47.77307" lon="-3.47182">
        <ele>46.6</ele>
        <time>2021-11-16T11:01:13.000Z</time>
      </trkpt>
      <trkpt lat="47.7729" lon="-3.47186">
        <ele>45.9</ele>
        <time>2021-11-16T11:01:16.000Z</time>
      </trkpt>
      <trkpt lat="47.77273" lon="-3.4719">
        <ele>49</ele>
        <time>2021-11-16T11:01:19.000Z</time>
      </trkpt>
      <trkpt lat="47.7726" lon="-3.47196">
        <ele>49.6</ele>
        <time>2021-11-16T11:01:22.000Z</time>
      </trkpt>
      <trkpt lat="47.77249" lon="-3.47202">
        <ele>50.4</ele>
        <time>2021-11-16T11:01:25.000Z</time>
      </trkpt>
      <trkpt lat="47.77236" lon="-3.47206">
        <ele>51</ele>
        <time>2021-11-16T11:01:28.000Z</time>
      </trkpt>
      <trkpt lat="47.77222" lon="-3.47209">
        <ele>51</ele>
        <time>2021-11-16T11:01:31.000Z</time>
      </trkpt>
      <trkpt lat="47.77208" lon="-3.47214">
        <ele>50.9</ele>
        <time>2021-11-16T11:01:34.000Z</time>
      </trkpt>
      <trkpt lat="47.77194" lon="-3.47219">
        <ele>51.1</ele>
        <time>2021-11-16T11:01:37.000Z</time>
      </trkpt>
      <trkpt lat="47.77178" lon="-3.47223">
        <ele>49.5</ele>
        <time>2021-11-16T11:01:40.000Z</time>
      </trkpt>
      <trkpt lat="47.77161" lon="-3.47225">
        <ele>49.4</ele>
        <time>2021-11-16T11:01:43.000Z</time>
      </trkpt>
      <trkpt lat="47.77144" lon="-3.47223">
        <ele>49.6</ele>
        <time>2021-11-16T11:01:46.000Z</time>
      </trkpt>
      <trkpt lat="47.77128" lon="-3.47221">
        <ele>50</ele>
        <time>2021-11-16T11:01:49.000Z</time>
      </trkpt>
      <trkpt lat="47.77112" lon="-3.47218">
        <ele>50.6</ele>
        <time>2021-11-16T11:01:52.000Z</time>
      </trkpt>
      <trkpt lat="47.77096" lon="-3.47215">
        <ele>50.1</ele>
        <time>2021-11-16T11:01:55.000Z</time>
      </trkpt>
      <trkpt lat="47.77081" lon="-3.47211">
        <ele>50.7</ele>
        <time>2021-11-16T11:01:58.000Z</time>
      </trkpt>
      <trkpt lat="47.77065" lon="-3.47204">
        <ele>49.2</ele>
        <time>2021-11-16T11:02:01.000Z</time>
      </trkpt>
      <trkpt lat="47.77047" lon="-3.47196">
        <ele>49.5</ele>
        <time>2021-11-16T11:02:04.000Z</time>
      </trkpt>
      <trkpt lat="47.77027" lon="-3.47187">
        <ele>47.9</ele>
        <time>2021-11-16T11:02:07.000Z</time>
      </trkpt>
      <trkpt lat="47.77007" lon="-3.47171">
        <ele>47.2</ele>
        <time>2021-11-16T11:02:10.000Z</time>
      </trkpt>
      <trkpt lat="47.76991" lon="-3.47145">
        <ele>45.9</ele>
        <time>2021-11-16T11:02:13.000Z</time>
      </trkpt>
      <trkpt lat="47.76977" lon="-3.47114">
        <ele>43.7</ele>
        <time>2021-11-16T11:02:16.000Z</time>
      </trkpt>
      <trkpt lat="47.76964" lon="-3.47085">
        <ele>44.8</ele>
        <time>2021-11-16T11:02:19.000Z</time>
      </trkpt>
      <trkpt lat="47.76951" lon="-3.47058">
        <ele>44.4</ele>
        <time>2021-11-16T11:02:22.000Z</time>
      </trkpt>
      <trkpt lat="47.76939" lon="-3.47033">
        <ele>46</ele>
        <time>2021-11-16T11:02:25.000Z</time>
      </trkpt>
      <trkpt lat="47.7693" lon="-3.47007">
        <ele>46.7</ele>
        <time>2021-11-16T11:02:28.000Z</time>
      </trkpt>
      <trkpt lat="47.76925" lon="-3.46985">
        <ele>48.2</ele>
        <time>2021-11-16T11:02:31.000Z</time>
      </trkpt>
      <trkpt lat="47.7692" lon="-3.46966">
        <ele>49</ele>
        <time>2021-11-16T11:02:34.000Z</time>
      </trkpt>
      <trkpt lat="47.76916" lon="-3.46947">
        <ele>50.2</ele>
        <time>2021-11-16T11:02:37.000Z</time>
      </trkpt>
      <trkpt lat="47.76911" lon="-3.46929">
        <ele>51.3</ele>
        <time>2021-11-16T11:02:40.000Z</time>
      </trkpt>
      <trkpt lat="47.76904" lon="-3.46913">
        <ele>52.1</ele>
        <time>2021-11-16T11:02:43.000Z</time>
      </trkpt>
      <trkpt lat="47.76897" lon="-3.46899">
        <ele>52.6</ele>
        <time>2021-11-16T11:02:46.000Z</time>
      </trkpt>
      <trkpt lat="47.76887" lon="-3.46886">
        <ele>53.1</ele>
        <time>2021-11-16T11:02:49.000Z</time>
      </trkpt>
      <trkpt lat="47.76877" lon="-3.46874">
        <ele>53.6</ele>
        <time>2021-11-16T11:02:52.000Z</time>
      </trkpt>
      <trkpt lat="47.76867" lon="-3.46864">
        <ele>55.1</ele>
        <time>2021-11-16T11:02:55.000Z</time>
      </trkpt>
      <trkpt lat="47.76857" lon="-3.46855">
        <ele>55.9</ele>
        <time>2021-11-16T11:02:58.000Z</time>
      </trkpt>
      <trkpt lat="47.76846" lon="-3.46847">
        <ele>55.7</ele>
        <time>2021-11-16T11:03:01.000Z</time>
      </trkpt>
      <trkpt lat="47.76836" lon="-3.46838">
        <ele>57.1</ele>
        <time>2021-11-16T11:03:04.000Z</time>
      </trkpt>
      <trkpt lat="47.76824" lon="-3.46829">
        <ele>57.3</ele>
        <time>2021-11-16T11:03:07.000Z</time>
      </trkpt>
      <trkpt lat="47.76813" lon="-3.4682">
        <ele>57.5</ele>
        <time>2021-11-16T11:03:10.000Z</time>
      </trkpt>
      <trkpt lat="47.768" lon="-3.4681">
        <ele>57</ele>
        <time>2021-11-16T11:03:13.000Z</time>
      </trkpt>
      <trkpt lat="47.76786" lon="-3.46799">
        <ele>56.1</ele>
        <time>2021-11-16T11:03:16.000Z</time>
      </trkpt>
      <trkpt lat="47.76771" lon="-3.46787">
        <ele>56.3</ele>
        <time>2021-11-16T11:03:19.000Z</time>
      </trkpt>
      <trkpt lat="47.76756" lon="-3.46775">
        <ele>54.3</ele>
        <time>2021-11-16T11:03:22.000Z</time>
      </trkpt>
      <trkpt lat="47.76739" lon="-3.46764">
        <ele>53.2</ele>
        <time>2021-11-16T11:03:25.000Z</time>
      </trkpt>
      <trkpt lat="47.7672" lon="-3.4676">
        <ele>54.2</ele>
        <time>2021-11-16T11:03:28.000Z</time>
      </trkpt>
      <trkpt lat="47.767" lon="-3.46759">
        <ele>54.8</ele>
        <time>2021-11-16T11:03:31.000Z</time>
      </trkpt>
      <trkpt lat="47.76681" lon="-3.46759">
        <ele>54.7</ele>
        <time>2021-11-16T11:03:34.000Z</time>
      </trkpt>
      <trkpt lat="47.76664" lon="-3.46757">
        <ele>53.9</ele>
        <time>2021-11-16T11:03:37.000Z</time>
      </trkpt>
      <trkpt lat="47.76647" lon="-3.46756">
        <ele>55.8</ele>
        <time>2021-11-16T11:03:40.000Z</time>
      </trkpt>
      <trkpt lat="47.76631" lon="-3.46756">
        <ele>56.6</ele>
        <time>2021-11-16T11:03:43.000Z</time>
      </trkpt>
      <trkpt lat="47.76615" lon="-3.46755">
        <ele>56.7</ele>
        <time>2021-11-16T11:03:46.000Z</time>
      </trkpt>
      <trkpt lat="47.76599" lon="-3.46753">
        <ele>57</ele>
        <time>2021-11-16T11:03:49.000Z</time>
      </trkpt>
      <trkpt lat="47.76583" lon="-3.46752">
        <ele>55.7</ele>
        <time>2021-11-16T11:03:52.000Z</time>
      </trkpt>
      <trkpt lat="47.76566" lon="-3.46749">
        <ele>56</ele>
        <time>2021-11-16T11:03:55.000Z</time>
      </trkpt>
      <trkpt lat="47.76549" lon="-3.46743">
        <ele>55.5</ele>
        <time>2021-11-16T11:03:58.000Z</time>
      </trkpt>
      <trkpt lat="47.76533" lon="-3.46734">
        <ele>56.1</ele>
        <time>2021-11-16T11:04:01.000Z</time>
      </trkpt>
      <trkpt lat="47.76516" lon="-3.46724">
        <ele>54.3</ele>
        <time>2021-11-16T11:04:04.000Z</time>
      </trkpt>
      <trkpt lat="47.76498" lon="-3.46714">
        <ele>52.9</ele>
        <time>2021-11-16T11:04:07.000Z</time>
      </trkpt>
      <trkpt lat="47.7648" lon="-3.46703">
        <ele>52.2</ele>
        <time>2021-11-16T11:04:10.000Z</time>
      </trkpt>
      <trkpt lat="47.76462" lon="-3.46693">
        <ele>52.4</ele>
        <time>2021-11-16T11:04:13.000Z</time>
      </trkpt>
      <trkpt lat="47.76443" lon="-3.46682">
        <ele>51.6</ele>
        <time>2021-11-16T11:04:16.000Z</time>
      </trkpt>
      <trkpt lat="47.76423" lon="-3.46671">
        <ele>51.5</ele>
        <time>2021-11-16T11:04:19.000Z</time>
      </trkpt>
      <trkpt lat="47.76403" lon="-3.4666">
        <ele>50.9</ele>
        <time>2021-11-16T11:04:22.000Z</time>
      </trkpt>
      <trkpt lat="47.76382" lon="-3.46648">
        <ele>49.6</ele>
        <time>2021-11-16T11:04:25.000Z</time>
      </trkpt>
      <trkpt lat="47.76361" lon="-3.46636">
        <ele>48.9</ele>
        <time>2021-11-16T11:04:28.000Z</time>
      </trkpt>
      <trkpt lat="47.7634" lon="-3.46624">
        <ele>49.4</ele>
        <time>2021-11-16T11:04:31.000Z</time>
      </trkpt>
      <trkpt lat="47.7632" lon="-3.46612">
        <ele>50.4</ele>
        <time>2021-11-16T11:04:34.000Z</time>
      </trkpt>
      <trkpt lat="47.76301" lon="-3.46602">
        <ele>50.6</ele>
        <time>2021-11-16T11:04:37.000Z</time>
      </trkpt>
      <trkpt lat="47.76284" lon="-3.46591">
        <ele>50</ele>
        <time>2021-11-16T11:04:40.000Z</time>
      </trkpt>
      <trkpt lat="47.76268" lon="-3.46581">
        <ele>51.1</ele>
        <time>2021-11-16T11:04:43.000Z</time>
      </trkpt>
      <trkpt lat="47.76251" lon="-3.46572">
        <ele>51.8</ele>
        <time>2021-11-16T11:04:46.000Z</time>
      </trkpt>
      <trkpt lat="47.76236" lon="-3.46562">
        <ele>51.9</ele>
        <time>2021-11-16T11:04:49.000Z</time>
      </trkpt>
      <trkpt lat="47.7622" lon="-3.46552">
        <ele>51.5</ele>
        <time>2021-11-16T11:04:52.000Z</time>
      </trkpt>
      <trkpt lat="47.76204" lon="-3.46542">
        <ele>52.5</ele>
        <time>2021-11-16T11:04:55.000Z</time>
      </trkpt>
      <trkpt lat="47.76188" lon="-3.46533">
        <ele>53.4</ele>
        <time>2021-11-16T11:04:58.000Z</time>
      </trkpt>
      <trkpt lat="47.76173" lon="-3.46524">
        <ele>53.2</ele>
        <time>2021-11-16T11:05:01.000Z</time>
      </trkpt>
      <trkpt lat="47.76158" lon="-3.46514">
        <ele>53.4</ele>
        <time>2021-11-16T11:05:04.000Z</time>
      </trkpt>
      <trkpt lat="47.76143" lon="-3.46504">
        <ele>53.1</ele>
        <time>2021-11-16T11:05:07.000Z</time>
      </trkpt>
      <trkpt lat="47.76128" lon="-3.46495">
        <ele>54.1</ele>
        <time>2021-11-16T11:05:10.000Z</time>
      </trkpt>
      <trkpt lat="47.76114" lon="-3.46486">
        <ele>53.5</ele>
        <time>2021-11-16T11:05:13.000Z</time>
      </trkpt>
      <trkpt lat="47.76098" lon="-3.46477">
        <ele>52.7</ele>
        <time>2021-11-16T11:05:16.000Z</time>
      </trkpt>
      <trkpt lat="47.76081" lon="-3.46466">
        <ele>52.7</ele>
        <time>2021-11-16T11:05:19.000Z</time>
      </trkpt>
      <trkpt lat="47.76063" lon="-3.46454">
        <ele>51</ele>
        <time>2021-11-16T11:05:22.000Z</time>
      </trkpt>
      <trkpt lat="47.76047" lon="-3.46433">
        <ele>49.3</ele>
        <time>2021-11-16T11:05:25.000Z</time>
      </trkpt>
      <trkpt lat="47.76033" lon="-3.46405">
        <ele>49.4</ele>
        <time>2021-11-16T11:05:28.000Z</time>
      </trkpt>
      <trkpt lat="47.7602" lon="-3.46375">
        <ele>46.9</ele>
        <time>2021-11-16T11:05:31.000Z</time>
      </trkpt>
      <trkpt lat="47.76005" lon="-3.46348">
        <ele>49.9</ele>
        <time>2021-11-16T11:05:34.000Z</time>
      </trkpt>
      <trkpt lat="47.75985" lon="-3.46336">
        <ele>50</ele>
        <time>2021-11-16T11:05:37.000Z</time>
      </trkpt>
      <trkpt lat="47.75963" lon="-3.46338">
        <ele>48.5</ele>
        <time>2021-11-16T11:05:40.000Z</time>
      </trkpt>
      <trkpt lat="47.75942" lon="-3.46344">
        <ele>47.6</ele>
        <time>2021-11-16T11:05:43.000Z</time>
      </trkpt>
      <trkpt lat="47.75921" lon="-3.46345">
        <ele>48.5</ele>
        <time>2021-11-16T11:05:46.000Z</time>
      </trkpt>
      <trkpt lat="47.75902" lon="-3.46338">
        <ele>49.3</ele>
        <time>2021-11-16T11:05:49.000Z</time>
      </trkpt>
      <trkpt lat="47.75885" lon="-3.46323">
        <ele>49.8</ele>
        <time>2021-11-16T11:05:52.000Z</time>
      </trkpt>
      <trkpt lat="47.7587" lon="-3.46307">
        <ele>49.8</ele>
        <time>2021-11-16T11:05:55.000Z</time>
      </trkpt>
      <trkpt lat="47.75856" lon="-3.46289">
        <ele>50.4</ele>
        <time>2021-11-16T11:05:58.000Z</time>
      </trkpt>
      <trkpt lat="47.75843" lon="-3.4627">
        <ele>50.9</ele>
        <time>2021-11-16T11:06:01.000Z</time>
      </trkpt>
      <trkpt lat="47.7583" lon="-3.46252">
        <ele>51</ele>
        <time>2021-11-16T11:06:04.000Z</time>
      </trkpt>
      <trkpt lat="47.75817" lon="-3.46234">
        <ele>51.2</ele>
        <time>2021-11-16T11:06:07.000Z</time>
      </trkpt>
      <trkpt lat="47.758" lon="-3.46222">
        <ele>49.9</ele>
        <time>2021-11-16T11:06:10.000Z</time>
      </trkpt>
      <trkpt lat="47.7578" lon="-3.46217">
        <ele>48.7</ele>
        <time>2021-11-16T11:06:13.000Z</time>
      </trkpt>
      <trkpt lat="47.75757" lon="-3.46217">
        <ele>48</ele>
        <time>2021-11-16T11:06:16.000Z</time>
      </trkpt>
      <trkpt lat="47.75734" lon="-3.46218">
        <ele>48</ele>
        <time>2021-11-16T11:06:19.000Z</time>
      </trkpt>
      <trkpt lat="47.75711" lon="-3.4622">
        <ele>47.1</ele>
        <time>2021-11-16T11:06:22.000Z</time>
      </trkpt>
      <trkpt lat="47.75689" lon="-3.46222">
        <ele>47.8</ele>
        <time>2021-11-16T11:06:25.000Z</time>
      </trkpt>
      <trkpt lat="47.75669" lon="-3.46223">
        <ele>49.5</ele>
        <time>2021-11-16T11:06:28.000Z</time>
      </trkpt>
      <trkpt lat="47.75651" lon="-3.46225">
        <ele>49</ele>
        <time>2021-11-16T11:06:31.000Z</time>
      </trkpt>
      <trkpt lat="47.75634" lon="-3.46226">
        <ele>50.2</ele>
        <time>2021-11-16T11:06:34.000Z</time>
      </trkpt>
      <trkpt lat="47.75617" lon="-3.46226">
        <ele>50.6</ele>
        <time>2021-11-16T11:06:37.000Z</time>
      </trkpt>
      <trkpt lat="47.756" lon="-3.46226">
        <ele>50.6</ele>
        <time>2021-11-16T11:06:40.000Z</time>
      </trkpt>
      <trkpt lat="47.75583" lon="-3.46222">
        <ele>52</ele>
        <time>2021-11-16T11:06:43.000Z</time>
      </trkpt>
      <trkpt lat="47.75567" lon="-3.46214">
        <ele>52</ele>
        <time>2021-11-16T11:06:46.000Z</time>
      </trkpt>
      <trkpt lat="47.75552" lon="-3.46202">
        <ele>51.4</ele>
        <time>2021-11-16T11:06:49.000Z</time>
      </trkpt>
      <trkpt lat="47.75536" lon="-3.4619">
        <ele>51.5</ele>
        <time>2021-11-16T11:06:52.000Z</time>
      </trkpt>
      <trkpt lat="47.75521" lon="-3.46178">
        <ele>53.4</ele>
        <time>2021-11-16T11:06:55.000Z</time>
      </trkpt>
      <trkpt lat="47.75505" lon="-3.46169">
        <ele>49.5</ele>
        <time>2021-11-16T11:06:58.000Z</time>
      </trkpt>
      <trkpt lat="47.7549" lon="-3.46162">
        <ele>53.1</ele>
        <time>2021-11-16T11:07:01.000Z</time>
      </trkpt>
      <trkpt lat="47.75475" lon="-3.46155">
        <ele>52.9</ele>
        <time>2021-11-16T11:07:04.000Z</time>
      </trkpt>
      <trkpt lat="47.7546" lon="-3.46148">
        <ele>52.5</ele>
        <time>2021-11-16T11:07:07.000Z</time>
      </trkpt>
      <trkpt lat="47.75446" lon="-3.46141">
        <ele>52.2</ele>
        <time>2021-11-16T11:07:10.000Z</time>
      </trkpt>
      <trkpt lat="47.75433" lon="-3.46131">
        <ele>53.3</ele>
        <time>2021-11-16T11:07:13.000Z</time>
      </trkpt>
      <trkpt lat="47.7542" lon="-3.46119">
        <ele>54.5</ele>
        <time>2021-11-16T11:07:16.000Z</time>
      </trkpt>
      <trkpt lat="47.75407" lon="-3.46108">
        <ele>53.9</ele>
        <time>2021-11-16T11:07:19.000Z</time>
      </trkpt>
      <trkpt lat="47.75393" lon="-3.46098">
        <ele>54</ele>
        <time>2021-11-16T11:07:22.000Z</time>
      </trkpt>
      <trkpt lat="47.75379" lon="-3.46089">
        <ele>53.8</ele>
        <time>2021-11-16T11:07:25.000Z</time>
      </trkpt>
      <trkpt lat="47.75365" lon="-3.46082">
        <ele>51.8</ele>
        <time>2021-11-16T11:07:28.000Z</time>
      </trkpt>
      <trkpt lat="47.7535" lon="-3.46075">
        <ele>53.2</ele>
        <time>2021-11-16T11:07:31.000Z</time>
      </trkpt>
      <trkpt lat="47.75335" lon="-3.46067">
        <ele>55.9</ele>
        <time>2021-11-16T11:07:34.000Z</time>
      </trkpt>
      <trkpt lat="47.75319" lon="-3.4606">
        <ele>52.2</ele>
        <time>2021-11-16T11:07:37.000Z</time>
      </trkpt>
      <trkpt lat="47.75302" lon="-3.46054">
        <ele>52.1</ele>
        <time>2021-11-16T11:07:40.000Z</time>
      </trkpt>
      <trkpt lat="47.75284" lon="-3.46054">
        <ele>51.1</ele>
        <time>2021-11-16T11:07:43.000Z</time>
      </trkpt>
      <trkpt lat="47.75265" lon="-3.46057">
        <ele>50.1</ele>
        <time>2021-11-16T11:07:46.000Z</time>
      </trkpt>
      <trkpt lat="47.75246" lon="-3.46066">
        <ele>49.2</ele>
        <time>2021-11-16T11:07:49.000Z</time>
      </trkpt>
      <trkpt lat="47.75232" lon="-3.46089">
        <ele>51.1</ele>
        <time>2021-11-16T11:07:52.000Z</time>
      </trkpt>
      <trkpt lat="47.75221" lon="-3.46116">
        <ele>51.7</ele>
        <time>2021-11-16T11:07:55.000Z</time>
      </trkpt>
      <trkpt lat="47.75211" lon="-3.46143">
        <ele>50.3</ele>
        <time>2021-11-16T11:07:58.000Z</time>
      </trkpt>
      <trkpt lat="47.75201" lon="-3.4617">
        <ele>47.1</ele>
        <time>2021-11-16T11:08:01.000Z</time>
      </trkpt>
      <trkpt lat="47.7519" lon="-3.46198">
        <ele>48.2</ele>
        <time>2021-11-16T11:08:04.000Z</time>
      </trkpt>
      <trkpt lat="47.75178" lon="-3.46227">
        <ele>45.1</ele>
        <time>2021-11-16T11:08:07.000Z</time>
      </trkpt>
      <trkpt lat="47.75166" lon="-3.46256">
        <ele>45.7</ele>
        <time>2021-11-16T11:08:10.000Z</time>
      </trkpt>
      <trkpt lat="47.75154" lon="-3.46285">
        <ele>45.7</ele>
        <time>2021-11-16T11:08:13.000Z</time>
      </trkpt>
      <trkpt lat="47.75141" lon="-3.46314">
        <ele>45.3</ele>
        <time>2021-11-16T11:08:16.000Z</time>
      </trkpt>
      <trkpt lat="47.75128" lon="-3.46344">
        <ele>43.6</ele>
        <time>2021-11-16T11:08:19.000Z</time>
      </trkpt>
      <trkpt lat="47.75115" lon="-3.46371">
        <ele>43</ele>
        <time>2021-11-16T11:08:22.000Z</time>
      </trkpt>
      <trkpt lat="47.75098" lon="-3.46395">
        <ele>40.5</ele>
        <time>2021-11-16T11:08:25.000Z</time>
      </trkpt>
      <trkpt lat="47.7508" lon="-3.46412">
        <ele>41.3</ele>
        <time>2021-11-16T11:08:28.000Z</time>
      </trkpt>
      <trkpt lat="47.75059" lon="-3.46426">
        <ele>41.5</ele>
        <time>2021-11-16T11:08:31.000Z</time>
      </trkpt>
      <trkpt lat="47.75039" lon="-3.46437">
        <ele>42.9</ele>
        <time>2021-11-16T11:08:34.000Z</time>
      </trkpt>
      <trkpt lat="47.75018" lon="-3.46447">
        <ele>43.8</ele>
        <time>2021-11-16T11:08:37.000Z</time>
      </trkpt>
      <trkpt lat="47.74997" lon="-3.46453">
        <ele>42.1</ele>
        <time>2021-11-16T11:08:40.000Z</time>
      </trkpt>
      <trkpt lat="47.74974" lon="-3.46455">
        <ele>37.6</ele>
        <time>2021-11-16T11:08:43.000Z</time>
      </trkpt>
      <trkpt lat="47.74951" lon="-3.46455">
        <ele>36.8</ele>
        <time>2021-11-16T11:08:46.000Z</time>
      </trkpt>
      <trkpt lat="47.74927" lon="-3.46455">
        <ele>41.5</ele>
        <time>2021-11-16T11:08:49.000Z</time>
      </trkpt>
      <trkpt lat="47.74903" lon="-3.46455">
        <ele>41.3</ele>
        <time>2021-11-16T11:08:52.000Z</time>
      </trkpt>
      <trkpt lat="47.74879" lon="-3.46456">
        <ele>34</ele>
        <time>2021-11-16T11:08:55.000Z</time>
      </trkpt>
      <trkpt lat="47.74854" lon="-3.46457">
        <ele>35.1</ele>
        <time>2021-11-16T11:08:58.000Z</time>
      </trkpt>
      <trkpt lat="47.7483" lon="-3.46457">
        <ele>35.6</ele>
        <time>2021-11-16T11:09:01.000Z</time>
      </trkpt>
      <trkpt lat="47.74808" lon="-3.46455">
        <ele>33.3</ele>
        <time>2021-11-16T11:09:04.000Z</time>
      </trkpt>
      <trkpt lat="47.74786" lon="-3.4645">
        <ele>34.1</ele>
        <time>2021-11-16T11:09:07.000Z</time>
      </trkpt>
      <trkpt lat="47.74763" lon="-3.46445">
        <ele>33.3</ele>
        <time>2021-11-16T11:09:10.000Z</time>
      </trkpt>
      <trkpt lat="47.74742" lon="-3.4644">
        <ele>31.9</ele>
        <time>2021-11-16T11:09:13.000Z</time>
      </trkpt>
      <trkpt lat="47.74721" lon="-3.46436">
        <ele>32.4</ele>
        <time>2021-11-16T11:09:16.000Z</time>
      </trkpt>
      <trkpt lat="47.747" lon="-3.46435">
        <ele>33</ele>
        <time>2021-11-16T11:09:19.000Z</time>
      </trkpt>
      <trkpt lat="47.74678" lon="-3.4644">
        <ele>30.9</ele>
        <time>2021-11-16T11:09:22.000Z</time>
      </trkpt>
      <trkpt lat="47.74657" lon="-3.46449">
        <ele>29.8</ele>
        <time>2021-11-16T11:09:25.000Z</time>
      </trkpt>
      <trkpt lat="47.74637" lon="-3.46457">
        <ele>31.7</ele>
        <time>2021-11-16T11:09:28.000Z</time>
      </trkpt>
      <trkpt lat="47.74616" lon="-3.46464">
        <ele>29.2</ele>
        <time>2021-11-16T11:09:31.000Z</time>
      </trkpt>
      <trkpt lat="47.74596" lon="-3.4647">
        <ele>30</ele>
        <time>2021-11-16T11:09:34.000Z</time>
      </trkpt>
      <trkpt lat="47.74576" lon="-3.46476">
        <ele>30.9</ele>
        <time>2021-11-16T11:09:37.000Z</time>
      </trkpt>
      <trkpt lat="47.74557" lon="-3.4648">
        <ele>30.5</ele>
        <time>2021-11-16T11:09:40.000Z</time>
      </trkpt>
      <trkpt lat="47.74539" lon="-3.46485">
        <ele>28.7</ele>
        <time>2021-11-16T11:09:43.000Z</time>
      </trkpt>
      <trkpt lat="47.74521" lon="-3.46489">
        <ele>30.3</ele>
        <time>2021-11-16T11:09:46.000Z</time>
      </trkpt>
      <trkpt lat="47.745" lon="-3.46493">
        <ele>29.3</ele>
        <time>2021-11-16T11:09:49.000Z</time>
      </trkpt>
      <trkpt lat="47.7448" lon="-3.46502">
        <ele>27.6</ele>
        <time>2021-11-16T11:09:52.000Z</time>
      </trkpt>
      <trkpt lat="47.74458" lon="-3.46513">
        <ele>23.5</ele>
        <time>2021-11-16T11:09:55.000Z</time>
      </trkpt>
      <trkpt lat="47.74442" lon="-3.46531">
        <ele>27.9</ele>
        <time>2021-11-16T11:09:58.000Z</time>
      </trkpt>
      <trkpt lat="47.74434" lon="-3.46542">
        <ele>28.5</ele>
        <time>2021-11-16T11:10:01.000Z</time>
      </trkpt>
      <trkpt lat="47.74433" lon="-3.46543">
        <ele>29</ele>
        <time>2021-11-16T11:10:03.000Z</time>
      </trkpt>
      <trkpt lat="47.74432" lon="-3.46543">
        <ele>29</ele>
        <time>2021-11-16T11:10:06.000Z</time>
      </trkpt>
      <trkpt lat="47.74425" lon="-3.46543">
        <ele>28.2</ele>
        <time>2021-11-16T11:10:09.000Z</time>
      </trkpt>
      <trkpt lat="47.74415" lon="-3.46537">
        <ele>27.8</ele>
        <time>2021-11-16T11:10:12.000Z</time>
      </trkpt>
      <trkpt lat="47.744" lon="-3.4654">
        <ele>26.2</ele>
        <time>2021-11-16T11:10:15.000Z</time>
      </trkpt>
      <trkpt lat="47.74382" lon="-3.46544">
        <ele>24.5</ele>
        <time>2021-11-16T11:10:18.000Z</time>
      </trkpt>
      <trkpt lat="47.74363" lon="-3.46548">
        <ele>26.7</ele>
        <time>2021-11-16T11:10:21.000Z</time>
      </trkpt>
      <trkpt lat="47.74345" lon="-3.46553">
        <ele>30.8</ele>
        <time>2021-11-16T11:10:24.000Z</time>
      </trkpt>
      <trkpt lat="47.74326" lon="-3.46561">
        <ele>25.6</ele>
        <time>2021-11-16T11:10:27.000Z</time>
      </trkpt>
      <trkpt lat="47.74308" lon="-3.46569">
        <ele>24.2</ele>
        <time>2021-11-16T11:10:30.000Z</time>
      </trkpt>
      <trkpt lat="47.74292" lon="-3.46577">
        <ele>26.5</ele>
        <time>2021-11-16T11:10:33.000Z</time>
      </trkpt>
      <trkpt lat="47.74276" lon="-3.46585">
        <ele>26.6</ele>
        <time>2021-11-16T11:10:36.000Z</time>
      </trkpt>
      <trkpt lat="47.74261" lon="-3.46593">
        <ele>27.5</ele>
        <time>2021-11-16T11:10:39.000Z</time>
      </trkpt>
      <trkpt lat="47.74246" lon="-3.46602">
        <ele>27.4</ele>
        <time>2021-11-16T11:10:42.000Z</time>
      </trkpt>
      <trkpt lat="47.74232" lon="-3.46612">
        <ele>28</ele>
        <time>2021-11-16T11:10:45.000Z</time>
      </trkpt>
      <trkpt lat="47.74219" lon="-3.46621">
        <ele>28.5</ele>
        <time>2021-11-16T11:10:48.000Z</time>
      </trkpt>
      <trkpt lat="47.74206" lon="-3.46633">
        <ele>27.9</ele>
        <time>2021-11-16T11:10:51.000Z</time>
      </trkpt>
      <trkpt lat="47.74196" lon="-3.46648">
        <ele>29.1</ele>
        <time>2021-11-16T11:10:54.000Z</time>
      </trkpt>
      <trkpt lat="47.74188" lon="-3.46667">
        <ele>30.1</ele>
        <time>2021-11-16T11:10:57.000Z</time>
      </trkpt>
      <trkpt lat="47.74181" lon="-3.46687">
        <ele>29.3</ele>
        <time>2021-11-16T11:11:00.000Z</time>
      </trkpt>
      <trkpt lat="47.74175" lon="-3.46707">
        <ele>29.4</ele>
        <time>2021-11-16T11:11:03.000Z</time>
      </trkpt>
      <trkpt lat="47.74167" lon="-3.46726">
        <ele>29</ele>
        <time>2021-11-16T11:11:06.000Z</time>
      </trkpt>
      <trkpt lat="47.7416" lon="-3.46747">
        <ele>30.5</ele>
        <time>2021-11-16T11:11:09.000Z</time>
      </trkpt>
      <trkpt lat="47.74155" lon="-3.46769">
        <ele>28.7</ele>
        <time>2021-11-16T11:11:12.000Z</time>
      </trkpt>
      <trkpt lat="47.74149" lon="-3.46792">
        <ele>28.1</ele>
        <time>2021-11-16T11:11:15.000Z</time>
      </trkpt>
      <trkpt lat="47.74141" lon="-3.46815">
        <ele>27</ele>
        <time>2021-11-16T11:11:18.000Z</time>
      </trkpt>
      <trkpt lat="47.74131" lon="-3.46836">
        <ele>30.4</ele>
        <time>2021-11-16T11:11:21.000Z</time>
      </trkpt>
      <trkpt lat="47.74123" lon="-3.46858">
        <ele>28.7</ele>
        <time>2021-11-16T11:11:24.000Z</time>
      </trkpt>
      <trkpt lat="47.74112" lon="-3.46874">
        <ele>27.1</ele>
        <time>2021-11-16T11:11:27.000Z</time>
      </trkpt>
      <trkpt lat="47.74099" lon="-3.46887">
        <ele>25.6</ele>
        <time>2021-11-16T11:11:30.000Z</time>
      </trkpt>
      <trkpt lat="47.74086" lon="-3.469">
        <ele>31.1</ele>
        <time>2021-11-16T11:11:33.000Z</time>
      </trkpt>
      <trkpt lat="47.74073" lon="-3.46912">
        <ele>30.5</ele>
        <time>2021-11-16T11:11:36.000Z</time>
      </trkpt>
      <trkpt lat="47.74062" lon="-3.46924">
        <ele>28.1</ele>
        <time>2021-11-16T11:11:39.000Z</time>
      </trkpt>
      <trkpt lat="47.74052" lon="-3.46934">
        <ele>29.6</ele>
        <time>2021-11-16T11:11:42.000Z</time>
      </trkpt>
      <trkpt lat="47.74045" lon="-3.46946">
        <ele>30.8</ele>
        <time>2021-11-16T11:11:45.000Z</time>
      </trkpt>
      <trkpt lat="47.74038" lon="-3.46959">
        <ele>31.4</ele>
        <time>2021-11-16T11:11:48.000Z</time>
      </trkpt>
      <trkpt lat="47.74032" lon="-3.46969">
        <ele>31.1</ele>
        <time>2021-11-16T11:11:51.000Z</time>
      </trkpt>
      <trkpt lat="47.74028" lon="-3.46976">
        <ele>33.1</ele>
        <time>2021-11-16T11:11:54.000Z</time>
      </trkpt>
      <trkpt lat="47.74022" lon="-3.46984">
        <ele>31.9</ele>
        <time>2021-11-16T11:11:57.000Z</time>
      </trkpt>
      <trkpt lat="47.74018" lon="-3.46987">
        <ele>31.9</ele>
        <time>2021-11-16T11:12:00.000Z</time>
      </trkpt>
      <trkpt lat="47.74014" lon="-3.46985">
        <ele>32.7</ele>
        <time>2021-11-16T11:12:03.000Z</time>
      </trkpt>
      <trkpt lat="47.7401" lon="-3.46983">
        <ele>34.5</ele>
        <time>2021-11-16T11:12:06.000Z</time>
      </trkpt>
      <trkpt lat="47.74005" lon="-3.46984">
        <ele>37.4</ele>
        <time>2021-11-16T11:12:09.000Z</time>
      </trkpt>
      <trkpt lat="47.74001" lon="-3.46983">
        <ele>37.1</ele>
        <time>2021-11-16T11:12:12.000Z</time>
      </trkpt>
      <trkpt lat="47.73994" lon="-3.46985">
        <ele>38.1</ele>
        <time>2021-11-16T11:12:15.000Z</time>
      </trkpt>
      <trkpt lat="47.73989" lon="-3.46987">
        <ele>38.3</ele>
        <time>2021-11-16T11:12:18.000Z</time>
      </trkpt>
      <trkpt lat="47.73983" lon="-3.46987">
        <ele>39.1</ele>
        <time>2021-11-16T11:12:21.000Z</time>
      </trkpt>
      <trkpt lat="47.73976" lon="-3.4699">
        <ele>40.9</ele>
        <time>2021-11-16T11:12:24.000Z</time>
      </trkpt>
      <trkpt lat="47.73969" lon="-3.46991">
        <ele>39.6</ele>
        <time>2021-11-16T11:12:27.000Z</time>
      </trkpt>
      <trkpt lat="47.73962" lon="-3.46992">
        <ele>40.4</ele>
        <time>2021-11-16T11:12:30.000Z</time>
      </trkpt>
      <trkpt lat="47.73956" lon="-3.46992">
        <ele>41.3</ele>
        <time>2021-11-16T11:12:33.000Z</time>
      </trkpt>
      <trkpt lat="47.7395" lon="-3.46988">
        <ele>40.6</ele>
        <time>2021-11-16T11:12:36.000Z</time>
      </trkpt>
      <trkpt lat="47.73947" lon="-3.46984">
        <ele>41.1</ele>
        <time>2021-11-16T11:12:39.000Z</time>
      </trkpt>
      <trkpt lat="47.73948" lon="-3.46982">
        <ele>40.9</ele>
        <time>2021-11-16T11:12:42.000Z</time>
      </trkpt>
      <trkpt lat="47.73948" lon="-3.46981">
        <ele>41</ele>
        <time>2021-11-16T11:12:44.000Z</time>
      </trkpt>
      <trkpt lat="47.73948" lon="-3.46981">
        <ele>41.1</ele>
        <time>2021-11-16T11:12:45.000Z</time>
      </trkpt>
      <trkpt lat="47.73948" lon="-3.46978">
        <ele>41.4</ele>
        <time>2021-11-16T11:12:48.000Z</time>
      </trkpt>
      <trkpt lat="47.73946" lon="-3.46974">
        <ele>42.4</ele>
        <time>2021-11-16T11:12:51.000Z</time>
      </trkpt>
      <trkpt lat="47.73945" lon="-3.46972">
        <ele>41.7</ele>
        <time>2021-11-16T11:12:54.000Z</time>
      </trkpt>
      <trkpt lat="47.73942" lon="-3.46972">
        <ele>41.1</ele>
        <time>2021-11-16T11:12:57.000Z</time>
      </trkpt>
      <trkpt lat="47.73938" lon="-3.46978">
        <ele>41.1</ele>
        <time>2021-11-16T11:13:00.000Z</time>
      </trkpt>
      <trkpt lat="47.73935" lon="-3.46981">
        <ele>41.7</ele>
        <time>2021-11-16T11:13:03.000Z</time>
      </trkpt>
      <trkpt lat="47.73934" lon="-3.46984">
        <ele>41.6</ele>
        <time>2021-11-16T11:13:06.000Z</time>
      </trkpt>
      <trkpt lat="47.73933" lon="-3.46984">
        <ele>41.2</ele>
        <time>2021-11-16T11:13:09.000Z</time>
      </trkpt>
      <trkpt lat="47.73933" lon="-3.46984">
        <ele>41.1</ele>
        <time>2021-11-16T11:13:10.000Z</time>
      </trkpt>
      <trkpt lat="47.73932" lon="-3.46984">
        <ele>41.9</ele>
        <time>2021-11-16T11:13:12.000Z</time>
      </trkpt>
      <trkpt lat="47.73932" lon="-3.46984">
        <ele>42.2</ele>
        <time>2021-11-16T11:13:13.000Z</time>
      </trkpt>
      <trkpt lat="47.73932" lon="-3.46984">
        <ele>41.6</ele>
        <time>2021-11-16T11:13:16.000Z</time>
      </trkpt>
      <trkpt lat="47.73932" lon="-3.46984">
        <ele>41.5</ele>
        <time>2021-11-16T11:13:19.000Z</time>
      </trkpt>
      <trkpt lat="47.73932" lon="-3.46983">
        <ele>41.5</ele>
        <time>2021-11-16T11:13:22.000Z</time>
      </trkpt>
      <trkpt lat="47.73932" lon="-3.46983">
        <ele>41.6</ele>
        <time>2021-11-16T11:13:24.000Z</time>
      </trkpt>
      <trkpt lat="47.73932" lon="-3.46982">
        <ele>41.7</ele>
        <time>2021-11-16T11:13:26.000Z</time>
      </trkpt>
      <trkpt lat="47.73932" lon="-3.46982">
        <ele>41.6</ele>
        <time>2021-11-16T11:13:27.000Z</time>
      </trkpt>
      <trkpt lat="47.73931" lon="-3.46982">
        <ele>41.4</ele>
        <time>2021-11-16T11:13:30.000Z</time>
      </trkpt>
      <trkpt lat="47.73929" lon="-3.46985">
        <ele>41.8</ele>
        <time>2021-11-16T11:13:33.000Z</time>
      </trkpt>
      <trkpt lat="47.73928" lon="-3.46986">
        <ele>41.9</ele>
        <time>2021-11-16T11:13:36.000Z</time>
      </trkpt>
      <trkpt lat="47.73928" lon="-3.46986">
        <ele>42</ele>
        <time>2021-11-16T11:13:37.000Z</time>
      </trkpt>
      <trkpt lat="47.73928" lon="-3.46986">
        <ele>41.9</ele>
        <time>2021-11-16T11:13:40.000Z</time>
      </trkpt>
      <trkpt lat="47.73928" lon="-3.46986">
        <ele>41.9</ele>
        <time>2021-11-16T11:13:43.000Z</time>
      </trkpt>
      <trkpt lat="47.73928" lon="-3.46986">
        <ele>41.7</ele>
        <time>2021-11-16T11:13:46.000Z</time>
      </trkpt>
      <trkpt lat="47.73928" lon="-3.46986">
        <ele>41.7</ele>
        <time>2021-11-16T11:13:49.000Z</time>
      </trkpt>
      <trkpt lat="47.73928" lon="-3.46986">
        <ele>41.9</ele>
        <time>2021-11-16T11:13:52.000Z</time>
      </trkpt>
      <trkpt lat="47.73928" lon="-3.46986">
        <ele>42.3</ele>
        <time>2021-11-16T11:13:55.000Z</time>
      </trkpt>
      <trkpt lat="47.73928" lon="-3.46986">
        <ele>42.1</ele>
        <time>2021-11-16T11:13:58.000Z</time>
      </trkpt>
      <trkpt lat="47.73928" lon="-3.46986">
        <ele>41.9</ele>
        <time>2021-11-16T11:14:00.000Z</time>
      </trkpt>
      <trkpt lat="47.73926" lon="-3.46988">
        <ele>41.5</ele>
        <time>2021-11-16T11:14:03.000Z</time>
      </trkpt>
      <trkpt lat="47.73924" lon="-3.46992">
        <ele>41.6</ele>
        <time>2021-11-16T11:14:06.000Z</time>
      </trkpt>
      <trkpt lat="47.73921" lon="-3.46998">
        <ele>41.3</ele>
        <time>2021-11-16T11:14:09.000Z</time>
      </trkpt>
      <trkpt lat="47.73918" lon="-3.47007">
        <ele>42</ele>
        <time>2021-11-16T11:14:12.000Z</time>
      </trkpt>
      <trkpt lat="47.73912" lon="-3.47016">
        <ele>42.3</ele>
        <time>2021-11-16T11:14:15.000Z</time>
      </trkpt>
      <trkpt lat="47.73905" lon="-3.47026">
        <ele>42</ele>
        <time>2021-11-16T11:14:18.000Z</time>
      </trkpt>
      <trkpt lat="47.73898" lon="-3.47038">
        <ele>41.4</ele>
        <time>2021-11-16T11:14:21.000Z</time>
      </trkpt>
      <trkpt lat="47.73892" lon="-3.47051">
        <ele>41.4</ele>
        <time>2021-11-16T11:14:24.000Z</time>
      </trkpt>
      <trkpt lat="47.73884" lon="-3.47064">
        <ele>41.5</ele>
        <time>2021-11-16T11:14:27.000Z</time>
      </trkpt>
      <trkpt lat="47.73875" lon="-3.47079">
        <ele>39.4</ele>
        <time>2021-11-16T11:14:30.000Z</time>
      </trkpt>
      <trkpt lat="47.73865" lon="-3.47092">
        <ele>38.8</ele>
        <time>2021-11-16T11:14:33.000Z</time>
      </trkpt>
      <trkpt lat="47.73855" lon="-3.47107">
        <ele>40.3</ele>
        <time>2021-11-16T11:14:36.000Z</time>
      </trkpt>
      <trkpt lat="47.73848" lon="-3.47107">
        <ele>40.3</ele>
        <time>2021-11-16T11:14:39.000Z</time>
      </trkpt>
      <trkpt lat="47.73842" lon="-3.47103">
        <ele>38.4</ele>
        <time>2021-11-16T11:14:42.000Z</time>
      </trkpt>
      <trkpt lat="47.73832" lon="-3.47109">
        <ele>39.1</ele>
        <time>2021-11-16T11:14:45.000Z</time>
      </trkpt>
      <trkpt lat="47.73822" lon="-3.47118">
        <ele>40.4</ele>
        <time>2021-11-16T11:14:48.000Z</time>
      </trkpt>
      <trkpt lat="47.73809" lon="-3.4713">
        <ele>39.7</ele>
        <time>2021-11-16T11:14:51.000Z</time>
      </trkpt>
      <trkpt lat="47.73796" lon="-3.4714">
        <ele>38</ele>
        <time>2021-11-16T11:14:54.000Z</time>
      </trkpt>
      <trkpt lat="47.73783" lon="-3.47149">
        <ele>36.7</ele>
        <time>2021-11-16T11:14:57.000Z</time>
      </trkpt>
      <trkpt lat="47.73771" lon="-3.47158">
        <ele>34.4</ele>
        <time>2021-11-16T11:15:00.000Z</time>
      </trkpt>
      <trkpt lat="47.73765" lon="-3.47173">
        <ele>32.7</ele>
        <time>2021-11-16T11:15:03.000Z</time>
      </trkpt>
      <trkpt lat="47.73762" lon="-3.47191">
        <ele>35</ele>
        <time>2021-11-16T11:15:06.000Z</time>
      </trkpt>
      <trkpt lat="47.73757" lon="-3.47209">
        <ele>29</ele>
        <time>2021-11-16T11:15:09.000Z</time>
      </trkpt>
      <trkpt lat="47.73753" lon="-3.47232">
        <ele>30.3</ele>
        <time>2021-11-16T11:15:12.000Z</time>
      </trkpt>
      <trkpt lat="47.73749" lon="-3.47255">
        <ele>36</ele>
        <time>2021-11-16T11:15:15.000Z</time>
      </trkpt>
      <trkpt lat="47.73743" lon="-3.47279">
        <ele>31.9</ele>
        <time>2021-11-16T11:15:18.000Z</time>
      </trkpt>
      <trkpt lat="47.73732" lon="-3.47297">
        <ele>27.4</ele>
        <time>2021-11-16T11:15:21.000Z</time>
      </trkpt>
      <trkpt lat="47.73716" lon="-3.47307">
        <ele>28.1</ele>
        <time>2021-11-16T11:15:24.000Z</time>
      </trkpt>
      <trkpt lat="47.73697" lon="-3.47316">
        <ele>27.2</ele>
        <time>2021-11-16T11:15:27.000Z</time>
      </trkpt>
      <trkpt lat="47.73678" lon="-3.47323">
        <ele>27.6</ele>
        <time>2021-11-16T11:15:30.000Z</time>
      </trkpt>
      <trkpt lat="47.73669" lon="-3.47337">
        <ele>26.8</ele>
        <time>2021-11-16T11:15:33.000Z</time>
      </trkpt>
      <trkpt lat="47.73661" lon="-3.47356">
        <ele>31.2</ele>
        <time>2021-11-16T11:15:36.000Z</time>
      </trkpt>
      <trkpt lat="47.73654" lon="-3.47374">
        <ele>31.4</ele>
        <time>2021-11-16T11:15:39.000Z</time>
      </trkpt>
      <trkpt lat="47.73648" lon="-3.47394">
        <ele>31.1</ele>
        <time>2021-11-16T11:15:42.000Z</time>
      </trkpt>
      <trkpt lat="47.73642" lon="-3.47412">
        <ele>32</ele>
        <time>2021-11-16T11:15:45.000Z</time>
      </trkpt>
      <trkpt lat="47.73631" lon="-3.4742">
        <ele>32.6</ele>
        <time>2021-11-16T11:15:48.000Z</time>
      </trkpt>
      <trkpt lat="47.73621" lon="-3.47413">
        <ele>33.4</ele>
        <time>2021-11-16T11:15:51.000Z</time>
      </trkpt>
      <trkpt lat="47.73611" lon="-3.47403">
        <ele>33.8</ele>
        <time>2021-11-16T11:15:54.000Z</time>
      </trkpt>
      <trkpt lat="47.73598" lon="-3.47398">
        <ele>32.3</ele>
        <time>2021-11-16T11:15:57.000Z</time>
      </trkpt>
      <trkpt lat="47.73584" lon="-3.47396">
        <ele>33.5</ele>
        <time>2021-11-16T11:16:00.000Z</time>
      </trkpt>
      <trkpt lat="47.73567" lon="-3.47394">
        <ele>33.4</ele>
        <time>2021-11-16T11:16:03.000Z</time>
      </trkpt>
      <trkpt lat="47.7355" lon="-3.47393">
        <ele>30.8</ele>
        <time>2021-11-16T11:16:06.000Z</time>
      </trkpt>
      <trkpt lat="47.73532" lon="-3.47392">
        <ele>28.1</ele>
        <time>2021-11-16T11:16:09.000Z</time>
      </trkpt>
      <trkpt lat="47.73514" lon="-3.47394">
        <ele>31.5</ele>
        <time>2021-11-16T11:16:12.000Z</time>
      </trkpt>
      <trkpt lat="47.73496" lon="-3.47396">
        <ele>31</ele>
        <time>2021-11-16T11:16:15.000Z</time>
      </trkpt>
      <trkpt lat="47.7348" lon="-3.47399">
        <ele>32.6</ele>
        <time>2021-11-16T11:16:18.000Z</time>
      </trkpt>
      <trkpt lat="47.73469" lon="-3.47404">
        <ele>33</ele>
        <time>2021-11-16T11:16:21.000Z</time>
      </trkpt>
      <trkpt lat="47.73459" lon="-3.47415">
        <ele>31.4</ele>
        <time>2021-11-16T11:16:24.000Z</time>
      </trkpt>
      <trkpt lat="47.73447" lon="-3.47425">
        <ele>31.7</ele>
        <time>2021-11-16T11:16:27.000Z</time>
      </trkpt>
      <trkpt lat="47.73433" lon="-3.47434">
        <ele>31.8</ele>
        <time>2021-11-16T11:16:30.000Z</time>
      </trkpt>
      <trkpt lat="47.73419" lon="-3.47445">
        <ele>31.6</ele>
        <time>2021-11-16T11:16:33.000Z</time>
      </trkpt>
      <trkpt lat="47.73404" lon="-3.47454">
        <ele>32.5</ele>
        <time>2021-11-16T11:16:36.000Z</time>
      </trkpt>
      <trkpt lat="47.7339" lon="-3.47466">
        <ele>31.2</ele>
        <time>2021-11-16T11:16:39.000Z</time>
      </trkpt>
      <trkpt lat="47.73377" lon="-3.47484">
        <ele>31.5</ele>
        <time>2021-11-16T11:16:42.000Z</time>
      </trkpt>
      <trkpt lat="47.73363" lon="-3.47502">
        <ele>32.2</ele>
        <time>2021-11-16T11:16:45.000Z</time>
      </trkpt>
      <trkpt lat="47.73348" lon="-3.47518">
        <ele>31.5</ele>
        <time>2021-11-16T11:16:48.000Z</time>
      </trkpt>
      <trkpt lat="47.73331" lon="-3.47533">
        <ele>32</ele>
        <time>2021-11-16T11:16:51.000Z</time>
      </trkpt>
      <trkpt lat="47.73314" lon="-3.47549">
        <ele>30</ele>
        <time>2021-11-16T11:16:54.000Z</time>
      </trkpt>
      <trkpt lat="47.73297" lon="-3.47567">
        <ele>30.4</ele>
        <time>2021-11-16T11:16:57.000Z</time>
      </trkpt>
      <trkpt lat="47.73281" lon="-3.47586">
        <ele>29.8</ele>
        <time>2021-11-16T11:17:00.000Z</time>
      </trkpt>
      <trkpt lat="47.73265" lon="-3.47606">
        <ele>29.9</ele>
        <time>2021-11-16T11:17:03.000Z</time>
      </trkpt>
      <trkpt lat="47.7325" lon="-3.47626">
        <ele>28.9</ele>
        <time>2021-11-16T11:17:06.000Z</time>
      </trkpt>
      <trkpt lat="47.73235" lon="-3.47646">
        <ele>29.6</ele>
        <time>2021-11-16T11:17:09.000Z</time>
      </trkpt>
      <trkpt lat="47.73221" lon="-3.47664">
        <ele>29.4</ele>
        <time>2021-11-16T11:17:12.000Z</time>
      </trkpt>
      <trkpt lat="47.73206" lon="-3.47682">
        <ele>29.3</ele>
        <time>2021-11-16T11:17:15.000Z</time>
      </trkpt>
      <trkpt lat="47.73191" lon="-3.47698">
        <ele>31</ele>
        <time>2021-11-16T11:17:18.000Z</time>
      </trkpt>
      <trkpt lat="47.73176" lon="-3.47713">
        <ele>29.8</ele>
        <time>2021-11-16T11:17:21.000Z</time>
      </trkpt>
      <trkpt lat="47.73159" lon="-3.47725">
        <ele>30.8</ele>
        <time>2021-11-16T11:17:24.000Z</time>
      </trkpt>
      <trkpt lat="47.73142" lon="-3.47736">
        <ele>29.7</ele>
        <time>2021-11-16T11:17:27.000Z</time>
      </trkpt>
      <trkpt lat="47.73124" lon="-3.47747">
        <ele>29.2</ele>
        <time>2021-11-16T11:17:30.000Z</time>
      </trkpt>
      <trkpt lat="47.73105" lon="-3.47755">
        <ele>27.4</ele>
        <time>2021-11-16T11:17:33.000Z</time>
      </trkpt>
      <trkpt lat="47.73087" lon="-3.47767">
        <ele>29.2</ele>
        <time>2021-11-16T11:17:36.000Z</time>
      </trkpt>
      <trkpt lat="47.73069" lon="-3.47783">
        <ele>28.2</ele>
        <time>2021-11-16T11:17:39.000Z</time>
      </trkpt>
      <trkpt lat="47.73053" lon="-3.47801">
        <ele>28.8</ele>
        <time>2021-11-16T11:17:42.000Z</time>
      </trkpt>
      <trkpt lat="47.73037" lon="-3.47819">
        <ele>27.6</ele>
        <time>2021-11-16T11:17:45.000Z</time>
      </trkpt>
      <trkpt lat="47.7302" lon="-3.47837">
        <ele>27.6</ele>
        <time>2021-11-16T11:17:48.000Z</time>
      </trkpt>
      <trkpt lat="47.73002" lon="-3.47856">
        <ele>28.8</ele>
        <time>2021-11-16T11:17:51.000Z</time>
      </trkpt>
      <trkpt lat="47.72982" lon="-3.47873">
        <ele>23</ele>
        <time>2021-11-16T11:17:54.000Z</time>
      </trkpt>
      <trkpt lat="47.72961" lon="-3.47881">
        <ele>25.2</ele>
        <time>2021-11-16T11:17:57.000Z</time>
      </trkpt>
      <trkpt lat="47.72938" lon="-3.47881">
        <ele>24.1</ele>
        <time>2021-11-16T11:18:00.000Z</time>
      </trkpt>
      <trkpt lat="47.72916" lon="-3.47878">
        <ele>23.6</ele>
        <time>2021-11-16T11:18:03.000Z</time>
      </trkpt>
      <trkpt lat="47.72895" lon="-3.47876">
        <ele>25.3</ele>
        <time>2021-11-16T11:18:06.000Z</time>
      </trkpt>
      <trkpt lat="47.72881" lon="-3.47872">
        <ele>24</ele>
        <time>2021-11-16T11:18:09.000Z</time>
      </trkpt>
      <trkpt lat="47.7288" lon="-3.47851">
        <ele>24.7</ele>
        <time>2021-11-16T11:18:12.000Z</time>
      </trkpt>
      <trkpt lat="47.72884" lon="-3.47827">
        <ele>23</ele>
        <time>2021-11-16T11:18:15.000Z</time>
      </trkpt>
      <trkpt lat="47.72887" lon="-3.47802">
        <ele>23.7</ele>
        <time>2021-11-16T11:18:18.000Z</time>
      </trkpt>
      <trkpt lat="47.7289" lon="-3.47776">
        <ele>23.6</ele>
        <time>2021-11-16T11:18:21.000Z</time>
      </trkpt>
      <trkpt lat="47.72894" lon="-3.4775">
        <ele>23.7</ele>
        <time>2021-11-16T11:18:24.000Z</time>
      </trkpt>
      <trkpt lat="47.72897" lon="-3.47724">
        <ele>27.3</ele>
        <time>2021-11-16T11:18:27.000Z</time>
      </trkpt>
      <trkpt lat="47.72896" lon="-3.477">
        <ele>25.1</ele>
        <time>2021-11-16T11:18:30.000Z</time>
      </trkpt>
      <trkpt lat="47.72888" lon="-3.47678">
        <ele>23.8</ele>
        <time>2021-11-16T11:18:33.000Z</time>
      </trkpt>
      <trkpt lat="47.72883" lon="-3.47657">
        <ele>26.6</ele>
        <time>2021-11-16T11:18:36.000Z</time>
      </trkpt>
      <trkpt lat="47.72879" lon="-3.47637">
        <ele>28.4</ele>
        <time>2021-11-16T11:18:39.000Z</time>
      </trkpt>
      <trkpt lat="47.72877" lon="-3.47615">
        <ele>24.4</ele>
        <time>2021-11-16T11:18:42.000Z</time>
      </trkpt>
      <trkpt lat="47.72878" lon="-3.47594">
        <ele>29.3</ele>
        <time>2021-11-16T11:18:45.000Z</time>
      </trkpt>
      <trkpt lat="47.7288" lon="-3.47573">
        <ele>28.8</ele>
        <time>2021-11-16T11:18:48.000Z</time>
      </trkpt>
      <trkpt lat="47.72884" lon="-3.47553">
        <ele>25.7</ele>
        <time>2021-11-16T11:18:51.000Z</time>
      </trkpt>
      <trkpt lat="47.72886" lon="-3.47536">
        <ele>26.6</ele>
        <time>2021-11-16T11:18:54.000Z</time>
      </trkpt>
      <trkpt lat="47.72886" lon="-3.47519">
        <ele>32.5</ele>
        <time>2021-11-16T11:18:57.000Z</time>
      </trkpt>
      <trkpt lat="47.72891" lon="-3.47504">
        <ele>32.5</ele>
        <time>2021-11-16T11:19:00.000Z</time>
      </trkpt>
      <trkpt lat="47.729" lon="-3.47498">
        <ele>30.4</ele>
        <time>2021-11-16T11:19:03.000Z</time>
      </trkpt>
      <trkpt lat="47.7291" lon="-3.47493">
        <ele>36.4</ele>
        <time>2021-11-16T11:19:06.000Z</time>
      </trkpt>
      <trkpt lat="47.72919" lon="-3.47485">
        <ele>33.4</ele>
        <time>2021-11-16T11:19:09.000Z</time>
      </trkpt>
      <trkpt lat="47.72923" lon="-3.47472">
        <ele>32.8</ele>
        <time>2021-11-16T11:19:12.000Z</time>
      </trkpt>
      <trkpt lat="47.72916" lon="-3.47459">
        <ele>32.9</ele>
        <time>2021-11-16T11:19:15.000Z</time>
      </trkpt>
      <trkpt lat="47.72903" lon="-3.47454">
        <ele>34.7</ele>
        <time>2021-11-16T11:19:18.000Z</time>
      </trkpt>
      <trkpt lat="47.72887" lon="-3.47459">
        <ele>31.8</ele>
        <time>2021-11-16T11:19:21.000Z</time>
      </trkpt>
      <trkpt lat="47.72868" lon="-3.47466">
        <ele>31.4</ele>
        <time>2021-11-16T11:19:24.000Z</time>
      </trkpt>
      <trkpt lat="47.72845" lon="-3.47472">
        <ele>24.7</ele>
        <time>2021-11-16T11:19:27.000Z</time>
      </trkpt>
      <trkpt lat="47.72826" lon="-3.47469">
        <ele>25.5</ele>
        <time>2021-11-16T11:19:30.000Z</time>
      </trkpt>
      <trkpt lat="47.72808" lon="-3.4746">
        <ele>26.2</ele>
        <time>2021-11-16T11:19:33.000Z</time>
      </trkpt>
      <trkpt lat="47.72788" lon="-3.47457">
        <ele>26.6</ele>
        <time>2021-11-16T11:19:36.000Z</time>
      </trkpt>
      <trkpt lat="47.7277" lon="-3.47453">
        <ele>25.8</ele>
        <time>2021-11-16T11:19:39.000Z</time>
      </trkpt>
      <trkpt lat="47.72754" lon="-3.47453">
        <ele>27.6</ele>
        <time>2021-11-16T11:19:42.000Z</time>
      </trkpt>
      <trkpt lat="47.72742" lon="-3.47442">
        <ele>26.8</ele>
        <time>2021-11-16T11:19:45.000Z</time>
      </trkpt>
      <trkpt lat="47.72739" lon="-3.47419">
        <ele>28.9</ele>
        <time>2021-11-16T11:19:48.000Z</time>
      </trkpt>
      <trkpt lat="47.72738" lon="-3.47398">
        <ele>33.8</ele>
        <time>2021-11-16T11:19:51.000Z</time>
      </trkpt>
      <trkpt lat="47.72738" lon="-3.47383">
        <ele>30.6</ele>
        <time>2021-11-16T11:19:54.000Z</time>
      </trkpt>
      <trkpt lat="47.72737" lon="-3.47367">
        <ele>31.4</ele>
        <time>2021-11-16T11:19:57.000Z</time>
      </trkpt>
      <trkpt lat="47.72737" lon="-3.4735">
        <ele>32</ele>
        <time>2021-11-16T11:20:00.000Z</time>
      </trkpt>
      <trkpt lat="47.72736" lon="-3.47335">
        <ele>31.8</ele>
        <time>2021-11-16T11:20:03.000Z</time>
      </trkpt>
      <trkpt lat="47.72736" lon="-3.47322">
        <ele>32.7</ele>
        <time>2021-11-16T11:20:06.000Z</time>
      </trkpt>
      <trkpt lat="47.72736" lon="-3.47313">
        <ele>33.1</ele>
        <time>2021-11-16T11:20:09.000Z</time>
      </trkpt>
      <trkpt lat="47.72737" lon="-3.473">
        <ele>33.9</ele>
        <time>2021-11-16T11:20:12.000Z</time>
      </trkpt>
      <trkpt lat="47.72734" lon="-3.47291">
        <ele>34.2</ele>
        <time>2021-11-16T11:20:15.000Z</time>
      </trkpt>
      <trkpt lat="47.72728" lon="-3.47284">
        <ele>33.8</ele>
        <time>2021-11-16T11:20:18.000Z</time>
      </trkpt>
      <trkpt lat="47.72723" lon="-3.47275">
        <ele>34.5</ele>
        <time>2021-11-16T11:20:21.000Z</time>
      </trkpt>
      <trkpt lat="47.72717" lon="-3.47263">
        <ele>34</ele>
        <time>2021-11-16T11:20:24.000Z</time>
      </trkpt>
      <trkpt lat="47.7271" lon="-3.4725">
        <ele>34.3</ele>
        <time>2021-11-16T11:20:27.000Z</time>
      </trkpt>
      <trkpt lat="47.72702" lon="-3.4724">
        <ele>34.1</ele>
        <time>2021-11-16T11:20:30.000Z</time>
      </trkpt>
      <trkpt lat="47.72699" lon="-3.47232">
        <ele>34.5</ele>
        <time>2021-11-16T11:20:33.000Z</time>
      </trkpt>
      <trkpt lat="47.72693" lon="-3.47224">
        <ele>34.1</ele>
        <time>2021-11-16T11:20:36.000Z</time>
      </trkpt>
      <trkpt lat="47.72679" lon="-3.47216">
        <ele>18.7</ele>
      </trkpt>
      <trkpt lat="47.72681" lon="-3.47217">
        <ele>37</ele>
        <time>2021-11-16T11:25:03.000Z</time>
      </trkpt>
      <trkpt lat="47.72676" lon="-3.47207">
        <ele>36.7</ele>
        <time>2021-11-16T11:25:06.000Z</time>
      </trkpt>
      <trkpt lat="47.7267" lon="-3.47196">
        <ele>39.5</ele>
        <time>2021-11-16T11:25:09.000Z</time>
      </trkpt>
      <trkpt lat="47.72662" lon="-3.47181">
        <ele>37.6</ele>
        <time>2021-11-16T11:25:12.000Z</time>
      </trkpt>
      <trkpt lat="47.72654" lon="-3.47166">
        <ele>38.6</ele>
        <time>2021-11-16T11:25:15.000Z</time>
      </trkpt>
      <trkpt lat="47.72645" lon="-3.47152">
        <ele>36.5</ele>
        <time>2021-11-16T11:25:18.000Z</time>
      </trkpt>
      <trkpt lat="47.72635" lon="-3.47136">
        <ele>35.8</ele>
        <time>2021-11-16T11:25:21.000Z</time>
      </trkpt>
      <trkpt lat="47.72625" lon="-3.4712">
        <ele>36.8</ele>
        <time>2021-11-16T11:25:24.000Z</time>
      </trkpt>
      <trkpt lat="47.72615" lon="-3.47105">
        <ele>36.2</ele>
        <time>2021-11-16T11:25:27.000Z</time>
      </trkpt>
      <trkpt lat="47.72607" lon="-3.47087">
        <ele>35.3</ele>
        <time>2021-11-16T11:25:30.000Z</time>
      </trkpt>
      <trkpt lat="47.72598" lon="-3.47063">
        <ele>34.8</ele>
        <time>2021-11-16T11:25:33.000Z</time>
      </trkpt>
      <trkpt lat="47.72591" lon="-3.47032">
        <ele>34.8</ele>
        <time>2021-11-16T11:25:36.000Z</time>
      </trkpt>
      <trkpt lat="47.72583" lon="-3.47004">
        <ele>32.7</ele>
        <time>2021-11-16T11:25:39.000Z</time>
      </trkpt>
      <trkpt lat="47.72576" lon="-3.46979">
        <ele>34.7</ele>
        <time>2021-11-16T11:25:42.000Z</time>
      </trkpt>
      <trkpt lat="47.72569" lon="-3.46954">
        <ele>34.7</ele>
        <time>2021-11-16T11:25:45.000Z</time>
      </trkpt>
      <trkpt lat="47.72561" lon="-3.46935">
        <ele>35.8</ele>
        <time>2021-11-16T11:25:48.000Z</time>
      </trkpt>
      <trkpt lat="47.72551" lon="-3.46916">
        <ele>35.8</ele>
        <time>2021-11-16T11:25:51.000Z</time>
      </trkpt>
      <trkpt lat="47.72542" lon="-3.46895">
        <ele>35.1</ele>
        <time>2021-11-16T11:25:54.000Z</time>
      </trkpt>
      <trkpt lat="47.72533" lon="-3.46875">
        <ele>33.6</ele>
        <time>2021-11-16T11:25:57.000Z</time>
      </trkpt>
      <trkpt lat="47.72526" lon="-3.46854">
        <ele>36.9</ele>
        <time>2021-11-16T11:26:00.000Z</time>
      </trkpt>
      <trkpt lat="47.7252" lon="-3.4683">
        <ele>39.7</ele>
        <time>2021-11-16T11:26:03.000Z</time>
      </trkpt>
      <trkpt lat="47.72518" lon="-3.46807">
        <ele>37</ele>
        <time>2021-11-16T11:26:06.000Z</time>
      </trkpt>
      <trkpt lat="47.72517" lon="-3.46786">
        <ele>41.2</ele>
        <time>2021-11-16T11:26:09.000Z</time>
      </trkpt>
      <trkpt lat="47.72517" lon="-3.46765">
        <ele>37</ele>
        <time>2021-11-16T11:26:12.000Z</time>
      </trkpt>
      <trkpt lat="47.72517" lon="-3.46745">
        <ele>39.7</ele>
        <time>2021-11-16T11:26:15.000Z</time>
      </trkpt>
      <trkpt lat="47.72516" lon="-3.46724">
        <ele>37.5</ele>
        <time>2021-11-16T11:26:18.000Z</time>
      </trkpt>
      <trkpt lat="47.72516" lon="-3.46703">
        <ele>40.3</ele>
        <time>2021-11-16T11:26:21.000Z</time>
      </trkpt>
      <trkpt lat="47.72517" lon="-3.46683">
        <ele>37.1</ele>
        <time>2021-11-16T11:26:24.000Z</time>
      </trkpt>
      <trkpt lat="47.7252" lon="-3.46663">
        <ele>39.9</ele>
        <time>2021-11-16T11:26:27.000Z</time>
      </trkpt>
      <trkpt lat="47.72522" lon="-3.46644">
        <ele>42.7</ele>
        <time>2021-11-16T11:26:30.000Z</time>
      </trkpt>
      <trkpt lat="47.72524" lon="-3.46625">
        <ele>40.3</ele>
        <time>2021-11-16T11:26:33.000Z</time>
      </trkpt>
      <trkpt lat="47.72524" lon="-3.46607">
        <ele>39</ele>
        <time>2021-11-16T11:26:36.000Z</time>
      </trkpt>
      <trkpt lat="47.72526" lon="-3.46588">
        <ele>40.3</ele>
        <time>2021-11-16T11:26:39.000Z</time>
      </trkpt>
      <trkpt lat="47.72533" lon="-3.46569">
        <ele>40.8</ele>
        <time>2021-11-16T11:26:42.000Z</time>
      </trkpt>
      <trkpt lat="47.72539" lon="-3.46548">
        <ele>40.3</ele>
        <time>2021-11-16T11:26:45.000Z</time>
      </trkpt>
      <trkpt lat="47.72545" lon="-3.46527">
        <ele>40.7</ele>
        <time>2021-11-16T11:26:48.000Z</time>
      </trkpt>
      <trkpt lat="47.7255" lon="-3.46506">
        <ele>42.2</ele>
        <time>2021-11-16T11:26:51.000Z</time>
      </trkpt>
      <trkpt lat="47.72554" lon="-3.46484">
        <ele>40.9</ele>
        <time>2021-11-16T11:26:54.000Z</time>
      </trkpt>
      <trkpt lat="47.72559" lon="-3.46463">
        <ele>41.8</ele>
        <time>2021-11-16T11:26:57.000Z</time>
      </trkpt>
      <trkpt lat="47.72564" lon="-3.46441">
        <ele>42.2</ele>
        <time>2021-11-16T11:27:00.000Z</time>
      </trkpt>
      <trkpt lat="47.72568" lon="-3.4642">
        <ele>41.6</ele>
        <time>2021-11-16T11:27:03.000Z</time>
      </trkpt>
      <trkpt lat="47.72572" lon="-3.464">
        <ele>43.7</ele>
        <time>2021-11-16T11:27:06.000Z</time>
      </trkpt>
      <trkpt lat="47.72576" lon="-3.4638">
        <ele>44.1</ele>
        <time>2021-11-16T11:27:09.000Z</time>
      </trkpt>
      <trkpt lat="47.7258" lon="-3.46361">
        <ele>44.4</ele>
        <time>2021-11-16T11:27:12.000Z</time>
      </trkpt>
      <trkpt lat="47.72583" lon="-3.46342">
        <ele>45.6</ele>
        <time>2021-11-16T11:27:15.000Z</time>
      </trkpt>
      <trkpt lat="47.72586" lon="-3.46325">
        <ele>46.6</ele>
        <time>2021-11-16T11:27:18.000Z</time>
      </trkpt>
      <trkpt lat="47.72591" lon="-3.46307">
        <ele>47.9</ele>
        <time>2021-11-16T11:27:21.000Z</time>
      </trkpt>
      <trkpt lat="47.72595" lon="-3.46289">
        <ele>47.1</ele>
        <time>2021-11-16T11:27:24.000Z</time>
      </trkpt>
      <trkpt lat="47.72598" lon="-3.46271">
        <ele>49.1</ele>
        <time>2021-11-16T11:27:27.000Z</time>
      </trkpt>
      <trkpt lat="47.72601" lon="-3.46254">
        <ele>50.4</ele>
        <time>2021-11-16T11:27:30.000Z</time>
      </trkpt>
      <trkpt lat="47.72604" lon="-3.46237">
        <ele>51</ele>
        <time>2021-11-16T11:27:33.000Z</time>
      </trkpt>
      <trkpt lat="47.72608" lon="-3.4622">
        <ele>50.6</ele>
        <time>2021-11-16T11:27:36.000Z</time>
      </trkpt>
      <trkpt lat="47.72612" lon="-3.46203">
        <ele>51.3</ele>
        <time>2021-11-16T11:27:39.000Z</time>
      </trkpt>
      <trkpt lat="47.72617" lon="-3.46185">
        <ele>51.7</ele>
        <time>2021-11-16T11:27:42.000Z</time>
      </trkpt>
      <trkpt lat="47.72621" lon="-3.46168">
        <ele>51.6</ele>
        <time>2021-11-16T11:27:45.000Z</time>
      </trkpt>
      <trkpt lat="47.72626" lon="-3.46151">
        <ele>52.1</ele>
        <time>2021-11-16T11:27:48.000Z</time>
      </trkpt>
      <trkpt lat="47.72629" lon="-3.46137">
        <ele>52.1</ele>
        <time>2021-11-16T11:27:51.000Z</time>
      </trkpt>
      <trkpt lat="47.72622" lon="-3.4613">
        <ele>49.8</ele>
        <time>2021-11-16T11:27:54.000Z</time>
      </trkpt>
      <trkpt lat="47.72611" lon="-3.46123">
        <ele>49</ele>
        <time>2021-11-16T11:27:57.000Z</time>
      </trkpt>
      <trkpt lat="47.72597" lon="-3.46115">
        <ele>51.4</ele>
        <time>2021-11-16T11:28:00.000Z</time>
      </trkpt>
      <trkpt lat="47.72584" lon="-3.46105">
        <ele>51.7</ele>
        <time>2021-11-16T11:28:03.000Z</time>
      </trkpt>
      <trkpt lat="47.7257" lon="-3.46096">
        <ele>52.6</ele>
        <time>2021-11-16T11:28:06.000Z</time>
      </trkpt>
      <trkpt lat="47.72558" lon="-3.46089">
        <ele>51.9</ele>
        <time>2021-11-16T11:28:09.000Z</time>
      </trkpt>
      <trkpt lat="47.72547" lon="-3.46083">
        <ele>50.4</ele>
        <time>2021-11-16T11:28:12.000Z</time>
      </trkpt>
      <trkpt lat="47.72537" lon="-3.46077">
        <ele>52.2</ele>
        <time>2021-11-16T11:28:15.000Z</time>
      </trkpt>
      <trkpt lat="47.7253" lon="-3.46068">
        <ele>53.3</ele>
        <time>2021-11-16T11:28:18.000Z</time>
      </trkpt>
      <trkpt lat="47.72525" lon="-3.46063">
        <ele>52.7</ele>
        <time>2021-11-16T11:28:21.000Z</time>
      </trkpt>
      <trkpt lat="47.72524" lon="-3.46063">
        <ele>53.9</ele>
        <time>2021-11-16T11:28:24.000Z</time>
      </trkpt>
      <trkpt lat="47.72523" lon="-3.46064">
        <ele>53.4</ele>
        <time>2021-11-16T11:28:27.000Z</time>
      </trkpt>
      <trkpt lat="47.72522" lon="-3.46064">
        <ele>53.8</ele>
        <time>2021-11-16T11:28:30.000Z</time>
      </trkpt>
      <trkpt lat="47.72519" lon="-3.46062">
        <ele>53.3</ele>
        <time>2021-11-16T11:28:33.000Z</time>
      </trkpt>
      <trkpt lat="47.72518" lon="-3.4606">
        <ele>53.1</ele>
        <time>2021-11-16T11:28:36.000Z</time>
      </trkpt>
      <trkpt lat="47.72515" lon="-3.46059">
        <ele>53.3</ele>
        <time>2021-11-16T11:28:39.000Z</time>
      </trkpt>
      <trkpt lat="47.72508" lon="-3.46055">
        <ele>53.3</ele>
        <time>2021-11-16T11:28:42.000Z</time>
      </trkpt>
      <trkpt lat="47.725" lon="-3.46047">
        <ele>55.1</ele>
        <time>2021-11-16T11:28:45.000Z</time>
      </trkpt>
      <trkpt lat="47.7249" lon="-3.46036">
        <ele>53.7</ele>
        <time>2021-11-16T11:28:48.000Z</time>
      </trkpt>
      <trkpt lat="47.7248" lon="-3.46023">
        <ele>52.7</ele>
        <time>2021-11-16T11:28:51.000Z</time>
      </trkpt>
      <trkpt lat="47.72468" lon="-3.46012">
        <ele>54.3</ele>
        <time>2021-11-16T11:28:54.000Z</time>
      </trkpt>
      <trkpt lat="47.72455" lon="-3.45999">
        <ele>52.2</ele>
        <time>2021-11-16T11:28:57.000Z</time>
      </trkpt>
      <trkpt lat="47.72441" lon="-3.45986">
        <ele>51.9</ele>
        <time>2021-11-16T11:29:00.000Z</time>
      </trkpt>
      <trkpt lat="47.72426" lon="-3.45972">
        <ele>52.6</ele>
        <time>2021-11-16T11:29:03.000Z</time>
      </trkpt>
      <trkpt lat="47.7241" lon="-3.45956">
        <ele>50.9</ele>
        <time>2021-11-16T11:29:06.000Z</time>
      </trkpt>
      <trkpt lat="47.72394" lon="-3.45938">
        <ele>52.2</ele>
        <time>2021-11-16T11:29:09.000Z</time>
      </trkpt>
      <trkpt lat="47.72377" lon="-3.45921">
        <ele>46.9</ele>
        <time>2021-11-16T11:29:12.000Z</time>
      </trkpt>
      <trkpt lat="47.72358" lon="-3.45905">
        <ele>46.9</ele>
        <time>2021-11-16T11:29:15.000Z</time>
      </trkpt>
      <trkpt lat="47.72335" lon="-3.45888">
        <ele>44.8</ele>
        <time>2021-11-16T11:29:18.000Z</time>
      </trkpt>
      <trkpt lat="47.72312" lon="-3.45872">
        <ele>46.8</ele>
        <time>2021-11-16T11:29:21.000Z</time>
      </trkpt>
      <trkpt lat="47.7229" lon="-3.45859">
        <ele>45.3</ele>
        <time>2021-11-16T11:29:24.000Z</time>
      </trkpt>
      <trkpt lat="47.7227" lon="-3.45845">
        <ele>46.6</ele>
        <time>2021-11-16T11:29:27.000Z</time>
      </trkpt>
      <trkpt lat="47.72252" lon="-3.45832">
        <ele>45.5</ele>
        <time>2021-11-16T11:29:30.000Z</time>
      </trkpt>
      <trkpt lat="47.72235" lon="-3.45819">
        <ele>47.1</ele>
        <time>2021-11-16T11:29:33.000Z</time>
      </trkpt>
      <trkpt lat="47.7222" lon="-3.45809">
        <ele>46.4</ele>
        <time>2021-11-16T11:29:36.000Z</time>
      </trkpt>
      <trkpt lat="47.72213" lon="-3.45795">
        <ele>47</ele>
        <time>2021-11-16T11:29:39.000Z</time>
      </trkpt>
      <trkpt lat="47.72216" lon="-3.45778">
        <ele>49.9</ele>
        <time>2021-11-16T11:29:42.000Z</time>
      </trkpt>
      <trkpt lat="47.72219" lon="-3.45759">
        <ele>45.3</ele>
        <time>2021-11-16T11:29:45.000Z</time>
      </trkpt>
      <trkpt lat="47.72219" lon="-3.45742">
        <ele>48.4</ele>
        <time>2021-11-16T11:29:48.000Z</time>
      </trkpt>
      <trkpt lat="47.72218" lon="-3.45723">
        <ele>48</ele>
        <time>2021-11-16T11:29:51.000Z</time>
      </trkpt>
      <trkpt lat="47.7222" lon="-3.45703">
        <ele>47.5</ele>
        <time>2021-11-16T11:29:54.000Z</time>
      </trkpt>
      <trkpt lat="47.72223" lon="-3.45684">
        <ele>48.2</ele>
        <time>2021-11-16T11:29:57.000Z</time>
      </trkpt>
      <trkpt lat="47.72226" lon="-3.45669">
        <ele>48.8</ele>
        <time>2021-11-16T11:30:00.000Z</time>
      </trkpt>
      <trkpt lat="47.7223" lon="-3.45652">
        <ele>49.6</ele>
        <time>2021-11-16T11:30:03.000Z</time>
      </trkpt>
      <trkpt lat="47.72235" lon="-3.45635">
        <ele>50.3</ele>
        <time>2021-11-16T11:30:06.000Z</time>
      </trkpt>
      <trkpt lat="47.72242" lon="-3.4562">
        <ele>50.6</ele>
        <time>2021-11-16T11:30:09.000Z</time>
      </trkpt>
      <trkpt lat="47.72252" lon="-3.45608">
        <ele>51</ele>
        <time>2021-11-16T11:30:12.000Z</time>
      </trkpt>
      <trkpt lat="47.7226" lon="-3.45594">
        <ele>51.3</ele>
        <time>2021-11-16T11:30:15.000Z</time>
      </trkpt>
      <trkpt lat="47.72267" lon="-3.4558">
        <ele>52.2</ele>
        <time>2021-11-16T11:30:18.000Z</time>
      </trkpt>
      <trkpt lat="47.72276" lon="-3.45565">
        <ele>51.9</ele>
        <time>2021-11-16T11:30:21.000Z</time>
      </trkpt>
      <trkpt lat="47.72286" lon="-3.45551">
        <ele>51.4</ele>
        <time>2021-11-16T11:30:24.000Z</time>
      </trkpt>
      <trkpt lat="47.72297" lon="-3.45539">
        <ele>51.7</ele>
        <time>2021-11-16T11:30:27.000Z</time>
      </trkpt>
      <trkpt lat="47.72309" lon="-3.45529">
        <ele>52.5</ele>
        <time>2021-11-16T11:30:30.000Z</time>
      </trkpt>
      <trkpt lat="47.72322" lon="-3.4552">
        <ele>51.9</ele>
        <time>2021-11-16T11:30:33.000Z</time>
      </trkpt>
      <trkpt lat="47.72334" lon="-3.45509">
        <ele>52.3</ele>
        <time>2021-11-16T11:30:36.000Z</time>
      </trkpt>
      <trkpt lat="47.72345" lon="-3.45495">
        <ele>52.3</ele>
        <time>2021-11-16T11:30:39.000Z</time>
      </trkpt>
      <trkpt lat="47.72356" lon="-3.45476">
        <ele>52.1</ele>
        <time>2021-11-16T11:30:42.000Z</time>
      </trkpt>
      <trkpt lat="47.72365" lon="-3.45453">
        <ele>51.2</ele>
        <time>2021-11-16T11:30:45.000Z</time>
      </trkpt>
      <trkpt lat="47.72374" lon="-3.45428">
        <ele>51.5</ele>
        <time>2021-11-16T11:30:48.000Z</time>
      </trkpt>
      <trkpt lat="47.72385" lon="-3.45404">
        <ele>49.6</ele>
        <time>2021-11-16T11:30:51.000Z</time>
      </trkpt>
      <trkpt lat="47.72394" lon="-3.45384">
        <ele>50.2</ele>
        <time>2021-11-16T11:30:54.000Z</time>
      </trkpt>
      <trkpt lat="47.72388" lon="-3.45371">
        <ele>51.7</ele>
        <time>2021-11-16T11:30:57.000Z</time>
      </trkpt>
      <trkpt lat="47.72377" lon="-3.45365">
        <ele>49.6</ele>
        <time>2021-11-16T11:31:00.000Z</time>
      </trkpt>
      <trkpt lat="47.72372" lon="-3.45353">
        <ele>50.9</ele>
        <time>2021-11-16T11:31:03.000Z</time>
      </trkpt>
      <trkpt lat="47.72372" lon="-3.45334">
        <ele>49.7</ele>
        <time>2021-11-16T11:31:06.000Z</time>
      </trkpt>
      <trkpt lat="47.72372" lon="-3.45307">
        <ele>47.5</ele>
        <time>2021-11-16T11:31:09.000Z</time>
      </trkpt>
      <trkpt lat="47.7237" lon="-3.45284">
        <ele>51</ele>
        <time>2021-11-16T11:31:12.000Z</time>
      </trkpt>
      <trkpt lat="47.72369" lon="-3.45263">
        <ele>49.6</ele>
        <time>2021-11-16T11:31:15.000Z</time>
      </trkpt>
      <trkpt lat="47.7237" lon="-3.45242">
        <ele>49.9</ele>
        <time>2021-11-16T11:31:18.000Z</time>
      </trkpt>
      <trkpt lat="47.72371" lon="-3.45219">
        <ele>49.9</ele>
        <time>2021-11-16T11:31:21.000Z</time>
      </trkpt>
      <trkpt lat="47.72379" lon="-3.45204">
        <ele>49.1</ele>
        <time>2021-11-16T11:31:24.000Z</time>
      </trkpt>
      <trkpt lat="47.72387" lon="-3.4519">
        <ele>46.7</ele>
        <time>2021-11-16T11:31:27.000Z</time>
      </trkpt>
      <trkpt lat="47.72397" lon="-3.45175">
        <ele>48.8</ele>
        <time>2021-11-16T11:31:30.000Z</time>
      </trkpt>
      <trkpt lat="47.7241" lon="-3.45159">
        <ele>48.5</ele>
        <time>2021-11-16T11:31:33.000Z</time>
      </trkpt>
      <trkpt lat="47.72426" lon="-3.45148">
        <ele>46.9</ele>
        <time>2021-11-16T11:31:36.000Z</time>
      </trkpt>
      <trkpt lat="47.72435" lon="-3.4513">
        <ele>44.2</ele>
        <time>2021-11-16T11:31:39.000Z</time>
      </trkpt>
      <trkpt lat="47.72436" lon="-3.45107">
        <ele>44.2</ele>
        <time>2021-11-16T11:31:42.000Z</time>
      </trkpt>
      <trkpt lat="47.72435" lon="-3.45083">
        <ele>47.4</ele>
        <time>2021-11-16T11:31:45.000Z</time>
      </trkpt>
      <trkpt lat="47.72434" lon="-3.45059">
        <ele>45.3</ele>
        <time>2021-11-16T11:31:48.000Z</time>
      </trkpt>
      <trkpt lat="47.72434" lon="-3.45032">
        <ele>44.2</ele>
        <time>2021-11-16T11:31:51.000Z</time>
      </trkpt>
      <trkpt lat="47.72435" lon="-3.45003">
        <ele>44.6</ele>
        <time>2021-11-16T11:31:54.000Z</time>
      </trkpt>
      <trkpt lat="47.72444" lon="-3.44984">
        <ele>44.4</ele>
        <time>2021-11-16T11:31:57.000Z</time>
      </trkpt>
      <trkpt lat="47.72454" lon="-3.44964">
        <ele>44</ele>
        <time>2021-11-16T11:32:00.000Z</time>
      </trkpt>
      <trkpt lat="47.72459" lon="-3.44941">
        <ele>47</ele>
        <time>2021-11-16T11:32:03.000Z</time>
      </trkpt>
      <trkpt lat="47.72465" lon="-3.4492">
        <ele>44.7</ele>
        <time>2021-11-16T11:32:06.000Z</time>
      </trkpt>
      <trkpt lat="47.72471" lon="-3.44902">
        <ele>46.6</ele>
        <time>2021-11-16T11:32:09.000Z</time>
      </trkpt>
      <trkpt lat="47.72477" lon="-3.44886">
        <ele>46.8</ele>
        <time>2021-11-16T11:32:12.000Z</time>
      </trkpt>
      <trkpt lat="47.72482" lon="-3.44871">
        <ele>47.4</ele>
        <time>2021-11-16T11:32:15.000Z</time>
      </trkpt>
      <trkpt lat="47.72487" lon="-3.44857">
        <ele>49.3</ele>
        <time>2021-11-16T11:32:18.000Z</time>
      </trkpt>
      <trkpt lat="47.72492" lon="-3.4484">
        <ele>47</ele>
        <time>2021-11-16T11:32:21.000Z</time>
      </trkpt>
      <trkpt lat="47.72498" lon="-3.44825">
        <ele>48.3</ele>
        <time>2021-11-16T11:32:24.000Z</time>
      </trkpt>
      <trkpt lat="47.72506" lon="-3.44815">
        <ele>51</ele>
        <time>2021-11-16T11:32:27.000Z</time>
      </trkpt>
      <trkpt lat="47.72516" lon="-3.4481">
        <ele>49.8</ele>
        <time>2021-11-16T11:32:30.000Z</time>
      </trkpt>
      <trkpt lat="47.72524" lon="-3.44803">
        <ele>51.1</ele>
        <time>2021-11-16T11:32:33.000Z</time>
      </trkpt>
      <trkpt lat="47.72528" lon="-3.44788">
        <ele>51.5</ele>
        <time>2021-11-16T11:32:36.000Z</time>
      </trkpt>
      <trkpt lat="47.72532" lon="-3.44771">
        <ele>51</ele>
        <time>2021-11-16T11:32:39.000Z</time>
      </trkpt>
      <trkpt lat="47.72537" lon="-3.44757">
        <ele>52.2</ele>
        <time>2021-11-16T11:32:42.000Z</time>
      </trkpt>
      <trkpt lat="47.72536" lon="-3.44742">
        <ele>51.6</ele>
        <time>2021-11-16T11:32:45.000Z</time>
      </trkpt>
      <trkpt lat="47.72525" lon="-3.44737">
        <ele>52</ele>
        <time>2021-11-16T11:32:48.000Z</time>
      </trkpt>
      <trkpt lat="47.72511" lon="-3.44735">
        <ele>52.1</ele>
        <time>2021-11-16T11:32:51.000Z</time>
      </trkpt>
      <trkpt lat="47.72499" lon="-3.44733">
        <ele>52.9</ele>
        <time>2021-11-16T11:32:54.000Z</time>
      </trkpt>
      <trkpt lat="47.72487" lon="-3.44734">
        <ele>51</ele>
        <time>2021-11-16T11:32:57.000Z</time>
      </trkpt>
      <trkpt lat="47.72475" lon="-3.44737">
        <ele>52</ele>
        <time>2021-11-16T11:33:00.000Z</time>
      </trkpt>
      <trkpt lat="47.72464" lon="-3.4474">
        <ele>54.3</ele>
        <time>2021-11-16T11:33:03.000Z</time>
      </trkpt>
      <trkpt lat="47.72454" lon="-3.44734">
        <ele>52.7</ele>
        <time>2021-11-16T11:33:06.000Z</time>
      </trkpt>
      <trkpt lat="47.72448" lon="-3.44724">
        <ele>54.4</ele>
        <time>2021-11-16T11:33:09.000Z</time>
      </trkpt>
      <trkpt lat="47.72444" lon="-3.44715">
        <ele>54.6</ele>
        <time>2021-11-16T11:33:12.000Z</time>
      </trkpt>
      <trkpt lat="47.72437" lon="-3.447">
        <ele>55.5</ele>
        <time>2021-11-16T11:33:15.000Z</time>
      </trkpt>
      <trkpt lat="47.72432" lon="-3.44685">
        <ele>53.6</ele>
        <time>2021-11-16T11:33:18.000Z</time>
      </trkpt>
      <trkpt lat="47.72423" lon="-3.44674">
        <ele>55</ele>
        <time>2021-11-16T11:33:21.000Z</time>
      </trkpt>
      <trkpt lat="47.72415" lon="-3.44666">
        <ele>55.2</ele>
        <time>2021-11-16T11:33:24.000Z</time>
      </trkpt>
      <trkpt lat="47.72408" lon="-3.44654">
        <ele>53.8</ele>
        <time>2021-11-16T11:33:27.000Z</time>
      </trkpt>
      <trkpt lat="47.72411" lon="-3.44636">
        <ele>54.6</ele>
        <time>2021-11-16T11:33:30.000Z</time>
      </trkpt>
      <trkpt lat="47.72414" lon="-3.44625">
        <ele>55.5</ele>
        <time>2021-11-16T11:33:33.000Z</time>
      </trkpt>
      <trkpt lat="47.72414" lon="-3.44625">
        <ele>55.5</ele>
        <time>2021-11-16T11:33:34.000Z</time>
      </trkpt>
      <trkpt lat="47.72414" lon="-3.44625">
        <ele>55.8</ele>
        <time>2021-11-16T11:33:37.000Z</time>
      </trkpt>
      <trkpt lat="47.72414" lon="-3.44625">
        <ele>55.7</ele>
        <time>2021-11-16T11:33:40.000Z</time>
      </trkpt>
      <trkpt lat="47.72414" lon="-3.44625">
        <ele>55.8</ele>
        <time>2021-11-16T11:33:43.000Z</time>
      </trkpt>
      <trkpt lat="47.72414" lon="-3.44625">
        <ele>55.8</ele>
        <time>2021-11-16T11:33:46.000Z</time>
      </trkpt>
      <trkpt lat="47.72414" lon="-3.44625">
        <ele>55.7</ele>
        <time>2021-11-16T11:33:49.000Z</time>
      </trkpt>
      <trkpt lat="47.72414" lon="-3.44624">
        <ele>55.6</ele>
        <time>2021-11-16T11:33:52.000Z</time>
      </trkpt>
      <trkpt lat="47.72415" lon="-3.44617">
        <ele>55.9</ele>
        <time>2021-11-16T11:33:55.000Z</time>
      </trkpt>
      <trkpt lat="47.72419" lon="-3.44604">
        <ele>54.8</ele>
        <time>2021-11-16T11:33:58.000Z</time>
      </trkpt>
      <trkpt lat="47.72425" lon="-3.44586">
        <ele>54</ele>
        <time>2021-11-16T11:34:01.000Z</time>
      </trkpt>
      <trkpt lat="47.72431" lon="-3.44564">
        <ele>54.7</ele>
        <time>2021-11-16T11:34:04.000Z</time>
      </trkpt>
      <trkpt lat="47.72437" lon="-3.4454">
        <ele>53.9</ele>
        <time>2021-11-16T11:34:07.000Z</time>
      </trkpt>
      <trkpt lat="47.7244" lon="-3.44517">
        <ele>51.4</ele>
        <time>2021-11-16T11:34:10.000Z</time>
      </trkpt>
      <trkpt lat="47.72429" lon="-3.44503">
        <ele>50.3</ele>
        <time>2021-11-16T11:34:13.000Z</time>
      </trkpt>
      <trkpt lat="47.72414" lon="-3.44495">
        <ele>52.4</ele>
        <time>2021-11-16T11:34:16.000Z</time>
      </trkpt>
      <trkpt lat="47.72399" lon="-3.44486">
        <ele>50.7</ele>
        <time>2021-11-16T11:34:19.000Z</time>
      </trkpt>
      <trkpt lat="47.72384" lon="-3.44477">
        <ele>48.9</ele>
        <time>2021-11-16T11:34:22.000Z</time>
      </trkpt>
      <trkpt lat="47.72367" lon="-3.44471">
        <ele>49.7</ele>
        <time>2021-11-16T11:34:25.000Z</time>
      </trkpt>
      <trkpt lat="47.72351" lon="-3.44466">
        <ele>50.1</ele>
        <time>2021-11-16T11:34:28.000Z</time>
      </trkpt>
      <trkpt lat="47.72334" lon="-3.44463">
        <ele>48.6</ele>
        <time>2021-11-16T11:34:31.000Z</time>
      </trkpt>
      <trkpt lat="47.72318" lon="-3.4446">
        <ele>50.7</ele>
        <time>2021-11-16T11:34:34.000Z</time>
      </trkpt>
      <trkpt lat="47.72303" lon="-3.44458">
        <ele>51.2</ele>
        <time>2021-11-16T11:34:37.000Z</time>
      </trkpt>
      <trkpt lat="47.72289" lon="-3.44458">
        <ele>48.4</ele>
        <time>2021-11-16T11:34:40.000Z</time>
      </trkpt>
      <trkpt lat="47.72278" lon="-3.44458">
        <ele>47.6</ele>
        <time>2021-11-16T11:34:43.000Z</time>
      </trkpt>
      <trkpt lat="47.72267" lon="-3.44458">
        <ele>51.1</ele>
        <time>2021-11-16T11:34:46.000Z</time>
      </trkpt>
      <trkpt lat="47.72256" lon="-3.44455">
        <ele>51.6</ele>
        <time>2021-11-16T11:34:49.000Z</time>
      </trkpt>
      <trkpt lat="47.72244" lon="-3.44451">
        <ele>51.7</ele>
        <time>2021-11-16T11:34:52.000Z</time>
      </trkpt>
      <trkpt lat="47.72231" lon="-3.44447">
        <ele>50.2</ele>
        <time>2021-11-16T11:34:55.000Z</time>
      </trkpt>
      <trkpt lat="47.72218" lon="-3.44443">
        <ele>53.4</ele>
        <time>2021-11-16T11:34:58.000Z</time>
      </trkpt>
      <trkpt lat="47.72205" lon="-3.44437">
        <ele>51.4</ele>
        <time>2021-11-16T11:35:01.000Z</time>
      </trkpt>
      <trkpt lat="47.72193" lon="-3.44429">
        <ele>53.6</ele>
        <time>2021-11-16T11:35:04.000Z</time>
      </trkpt>
      <trkpt lat="47.72183" lon="-3.4442">
        <ele>52.3</ele>
        <time>2021-11-16T11:35:07.000Z</time>
      </trkpt>
      <trkpt lat="47.72175" lon="-3.44411">
        <ele>52.3</ele>
        <time>2021-11-16T11:35:10.000Z</time>
      </trkpt>
      <trkpt lat="47.7217" lon="-3.44404">
        <ele>51.8</ele>
        <time>2021-11-16T11:35:13.000Z</time>
      </trkpt>
      <trkpt lat="47.72161" lon="-3.44395">
        <ele>52.6</ele>
        <time>2021-11-16T11:35:16.000Z</time>
      </trkpt>
      <trkpt lat="47.72149" lon="-3.4439">
        <ele>52.6</ele>
        <time>2021-11-16T11:35:19.000Z</time>
      </trkpt>
      <trkpt lat="47.72136" lon="-3.44386">
        <ele>52.9</ele>
        <time>2021-11-16T11:35:22.000Z</time>
      </trkpt>
      <trkpt lat="47.72121" lon="-3.4438">
        <ele>51.4</ele>
        <time>2021-11-16T11:35:25.000Z</time>
      </trkpt>
      <trkpt lat="47.72106" lon="-3.44374">
        <ele>50.7</ele>
        <time>2021-11-16T11:35:28.000Z</time>
      </trkpt>
      <trkpt lat="47.72091" lon="-3.44368">
        <ele>51.2</ele>
        <time>2021-11-16T11:35:31.000Z</time>
      </trkpt>
      <trkpt lat="47.72078" lon="-3.44361">
        <ele>49.8</ele>
        <time>2021-11-16T11:35:34.000Z</time>
      </trkpt>
      <trkpt lat="47.72064" lon="-3.44355">
        <ele>49.4</ele>
        <time>2021-11-16T11:35:37.000Z</time>
      </trkpt>
      <trkpt lat="47.72059" lon="-3.44338">
        <ele>49.6</ele>
        <time>2021-11-16T11:35:40.000Z</time>
      </trkpt>
      <trkpt lat="47.72063" lon="-3.44316">
        <ele>54.1</ele>
        <time>2021-11-16T11:35:43.000Z</time>
      </trkpt>
      <trkpt lat="47.72068" lon="-3.44291">
        <ele>50</ele>
        <time>2021-11-16T11:35:46.000Z</time>
      </trkpt>
      <trkpt lat="47.72071" lon="-3.44265">
        <ele>48.1</ele>
        <time>2021-11-16T11:35:49.000Z</time>
      </trkpt>
      <trkpt lat="47.72076" lon="-3.44238">
        <ele>47.9</ele>
        <time>2021-11-16T11:35:52.000Z</time>
      </trkpt>
      <trkpt lat="47.7208" lon="-3.44209">
        <ele>45.8</ele>
        <time>2021-11-16T11:35:55.000Z</time>
      </trkpt>
      <trkpt lat="47.72081" lon="-3.44179">
        <ele>47</ele>
        <time>2021-11-16T11:35:58.000Z</time>
      </trkpt>
      <trkpt lat="47.7208" lon="-3.44147">
        <ele>45.9</ele>
        <time>2021-11-16T11:36:01.000Z</time>
      </trkpt>
      <trkpt lat="47.7208" lon="-3.44115">
        <ele>45.1</ele>
        <time>2021-11-16T11:36:04.000Z</time>
      </trkpt>
      <trkpt lat="47.72081" lon="-3.44083">
        <ele>45.9</ele>
        <time>2021-11-16T11:36:07.000Z</time>
      </trkpt>
      <trkpt lat="47.72082" lon="-3.44053">
        <ele>52.8</ele>
        <time>2021-11-16T11:36:10.000Z</time>
      </trkpt>
      <trkpt lat="47.72082" lon="-3.44024">
        <ele>43.6</ele>
        <time>2021-11-16T11:36:13.000Z</time>
      </trkpt>
      <trkpt lat="47.72079" lon="-3.43998">
        <ele>52.9</ele>
        <time>2021-11-16T11:36:16.000Z</time>
      </trkpt>
      <trkpt lat="47.72076" lon="-3.43972">
        <ele>44.1</ele>
        <time>2021-11-16T11:36:19.000Z</time>
      </trkpt>
      <trkpt lat="47.72073" lon="-3.43947">
        <ele>46.3</ele>
        <time>2021-11-16T11:36:22.000Z</time>
      </trkpt>
      <trkpt lat="47.72072" lon="-3.43922">
        <ele>41.9</ele>
        <time>2021-11-16T11:36:25.000Z</time>
      </trkpt>
      <trkpt lat="47.72071" lon="-3.43899">
        <ele>43.1</ele>
        <time>2021-11-16T11:36:28.000Z</time>
      </trkpt>
      <trkpt lat="47.72076" lon="-3.43883">
        <ele>44.2</ele>
        <time>2021-11-16T11:36:31.000Z</time>
      </trkpt>
      <trkpt lat="47.72087" lon="-3.43874">
        <ele>44.1</ele>
        <time>2021-11-16T11:36:34.000Z</time>
      </trkpt>
      <trkpt lat="47.721" lon="-3.43866">
        <ele>43.1</ele>
        <time>2021-11-16T11:36:37.000Z</time>
      </trkpt>
      <trkpt lat="47.72116" lon="-3.43857">
        <ele>44.7</ele>
        <time>2021-11-16T11:36:40.000Z</time>
      </trkpt>
      <trkpt lat="47.72128" lon="-3.43848">
        <ele>42</ele>
        <time>2021-11-16T11:36:43.000Z</time>
      </trkpt>
      <trkpt lat="47.72135" lon="-3.4383">
        <ele>39.3</ele>
        <time>2021-11-16T11:36:46.000Z</time>
      </trkpt>
      <trkpt lat="47.72144" lon="-3.43811">
        <ele>42.4</ele>
        <time>2021-11-16T11:36:49.000Z</time>
      </trkpt>
      <trkpt lat="47.72152" lon="-3.4379">
        <ele>42.6</ele>
        <time>2021-11-16T11:36:52.000Z</time>
      </trkpt>
      <trkpt lat="47.72161" lon="-3.43772">
        <ele>41.5</ele>
        <time>2021-11-16T11:36:55.000Z</time>
      </trkpt>
      <trkpt lat="47.72171" lon="-3.43753">
        <ele>41.2</ele>
        <time>2021-11-16T11:36:58.000Z</time>
      </trkpt>
      <trkpt lat="47.72186" lon="-3.43738">
        <ele>43.2</ele>
        <time>2021-11-16T11:37:01.000Z</time>
      </trkpt>
      <trkpt lat="47.72199" lon="-3.4372">
        <ele>43.7</ele>
        <time>2021-11-16T11:37:04.000Z</time>
      </trkpt>
      <trkpt lat="47.72209" lon="-3.437">
        <ele>41.4</ele>
        <time>2021-11-16T11:37:07.000Z</time>
      </trkpt>
      <trkpt lat="47.72218" lon="-3.43677">
        <ele>40</ele>
        <time>2021-11-16T11:37:10.000Z</time>
      </trkpt>
      <trkpt lat="47.72226" lon="-3.43656">
        <ele>40.9</ele>
        <time>2021-11-16T11:37:13.000Z</time>
      </trkpt>
      <trkpt lat="47.72232" lon="-3.43633">
        <ele>38.7</ele>
        <time>2021-11-16T11:37:16.000Z</time>
      </trkpt>
      <trkpt lat="47.72238" lon="-3.43608">
        <ele>41.6</ele>
        <time>2021-11-16T11:37:19.000Z</time>
      </trkpt>
      <trkpt lat="47.72242" lon="-3.43584">
        <ele>41</ele>
        <time>2021-11-16T11:37:22.000Z</time>
      </trkpt>
      <trkpt lat="47.72244" lon="-3.43558">
        <ele>40.2</ele>
        <time>2021-11-16T11:37:25.000Z</time>
      </trkpt>
      <trkpt lat="47.72249" lon="-3.43533">
        <ele>40.2</ele>
        <time>2021-11-16T11:37:28.000Z</time>
      </trkpt>
      <trkpt lat="47.72255" lon="-3.43508">
        <ele>39.9</ele>
        <time>2021-11-16T11:37:31.000Z</time>
      </trkpt>
      <trkpt lat="47.72265" lon="-3.43485">
        <ele>41.5</ele>
        <time>2021-11-16T11:37:34.000Z</time>
      </trkpt>
      <trkpt lat="47.72275" lon="-3.43468">
        <ele>40.9</ele>
        <time>2021-11-16T11:37:37.000Z</time>
      </trkpt>
      <trkpt lat="47.72281" lon="-3.4346">
        <ele>41.1</ele>
        <time>2021-11-16T11:37:40.000Z</time>
      </trkpt>
      <trkpt lat="47.72289" lon="-3.43462">
        <ele>41.2</ele>
        <time>2021-11-16T11:37:43.000Z</time>
      </trkpt>
      <trkpt lat="47.72299" lon="-3.43465">
        <ele>41.5</ele>
        <time>2021-11-16T11:37:46.000Z</time>
      </trkpt>
      <trkpt lat="47.72311" lon="-3.43458">
        <ele>40.3</ele>
        <time>2021-11-16T11:37:49.000Z</time>
      </trkpt>
      <trkpt lat="47.7232" lon="-3.43439">
        <ele>38.8</ele>
        <time>2021-11-16T11:37:52.000Z</time>
      </trkpt>
      <trkpt lat="47.72324" lon="-3.43414">
        <ele>39.4</ele>
        <time>2021-11-16T11:37:55.000Z</time>
      </trkpt>
      <trkpt lat="47.72326" lon="-3.43386">
        <ele>40.4</ele>
        <time>2021-11-16T11:37:58.000Z</time>
      </trkpt>
      <trkpt lat="47.72332" lon="-3.4337">
        <ele>26.4</ele>
      </trkpt>
      <trkpt lat="47.72333" lon="-3.43365">
        <ele>38.6</ele>
        <time>2021-11-16T11:38:37.000Z</time>
      </trkpt>
      <trkpt lat="47.72333" lon="-3.43365">
        <ele>38.6</ele>
        <time>2021-11-16T11:38:37.000Z</time>
      </trkpt>
      <trkpt lat="47.72333" lon="-3.43343">
        <ele>38.9</ele>
        <time>2021-11-16T11:38:40.000Z</time>
      </trkpt>
      <trkpt lat="47.72329" lon="-3.4332">
        <ele>39.5</ele>
        <time>2021-11-16T11:38:43.000Z</time>
      </trkpt>
      <trkpt lat="47.72324" lon="-3.43299">
        <ele>36.8</ele>
        <time>2021-11-16T11:38:46.000Z</time>
      </trkpt>
      <trkpt lat="47.72318" lon="-3.43276">
        <ele>36.5</ele>
        <time>2021-11-16T11:38:49.000Z</time>
      </trkpt>
      <trkpt lat="47.72312" lon="-3.43254">
        <ele>40.8</ele>
        <time>2021-11-16T11:38:52.000Z</time>
      </trkpt>
      <trkpt lat="47.72305" lon="-3.43229">
        <ele>37.2</ele>
        <time>2021-11-16T11:38:55.000Z</time>
      </trkpt>
      <trkpt lat="47.72296" lon="-3.43207">
        <ele>37.5</ele>
        <time>2021-11-16T11:38:58.000Z</time>
      </trkpt>
      <trkpt lat="47.72295" lon="-3.43192">
        <ele>37.1</ele>
        <time>2021-11-16T11:39:01.000Z</time>
      </trkpt>
      <trkpt lat="47.72299" lon="-3.43183">
        <ele>34</ele>
        <time>2021-11-16T11:39:04.000Z</time>
      </trkpt>
      <trkpt lat="47.72304" lon="-3.43178">
        <ele>35.7</ele>
        <time>2021-11-16T11:39:07.000Z</time>
      </trkpt>
      <trkpt lat="47.7231" lon="-3.43179">
        <ele>35</ele>
        <time>2021-11-16T11:39:10.000Z</time>
      </trkpt>
      <trkpt lat="47.72317" lon="-3.43184">
        <ele>36.2</ele>
        <time>2021-11-16T11:39:13.000Z</time>
      </trkpt>
      <trkpt lat="47.72325" lon="-3.4319">
        <ele>35.8</ele>
        <time>2021-11-16T11:39:16.000Z</time>
      </trkpt>
      <trkpt lat="47.72332" lon="-3.43194">
        <ele>36.6</ele>
        <time>2021-11-16T11:39:19.000Z</time>
      </trkpt>
      <trkpt lat="47.72337" lon="-3.43192">
        <ele>37.2</ele>
        <time>2021-11-16T11:39:22.000Z</time>
      </trkpt>
      <trkpt lat="47.72343" lon="-3.43187">
        <ele>38.6</ele>
        <time>2021-11-16T11:39:25.000Z</time>
      </trkpt>
      <trkpt lat="47.72349" lon="-3.43181">
        <ele>38.9</ele>
        <time>2021-11-16T11:39:28.000Z</time>
      </trkpt>
      <trkpt lat="47.72355" lon="-3.43174">
        <ele>38.7</ele>
        <time>2021-11-16T11:39:31.000Z</time>
      </trkpt>
      <trkpt lat="47.72363" lon="-3.43171">
        <ele>40.3</ele>
        <time>2021-11-16T11:39:34.000Z</time>
      </trkpt>
      <trkpt lat="47.7237" lon="-3.43177">
        <ele>41.2</ele>
        <time>2021-11-16T11:39:37.000Z</time>
      </trkpt>
      <trkpt lat="47.72378" lon="-3.43185">
        <ele>41.4</ele>
        <time>2021-11-16T11:39:40.000Z</time>
      </trkpt>
      <trkpt lat="47.72389" lon="-3.43193">
        <ele>41.4</ele>
        <time>2021-11-16T11:39:43.000Z</time>
      </trkpt>
      <trkpt lat="47.72399" lon="-3.43201">
        <ele>39.4</ele>
        <time>2021-11-16T11:39:46.000Z</time>
      </trkpt>
      <trkpt lat="47.7241" lon="-3.43207">
        <ele>39.5</ele>
        <time>2021-11-16T11:39:49.000Z</time>
      </trkpt>
      <trkpt lat="47.72423" lon="-3.43211">
        <ele>40.6</ele>
        <time>2021-11-16T11:39:52.000Z</time>
      </trkpt>
      <trkpt lat="47.72435" lon="-3.4321">
        <ele>38.3</ele>
        <time>2021-11-16T11:39:55.000Z</time>
      </trkpt>
      <trkpt lat="47.72447" lon="-3.43209">
        <ele>39.5</ele>
        <time>2021-11-16T11:39:58.000Z</time>
      </trkpt>
      <trkpt lat="47.72459" lon="-3.43209">
        <ele>40</ele>
        <time>2021-11-16T11:40:01.000Z</time>
      </trkpt>
      <trkpt lat="47.72471" lon="-3.43208">
        <ele>40.4</ele>
        <time>2021-11-16T11:40:04.000Z</time>
      </trkpt>
      <trkpt lat="47.72482" lon="-3.43206">
        <ele>39.4</ele>
        <time>2021-11-16T11:40:07.000Z</time>
      </trkpt>
      <trkpt lat="47.72487" lon="-3.43198">
        <ele>40.4</ele>
        <time>2021-11-16T11:40:10.000Z</time>
      </trkpt>
      <trkpt lat="47.72484" lon="-3.43183">
        <ele>39.6</ele>
        <time>2021-11-16T11:40:13.000Z</time>
      </trkpt>
      <trkpt lat="47.72481" lon="-3.43168">
        <ele>42</ele>
        <time>2021-11-16T11:40:16.000Z</time>
      </trkpt>
      <trkpt lat="47.72482" lon="-3.43152">
        <ele>43.1</ele>
        <time>2021-11-16T11:40:19.000Z</time>
      </trkpt>
      <trkpt lat="47.72484" lon="-3.43136">
        <ele>40.4</ele>
        <time>2021-11-16T11:40:22.000Z</time>
      </trkpt>
      <trkpt lat="47.72485" lon="-3.43122">
        <ele>40.7</ele>
        <time>2021-11-16T11:40:25.000Z</time>
      </trkpt>
      <trkpt lat="47.72487" lon="-3.4311">
        <ele>41.7</ele>
        <time>2021-11-16T11:40:28.000Z</time>
      </trkpt>
      <trkpt lat="47.72488" lon="-3.43097">
        <ele>45.1</ele>
        <time>2021-11-16T11:40:31.000Z</time>
      </trkpt>
      <trkpt lat="47.72489" lon="-3.43083">
        <ele>43.9</ele>
        <time>2021-11-16T11:40:34.000Z</time>
      </trkpt>
      <trkpt lat="47.7249" lon="-3.43068">
        <ele>42.8</ele>
        <time>2021-11-16T11:40:37.000Z</time>
      </trkpt>
      <trkpt lat="47.72491" lon="-3.43053">
        <ele>42.9</ele>
        <time>2021-11-16T11:40:40.000Z</time>
      </trkpt>
      <trkpt lat="47.7249" lon="-3.43038">
        <ele>43.5</ele>
        <time>2021-11-16T11:40:43.000Z</time>
      </trkpt>
      <trkpt lat="47.72491" lon="-3.43021">
        <ele>42.6</ele>
        <time>2021-11-16T11:40:46.000Z</time>
      </trkpt>
      <trkpt lat="47.72491" lon="-3.43004">
        <ele>42.8</ele>
        <time>2021-11-16T11:40:49.000Z</time>
      </trkpt>
      <trkpt lat="47.7249" lon="-3.42984">
        <ele>45.7</ele>
        <time>2021-11-16T11:40:52.000Z</time>
      </trkpt>
      <trkpt lat="47.72487" lon="-3.42965">
        <ele>40.5</ele>
        <time>2021-11-16T11:40:55.000Z</time>
      </trkpt>
      <trkpt lat="47.72482" lon="-3.42945">
        <ele>40.6</ele>
        <time>2021-11-16T11:40:58.000Z</time>
      </trkpt>
      <trkpt lat="47.72475" lon="-3.42925">
        <ele>40.6</ele>
        <time>2021-11-16T11:41:01.000Z</time>
      </trkpt>
      <trkpt lat="47.72466" lon="-3.42908">
        <ele>39</ele>
        <time>2021-11-16T11:41:04.000Z</time>
      </trkpt>
      <trkpt lat="47.72457" lon="-3.42887">
        <ele>41.8</ele>
        <time>2021-11-16T11:41:07.000Z</time>
      </trkpt>
      <trkpt lat="47.72451" lon="-3.42869">
        <ele>42</ele>
        <time>2021-11-16T11:41:10.000Z</time>
      </trkpt>
      <trkpt lat="47.72453" lon="-3.42853">
        <ele>42.3</ele>
        <time>2021-11-16T11:41:13.000Z</time>
      </trkpt>
      <trkpt lat="47.72463" lon="-3.42844">
        <ele>41.2</ele>
        <time>2021-11-16T11:41:16.000Z</time>
      </trkpt>
      <trkpt lat="47.72472" lon="-3.42836">
        <ele>40.1</ele>
        <time>2021-11-16T11:41:19.000Z</time>
      </trkpt>
      <trkpt lat="47.72483" lon="-3.42825">
        <ele>41</ele>
        <time>2021-11-16T11:41:22.000Z</time>
      </trkpt>
      <trkpt lat="47.72495" lon="-3.42814">
        <ele>43.1</ele>
        <time>2021-11-16T11:41:25.000Z</time>
      </trkpt>
      <trkpt lat="47.72506" lon="-3.42803">
        <ele>41.4</ele>
        <time>2021-11-16T11:41:28.000Z</time>
      </trkpt>
      <trkpt lat="47.72512" lon="-3.42787">
        <ele>42.5</ele>
        <time>2021-11-16T11:41:31.000Z</time>
      </trkpt>
      <trkpt lat="47.72511" lon="-3.4277">
        <ele>42.3</ele>
        <time>2021-11-16T11:41:34.000Z</time>
      </trkpt>
      <trkpt lat="47.72508" lon="-3.4275">
        <ele>42.1</ele>
        <time>2021-11-16T11:41:37.000Z</time>
      </trkpt>
      <trkpt lat="47.72503" lon="-3.42729">
        <ele>42.2</ele>
        <time>2021-11-16T11:41:40.000Z</time>
      </trkpt>
      <trkpt lat="47.72498" lon="-3.42709">
        <ele>43.3</ele>
        <time>2021-11-16T11:41:43.000Z</time>
      </trkpt>
      <trkpt lat="47.7249" lon="-3.42696">
        <ele>43.9</ele>
        <time>2021-11-16T11:41:46.000Z</time>
      </trkpt>
      <trkpt lat="47.72477" lon="-3.42699">
        <ele>40.8</ele>
        <time>2021-11-16T11:41:49.000Z</time>
      </trkpt>
      <trkpt lat="47.72462" lon="-3.42703">
        <ele>40.9</ele>
        <time>2021-11-16T11:41:52.000Z</time>
      </trkpt>
      <trkpt lat="47.72446" lon="-3.42707">
        <ele>41.6</ele>
        <time>2021-11-16T11:41:55.000Z</time>
      </trkpt>
      <trkpt lat="47.72428" lon="-3.42712">
        <ele>40.8</ele>
        <time>2021-11-16T11:41:58.000Z</time>
      </trkpt>
      <trkpt lat="47.7241" lon="-3.42715">
        <ele>41.4</ele>
        <time>2021-11-16T11:42:01.000Z</time>
      </trkpt>
      <trkpt lat="47.72391" lon="-3.4272">
        <ele>40.5</ele>
        <time>2021-11-16T11:42:04.000Z</time>
      </trkpt>
      <trkpt lat="47.72373" lon="-3.42723">
        <ele>42.2</ele>
        <time>2021-11-16T11:42:07.000Z</time>
      </trkpt>
      <trkpt lat="47.72355" lon="-3.42726">
        <ele>40.5</ele>
        <time>2021-11-16T11:42:10.000Z</time>
      </trkpt>
      <trkpt lat="47.72337" lon="-3.42725">
        <ele>39.8</ele>
        <time>2021-11-16T11:42:13.000Z</time>
      </trkpt>
      <trkpt lat="47.72318" lon="-3.42723">
        <ele>40</ele>
        <time>2021-11-16T11:42:16.000Z</time>
      </trkpt>
      <trkpt lat="47.72299" lon="-3.42717">
        <ele>37.8</ele>
        <time>2021-11-16T11:42:19.000Z</time>
      </trkpt>
      <trkpt lat="47.72281" lon="-3.4271">
        <ele>40.3</ele>
        <time>2021-11-16T11:42:22.000Z</time>
      </trkpt>
      <trkpt lat="47.72263" lon="-3.42705">
        <ele>39.5</ele>
        <time>2021-11-16T11:42:25.000Z</time>
      </trkpt>
      <trkpt lat="47.72245" lon="-3.42699">
        <ele>37.5</ele>
        <time>2021-11-16T11:42:28.000Z</time>
      </trkpt>
      <trkpt lat="47.72225" lon="-3.42695">
        <ele>37.4</ele>
        <time>2021-11-16T11:42:31.000Z</time>
      </trkpt>
      <trkpt lat="47.72204" lon="-3.42686">
        <ele>37.4</ele>
        <time>2021-11-16T11:42:34.000Z</time>
      </trkpt>
      <trkpt lat="47.72187" lon="-3.42667">
        <ele>35.7</ele>
        <time>2021-11-16T11:42:37.000Z</time>
      </trkpt>
      <trkpt lat="47.72171" lon="-3.42652">
        <ele>36.5</ele>
        <time>2021-11-16T11:42:40.000Z</time>
      </trkpt>
      <trkpt lat="47.72154" lon="-3.42644">
        <ele>35.8</ele>
        <time>2021-11-16T11:42:43.000Z</time>
      </trkpt>
      <trkpt lat="47.72134" lon="-3.42634">
        <ele>34.2</ele>
        <time>2021-11-16T11:42:46.000Z</time>
      </trkpt>
      <trkpt lat="47.72113" lon="-3.42625">
        <ele>34.7</ele>
        <time>2021-11-16T11:42:49.000Z</time>
      </trkpt>
      <trkpt lat="47.72091" lon="-3.42616">
        <ele>34.1</ele>
        <time>2021-11-16T11:42:52.000Z</time>
      </trkpt>
      <trkpt lat="47.72068" lon="-3.42604">
        <ele>34.1</ele>
        <time>2021-11-16T11:42:55.000Z</time>
      </trkpt>
      <trkpt lat="47.72047" lon="-3.42593">
        <ele>35.2</ele>
        <time>2021-11-16T11:42:58.000Z</time>
      </trkpt>
      <trkpt lat="47.72024" lon="-3.42582">
        <ele>29.9</ele>
        <time>2021-11-16T11:43:01.000Z</time>
      </trkpt>
      <trkpt lat="47.72002" lon="-3.42569">
        <ele>28.7</ele>
        <time>2021-11-16T11:43:04.000Z</time>
      </trkpt>
      <trkpt lat="47.71981" lon="-3.42549">
        <ele>27.7</ele>
        <time>2021-11-16T11:43:07.000Z</time>
      </trkpt>
      <trkpt lat="47.71959" lon="-3.42526">
        <ele>27.3</ele>
        <time>2021-11-16T11:43:10.000Z</time>
      </trkpt>
      <trkpt lat="47.71936" lon="-3.42502">
        <ele>23.6</ele>
        <time>2021-11-16T11:43:13.000Z</time>
      </trkpt>
      <trkpt lat="47.71913" lon="-3.42481">
        <ele>24.1</ele>
        <time>2021-11-16T11:43:16.000Z</time>
      </trkpt>
      <trkpt lat="47.71891" lon="-3.42471">
        <ele>26.9</ele>
        <time>2021-11-16T11:43:19.000Z</time>
      </trkpt>
      <trkpt lat="47.71872" lon="-3.42464">
        <ele>25.9</ele>
        <time>2021-11-16T11:43:22.000Z</time>
      </trkpt>
      <trkpt lat="47.71859" lon="-3.42471">
        <ele>27.6</ele>
        <time>2021-11-16T11:43:25.000Z</time>
      </trkpt>
      <trkpt lat="47.71855" lon="-3.42489">
        <ele>27.6</ele>
        <time>2021-11-16T11:43:28.000Z</time>
      </trkpt>
      <trkpt lat="47.7185" lon="-3.42506">
        <ele>27.8</ele>
        <time>2021-11-16T11:43:31.000Z</time>
      </trkpt>
      <trkpt lat="47.71845" lon="-3.42524">
        <ele>27.7</ele>
        <time>2021-11-16T11:43:34.000Z</time>
      </trkpt>
      <trkpt lat="47.71842" lon="-3.42543">
        <ele>28.2</ele>
        <time>2021-11-16T11:43:37.000Z</time>
      </trkpt>
      <trkpt lat="47.71844" lon="-3.42566">
        <ele>26.8</ele>
        <time>2021-11-16T11:43:40.000Z</time>
      </trkpt>
      <trkpt lat="47.71842" lon="-3.42584">
        <ele>26.1</ele>
        <time>2021-11-16T11:43:43.000Z</time>
      </trkpt>
      <trkpt lat="47.71835" lon="-3.42584">
        <ele>24.9</ele>
        <time>2021-11-16T11:43:46.000Z</time>
      </trkpt>
      <trkpt lat="47.71827" lon="-3.42584">
        <ele>25.9</ele>
        <time>2021-11-16T11:43:49.000Z</time>
      </trkpt>
      <trkpt lat="47.7182" lon="-3.42594">
        <ele>26.6</ele>
        <time>2021-11-16T11:43:52.000Z</time>
      </trkpt>
      <trkpt lat="47.71813" lon="-3.42607">
        <ele>26.3</ele>
        <time>2021-11-16T11:43:55.000Z</time>
      </trkpt>
      <trkpt lat="47.71803" lon="-3.42623">
        <ele>25.8</ele>
        <time>2021-11-16T11:43:58.000Z</time>
      </trkpt>
      <trkpt lat="47.71792" lon="-3.42636">
        <ele>23.4</ele>
        <time>2021-11-16T11:44:01.000Z</time>
      </trkpt>
      <trkpt lat="47.7178" lon="-3.42651">
        <ele>25.2</ele>
        <time>2021-11-16T11:44:04.000Z</time>
      </trkpt>
      <trkpt lat="47.71767" lon="-3.42668">
        <ele>25.8</ele>
        <time>2021-11-16T11:44:07.000Z</time>
      </trkpt>
      <trkpt lat="47.71752" lon="-3.42683">
        <ele>23</ele>
        <time>2021-11-16T11:44:10.000Z</time>
      </trkpt>
      <trkpt lat="47.71737" lon="-3.42694">
        <ele>24.8</ele>
        <time>2021-11-16T11:44:13.000Z</time>
      </trkpt>
      <trkpt lat="47.7172" lon="-3.42699">
        <ele>21.9</ele>
        <time>2021-11-16T11:44:16.000Z</time>
      </trkpt>
      <trkpt lat="47.71703" lon="-3.42695">
        <ele>24.3</ele>
        <time>2021-11-16T11:44:19.000Z</time>
      </trkpt>
      <trkpt lat="47.71687" lon="-3.42689">
        <ele>23.8</ele>
        <time>2021-11-16T11:44:22.000Z</time>
      </trkpt>
      <trkpt lat="47.71669" lon="-3.42684">
        <ele>22.3</ele>
        <time>2021-11-16T11:44:25.000Z</time>
      </trkpt>
      <trkpt lat="47.71655" lon="-3.42681">
        <ele>25.1</ele>
        <time>2021-11-16T11:44:28.000Z</time>
      </trkpt>
      <trkpt lat="47.71642" lon="-3.4268">
        <ele>22.4</ele>
        <time>2021-11-16T11:44:31.000Z</time>
      </trkpt>
      <trkpt lat="47.71626" lon="-3.42684">
        <ele>21.6</ele>
        <time>2021-11-16T11:44:34.000Z</time>
      </trkpt>
      <trkpt lat="47.7161" lon="-3.42694">
        <ele>19.5</ele>
        <time>2021-11-16T11:44:37.000Z</time>
      </trkpt>
      <trkpt lat="47.71596" lon="-3.42706">
        <ele>21.4</ele>
        <time>2021-11-16T11:44:40.000Z</time>
      </trkpt>
      <trkpt lat="47.71582" lon="-3.4272">
        <ele>21.3</ele>
        <time>2021-11-16T11:44:43.000Z</time>
      </trkpt>
      <trkpt lat="47.71572" lon="-3.42736">
        <ele>21.6</ele>
        <time>2021-11-16T11:44:46.000Z</time>
      </trkpt>
      <trkpt lat="47.71562" lon="-3.42754">
        <ele>22.6</ele>
        <time>2021-11-16T11:44:49.000Z</time>
      </trkpt>
      <trkpt lat="47.71553" lon="-3.42774">
        <ele>22.8</ele>
        <time>2021-11-16T11:44:52.000Z</time>
      </trkpt>
      <trkpt lat="47.71543" lon="-3.42794">
        <ele>23.6</ele>
        <time>2021-11-16T11:44:55.000Z</time>
      </trkpt>
      <trkpt lat="47.7153" lon="-3.42812">
        <ele>22.1</ele>
        <time>2021-11-16T11:44:58.000Z</time>
      </trkpt>
      <trkpt lat="47.71516" lon="-3.42824">
        <ele>21.4</ele>
        <time>2021-11-16T11:45:01.000Z</time>
      </trkpt>
      <trkpt lat="47.71499" lon="-3.42827">
        <ele>20.6</ele>
        <time>2021-11-16T11:45:04.000Z</time>
      </trkpt>
      <trkpt lat="47.71484" lon="-3.42825">
        <ele>23.1</ele>
        <time>2021-11-16T11:45:07.000Z</time>
      </trkpt>
      <trkpt lat="47.7147" lon="-3.42822">
        <ele>21.6</ele>
        <time>2021-11-16T11:45:10.000Z</time>
      </trkpt>
      <trkpt lat="47.71457" lon="-3.42815">
        <ele>21.1</ele>
        <time>2021-11-16T11:45:13.000Z</time>
      </trkpt>
      <trkpt lat="47.71441" lon="-3.42807">
        <ele>21.1</ele>
        <time>2021-11-16T11:45:16.000Z</time>
      </trkpt>
      <trkpt lat="47.71423" lon="-3.42809">
        <ele>22.1</ele>
        <time>2021-11-16T11:45:19.000Z</time>
      </trkpt>
      <trkpt lat="47.71405" lon="-3.42826">
        <ele>20.5</ele>
        <time>2021-11-16T11:45:22.000Z</time>
      </trkpt>
      <trkpt lat="47.71394" lon="-3.42846">
        <ele>19.2</ele>
        <time>2021-11-16T11:45:25.000Z</time>
      </trkpt>
      <trkpt lat="47.71382" lon="-3.42863">
        <ele>20.9</ele>
        <time>2021-11-16T11:45:28.000Z</time>
      </trkpt>
      <trkpt lat="47.71369" lon="-3.42875">
        <ele>20</ele>
        <time>2021-11-16T11:45:31.000Z</time>
      </trkpt>
      <trkpt lat="47.71352" lon="-3.42885">
        <ele>20.4</ele>
        <time>2021-11-16T11:45:34.000Z</time>
      </trkpt>
      <trkpt lat="47.71334" lon="-3.42892">
        <ele>18.9</ele>
        <time>2021-11-16T11:45:37.000Z</time>
      </trkpt>
      <trkpt lat="47.71316" lon="-3.42897">
        <ele>23.4</ele>
        <time>2021-11-16T11:45:40.000Z</time>
      </trkpt>
      <trkpt lat="47.71299" lon="-3.42898">
        <ele>19.1</ele>
        <time>2021-11-16T11:45:43.000Z</time>
      </trkpt>
      <trkpt lat="47.71283" lon="-3.42892">
        <ele>19.9</ele>
        <time>2021-11-16T11:45:46.000Z</time>
      </trkpt>
      <trkpt lat="47.71265" lon="-3.42883">
        <ele>20.1</ele>
        <time>2021-11-16T11:45:49.000Z</time>
      </trkpt>
      <trkpt lat="47.71246" lon="-3.42871">
        <ele>17.2</ele>
        <time>2021-11-16T11:45:52.000Z</time>
      </trkpt>
      <trkpt lat="47.71232" lon="-3.42857">
        <ele>14.1</ele>
        <time>2021-11-16T11:45:55.000Z</time>
      </trkpt>
      <trkpt lat="47.7122" lon="-3.42838">
        <ele>17.5</ele>
        <time>2021-11-16T11:45:58.000Z</time>
      </trkpt>
      <trkpt lat="47.71218" lon="-3.42818">
        <ele>17.6</ele>
        <time>2021-11-16T11:46:01.000Z</time>
      </trkpt>
      <trkpt lat="47.71222" lon="-3.42793">
        <ele>17.5</ele>
        <time>2021-11-16T11:46:04.000Z</time>
      </trkpt>
      <trkpt lat="47.71219" lon="-3.4277">
        <ele>17.9</ele>
        <time>2021-11-16T11:46:07.000Z</time>
      </trkpt>
      <trkpt lat="47.71211" lon="-3.42761">
        <ele>18.3</ele>
        <time>2021-11-16T11:46:10.000Z</time>
      </trkpt>
      <trkpt lat="47.71199" lon="-3.42761">
        <ele>19.6</ele>
        <time>2021-11-16T11:46:13.000Z</time>
      </trkpt>
      <trkpt lat="47.71191" lon="-3.42764">
        <ele>19.7</ele>
        <time>2021-11-16T11:46:16.000Z</time>
      </trkpt>
      <trkpt lat="47.71181" lon="-3.4277">
        <ele>21.4</ele>
        <time>2021-11-16T11:46:19.000Z</time>
      </trkpt>
      <trkpt lat="47.71171" lon="-3.42776">
        <ele>23.6</ele>
        <time>2021-11-16T11:46:22.000Z</time>
      </trkpt>
      <trkpt lat="47.7116" lon="-3.42779">
        <ele>21.1</ele>
        <time>2021-11-16T11:46:25.000Z</time>
      </trkpt>
      <trkpt lat="47.7115" lon="-3.42789">
        <ele>20.8</ele>
        <time>2021-11-16T11:46:28.000Z</time>
      </trkpt>
      <trkpt lat="47.71145" lon="-3.4281">
        <ele>22.7</ele>
        <time>2021-11-16T11:46:31.000Z</time>
      </trkpt>
      <trkpt lat="47.71135" lon="-3.42827">
        <ele>20.3</ele>
        <time>2021-11-16T11:46:34.000Z</time>
      </trkpt>
      <trkpt lat="47.7112" lon="-3.42832">
        <ele>19.2</ele>
        <time>2021-11-16T11:46:37.000Z</time>
      </trkpt>
      <trkpt lat="47.71103" lon="-3.42832">
        <ele>18.6</ele>
        <time>2021-11-16T11:46:40.000Z</time>
      </trkpt>
      <trkpt lat="47.71087" lon="-3.42821">
        <ele>18.4</ele>
        <time>2021-11-16T11:46:43.000Z</time>
      </trkpt>
      <trkpt lat="47.71071" lon="-3.42807">
        <ele>17.5</ele>
        <time>2021-11-16T11:46:46.000Z</time>
      </trkpt>
      <trkpt lat="47.71052" lon="-3.42795">
        <ele>14.8</ele>
        <time>2021-11-16T11:46:49.000Z</time>
      </trkpt>
      <trkpt lat="47.71037" lon="-3.42772">
        <ele>15.7</ele>
        <time>2021-11-16T11:46:52.000Z</time>
      </trkpt>
      <trkpt lat="47.71024" lon="-3.42746">
        <ele>16.2</ele>
        <time>2021-11-16T11:46:55.000Z</time>
      </trkpt>
      <trkpt lat="47.7101" lon="-3.42722">
        <ele>13.2</ele>
        <time>2021-11-16T11:46:58.000Z</time>
      </trkpt>
      <trkpt lat="47.71002" lon="-3.42696">
        <ele>13.5</ele>
        <time>2021-11-16T11:47:01.000Z</time>
      </trkpt>
      <trkpt lat="47.70999" lon="-3.42674">
        <ele>16.4</ele>
        <time>2021-11-16T11:47:04.000Z</time>
      </trkpt>
      <trkpt lat="47.70993" lon="-3.42671">
        <ele>15.1</ele>
        <time>2021-11-16T11:47:07.000Z</time>
      </trkpt>
      <trkpt lat="47.70987" lon="-3.42672">
        <ele>15.5</ele>
        <time>2021-11-16T11:47:10.000Z</time>
      </trkpt>
      <trkpt lat="47.7098" lon="-3.42675">
        <ele>15.7</ele>
        <time>2021-11-16T11:47:13.000Z</time>
      </trkpt>
      <trkpt lat="47.70971" lon="-3.4268">
        <ele>15.7</ele>
        <time>2021-11-16T11:47:16.000Z</time>
      </trkpt>
      <trkpt lat="47.70969" lon="-3.42683">
        <ele>14.9</ele>
        <time>2021-11-16T11:47:19.000Z</time>
      </trkpt>
      <trkpt lat="47.70968" lon="-3.42683">
        <ele>15.5</ele>
        <time>2021-11-16T11:47:22.000Z</time>
      </trkpt>
      <trkpt lat="47.70968" lon="-3.42683">
        <ele>15.2</ele>
        <time>2021-11-16T11:47:24.000Z</time>
      </trkpt>
      <trkpt lat="47.70968" lon="-3.42683">
        <ele>15.3</ele>
        <time>2021-11-16T11:47:27.000Z</time>
      </trkpt>
      <trkpt lat="47.70967" lon="-3.42682">
        <ele>15.2</ele>
        <time>2021-11-16T11:47:28.000Z</time>
      </trkpt>
      <trkpt lat="47.70967" lon="-3.42682">
        <ele>15.2</ele>
        <time>2021-11-16T11:47:29.000Z</time>
      </trkpt>
      <trkpt lat="47.70967" lon="-3.42682">
        <ele>15</ele>
        <time>2021-11-16T11:47:32.000Z</time>
      </trkpt>
      <trkpt lat="47.70967" lon="-3.42682">
        <ele>14.9</ele>
        <time>2021-11-16T11:47:35.000Z</time>
      </trkpt>
      <trkpt lat="47.70967" lon="-3.42682">
        <ele>14.9</ele>
        <time>2021-11-16T11:47:38.000Z</time>
      </trkpt>
      <trkpt lat="47.70967" lon="-3.42682">
        <ele>15.3</ele>
        <time>2021-11-16T11:47:41.000Z</time>
      </trkpt>
      <trkpt lat="47.70967" lon="-3.42682">
        <ele>15</ele>
        <time>2021-11-16T11:47:44.000Z</time>
      </trkpt>
      <trkpt lat="47.70967" lon="-3.42682">
        <ele>14.7</ele>
        <time>2021-11-16T11:47:47.000Z</time>
      </trkpt>
      <trkpt lat="47.70967" lon="-3.42682">
        <ele>14.8</ele>
        <time>2021-11-16T11:47:50.000Z</time>
      </trkpt>
      <trkpt lat="47.70967" lon="-3.42682">
        <ele>14.9</ele>
        <time>2021-11-16T11:47:51.000Z</time>
      </trkpt>
      <trkpt lat="47.70967" lon="-3.42682">
        <ele>14.6</ele>
        <time>2021-11-16T11:47:54.000Z</time>
      </trkpt>
      <trkpt lat="47.70967" lon="-3.42682">
        <ele>14.4</ele>
        <time>2021-11-16T11:47:57.000Z</time>
      </trkpt>
      <trkpt lat="47.70967" lon="-3.42682">
        <ele>14.9</ele>
        <time>2021-11-16T11:48:00.000Z</time>
      </trkpt>
      <trkpt lat="47.70967" lon="-3.42682">
        <ele>14.8</ele>
        <time>2021-11-16T11:48:03.000Z</time>
      </trkpt>
      <trkpt lat="47.70967" lon="-3.42682">
        <ele>14.7</ele>
        <time>2021-11-16T11:48:06.000Z</time>
      </trkpt>
      <trkpt lat="47.70967" lon="-3.42682">
        <ele>14.8</ele>
        <time>2021-11-16T11:48:07.000Z</time>
      </trkpt>
      <trkpt lat="47.70967" lon="-3.42682">
        <ele>14.9</ele>
        <time>2021-11-16T11:48:10.000Z</time>
      </trkpt>
      <trkpt lat="47.70967" lon="-3.42682">
        <ele>14.5</ele>
        <time>2021-11-16T11:48:13.000Z</time>
      </trkpt>
      <trkpt lat="47.70967" lon="-3.42682">
        <ele>14</ele>
        <time>2021-11-16T11:48:16.000Z</time>
      </trkpt>
      <trkpt lat="47.70967" lon="-3.42682">
        <ele>14.1</ele>
        <time>2021-11-16T11:48:19.000Z</time>
      </trkpt>
      <trkpt lat="47.70967" lon="-3.42682">
        <ele>14.8</ele>
        <time>2021-11-16T11:48:22.000Z</time>
      </trkpt>
      <trkpt lat="47.70967" lon="-3.42682">
        <ele>14.3</ele>
        <time>2021-11-16T11:48:24.000Z</time>
      </trkpt>
      <trkpt lat="47.70967" lon="-3.42682">
        <ele>14.2</ele>
        <time>2021-11-16T11:48:25.000Z</time>
      </trkpt>
      <trkpt lat="47.70967" lon="-3.42682">
        <ele>14.3</ele>
        <time>2021-11-16T11:48:28.000Z</time>
      </trkpt>
      <trkpt lat="47.70967" lon="-3.42682">
        <ele>14.3</ele>
        <time>2021-11-16T11:48:30.000Z</time>
      </trkpt>
      <trkpt lat="47.70967" lon="-3.42682">
        <ele>14.2</ele>
        <time>2021-11-16T11:48:31.000Z</time>
      </trkpt>
      <trkpt lat="47.70967" lon="-3.42682">
        <ele>14.2</ele>
        <time>2021-11-16T11:48:34.000Z</time>
      </trkpt>
      <trkpt lat="47.70967" lon="-3.42682">
        <ele>14.2</ele>
        <time>2021-11-16T11:48:35.000Z</time>
      </trkpt>
      <trkpt lat="47.70964" lon="-3.42684">
        <ele>14.1</ele>
        <time>2021-11-16T11:48:38.000Z</time>
      </trkpt>
      <trkpt lat="47.70963" lon="-3.42686">
        <ele>14.5</ele>
        <time>2021-11-16T11:48:41.000Z</time>
      </trkpt>
      <trkpt lat="47.70963" lon="-3.42686">
        <ele>14.5</ele>
        <time>2021-11-16T11:48:42.000Z</time>
      </trkpt>
      <trkpt lat="47.70962" lon="-3.42686">
        <ele>14.6</ele>
        <time>2021-11-16T11:48:43.000Z</time>
      </trkpt>
      <trkpt lat="47.70957" lon="-3.42688">
        <ele>14.3</ele>
        <time>2021-11-16T11:48:46.000Z</time>
      </trkpt>
      <trkpt lat="47.70949" lon="-3.42692">
        <ele>13.1</ele>
        <time>2021-11-16T11:48:49.000Z</time>
      </trkpt>
      <trkpt lat="47.70938" lon="-3.42692">
        <ele>14.4</ele>
        <time>2021-11-16T11:48:52.000Z</time>
      </trkpt>
      <trkpt lat="47.70926" lon="-3.42692">
        <ele>12.1</ele>
        <time>2021-11-16T11:48:55.000Z</time>
      </trkpt>
      <trkpt lat="47.70917" lon="-3.42694">
        <ele>13.7</ele>
        <time>2021-11-16T11:48:58.000Z</time>
      </trkpt>
      <trkpt lat="47.70908" lon="-3.42691">
        <ele>14.1</ele>
        <time>2021-11-16T11:49:01.000Z</time>
      </trkpt>
      <trkpt lat="47.70897" lon="-3.42689">
        <ele>12.7</ele>
        <time>2021-11-16T11:49:04.000Z</time>
      </trkpt>
      <trkpt lat="47.70885" lon="-3.42684">
        <ele>15.7</ele>
        <time>2021-11-16T11:49:07.000Z</time>
      </trkpt>
      <trkpt lat="47.70873" lon="-3.4268">
        <ele>14.6</ele>
        <time>2021-11-16T11:49:10.000Z</time>
      </trkpt>
      <trkpt lat="47.70856" lon="-3.4268">
        <ele>14.9</ele>
        <time>2021-11-16T11:49:13.000Z</time>
      </trkpt>
      <trkpt lat="47.7084" lon="-3.42681">
        <ele>12.1</ele>
        <time>2021-11-16T11:49:16.000Z</time>
      </trkpt>
      <trkpt lat="47.70825" lon="-3.42679">
        <ele>14.7</ele>
        <time>2021-11-16T11:49:19.000Z</time>
      </trkpt>
      <trkpt lat="47.70811" lon="-3.42676">
        <ele>13</ele>
        <time>2021-11-16T11:49:22.000Z</time>
      </trkpt>
      <trkpt lat="47.70799" lon="-3.42679">
        <ele>14.4</ele>
        <time>2021-11-16T11:49:25.000Z</time>
      </trkpt>
      <trkpt lat="47.70788" lon="-3.42685">
        <ele>14</ele>
        <time>2021-11-16T11:49:28.000Z</time>
      </trkpt>
      <trkpt lat="47.70778" lon="-3.42686">
        <ele>9.2</ele>
        <time>2021-11-16T11:49:31.000Z</time>
      </trkpt>
      <trkpt lat="47.70764" lon="-3.42684">
        <ele>9.8</ele>
        <time>2021-11-16T11:49:34.000Z</time>
      </trkpt>
      <trkpt lat="47.70749" lon="-3.42687">
        <ele>9.5</ele>
        <time>2021-11-16T11:49:37.000Z</time>
      </trkpt>
      <trkpt lat="47.7074" lon="-3.42695">
        <ele>11.1</ele>
        <time>2021-11-16T11:49:40.000Z</time>
      </trkpt>
      <trkpt lat="47.70736" lon="-3.4269">
        <ele>14.1</ele>
        <time>2021-11-16T11:49:43.000Z</time>
      </trkpt>
      <trkpt lat="47.70731" lon="-3.42678">
        <ele>14.6</ele>
        <time>2021-11-16T11:49:46.000Z</time>
      </trkpt>
      <trkpt lat="47.70725" lon="-3.42661">
        <ele>14.5</ele>
        <time>2021-11-16T11:49:49.000Z</time>
      </trkpt>
      <trkpt lat="47.70718" lon="-3.42642">
        <ele>13.7</ele>
        <time>2021-11-16T11:49:52.000Z</time>
      </trkpt>
      <trkpt lat="47.70712" lon="-3.42621">
        <ele>15.1</ele>
        <time>2021-11-16T11:49:55.000Z</time>
      </trkpt>
      <trkpt lat="47.70708" lon="-3.42598">
        <ele>12.9</ele>
        <time>2021-11-16T11:49:58.000Z</time>
      </trkpt>
      <trkpt lat="47.70706" lon="-3.42574">
        <ele>13.5</ele>
        <time>2021-11-16T11:50:01.000Z</time>
      </trkpt>
      <trkpt lat="47.70705" lon="-3.42549">
        <ele>13</ele>
        <time>2021-11-16T11:50:04.000Z</time>
      </trkpt>
      <trkpt lat="47.70706" lon="-3.42523">
        <ele>13.9</ele>
        <time>2021-11-16T11:50:07.000Z</time>
      </trkpt>
      <trkpt lat="47.70709" lon="-3.42498">
        <ele>13.2</ele>
        <time>2021-11-16T11:50:10.000Z</time>
      </trkpt>
      <trkpt lat="47.70712" lon="-3.42472">
        <ele>13.1</ele>
        <time>2021-11-16T11:50:13.000Z</time>
      </trkpt>
      <trkpt lat="47.70712" lon="-3.42448">
        <ele>15</ele>
        <time>2021-11-16T11:50:16.000Z</time>
      </trkpt>
      <trkpt lat="47.70705" lon="-3.42431">
        <ele>15.8</ele>
        <time>2021-11-16T11:50:19.000Z</time>
      </trkpt>
      <trkpt lat="47.70693" lon="-3.42423">
        <ele>15.9</ele>
        <time>2021-11-16T11:50:22.000Z</time>
      </trkpt>
      <trkpt lat="47.70681" lon="-3.42415">
        <ele>14</ele>
        <time>2021-11-16T11:50:25.000Z</time>
      </trkpt>
      <trkpt lat="47.70667" lon="-3.42408">
        <ele>15.5</ele>
        <time>2021-11-16T11:50:28.000Z</time>
      </trkpt>
      <trkpt lat="47.70654" lon="-3.42399">
        <ele>15</ele>
        <time>2021-11-16T11:50:31.000Z</time>
      </trkpt>
      <trkpt lat="47.7064" lon="-3.42396">
        <ele>15</ele>
        <time>2021-11-16T11:50:34.000Z</time>
      </trkpt>
      <trkpt lat="47.7063" lon="-3.42383">
        <ele>15.1</ele>
        <time>2021-11-16T11:50:37.000Z</time>
      </trkpt>
      <trkpt lat="47.70635" lon="-3.42361">
        <ele>15.6</ele>
        <time>2021-11-16T11:50:40.000Z</time>
      </trkpt>
      <trkpt lat="47.7064" lon="-3.42338">
        <ele>16.3</ele>
        <time>2021-11-16T11:50:43.000Z</time>
      </trkpt>
      <trkpt lat="47.70645" lon="-3.42315">
        <ele>16.5</ele>
        <time>2021-11-16T11:50:46.000Z</time>
      </trkpt>
      <trkpt lat="47.7065" lon="-3.42291">
        <ele>16</ele>
        <time>2021-11-16T11:50:49.000Z</time>
      </trkpt>
      <trkpt lat="47.70654" lon="-3.42268">
        <ele>17</ele>
        <time>2021-11-16T11:50:52.000Z</time>
      </trkpt>
      <trkpt lat="47.70658" lon="-3.42243">
        <ele>16</ele>
        <time>2021-11-16T11:50:55.000Z</time>
      </trkpt>
      <trkpt lat="47.70663" lon="-3.42216">
        <ele>17</ele>
        <time>2021-11-16T11:50:58.000Z</time>
      </trkpt>
      <trkpt lat="47.70669" lon="-3.4219">
        <ele>17</ele>
        <time>2021-11-16T11:51:01.000Z</time>
      </trkpt>
      <trkpt lat="47.70675" lon="-3.42165">
        <ele>17.6</ele>
        <time>2021-11-16T11:51:04.000Z</time>
      </trkpt>
      <trkpt lat="47.70679" lon="-3.42141">
        <ele>17.8</ele>
        <time>2021-11-16T11:51:07.000Z</time>
      </trkpt>
      <trkpt lat="47.70683" lon="-3.42118">
        <ele>16.7</ele>
        <time>2021-11-16T11:51:10.000Z</time>
      </trkpt>
      <trkpt lat="47.70684" lon="-3.42096">
        <ele>17</ele>
        <time>2021-11-16T11:51:13.000Z</time>
      </trkpt>
      <trkpt lat="47.70689" lon="-3.42077">
        <ele>18.3</ele>
        <time>2021-11-16T11:51:34.000Z</time>
      </trkpt>
      <trkpt lat="47.70692" lon="-3.42064">
        <ele>17.4</ele>
        <time>2021-11-16T11:51:37.000Z</time>
      </trkpt>
      <trkpt lat="47.70691" lon="-3.42056">
        <ele>17.2</ele>
        <time>2021-11-16T11:51:40.000Z</time>
      </trkpt>
      <trkpt lat="47.70686" lon="-3.42055">
        <ele>16.6</ele>
        <time>2021-11-16T11:51:43.000Z</time>
      </trkpt>
      <trkpt lat="47.70676" lon="-3.42057">
        <ele>15.6</ele>
        <time>2021-11-16T11:51:46.000Z</time>
      </trkpt>
      <trkpt lat="47.70663" lon="-3.42057">
        <ele>14.3</ele>
        <time>2021-11-16T11:51:49.000Z</time>
      </trkpt>
      <trkpt lat="47.7065" lon="-3.4206">
        <ele>14.6</ele>
        <time>2021-11-16T11:51:52.000Z</time>
      </trkpt>
      <trkpt lat="47.70644" lon="-3.4207">
        <ele>15.3</ele>
        <time>2021-11-16T11:51:55.000Z</time>
      </trkpt>
      <trkpt lat="47.70635" lon="-3.42075">
        <ele>13.7</ele>
        <time>2021-11-16T11:51:58.000Z</time>
      </trkpt>
      <trkpt lat="47.70628" lon="-3.42076">
        <ele>14.7</ele>
        <time>2021-11-16T11:52:01.000Z</time>
      </trkpt>
      <trkpt lat="47.70624" lon="-3.42081">
        <ele>15.4</ele>
        <time>2021-11-16T11:52:04.000Z</time>
      </trkpt>
      <trkpt lat="47.70615" lon="-3.42082">
        <ele>14.7</ele>
        <time>2021-11-16T11:52:07.000Z</time>
      </trkpt>
      <trkpt lat="47.70602" lon="-3.4208">
        <ele>13.8</ele>
        <time>2021-11-16T11:52:10.000Z</time>
      </trkpt>
      <trkpt lat="47.70586" lon="-3.42078">
        <ele>12.5</ele>
        <time>2021-11-16T11:52:13.000Z</time>
      </trkpt>
      <trkpt lat="47.70568" lon="-3.42075">
        <ele>10.9</ele>
        <time>2021-11-16T11:52:16.000Z</time>
      </trkpt>
      <trkpt lat="47.70547" lon="-3.4207">
        <ele>10.6</ele>
        <time>2021-11-16T11:52:19.000Z</time>
      </trkpt>
      <trkpt lat="47.70527" lon="-3.42067">
        <ele>10.3</ele>
        <time>2021-11-16T11:52:22.000Z</time>
      </trkpt>
      <trkpt lat="47.70507" lon="-3.42064">
        <ele>8.8</ele>
        <time>2021-11-16T11:52:25.000Z</time>
      </trkpt>
      <trkpt lat="47.70487" lon="-3.42061">
        <ele>10.1</ele>
        <time>2021-11-16T11:52:28.000Z</time>
      </trkpt>
      <trkpt lat="47.70468" lon="-3.42058">
        <ele>11.1</ele>
        <time>2021-11-16T11:52:31.000Z</time>
      </trkpt>
      <trkpt lat="47.7045" lon="-3.42055">
        <ele>11.6</ele>
        <time>2021-11-16T11:52:34.000Z</time>
      </trkpt>
      <trkpt lat="47.70433" lon="-3.42055">
        <ele>13.8</ele>
        <time>2021-11-16T11:52:37.000Z</time>
      </trkpt>
      <trkpt lat="47.7042" lon="-3.4206">
        <ele>13.7</ele>
        <time>2021-11-16T11:52:40.000Z</time>
      </trkpt>
      <trkpt lat="47.70409" lon="-3.42061">
        <ele>14.5</ele>
        <time>2021-11-16T11:52:43.000Z</time>
      </trkpt>
      <trkpt lat="47.70396" lon="-3.42057">
        <ele>14.5</ele>
        <time>2021-11-16T11:52:46.000Z</time>
      </trkpt>
      <trkpt lat="47.70384" lon="-3.42054">
        <ele>12.6</ele>
        <time>2021-11-16T11:52:49.000Z</time>
      </trkpt>
      <trkpt lat="47.70374" lon="-3.42048">
        <ele>15.4</ele>
        <time>2021-11-16T11:52:52.000Z</time>
      </trkpt>
      <trkpt lat="47.70362" lon="-3.42046">
        <ele>16.5</ele>
        <time>2021-11-16T11:52:55.000Z</time>
      </trkpt>
      <trkpt lat="47.70352" lon="-3.42044">
        <ele>17.5</ele>
        <time>2021-11-16T11:52:58.000Z</time>
      </trkpt>
      <trkpt lat="47.70343" lon="-3.42039">
        <ele>17.3</ele>
        <time>2021-11-16T11:53:01.000Z</time>
      </trkpt>
      <trkpt lat="47.70332" lon="-3.42041">
        <ele>17.2</ele>
        <time>2021-11-16T11:53:04.000Z</time>
      </trkpt>
      <trkpt lat="47.70321" lon="-3.4205">
        <ele>17</ele>
        <time>2021-11-16T11:53:07.000Z</time>
      </trkpt>
      <trkpt lat="47.70311" lon="-3.42065">
        <ele>16.4</ele>
        <time>2021-11-16T11:53:10.000Z</time>
      </trkpt>
      <trkpt lat="47.70299" lon="-3.42081">
        <ele>16</ele>
        <time>2021-11-16T11:53:13.000Z</time>
      </trkpt>
      <trkpt lat="47.70287" lon="-3.42098">
        <ele>16.1</ele>
        <time>2021-11-16T11:53:16.000Z</time>
      </trkpt>
      <trkpt lat="47.70274" lon="-3.42114">
        <ele>15.8</ele>
        <time>2021-11-16T11:53:19.000Z</time>
      </trkpt>
      <trkpt lat="47.70263" lon="-3.42121">
        <ele>15.9</ele>
        <time>2021-11-16T11:53:22.000Z</time>
      </trkpt>
      <trkpt lat="47.7026" lon="-3.42135">
        <ele>16.4</ele>
        <time>2021-11-16T11:53:25.000Z</time>
      </trkpt>
      <trkpt lat="47.70255" lon="-3.42153">
        <ele>14.1</ele>
        <time>2021-11-16T11:53:28.000Z</time>
      </trkpt>
      <trkpt lat="47.70264" lon="-3.42133">
        <ele>7.7</ele>
      </trkpt>
      <trkpt lat="47.70268" lon="-3.42118">
        <ele>8.4</ele>
      </trkpt>
      <trkpt lat="47.70293" lon="-3.42087">
        <ele>9</ele>
      </trkpt>
      <trkpt lat="47.70319" lon="-3.42052">
        <ele>10.1</ele>
      </trkpt>
      <trkpt lat="47.7033" lon="-3.42041">
        <ele>10.5</ele>
      </trkpt>
      <trkpt lat="47.70337" lon="-3.42038">
        <ele>10.5</ele>
      </trkpt>
      <trkpt lat="47.70347" lon="-3.42035">
        <ele>10.2</ele>
      </trkpt>
      <trkpt lat="47.70355" lon="-3.42037">
        <ele>9.9</ele>
      </trkpt>
      <trkpt lat="47.70373" lon="-3.4204">
        <ele>9.1</ele>
      </trkpt>
      <trkpt lat="47.70383" lon="-3.42041">
        <ele>8.7</ele>
      </trkpt>
      <trkpt lat="47.70409" lon="-3.42046">
        <ele>6.9</ele>
      </trkpt>
      <trkpt lat="47.70454" lon="-3.42053">
        <ele>4.6</ele>
      </trkpt>
      <trkpt lat="47.70492" lon="-3.4206">
        <ele>3.8</ele>
      </trkpt>
      <trkpt lat="47.70517" lon="-3.42063">
        <ele>3.9</ele>
      </trkpt>
      <trkpt lat="47.70545" lon="-3.42067">
        <ele>4.3</ele>
      </trkpt>
      <trkpt lat="47.70629" lon="-3.42081">
        <ele>7</ele>
      </trkpt>
      <trkpt lat="47.70631" lon="-3.42081">
        <ele>7</ele>
      </trkpt>
      <trkpt lat="47.70661" lon="-3.42088">
        <ele>7.8</ele>
      </trkpt>
      <trkpt lat="47.70672" lon="-3.4209">
        <ele>8.2</ele>
      </trkpt>
      <trkpt lat="47.70685" lon="-3.42093">
        <ele>8.9</ele>
      </trkpt>
      <trkpt lat="47.70689" lon="-3.42096">
        <ele>9.2</ele>
      </trkpt>
      <trkpt lat="47.70694" lon="-3.42097">
        <ele>9.5</ele>
      </trkpt>
      <trkpt lat="47.707" lon="-3.42105">
        <ele>10</ele>
      </trkpt>
      <trkpt lat="47.70698" lon="-3.42112">
        <ele>10.1</ele>
      </trkpt>
      <trkpt lat="47.70704" lon="-3.42126">
        <ele>10.5</ele>
      </trkpt>
      <trkpt lat="47.707" lon="-3.4213">
        <ele>10.3</ele>
      </trkpt>
      <trkpt lat="47.70692" lon="-3.42141">
        <ele>9.8</ele>
      </trkpt>
      <trkpt lat="47.7068" lon="-3.42161">
        <ele>9.4</ele>
      </trkpt>
      <trkpt lat="47.70677" lon="-3.42172">
        <ele>9.4</ele>
      </trkpt>
      <trkpt lat="47.70673" lon="-3.42192">
        <ele>9.2</ele>
      </trkpt>
      <trkpt lat="47.70658" lon="-3.42259">
        <ele>8.7</ele>
      </trkpt>
      <trkpt lat="47.70655" lon="-3.42285">
        <ele>8.6</ele>
      </trkpt>
      <trkpt lat="47.7065" lon="-3.42307">
        <ele>8.4</ele>
      </trkpt>
      <trkpt lat="47.70639" lon="-3.42364">
        <ele>7.9</ele>
      </trkpt>
      <trkpt lat="47.70637" lon="-3.42373">
        <ele>7.5</ele>
      </trkpt>
      <trkpt lat="47.70637" lon="-3.42389">
        <ele>6.9</ele>
      </trkpt>
      <trkpt lat="47.70626" lon="-3.42405">
        <ele>6.5</ele>
      </trkpt>
      <trkpt lat="47.70584" lon="-3.42472">
        <ele>5</ele>
      </trkpt>
      <trkpt lat="47.70577" lon="-3.42492">
        <ele>4.8</ele>
      </trkpt>
      <trkpt lat="47.70567" lon="-3.42531">
        <ele>4.4</ele>
      </trkpt>
      <trkpt lat="47.70563" lon="-3.42551">
        <ele>4.3</ele>
      </trkpt>
      <trkpt lat="47.70555" lon="-3.42589">
        <ele>4</ele>
      </trkpt>
      <trkpt lat="47.70541" lon="-3.42677">
        <ele>3.2</ele>
      </trkpt>
      <trkpt lat="47.705" lon="-3.42979">
        <ele>3</ele>
      </trkpt>
      <trkpt lat="47.70475" lon="-3.43156">
        <ele>3</ele>
      </trkpt>
      <trkpt lat="47.70473" lon="-3.43169">
        <ele>3</ele>
      </trkpt>
      <trkpt lat="47.70469" lon="-3.43201">
        <ele>3.1</ele>
      </trkpt>
      <trkpt lat="47.70463" lon="-3.43235">
        <ele>3.5</ele>
      </trkpt>
      <trkpt lat="47.70459" lon="-3.43249">
        <ele>4</ele>
      </trkpt>
      <trkpt lat="47.70454" lon="-3.43261">
        <ele>4</ele>
      </trkpt>
      <trkpt lat="47.7045" lon="-3.4326">
        <ele>4</ele>
      </trkpt>
      <trkpt lat="47.70416" lon="-3.43244">
        <ele>5.3</ele>
      </trkpt>
      <trkpt lat="47.70389" lon="-3.43233">
        <ele>7.6</ele>
      </trkpt>
      <trkpt lat="47.70378" lon="-3.43228">
        <ele>7.5</ele>
      </trkpt>
      <trkpt lat="47.7035" lon="-3.43217">
        <ele>7</ele>
      </trkpt>
      <trkpt lat="47.70339" lon="-3.43211">
        <ele>7</ele>
      </trkpt>
      <trkpt lat="47.70331" lon="-3.43206">
        <ele>6.8</ele>
      </trkpt>
      <trkpt lat="47.70321" lon="-3.43197">
        <ele>6.1</ele>
      </trkpt>
      <trkpt lat="47.70287" lon="-3.43173">
        <ele>4.3</ele>
      </trkpt>
      <trkpt lat="47.7026" lon="-3.43153">
        <ele>4.2</ele>
      </trkpt>
      <trkpt lat="47.70246" lon="-3.43146">
        <ele>4</ele>
      </trkpt>
      <trkpt lat="47.70242" lon="-3.43145">
        <ele>4</ele>
      </trkpt>
      <trkpt lat="47.70238" lon="-3.43145">
        <ele>4</ele>
      </trkpt>
      <trkpt lat="47.70222" lon="-3.43152">
        <ele>4</ele>
      </trkpt>
      <trkpt lat="47.70213" lon="-3.43161">
        <ele>3.9</ele>
      </trkpt>
      <trkpt lat="47.70209" lon="-3.43169">
        <ele>4</ele>
      </trkpt>
      <trkpt lat="47.70207" lon="-3.43174">
        <ele>3.9</ele>
      </trkpt>
      <trkpt lat="47.70205" lon="-3.43179">
        <ele>3.8</ele>
      </trkpt>
      <trkpt lat="47.70203" lon="-3.43197">
        <ele>3.7</ele>
      </trkpt>
      <trkpt lat="47.70203" lon="-3.43201">
        <ele>3.8</ele>
      </trkpt>
      <trkpt lat="47.70206" lon="-3.43201">
        <ele>-2.4</ele>
        <time>2021-11-25T15:18:44.000Z</time>
      </trkpt>
      <trkpt lat="47.70197" lon="-3.432">
        <ele>-2.2</ele>
        <time>2021-11-25T15:18:41.000Z</time>
      </trkpt>
      <trkpt lat="47.70186" lon="-3.43203">
        <ele>-3.7</ele>
        <time>2021-11-25T15:18:38.000Z</time>
      </trkpt>
      <trkpt lat="47.70173" lon="-3.43208">
        <ele>-3.3</ele>
        <time>2021-11-25T15:18:35.000Z</time>
      </trkpt>
      <trkpt lat="47.70159" lon="-3.43211">
        <ele>-1.8</ele>
        <time>2021-11-25T15:18:32.000Z</time>
      </trkpt>
      <trkpt lat="47.7015" lon="-3.43219">
        <ele>-2</ele>
        <time>2021-11-25T15:18:29.000Z</time>
      </trkpt>
      <trkpt lat="47.70147" lon="-3.43235">
        <ele>-1.2</ele>
        <time>2021-11-25T15:18:26.000Z</time>
      </trkpt>
      <trkpt lat="47.70145" lon="-3.43255">
        <ele>-1.6</ele>
        <time>2021-11-25T15:18:23.000Z</time>
      </trkpt>
      <trkpt lat="47.70147" lon="-3.43275">
        <ele>-0.6</ele>
        <time>2021-11-25T15:18:20.000Z</time>
      </trkpt>
      <trkpt lat="47.7015" lon="-3.43294">
        <ele>-2.8</ele>
        <time>2021-11-25T15:18:17.000Z</time>
      </trkpt>
      <trkpt lat="47.70153" lon="-3.43313">
        <ele>-1.7</ele>
        <time>2021-11-25T15:18:14.000Z</time>
      </trkpt>
      <trkpt lat="47.70155" lon="-3.43333">
        <ele>0.1</ele>
        <time>2021-11-25T15:18:11.000Z</time>
      </trkpt>
      <trkpt lat="47.70156" lon="-3.43355">
        <ele>-1.3</ele>
        <time>2021-11-25T15:18:08.000Z</time>
      </trkpt>
      <trkpt lat="47.70156" lon="-3.43378">
        <ele>-0.8</ele>
        <time>2021-11-25T15:18:05.000Z</time>
      </trkpt>
      <trkpt lat="47.70155" lon="-3.434">
        <ele>0.2</ele>
        <time>2021-11-25T15:18:02.000Z</time>
      </trkpt>
      <trkpt lat="47.70152" lon="-3.43421">
        <ele>-0.1</ele>
        <time>2021-11-25T15:17:59.000Z</time>
      </trkpt>
      <trkpt lat="47.70147" lon="-3.43442">
        <ele>-0.8</ele>
        <time>2021-11-25T15:17:56.000Z</time>
      </trkpt>
      <trkpt lat="47.70141" lon="-3.43461">
        <ele>-0.8</ele>
        <time>2021-11-25T15:17:53.000Z</time>
      </trkpt>
      <trkpt lat="47.70134" lon="-3.4348">
        <ele>-0.2</ele>
        <time>2021-11-25T15:17:50.000Z</time>
      </trkpt>
      <trkpt lat="47.70125" lon="-3.43499">
        <ele>-0.7</ele>
        <time>2021-11-25T15:17:47.000Z</time>
      </trkpt>
      <trkpt lat="47.70115" lon="-3.43517">
        <ele>-2.1</ele>
        <time>2021-11-25T15:17:44.000Z</time>
      </trkpt>
      <trkpt lat="47.70107" lon="-3.43537">
        <ele>-0.6</ele>
        <time>2021-11-25T15:17:41.000Z</time>
      </trkpt>
      <trkpt lat="47.70101" lon="-3.43557">
        <ele>0.2</ele>
        <time>2021-11-25T15:17:38.000Z</time>
      </trkpt>
      <trkpt lat="47.70094" lon="-3.43577">
        <ele>0.3</ele>
        <time>2021-11-25T15:17:35.000Z</time>
      </trkpt>
      <trkpt lat="47.70087" lon="-3.43596">
        <ele>0.5</ele>
        <time>2021-11-25T15:17:32.000Z</time>
      </trkpt>
      <trkpt lat="47.7008" lon="-3.43612">
        <ele>1.4</ele>
        <time>2021-11-25T15:17:29.000Z</time>
      </trkpt>
      <trkpt lat="47.70071" lon="-3.43625">
        <ele>0.9</ele>
        <time>2021-11-25T15:17:26.000Z</time>
      </trkpt>
      <trkpt lat="47.70061" lon="-3.43637">
        <ele>2</ele>
        <time>2021-11-25T15:17:23.000Z</time>
      </trkpt>
      <trkpt lat="47.70053" lon="-3.43649">
        <ele>0.4</ele>
        <time>2021-11-25T15:17:20.000Z</time>
      </trkpt>
      <trkpt lat="47.70042" lon="-3.43657">
        <ele>-0.4</ele>
        <time>2021-11-25T15:17:17.000Z</time>
      </trkpt>
      <trkpt lat="47.7003" lon="-3.43658">
        <ele>-1.1</ele>
        <time>2021-11-25T15:17:14.000Z</time>
      </trkpt>
      <trkpt lat="47.70018" lon="-3.43662">
        <ele>-0.8</ele>
        <time>2021-11-25T15:17:11.000Z</time>
      </trkpt>
      <trkpt lat="47.70008" lon="-3.43674">
        <ele>-0.4</ele>
        <time>2021-11-25T15:17:08.000Z</time>
      </trkpt>
      <trkpt lat="47.70004" lon="-3.43693">
        <ele>1.5</ele>
        <time>2021-11-25T15:17:05.000Z</time>
      </trkpt>
      <trkpt lat="47.69999" lon="-3.4371">
        <ele>0.2</ele>
        <time>2021-11-25T15:17:02.000Z</time>
      </trkpt>
      <trkpt lat="47.69994" lon="-3.43722">
        <ele>1.8</ele>
        <time>2021-11-25T15:16:59.000Z</time>
      </trkpt>
      <trkpt lat="47.69992" lon="-3.4373">
        <ele>2.3</ele>
        <time>2021-11-25T15:16:56.000Z</time>
      </trkpt>
      <trkpt lat="47.69984" lon="-3.43745">
        <ele>1.9</ele>
        <time>2021-11-25T15:16:53.000Z</time>
      </trkpt>
      <trkpt lat="47.69974" lon="-3.4376">
        <ele>0.9</ele>
        <time>2021-11-25T15:16:50.000Z</time>
      </trkpt>
      <trkpt lat="47.69965" lon="-3.43777">
        <ele>1</ele>
        <time>2021-11-25T15:16:47.000Z</time>
      </trkpt>
      <trkpt lat="47.69958" lon="-3.43795">
        <ele>1.9</ele>
        <time>2021-11-25T15:16:44.000Z</time>
      </trkpt>
      <trkpt lat="47.69956" lon="-3.43815">
        <ele>0.5</ele>
        <time>2021-11-25T15:16:41.000Z</time>
      </trkpt>
      <trkpt lat="47.6995" lon="-3.43835">
        <ele>1.3</ele>
        <time>2021-11-25T15:16:38.000Z</time>
      </trkpt>
      <trkpt lat="47.69942" lon="-3.43852">
        <ele>1.7</ele>
        <time>2021-11-25T15:16:35.000Z</time>
      </trkpt>
      <trkpt lat="47.69934" lon="-3.4387">
        <ele>2.1</ele>
        <time>2021-11-25T15:16:32.000Z</time>
      </trkpt>
      <trkpt lat="47.69933" lon="-3.4389">
        <ele>2.9</ele>
        <time>2021-11-25T15:16:29.000Z</time>
      </trkpt>
      <trkpt lat="47.69926" lon="-3.43906">
        <ele>3.4</ele>
        <time>2021-11-25T15:16:26.000Z</time>
      </trkpt>
      <trkpt lat="47.69913" lon="-3.43916">
        <ele>2.5</ele>
        <time>2021-11-25T15:16:23.000Z</time>
      </trkpt>
      <trkpt lat="47.699" lon="-3.43931">
        <ele>1.9</ele>
        <time>2021-11-25T15:16:20.000Z</time>
      </trkpt>
      <trkpt lat="47.69896" lon="-3.43954">
        <ele>2.7</ele>
        <time>2021-11-25T15:16:17.000Z</time>
      </trkpt>
      <trkpt lat="47.69895" lon="-3.43977">
        <ele>1.9</ele>
        <time>2021-11-25T15:16:14.000Z</time>
      </trkpt>
      <trkpt lat="47.69894" lon="-3.43999">
        <ele>3</ele>
        <time>2021-11-25T15:16:11.000Z</time>
      </trkpt>
      <trkpt lat="47.69895" lon="-3.4402">
        <ele>1.6</ele>
        <time>2021-11-25T15:16:08.000Z</time>
      </trkpt>
      <trkpt lat="47.69897" lon="-3.44042">
        <ele>0.7</ele>
        <time>2021-11-25T15:16:05.000Z</time>
      </trkpt>
      <trkpt lat="47.69902" lon="-3.44063">
        <ele>1.4</ele>
        <time>2021-11-25T15:16:02.000Z</time>
      </trkpt>
      <trkpt lat="47.69911" lon="-3.44082">
        <ele>0.3</ele>
        <time>2021-11-25T15:15:59.000Z</time>
      </trkpt>
      <trkpt lat="47.69921" lon="-3.441">
        <ele>0.3</ele>
        <time>2021-11-25T15:15:56.000Z</time>
      </trkpt>
      <trkpt lat="47.69924" lon="-3.44123">
        <ele>0.4</ele>
        <time>2021-11-25T15:15:53.000Z</time>
      </trkpt>
      <trkpt lat="47.69922" lon="-3.44147">
        <ele>5.1</ele>
        <time>2021-11-25T15:15:50.000Z</time>
      </trkpt>
      <trkpt lat="47.6992" lon="-3.4417">
        <ele>0.4</ele>
        <time>2021-11-25T15:15:47.000Z</time>
      </trkpt>
      <trkpt lat="47.6993" lon="-3.44186">
        <ele>5.8</ele>
        <time>2021-11-25T15:15:44.000Z</time>
      </trkpt>
      <trkpt lat="47.69944" lon="-3.44196">
        <ele>0.5</ele>
        <time>2021-11-25T15:15:41.000Z</time>
      </trkpt>
      <trkpt lat="47.69962" lon="-3.44208">
        <ele>2.4</ele>
        <time>2021-11-25T15:15:38.000Z</time>
      </trkpt>
      <trkpt lat="47.69977" lon="-3.44224">
        <ele>3.1</ele>
        <time>2021-11-25T15:15:35.000Z</time>
      </trkpt>
      <trkpt lat="47.6999" lon="-3.44239">
        <ele>4.5</ele>
        <time>2021-11-25T15:15:32.000Z</time>
      </trkpt>
      <trkpt lat="47.69997" lon="-3.44254">
        <ele>4.9</ele>
        <time>2021-11-25T15:15:29.000Z</time>
      </trkpt>
      <trkpt lat="47.69997" lon="-3.44271">
        <ele>4.3</ele>
        <time>2021-11-25T15:15:26.000Z</time>
      </trkpt>
      <trkpt lat="47.69988" lon="-3.44285">
        <ele>4.3</ele>
        <time>2021-11-25T15:15:23.000Z</time>
      </trkpt>
      <trkpt lat="47.69979" lon="-3.44298">
        <ele>3.1</ele>
        <time>2021-11-25T15:15:20.000Z</time>
      </trkpt>
      <trkpt lat="47.69976" lon="-3.44314">
        <ele>1.9</ele>
        <time>2021-11-25T15:15:17.000Z</time>
      </trkpt>
      <trkpt lat="47.69986" lon="-3.44329">
        <ele>2.6</ele>
        <time>2021-11-25T15:15:14.000Z</time>
      </trkpt>
      <trkpt lat="47.69995" lon="-3.44345">
        <ele>3.5</ele>
        <time>2021-11-25T15:15:11.000Z</time>
      </trkpt>
      <trkpt lat="47.70001" lon="-3.44361">
        <ele>3</ele>
        <time>2021-11-25T15:15:08.000Z</time>
      </trkpt>
      <trkpt lat="47.70004" lon="-3.44377">
        <ele>3.3</ele>
        <time>2021-11-25T15:15:05.000Z</time>
      </trkpt>
      <trkpt lat="47.70004" lon="-3.4439">
        <ele>2.5</ele>
        <time>2021-11-25T15:15:02.000Z</time>
      </trkpt>
      <trkpt lat="47.70004" lon="-3.44405">
        <ele>3.6</ele>
        <time>2021-11-25T15:14:59.000Z</time>
      </trkpt>
      <trkpt lat="47.70002" lon="-3.44421">
        <ele>4.3</ele>
        <time>2021-11-25T15:14:56.000Z</time>
      </trkpt>
      <trkpt lat="47.69997" lon="-3.44437">
        <ele>0.7</ele>
        <time>2021-11-25T15:14:53.000Z</time>
      </trkpt>
      <trkpt lat="47.69992" lon="-3.44453">
        <ele>2.5</ele>
        <time>2021-11-25T15:14:50.000Z</time>
      </trkpt>
      <trkpt lat="47.69986" lon="-3.4447">
        <ele>1.9</ele>
        <time>2021-11-25T15:14:47.000Z</time>
      </trkpt>
      <trkpt lat="47.6998" lon="-3.44485">
        <ele>3.2</ele>
        <time>2021-11-25T15:14:44.000Z</time>
      </trkpt>
      <trkpt lat="47.69974" lon="-3.44502">
        <ele>3.3</ele>
        <time>2021-11-25T15:14:41.000Z</time>
      </trkpt>
      <trkpt lat="47.69968" lon="-3.44518">
        <ele>0.5</ele>
        <time>2021-11-25T15:14:38.000Z</time>
      </trkpt>
      <trkpt lat="47.69963" lon="-3.44534">
        <ele>1.3</ele>
        <time>2021-11-25T15:14:35.000Z</time>
      </trkpt>
      <trkpt lat="47.69959" lon="-3.44549">
        <ele>2.2</ele>
        <time>2021-11-25T15:14:32.000Z</time>
      </trkpt>
      <trkpt lat="47.69954" lon="-3.4456">
        <ele>0.8</ele>
        <time>2021-11-25T15:14:29.000Z</time>
      </trkpt>
      <trkpt lat="47.69947" lon="-3.44585">
        <ele>-2.4</ele>
        <time>2021-11-25T15:14:26.000Z</time>
      </trkpt>
      <trkpt lat="47.69936" lon="-3.44611">
        <ele>0.5</ele>
        <time>2021-11-25T15:14:23.000Z</time>
      </trkpt>
      <trkpt lat="47.69925" lon="-3.44636">
        <ele>0.8</ele>
        <time>2021-11-25T15:14:20.000Z</time>
      </trkpt>
      <trkpt lat="47.69917" lon="-3.4466">
        <ele>1.6</ele>
        <time>2021-11-25T15:14:17.000Z</time>
      </trkpt>
      <trkpt lat="47.69911" lon="-3.44684">
        <ele>2.7</ele>
        <time>2021-11-25T15:14:14.000Z</time>
      </trkpt>
      <trkpt lat="47.69905" lon="-3.44711">
        <ele>2.8</ele>
        <time>2021-11-25T15:14:11.000Z</time>
      </trkpt>
      <trkpt lat="47.69899" lon="-3.44738">
        <ele>3.2</ele>
        <time>2021-11-25T15:14:08.000Z</time>
      </trkpt>
      <trkpt lat="47.69893" lon="-3.44765">
        <ele>8.4</ele>
        <time>2021-11-25T15:14:05.000Z</time>
      </trkpt>
      <trkpt lat="47.69886" lon="-3.44793">
        <ele>6.6</ele>
        <time>2021-11-25T15:14:02.000Z</time>
      </trkpt>
      <trkpt lat="47.69878" lon="-3.44819">
        <ele>6.9</ele>
        <time>2021-11-25T15:13:59.000Z</time>
      </trkpt>
      <trkpt lat="47.69872" lon="-3.44842">
        <ele>8</ele>
        <time>2021-11-25T15:13:56.000Z</time>
      </trkpt>
      <trkpt lat="47.69878" lon="-3.44857">
        <ele>9</ele>
        <time>2021-11-25T15:13:53.000Z</time>
      </trkpt>
      <trkpt lat="47.69891" lon="-3.44862">
        <ele>10.4</ele>
        <time>2021-11-25T15:13:50.000Z</time>
      </trkpt>
      <trkpt lat="47.69903" lon="-3.44866">
        <ele>9.7</ele>
        <time>2021-11-25T15:13:47.000Z</time>
      </trkpt>
      <trkpt lat="47.69907" lon="-3.4488">
        <ele>9.2</ele>
        <time>2021-11-25T15:13:44.000Z</time>
      </trkpt>
      <trkpt lat="47.69909" lon="-3.449">
        <ele>10.2</ele>
        <time>2021-11-25T15:13:41.000Z</time>
      </trkpt>
      <trkpt lat="47.6991" lon="-3.44921">
        <ele>10.2</ele>
        <time>2021-11-25T15:13:38.000Z</time>
      </trkpt>
      <trkpt lat="47.69911" lon="-3.44942">
        <ele>9.8</ele>
        <time>2021-11-25T15:13:35.000Z</time>
      </trkpt>
      <trkpt lat="47.69911" lon="-3.44963">
        <ele>10.2</ele>
        <time>2021-11-25T15:13:32.000Z</time>
      </trkpt>
      <trkpt lat="47.69912" lon="-3.44984">
        <ele>10.2</ele>
        <time>2021-11-25T15:13:29.000Z</time>
      </trkpt>
      <trkpt lat="47.69913" lon="-3.45005">
        <ele>11.5</ele>
        <time>2021-11-25T15:13:26.000Z</time>
      </trkpt>
      <trkpt lat="47.69913" lon="-3.45026">
        <ele>10.1</ele>
        <time>2021-11-25T15:13:23.000Z</time>
      </trkpt>
      <trkpt lat="47.69914" lon="-3.45046">
        <ele>10.2</ele>
        <time>2021-11-25T15:13:20.000Z</time>
      </trkpt>
      <trkpt lat="47.69915" lon="-3.45066">
        <ele>10.3</ele>
        <time>2021-11-25T15:13:17.000Z</time>
      </trkpt>
      <trkpt lat="47.69918" lon="-3.45084">
        <ele>10.5</ele>
        <time>2021-11-25T15:13:14.000Z</time>
      </trkpt>
      <trkpt lat="47.69923" lon="-3.45101">
        <ele>9</ele>
        <time>2021-11-25T15:13:11.000Z</time>
      </trkpt>
      <trkpt lat="47.6993" lon="-3.45117">
        <ele>7.5</ele>
        <time>2021-11-25T15:13:08.000Z</time>
      </trkpt>
      <trkpt lat="47.69939" lon="-3.45133">
        <ele>8</ele>
        <time>2021-11-25T15:13:05.000Z</time>
      </trkpt>
      <trkpt lat="47.69949" lon="-3.45149">
        <ele>7.2</ele>
        <time>2021-11-25T15:13:02.000Z</time>
      </trkpt>
      <trkpt lat="47.69959" lon="-3.45168">
        <ele>7.6</ele>
        <time>2021-11-25T15:12:59.000Z</time>
      </trkpt>
      <trkpt lat="47.69969" lon="-3.45188">
        <ele>9</ele>
        <time>2021-11-25T15:12:56.000Z</time>
      </trkpt>
      <trkpt lat="47.69978" lon="-3.45207">
        <ele>9.5</ele>
        <time>2021-11-25T15:12:53.000Z</time>
      </trkpt>
      <trkpt lat="47.69983" lon="-3.45227">
        <ele>9.2</ele>
        <time>2021-11-25T15:12:50.000Z</time>
      </trkpt>
      <trkpt lat="47.69986" lon="-3.45248">
        <ele>8.6</ele>
        <time>2021-11-25T15:12:47.000Z</time>
      </trkpt>
      <trkpt lat="47.69987" lon="-3.45268">
        <ele>10.1</ele>
        <time>2021-11-25T15:12:44.000Z</time>
      </trkpt>
      <trkpt lat="47.69985" lon="-3.45288">
        <ele>9.6</ele>
        <time>2021-11-25T15:12:41.000Z</time>
      </trkpt>
      <trkpt lat="47.69982" lon="-3.45307">
        <ele>10.7</ele>
        <time>2021-11-25T15:12:38.000Z</time>
      </trkpt>
      <trkpt lat="47.69978" lon="-3.45325">
        <ele>11.1</ele>
        <time>2021-11-25T15:12:35.000Z</time>
      </trkpt>
      <trkpt lat="47.69974" lon="-3.45342">
        <ele>10</ele>
        <time>2021-11-25T15:12:32.000Z</time>
      </trkpt>
      <trkpt lat="47.6997" lon="-3.45358">
        <ele>11.5</ele>
        <time>2021-11-25T15:12:29.000Z</time>
      </trkpt>
      <trkpt lat="47.69967" lon="-3.45373">
        <ele>11.4</ele>
        <time>2021-11-25T15:12:26.000Z</time>
      </trkpt>
      <trkpt lat="47.69963" lon="-3.45387">
        <ele>10.7</ele>
        <time>2021-11-25T15:12:23.000Z</time>
      </trkpt>
      <trkpt lat="47.69961" lon="-3.45401">
        <ele>12</ele>
        <time>2021-11-25T15:12:20.000Z</time>
      </trkpt>
      <trkpt lat="47.69959" lon="-3.45415">
        <ele>10.8</ele>
        <time>2021-11-25T15:12:17.000Z</time>
      </trkpt>
      <trkpt lat="47.69959" lon="-3.45428">
        <ele>12.6</ele>
        <time>2021-11-25T15:12:14.000Z</time>
      </trkpt>
      <trkpt lat="47.69957" lon="-3.45439">
        <ele>13</ele>
        <time>2021-11-25T15:12:11.000Z</time>
      </trkpt>
      <trkpt lat="47.69955" lon="-3.45451">
        <ele>11.8</ele>
        <time>2021-11-25T15:12:08.000Z</time>
      </trkpt>
      <trkpt lat="47.69954" lon="-3.45465">
        <ele>9.9</ele>
        <time>2021-11-25T15:12:05.000Z</time>
      </trkpt>
      <trkpt lat="47.69953" lon="-3.45479">
        <ele>11.7</ele>
        <time>2021-11-25T15:12:02.000Z</time>
      </trkpt>
      <trkpt lat="47.69953" lon="-3.45494">
        <ele>10.9</ele>
        <time>2021-11-25T15:11:59.000Z</time>
      </trkpt>
      <trkpt lat="47.69954" lon="-3.45508">
        <ele>6.2</ele>
        <time>2021-11-25T15:11:56.000Z</time>
      </trkpt>
      <trkpt lat="47.69956" lon="-3.45521">
        <ele>7.9</ele>
        <time>2021-11-25T15:11:53.000Z</time>
      </trkpt>
      <trkpt lat="47.69958" lon="-3.45535">
        <ele>11.4</ele>
        <time>2021-11-25T15:11:50.000Z</time>
      </trkpt>
      <trkpt lat="47.69959" lon="-3.45549">
        <ele>9.6</ele>
        <time>2021-11-25T15:11:47.000Z</time>
      </trkpt>
      <trkpt lat="47.69961" lon="-3.45562">
        <ele>7.8</ele>
        <time>2021-11-25T15:11:44.000Z</time>
      </trkpt>
      <trkpt lat="47.69962" lon="-3.45577">
        <ele>10</ele>
        <time>2021-11-25T15:11:41.000Z</time>
      </trkpt>
      <trkpt lat="47.69963" lon="-3.45594">
        <ele>5.8</ele>
        <time>2021-11-25T15:11:38.000Z</time>
      </trkpt>
      <trkpt lat="47.69965" lon="-3.45612">
        <ele>6.5</ele>
        <time>2021-11-25T15:11:35.000Z</time>
      </trkpt>
      <trkpt lat="47.69968" lon="-3.45631">
        <ele>5.3</ele>
        <time>2021-11-25T15:11:32.000Z</time>
      </trkpt>
      <trkpt lat="47.6997" lon="-3.45649">
        <ele>6.6</ele>
        <time>2021-11-25T15:11:29.000Z</time>
      </trkpt>
      <trkpt lat="47.69973" lon="-3.45667">
        <ele>6</ele>
        <time>2021-11-25T15:11:26.000Z</time>
      </trkpt>
      <trkpt lat="47.69975" lon="-3.45683">
        <ele>7.3</ele>
        <time>2021-11-25T15:11:23.000Z</time>
      </trkpt>
      <trkpt lat="47.69976" lon="-3.45699">
        <ele>5</ele>
        <time>2021-11-25T15:11:20.000Z</time>
      </trkpt>
      <trkpt lat="47.69979" lon="-3.45715">
        <ele>4.8</ele>
        <time>2021-11-25T15:11:17.000Z</time>
      </trkpt>
      <trkpt lat="47.69981" lon="-3.45732">
        <ele>5.7</ele>
        <time>2021-11-25T15:11:14.000Z</time>
      </trkpt>
      <trkpt lat="47.69983" lon="-3.4575">
        <ele>3.3</ele>
        <time>2021-11-25T15:11:11.000Z</time>
      </trkpt>
      <trkpt lat="47.69987" lon="-3.45768">
        <ele>4.1</ele>
        <time>2021-11-25T15:11:08.000Z</time>
      </trkpt>
      <trkpt lat="47.69994" lon="-3.45784">
        <ele>3</ele>
        <time>2021-11-25T15:11:05.000Z</time>
      </trkpt>
      <trkpt lat="47.70001" lon="-3.458">
        <ele>4.5</ele>
        <time>2021-11-25T15:11:02.000Z</time>
      </trkpt>
      <trkpt lat="47.70009" lon="-3.45816">
        <ele>5.3</ele>
        <time>2021-11-25T15:10:59.000Z</time>
      </trkpt>
      <trkpt lat="47.70015" lon="-3.45833">
        <ele>4.1</ele>
        <time>2021-11-25T15:10:56.000Z</time>
      </trkpt>
      <trkpt lat="47.70019" lon="-3.45853">
        <ele>5</ele>
        <time>2021-11-25T15:10:53.000Z</time>
      </trkpt>
      <trkpt lat="47.70022" lon="-3.45871">
        <ele>4.5</ele>
        <time>2021-11-25T15:10:50.000Z</time>
      </trkpt>
      <trkpt lat="47.70031" lon="-3.45876">
        <ele>5.1</ele>
        <time>2021-11-25T15:10:47.000Z</time>
      </trkpt>
      <trkpt lat="47.70044" lon="-3.45873">
        <ele>6.1</ele>
        <time>2021-11-25T15:10:44.000Z</time>
      </trkpt>
      <trkpt lat="47.70055" lon="-3.45879">
        <ele>6.4</ele>
        <time>2021-11-25T15:10:41.000Z</time>
      </trkpt>
      <trkpt lat="47.70065" lon="-3.45889">
        <ele>3.9</ele>
        <time>2021-11-25T15:10:38.000Z</time>
      </trkpt>
      <trkpt lat="47.70075" lon="-3.459">
        <ele>4.6</ele>
        <time>2021-11-25T15:10:35.000Z</time>
      </trkpt>
      <trkpt lat="47.70087" lon="-3.45906">
        <ele>3.7</ele>
        <time>2021-11-25T15:10:32.000Z</time>
      </trkpt>
      <trkpt lat="47.70101" lon="-3.45907">
        <ele>3.8</ele>
        <time>2021-11-25T15:10:29.000Z</time>
      </trkpt>
      <trkpt lat="47.70113" lon="-3.45901">
        <ele>2.7</ele>
        <time>2021-11-25T15:10:26.000Z</time>
      </trkpt>
      <trkpt lat="47.70127" lon="-3.45893">
        <ele>2.2</ele>
        <time>2021-11-25T15:10:23.000Z</time>
      </trkpt>
      <trkpt lat="47.70141" lon="-3.45891">
        <ele>3</ele>
        <time>2021-11-25T15:10:20.000Z</time>
      </trkpt>
      <trkpt lat="47.70154" lon="-3.4589">
        <ele>5.2</ele>
        <time>2021-11-25T15:10:17.000Z</time>
      </trkpt>
      <trkpt lat="47.70167" lon="-3.45885">
        <ele>2.8</ele>
        <time>2021-11-25T15:10:14.000Z</time>
      </trkpt>
      <trkpt lat="47.70179" lon="-3.45884">
        <ele>3</ele>
        <time>2021-11-25T15:10:11.000Z</time>
      </trkpt>
      <trkpt lat="47.70191" lon="-3.4588">
        <ele>2.2</ele>
        <time>2021-11-25T15:10:08.000Z</time>
      </trkpt>
      <trkpt lat="47.70202" lon="-3.45875">
        <ele>2.7</ele>
        <time>2021-11-25T15:10:05.000Z</time>
      </trkpt>
      <trkpt lat="47.70214" lon="-3.45873">
        <ele>1.7</ele>
        <time>2021-11-25T15:10:02.000Z</time>
      </trkpt>
      <trkpt lat="47.70228" lon="-3.45872">
        <ele>1</ele>
        <time>2021-11-25T15:09:59.000Z</time>
      </trkpt>
      <trkpt lat="47.70243" lon="-3.45871">
        <ele>-0.2</ele>
        <time>2021-11-25T15:09:56.000Z</time>
      </trkpt>
      <trkpt lat="47.70257" lon="-3.45866">
        <ele>-0.9</ele>
        <time>2021-11-25T15:09:53.000Z</time>
      </trkpt>
      <trkpt lat="47.70269" lon="-3.45857">
        <ele>1.7</ele>
        <time>2021-11-25T15:09:50.000Z</time>
      </trkpt>
      <trkpt lat="47.70283" lon="-3.4586">
        <ele>1.3</ele>
        <time>2021-11-25T15:09:47.000Z</time>
      </trkpt>
      <trkpt lat="47.70296" lon="-3.45864">
        <ele>1.8</ele>
        <time>2021-11-25T15:09:44.000Z</time>
      </trkpt>
      <trkpt lat="47.7031" lon="-3.45864">
        <ele>2.5</ele>
        <time>2021-11-25T15:09:41.000Z</time>
      </trkpt>
      <trkpt lat="47.70324" lon="-3.45864">
        <ele>2.8</ele>
        <time>2021-11-25T15:09:38.000Z</time>
      </trkpt>
      <trkpt lat="47.70338" lon="-3.45862">
        <ele>2.4</ele>
        <time>2021-11-25T15:09:35.000Z</time>
      </trkpt>
      <trkpt lat="47.70351" lon="-3.4586">
        <ele>1.9</ele>
        <time>2021-11-25T15:09:32.000Z</time>
      </trkpt>
      <trkpt lat="47.70363" lon="-3.45856">
        <ele>3.5</ele>
        <time>2021-11-25T15:09:29.000Z</time>
      </trkpt>
      <trkpt lat="47.70378" lon="-3.45855">
        <ele>4.8</ele>
        <time>2021-11-25T15:09:26.000Z</time>
      </trkpt>
      <trkpt lat="47.70393" lon="-3.45855">
        <ele>4.4</ele>
        <time>2021-11-25T15:09:23.000Z</time>
      </trkpt>
      <trkpt lat="47.70405" lon="-3.4586">
        <ele>5.3</ele>
        <time>2021-11-25T15:09:20.000Z</time>
      </trkpt>
      <trkpt lat="47.70418" lon="-3.45865">
        <ele>5.4</ele>
        <time>2021-11-25T15:09:17.000Z</time>
      </trkpt>
      <trkpt lat="47.70429" lon="-3.45875">
        <ele>6.6</ele>
        <time>2021-11-25T15:09:14.000Z</time>
      </trkpt>
      <trkpt lat="47.70437" lon="-3.45894">
        <ele>6.8</ele>
        <time>2021-11-25T15:09:11.000Z</time>
      </trkpt>
      <trkpt lat="47.70446" lon="-3.45915">
        <ele>7.9</ele>
        <time>2021-11-25T15:09:08.000Z</time>
      </trkpt>
      <trkpt lat="47.70456" lon="-3.45934">
        <ele>8.2</ele>
        <time>2021-11-25T15:09:05.000Z</time>
      </trkpt>
      <trkpt lat="47.70466" lon="-3.45951">
        <ele>9.1</ele>
        <time>2021-11-25T15:09:02.000Z</time>
      </trkpt>
      <trkpt lat="47.70475" lon="-3.45966">
        <ele>9.5</ele>
        <time>2021-11-25T15:08:59.000Z</time>
      </trkpt>
      <trkpt lat="47.70484" lon="-3.45981">
        <ele>9.2</ele>
        <time>2021-11-25T15:08:56.000Z</time>
      </trkpt>
      <trkpt lat="47.70493" lon="-3.45997">
        <ele>8.7</ele>
        <time>2021-11-25T15:08:53.000Z</time>
      </trkpt>
      <trkpt lat="47.70504" lon="-3.46016">
        <ele>6.5</ele>
        <time>2021-11-25T15:08:50.000Z</time>
      </trkpt>
      <trkpt lat="47.70516" lon="-3.46036">
        <ele>9.1</ele>
        <time>2021-11-25T15:08:47.000Z</time>
      </trkpt>
      <trkpt lat="47.70528" lon="-3.46056">
        <ele>8.2</ele>
        <time>2021-11-25T15:08:44.000Z</time>
      </trkpt>
      <trkpt lat="47.70538" lon="-3.46075">
        <ele>9.5</ele>
        <time>2021-11-25T15:08:41.000Z</time>
      </trkpt>
      <trkpt lat="47.70547" lon="-3.46091">
        <ele>9.9</ele>
        <time>2021-11-25T15:08:38.000Z</time>
      </trkpt>
      <trkpt lat="47.70556" lon="-3.46105">
        <ele>9.8</ele>
        <time>2021-11-25T15:08:35.000Z</time>
      </trkpt>
      <trkpt lat="47.70563" lon="-3.46119">
        <ele>9.8</ele>
        <time>2021-11-25T15:08:32.000Z</time>
      </trkpt>
      <trkpt lat="47.70571" lon="-3.46132">
        <ele>10.6</ele>
        <time>2021-11-25T15:08:29.000Z</time>
      </trkpt>
      <trkpt lat="47.70579" lon="-3.46146">
        <ele>9</ele>
        <time>2021-11-25T15:08:26.000Z</time>
      </trkpt>
      <trkpt lat="47.70586" lon="-3.46159">
        <ele>8.4</ele>
        <time>2021-11-25T15:08:23.000Z</time>
      </trkpt>
      <trkpt lat="47.70594" lon="-3.46173">
        <ele>7.1</ele>
        <time>2021-11-25T15:08:20.000Z</time>
      </trkpt>
      <trkpt lat="47.70603" lon="-3.46189">
        <ele>6.9</ele>
        <time>2021-11-25T15:08:17.000Z</time>
      </trkpt>
      <trkpt lat="47.70613" lon="-3.46208">
        <ele>5.2</ele>
        <time>2021-11-25T15:08:14.000Z</time>
      </trkpt>
      <trkpt lat="47.70625" lon="-3.46228">
        <ele>4.4</ele>
        <time>2021-11-25T15:08:11.000Z</time>
      </trkpt>
      <trkpt lat="47.70635" lon="-3.46248">
        <ele>5.4</ele>
        <time>2021-11-25T15:08:08.000Z</time>
      </trkpt>
      <trkpt lat="47.70646" lon="-3.46266">
        <ele>7.4</ele>
        <time>2021-11-25T15:08:05.000Z</time>
      </trkpt>
      <trkpt lat="47.70655" lon="-3.46283">
        <ele>6.1</ele>
        <time>2021-11-25T15:08:02.000Z</time>
      </trkpt>
      <trkpt lat="47.70652" lon="-3.46304">
        <ele>5.3</ele>
        <time>2021-11-25T15:07:59.000Z</time>
      </trkpt>
      <trkpt lat="47.70651" lon="-3.46323">
        <ele>7.5</ele>
        <time>2021-11-25T15:07:56.000Z</time>
      </trkpt>
      <trkpt lat="47.70661" lon="-3.46334">
        <ele>9.2</ele>
        <time>2021-11-25T15:07:53.000Z</time>
      </trkpt>
      <trkpt lat="47.70671" lon="-3.46328">
        <ele>9.8</ele>
        <time>2021-11-25T15:07:50.000Z</time>
      </trkpt>
      <trkpt lat="47.70682" lon="-3.46333">
        <ele>9.2</ele>
        <time>2021-11-25T15:07:47.000Z</time>
      </trkpt>
      <trkpt lat="47.70692" lon="-3.46349">
        <ele>12.4</ele>
        <time>2021-11-25T15:07:44.000Z</time>
      </trkpt>
      <trkpt lat="47.70701" lon="-3.46365">
        <ele>11.8</ele>
        <time>2021-11-25T15:07:41.000Z</time>
      </trkpt>
      <trkpt lat="47.7071" lon="-3.46381">
        <ele>10.3</ele>
        <time>2021-11-25T15:07:38.000Z</time>
      </trkpt>
      <trkpt lat="47.70718" lon="-3.46396">
        <ele>11.6</ele>
        <time>2021-11-25T15:07:35.000Z</time>
      </trkpt>
      <trkpt lat="47.70727" lon="-3.46412">
        <ele>10.3</ele>
        <time>2021-11-25T15:07:32.000Z</time>
      </trkpt>
      <trkpt lat="47.70736" lon="-3.46428">
        <ele>9.2</ele>
        <time>2021-11-25T15:07:29.000Z</time>
      </trkpt>
      <trkpt lat="47.70746" lon="-3.46446">
        <ele>8.9</ele>
        <time>2021-11-25T15:07:26.000Z</time>
      </trkpt>
      <trkpt lat="47.70756" lon="-3.46464">
        <ele>9.1</ele>
        <time>2021-11-25T15:07:23.000Z</time>
      </trkpt>
      <trkpt lat="47.70767" lon="-3.46483">
        <ele>7.5</ele>
        <time>2021-11-25T15:07:20.000Z</time>
      </trkpt>
      <trkpt lat="47.70777" lon="-3.46499">
        <ele>8.4</ele>
        <time>2021-11-25T15:07:17.000Z</time>
      </trkpt>
      <trkpt lat="47.70786" lon="-3.46515">
        <ele>8.5</ele>
        <time>2021-11-25T15:07:14.000Z</time>
      </trkpt>
      <trkpt lat="47.70797" lon="-3.46533">
        <ele>9.2</ele>
        <time>2021-11-25T15:07:11.000Z</time>
      </trkpt>
      <trkpt lat="47.70808" lon="-3.4655">
        <ele>9.2</ele>
        <time>2021-11-25T15:07:08.000Z</time>
      </trkpt>
      <trkpt lat="47.70818" lon="-3.46567">
        <ele>9.5</ele>
        <time>2021-11-25T15:07:05.000Z</time>
      </trkpt>
      <trkpt lat="47.70828" lon="-3.46585">
        <ele>9.4</ele>
        <time>2021-11-25T15:07:02.000Z</time>
      </trkpt>
      <trkpt lat="47.70838" lon="-3.46601">
        <ele>8.4</ele>
        <time>2021-11-25T15:06:59.000Z</time>
      </trkpt>
      <trkpt lat="47.70849" lon="-3.46619">
        <ele>8.4</ele>
        <time>2021-11-25T15:06:56.000Z</time>
      </trkpt>
      <trkpt lat="47.70858" lon="-3.46635">
        <ele>9.3</ele>
        <time>2021-11-25T15:06:53.000Z</time>
      </trkpt>
      <trkpt lat="47.70867" lon="-3.46652">
        <ele>9.2</ele>
        <time>2021-11-25T15:06:50.000Z</time>
      </trkpt>
      <trkpt lat="47.70876" lon="-3.46669">
        <ele>9</ele>
        <time>2021-11-25T15:06:47.000Z</time>
      </trkpt>
      <trkpt lat="47.70885" lon="-3.46686">
        <ele>9.1</ele>
        <time>2021-11-25T15:06:44.000Z</time>
      </trkpt>
      <trkpt lat="47.70894" lon="-3.46703">
        <ele>10.4</ele>
        <time>2021-11-25T15:06:41.000Z</time>
      </trkpt>
      <trkpt lat="47.70902" lon="-3.4672">
        <ele>9</ele>
        <time>2021-11-25T15:06:38.000Z</time>
      </trkpt>
      <trkpt lat="47.7091" lon="-3.46736">
        <ele>8</ele>
        <time>2021-11-25T15:06:35.000Z</time>
      </trkpt>
      <trkpt lat="47.70919" lon="-3.46753">
        <ele>9.9</ele>
        <time>2021-11-25T15:06:32.000Z</time>
      </trkpt>
      <trkpt lat="47.70927" lon="-3.46769">
        <ele>9</ele>
        <time>2021-11-25T15:06:29.000Z</time>
      </trkpt>
      <trkpt lat="47.70935" lon="-3.46784">
        <ele>7.3</ele>
        <time>2021-11-25T15:06:26.000Z</time>
      </trkpt>
      <trkpt lat="47.70943" lon="-3.46799">
        <ele>7.9</ele>
        <time>2021-11-25T15:06:23.000Z</time>
      </trkpt>
      <trkpt lat="47.70951" lon="-3.46814">
        <ele>6.8</ele>
        <time>2021-11-25T15:06:20.000Z</time>
      </trkpt>
      <trkpt lat="47.70959" lon="-3.46828">
        <ele>6.8</ele>
        <time>2021-11-25T15:06:17.000Z</time>
      </trkpt>
      <trkpt lat="47.70966" lon="-3.46844">
        <ele>7.2</ele>
        <time>2021-11-25T15:06:14.000Z</time>
      </trkpt>
      <trkpt lat="47.70972" lon="-3.46861">
        <ele>7</ele>
        <time>2021-11-25T15:06:11.000Z</time>
      </trkpt>
      <trkpt lat="47.70975" lon="-3.46879">
        <ele>7.3</ele>
        <time>2021-11-25T15:06:08.000Z</time>
      </trkpt>
      <trkpt lat="47.70981" lon="-3.46892">
        <ele>6.4</ele>
        <time>2021-11-25T15:06:05.000Z</time>
      </trkpt>
      <trkpt lat="47.70988" lon="-3.46906">
        <ele>6.6</ele>
        <time>2021-11-25T15:06:02.000Z</time>
      </trkpt>
      <trkpt lat="47.70996" lon="-3.46919">
        <ele>4.8</ele>
        <time>2021-11-25T15:05:59.000Z</time>
      </trkpt>
      <trkpt lat="47.71004" lon="-3.46933">
        <ele>6.8</ele>
        <time>2021-11-25T15:05:56.000Z</time>
      </trkpt>
      <trkpt lat="47.71008" lon="-3.46948">
        <ele>1.5</ele>
        <time>2021-11-25T15:05:53.000Z</time>
      </trkpt>
      <trkpt lat="47.71011" lon="-3.46961">
        <ele>5.3</ele>
        <time>2021-11-25T15:05:50.000Z</time>
      </trkpt>
      <trkpt lat="47.71022" lon="-3.46964">
        <ele>3.7</ele>
        <time>2021-11-25T15:05:47.000Z</time>
      </trkpt>
      <trkpt lat="47.71032" lon="-3.46975">
        <ele>2.7</ele>
        <time>2021-11-25T15:05:44.000Z</time>
      </trkpt>
      <trkpt lat="47.7104" lon="-3.46991">
        <ele>3.2</ele>
        <time>2021-11-25T15:05:41.000Z</time>
      </trkpt>
      <trkpt lat="47.71049" lon="-3.47007">
        <ele>1.6</ele>
        <time>2021-11-25T15:05:38.000Z</time>
      </trkpt>
      <trkpt lat="47.71058" lon="-3.47025">
        <ele>2</ele>
        <time>2021-11-25T15:05:35.000Z</time>
      </trkpt>
      <trkpt lat="47.71066" lon="-3.47045">
        <ele>1.1</ele>
        <time>2021-11-25T15:05:32.000Z</time>
      </trkpt>
      <trkpt lat="47.71075" lon="-3.47063">
        <ele>2</ele>
        <time>2021-11-25T15:05:29.000Z</time>
      </trkpt>
      <trkpt lat="47.71085" lon="-3.47079">
        <ele>1.9</ele>
        <time>2021-11-25T15:05:26.000Z</time>
      </trkpt>
      <trkpt lat="47.71094" lon="-3.47094">
        <ele>2.6</ele>
        <time>2021-11-25T15:05:23.000Z</time>
      </trkpt>
      <trkpt lat="47.711" lon="-3.47107">
        <ele>2.9</ele>
        <time>2021-11-25T15:05:20.000Z</time>
      </trkpt>
      <trkpt lat="47.71105" lon="-3.47117">
        <ele>4</ele>
        <time>2021-11-25T15:05:17.000Z</time>
      </trkpt>
      <trkpt lat="47.71113" lon="-3.47134">
        <ele>3.4</ele>
        <time>2021-11-25T15:05:14.000Z</time>
      </trkpt>
      <trkpt lat="47.71125" lon="-3.47153">
        <ele>3.8</ele>
        <time>2021-11-25T15:05:11.000Z</time>
      </trkpt>
      <trkpt lat="47.71137" lon="-3.47168">
        <ele>5.7</ele>
        <time>2021-11-25T15:05:08.000Z</time>
      </trkpt>
      <trkpt lat="47.71148" lon="-3.47183">
        <ele>4</ele>
        <time>2021-11-25T15:05:05.000Z</time>
      </trkpt>
      <trkpt lat="47.7116" lon="-3.47199">
        <ele>4.3</ele>
        <time>2021-11-25T15:05:02.000Z</time>
      </trkpt>
      <trkpt lat="47.71172" lon="-3.47214">
        <ele>3.5</ele>
        <time>2021-11-25T15:04:59.000Z</time>
      </trkpt>
      <trkpt lat="47.71184" lon="-3.47228">
        <ele>6.3</ele>
        <time>2021-11-25T15:04:56.000Z</time>
      </trkpt>
      <trkpt lat="47.71196" lon="-3.47243">
        <ele>5.4</ele>
        <time>2021-11-25T15:04:53.000Z</time>
      </trkpt>
      <trkpt lat="47.7121" lon="-3.47256">
        <ele>5.5</ele>
        <time>2021-11-25T15:04:50.000Z</time>
      </trkpt>
      <trkpt lat="47.71223" lon="-3.4727">
        <ele>4.8</ele>
        <time>2021-11-25T15:04:47.000Z</time>
      </trkpt>
      <trkpt lat="47.71236" lon="-3.47283">
        <ele>4.9</ele>
        <time>2021-11-25T15:04:44.000Z</time>
      </trkpt>
      <trkpt lat="47.71249" lon="-3.47296">
        <ele>5.9</ele>
        <time>2021-11-25T15:04:41.000Z</time>
      </trkpt>
      <trkpt lat="47.71263" lon="-3.4731">
        <ele>6.2</ele>
        <time>2021-11-25T15:04:38.000Z</time>
      </trkpt>
      <trkpt lat="47.71276" lon="-3.47324">
        <ele>8.4</ele>
        <time>2021-11-25T15:04:35.000Z</time>
      </trkpt>
      <trkpt lat="47.71289" lon="-3.47337">
        <ele>5.9</ele>
        <time>2021-11-25T15:04:32.000Z</time>
      </trkpt>
      <trkpt lat="47.71302" lon="-3.4735">
        <ele>4.8</ele>
        <time>2021-11-25T15:04:29.000Z</time>
      </trkpt>
      <trkpt lat="47.71314" lon="-3.47363">
        <ele>2.4</ele>
        <time>2021-11-25T15:04:26.000Z</time>
      </trkpt>
      <trkpt lat="47.71326" lon="-3.47377">
        <ele>3.8</ele>
        <time>2021-11-25T15:04:23.000Z</time>
      </trkpt>
      <trkpt lat="47.71337" lon="-3.47392">
        <ele>3.6</ele>
        <time>2021-11-25T15:04:20.000Z</time>
      </trkpt>
      <trkpt lat="47.71351" lon="-3.47406">
        <ele>4.2</ele>
        <time>2021-11-25T15:04:17.000Z</time>
      </trkpt>
      <trkpt lat="47.71368" lon="-3.47413">
        <ele>3.8</ele>
        <time>2021-11-25T15:04:14.000Z</time>
      </trkpt>
      <trkpt lat="47.71383" lon="-3.47423">
        <ele>2.7</ele>
        <time>2021-11-25T15:04:11.000Z</time>
      </trkpt>
      <trkpt lat="47.71399" lon="-3.4744">
        <ele>2.7</ele>
        <time>2021-11-25T15:04:08.000Z</time>
      </trkpt>
      <trkpt lat="47.71416" lon="-3.47457">
        <ele>1.7</ele>
        <time>2021-11-25T15:04:05.000Z</time>
      </trkpt>
      <trkpt lat="47.71435" lon="-3.47476">
        <ele>2.6</ele>
        <time>2021-11-25T15:04:02.000Z</time>
      </trkpt>
      <trkpt lat="47.71455" lon="-3.47499">
        <ele>4</ele>
        <time>2021-11-25T15:03:59.000Z</time>
      </trkpt>
      <trkpt lat="47.71475" lon="-3.47522">
        <ele>4.2</ele>
        <time>2021-11-25T15:03:56.000Z</time>
      </trkpt>
      <trkpt lat="47.71495" lon="-3.47543">
        <ele>4.8</ele>
        <time>2021-11-25T15:03:53.000Z</time>
      </trkpt>
      <trkpt lat="47.71514" lon="-3.47563">
        <ele>7</ele>
        <time>2021-11-25T15:03:50.000Z</time>
      </trkpt>
      <trkpt lat="47.71531" lon="-3.47581">
        <ele>9.2</ele>
        <time>2021-11-25T15:03:47.000Z</time>
      </trkpt>
      <trkpt lat="47.71545" lon="-3.47599">
        <ele>9.8</ele>
        <time>2021-11-25T15:03:44.000Z</time>
      </trkpt>
      <trkpt lat="47.71561" lon="-3.47621">
        <ele>9</ele>
        <time>2021-11-25T15:03:41.000Z</time>
      </trkpt>
      <trkpt lat="47.71578" lon="-3.47647">
        <ele>9.7</ele>
        <time>2021-11-25T15:03:38.000Z</time>
      </trkpt>
      <trkpt lat="47.71595" lon="-3.47675">
        <ele>10.1</ele>
        <time>2021-11-25T15:03:35.000Z</time>
      </trkpt>
      <trkpt lat="47.71612" lon="-3.47704">
        <ele>11.7</ele>
        <time>2021-11-25T15:03:32.000Z</time>
      </trkpt>
      <trkpt lat="47.7163" lon="-3.47731">
        <ele>14.5</ele>
        <time>2021-11-25T15:03:29.000Z</time>
      </trkpt>
      <trkpt lat="47.71646" lon="-3.47756">
        <ele>14.8</ele>
        <time>2021-11-25T15:03:26.000Z</time>
      </trkpt>
      <trkpt lat="47.7166" lon="-3.47778">
        <ele>15.3</ele>
        <time>2021-11-25T15:03:23.000Z</time>
      </trkpt>
      <trkpt lat="47.71672" lon="-3.47798">
        <ele>14.9</ele>
        <time>2021-11-25T15:03:20.000Z</time>
      </trkpt>
      <trkpt lat="47.71684" lon="-3.47817">
        <ele>17.1</ele>
        <time>2021-11-25T15:03:17.000Z</time>
      </trkpt>
      <trkpt lat="47.71696" lon="-3.47836">
        <ele>18.4</ele>
        <time>2021-11-25T15:03:14.000Z</time>
      </trkpt>
      <trkpt lat="47.71708" lon="-3.47855">
        <ele>17</ele>
        <time>2021-11-25T15:03:11.000Z</time>
      </trkpt>
      <trkpt lat="47.71719" lon="-3.47873">
        <ele>17.8</ele>
        <time>2021-11-25T15:03:08.000Z</time>
      </trkpt>
      <trkpt lat="47.7173" lon="-3.47891">
        <ele>18.9</ele>
        <time>2021-11-25T15:03:05.000Z</time>
      </trkpt>
      <trkpt lat="47.71743" lon="-3.47908">
        <ele>18.9</ele>
        <time>2021-11-25T15:03:02.000Z</time>
      </trkpt>
      <trkpt lat="47.71756" lon="-3.47924">
        <ele>19.8</ele>
        <time>2021-11-25T15:02:59.000Z</time>
      </trkpt>
      <trkpt lat="47.71769" lon="-3.47938">
        <ele>20.2</ele>
        <time>2021-11-25T15:02:56.000Z</time>
      </trkpt>
      <trkpt lat="47.71783" lon="-3.4795">
        <ele>19.4</ele>
        <time>2021-11-25T15:02:53.000Z</time>
      </trkpt>
      <trkpt lat="47.71797" lon="-3.4796">
        <ele>18.6</ele>
        <time>2021-11-25T15:02:50.000Z</time>
      </trkpt>
      <trkpt lat="47.71811" lon="-3.47968">
        <ele>18.3</ele>
        <time>2021-11-25T15:02:47.000Z</time>
      </trkpt>
      <trkpt lat="47.71825" lon="-3.47976">
        <ele>18.6</ele>
        <time>2021-11-25T15:02:44.000Z</time>
      </trkpt>
      <trkpt lat="47.7184" lon="-3.47984">
        <ele>18.6</ele>
        <time>2021-11-25T15:02:41.000Z</time>
      </trkpt>
      <trkpt lat="47.71854" lon="-3.47992">
        <ele>17.4</ele>
        <time>2021-11-25T15:02:38.000Z</time>
      </trkpt>
      <trkpt lat="47.71868" lon="-3.48001">
        <ele>17.6</ele>
        <time>2021-11-25T15:02:35.000Z</time>
      </trkpt>
      <trkpt lat="47.71882" lon="-3.48009">
        <ele>17.5</ele>
        <time>2021-11-25T15:02:32.000Z</time>
      </trkpt>
      <trkpt lat="47.71897" lon="-3.48015">
        <ele>18.2</ele>
        <time>2021-11-25T15:02:29.000Z</time>
      </trkpt>
      <trkpt lat="47.71912" lon="-3.4802">
        <ele>17.2</ele>
        <time>2021-11-25T15:02:26.000Z</time>
      </trkpt>
      <trkpt lat="47.71927" lon="-3.48027">
        <ele>17.2</ele>
        <time>2021-11-25T15:02:23.000Z</time>
      </trkpt>
      <trkpt lat="47.71941" lon="-3.48034">
        <ele>16.6</ele>
        <time>2021-11-25T15:02:20.000Z</time>
      </trkpt>
      <trkpt lat="47.71955" lon="-3.48042">
        <ele>17.8</ele>
        <time>2021-11-25T15:02:17.000Z</time>
      </trkpt>
      <trkpt lat="47.7197" lon="-3.4805">
        <ele>16.4</ele>
        <time>2021-11-25T15:02:14.000Z</time>
      </trkpt>
      <trkpt lat="47.71983" lon="-3.48058">
        <ele>16.1</ele>
        <time>2021-11-25T15:02:11.000Z</time>
      </trkpt>
      <trkpt lat="47.71995" lon="-3.48067">
        <ele>15.9</ele>
        <time>2021-11-25T15:02:08.000Z</time>
      </trkpt>
      <trkpt lat="47.72007" lon="-3.48076">
        <ele>16.1</ele>
        <time>2021-11-25T15:02:05.000Z</time>
      </trkpt>
      <trkpt lat="47.72018" lon="-3.48086">
        <ele>15.5</ele>
        <time>2021-11-25T15:02:02.000Z</time>
      </trkpt>
      <trkpt lat="47.72029" lon="-3.48097">
        <ele>15</ele>
        <time>2021-11-25T15:01:59.000Z</time>
      </trkpt>
      <trkpt lat="47.72039" lon="-3.48109">
        <ele>13.3</ele>
        <time>2021-11-25T15:01:56.000Z</time>
      </trkpt>
      <trkpt lat="47.7205" lon="-3.48121">
        <ele>13.7</ele>
        <time>2021-11-25T15:01:53.000Z</time>
      </trkpt>
      <trkpt lat="47.72061" lon="-3.48135">
        <ele>13</ele>
        <time>2021-11-25T15:01:50.000Z</time>
      </trkpt>
      <trkpt lat="47.72073" lon="-3.48149">
        <ele>11.1</ele>
        <time>2021-11-25T15:01:47.000Z</time>
      </trkpt>
      <trkpt lat="47.72084" lon="-3.48163">
        <ele>12.2</ele>
        <time>2021-11-25T15:01:44.000Z</time>
      </trkpt>
      <trkpt lat="47.72096" lon="-3.48177">
        <ele>11</ele>
        <time>2021-11-25T15:01:41.000Z</time>
      </trkpt>
      <trkpt lat="47.72108" lon="-3.48192">
        <ele>10.5</ele>
        <time>2021-11-25T15:01:38.000Z</time>
      </trkpt>
      <trkpt lat="47.72119" lon="-3.48207">
        <ele>10.6</ele>
        <time>2021-11-25T15:01:35.000Z</time>
      </trkpt>
      <trkpt lat="47.72131" lon="-3.48222">
        <ele>10.5</ele>
        <time>2021-11-25T15:01:32.000Z</time>
      </trkpt>
      <trkpt lat="47.72143" lon="-3.48237">
        <ele>9.2</ele>
        <time>2021-11-25T15:01:29.000Z</time>
      </trkpt>
      <trkpt lat="47.72154" lon="-3.48251">
        <ele>8.9</ele>
        <time>2021-11-25T15:01:26.000Z</time>
      </trkpt>
      <trkpt lat="47.72165" lon="-3.48266">
        <ele>10.1</ele>
        <time>2021-11-25T15:01:23.000Z</time>
      </trkpt>
      <trkpt lat="47.72177" lon="-3.4828">
        <ele>9.2</ele>
        <time>2021-11-25T15:01:20.000Z</time>
      </trkpt>
      <trkpt lat="47.72188" lon="-3.48294">
        <ele>8.3</ele>
        <time>2021-11-25T15:01:17.000Z</time>
      </trkpt>
      <trkpt lat="47.72199" lon="-3.48308">
        <ele>8.4</ele>
        <time>2021-11-25T15:01:14.000Z</time>
      </trkpt>
      <trkpt lat="47.72211" lon="-3.48322">
        <ele>7.4</ele>
        <time>2021-11-25T15:01:11.000Z</time>
      </trkpt>
      <trkpt lat="47.72224" lon="-3.4834">
        <ele>4.5</ele>
        <time>2021-11-25T15:01:08.000Z</time>
      </trkpt>
      <trkpt lat="47.72239" lon="-3.48359">
        <ele>5.9</ele>
        <time>2021-11-25T15:01:05.000Z</time>
      </trkpt>
      <trkpt lat="47.72255" lon="-3.48378">
        <ele>6.2</ele>
        <time>2021-11-25T15:01:02.000Z</time>
      </trkpt>
      <trkpt lat="47.7227" lon="-3.48396">
        <ele>7.4</ele>
        <time>2021-11-25T15:00:59.000Z</time>
      </trkpt>
      <trkpt lat="47.72285" lon="-3.48414">
        <ele>6.1</ele>
        <time>2021-11-25T15:00:56.000Z</time>
      </trkpt>
      <trkpt lat="47.723" lon="-3.48432">
        <ele>7.3</ele>
        <time>2021-11-25T15:00:53.000Z</time>
      </trkpt>
      <trkpt lat="47.72314" lon="-3.48451">
        <ele>6.6</ele>
        <time>2021-11-25T15:00:50.000Z</time>
      </trkpt>
      <trkpt lat="47.72329" lon="-3.48469">
        <ele>7.5</ele>
        <time>2021-11-25T15:00:47.000Z</time>
      </trkpt>
      <trkpt lat="47.72341" lon="-3.4849">
        <ele>6.3</ele>
        <time>2021-11-25T15:00:44.000Z</time>
      </trkpt>
      <trkpt lat="47.72352" lon="-3.48513">
        <ele>6.8</ele>
        <time>2021-11-25T15:00:41.000Z</time>
      </trkpt>
      <trkpt lat="47.72362" lon="-3.48536">
        <ele>6.8</ele>
        <time>2021-11-25T15:00:38.000Z</time>
      </trkpt>
      <trkpt lat="47.72371" lon="-3.48559">
        <ele>6.9</ele>
        <time>2021-11-25T15:00:35.000Z</time>
      </trkpt>
      <trkpt lat="47.72381" lon="-3.48584">
        <ele>7.6</ele>
        <time>2021-11-25T15:00:32.000Z</time>
      </trkpt>
      <trkpt lat="47.72391" lon="-3.4861">
        <ele>6.9</ele>
        <time>2021-11-25T15:00:29.000Z</time>
      </trkpt>
      <trkpt lat="47.72402" lon="-3.48636">
        <ele>6</ele>
        <time>2021-11-25T15:00:26.000Z</time>
      </trkpt>
      <trkpt lat="47.72413" lon="-3.48662">
        <ele>4.5</ele>
        <time>2021-11-25T15:00:23.000Z</time>
      </trkpt>
      <trkpt lat="47.72425" lon="-3.48692">
        <ele>5.4</ele>
        <time>2021-11-25T15:00:20.000Z</time>
      </trkpt>
      <trkpt lat="47.72437" lon="-3.48721">
        <ele>6.6</ele>
        <time>2021-11-25T15:00:17.000Z</time>
      </trkpt>
      <trkpt lat="47.72449" lon="-3.4875">
        <ele>6.5</ele>
        <time>2021-11-25T15:00:14.000Z</time>
      </trkpt>
      <trkpt lat="47.7246" lon="-3.48778">
        <ele>7.8</ele>
        <time>2021-11-25T15:00:11.000Z</time>
      </trkpt>
      <trkpt lat="47.72471" lon="-3.48806">
        <ele>6.4</ele>
        <time>2021-11-25T15:00:08.000Z</time>
      </trkpt>
      <trkpt lat="47.72482" lon="-3.48834">
        <ele>9</ele>
        <time>2021-11-25T15:00:05.000Z</time>
      </trkpt>
      <trkpt lat="47.72493" lon="-3.48861">
        <ele>10.5</ele>
        <time>2021-11-25T15:00:02.000Z</time>
      </trkpt>
      <trkpt lat="47.72503" lon="-3.48887">
        <ele>11.1</ele>
        <time>2021-11-25T14:59:59.000Z</time>
      </trkpt>
      <trkpt lat="47.72514" lon="-3.48912">
        <ele>12.9</ele>
        <time>2021-11-25T14:59:56.000Z</time>
      </trkpt>
      <trkpt lat="47.72523" lon="-3.48935">
        <ele>13.1</ele>
        <time>2021-11-25T14:59:53.000Z</time>
      </trkpt>
      <trkpt lat="47.72531" lon="-3.48956">
        <ele>12.6</ele>
        <time>2021-11-25T14:59:50.000Z</time>
      </trkpt>
      <trkpt lat="47.72539" lon="-3.48975">
        <ele>12.6</ele>
        <time>2021-11-25T14:59:47.000Z</time>
      </trkpt>
      <trkpt lat="47.72546" lon="-3.48995">
        <ele>13</ele>
        <time>2021-11-25T14:59:44.000Z</time>
      </trkpt>
      <trkpt lat="47.72554" lon="-3.49014">
        <ele>11.5</ele>
        <time>2021-11-25T14:59:41.000Z</time>
      </trkpt>
      <trkpt lat="47.72562" lon="-3.49034">
        <ele>14.7</ele>
        <time>2021-11-25T14:59:38.000Z</time>
      </trkpt>
      <trkpt lat="47.7257" lon="-3.49054">
        <ele>12.9</ele>
        <time>2021-11-25T14:59:35.000Z</time>
      </trkpt>
      <trkpt lat="47.72578" lon="-3.49074">
        <ele>11.2</ele>
        <time>2021-11-25T14:59:32.000Z</time>
      </trkpt>
      <trkpt lat="47.72587" lon="-3.49097">
        <ele>9.8</ele>
        <time>2021-11-25T14:59:29.000Z</time>
      </trkpt>
      <trkpt lat="47.72596" lon="-3.4912">
        <ele>9.7</ele>
        <time>2021-11-25T14:59:26.000Z</time>
      </trkpt>
      <trkpt lat="47.72605" lon="-3.49143">
        <ele>10.3</ele>
        <time>2021-11-25T14:59:23.000Z</time>
      </trkpt>
      <trkpt lat="47.72615" lon="-3.49166">
        <ele>11.1</ele>
        <time>2021-11-25T14:59:20.000Z</time>
      </trkpt>
      <trkpt lat="47.72624" lon="-3.49188">
        <ele>10.8</ele>
        <time>2021-11-25T14:59:17.000Z</time>
      </trkpt>
      <trkpt lat="47.72634" lon="-3.4921">
        <ele>10.6</ele>
        <time>2021-11-25T14:59:14.000Z</time>
      </trkpt>
      <trkpt lat="47.72644" lon="-3.4923">
        <ele>9.7</ele>
        <time>2021-11-25T14:59:11.000Z</time>
      </trkpt>
      <trkpt lat="47.72655" lon="-3.49249">
        <ele>9.7</ele>
        <time>2021-11-25T14:59:08.000Z</time>
      </trkpt>
      <trkpt lat="47.72666" lon="-3.49267">
        <ele>10.9</ele>
        <time>2021-11-25T14:59:05.000Z</time>
      </trkpt>
      <trkpt lat="47.72678" lon="-3.49285">
        <ele>10</ele>
        <time>2021-11-25T14:59:02.000Z</time>
      </trkpt>
      <trkpt lat="47.7269" lon="-3.49301">
        <ele>8.9</ele>
        <time>2021-11-25T14:58:59.000Z</time>
      </trkpt>
      <trkpt lat="47.72702" lon="-3.49316">
        <ele>7.9</ele>
        <time>2021-11-25T14:58:56.000Z</time>
      </trkpt>
      <trkpt lat="47.72715" lon="-3.49331">
        <ele>8.6</ele>
        <time>2021-11-25T14:58:53.000Z</time>
      </trkpt>
      <trkpt lat="47.72727" lon="-3.49347">
        <ele>6.4</ele>
        <time>2021-11-25T14:58:50.000Z</time>
      </trkpt>
      <trkpt lat="47.72739" lon="-3.49365">
        <ele>7.3</ele>
        <time>2021-11-25T14:58:47.000Z</time>
      </trkpt>
      <trkpt lat="47.72755" lon="-3.49374">
        <ele>7.4</ele>
        <time>2021-11-25T14:58:44.000Z</time>
      </trkpt>
      <trkpt lat="47.7277" lon="-3.49382">
        <ele>7.5</ele>
        <time>2021-11-25T14:58:41.000Z</time>
      </trkpt>
      <trkpt lat="47.72785" lon="-3.49395">
        <ele>5.8</ele>
        <time>2021-11-25T14:58:38.000Z</time>
      </trkpt>
      <trkpt lat="47.72802" lon="-3.49411">
        <ele>7.5</ele>
        <time>2021-11-25T14:58:35.000Z</time>
      </trkpt>
      <trkpt lat="47.72821" lon="-3.49427">
        <ele>5.3</ele>
        <time>2021-11-25T14:58:32.000Z</time>
      </trkpt>
      <trkpt lat="47.7284" lon="-3.49444">
        <ele>5.9</ele>
        <time>2021-11-25T14:58:29.000Z</time>
      </trkpt>
      <trkpt lat="47.7286" lon="-3.49463">
        <ele>6.1</ele>
        <time>2021-11-25T14:58:26.000Z</time>
      </trkpt>
      <trkpt lat="47.72881" lon="-3.49482">
        <ele>7.3</ele>
        <time>2021-11-25T14:58:23.000Z</time>
      </trkpt>
      <trkpt lat="47.72901" lon="-3.495">
        <ele>7.9</ele>
        <time>2021-11-25T14:58:20.000Z</time>
      </trkpt>
      <trkpt lat="47.72919" lon="-3.49517">
        <ele>9.6</ele>
        <time>2021-11-25T14:58:17.000Z</time>
      </trkpt>
      <trkpt lat="47.72936" lon="-3.49533">
        <ele>7.5</ele>
        <time>2021-11-25T14:58:14.000Z</time>
      </trkpt>
      <trkpt lat="47.72953" lon="-3.49549">
        <ele>11</ele>
        <time>2021-11-25T14:58:11.000Z</time>
      </trkpt>
      <trkpt lat="47.7297" lon="-3.49565">
        <ele>11.6</ele>
        <time>2021-11-25T14:58:08.000Z</time>
      </trkpt>
      <trkpt lat="47.72985" lon="-3.49578">
        <ele>9.6</ele>
        <time>2021-11-25T14:58:05.000Z</time>
      </trkpt>
      <trkpt lat="47.72999" lon="-3.49591">
        <ele>12.6</ele>
        <time>2021-11-25T14:58:02.000Z</time>
      </trkpt>
      <trkpt lat="47.73013" lon="-3.49602">
        <ele>12.6</ele>
        <time>2021-11-25T14:57:59.000Z</time>
      </trkpt>
      <trkpt lat="47.73025" lon="-3.49614">
        <ele>10.2</ele>
        <time>2021-11-25T14:57:56.000Z</time>
      </trkpt>
      <trkpt lat="47.73036" lon="-3.49629">
        <ele>11.2</ele>
        <time>2021-11-25T14:57:53.000Z</time>
      </trkpt>
      <trkpt lat="47.73049" lon="-3.4964">
        <ele>10.6</ele>
        <time>2021-11-25T14:57:50.000Z</time>
      </trkpt>
      <trkpt lat="47.73062" lon="-3.4965">
        <ele>12.1</ele>
        <time>2021-11-25T14:57:47.000Z</time>
      </trkpt>
      <trkpt lat="47.73076" lon="-3.4966">
        <ele>9.8</ele>
        <time>2021-11-25T14:57:44.000Z</time>
      </trkpt>
      <trkpt lat="47.73089" lon="-3.49671">
        <ele>9.7</ele>
        <time>2021-11-25T14:57:41.000Z</time>
      </trkpt>
      <trkpt lat="47.73103" lon="-3.49682">
        <ele>10.4</ele>
        <time>2021-11-25T14:57:38.000Z</time>
      </trkpt>
      <trkpt lat="47.73117" lon="-3.49692">
        <ele>8</ele>
        <time>2021-11-25T14:57:35.000Z</time>
      </trkpt>
      <trkpt lat="47.73131" lon="-3.49703">
        <ele>9.2</ele>
        <time>2021-11-25T14:57:32.000Z</time>
      </trkpt>
      <trkpt lat="47.73145" lon="-3.49713">
        <ele>15.5</ele>
        <time>2021-11-25T14:57:29.000Z</time>
      </trkpt>
      <trkpt lat="47.73158" lon="-3.49722">
        <ele>10.1</ele>
        <time>2021-11-25T14:57:26.000Z</time>
      </trkpt>
      <trkpt lat="47.73173" lon="-3.49727">
        <ele>9.8</ele>
        <time>2021-11-25T14:57:23.000Z</time>
      </trkpt>
      <trkpt lat="47.73186" lon="-3.49737">
        <ele>8.4</ele>
        <time>2021-11-25T14:57:20.000Z</time>
      </trkpt>
      <trkpt lat="47.732" lon="-3.49747">
        <ele>8.8</ele>
        <time>2021-11-25T14:57:17.000Z</time>
      </trkpt>
      <trkpt lat="47.73214" lon="-3.49757">
        <ele>8</ele>
        <time>2021-11-25T14:57:14.000Z</time>
      </trkpt>
      <trkpt lat="47.73228" lon="-3.49768">
        <ele>10.4</ele>
        <time>2021-11-25T14:57:11.000Z</time>
      </trkpt>
      <trkpt lat="47.73242" lon="-3.49778">
        <ele>8.2</ele>
        <time>2021-11-25T14:57:08.000Z</time>
      </trkpt>
      <trkpt lat="47.73255" lon="-3.49788">
        <ele>8.1</ele>
        <time>2021-11-25T14:57:05.000Z</time>
      </trkpt>
      <trkpt lat="47.73269" lon="-3.49798">
        <ele>7.9</ele>
        <time>2021-11-25T14:57:02.000Z</time>
      </trkpt>
      <trkpt lat="47.73281" lon="-3.49808">
        <ele>8</ele>
        <time>2021-11-25T14:56:59.000Z</time>
      </trkpt>
      <trkpt lat="47.73293" lon="-3.49819">
        <ele>8</ele>
        <time>2021-11-25T14:56:56.000Z</time>
      </trkpt>
      <trkpt lat="47.73306" lon="-3.49829">
        <ele>7</ele>
        <time>2021-11-25T14:56:53.000Z</time>
      </trkpt>
      <trkpt lat="47.73318" lon="-3.49839">
        <ele>7.8</ele>
        <time>2021-11-25T14:56:50.000Z</time>
      </trkpt>
      <trkpt lat="47.73332" lon="-3.49849">
        <ele>7.3</ele>
        <time>2021-11-25T14:56:47.000Z</time>
      </trkpt>
      <trkpt lat="47.73346" lon="-3.49861">
        <ele>7.2</ele>
        <time>2021-11-25T14:56:44.000Z</time>
      </trkpt>
      <trkpt lat="47.73361" lon="-3.49874">
        <ele>7.5</ele>
        <time>2021-11-25T14:56:41.000Z</time>
      </trkpt>
      <trkpt lat="47.73375" lon="-3.49885">
        <ele>7</ele>
        <time>2021-11-25T14:56:38.000Z</time>
      </trkpt>
      <trkpt lat="47.73389" lon="-3.49896">
        <ele>7.3</ele>
        <time>2021-11-25T14:56:35.000Z</time>
      </trkpt>
      <trkpt lat="47.73403" lon="-3.49908">
        <ele>8.6</ele>
        <time>2021-11-25T14:56:32.000Z</time>
      </trkpt>
      <trkpt lat="47.73416" lon="-3.49919">
        <ele>9.6</ele>
        <time>2021-11-25T14:56:29.000Z</time>
      </trkpt>
      <trkpt lat="47.73429" lon="-3.49932">
        <ele>7.9</ele>
        <time>2021-11-25T14:56:26.000Z</time>
      </trkpt>
      <trkpt lat="47.73441" lon="-3.49945">
        <ele>9.5</ele>
        <time>2021-11-25T14:56:23.000Z</time>
      </trkpt>
      <trkpt lat="47.73453" lon="-3.49958">
        <ele>9</ele>
        <time>2021-11-25T14:56:20.000Z</time>
      </trkpt>
      <trkpt lat="47.73465" lon="-3.49971">
        <ele>10.3</ele>
        <time>2021-11-25T14:56:17.000Z</time>
      </trkpt>
      <trkpt lat="47.73477" lon="-3.49984">
        <ele>8.9</ele>
        <time>2021-11-25T14:56:14.000Z</time>
      </trkpt>
      <trkpt lat="47.73489" lon="-3.49999">
        <ele>10</ele>
        <time>2021-11-25T14:56:11.000Z</time>
      </trkpt>
      <trkpt lat="47.73501" lon="-3.50012">
        <ele>9.9</ele>
        <time>2021-11-25T14:56:08.000Z</time>
      </trkpt>
      <trkpt lat="47.73513" lon="-3.50024">
        <ele>10.3</ele>
        <time>2021-11-25T14:56:05.000Z</time>
      </trkpt>
      <trkpt lat="47.73525" lon="-3.50036">
        <ele>10</ele>
        <time>2021-11-25T14:56:02.000Z</time>
      </trkpt>
      <trkpt lat="47.73538" lon="-3.50047">
        <ele>9.6</ele>
        <time>2021-11-25T14:55:59.000Z</time>
      </trkpt>
      <trkpt lat="47.73552" lon="-3.50058">
        <ele>11.3</ele>
        <time>2021-11-25T14:55:56.000Z</time>
      </trkpt>
      <trkpt lat="47.73564" lon="-3.50069">
        <ele>10.1</ele>
        <time>2021-11-25T14:55:53.000Z</time>
      </trkpt>
      <trkpt lat="47.73575" lon="-3.5008">
        <ele>10.7</ele>
        <time>2021-11-25T14:55:50.000Z</time>
      </trkpt>
      <trkpt lat="47.73586" lon="-3.50089">
        <ele>12.2</ele>
        <time>2021-11-25T14:55:47.000Z</time>
      </trkpt>
      <trkpt lat="47.73597" lon="-3.50096">
        <ele>10.5</ele>
        <time>2021-11-25T14:55:44.000Z</time>
      </trkpt>
      <trkpt lat="47.73608" lon="-3.50101">
        <ele>11.4</ele>
        <time>2021-11-25T14:55:41.000Z</time>
      </trkpt>
      <trkpt lat="47.73621" lon="-3.50107">
        <ele>10.7</ele>
        <time>2021-11-25T14:55:38.000Z</time>
      </trkpt>
      <trkpt lat="47.73635" lon="-3.50113">
        <ele>11.4</ele>
        <time>2021-11-25T14:55:35.000Z</time>
      </trkpt>
      <trkpt lat="47.73648" lon="-3.50118">
        <ele>10.4</ele>
        <time>2021-11-25T14:55:32.000Z</time>
      </trkpt>
      <trkpt lat="47.73662" lon="-3.50123">
        <ele>10.1</ele>
        <time>2021-11-25T14:55:29.000Z</time>
      </trkpt>
      <trkpt lat="47.73676" lon="-3.50127">
        <ele>10.5</ele>
        <time>2021-11-25T14:55:26.000Z</time>
      </trkpt>
      <trkpt lat="47.7369" lon="-3.50131">
        <ele>9.5</ele>
        <time>2021-11-25T14:55:23.000Z</time>
      </trkpt>
      <trkpt lat="47.73705" lon="-3.50135">
        <ele>9.9</ele>
        <time>2021-11-25T14:55:20.000Z</time>
      </trkpt>
      <trkpt lat="47.73721" lon="-3.50137">
        <ele>9.6</ele>
        <time>2021-11-25T14:55:17.000Z</time>
      </trkpt>
      <trkpt lat="47.73735" lon="-3.50135">
        <ele>9.4</ele>
        <time>2021-11-25T14:55:14.000Z</time>
      </trkpt>
      <trkpt lat="47.7375" lon="-3.50132">
        <ele>9.4</ele>
        <time>2021-11-25T14:55:11.000Z</time>
      </trkpt>
      <trkpt lat="47.73765" lon="-3.50137">
        <ele>8.3</ele>
        <time>2021-11-25T14:55:08.000Z</time>
      </trkpt>
      <trkpt lat="47.73778" lon="-3.50143">
        <ele>9.5</ele>
        <time>2021-11-25T14:55:05.000Z</time>
      </trkpt>
      <trkpt lat="47.73792" lon="-3.50147">
        <ele>8.9</ele>
        <time>2021-11-25T14:55:02.000Z</time>
      </trkpt>
      <trkpt lat="47.73805" lon="-3.50149">
        <ele>9.1</ele>
        <time>2021-11-25T14:54:59.000Z</time>
      </trkpt>
      <trkpt lat="47.73818" lon="-3.50155">
        <ele>9.6</ele>
        <time>2021-11-25T14:54:56.000Z</time>
      </trkpt>
      <trkpt lat="47.73832" lon="-3.50162">
        <ele>8.8</ele>
        <time>2021-11-25T14:54:53.000Z</time>
      </trkpt>
      <trkpt lat="47.73848" lon="-3.50169">
        <ele>8.4</ele>
        <time>2021-11-25T14:54:50.000Z</time>
      </trkpt>
      <trkpt lat="47.73864" lon="-3.50176">
        <ele>9.7</ele>
        <time>2021-11-25T14:54:47.000Z</time>
      </trkpt>
      <trkpt lat="47.7388" lon="-3.50183">
        <ele>8.6</ele>
        <time>2021-11-25T14:54:44.000Z</time>
      </trkpt>
      <trkpt lat="47.73895" lon="-3.50189">
        <ele>9.8</ele>
        <time>2021-11-25T14:54:41.000Z</time>
      </trkpt>
      <trkpt lat="47.73911" lon="-3.50196">
        <ele>9</ele>
        <time>2021-11-25T14:54:38.000Z</time>
      </trkpt>
      <trkpt lat="47.73926" lon="-3.50202">
        <ele>9.7</ele>
        <time>2021-11-25T14:54:35.000Z</time>
      </trkpt>
      <trkpt lat="47.73942" lon="-3.50209">
        <ele>9.6</ele>
        <time>2021-11-25T14:54:32.000Z</time>
      </trkpt>
      <trkpt lat="47.73957" lon="-3.50216">
        <ele>9.3</ele>
        <time>2021-11-25T14:54:29.000Z</time>
      </trkpt>
      <trkpt lat="47.73973" lon="-3.50223">
        <ele>10</ele>
        <time>2021-11-25T14:54:26.000Z</time>
      </trkpt>
      <trkpt lat="47.73989" lon="-3.5023">
        <ele>10.4</ele>
        <time>2021-11-25T14:54:23.000Z</time>
      </trkpt>
      <trkpt lat="47.74005" lon="-3.50237">
        <ele>10.2</ele>
        <time>2021-11-25T14:54:20.000Z</time>
      </trkpt>
      <trkpt lat="47.7402" lon="-3.50244">
        <ele>9.8</ele>
        <time>2021-11-25T14:54:17.000Z</time>
      </trkpt>
      <trkpt lat="47.74035" lon="-3.5025">
        <ele>9.4</ele>
        <time>2021-11-25T14:54:14.000Z</time>
      </trkpt>
      <trkpt lat="47.7405" lon="-3.50257">
        <ele>8.6</ele>
        <time>2021-11-25T14:54:11.000Z</time>
      </trkpt>
      <trkpt lat="47.74066" lon="-3.50264">
        <ele>9.6</ele>
        <time>2021-11-25T14:54:08.000Z</time>
      </trkpt>
      <trkpt lat="47.74082" lon="-3.5027">
        <ele>8.5</ele>
        <time>2021-11-25T14:54:05.000Z</time>
      </trkpt>
      <trkpt lat="47.74098" lon="-3.50277">
        <ele>8.8</ele>
        <time>2021-11-25T14:54:02.000Z</time>
      </trkpt>
      <trkpt lat="47.74114" lon="-3.50284">
        <ele>10.6</ele>
        <time>2021-11-25T14:53:59.000Z</time>
      </trkpt>
      <trkpt lat="47.7413" lon="-3.50291">
        <ele>10.3</ele>
        <time>2021-11-25T14:53:56.000Z</time>
      </trkpt>
      <trkpt lat="47.74147" lon="-3.50298">
        <ele>9.6</ele>
        <time>2021-11-25T14:53:53.000Z</time>
      </trkpt>
      <trkpt lat="47.74163" lon="-3.50306">
        <ele>10.9</ele>
        <time>2021-11-25T14:53:50.000Z</time>
      </trkpt>
      <trkpt lat="47.7418" lon="-3.50313">
        <ele>10.2</ele>
        <time>2021-11-25T14:53:47.000Z</time>
      </trkpt>
      <trkpt lat="47.74198" lon="-3.5032">
        <ele>10.7</ele>
        <time>2021-11-25T14:53:44.000Z</time>
      </trkpt>
      <trkpt lat="47.74215" lon="-3.50328">
        <ele>9.8</ele>
        <time>2021-11-25T14:53:41.000Z</time>
      </trkpt>
      <trkpt lat="47.74231" lon="-3.50335">
        <ele>11.1</ele>
        <time>2021-11-25T14:53:38.000Z</time>
      </trkpt>
      <trkpt lat="47.74247" lon="-3.50342">
        <ele>11.7</ele>
        <time>2021-11-25T14:53:35.000Z</time>
      </trkpt>
      <trkpt lat="47.74263" lon="-3.50349">
        <ele>11.7</ele>
        <time>2021-11-25T14:53:32.000Z</time>
      </trkpt>
      <trkpt lat="47.74279" lon="-3.50356">
        <ele>11.2</ele>
        <time>2021-11-25T14:53:29.000Z</time>
      </trkpt>
      <trkpt lat="47.74294" lon="-3.50363">
        <ele>12.4</ele>
        <time>2021-11-25T14:53:26.000Z</time>
      </trkpt>
      <trkpt lat="47.7431" lon="-3.5037">
        <ele>11.6</ele>
        <time>2021-11-25T14:53:23.000Z</time>
      </trkpt>
      <trkpt lat="47.74324" lon="-3.50377">
        <ele>12.1</ele>
        <time>2021-11-25T14:53:20.000Z</time>
      </trkpt>
      <trkpt lat="47.74339" lon="-3.50384">
        <ele>11.6</ele>
        <time>2021-11-25T14:53:17.000Z</time>
      </trkpt>
      <trkpt lat="47.74353" lon="-3.5039">
        <ele>11.8</ele>
        <time>2021-11-25T14:53:14.000Z</time>
      </trkpt>
      <trkpt lat="47.74367" lon="-3.50396">
        <ele>11.9</ele>
        <time>2021-11-25T14:53:11.000Z</time>
      </trkpt>
      <trkpt lat="47.74381" lon="-3.50403">
        <ele>11.8</ele>
        <time>2021-11-25T14:53:08.000Z</time>
      </trkpt>
      <trkpt lat="47.74395" lon="-3.50409">
        <ele>12.3</ele>
        <time>2021-11-25T14:53:05.000Z</time>
      </trkpt>
      <trkpt lat="47.7441" lon="-3.50415">
        <ele>11.9</ele>
        <time>2021-11-25T14:53:02.000Z</time>
      </trkpt>
      <trkpt lat="47.74426" lon="-3.50422">
        <ele>11.1</ele>
        <time>2021-11-25T14:52:59.000Z</time>
      </trkpt>
      <trkpt lat="47.74442" lon="-3.50429">
        <ele>12.1</ele>
        <time>2021-11-25T14:52:56.000Z</time>
      </trkpt>
      <trkpt lat="47.74459" lon="-3.50436">
        <ele>12.8</ele>
        <time>2021-11-25T14:52:53.000Z</time>
      </trkpt>
      <trkpt lat="47.74475" lon="-3.50443">
        <ele>12.9</ele>
        <time>2021-11-25T14:52:50.000Z</time>
      </trkpt>
      <trkpt lat="47.74491" lon="-3.50449">
        <ele>11.1</ele>
        <time>2021-11-25T14:52:47.000Z</time>
      </trkpt>
      <trkpt lat="47.74507" lon="-3.50456">
        <ele>12.7</ele>
        <time>2021-11-25T14:52:44.000Z</time>
      </trkpt>
      <trkpt lat="47.74522" lon="-3.50463">
        <ele>12.4</ele>
        <time>2021-11-25T14:52:41.000Z</time>
      </trkpt>
      <trkpt lat="47.74539" lon="-3.5047">
        <ele>12.6</ele>
        <time>2021-11-25T14:52:38.000Z</time>
      </trkpt>
      <trkpt lat="47.74555" lon="-3.50479">
        <ele>12.2</ele>
        <time>2021-11-25T14:52:35.000Z</time>
      </trkpt>
      <trkpt lat="47.74571" lon="-3.50487">
        <ele>13.2</ele>
        <time>2021-11-25T14:52:32.000Z</time>
      </trkpt>
      <trkpt lat="47.74586" lon="-3.50493">
        <ele>12.8</ele>
        <time>2021-11-25T14:52:29.000Z</time>
      </trkpt>
      <trkpt lat="47.74601" lon="-3.505">
        <ele>14.6</ele>
        <time>2021-11-25T14:52:26.000Z</time>
      </trkpt>
      <trkpt lat="47.74616" lon="-3.50507">
        <ele>14.5</ele>
        <time>2021-11-25T14:52:23.000Z</time>
      </trkpt>
      <trkpt lat="47.7463" lon="-3.50515">
        <ele>14.6</ele>
        <time>2021-11-25T14:52:20.000Z</time>
      </trkpt>
      <trkpt lat="47.7464" lon="-3.50523">
        <ele>15.2</ele>
        <time>2021-11-25T14:52:17.000Z</time>
      </trkpt>
      <trkpt lat="47.7465" lon="-3.50529">
        <ele>15.9</ele>
        <time>2021-11-25T14:52:14.000Z</time>
      </trkpt>
      <trkpt lat="47.74662" lon="-3.50538">
        <ele>16</ele>
        <time>2021-11-25T14:52:11.000Z</time>
      </trkpt>
      <trkpt lat="47.74675" lon="-3.50551">
        <ele>14.8</ele>
        <time>2021-11-25T14:52:08.000Z</time>
      </trkpt>
      <trkpt lat="47.74689" lon="-3.50564">
        <ele>16.6</ele>
        <time>2021-11-25T14:52:05.000Z</time>
      </trkpt>
      <trkpt lat="47.74702" lon="-3.50576">
        <ele>15.8</ele>
        <time>2021-11-25T14:52:02.000Z</time>
      </trkpt>
      <trkpt lat="47.74715" lon="-3.5059">
        <ele>17</ele>
        <time>2021-11-25T14:51:59.000Z</time>
      </trkpt>
      <trkpt lat="47.74728" lon="-3.50604">
        <ele>15.6</ele>
        <time>2021-11-25T14:51:56.000Z</time>
      </trkpt>
      <trkpt lat="47.74739" lon="-3.5062">
        <ele>16.1</ele>
        <time>2021-11-25T14:51:53.000Z</time>
      </trkpt>
      <trkpt lat="47.74752" lon="-3.50636">
        <ele>16</ele>
        <time>2021-11-25T14:51:50.000Z</time>
      </trkpt>
      <trkpt lat="47.74764" lon="-3.50653">
        <ele>16.2</ele>
        <time>2021-11-25T14:51:47.000Z</time>
      </trkpt>
      <trkpt lat="47.74775" lon="-3.50669">
        <ele>15.8</ele>
        <time>2021-11-25T14:51:44.000Z</time>
      </trkpt>
      <trkpt lat="47.74787" lon="-3.50684">
        <ele>16.4</ele>
        <time>2021-11-25T14:51:41.000Z</time>
      </trkpt>
      <trkpt lat="47.74798" lon="-3.50699">
        <ele>15.4</ele>
        <time>2021-11-25T14:51:38.000Z</time>
      </trkpt>
      <trkpt lat="47.74809" lon="-3.50715">
        <ele>15.7</ele>
        <time>2021-11-25T14:51:35.000Z</time>
      </trkpt>
      <trkpt lat="47.74819" lon="-3.5073">
        <ele>15.8</ele>
        <time>2021-11-25T14:51:32.000Z</time>
      </trkpt>
      <trkpt lat="47.74831" lon="-3.50747">
        <ele>17.7</ele>
        <time>2021-11-25T14:51:29.000Z</time>
      </trkpt>
      <trkpt lat="47.74842" lon="-3.50763">
        <ele>17.3</ele>
        <time>2021-11-25T14:51:26.000Z</time>
      </trkpt>
      <trkpt lat="47.74853" lon="-3.50777">
        <ele>16.4</ele>
        <time>2021-11-25T14:51:23.000Z</time>
      </trkpt>
      <trkpt lat="47.74863" lon="-3.50792">
        <ele>16.5</ele>
        <time>2021-11-25T14:51:20.000Z</time>
      </trkpt>
      <trkpt lat="47.74873" lon="-3.50806">
        <ele>17.4</ele>
        <time>2021-11-25T14:51:17.000Z</time>
      </trkpt>
      <trkpt lat="47.74882" lon="-3.50818">
        <ele>17.5</ele>
        <time>2021-11-25T14:51:14.000Z</time>
      </trkpt>
      <trkpt lat="47.7489" lon="-3.50831">
        <ele>18.6</ele>
        <time>2021-11-25T14:51:11.000Z</time>
      </trkpt>
      <trkpt lat="47.74899" lon="-3.50844">
        <ele>18.3</ele>
        <time>2021-11-25T14:51:08.000Z</time>
      </trkpt>
      <trkpt lat="47.74907" lon="-3.50857">
        <ele>20</ele>
        <time>2021-11-25T14:51:05.000Z</time>
      </trkpt>
      <trkpt lat="47.74914" lon="-3.5087">
        <ele>19.4</ele>
        <time>2021-11-25T14:51:02.000Z</time>
      </trkpt>
      <trkpt lat="47.74922" lon="-3.50873">
        <ele>19.9</ele>
        <time>2021-11-25T14:50:59.000Z</time>
      </trkpt>
      <trkpt lat="47.74926" lon="-3.50868">
        <ele>20.2</ele>
        <time>2021-11-25T14:50:56.000Z</time>
      </trkpt>
      <trkpt lat="47.74926" lon="-3.50867">
        <ele>20.4</ele>
        <time>2021-11-25T14:50:55.000Z</time>
      </trkpt>
      <trkpt lat="47.74926" lon="-3.50867">
        <ele>20.3</ele>
        <time>2021-11-25T14:50:52.000Z</time>
      </trkpt>
      <trkpt lat="47.74926" lon="-3.50867">
        <ele>20.1</ele>
        <time>2021-11-25T14:50:49.000Z</time>
      </trkpt>
      <trkpt lat="47.74926" lon="-3.50867">
        <ele>20.1</ele>
        <time>2021-11-25T14:50:46.000Z</time>
      </trkpt>
      <trkpt lat="47.74926" lon="-3.50867">
        <ele>19.8</ele>
        <time>2021-11-25T14:50:43.000Z</time>
      </trkpt>
      <trkpt lat="47.74928" lon="-3.50864">
        <ele>20.4</ele>
        <time>2021-11-25T14:50:40.000Z</time>
      </trkpt>
      <trkpt lat="47.7493" lon="-3.50851">
        <ele>21</ele>
        <time>2021-11-25T14:50:37.000Z</time>
      </trkpt>
      <trkpt lat="47.74933" lon="-3.50828">
        <ele>21.2</ele>
        <time>2021-11-25T14:50:34.000Z</time>
      </trkpt>
      <trkpt lat="47.74937" lon="-3.50801">
        <ele>22.5</ele>
        <time>2021-11-25T14:50:31.000Z</time>
      </trkpt>
      <trkpt lat="47.7494" lon="-3.50775">
        <ele>22.2</ele>
        <time>2021-11-25T14:50:28.000Z</time>
      </trkpt>
      <trkpt lat="47.74944" lon="-3.5075">
        <ele>23.7</ele>
        <time>2021-11-25T14:50:25.000Z</time>
      </trkpt>
      <trkpt lat="47.74947" lon="-3.50726">
        <ele>24.5</ele>
        <time>2021-11-25T14:50:22.000Z</time>
      </trkpt>
      <trkpt lat="47.7495" lon="-3.50703">
        <ele>25.4</ele>
        <time>2021-11-25T14:50:19.000Z</time>
      </trkpt>
      <trkpt lat="47.74954" lon="-3.5068">
        <ele>24.6</ele>
        <time>2021-11-25T14:50:16.000Z</time>
      </trkpt>
      <trkpt lat="47.74957" lon="-3.50655">
        <ele>24.8</ele>
        <time>2021-11-25T14:50:13.000Z</time>
      </trkpt>
      <trkpt lat="47.74962" lon="-3.5063">
        <ele>25.7</ele>
        <time>2021-11-25T14:50:10.000Z</time>
      </trkpt>
      <trkpt lat="47.74973" lon="-3.50611">
        <ele>26.3</ele>
        <time>2021-11-25T14:50:07.000Z</time>
      </trkpt>
      <trkpt lat="47.74986" lon="-3.50599">
        <ele>27</ele>
        <time>2021-11-25T14:50:04.000Z</time>
      </trkpt>
      <trkpt lat="47.74999" lon="-3.50589">
        <ele>28</ele>
        <time>2021-11-25T14:50:01.000Z</time>
      </trkpt>
      <trkpt lat="47.75012" lon="-3.50581">
        <ele>27.7</ele>
        <time>2021-11-25T14:49:58.000Z</time>
      </trkpt>
      <trkpt lat="47.75023" lon="-3.50574">
        <ele>27.8</ele>
        <time>2021-11-25T14:49:55.000Z</time>
      </trkpt>
      <trkpt lat="47.75032" lon="-3.50573">
        <ele>27.9</ele>
        <time>2021-11-25T14:49:52.000Z</time>
      </trkpt>
      <trkpt lat="47.75037" lon="-3.50585">
        <ele>27.6</ele>
        <time>2021-11-25T14:49:49.000Z</time>
      </trkpt>
      <trkpt lat="47.75039" lon="-3.50598">
        <ele>28.2</ele>
        <time>2021-11-25T14:49:46.000Z</time>
      </trkpt>
      <trkpt lat="47.75042" lon="-3.50611">
        <ele>27.7</ele>
        <time>2021-11-25T14:49:43.000Z</time>
      </trkpt>
      <trkpt lat="47.75046" lon="-3.50624">
        <ele>28.4</ele>
        <time>2021-11-25T14:49:40.000Z</time>
      </trkpt>
      <trkpt lat="47.75051" lon="-3.50635">
        <ele>28.5</ele>
        <time>2021-11-25T14:49:37.000Z</time>
      </trkpt>
      <trkpt lat="47.75055" lon="-3.50645">
        <ele>27.5</ele>
        <time>2021-11-25T14:49:34.000Z</time>
      </trkpt>
      <trkpt lat="47.75059" lon="-3.50656">
        <ele>27.5</ele>
        <time>2021-11-25T14:49:31.000Z</time>
      </trkpt>
      <trkpt lat="47.75063" lon="-3.50668">
        <ele>27.4</ele>
        <time>2021-11-25T14:49:28.000Z</time>
      </trkpt>
      <trkpt lat="47.75065" lon="-3.50678">
        <ele>27.4</ele>
        <time>2021-11-25T14:49:25.000Z</time>
      </trkpt>
      <trkpt lat="47.75069" lon="-3.50684">
        <ele>27</ele>
        <time>2021-11-25T14:49:22.000Z</time>
      </trkpt>
      <trkpt lat="47.75071" lon="-3.50694">
        <ele>27.5</ele>
        <time>2021-11-25T14:49:19.000Z</time>
      </trkpt>
      <trkpt lat="47.75073" lon="-3.50704">
        <ele>27.1</ele>
        <time>2021-11-25T14:49:16.000Z</time>
      </trkpt>
      <trkpt lat="47.75077" lon="-3.50714">
        <ele>28.3</ele>
        <time>2021-11-25T14:49:13.000Z</time>
      </trkpt>
      <trkpt lat="47.75082" lon="-3.50721">
        <ele>25.8</ele>
        <time>2021-11-25T14:49:10.000Z</time>
      </trkpt>
      <trkpt lat="47.75089" lon="-3.50725">
        <ele>26.8</ele>
        <time>2021-11-25T14:49:07.000Z</time>
      </trkpt>
      <trkpt lat="47.75096" lon="-3.50726">
        <ele>26.6</ele>
        <time>2021-11-25T14:49:04.000Z</time>
      </trkpt>
      <trkpt lat="47.75102" lon="-3.50728">
        <ele>24.1</ele>
        <time>2021-11-25T14:49:01.000Z</time>
      </trkpt>
      <trkpt lat="47.75108" lon="-3.50732">
        <ele>25.2</ele>
        <time>2021-11-25T14:48:58.000Z</time>
      </trkpt>
      <trkpt lat="47.75114" lon="-3.50735">
        <ele>26</ele>
        <time>2021-11-25T14:48:55.000Z</time>
      </trkpt>
      <trkpt lat="47.7512" lon="-3.50737">
        <ele>23.6</ele>
        <time>2021-11-25T14:48:52.000Z</time>
      </trkpt>
      <trkpt lat="47.75125" lon="-3.50738">
        <ele>23.4</ele>
        <time>2021-11-25T14:48:49.000Z</time>
      </trkpt>
      <trkpt lat="47.75132" lon="-3.50737">
        <ele>23.4</ele>
        <time>2021-11-25T14:48:46.000Z</time>
      </trkpt>
      <trkpt lat="47.75139" lon="-3.50735">
        <ele>21.7</ele>
        <time>2021-11-25T14:48:43.000Z</time>
      </trkpt>
      <trkpt lat="47.75146" lon="-3.50733">
        <ele>22</ele>
        <time>2021-11-25T14:48:40.000Z</time>
      </trkpt>
      <trkpt lat="47.75152" lon="-3.5073">
        <ele>20.9</ele>
        <time>2021-11-25T14:48:37.000Z</time>
      </trkpt>
      <trkpt lat="47.75159" lon="-3.50727">
        <ele>20.7</ele>
        <time>2021-11-25T14:48:34.000Z</time>
      </trkpt>
      <trkpt lat="47.75167" lon="-3.50723">
        <ele>20.7</ele>
        <time>2021-11-25T14:48:31.000Z</time>
      </trkpt>
      <trkpt lat="47.75173" lon="-3.50721">
        <ele>17.5</ele>
        <time>2021-11-25T14:48:28.000Z</time>
      </trkpt>
      <trkpt lat="47.7518" lon="-3.50719">
        <ele>19.2</ele>
        <time>2021-11-25T14:48:25.000Z</time>
      </trkpt>
      <trkpt lat="47.75186" lon="-3.50721">
        <ele>19.5</ele>
        <time>2021-11-25T14:48:22.000Z</time>
      </trkpt>
      <trkpt lat="47.75192" lon="-3.50724">
        <ele>17.8</ele>
        <time>2021-11-25T14:48:19.000Z</time>
      </trkpt>
      <trkpt lat="47.75198" lon="-3.50727">
        <ele>19.7</ele>
        <time>2021-11-25T14:48:16.000Z</time>
      </trkpt>
      <trkpt lat="47.75205" lon="-3.50731">
        <ele>17.5</ele>
        <time>2021-11-25T14:48:13.000Z</time>
      </trkpt>
      <trkpt lat="47.75211" lon="-3.50735">
        <ele>14.4</ele>
        <time>2021-11-25T14:48:10.000Z</time>
      </trkpt>
      <trkpt lat="47.75217" lon="-3.50738">
        <ele>16.3</ele>
        <time>2021-11-25T14:48:07.000Z</time>
      </trkpt>
      <trkpt lat="47.75222" lon="-3.5074">
        <ele>17.2</ele>
        <time>2021-11-25T14:48:04.000Z</time>
      </trkpt>
      <trkpt lat="47.75228" lon="-3.50742">
        <ele>16</ele>
        <time>2021-11-25T14:48:01.000Z</time>
      </trkpt>
      <trkpt lat="47.75233" lon="-3.50744">
        <ele>15</ele>
        <time>2021-11-25T14:47:58.000Z</time>
      </trkpt>
      <trkpt lat="47.7524" lon="-3.50746">
        <ele>16</ele>
        <time>2021-11-25T14:47:55.000Z</time>
      </trkpt>
      <trkpt lat="47.75246" lon="-3.50748">
        <ele>13.5</ele>
        <time>2021-11-25T14:47:52.000Z</time>
      </trkpt>
      <trkpt lat="47.75251" lon="-3.50752">
        <ele>14.2</ele>
        <time>2021-11-25T14:47:49.000Z</time>
      </trkpt>
      <trkpt lat="47.75256" lon="-3.50754">
        <ele>14.5</ele>
        <time>2021-11-25T14:47:46.000Z</time>
      </trkpt>
      <trkpt lat="47.75261" lon="-3.50759">
        <ele>14.9</ele>
        <time>2021-11-25T14:47:43.000Z</time>
      </trkpt>
      <trkpt lat="47.75265" lon="-3.50764">
        <ele>12.5</ele>
        <time>2021-11-25T14:47:40.000Z</time>
      </trkpt>
      <trkpt lat="47.75271" lon="-3.50768">
        <ele>12.1</ele>
        <time>2021-11-25T14:47:37.000Z</time>
      </trkpt>
      <trkpt lat="47.75278" lon="-3.5077">
        <ele>13.2</ele>
        <time>2021-11-25T14:47:34.000Z</time>
      </trkpt>
      <trkpt lat="47.75284" lon="-3.50771">
        <ele>10</ele>
        <time>2021-11-25T14:47:31.000Z</time>
      </trkpt>
      <trkpt lat="47.75289" lon="-3.50771">
        <ele>10.2</ele>
        <time>2021-11-25T14:47:28.000Z</time>
      </trkpt>
      <trkpt lat="47.75297" lon="-3.50772">
        <ele>11.1</ele>
        <time>2021-11-25T14:47:25.000Z</time>
      </trkpt>
      <trkpt lat="47.75302" lon="-3.50772">
        <ele>8.8</ele>
        <time>2021-11-25T14:47:22.000Z</time>
      </trkpt>
      <trkpt lat="47.75305" lon="-3.50772">
        <ele>9.4</ele>
        <time>2021-11-25T14:47:19.000Z</time>
      </trkpt>
      <trkpt lat="47.75307" lon="-3.50773">
        <ele>9.4</ele>
        <time>2021-11-25T14:47:16.000Z</time>
      </trkpt>
      <trkpt lat="47.75309" lon="-3.50772">
        <ele>9.1</ele>
        <time>2021-11-25T14:47:13.000Z</time>
      </trkpt>
      <trkpt lat="47.7531" lon="-3.50772">
        <ele>9</ele>
        <time>2021-11-25T14:47:10.000Z</time>
      </trkpt>
      <trkpt lat="47.75317" lon="-3.50772">
        <ele>7.5</ele>
        <time>2021-11-25T14:47:07.000Z</time>
      </trkpt>
      <trkpt lat="47.75326" lon="-3.50776">
        <ele>8.5</ele>
        <time>2021-11-25T14:47:04.000Z</time>
      </trkpt>
      <trkpt lat="47.75335" lon="-3.50778">
        <ele>7.3</ele>
        <time>2021-11-25T14:47:01.000Z</time>
      </trkpt>
      <trkpt lat="47.75345" lon="-3.50779">
        <ele>10.1</ele>
        <time>2021-11-25T14:46:58.000Z</time>
      </trkpt>
      <trkpt lat="47.75358" lon="-3.50783">
        <ele>3.8</ele>
        <time>2021-11-25T14:46:55.000Z</time>
      </trkpt>
      <trkpt lat="47.75374" lon="-3.50788">
        <ele>7.3</ele>
        <time>2021-11-25T14:46:52.000Z</time>
      </trkpt>
      <trkpt lat="47.75392" lon="-3.50794">
        <ele>10.7</ele>
        <time>2021-11-25T14:46:49.000Z</time>
      </trkpt>
      <trkpt lat="47.75411" lon="-3.50805">
        <ele>6.7</ele>
        <time>2021-11-25T14:46:46.000Z</time>
      </trkpt>
      <trkpt lat="47.75428" lon="-3.50817">
        <ele>7.8</ele>
        <time>2021-11-25T14:46:43.000Z</time>
      </trkpt>
      <trkpt lat="47.75443" lon="-3.50832">
        <ele>8.4</ele>
        <time>2021-11-25T14:46:40.000Z</time>
      </trkpt>
      <trkpt lat="47.75457" lon="-3.5085">
        <ele>14.4</ele>
        <time>2021-11-25T14:46:37.000Z</time>
      </trkpt>
      <trkpt lat="47.7547" lon="-3.50869">
        <ele>13.5</ele>
        <time>2021-11-25T14:46:34.000Z</time>
      </trkpt>
      <trkpt lat="47.75482" lon="-3.50885">
        <ele>12.1</ele>
        <time>2021-11-25T14:46:31.000Z</time>
      </trkpt>
      <trkpt lat="47.75493" lon="-3.50897">
        <ele>11.8</ele>
        <time>2021-11-25T14:46:28.000Z</time>
      </trkpt>
      <trkpt lat="47.75503" lon="-3.50904">
        <ele>13</ele>
        <time>2021-11-25T14:46:25.000Z</time>
      </trkpt>
      <trkpt lat="47.75513" lon="-3.50901">
        <ele>13.7</ele>
        <time>2021-11-25T14:46:22.000Z</time>
      </trkpt>
      <trkpt lat="47.75522" lon="-3.50904">
        <ele>13.1</ele>
        <time>2021-11-25T14:46:19.000Z</time>
      </trkpt>
      <trkpt lat="47.75534" lon="-3.50911">
        <ele>12.9</ele>
        <time>2021-11-25T14:46:16.000Z</time>
      </trkpt>
      <trkpt lat="47.75547" lon="-3.50918">
        <ele>12</ele>
        <time>2021-11-25T14:46:13.000Z</time>
      </trkpt>
      <trkpt lat="47.75561" lon="-3.50923">
        <ele>12.2</ele>
        <time>2021-11-25T14:46:10.000Z</time>
      </trkpt>
      <trkpt lat="47.75575" lon="-3.50927">
        <ele>11.7</ele>
        <time>2021-11-25T14:46:07.000Z</time>
      </trkpt>
      <trkpt lat="47.7559" lon="-3.5093">
        <ele>11.9</ele>
        <time>2021-11-25T14:46:04.000Z</time>
      </trkpt>
      <trkpt lat="47.75604" lon="-3.50933">
        <ele>11.2</ele>
        <time>2021-11-25T14:46:01.000Z</time>
      </trkpt>
      <trkpt lat="47.75618" lon="-3.50936">
        <ele>10.5</ele>
        <time>2021-11-25T14:45:58.000Z</time>
      </trkpt>
      <trkpt lat="47.75633" lon="-3.50939">
        <ele>11.2</ele>
        <time>2021-11-25T14:45:55.000Z</time>
      </trkpt>
      <trkpt lat="47.75648" lon="-3.50944">
        <ele>11.3</ele>
        <time>2021-11-25T14:45:52.000Z</time>
      </trkpt>
      <trkpt lat="47.75661" lon="-3.50949">
        <ele>11.5</ele>
        <time>2021-11-25T14:45:49.000Z</time>
      </trkpt>
      <trkpt lat="47.75672" lon="-3.50951">
        <ele>11.3</ele>
        <time>2021-11-25T14:45:46.000Z</time>
      </trkpt>
      <trkpt lat="47.75684" lon="-3.50954">
        <ele>11.8</ele>
        <time>2021-11-25T14:45:43.000Z</time>
      </trkpt>
      <trkpt lat="47.75694" lon="-3.5096">
        <ele>11.6</ele>
        <time>2021-11-25T14:45:40.000Z</time>
      </trkpt>
      <trkpt lat="47.75695" lon="-3.50972">
        <ele>11.2</ele>
        <time>2021-11-25T14:45:37.000Z</time>
      </trkpt>
      <trkpt lat="47.75692" lon="-3.50977">
        <ele>11.8</ele>
        <time>2021-11-25T14:45:34.000Z</time>
      </trkpt>
      <trkpt lat="47.75691" lon="-3.50987">
        <ele>10.9</ele>
        <time>2021-11-25T14:45:31.000Z</time>
      </trkpt>
      <trkpt lat="47.75689" lon="-3.50998">
        <ele>9.7</ele>
        <time>2021-11-25T14:45:28.000Z</time>
      </trkpt>
      <trkpt lat="47.75686" lon="-3.51011">
        <ele>10.1</ele>
        <time>2021-11-25T14:45:25.000Z</time>
      </trkpt>
      <trkpt lat="47.75681" lon="-3.51031">
        <ele>8.9</ele>
        <time>2021-11-25T14:45:22.000Z</time>
      </trkpt>
      <trkpt lat="47.75674" lon="-3.51052">
        <ele>6.5</ele>
        <time>2021-11-25T14:45:19.000Z</time>
      </trkpt>
      <trkpt lat="47.75665" lon="-3.51071">
        <ele>7</ele>
        <time>2021-11-25T14:45:16.000Z</time>
      </trkpt>
      <trkpt lat="47.75654" lon="-3.51087">
        <ele>8</ele>
        <time>2021-11-25T14:45:13.000Z</time>
      </trkpt>
      <trkpt lat="47.75643" lon="-3.51103">
        <ele>5.9</ele>
        <time>2021-11-25T14:45:10.000Z</time>
      </trkpt>
      <trkpt lat="47.75632" lon="-3.51116">
        <ele>5.8</ele>
        <time>2021-11-25T14:45:07.000Z</time>
      </trkpt>
      <trkpt lat="47.75619" lon="-3.51131">
        <ele>6.8</ele>
        <time>2021-11-25T14:45:04.000Z</time>
      </trkpt>
      <trkpt lat="47.75606" lon="-3.51144">
        <ele>4.3</ele>
        <time>2021-11-25T14:45:01.000Z</time>
      </trkpt>
      <trkpt lat="47.75591" lon="-3.51159">
        <ele>4.2</ele>
        <time>2021-11-25T14:44:58.000Z</time>
      </trkpt>
      <trkpt lat="47.75579" lon="-3.51179">
        <ele>7.2</ele>
        <time>2021-11-25T14:44:55.000Z</time>
      </trkpt>
      <trkpt lat="47.75583" lon="-3.51202">
        <ele>8.9</ele>
        <time>2021-11-25T14:44:52.000Z</time>
      </trkpt>
      <trkpt lat="47.75594" lon="-3.51227">
        <ele>8.5</ele>
        <time>2021-11-25T14:44:49.000Z</time>
      </trkpt>
      <trkpt lat="47.75602" lon="-3.51255">
        <ele>9</ele>
        <time>2021-11-25T14:44:46.000Z</time>
      </trkpt>
      <trkpt lat="47.75606" lon="-3.51282">
        <ele>13.7</ele>
        <time>2021-11-25T14:44:43.000Z</time>
      </trkpt>
      <trkpt lat="47.75609" lon="-3.51308">
        <ele>12.7</ele>
        <time>2021-11-25T14:44:40.000Z</time>
      </trkpt>
      <trkpt lat="47.7561" lon="-3.51329">
        <ele>14.4</ele>
        <time>2021-11-25T14:44:37.000Z</time>
      </trkpt>
      <trkpt lat="47.75611" lon="-3.51349">
        <ele>15.2</ele>
        <time>2021-11-25T14:44:34.000Z</time>
      </trkpt>
      <trkpt lat="47.75614" lon="-3.51368">
        <ele>12.2</ele>
        <time>2021-11-25T14:44:31.000Z</time>
      </trkpt>
      <trkpt lat="47.75619" lon="-3.51386">
        <ele>11.2</ele>
        <time>2021-11-25T14:44:28.000Z</time>
      </trkpt>
      <trkpt lat="47.75625" lon="-3.51403">
        <ele>14.3</ele>
        <time>2021-11-25T14:44:25.000Z</time>
      </trkpt>
      <trkpt lat="47.75633" lon="-3.51419">
        <ele>18.6</ele>
        <time>2021-11-25T14:44:22.000Z</time>
      </trkpt>
      <trkpt lat="47.75643" lon="-3.51431">
        <ele>15.5</ele>
        <time>2021-11-25T14:44:19.000Z</time>
      </trkpt>
      <trkpt lat="47.75654" lon="-3.51431">
        <ele>17.1</ele>
        <time>2021-11-25T14:44:16.000Z</time>
      </trkpt>
      <trkpt lat="47.75662" lon="-3.51435">
        <ele>16.9</ele>
        <time>2021-11-25T14:44:13.000Z</time>
      </trkpt>
      <trkpt lat="47.75668" lon="-3.5144">
        <ele>13.6</ele>
        <time>2021-11-25T14:44:10.000Z</time>
      </trkpt>
      <trkpt lat="47.75675" lon="-3.51446">
        <ele>13.3</ele>
        <time>2021-11-25T14:44:07.000Z</time>
      </trkpt>
      <trkpt lat="47.7568" lon="-3.51453">
        <ele>13.6</ele>
        <time>2021-11-25T14:44:04.000Z</time>
      </trkpt>
      <trkpt lat="47.75684" lon="-3.51463">
        <ele>7.7</ele>
        <time>2021-11-25T14:44:01.000Z</time>
      </trkpt>
      <trkpt lat="47.7569" lon="-3.51478">
        <ele>9.5</ele>
        <time>2021-11-25T14:43:58.000Z</time>
      </trkpt>
      <trkpt lat="47.75693" lon="-3.515">
        <ele>9.4</ele>
        <time>2021-11-25T14:43:55.000Z</time>
      </trkpt>
      <trkpt lat="47.75697" lon="-3.51516">
        <ele>9.7</ele>
        <time>2021-11-25T14:43:52.000Z</time>
      </trkpt>
      <trkpt lat="47.75711" lon="-3.51517">
        <ele>13.7</ele>
        <time>2021-11-25T14:43:49.000Z</time>
      </trkpt>
      <trkpt lat="47.75723" lon="-3.51527">
        <ele>16.5</ele>
        <time>2021-11-25T14:43:46.000Z</time>
      </trkpt>
      <trkpt lat="47.75732" lon="-3.51539">
        <ele>23</ele>
        <time>2021-11-25T14:43:43.000Z</time>
      </trkpt>
      <trkpt lat="47.75743" lon="-3.51549">
        <ele>18.7</ele>
        <time>2021-11-25T14:43:40.000Z</time>
      </trkpt>
      <trkpt lat="47.75752" lon="-3.5156">
        <ele>20.5</ele>
        <time>2021-11-25T14:43:37.000Z</time>
      </trkpt>
      <trkpt lat="47.75761" lon="-3.5157">
        <ele>16.1</ele>
        <time>2021-11-25T14:43:34.000Z</time>
      </trkpt>
      <trkpt lat="47.75774" lon="-3.51577">
        <ele>22.9</ele>
        <time>2021-11-25T14:43:31.000Z</time>
      </trkpt>
      <trkpt lat="47.75788" lon="-3.51582">
        <ele>21.8</ele>
        <time>2021-11-25T14:43:28.000Z</time>
      </trkpt>
      <trkpt lat="47.758" lon="-3.51587">
        <ele>17.7</ele>
        <time>2021-11-25T14:43:25.000Z</time>
      </trkpt>
      <trkpt lat="47.75813" lon="-3.51588">
        <ele>20.9</ele>
        <time>2021-11-25T14:43:22.000Z</time>
      </trkpt>
      <trkpt lat="47.75828" lon="-3.51588">
        <ele>25.4</ele>
        <time>2021-11-25T14:43:19.000Z</time>
      </trkpt>
      <trkpt lat="47.75844" lon="-3.51588">
        <ele>26.8</ele>
        <time>2021-11-25T14:43:16.000Z</time>
      </trkpt>
      <trkpt lat="47.7586" lon="-3.51588">
        <ele>22.9</ele>
        <time>2021-11-25T14:43:13.000Z</time>
      </trkpt>
      <trkpt lat="47.75876" lon="-3.51587">
        <ele>23.3</ele>
        <time>2021-11-25T14:43:10.000Z</time>
      </trkpt>
      <trkpt lat="47.7589" lon="-3.51587">
        <ele>28</ele>
        <time>2021-11-25T14:43:07.000Z</time>
      </trkpt>
      <trkpt lat="47.75904" lon="-3.51587">
        <ele>21.2</ele>
        <time>2021-11-25T14:43:04.000Z</time>
      </trkpt>
      <trkpt lat="47.75917" lon="-3.51585">
        <ele>25.9</ele>
        <time>2021-11-25T14:43:01.000Z</time>
      </trkpt>
      <trkpt lat="47.7593" lon="-3.51585">
        <ele>26.5</ele>
        <time>2021-11-25T14:42:58.000Z</time>
      </trkpt>
      <trkpt lat="47.75942" lon="-3.51583">
        <ele>26.8</ele>
        <time>2021-11-25T14:42:55.000Z</time>
      </trkpt>
      <trkpt lat="47.75956" lon="-3.5158">
        <ele>27.5</ele>
        <time>2021-11-25T14:42:52.000Z</time>
      </trkpt>
      <trkpt lat="47.75972" lon="-3.5158">
        <ele>26.5</ele>
        <time>2021-11-25T14:42:49.000Z</time>
      </trkpt>
      <trkpt lat="47.75986" lon="-3.51579">
        <ele>25.8</ele>
        <time>2021-11-25T14:42:46.000Z</time>
      </trkpt>
      <trkpt lat="47.75996" lon="-3.51572">
        <ele>22.3</ele>
        <time>2021-11-25T14:42:43.000Z</time>
      </trkpt>
      <trkpt lat="47.75998" lon="-3.51556">
        <ele>24.6</ele>
        <time>2021-11-25T14:42:40.000Z</time>
      </trkpt>
      <trkpt lat="47.76001" lon="-3.51535">
        <ele>25.3</ele>
        <time>2021-11-25T14:42:37.000Z</time>
      </trkpt>
      <trkpt lat="47.76016" lon="-3.51524">
        <ele>22</ele>
        <time>2021-11-25T14:42:34.000Z</time>
      </trkpt>
      <trkpt lat="47.76031" lon="-3.51515">
        <ele>28.7</ele>
        <time>2021-11-25T14:42:31.000Z</time>
      </trkpt>
      <trkpt lat="47.76041" lon="-3.515">
        <ele>29.4</ele>
        <time>2021-11-25T14:42:28.000Z</time>
      </trkpt>
      <trkpt lat="47.76052" lon="-3.51486">
        <ele>29.1</ele>
        <time>2021-11-25T14:42:25.000Z</time>
      </trkpt>
      <trkpt lat="47.76064" lon="-3.51476">
        <ele>32.7</ele>
        <time>2021-11-25T14:42:22.000Z</time>
      </trkpt>
      <trkpt lat="47.76076" lon="-3.51467">
        <ele>28.8</ele>
        <time>2021-11-25T14:42:19.000Z</time>
      </trkpt>
      <trkpt lat="47.76087" lon="-3.5146">
        <ele>27.6</ele>
        <time>2021-11-25T14:42:16.000Z</time>
      </trkpt>
      <trkpt lat="47.76096" lon="-3.51453">
        <ele>29.7</ele>
        <time>2021-11-25T14:42:13.000Z</time>
      </trkpt>
      <trkpt lat="47.76104" lon="-3.51446">
        <ele>28</ele>
        <time>2021-11-25T14:42:10.000Z</time>
      </trkpt>
      <trkpt lat="47.76112" lon="-3.51436">
        <ele>30.5</ele>
        <time>2021-11-25T14:42:07.000Z</time>
      </trkpt>
      <trkpt lat="47.7612" lon="-3.51427">
        <ele>29.6</ele>
        <time>2021-11-25T14:42:04.000Z</time>
      </trkpt>
      <trkpt lat="47.7613" lon="-3.5142">
        <ele>26.5</ele>
        <time>2021-11-25T14:42:01.000Z</time>
      </trkpt>
      <trkpt lat="47.76138" lon="-3.51408">
        <ele>26.3</ele>
        <time>2021-11-25T14:41:58.000Z</time>
      </trkpt>
      <trkpt lat="47.76146" lon="-3.51393">
        <ele>26.3</ele>
        <time>2021-11-25T14:41:55.000Z</time>
      </trkpt>
      <trkpt lat="47.76154" lon="-3.51377">
        <ele>21.5</ele>
        <time>2021-11-25T14:41:52.000Z</time>
      </trkpt>
      <trkpt lat="47.76164" lon="-3.51376">
        <ele>26.2</ele>
        <time>2021-11-25T14:41:49.000Z</time>
      </trkpt>
      <trkpt lat="47.76169" lon="-3.514">
        <ele>30.4</ele>
        <time>2021-11-25T14:41:46.000Z</time>
      </trkpt>
      <trkpt lat="47.76175" lon="-3.51424">
        <ele>24.8</ele>
        <time>2021-11-25T14:41:43.000Z</time>
      </trkpt>
      <trkpt lat="47.76182" lon="-3.51446">
        <ele>25.6</ele>
        <time>2021-11-25T14:41:40.000Z</time>
      </trkpt>
      <trkpt lat="47.76187" lon="-3.51469">
        <ele>35.7</ele>
        <time>2021-11-25T14:41:37.000Z</time>
      </trkpt>
      <trkpt lat="47.76192" lon="-3.51493">
        <ele>32</ele>
        <time>2021-11-25T14:41:34.000Z</time>
      </trkpt>
      <trkpt lat="47.76196" lon="-3.51516">
        <ele>25.5</ele>
        <time>2021-11-25T14:41:31.000Z</time>
      </trkpt>
      <trkpt lat="47.762" lon="-3.51537">
        <ele>34.3</ele>
        <time>2021-11-25T14:41:28.000Z</time>
      </trkpt>
      <trkpt lat="47.76202" lon="-3.51555">
        <ele>33.1</ele>
        <time>2021-11-25T14:41:25.000Z</time>
      </trkpt>
      <trkpt lat="47.76208" lon="-3.5157">
        <ele>31</ele>
        <time>2021-11-25T14:41:22.000Z</time>
      </trkpt>
      <trkpt lat="47.76221" lon="-3.5158">
        <ele>33.5</ele>
        <time>2021-11-25T14:41:19.000Z</time>
      </trkpt>
      <trkpt lat="47.76233" lon="-3.51586">
        <ele>34.1</ele>
        <time>2021-11-25T14:41:16.000Z</time>
      </trkpt>
      <trkpt lat="47.76243" lon="-3.51599">
        <ele>33.6</ele>
        <time>2021-11-25T14:41:13.000Z</time>
      </trkpt>
      <trkpt lat="47.76252" lon="-3.5161">
        <ele>34.9</ele>
        <time>2021-11-25T14:41:10.000Z</time>
      </trkpt>
      <trkpt lat="47.76262" lon="-3.5162">
        <ele>34.4</ele>
        <time>2021-11-25T14:41:07.000Z</time>
      </trkpt>
      <trkpt lat="47.76271" lon="-3.51621">
        <ele>35.4</ele>
        <time>2021-11-25T14:41:04.000Z</time>
      </trkpt>
      <trkpt lat="47.76279" lon="-3.51619">
        <ele>35.3</ele>
        <time>2021-11-25T14:41:01.000Z</time>
      </trkpt>
      <trkpt lat="47.76287" lon="-3.5161">
        <ele>34.8</ele>
        <time>2021-11-25T14:40:58.000Z</time>
      </trkpt>
      <trkpt lat="47.76297" lon="-3.51612">
        <ele>33.5</ele>
        <time>2021-11-25T14:40:55.000Z</time>
      </trkpt>
      <trkpt lat="47.76304" lon="-3.51622">
        <ele>34.8</ele>
        <time>2021-11-25T14:40:52.000Z</time>
      </trkpt>
      <trkpt lat="47.763" lon="-3.51637">
        <ele>31.5</ele>
        <time>2021-11-25T14:40:49.000Z</time>
      </trkpt>
      <trkpt lat="47.76295" lon="-3.51654">
        <ele>33</ele>
        <time>2021-11-25T14:40:46.000Z</time>
      </trkpt>
      <trkpt lat="47.76291" lon="-3.51674">
        <ele>33.3</ele>
        <time>2021-11-25T14:40:43.000Z</time>
      </trkpt>
      <trkpt lat="47.76287" lon="-3.51694">
        <ele>33.9</ele>
        <time>2021-11-25T14:40:40.000Z</time>
      </trkpt>
      <trkpt lat="47.76282" lon="-3.51713">
        <ele>34.8</ele>
        <time>2021-11-25T14:40:37.000Z</time>
      </trkpt>
      <trkpt lat="47.76275" lon="-3.51731">
        <ele>33.7</ele>
        <time>2021-11-25T14:40:34.000Z</time>
      </trkpt>
      <trkpt lat="47.76265" lon="-3.51744">
        <ele>33.8</ele>
        <time>2021-11-25T14:40:31.000Z</time>
      </trkpt>
      <trkpt lat="47.76253" lon="-3.51752">
        <ele>34.1</ele>
        <time>2021-11-25T14:40:28.000Z</time>
      </trkpt>
      <trkpt lat="47.7624" lon="-3.51759">
        <ele>33.4</ele>
        <time>2021-11-25T14:40:25.000Z</time>
      </trkpt>
      <trkpt lat="47.76229" lon="-3.51765">
        <ele>33.6</ele>
        <time>2021-11-25T14:40:22.000Z</time>
      </trkpt>
      <trkpt lat="47.76217" lon="-3.51771">
        <ele>32.9</ele>
        <time>2021-11-25T14:40:19.000Z</time>
      </trkpt>
      <trkpt lat="47.76205" lon="-3.51777">
        <ele>33.3</ele>
        <time>2021-11-25T14:40:16.000Z</time>
      </trkpt>
      <trkpt lat="47.76192" lon="-3.51782">
        <ele>33.1</ele>
        <time>2021-11-25T14:40:13.000Z</time>
      </trkpt>
      <trkpt lat="47.7618" lon="-3.51788">
        <ele>32.1</ele>
        <time>2021-11-25T14:40:10.000Z</time>
      </trkpt>
      <trkpt lat="47.76169" lon="-3.51798">
        <ele>32.9</ele>
        <time>2021-11-25T14:40:07.000Z</time>
      </trkpt>
      <trkpt lat="47.76162" lon="-3.51811">
        <ele>32.3</ele>
        <time>2021-11-25T14:40:04.000Z</time>
      </trkpt>
      <trkpt lat="47.76158" lon="-3.51826">
        <ele>31.6</ele>
        <time>2021-11-25T14:40:01.000Z</time>
      </trkpt>
      <trkpt lat="47.76153" lon="-3.51841">
        <ele>31</ele>
        <time>2021-11-25T14:39:58.000Z</time>
      </trkpt>
      <trkpt lat="47.76149" lon="-3.51857">
        <ele>30.7</ele>
        <time>2021-11-25T14:39:55.000Z</time>
      </trkpt>
      <trkpt lat="47.76144" lon="-3.51873">
        <ele>29.9</ele>
        <time>2021-11-25T14:39:52.000Z</time>
      </trkpt>
      <trkpt lat="47.76139" lon="-3.51892">
        <ele>29.4</ele>
        <time>2021-11-25T14:39:49.000Z</time>
      </trkpt>
      <trkpt lat="47.76134" lon="-3.51909">
        <ele>29.8</ele>
        <time>2021-11-25T14:39:46.000Z</time>
      </trkpt>
      <trkpt lat="47.76129" lon="-3.51925">
        <ele>29.2</ele>
        <time>2021-11-25T14:39:43.000Z</time>
      </trkpt>
      <trkpt lat="47.76125" lon="-3.5194">
        <ele>29.6</ele>
        <time>2021-11-25T14:39:40.000Z</time>
      </trkpt>
      <trkpt lat="47.7612" lon="-3.51956">
        <ele>28.7</ele>
        <time>2021-11-25T14:39:37.000Z</time>
      </trkpt>
      <trkpt lat="47.76116" lon="-3.51972">
        <ele>28.7</ele>
        <time>2021-11-25T14:39:34.000Z</time>
      </trkpt>
      <trkpt lat="47.76111" lon="-3.51987">
        <ele>28</ele>
        <time>2021-11-25T14:39:31.000Z</time>
      </trkpt>
      <trkpt lat="47.76107" lon="-3.52002">
        <ele>27.4</ele>
        <time>2021-11-25T14:39:28.000Z</time>
      </trkpt>
      <trkpt lat="47.76103" lon="-3.52017">
        <ele>27</ele>
        <time>2021-11-25T14:39:25.000Z</time>
      </trkpt>
      <trkpt lat="47.76098" lon="-3.52032">
        <ele>25.8</ele>
        <time>2021-11-25T14:39:22.000Z</time>
      </trkpt>
      <trkpt lat="47.76094" lon="-3.52048">
        <ele>26</ele>
        <time>2021-11-25T14:39:19.000Z</time>
      </trkpt>
      <trkpt lat="47.76089" lon="-3.52064">
        <ele>25.6</ele>
        <time>2021-11-25T14:39:16.000Z</time>
      </trkpt>
      <trkpt lat="47.76084" lon="-3.52081">
        <ele>24.9</ele>
        <time>2021-11-25T14:39:13.000Z</time>
      </trkpt>
      <trkpt lat="47.76079" lon="-3.52097">
        <ele>23.8</ele>
        <time>2021-11-25T14:39:10.000Z</time>
      </trkpt>
      <trkpt lat="47.76074" lon="-3.52113">
        <ele>23.4</ele>
        <time>2021-11-25T14:39:07.000Z</time>
      </trkpt>
      <trkpt lat="47.76067" lon="-3.52128">
        <ele>22.9</ele>
        <time>2021-11-25T14:39:04.000Z</time>
      </trkpt>
      <trkpt lat="47.76059" lon="-3.52142">
        <ele>22.6</ele>
        <time>2021-11-25T14:39:01.000Z</time>
      </trkpt>
      <trkpt lat="47.76055" lon="-3.52157">
        <ele>21.9</ele>
        <time>2021-11-25T14:38:58.000Z</time>
      </trkpt>
      <trkpt lat="47.76063" lon="-3.52168">
        <ele>21.8</ele>
        <time>2021-11-25T14:38:55.000Z</time>
      </trkpt>
      <trkpt lat="47.7607" lon="-3.52177">
        <ele>21.5</ele>
        <time>2021-11-25T14:38:52.000Z</time>
      </trkpt>
      <trkpt lat="47.76089" lon="-3.52189">
        <ele>16.4</ele>
        <time>2021-11-16T13:29:18.000Z</time>
      </trkpt>
      <trkpt lat="47.76108" lon="-3.52198">
        <ele>16.2</ele>
        <time>2021-11-16T13:29:21.000Z</time>
      </trkpt>
      <trkpt lat="47.76128" lon="-3.52207">
        <ele>16.1</ele>
        <time>2021-11-16T13:29:24.000Z</time>
      </trkpt>
      <trkpt lat="47.76148" lon="-3.52215">
        <ele>16.1</ele>
        <time>2021-11-16T13:29:27.000Z</time>
      </trkpt>
      <trkpt lat="47.76168" lon="-3.52225">
        <ele>14.2</ele>
        <time>2021-11-16T13:29:30.000Z</time>
      </trkpt>
      <trkpt lat="47.76187" lon="-3.52234">
        <ele>13.7</ele>
        <time>2021-11-16T13:29:33.000Z</time>
      </trkpt>
      <trkpt lat="47.76207" lon="-3.52243">
        <ele>14.4</ele>
        <time>2021-11-16T13:29:36.000Z</time>
      </trkpt>
      <trkpt lat="47.76224" lon="-3.52252">
        <ele>14.8</ele>
        <time>2021-11-16T13:29:39.000Z</time>
      </trkpt>
      <trkpt lat="47.76234" lon="-3.52256">
        <ele>14.2</ele>
        <time>2021-11-16T13:29:42.000Z</time>
      </trkpt>
      <trkpt lat="47.76243" lon="-3.52259">
        <ele>12.7</ele>
        <time>2021-11-16T13:29:45.000Z</time>
      </trkpt>
      <trkpt lat="47.76257" lon="-3.52263">
        <ele>13.1</ele>
        <time>2021-11-16T13:29:48.000Z</time>
      </trkpt>
      <trkpt lat="47.76273" lon="-3.5227">
        <ele>12.4</ele>
        <time>2021-11-16T13:29:51.000Z</time>
      </trkpt>
      <trkpt lat="47.76291" lon="-3.52278">
        <ele>13.1</ele>
        <time>2021-11-16T13:29:54.000Z</time>
      </trkpt>
      <trkpt lat="47.76311" lon="-3.52287">
        <ele>10</ele>
        <time>2021-11-16T13:29:57.000Z</time>
      </trkpt>
      <trkpt lat="47.7633" lon="-3.52296">
        <ele>11.7</ele>
        <time>2021-11-16T13:30:00.000Z</time>
      </trkpt>
      <trkpt lat="47.7635" lon="-3.52305">
        <ele>10.5</ele>
        <time>2021-11-16T13:30:03.000Z</time>
      </trkpt>
      <trkpt lat="47.76369" lon="-3.52315">
        <ele>10.7</ele>
        <time>2021-11-16T13:30:06.000Z</time>
      </trkpt>
      <trkpt lat="47.76389" lon="-3.52326">
        <ele>11.3</ele>
        <time>2021-11-16T13:30:09.000Z</time>
      </trkpt>
      <trkpt lat="47.76408" lon="-3.52336">
        <ele>8.5</ele>
        <time>2021-11-16T13:30:12.000Z</time>
      </trkpt>
      <trkpt lat="47.76427" lon="-3.52345">
        <ele>11</ele>
        <time>2021-11-16T13:30:15.000Z</time>
      </trkpt>
      <trkpt lat="47.76445" lon="-3.52353">
        <ele>11.5</ele>
        <time>2021-11-16T13:30:18.000Z</time>
      </trkpt>
      <trkpt lat="47.76462" lon="-3.52361">
        <ele>11.9</ele>
        <time>2021-11-16T13:30:21.000Z</time>
      </trkpt>
      <trkpt lat="47.76478" lon="-3.52368">
        <ele>11.8</ele>
        <time>2021-11-16T13:30:24.000Z</time>
      </trkpt>
      <trkpt lat="47.76493" lon="-3.52375">
        <ele>12.2</ele>
        <time>2021-11-16T13:30:27.000Z</time>
      </trkpt>
      <trkpt lat="47.76509" lon="-3.52382">
        <ele>12.9</ele>
        <time>2021-11-16T13:30:30.000Z</time>
      </trkpt>
      <trkpt lat="47.76525" lon="-3.52389">
        <ele>12.6</ele>
        <time>2021-11-16T13:30:33.000Z</time>
      </trkpt>
      <trkpt lat="47.76541" lon="-3.52394">
        <ele>14</ele>
        <time>2021-11-16T13:30:36.000Z</time>
      </trkpt>
      <trkpt lat="47.76558" lon="-3.52399">
        <ele>13.8</ele>
        <time>2021-11-16T13:30:39.000Z</time>
      </trkpt>
      <trkpt lat="47.76576" lon="-3.52404">
        <ele>14.2</ele>
        <time>2021-11-16T13:30:42.000Z</time>
      </trkpt>
      <trkpt lat="47.76594" lon="-3.52408">
        <ele>11.5</ele>
        <time>2021-11-16T13:30:45.000Z</time>
      </trkpt>
      <trkpt lat="47.76613" lon="-3.52412">
        <ele>12.8</ele>
        <time>2021-11-16T13:30:48.000Z</time>
      </trkpt>
      <trkpt lat="47.76632" lon="-3.52416">
        <ele>15.1</ele>
        <time>2021-11-16T13:30:51.000Z</time>
      </trkpt>
      <trkpt lat="47.7665" lon="-3.5242">
        <ele>6.8</ele>
        <time>2021-11-16T13:30:54.000Z</time>
      </trkpt>
      <trkpt lat="47.76669" lon="-3.52425">
        <ele>11.4</ele>
        <time>2021-11-16T13:30:57.000Z</time>
      </trkpt>
      <trkpt lat="47.76687" lon="-3.5243">
        <ele>13.7</ele>
        <time>2021-11-16T13:31:00.000Z</time>
      </trkpt>
      <trkpt lat="47.76705" lon="-3.52434">
        <ele>12.2</ele>
        <time>2021-11-16T13:31:03.000Z</time>
      </trkpt>
      <trkpt lat="47.76723" lon="-3.52438">
        <ele>10.7</ele>
        <time>2021-11-16T13:31:06.000Z</time>
      </trkpt>
      <trkpt lat="47.76741" lon="-3.52441">
        <ele>11.6</ele>
        <time>2021-11-16T13:31:09.000Z</time>
      </trkpt>
      <trkpt lat="47.76759" lon="-3.52444">
        <ele>12.1</ele>
        <time>2021-11-16T13:31:12.000Z</time>
      </trkpt>
      <trkpt lat="47.76776" lon="-3.52448">
        <ele>12.9</ele>
        <time>2021-11-16T13:31:15.000Z</time>
      </trkpt>
      <trkpt lat="47.76792" lon="-3.52452">
        <ele>12.8</ele>
        <time>2021-11-16T13:31:18.000Z</time>
      </trkpt>
      <trkpt lat="47.7681" lon="-3.52457">
        <ele>11.9</ele>
        <time>2021-11-16T13:31:21.000Z</time>
      </trkpt>
      <trkpt lat="47.76828" lon="-3.52462">
        <ele>12.4</ele>
        <time>2021-11-16T13:31:24.000Z</time>
      </trkpt>
      <trkpt lat="47.76847" lon="-3.52466">
        <ele>10.1</ele>
        <time>2021-11-16T13:31:27.000Z</time>
      </trkpt>
      <trkpt lat="47.76865" lon="-3.5247">
        <ele>11.4</ele>
        <time>2021-11-16T13:31:30.000Z</time>
      </trkpt>
      <trkpt lat="47.76883" lon="-3.52474">
        <ele>11.1</ele>
        <time>2021-11-16T13:31:33.000Z</time>
      </trkpt>
      <trkpt lat="47.769" lon="-3.52479">
        <ele>10.5</ele>
        <time>2021-11-16T13:31:36.000Z</time>
      </trkpt>
      <trkpt lat="47.76919" lon="-3.52484">
        <ele>9</ele>
        <time>2021-11-16T13:31:39.000Z</time>
      </trkpt>
      <trkpt lat="47.76937" lon="-3.52489">
        <ele>8.6</ele>
        <time>2021-11-16T13:31:42.000Z</time>
      </trkpt>
      <trkpt lat="47.76956" lon="-3.52491">
        <ele>10.5</ele>
        <time>2021-11-16T13:31:45.000Z</time>
      </trkpt>
      <trkpt lat="47.76976" lon="-3.52494">
        <ele>11.2</ele>
        <time>2021-11-16T13:31:48.000Z</time>
      </trkpt>
      <trkpt lat="47.76995" lon="-3.52499">
        <ele>10</ele>
        <time>2021-11-16T13:31:51.000Z</time>
      </trkpt>
      <trkpt lat="47.77014" lon="-3.52505">
        <ele>10.4</ele>
        <time>2021-11-16T13:31:54.000Z</time>
      </trkpt>
      <trkpt lat="47.77032" lon="-3.52515">
        <ele>9.9</ele>
        <time>2021-11-16T13:31:57.000Z</time>
      </trkpt>
      <trkpt lat="47.77048" lon="-3.52529">
        <ele>9.2</ele>
        <time>2021-11-16T13:32:00.000Z</time>
      </trkpt>
      <trkpt lat="47.77063" lon="-3.52545">
        <ele>10</ele>
        <time>2021-11-16T13:32:03.000Z</time>
      </trkpt>
      <trkpt lat="47.77076" lon="-3.52562">
        <ele>8.9</ele>
        <time>2021-11-16T13:32:06.000Z</time>
      </trkpt>
      <trkpt lat="47.77088" lon="-3.52582">
        <ele>8.5</ele>
        <time>2021-11-16T13:32:09.000Z</time>
      </trkpt>
      <trkpt lat="47.77099" lon="-3.52604">
        <ele>8.7</ele>
        <time>2021-11-16T13:32:12.000Z</time>
      </trkpt>
      <trkpt lat="47.7711" lon="-3.52626">
        <ele>8.8</ele>
        <time>2021-11-16T13:32:15.000Z</time>
      </trkpt>
      <trkpt lat="47.77122" lon="-3.52649">
        <ele>6</ele>
        <time>2021-11-16T13:32:18.000Z</time>
      </trkpt>
      <trkpt lat="47.77134" lon="-3.52671">
        <ele>6.3</ele>
        <time>2021-11-16T13:32:21.000Z</time>
      </trkpt>
      <trkpt lat="47.77146" lon="-3.52693">
        <ele>7.1</ele>
        <time>2021-11-16T13:32:24.000Z</time>
      </trkpt>
      <trkpt lat="47.77157" lon="-3.52711">
        <ele>8.9</ele>
        <time>2021-11-16T13:32:27.000Z</time>
      </trkpt>
      <trkpt lat="47.77166" lon="-3.52729">
        <ele>7.4</ele>
        <time>2021-11-16T13:32:30.000Z</time>
      </trkpt>
      <trkpt lat="47.77175" lon="-3.52746">
        <ele>7.7</ele>
        <time>2021-11-16T13:32:33.000Z</time>
      </trkpt>
      <trkpt lat="47.77181" lon="-3.52762">
        <ele>7.9</ele>
        <time>2021-11-16T13:32:36.000Z</time>
      </trkpt>
      <trkpt lat="47.77188" lon="-3.52778">
        <ele>7.7</ele>
        <time>2021-11-16T13:32:39.000Z</time>
      </trkpt>
      <trkpt lat="47.77196" lon="-3.52797">
        <ele>7.2</ele>
        <time>2021-11-16T13:32:42.000Z</time>
      </trkpt>
      <trkpt lat="47.77206" lon="-3.52817">
        <ele>6.5</ele>
        <time>2021-11-16T13:32:45.000Z</time>
      </trkpt>
      <trkpt lat="47.77212" lon="-3.52838">
        <ele>6.1</ele>
        <time>2021-11-16T13:32:48.000Z</time>
      </trkpt>
      <trkpt lat="47.77218" lon="-3.52856">
        <ele>6.4</ele>
        <time>2021-11-16T13:32:51.000Z</time>
      </trkpt>
      <trkpt lat="47.77228" lon="-3.52867">
        <ele>6.5</ele>
        <time>2021-11-16T13:32:54.000Z</time>
      </trkpt>
      <trkpt lat="47.77238" lon="-3.52874">
        <ele>6.9</ele>
        <time>2021-11-16T13:32:57.000Z</time>
      </trkpt>
      <trkpt lat="47.77242" lon="-3.52879">
        <ele>7.1</ele>
        <time>2021-11-16T13:33:00.000Z</time>
      </trkpt>
      <trkpt lat="47.77239" lon="-3.52883">
        <ele>6.7</ele>
        <time>2021-11-16T13:33:03.000Z</time>
      </trkpt>
      <trkpt lat="47.77238" lon="-3.52886">
        <ele>7</ele>
        <time>2021-11-16T13:33:06.000Z</time>
      </trkpt>
      <trkpt lat="47.77236" lon="-3.52888">
        <ele>6.6</ele>
        <time>2021-11-16T13:33:09.000Z</time>
      </trkpt>
      <trkpt lat="47.77236" lon="-3.52888">
        <ele>6.4</ele>
        <time>2021-11-16T13:33:11.000Z</time>
      </trkpt>
      <trkpt lat="47.77236" lon="-3.52888">
        <ele>7.1</ele>
        <time>2021-11-16T13:33:13.000Z</time>
      </trkpt>
      <trkpt lat="47.77235" lon="-3.52888">
        <ele>7</ele>
        <time>2021-11-16T13:33:16.000Z</time>
      </trkpt>
      <trkpt lat="47.77235" lon="-3.52888">
        <ele>7.2</ele>
        <time>2021-11-16T13:33:19.000Z</time>
      </trkpt>
      <trkpt lat="47.77235" lon="-3.52888">
        <ele>6.7</ele>
        <time>2021-11-16T13:33:22.000Z</time>
      </trkpt>
      <trkpt lat="47.77235" lon="-3.52888">
        <ele>6.6</ele>
        <time>2021-11-16T13:33:25.000Z</time>
      </trkpt>
      <trkpt lat="47.77235" lon="-3.52888">
        <ele>6.9</ele>
        <time>2021-11-16T13:33:28.000Z</time>
      </trkpt>
      <trkpt lat="47.77235" lon="-3.52888">
        <ele>6.9</ele>
        <time>2021-11-16T13:33:31.000Z</time>
      </trkpt>
      <trkpt lat="47.77235" lon="-3.52888">
        <ele>7.1</ele>
        <time>2021-11-16T13:33:34.000Z</time>
      </trkpt>
      <trkpt lat="47.77235" lon="-3.52887">
        <ele>7.1</ele>
        <time>2021-11-16T13:33:37.000Z</time>
      </trkpt>
      <trkpt lat="47.77235" lon="-3.52887">
        <ele>6.9</ele>
        <time>2021-11-16T13:33:40.000Z</time>
      </trkpt>
      <trkpt lat="47.77235" lon="-3.52887">
        <ele>6.7</ele>
        <time>2021-11-16T13:33:43.000Z</time>
      </trkpt>
      <trkpt lat="47.77235" lon="-3.52887">
        <ele>6.3</ele>
        <time>2021-11-16T13:33:45.000Z</time>
      </trkpt>
      <trkpt lat="47.77235" lon="-3.52881">
        <ele>7.1</ele>
        <time>2021-11-16T13:33:48.000Z</time>
      </trkpt>
      <trkpt lat="47.77238" lon="-3.52873">
        <ele>6.9</ele>
        <time>2021-11-16T13:33:51.000Z</time>
      </trkpt>
      <trkpt lat="47.77247" lon="-3.52874">
        <ele>6.9</ele>
        <time>2021-11-16T13:33:54.000Z</time>
      </trkpt>
      <trkpt lat="47.77257" lon="-3.52875">
        <ele>6.7</ele>
        <time>2021-11-16T13:33:57.000Z</time>
      </trkpt>
      <trkpt lat="47.77263" lon="-3.52859">
        <ele>6.6</ele>
        <time>2021-11-16T13:34:00.000Z</time>
      </trkpt>
      <trkpt lat="47.7727" lon="-3.52844">
        <ele>6.5</ele>
        <time>2021-11-16T13:34:03.000Z</time>
      </trkpt>
      <trkpt lat="47.77278" lon="-3.52831">
        <ele>6.8</ele>
        <time>2021-11-16T13:34:06.000Z</time>
      </trkpt>
      <trkpt lat="47.77275" lon="-3.52818">
        <ele>7.1</ele>
        <time>2021-11-16T13:34:09.000Z</time>
      </trkpt>
      <trkpt lat="47.77265" lon="-3.52812">
        <ele>7.6</ele>
        <time>2021-11-16T13:34:12.000Z</time>
      </trkpt>
      <trkpt lat="47.77254" lon="-3.52804">
        <ele>8.9</ele>
        <time>2021-11-16T13:34:15.000Z</time>
      </trkpt>
      <trkpt lat="47.77246" lon="-3.52794">
        <ele>9.5</ele>
        <time>2021-11-16T13:34:18.000Z</time>
      </trkpt>
      <trkpt lat="47.77243" lon="-3.52778">
        <ele>10.5</ele>
        <time>2021-11-16T13:34:21.000Z</time>
      </trkpt>
      <trkpt lat="47.77243" lon="-3.52761">
        <ele>11.7</ele>
        <time>2021-11-16T13:34:24.000Z</time>
      </trkpt>
      <trkpt lat="47.77243" lon="-3.52745">
        <ele>12</ele>
        <time>2021-11-16T13:34:27.000Z</time>
      </trkpt>
      <trkpt lat="47.77244" lon="-3.52729">
        <ele>13</ele>
        <time>2021-11-16T13:34:30.000Z</time>
      </trkpt>
      <trkpt lat="47.77245" lon="-3.52713">
        <ele>13.2</ele>
        <time>2021-11-16T13:34:33.000Z</time>
      </trkpt>
      <trkpt lat="47.77246" lon="-3.52697">
        <ele>12.8</ele>
        <time>2021-11-16T13:34:36.000Z</time>
      </trkpt>
      <trkpt lat="47.77251" lon="-3.52681">
        <ele>12.6</ele>
        <time>2021-11-16T13:34:39.000Z</time>
      </trkpt>
      <trkpt lat="47.7726" lon="-3.52675">
        <ele>13.7</ele>
        <time>2021-11-16T13:34:42.000Z</time>
      </trkpt>
      <trkpt lat="47.77266" lon="-3.52676">
        <ele>13.8</ele>
        <time>2021-11-16T13:34:45.000Z</time>
      </trkpt>
      <trkpt lat="47.77272" lon="-3.52676">
        <ele>14.6</ele>
        <time>2021-11-16T13:34:48.000Z</time>
      </trkpt>
      <trkpt lat="47.77278" lon="-3.5268">
        <ele>16.2</ele>
        <time>2021-11-16T13:34:51.000Z</time>
      </trkpt>
      <trkpt lat="47.77284" lon="-3.52679">
        <ele>17.2</ele>
        <time>2021-11-16T13:34:54.000Z</time>
      </trkpt>
      <trkpt lat="47.7729" lon="-3.5268">
        <ele>18.1</ele>
        <time>2021-11-16T13:34:57.000Z</time>
      </trkpt>
      <trkpt lat="47.77296" lon="-3.52679">
        <ele>18.5</ele>
        <time>2021-11-16T13:35:00.000Z</time>
      </trkpt>
      <trkpt lat="47.77302" lon="-3.52677">
        <ele>19</ele>
        <time>2021-11-16T13:35:03.000Z</time>
      </trkpt>
      <trkpt lat="47.77309" lon="-3.52677">
        <ele>19.7</ele>
        <time>2021-11-16T13:35:06.000Z</time>
      </trkpt>
      <trkpt lat="47.77315" lon="-3.52677">
        <ele>20.5</ele>
        <time>2021-11-16T13:35:09.000Z</time>
      </trkpt>
      <trkpt lat="47.77321" lon="-3.52678">
        <ele>20.1</ele>
        <time>2021-11-16T13:35:12.000Z</time>
      </trkpt>
      <trkpt lat="47.77327" lon="-3.5268">
        <ele>20.8</ele>
        <time>2021-11-16T13:35:15.000Z</time>
      </trkpt>
      <trkpt lat="47.77332" lon="-3.52682">
        <ele>23</ele>
        <time>2021-11-16T13:35:18.000Z</time>
      </trkpt>
      <trkpt lat="47.77337" lon="-3.52684">
        <ele>23.3</ele>
        <time>2021-11-16T13:35:21.000Z</time>
      </trkpt>
      <trkpt lat="47.77342" lon="-3.52686">
        <ele>25.1</ele>
        <time>2021-11-16T13:35:24.000Z</time>
      </trkpt>
      <trkpt lat="47.77347" lon="-3.52688">
        <ele>23.7</ele>
        <time>2021-11-16T13:35:27.000Z</time>
      </trkpt>
      <trkpt lat="47.77352" lon="-3.52691">
        <ele>25</ele>
        <time>2021-11-16T13:35:30.000Z</time>
      </trkpt>
      <trkpt lat="47.77358" lon="-3.52695">
        <ele>24.6</ele>
        <time>2021-11-16T13:35:33.000Z</time>
      </trkpt>
      <trkpt lat="47.77363" lon="-3.52698">
        <ele>27.4</ele>
        <time>2021-11-16T13:35:36.000Z</time>
      </trkpt>
      <trkpt lat="47.77369" lon="-3.52699">
        <ele>27.3</ele>
        <time>2021-11-16T13:35:39.000Z</time>
      </trkpt>
      <trkpt lat="47.77375" lon="-3.527">
        <ele>26.8</ele>
        <time>2021-11-16T13:35:42.000Z</time>
      </trkpt>
      <trkpt lat="47.77381" lon="-3.52701">
        <ele>27.1</ele>
        <time>2021-11-16T13:35:45.000Z</time>
      </trkpt>
      <trkpt lat="47.77388" lon="-3.52701">
        <ele>28.3</ele>
        <time>2021-11-16T13:35:48.000Z</time>
      </trkpt>
      <trkpt lat="47.77394" lon="-3.52701">
        <ele>29.1</ele>
        <time>2021-11-16T13:35:51.000Z</time>
      </trkpt>
      <trkpt lat="47.774" lon="-3.52701">
        <ele>30.4</ele>
        <time>2021-11-16T13:35:54.000Z</time>
      </trkpt>
      <trkpt lat="47.77406" lon="-3.52702">
        <ele>30.1</ele>
        <time>2021-11-16T13:35:57.000Z</time>
      </trkpt>
      <trkpt lat="47.77413" lon="-3.52702">
        <ele>30.1</ele>
        <time>2021-11-16T13:36:00.000Z</time>
      </trkpt>
      <trkpt lat="47.77423" lon="-3.52702">
        <ele>29.2</ele>
        <time>2021-11-16T13:36:03.000Z</time>
      </trkpt>
      <trkpt lat="47.77437" lon="-3.52703">
        <ele>28.6</ele>
        <time>2021-11-16T13:36:06.000Z</time>
      </trkpt>
      <trkpt lat="47.77456" lon="-3.52705">
        <ele>26.2</ele>
        <time>2021-11-16T13:36:09.000Z</time>
      </trkpt>
      <trkpt lat="47.77475" lon="-3.52707">
        <ele>25</ele>
        <time>2021-11-16T13:36:12.000Z</time>
      </trkpt>
      <trkpt lat="47.77493" lon="-3.5271">
        <ele>24.9</ele>
        <time>2021-11-16T13:36:15.000Z</time>
      </trkpt>
      <trkpt lat="47.77509" lon="-3.52711">
        <ele>24.8</ele>
        <time>2021-11-16T13:36:18.000Z</time>
      </trkpt>
      <trkpt lat="47.77522" lon="-3.5271">
        <ele>27.6</ele>
        <time>2021-11-16T13:36:21.000Z</time>
      </trkpt>
      <trkpt lat="47.77531" lon="-3.52711">
        <ele>28.7</ele>
        <time>2021-11-16T13:36:24.000Z</time>
      </trkpt>
      <trkpt lat="47.7754" lon="-3.52713">
        <ele>29.1</ele>
        <time>2021-11-16T13:36:27.000Z</time>
      </trkpt>
      <trkpt lat="47.77549" lon="-3.52713">
        <ele>31.3</ele>
        <time>2021-11-16T13:36:30.000Z</time>
      </trkpt>
      <trkpt lat="47.77558" lon="-3.52715">
        <ele>30.6</ele>
        <time>2021-11-16T13:36:33.000Z</time>
      </trkpt>
      <trkpt lat="47.77568" lon="-3.52716">
        <ele>30.9</ele>
        <time>2021-11-16T13:36:36.000Z</time>
      </trkpt>
      <trkpt lat="47.77577" lon="-3.52716">
        <ele>32.1</ele>
        <time>2021-11-16T13:36:39.000Z</time>
      </trkpt>
      <trkpt lat="47.77587" lon="-3.52717">
        <ele>32.3</ele>
        <time>2021-11-16T13:36:42.000Z</time>
      </trkpt>
      <trkpt lat="47.77597" lon="-3.52718">
        <ele>33.1</ele>
        <time>2021-11-16T13:36:45.000Z</time>
      </trkpt>
      <trkpt lat="47.77608" lon="-3.52719">
        <ele>32.7</ele>
        <time>2021-11-16T13:36:48.000Z</time>
      </trkpt>
      <trkpt lat="47.77618" lon="-3.52716">
        <ele>34.9</ele>
        <time>2021-11-16T13:36:51.000Z</time>
      </trkpt>
      <trkpt lat="47.77627" lon="-3.52707">
        <ele>31.5</ele>
        <time>2021-11-16T13:36:54.000Z</time>
      </trkpt>
      <trkpt lat="47.7763" lon="-3.52693">
        <ele>33.3</ele>
        <time>2021-11-16T13:36:57.000Z</time>
      </trkpt>
      <trkpt lat="47.77629" lon="-3.52679">
        <ele>33.8</ele>
        <time>2021-11-16T13:37:00.000Z</time>
      </trkpt>
      <trkpt lat="47.77629" lon="-3.52664">
        <ele>34.1</ele>
        <time>2021-11-16T13:37:03.000Z</time>
      </trkpt>
      <trkpt lat="47.77629" lon="-3.52649">
        <ele>36.5</ele>
        <time>2021-11-16T13:37:06.000Z</time>
      </trkpt>
      <trkpt lat="47.77631" lon="-3.52635">
        <ele>35.5</ele>
        <time>2021-11-16T13:37:09.000Z</time>
      </trkpt>
      <trkpt lat="47.77631" lon="-3.52619">
        <ele>35.6</ele>
        <time>2021-11-16T13:37:12.000Z</time>
      </trkpt>
      <trkpt lat="47.77635" lon="-3.52605">
        <ele>34.1</ele>
        <time>2021-11-16T13:37:15.000Z</time>
      </trkpt>
      <trkpt lat="47.77645" lon="-3.52602">
        <ele>35.5</ele>
        <time>2021-11-16T13:37:18.000Z</time>
      </trkpt>
      <trkpt lat="47.77657" lon="-3.52605">
        <ele>36.2</ele>
        <time>2021-11-16T13:37:21.000Z</time>
      </trkpt>
      <trkpt lat="47.77669" lon="-3.5261">
        <ele>36.7</ele>
        <time>2021-11-16T13:37:24.000Z</time>
      </trkpt>
      <trkpt lat="47.77682" lon="-3.52616">
        <ele>36.5</ele>
        <time>2021-11-16T13:37:27.000Z</time>
      </trkpt>
      <trkpt lat="47.77696" lon="-3.52622">
        <ele>36.1</ele>
        <time>2021-11-16T13:37:30.000Z</time>
      </trkpt>
      <trkpt lat="47.77711" lon="-3.52628">
        <ele>36.7</ele>
        <time>2021-11-16T13:37:33.000Z</time>
      </trkpt>
      <trkpt lat="47.77724" lon="-3.52633">
        <ele>38.3</ele>
        <time>2021-11-16T13:37:36.000Z</time>
      </trkpt>
      <trkpt lat="47.77737" lon="-3.52638">
        <ele>38.5</ele>
        <time>2021-11-16T13:37:39.000Z</time>
      </trkpt>
      <trkpt lat="47.77751" lon="-3.52643">
        <ele>38.5</ele>
        <time>2021-11-16T13:37:42.000Z</time>
      </trkpt>
      <trkpt lat="47.77764" lon="-3.52649">
        <ele>39</ele>
        <time>2021-11-16T13:37:45.000Z</time>
      </trkpt>
      <trkpt lat="47.77778" lon="-3.52654">
        <ele>39.7</ele>
        <time>2021-11-16T13:37:48.000Z</time>
      </trkpt>
      <trkpt lat="47.77792" lon="-3.5266">
        <ele>39.9</ele>
        <time>2021-11-16T13:37:51.000Z</time>
      </trkpt>
      <trkpt lat="47.77806" lon="-3.52665">
        <ele>40.4</ele>
        <time>2021-11-16T13:37:54.000Z</time>
      </trkpt>
      <trkpt lat="47.7782" lon="-3.5267">
        <ele>40.5</ele>
        <time>2021-11-16T13:37:57.000Z</time>
      </trkpt>
      <trkpt lat="47.77833" lon="-3.52675">
        <ele>41.1</ele>
        <time>2021-11-16T13:38:00.000Z</time>
      </trkpt>
      <trkpt lat="47.77845" lon="-3.52681">
        <ele>41.6</ele>
        <time>2021-11-16T13:38:03.000Z</time>
      </trkpt>
      <trkpt lat="47.77858" lon="-3.52686">
        <ele>41.6</ele>
        <time>2021-11-16T13:38:06.000Z</time>
      </trkpt>
      <trkpt lat="47.77871" lon="-3.52691">
        <ele>45.3</ele>
        <time>2021-11-16T13:38:09.000Z</time>
      </trkpt>
      <trkpt lat="47.77883" lon="-3.52696">
        <ele>41.9</ele>
        <time>2021-11-16T13:38:12.000Z</time>
      </trkpt>
      <trkpt lat="47.77894" lon="-3.52701">
        <ele>44.5</ele>
        <time>2021-11-16T13:38:15.000Z</time>
      </trkpt>
      <trkpt lat="47.77906" lon="-3.52706">
        <ele>47.1</ele>
        <time>2021-11-16T13:38:18.000Z</time>
      </trkpt>
      <trkpt lat="47.77918" lon="-3.5271">
        <ele>43.7</ele>
        <time>2021-11-16T13:38:21.000Z</time>
      </trkpt>
      <trkpt lat="47.7793" lon="-3.52714">
        <ele>46</ele>
        <time>2021-11-16T13:38:24.000Z</time>
      </trkpt>
      <trkpt lat="47.77942" lon="-3.52719">
        <ele>45.6</ele>
        <time>2021-11-16T13:38:27.000Z</time>
      </trkpt>
      <trkpt lat="47.77954" lon="-3.52723">
        <ele>47.6</ele>
        <time>2021-11-16T13:38:30.000Z</time>
      </trkpt>
      <trkpt lat="47.77965" lon="-3.52728">
        <ele>44.2</ele>
        <time>2021-11-16T13:38:33.000Z</time>
      </trkpt>
      <trkpt lat="47.77976" lon="-3.52733">
        <ele>46.6</ele>
        <time>2021-11-16T13:38:36.000Z</time>
      </trkpt>
      <trkpt lat="47.77987" lon="-3.52737">
        <ele>45.6</ele>
        <time>2021-11-16T13:38:39.000Z</time>
      </trkpt>
      <trkpt lat="47.77999" lon="-3.52742">
        <ele>47.2</ele>
        <time>2021-11-16T13:38:42.000Z</time>
      </trkpt>
      <trkpt lat="47.7801" lon="-3.52746">
        <ele>45.9</ele>
        <time>2021-11-16T13:38:45.000Z</time>
      </trkpt>
      <trkpt lat="47.78022" lon="-3.52751">
        <ele>47.1</ele>
        <time>2021-11-16T13:38:48.000Z</time>
      </trkpt>
      <trkpt lat="47.78034" lon="-3.52756">
        <ele>43.3</ele>
        <time>2021-11-16T13:38:51.000Z</time>
      </trkpt>
      <trkpt lat="47.78047" lon="-3.52762">
        <ele>45.7</ele>
        <time>2021-11-16T13:38:54.000Z</time>
      </trkpt>
      <trkpt lat="47.7806" lon="-3.52765">
        <ele>47.1</ele>
        <time>2021-11-16T13:38:57.000Z</time>
      </trkpt>
      <trkpt lat="47.78074" lon="-3.52769">
        <ele>47.4</ele>
        <time>2021-11-16T13:39:00.000Z</time>
      </trkpt>
      <trkpt lat="47.7809" lon="-3.5277">
        <ele>45.6</ele>
        <time>2021-11-16T13:39:03.000Z</time>
      </trkpt>
      <trkpt lat="47.78105" lon="-3.5277">
        <ele>45.5</ele>
        <time>2021-11-16T13:39:06.000Z</time>
      </trkpt>
      <trkpt lat="47.7812" lon="-3.5277">
        <ele>45.6</ele>
        <time>2021-11-16T13:39:09.000Z</time>
      </trkpt>
      <trkpt lat="47.78134" lon="-3.52769">
        <ele>48</ele>
        <time>2021-11-16T13:39:12.000Z</time>
      </trkpt>
      <trkpt lat="47.78148" lon="-3.52768">
        <ele>45.9</ele>
        <time>2021-11-16T13:39:15.000Z</time>
      </trkpt>
      <trkpt lat="47.78161" lon="-3.52767">
        <ele>40.8</ele>
        <time>2021-11-16T13:39:18.000Z</time>
      </trkpt>
      <trkpt lat="47.78173" lon="-3.52765">
        <ele>42.2</ele>
        <time>2021-11-16T13:39:21.000Z</time>
      </trkpt>
      <trkpt lat="47.78187" lon="-3.52763">
        <ele>45.7</ele>
        <time>2021-11-16T13:39:24.000Z</time>
      </trkpt>
      <trkpt lat="47.78203" lon="-3.52762">
        <ele>43.2</ele>
        <time>2021-11-16T13:39:27.000Z</time>
      </trkpt>
      <trkpt lat="47.7822" lon="-3.52762">
        <ele>41.4</ele>
        <time>2021-11-16T13:39:30.000Z</time>
      </trkpt>
      <trkpt lat="47.78238" lon="-3.5276">
        <ele>45.8</ele>
        <time>2021-11-16T13:39:33.000Z</time>
      </trkpt>
      <trkpt lat="47.7825" lon="-3.52745">
        <ele>46.3</ele>
        <time>2021-11-16T13:39:36.000Z</time>
      </trkpt>
      <trkpt lat="47.78254" lon="-3.52723">
        <ele>40.6</ele>
        <time>2021-11-16T13:39:39.000Z</time>
      </trkpt>
      <trkpt lat="47.78259" lon="-3.52704">
        <ele>44</ele>
        <time>2021-11-16T13:39:42.000Z</time>
      </trkpt>
      <trkpt lat="47.78263" lon="-3.52683">
        <ele>46.3</ele>
        <time>2021-11-16T13:39:45.000Z</time>
      </trkpt>
      <trkpt lat="47.78264" lon="-3.52663">
        <ele>40.8</ele>
        <time>2021-11-16T13:39:48.000Z</time>
      </trkpt>
      <trkpt lat="47.78266" lon="-3.52642">
        <ele>46</ele>
        <time>2021-11-16T13:39:51.000Z</time>
      </trkpt>
      <trkpt lat="47.78269" lon="-3.52622">
        <ele>41.4</ele>
        <time>2021-11-16T13:39:54.000Z</time>
      </trkpt>
      <trkpt lat="47.78271" lon="-3.52599">
        <ele>43.1</ele>
        <time>2021-11-16T13:39:57.000Z</time>
      </trkpt>
      <trkpt lat="47.78274" lon="-3.52576">
        <ele>43.8</ele>
        <time>2021-11-16T13:40:00.000Z</time>
      </trkpt>
      <trkpt lat="47.78277" lon="-3.52551">
        <ele>37.9</ele>
        <time>2021-11-16T13:40:03.000Z</time>
      </trkpt>
      <trkpt lat="47.78281" lon="-3.52525">
        <ele>41.5</ele>
        <time>2021-11-16T13:40:06.000Z</time>
      </trkpt>
      <trkpt lat="47.78285" lon="-3.525">
        <ele>39.8</ele>
        <time>2021-11-16T13:40:09.000Z</time>
      </trkpt>
      <trkpt lat="47.78287" lon="-3.52476">
        <ele>43</ele>
        <time>2021-11-16T13:40:12.000Z</time>
      </trkpt>
      <trkpt lat="47.7829" lon="-3.52451">
        <ele>40.4</ele>
        <time>2021-11-16T13:40:15.000Z</time>
      </trkpt>
      <trkpt lat="47.78293" lon="-3.52425">
        <ele>41.1</ele>
        <time>2021-11-16T13:40:18.000Z</time>
      </trkpt>
      <trkpt lat="47.78295" lon="-3.52399">
        <ele>35.5</ele>
        <time>2021-11-16T13:40:21.000Z</time>
      </trkpt>
      <trkpt lat="47.78299" lon="-3.52374">
        <ele>44.3</ele>
        <time>2021-11-16T13:40:24.000Z</time>
      </trkpt>
      <trkpt lat="47.78302" lon="-3.52349">
        <ele>41.9</ele>
        <time>2021-11-16T13:40:27.000Z</time>
      </trkpt>
      <trkpt lat="47.78305" lon="-3.52325">
        <ele>36</ele>
        <time>2021-11-16T13:40:30.000Z</time>
      </trkpt>
      <trkpt lat="47.78311" lon="-3.52303">
        <ele>38.6</ele>
        <time>2021-11-16T13:40:33.000Z</time>
      </trkpt>
      <trkpt lat="47.78316" lon="-3.52284">
        <ele>38.8</ele>
        <time>2021-11-16T13:40:36.000Z</time>
      </trkpt>
      <trkpt lat="47.78326" lon="-3.52274">
        <ele>36.6</ele>
        <time>2021-11-16T13:40:39.000Z</time>
      </trkpt>
      <trkpt lat="47.7834" lon="-3.52269">
        <ele>40.4</ele>
        <time>2021-11-16T13:40:42.000Z</time>
      </trkpt>
      <trkpt lat="47.78356" lon="-3.52262">
        <ele>36.8</ele>
        <time>2021-11-16T13:40:45.000Z</time>
      </trkpt>
      <trkpt lat="47.78373" lon="-3.52257">
        <ele>35.9</ele>
        <time>2021-11-16T13:40:48.000Z</time>
      </trkpt>
      <trkpt lat="47.78392" lon="-3.52252">
        <ele>31.3</ele>
        <time>2021-11-16T13:40:51.000Z</time>
      </trkpt>
      <trkpt lat="47.78416" lon="-3.5225">
        <ele>32.7</ele>
        <time>2021-11-16T13:40:54.000Z</time>
      </trkpt>
      <trkpt lat="47.78442" lon="-3.52254">
        <ele>26.8</ele>
        <time>2021-11-16T13:40:57.000Z</time>
      </trkpt>
      <trkpt lat="47.78466" lon="-3.52257">
        <ele>29.1</ele>
        <time>2021-11-16T13:41:00.000Z</time>
      </trkpt>
      <trkpt lat="47.78486" lon="-3.52263">
        <ele>25.8</ele>
        <time>2021-11-16T13:41:03.000Z</time>
      </trkpt>
      <trkpt lat="47.78499" lon="-3.52266">
        <ele>33</ele>
        <time>2021-11-16T13:41:06.000Z</time>
      </trkpt>
      <trkpt lat="47.7851" lon="-3.52267">
        <ele>31</ele>
        <time>2021-11-16T13:41:09.000Z</time>
      </trkpt>
      <trkpt lat="47.78519" lon="-3.52269">
        <ele>35.8</ele>
        <time>2021-11-16T13:41:12.000Z</time>
      </trkpt>
      <trkpt lat="47.78527" lon="-3.52272">
        <ele>35.8</ele>
        <time>2021-11-16T13:41:15.000Z</time>
      </trkpt>
      <trkpt lat="47.78535" lon="-3.52275">
        <ele>38.6</ele>
        <time>2021-11-16T13:41:18.000Z</time>
      </trkpt>
      <trkpt lat="47.78545" lon="-3.52277">
        <ele>35.2</ele>
        <time>2021-11-16T13:41:21.000Z</time>
      </trkpt>
      <trkpt lat="47.78556" lon="-3.52282">
        <ele>37.7</ele>
        <time>2021-11-16T13:41:24.000Z</time>
      </trkpt>
      <trkpt lat="47.78568" lon="-3.52289">
        <ele>37.7</ele>
        <time>2021-11-16T13:41:27.000Z</time>
      </trkpt>
      <trkpt lat="47.7858" lon="-3.52295">
        <ele>33.6</ele>
        <time>2021-11-16T13:41:30.000Z</time>
      </trkpt>
      <trkpt lat="47.78594" lon="-3.52304">
        <ele>30.3</ele>
        <time>2021-11-16T13:41:33.000Z</time>
      </trkpt>
      <trkpt lat="47.78612" lon="-3.5231">
        <ele>29.3</ele>
        <time>2021-11-16T13:41:36.000Z</time>
      </trkpt>
      <trkpt lat="47.78634" lon="-3.52317">
        <ele>32.5</ele>
        <time>2021-11-16T13:41:39.000Z</time>
      </trkpt>
      <trkpt lat="47.78658" lon="-3.52325">
        <ele>36.3</ele>
        <time>2021-11-16T13:41:42.000Z</time>
      </trkpt>
      <trkpt lat="47.78684" lon="-3.52331">
        <ele>20.2</ele>
        <time>2021-11-16T13:41:45.000Z</time>
      </trkpt>
      <trkpt lat="47.78711" lon="-3.52337">
        <ele>15</ele>
        <time>2021-11-16T13:41:48.000Z</time>
      </trkpt>
      <trkpt lat="47.78738" lon="-3.52343">
        <ele>25</ele>
        <time>2021-11-16T13:41:51.000Z</time>
      </trkpt>
      <trkpt lat="47.78761" lon="-3.52346">
        <ele>13.3</ele>
        <time>2021-11-16T13:41:54.000Z</time>
      </trkpt>
      <trkpt lat="47.78773" lon="-3.52348">
        <ele>15.8</ele>
        <time>2021-11-16T13:41:57.000Z</time>
      </trkpt>
      <trkpt lat="47.78779" lon="-3.52351">
        <ele>18.4</ele>
        <time>2021-11-16T13:42:00.000Z</time>
      </trkpt>
      <trkpt lat="47.78787" lon="-3.5235">
        <ele>18.1</ele>
        <time>2021-11-16T13:42:03.000Z</time>
      </trkpt>
      <trkpt lat="47.78797" lon="-3.52354">
        <ele>16.6</ele>
        <time>2021-11-16T13:42:06.000Z</time>
      </trkpt>
      <trkpt lat="47.78805" lon="-3.52358">
        <ele>17.9</ele>
        <time>2021-11-16T13:42:09.000Z</time>
      </trkpt>
      <trkpt lat="47.78808" lon="-3.5236">
        <ele>17.9</ele>
        <time>2021-11-16T13:42:12.000Z</time>
      </trkpt>
      <trkpt lat="47.78808" lon="-3.5236">
        <ele>17.8</ele>
        <time>2021-11-16T13:42:15.000Z</time>
      </trkpt>
      <trkpt lat="47.78808" lon="-3.5236">
        <ele>17.9</ele>
        <time>2021-11-16T13:42:16.000Z</time>
      </trkpt>
      <trkpt lat="47.78808" lon="-3.5236">
        <ele>17.5</ele>
        <time>2021-11-16T13:42:19.000Z</time>
      </trkpt>
      <trkpt lat="47.78808" lon="-3.52361">
        <ele>17.6</ele>
        <time>2021-11-16T13:42:22.000Z</time>
      </trkpt>
      <trkpt lat="47.78808" lon="-3.52361">
        <ele>17.7</ele>
        <time>2021-11-16T13:42:23.000Z</time>
      </trkpt>
      <trkpt lat="47.78808" lon="-3.52361">
        <ele>17.7</ele>
        <time>2021-11-16T13:42:26.000Z</time>
      </trkpt>
      <trkpt lat="47.78808" lon="-3.52361">
        <ele>17.8</ele>
        <time>2021-11-16T13:42:29.000Z</time>
      </trkpt>
      <trkpt lat="47.78808" lon="-3.52361">
        <ele>17.6</ele>
        <time>2021-11-16T13:42:32.000Z</time>
      </trkpt>
      <trkpt lat="47.78808" lon="-3.52361">
        <ele>17.6</ele>
        <time>2021-11-16T13:42:35.000Z</time>
      </trkpt>
      <trkpt lat="47.78808" lon="-3.52361">
        <ele>17.7</ele>
        <time>2021-11-16T13:42:36.000Z</time>
      </trkpt>
      <trkpt lat="47.78808" lon="-3.52361">
        <ele>17.8</ele>
        <time>2021-11-16T13:42:39.000Z</time>
      </trkpt>
      <trkpt lat="47.7881" lon="-3.52363">
        <ele>17.6</ele>
        <time>2021-11-16T13:42:42.000Z</time>
      </trkpt>
      <trkpt lat="47.78816" lon="-3.52366">
        <ele>17.1</ele>
        <time>2021-11-16T13:42:45.000Z</time>
      </trkpt>
      <trkpt lat="47.78826" lon="-3.52373">
        <ele>13.5</ele>
        <time>2021-11-16T13:42:48.000Z</time>
      </trkpt>
      <trkpt lat="47.78837" lon="-3.52381">
        <ele>20.2</ele>
        <time>2021-11-16T13:42:51.000Z</time>
      </trkpt>
      <trkpt lat="47.7885" lon="-3.52384">
        <ele>13.8</ele>
        <time>2021-11-16T13:42:54.000Z</time>
      </trkpt>
      <trkpt lat="47.78862" lon="-3.52382">
        <ele>11.1</ele>
        <time>2021-11-16T13:42:57.000Z</time>
      </trkpt>
      <trkpt lat="47.78873" lon="-3.52383">
        <ele>10</ele>
        <time>2021-11-16T13:43:00.000Z</time>
      </trkpt>
      <trkpt lat="47.78881" lon="-3.52385">
        <ele>9.5</ele>
        <time>2021-11-16T13:43:03.000Z</time>
      </trkpt>
      <trkpt lat="47.78889" lon="-3.52387">
        <ele>11</ele>
        <time>2021-11-16T13:43:06.000Z</time>
      </trkpt>
      <trkpt lat="47.789" lon="-3.52389">
        <ele>4.9</ele>
        <time>2021-11-16T13:43:09.000Z</time>
      </trkpt>
      <trkpt lat="47.78919" lon="-3.52386">
        <ele>11.5</ele>
        <time>2021-11-16T13:43:12.000Z</time>
      </trkpt>
      <trkpt lat="47.78934" lon="-3.52382">
        <ele>5.5</ele>
        <time>2021-11-16T13:43:15.000Z</time>
      </trkpt>
      <trkpt lat="47.78945" lon="-3.52381">
        <ele>4.6</ele>
        <time>2021-11-16T13:43:18.000Z</time>
      </trkpt>
      <trkpt lat="47.78953" lon="-3.52379">
        <ele>6.4</ele>
        <time>2021-11-16T13:43:21.000Z</time>
      </trkpt>
      <trkpt lat="47.78958" lon="-3.5237">
        <ele>6.4</ele>
        <time>2021-11-16T13:43:24.000Z</time>
      </trkpt>
      <trkpt lat="47.78957" lon="-3.52368">
        <ele>5.6</ele>
        <time>2021-11-16T13:43:27.000Z</time>
      </trkpt>
      <trkpt lat="47.78956" lon="-3.52367">
        <ele>5.4</ele>
        <time>2021-11-16T13:43:30.000Z</time>
      </trkpt>
      <trkpt lat="47.78956" lon="-3.52367">
        <ele>5.2</ele>
        <time>2021-11-16T13:43:32.000Z</time>
      </trkpt>
      <trkpt lat="47.78956" lon="-3.52367">
        <ele>5.3</ele>
        <time>2021-11-16T13:43:33.000Z</time>
      </trkpt>
      <trkpt lat="47.78956" lon="-3.52367">
        <ele>5.4</ele>
        <time>2021-11-16T13:43:35.000Z</time>
      </trkpt>
      <trkpt lat="47.78956" lon="-3.52367">
        <ele>5.5</ele>
        <time>2021-11-16T13:43:38.000Z</time>
      </trkpt>
      <trkpt lat="47.78956" lon="-3.52367">
        <ele>5.7</ele>
        <time>2021-11-16T13:43:41.000Z</time>
      </trkpt>
      <trkpt lat="47.78956" lon="-3.52367">
        <ele>5.7</ele>
        <time>2021-11-16T13:43:44.000Z</time>
      </trkpt>
      <trkpt lat="47.78956" lon="-3.52367">
        <ele>5.7</ele>
        <time>2021-11-16T13:43:47.000Z</time>
      </trkpt>
      <trkpt lat="47.78956" lon="-3.52367">
        <ele>5.7</ele>
        <time>2021-11-16T13:43:50.000Z</time>
      </trkpt>
      <trkpt lat="47.78956" lon="-3.52367">
        <ele>5.7</ele>
        <time>2021-11-16T13:43:53.000Z</time>
      </trkpt>
      <trkpt lat="47.78956" lon="-3.52367">
        <ele>5.8</ele>
        <time>2021-11-16T13:43:56.000Z</time>
      </trkpt>
      <trkpt lat="47.78956" lon="-3.52367">
        <ele>5.7</ele>
        <time>2021-11-16T13:43:59.000Z</time>
      </trkpt>
      <trkpt lat="47.78956" lon="-3.52367">
        <ele>5.6</ele>
        <time>2021-11-16T13:44:01.000Z</time>
      </trkpt>
      <trkpt lat="47.78958" lon="-3.52365">
        <ele>4.9</ele>
        <time>2021-11-16T13:44:04.000Z</time>
      </trkpt>
      <trkpt lat="47.7896" lon="-3.5236">
        <ele>5.3</ele>
        <time>2021-11-16T13:44:07.000Z</time>
      </trkpt>
      <trkpt lat="47.78962" lon="-3.52354">
        <ele>5.3</ele>
        <time>2021-11-16T13:44:10.000Z</time>
      </trkpt>
      <trkpt lat="47.78965" lon="-3.52344">
        <ele>7.3</ele>
        <time>2021-11-16T13:44:13.000Z</time>
      </trkpt>
      <trkpt lat="47.7897" lon="-3.52333">
        <ele>7.3</ele>
        <time>2021-11-16T13:44:16.000Z</time>
      </trkpt>
      <trkpt lat="47.78975" lon="-3.52323">
        <ele>5.4</ele>
        <time>2021-11-16T13:44:19.000Z</time>
      </trkpt>
      <trkpt lat="47.78982" lon="-3.52318">
        <ele>6.6</ele>
        <time>2021-11-16T13:44:22.000Z</time>
      </trkpt>
      <trkpt lat="47.78984" lon="-3.52318">
        <ele>6.1</ele>
        <time>2021-11-16T13:44:25.000Z</time>
      </trkpt>
      <trkpt lat="47.78984" lon="-3.52317">
        <ele>6.1</ele>
        <time>2021-11-16T13:44:26.000Z</time>
      </trkpt>
      <trkpt lat="47.78985" lon="-3.52316">
        <ele>5.5</ele>
        <time>2021-11-16T13:44:29.000Z</time>
      </trkpt>
      <trkpt lat="47.78986" lon="-3.52316">
        <ele>7.6</ele>
        <time>2021-11-16T13:44:32.000Z</time>
      </trkpt>
      <trkpt lat="47.78987" lon="-3.52316">
        <ele>7.2</ele>
        <time>2021-11-16T13:44:35.000Z</time>
      </trkpt>
      <trkpt lat="47.78987" lon="-3.52316">
        <ele>7.2</ele>
        <time>2021-11-16T13:44:36.000Z</time>
      </trkpt>
      <trkpt lat="47.78987" lon="-3.52316">
        <ele>7.1</ele>
        <time>2021-11-16T13:44:37.000Z</time>
      </trkpt>
      <trkpt lat="47.78987" lon="-3.52317">
        <ele>7.8</ele>
        <time>2021-11-16T13:44:39.000Z</time>
      </trkpt>
      <trkpt lat="47.78987" lon="-3.52319">
        <ele>8.3</ele>
        <time>2021-11-16T13:44:42.000Z</time>
      </trkpt>
      <trkpt lat="47.78988" lon="-3.5232">
        <ele>7.7</ele>
        <time>2021-11-16T13:44:45.000Z</time>
      </trkpt>
      <trkpt lat="47.7899" lon="-3.5232">
        <ele>8.8</ele>
        <time>2021-11-16T13:44:48.000Z</time>
      </trkpt>
      <trkpt lat="47.7899" lon="-3.52319">
        <ele>10.1</ele>
        <time>2021-11-16T13:44:51.000Z</time>
      </trkpt>
      <trkpt lat="47.78992" lon="-3.52319">
        <ele>10.7</ele>
        <time>2021-11-16T13:44:54.000Z</time>
      </trkpt>
      <trkpt lat="47.78994" lon="-3.52319">
        <ele>10.4</ele>
        <time>2021-11-16T13:44:57.000Z</time>
      </trkpt>
      <trkpt lat="47.78995" lon="-3.52318">
        <ele>10.7</ele>
        <time>2021-11-16T13:45:00.000Z</time>
      </trkpt>
      <trkpt lat="47.78998" lon="-3.52318">
        <ele>10.5</ele>
        <time>2021-11-16T13:45:03.000Z</time>
      </trkpt>
      <trkpt lat="47.79001" lon="-3.52319">
        <ele>11.4</ele>
        <time>2021-11-16T13:45:06.000Z</time>
      </trkpt>
      <trkpt lat="47.79004" lon="-3.52319">
        <ele>11.6</ele>
        <time>2021-11-16T13:45:09.000Z</time>
      </trkpt>
      <trkpt lat="47.79006" lon="-3.52318">
        <ele>11.9</ele>
        <time>2021-11-16T13:45:12.000Z</time>
      </trkpt>
      <trkpt lat="47.79006" lon="-3.52318">
        <ele>11.8</ele>
        <time>2021-11-16T13:45:13.000Z</time>
      </trkpt>
      <trkpt lat="47.79007" lon="-3.52317">
        <ele>11.8</ele>
        <time>2021-11-16T13:45:15.000Z</time>
      </trkpt>
      <trkpt lat="47.79009" lon="-3.52316">
        <ele>12.2</ele>
        <time>2021-11-16T13:45:18.000Z</time>
      </trkpt>
      <trkpt lat="47.79013" lon="-3.52314">
        <ele>12.6</ele>
        <time>2021-11-16T13:45:21.000Z</time>
      </trkpt>
      <trkpt lat="47.79018" lon="-3.52313">
        <ele>12.9</ele>
        <time>2021-11-16T13:45:24.000Z</time>
      </trkpt>
      <trkpt lat="47.79023" lon="-3.52312">
        <ele>13.4</ele>
        <time>2021-11-16T13:45:27.000Z</time>
      </trkpt>
      <trkpt lat="47.7903" lon="-3.5231">
        <ele>13.9</ele>
        <time>2021-11-16T13:45:30.000Z</time>
      </trkpt>
      <trkpt lat="47.79036" lon="-3.52308">
        <ele>14.4</ele>
        <time>2021-11-16T13:45:33.000Z</time>
      </trkpt>
      <trkpt lat="47.79043" lon="-3.52307">
        <ele>15</ele>
        <time>2021-11-16T13:45:36.000Z</time>
      </trkpt>
      <trkpt lat="47.79049" lon="-3.52306">
        <ele>15.9</ele>
        <time>2021-11-16T13:45:39.000Z</time>
      </trkpt>
      <trkpt lat="47.79056" lon="-3.52303">
        <ele>15.7</ele>
        <time>2021-11-16T13:45:42.000Z</time>
      </trkpt>
      <trkpt lat="47.79063" lon="-3.52299">
        <ele>16.4</ele>
        <time>2021-11-16T13:45:45.000Z</time>
      </trkpt>
      <trkpt lat="47.79069" lon="-3.52295">
        <ele>17.3</ele>
        <time>2021-11-16T13:45:48.000Z</time>
      </trkpt>
      <trkpt lat="47.79075" lon="-3.52288">
        <ele>17.7</ele>
        <time>2021-11-16T13:45:51.000Z</time>
      </trkpt>
      <trkpt lat="47.79079" lon="-3.52282">
        <ele>18.8</ele>
        <time>2021-11-16T13:45:54.000Z</time>
      </trkpt>
      <trkpt lat="47.79081" lon="-3.52274">
        <ele>19.1</ele>
        <time>2021-11-16T13:45:57.000Z</time>
      </trkpt>
      <trkpt lat="47.79082" lon="-3.52265">
        <ele>20</ele>
        <time>2021-11-16T13:46:00.000Z</time>
      </trkpt>
      <trkpt lat="47.79082" lon="-3.52255">
        <ele>20.5</ele>
        <time>2021-11-16T13:46:03.000Z</time>
      </trkpt>
      <trkpt lat="47.79082" lon="-3.52246">
        <ele>21.2</ele>
        <time>2021-11-16T13:46:06.000Z</time>
      </trkpt>
      <trkpt lat="47.79081" lon="-3.52237">
        <ele>21.8</ele>
        <time>2021-11-16T13:46:09.000Z</time>
      </trkpt>
      <trkpt lat="47.7908" lon="-3.52227">
        <ele>22.4</ele>
        <time>2021-11-16T13:46:12.000Z</time>
      </trkpt>
      <trkpt lat="47.79079" lon="-3.52218">
        <ele>23.2</ele>
        <time>2021-11-16T13:46:15.000Z</time>
      </trkpt>
      <trkpt lat="47.79079" lon="-3.52209">
        <ele>24.1</ele>
        <time>2021-11-16T13:46:18.000Z</time>
      </trkpt>
      <trkpt lat="47.79079" lon="-3.52198">
        <ele>23.8</ele>
        <time>2021-11-16T13:46:21.000Z</time>
      </trkpt>
      <trkpt lat="47.79079" lon="-3.52188">
        <ele>24.6</ele>
        <time>2021-11-16T13:46:24.000Z</time>
      </trkpt>
      <trkpt lat="47.7908" lon="-3.52179">
        <ele>25.5</ele>
        <time>2021-11-16T13:46:27.000Z</time>
      </trkpt>
      <trkpt lat="47.79081" lon="-3.52169">
        <ele>26</ele>
        <time>2021-11-16T13:46:30.000Z</time>
      </trkpt>
      <trkpt lat="47.79082" lon="-3.52158">
        <ele>26.5</ele>
        <time>2021-11-16T13:46:33.000Z</time>
      </trkpt>
      <trkpt lat="47.79084" lon="-3.52147">
        <ele>26.5</ele>
        <time>2021-11-16T13:46:36.000Z</time>
      </trkpt>
      <trkpt lat="47.79088" lon="-3.5214">
        <ele>27.7</ele>
        <time>2021-11-16T13:46:39.000Z</time>
      </trkpt>
      <trkpt lat="47.79094" lon="-3.52139">
        <ele>28.8</ele>
        <time>2021-11-16T13:46:42.000Z</time>
      </trkpt>
      <trkpt lat="47.79101" lon="-3.52141">
        <ele>28.8</ele>
        <time>2021-11-16T13:46:45.000Z</time>
      </trkpt>
      <trkpt lat="47.79107" lon="-3.52144">
        <ele>29.6</ele>
        <time>2021-11-16T13:46:48.000Z</time>
      </trkpt>
      <trkpt lat="47.79114" lon="-3.52146">
        <ele>29.9</ele>
        <time>2021-11-16T13:46:51.000Z</time>
      </trkpt>
      <trkpt lat="47.79121" lon="-3.52149">
        <ele>30.7</ele>
        <time>2021-11-16T13:46:54.000Z</time>
      </trkpt>
      <trkpt lat="47.79127" lon="-3.52152">
        <ele>31.6</ele>
        <time>2021-11-16T13:46:57.000Z</time>
      </trkpt>
      <trkpt lat="47.79134" lon="-3.52156">
        <ele>31.3</ele>
        <time>2021-11-16T13:47:00.000Z</time>
      </trkpt>
      <trkpt lat="47.79142" lon="-3.5216">
        <ele>32.2</ele>
        <time>2021-11-16T13:47:03.000Z</time>
      </trkpt>
      <trkpt lat="47.79149" lon="-3.52163">
        <ele>32.8</ele>
        <time>2021-11-16T13:47:06.000Z</time>
      </trkpt>
      <trkpt lat="47.79156" lon="-3.52164">
        <ele>33.5</ele>
        <time>2021-11-16T13:47:09.000Z</time>
      </trkpt>
      <trkpt lat="47.79163" lon="-3.52166">
        <ele>34.5</ele>
        <time>2021-11-16T13:47:12.000Z</time>
      </trkpt>
      <trkpt lat="47.79169" lon="-3.52168">
        <ele>34.4</ele>
        <time>2021-11-16T13:47:15.000Z</time>
      </trkpt>
      <trkpt lat="47.79176" lon="-3.5217">
        <ele>35.3</ele>
        <time>2021-11-16T13:47:18.000Z</time>
      </trkpt>
      <trkpt lat="47.79183" lon="-3.5217">
        <ele>35.7</ele>
        <time>2021-11-16T13:47:21.000Z</time>
      </trkpt>
      <trkpt lat="47.79189" lon="-3.52171">
        <ele>36.5</ele>
        <time>2021-11-16T13:47:24.000Z</time>
      </trkpt>
      <trkpt lat="47.79195" lon="-3.52172">
        <ele>37</ele>
        <time>2021-11-16T13:47:27.000Z</time>
      </trkpt>
      <trkpt lat="47.792" lon="-3.52171">
        <ele>37.7</ele>
        <time>2021-11-16T13:47:30.000Z</time>
      </trkpt>
      <trkpt lat="47.79203" lon="-3.52171">
        <ele>38.4</ele>
        <time>2021-11-16T13:47:33.000Z</time>
      </trkpt>
      <trkpt lat="47.79205" lon="-3.52171">
        <ele>38.7</ele>
        <time>2021-11-16T13:47:36.000Z</time>
      </trkpt>
      <trkpt lat="47.79205" lon="-3.52171">
        <ele>38.6</ele>
        <time>2021-11-16T13:47:38.000Z</time>
      </trkpt>
      <trkpt lat="47.7921" lon="-3.52175">
        <ele>38.3</ele>
        <time>2021-11-16T13:47:41.000Z</time>
      </trkpt>
      <trkpt lat="47.79214" lon="-3.52187">
        <ele>37.7</ele>
        <time>2021-11-16T13:47:44.000Z</time>
      </trkpt>
      <trkpt lat="47.79216" lon="-3.52203">
        <ele>36.8</ele>
        <time>2021-11-16T13:47:47.000Z</time>
      </trkpt>
      <trkpt lat="47.79218" lon="-3.52222">
        <ele>36.6</ele>
        <time>2021-11-16T13:47:50.000Z</time>
      </trkpt>
      <trkpt lat="47.79222" lon="-3.52242">
        <ele>36.3</ele>
        <time>2021-11-16T13:47:53.000Z</time>
      </trkpt>
      <trkpt lat="47.79227" lon="-3.52264">
        <ele>36.1</ele>
        <time>2021-11-16T13:47:56.000Z</time>
      </trkpt>
      <trkpt lat="47.79234" lon="-3.52285">
        <ele>35.6</ele>
        <time>2021-11-16T13:47:59.000Z</time>
      </trkpt>
      <trkpt lat="47.79242" lon="-3.52306">
        <ele>36.1</ele>
        <time>2021-11-16T13:48:02.000Z</time>
      </trkpt>
      <trkpt lat="47.79252" lon="-3.52327">
        <ele>36.1</ele>
        <time>2021-11-16T13:48:05.000Z</time>
      </trkpt>
      <trkpt lat="47.79263" lon="-3.52346">
        <ele>35.9</ele>
        <time>2021-11-16T13:48:08.000Z</time>
      </trkpt>
      <trkpt lat="47.79276" lon="-3.52364">
        <ele>35.3</ele>
        <time>2021-11-16T13:48:11.000Z</time>
      </trkpt>
      <trkpt lat="47.79291" lon="-3.52381">
        <ele>34.8</ele>
        <time>2021-11-16T13:48:14.000Z</time>
      </trkpt>
      <trkpt lat="47.79307" lon="-3.52396">
        <ele>33.7</ele>
        <time>2021-11-16T13:48:17.000Z</time>
      </trkpt>
      <trkpt lat="47.79325" lon="-3.5241">
        <ele>33.4</ele>
        <time>2021-11-16T13:48:20.000Z</time>
      </trkpt>
      <trkpt lat="47.79346" lon="-3.5242">
        <ele>32.4</ele>
        <time>2021-11-16T13:48:23.000Z</time>
      </trkpt>
      <trkpt lat="47.79368" lon="-3.52429">
        <ele>32.2</ele>
        <time>2021-11-16T13:48:26.000Z</time>
      </trkpt>
      <trkpt lat="47.79393" lon="-3.52433">
        <ele>30.4</ele>
        <time>2021-11-16T13:48:29.000Z</time>
      </trkpt>
      <trkpt lat="47.7942" lon="-3.52435">
        <ele>28.9</ele>
        <time>2021-11-16T13:48:32.000Z</time>
      </trkpt>
      <trkpt lat="47.7945" lon="-3.52432">
        <ele>25.8</ele>
        <time>2021-11-16T13:48:35.000Z</time>
      </trkpt>
      <trkpt lat="47.79481" lon="-3.52425">
        <ele>22.4</ele>
        <time>2021-11-16T13:48:38.000Z</time>
      </trkpt>
      <trkpt lat="47.79515" lon="-3.52415">
        <ele>20</ele>
        <time>2021-11-16T13:48:41.000Z</time>
      </trkpt>
      <trkpt lat="47.79551" lon="-3.52402">
        <ele>16.4</ele>
        <time>2021-11-16T13:48:44.000Z</time>
      </trkpt>
      <trkpt lat="47.79588" lon="-3.52388">
        <ele>14.6</ele>
        <time>2021-11-16T13:48:47.000Z</time>
      </trkpt>
      <trkpt lat="47.79624" lon="-3.52372">
        <ele>15.5</ele>
        <time>2021-11-16T13:48:50.000Z</time>
      </trkpt>
      <trkpt lat="47.79656" lon="-3.52358">
        <ele>15.2</ele>
        <time>2021-11-16T13:48:53.000Z</time>
      </trkpt>
      <trkpt lat="47.79684" lon="-3.52346">
        <ele>16</ele>
        <time>2021-11-16T13:48:56.000Z</time>
      </trkpt>
      <trkpt lat="47.79709" lon="-3.52336">
        <ele>16.9</ele>
        <time>2021-11-16T13:48:59.000Z</time>
      </trkpt>
      <trkpt lat="47.79733" lon="-3.52327">
        <ele>18.4</ele>
        <time>2021-11-16T13:49:02.000Z</time>
      </trkpt>
      <trkpt lat="47.79756" lon="-3.52318">
        <ele>17.8</ele>
        <time>2021-11-16T13:49:05.000Z</time>
      </trkpt>
      <trkpt lat="47.79779" lon="-3.5231">
        <ele>17.4</ele>
        <time>2021-11-16T13:49:08.000Z</time>
      </trkpt>
      <trkpt lat="47.79802" lon="-3.52302">
        <ele>16.9</ele>
        <time>2021-11-16T13:49:11.000Z</time>
      </trkpt>
      <trkpt lat="47.79825" lon="-3.52293">
        <ele>17.1</ele>
        <time>2021-11-16T13:49:14.000Z</time>
      </trkpt>
      <trkpt lat="47.79846" lon="-3.52286">
        <ele>17.1</ele>
        <time>2021-11-16T13:49:17.000Z</time>
      </trkpt>
      <trkpt lat="47.79866" lon="-3.52281">
        <ele>19.5</ele>
        <time>2021-11-16T13:49:20.000Z</time>
      </trkpt>
      <trkpt lat="47.79884" lon="-3.5228">
        <ele>20.7</ele>
        <time>2021-11-16T13:49:23.000Z</time>
      </trkpt>
      <trkpt lat="47.79898" lon="-3.52279">
        <ele>20.4</ele>
        <time>2021-11-16T13:49:26.000Z</time>
      </trkpt>
      <trkpt lat="47.79909" lon="-3.52281">
        <ele>21.6</ele>
        <time>2021-11-16T13:49:29.000Z</time>
      </trkpt>
      <trkpt lat="47.79919" lon="-3.52284">
        <ele>22.9</ele>
        <time>2021-11-16T13:49:32.000Z</time>
      </trkpt>
      <trkpt lat="47.79928" lon="-3.52287">
        <ele>24.3</ele>
        <time>2021-11-16T13:49:35.000Z</time>
      </trkpt>
      <trkpt lat="47.79937" lon="-3.52292">
        <ele>26.1</ele>
        <time>2021-11-16T13:49:38.000Z</time>
      </trkpt>
      <trkpt lat="47.79946" lon="-3.52297">
        <ele>26.2</ele>
        <time>2021-11-16T13:49:41.000Z</time>
      </trkpt>
      <trkpt lat="47.79954" lon="-3.52303">
        <ele>24.9</ele>
        <time>2021-11-16T13:49:44.000Z</time>
      </trkpt>
      <trkpt lat="47.79963" lon="-3.52309">
        <ele>25.7</ele>
        <time>2021-11-16T13:49:47.000Z</time>
      </trkpt>
      <trkpt lat="47.79971" lon="-3.52316">
        <ele>27.6</ele>
        <time>2021-11-16T13:49:50.000Z</time>
      </trkpt>
      <trkpt lat="47.79978" lon="-3.52324">
        <ele>29.5</ele>
        <time>2021-11-16T13:49:53.000Z</time>
      </trkpt>
      <trkpt lat="47.79985" lon="-3.52332">
        <ele>29.2</ele>
        <time>2021-11-16T13:49:56.000Z</time>
      </trkpt>
      <trkpt lat="47.79991" lon="-3.5234">
        <ele>29.1</ele>
        <time>2021-11-16T13:49:59.000Z</time>
      </trkpt>
      <trkpt lat="47.79997" lon="-3.5235">
        <ele>31</ele>
        <time>2021-11-16T13:50:02.000Z</time>
      </trkpt>
      <trkpt lat="47.80003" lon="-3.52359">
        <ele>31.8</ele>
        <time>2021-11-16T13:50:05.000Z</time>
      </trkpt>
      <trkpt lat="47.80009" lon="-3.52369">
        <ele>32.3</ele>
        <time>2021-11-16T13:50:08.000Z</time>
      </trkpt>
      <trkpt lat="47.80014" lon="-3.5238">
        <ele>32.4</ele>
        <time>2021-11-16T13:50:11.000Z</time>
      </trkpt>
      <trkpt lat="47.80019" lon="-3.52391">
        <ele>33.2</ele>
        <time>2021-11-16T13:50:14.000Z</time>
      </trkpt>
      <trkpt lat="47.80023" lon="-3.52401">
        <ele>33.4</ele>
        <time>2021-11-16T13:50:17.000Z</time>
      </trkpt>
      <trkpt lat="47.80027" lon="-3.52413">
        <ele>34.3</ele>
        <time>2021-11-16T13:50:20.000Z</time>
      </trkpt>
      <trkpt lat="47.8003" lon="-3.52425">
        <ele>34.2</ele>
        <time>2021-11-16T13:50:23.000Z</time>
      </trkpt>
      <trkpt lat="47.80033" lon="-3.52438">
        <ele>35.5</ele>
        <time>2021-11-16T13:50:26.000Z</time>
      </trkpt>
      <trkpt lat="47.80036" lon="-3.5245">
        <ele>35</ele>
        <time>2021-11-16T13:50:29.000Z</time>
      </trkpt>
      <trkpt lat="47.80039" lon="-3.52463">
        <ele>36.2</ele>
        <time>2021-11-16T13:50:32.000Z</time>
      </trkpt>
      <trkpt lat="47.80041" lon="-3.52477">
        <ele>36.5</ele>
        <time>2021-11-16T13:50:35.000Z</time>
      </trkpt>
      <trkpt lat="47.80042" lon="-3.52493">
        <ele>37.3</ele>
        <time>2021-11-16T13:50:38.000Z</time>
      </trkpt>
      <trkpt lat="47.80042" lon="-3.52509">
        <ele>37.7</ele>
        <time>2021-11-16T13:50:41.000Z</time>
      </trkpt>
      <trkpt lat="47.80043" lon="-3.52525">
        <ele>37.7</ele>
        <time>2021-11-16T13:50:44.000Z</time>
      </trkpt>
      <trkpt lat="47.80043" lon="-3.52542">
        <ele>37.5</ele>
        <time>2021-11-16T13:50:47.000Z</time>
      </trkpt>
      <trkpt lat="47.80044" lon="-3.52558">
        <ele>37</ele>
        <time>2021-11-16T13:50:50.000Z</time>
      </trkpt>
      <trkpt lat="47.80045" lon="-3.52575">
        <ele>37.7</ele>
        <time>2021-11-16T13:50:53.000Z</time>
      </trkpt>
      <trkpt lat="47.80045" lon="-3.52591">
        <ele>37.6</ele>
        <time>2021-11-16T13:50:56.000Z</time>
      </trkpt>
      <trkpt lat="47.80046" lon="-3.52608">
        <ele>38</ele>
        <time>2021-11-16T13:50:59.000Z</time>
      </trkpt>
      <trkpt lat="47.80046" lon="-3.52625">
        <ele>37.8</ele>
        <time>2021-11-16T13:51:02.000Z</time>
      </trkpt>
      <trkpt lat="47.80046" lon="-3.52642">
        <ele>38.4</ele>
        <time>2021-11-16T13:51:05.000Z</time>
      </trkpt>
      <trkpt lat="47.80046" lon="-3.5266">
        <ele>40.7</ele>
        <time>2021-11-16T13:51:08.000Z</time>
      </trkpt>
      <trkpt lat="47.80046" lon="-3.52678">
        <ele>38.5</ele>
        <time>2021-11-16T13:51:11.000Z</time>
      </trkpt>
      <trkpt lat="47.80046" lon="-3.52695">
        <ele>40.2</ele>
        <time>2021-11-16T13:51:14.000Z</time>
      </trkpt>
      <trkpt lat="47.80046" lon="-3.52712">
        <ele>40.9</ele>
        <time>2021-11-16T13:51:17.000Z</time>
      </trkpt>
      <trkpt lat="47.80046" lon="-3.52729">
        <ele>40.5</ele>
        <time>2021-11-16T13:51:20.000Z</time>
      </trkpt>
      <trkpt lat="47.80046" lon="-3.52746">
        <ele>41</ele>
        <time>2021-11-16T13:51:23.000Z</time>
      </trkpt>
      <trkpt lat="47.80046" lon="-3.52763">
        <ele>41.1</ele>
        <time>2021-11-16T13:51:26.000Z</time>
      </trkpt>
      <trkpt lat="47.80046" lon="-3.5278">
        <ele>41.4</ele>
        <time>2021-11-16T13:51:29.000Z</time>
      </trkpt>
      <trkpt lat="47.80046" lon="-3.52797">
        <ele>41.2</ele>
        <time>2021-11-16T13:51:32.000Z</time>
      </trkpt>
      <trkpt lat="47.80046" lon="-3.52814">
        <ele>42.5</ele>
        <time>2021-11-16T13:51:35.000Z</time>
      </trkpt>
      <trkpt lat="47.80046" lon="-3.5283">
        <ele>41.2</ele>
        <time>2021-11-16T13:51:38.000Z</time>
      </trkpt>
      <trkpt lat="47.80046" lon="-3.52847">
        <ele>42.7</ele>
        <time>2021-11-16T13:51:41.000Z</time>
      </trkpt>
      <trkpt lat="47.80046" lon="-3.52864">
        <ele>42.6</ele>
        <time>2021-11-16T13:51:44.000Z</time>
      </trkpt>
      <trkpt lat="47.80046" lon="-3.52882">
        <ele>43.5</ele>
        <time>2021-11-16T13:51:47.000Z</time>
      </trkpt>
      <trkpt lat="47.80046" lon="-3.529">
        <ele>42.7</ele>
        <time>2021-11-16T13:51:50.000Z</time>
      </trkpt>
      <trkpt lat="47.80046" lon="-3.52919">
        <ele>42.9</ele>
        <time>2021-11-16T13:51:53.000Z</time>
      </trkpt>
      <trkpt lat="47.80047" lon="-3.52939">
        <ele>41.4</ele>
        <time>2021-11-16T13:51:56.000Z</time>
      </trkpt>
      <trkpt lat="47.80047" lon="-3.52959">
        <ele>42.5</ele>
        <time>2021-11-16T13:51:59.000Z</time>
      </trkpt>
      <trkpt lat="47.80048" lon="-3.5298">
        <ele>42</ele>
        <time>2021-11-16T13:52:02.000Z</time>
      </trkpt>
      <trkpt lat="47.80048" lon="-3.53001">
        <ele>41.2</ele>
        <time>2021-11-16T13:52:05.000Z</time>
      </trkpt>
      <trkpt lat="47.80049" lon="-3.53022">
        <ele>41.2</ele>
        <time>2021-11-16T13:52:08.000Z</time>
      </trkpt>
      <trkpt lat="47.80049" lon="-3.53042">
        <ele>41.7</ele>
        <time>2021-11-16T13:52:11.000Z</time>
      </trkpt>
      <trkpt lat="47.80049" lon="-3.53058">
        <ele>42.2</ele>
        <time>2021-11-16T13:52:14.000Z</time>
      </trkpt>
      <trkpt lat="47.8005" lon="-3.53061">
        <ele>42.5</ele>
        <time>2021-11-16T13:52:17.000Z</time>
      </trkpt>
      <trkpt lat="47.8005" lon="-3.5306">
        <ele>42.5</ele>
        <time>2021-11-16T13:52:18.000Z</time>
      </trkpt>
      <trkpt lat="47.80055" lon="-3.53057">
        <ele>42.1</ele>
        <time>2021-11-16T13:52:21.000Z</time>
      </trkpt>
      <trkpt lat="47.80062" lon="-3.53046">
        <ele>41</ele>
        <time>2021-11-16T13:52:24.000Z</time>
      </trkpt>
      <trkpt lat="47.80071" lon="-3.5303">
        <ele>40.7</ele>
        <time>2021-11-16T13:52:27.000Z</time>
      </trkpt>
      <trkpt lat="47.80081" lon="-3.53009">
        <ele>38.2</ele>
        <time>2021-11-16T13:52:30.000Z</time>
      </trkpt>
      <trkpt lat="47.8009" lon="-3.52978">
        <ele>35.1</ele>
        <time>2021-11-16T13:52:33.000Z</time>
      </trkpt>
      <trkpt lat="47.801" lon="-3.52944">
        <ele>36.7</ele>
        <time>2021-11-16T13:52:36.000Z</time>
      </trkpt>
      <trkpt lat="47.80114" lon="-3.5291">
        <ele>32.6</ele>
        <time>2021-11-16T13:52:39.000Z</time>
      </trkpt>
      <trkpt lat="47.80137" lon="-3.52874">
        <ele>21.7</ele>
        <time>2021-11-16T13:52:42.000Z</time>
      </trkpt>
      <trkpt lat="47.80163" lon="-3.52833">
        <ele>20.9</ele>
        <time>2021-11-16T13:52:45.000Z</time>
      </trkpt>
      <trkpt lat="47.80189" lon="-3.52798">
        <ele>19.1</ele>
        <time>2021-11-16T13:52:48.000Z</time>
      </trkpt>
      <trkpt lat="47.80212" lon="-3.52779">
        <ele>20.4</ele>
        <time>2021-11-16T13:52:51.000Z</time>
      </trkpt>
      <trkpt lat="47.80236" lon="-3.52768">
        <ele>15.3</ele>
        <time>2021-11-16T13:52:54.000Z</time>
      </trkpt>
      <trkpt lat="47.80263" lon="-3.52758">
        <ele>13.8</ele>
        <time>2021-11-16T13:52:57.000Z</time>
      </trkpt>
      <trkpt lat="47.80287" lon="-3.52739">
        <ele>13.5</ele>
        <time>2021-11-16T13:53:00.000Z</time>
      </trkpt>
      <trkpt lat="47.80311" lon="-3.52718">
        <ele>11.6</ele>
        <time>2021-11-16T13:53:03.000Z</time>
      </trkpt>
      <trkpt lat="47.80335" lon="-3.52702">
        <ele>10.5</ele>
        <time>2021-11-16T13:53:06.000Z</time>
      </trkpt>
      <trkpt lat="47.80355" lon="-3.527">
        <ele>10.5</ele>
        <time>2021-11-16T13:53:09.000Z</time>
      </trkpt>
      <trkpt lat="47.80371" lon="-3.52705">
        <ele>13.8</ele>
        <time>2021-11-16T13:53:12.000Z</time>
      </trkpt>
      <trkpt lat="47.80386" lon="-3.52713">
        <ele>6.5</ele>
        <time>2021-11-16T13:53:15.000Z</time>
      </trkpt>
      <trkpt lat="47.80401" lon="-3.5272">
        <ele>7</ele>
        <time>2021-11-16T13:53:18.000Z</time>
      </trkpt>
      <trkpt lat="47.80419" lon="-3.52726">
        <ele>7.8</ele>
        <time>2021-11-16T13:53:21.000Z</time>
      </trkpt>
      <trkpt lat="47.80435" lon="-3.52729">
        <ele>7.5</ele>
        <time>2021-11-16T13:53:24.000Z</time>
      </trkpt>
      <trkpt lat="47.80451" lon="-3.52729">
        <ele>3.9</ele>
        <time>2021-11-16T13:53:27.000Z</time>
      </trkpt>
      <trkpt lat="47.80464" lon="-3.52728">
        <ele>5.6</ele>
        <time>2021-11-16T13:53:30.000Z</time>
      </trkpt>
      <trkpt lat="47.80469" lon="-3.52726">
        <ele>6.7</ele>
        <time>2021-11-16T13:53:33.000Z</time>
      </trkpt>
      <trkpt lat="47.80469" lon="-3.52725">
        <ele>6.4</ele>
        <time>2021-11-16T13:53:36.000Z</time>
      </trkpt>
      <trkpt lat="47.8047" lon="-3.52724">
        <ele>6.4</ele>
        <time>2021-11-16T13:53:39.000Z</time>
      </trkpt>
      <trkpt lat="47.8047" lon="-3.52724">
        <ele>6.2</ele>
        <time>2021-11-16T13:53:41.000Z</time>
      </trkpt>
      <trkpt lat="47.8047" lon="-3.52724">
        <ele>6.5</ele>
        <time>2021-11-16T13:53:44.000Z</time>
      </trkpt>
      <trkpt lat="47.8047" lon="-3.52724">
        <ele>6.5</ele>
        <time>2021-11-16T13:53:47.000Z</time>
      </trkpt>
      <trkpt lat="47.8047" lon="-3.52724">
        <ele>6.1</ele>
        <time>2021-11-16T13:53:50.000Z</time>
      </trkpt>
      <trkpt lat="47.8047" lon="-3.52724">
        <ele>6.3</ele>
        <time>2021-11-16T13:53:53.000Z</time>
      </trkpt>
      <trkpt lat="47.8047" lon="-3.52724">
        <ele>6.4</ele>
        <time>2021-11-16T13:53:56.000Z</time>
      </trkpt>
      <trkpt lat="47.8047" lon="-3.52724">
        <ele>6.7</ele>
        <time>2021-11-16T13:53:59.000Z</time>
      </trkpt>
      <trkpt lat="47.8047" lon="-3.52724">
        <ele>6.4</ele>
        <time>2021-11-16T13:54:02.000Z</time>
      </trkpt>
      <trkpt lat="47.8047" lon="-3.52724">
        <ele>6.3</ele>
        <time>2021-11-16T13:54:05.000Z</time>
      </trkpt>
      <trkpt lat="47.8047" lon="-3.52724">
        <ele>6</ele>
        <time>2021-11-16T13:54:08.000Z</time>
      </trkpt>
      <trkpt lat="47.8047" lon="-3.52724">
        <ele>6.2</ele>
        <time>2021-11-16T13:54:11.000Z</time>
      </trkpt>
      <trkpt lat="47.8047" lon="-3.52724">
        <ele>6.5</ele>
        <time>2021-11-16T13:54:14.000Z</time>
      </trkpt>
      <trkpt lat="47.8047" lon="-3.52724">
        <ele>6.2</ele>
        <time>2021-11-16T13:54:17.000Z</time>
      </trkpt>
      <trkpt lat="47.8047" lon="-3.52724">
        <ele>6.3</ele>
        <time>2021-11-16T13:54:18.000Z</time>
      </trkpt>
      <trkpt lat="47.8047" lon="-3.52724">
        <ele>6.3</ele>
        <time>2021-11-16T13:54:19.000Z</time>
      </trkpt>
      <trkpt lat="47.8047" lon="-3.52724">
        <ele>6.7</ele>
        <time>2021-11-16T13:54:22.000Z</time>
      </trkpt>
      <trkpt lat="47.8047" lon="-3.52724">
        <ele>6.8</ele>
        <time>2021-11-16T13:54:25.000Z</time>
      </trkpt>
      <trkpt lat="47.8047" lon="-3.52724">
        <ele>6.6</ele>
        <time>2021-11-16T13:54:28.000Z</time>
      </trkpt>
      <trkpt lat="47.8047" lon="-3.52724">
        <ele>6.2</ele>
        <time>2021-11-16T13:54:31.000Z</time>
      </trkpt>
      <trkpt lat="47.8047" lon="-3.52724">
        <ele>5.8</ele>
        <time>2021-11-16T13:54:32.000Z</time>
      </trkpt>
      <trkpt lat="47.80471" lon="-3.52727">
        <ele>6.8</ele>
        <time>2021-11-16T13:54:35.000Z</time>
      </trkpt>
      <trkpt lat="47.80472" lon="-3.52727">
        <ele>6.4</ele>
        <time>2021-11-16T13:54:38.000Z</time>
      </trkpt>
      <trkpt lat="47.80476" lon="-3.52727">
        <ele>6.4</ele>
        <time>2021-11-16T13:54:41.000Z</time>
      </trkpt>
      <trkpt lat="47.80481" lon="-3.52728">
        <ele>6.7</ele>
        <time>2021-11-16T13:54:44.000Z</time>
      </trkpt>
      <trkpt lat="47.80487" lon="-3.52728">
        <ele>6.6</ele>
        <time>2021-11-16T13:54:47.000Z</time>
      </trkpt>
      <trkpt lat="47.80495" lon="-3.52729">
        <ele>6.6</ele>
        <time>2021-11-16T13:54:50.000Z</time>
      </trkpt>
      <trkpt lat="47.80505" lon="-3.52729">
        <ele>6.6</ele>
        <time>2021-11-16T13:54:53.000Z</time>
      </trkpt>
      <trkpt lat="47.80515" lon="-3.52728">
        <ele>8.3</ele>
        <time>2021-11-16T13:54:56.000Z</time>
      </trkpt>
      <trkpt lat="47.80525" lon="-3.52727">
        <ele>6.6</ele>
        <time>2021-11-16T13:54:59.000Z</time>
      </trkpt>
      <trkpt lat="47.80534" lon="-3.52724">
        <ele>7.8</ele>
        <time>2021-11-16T13:55:02.000Z</time>
      </trkpt>
      <trkpt lat="47.80541" lon="-3.52721">
        <ele>10.9</ele>
        <time>2021-11-16T13:55:05.000Z</time>
      </trkpt>
      <trkpt lat="47.80549" lon="-3.52718">
        <ele>10.2</ele>
        <time>2021-11-16T13:55:08.000Z</time>
      </trkpt>
      <trkpt lat="47.80556" lon="-3.52714">
        <ele>10.3</ele>
        <time>2021-11-16T13:55:11.000Z</time>
      </trkpt>
      <trkpt lat="47.80564" lon="-3.52709">
        <ele>11.6</ele>
        <time>2021-11-16T13:55:14.000Z</time>
      </trkpt>
      <trkpt lat="47.80573" lon="-3.52704">
        <ele>11.9</ele>
        <time>2021-11-16T13:55:17.000Z</time>
      </trkpt>
      <trkpt lat="47.80583" lon="-3.527">
        <ele>12.5</ele>
        <time>2021-11-16T13:55:20.000Z</time>
      </trkpt>
      <trkpt lat="47.80591" lon="-3.52697">
        <ele>12.8</ele>
        <time>2021-11-16T13:55:23.000Z</time>
      </trkpt>
      <trkpt lat="47.80601" lon="-3.52694">
        <ele>14.5</ele>
        <time>2021-11-16T13:55:26.000Z</time>
      </trkpt>
      <trkpt lat="47.8061" lon="-3.52689">
        <ele>12.5</ele>
        <time>2021-11-16T13:55:29.000Z</time>
      </trkpt>
      <trkpt lat="47.8062" lon="-3.52684">
        <ele>11.5</ele>
        <time>2021-11-16T13:55:32.000Z</time>
      </trkpt>
      <trkpt lat="47.80629" lon="-3.5268">
        <ele>13.7</ele>
        <time>2021-11-16T13:55:35.000Z</time>
      </trkpt>
      <trkpt lat="47.80639" lon="-3.52676">
        <ele>12.8</ele>
        <time>2021-11-16T13:55:38.000Z</time>
      </trkpt>
      <trkpt lat="47.80649" lon="-3.52672">
        <ele>13.1</ele>
        <time>2021-11-16T13:55:41.000Z</time>
      </trkpt>
      <trkpt lat="47.80658" lon="-3.52668">
        <ele>11.5</ele>
        <time>2021-11-16T13:55:44.000Z</time>
      </trkpt>
      <trkpt lat="47.80668" lon="-3.52663">
        <ele>12.4</ele>
        <time>2021-11-16T13:55:47.000Z</time>
      </trkpt>
      <trkpt lat="47.8068" lon="-3.52658">
        <ele>15.6</ele>
        <time>2021-11-16T13:55:50.000Z</time>
      </trkpt>
      <trkpt lat="47.80691" lon="-3.52655">
        <ele>14.7</ele>
        <time>2021-11-16T13:55:53.000Z</time>
      </trkpt>
      <trkpt lat="47.80701" lon="-3.52653">
        <ele>12.1</ele>
        <time>2021-11-16T13:55:56.000Z</time>
      </trkpt>
      <trkpt lat="47.80712" lon="-3.5265">
        <ele>14</ele>
        <time>2021-11-16T13:55:59.000Z</time>
      </trkpt>
      <trkpt lat="47.80724" lon="-3.52647">
        <ele>16.5</ele>
        <time>2021-11-16T13:56:02.000Z</time>
      </trkpt>
      <trkpt lat="47.80738" lon="-3.52641">
        <ele>13.3</ele>
        <time>2021-11-16T13:56:05.000Z</time>
      </trkpt>
      <trkpt lat="47.80749" lon="-3.52638">
        <ele>11.3</ele>
        <time>2021-11-16T13:56:08.000Z</time>
      </trkpt>
      <trkpt lat="47.8076" lon="-3.52634">
        <ele>14.5</ele>
        <time>2021-11-16T13:56:11.000Z</time>
      </trkpt>
      <trkpt lat="47.80771" lon="-3.5263">
        <ele>15.4</ele>
        <time>2021-11-16T13:56:14.000Z</time>
      </trkpt>
      <trkpt lat="47.80779" lon="-3.52624">
        <ele>14.5</ele>
        <time>2021-11-16T13:56:17.000Z</time>
      </trkpt>
      <trkpt lat="47.80789" lon="-3.5262">
        <ele>17.2</ele>
        <time>2021-11-16T13:56:20.000Z</time>
      </trkpt>
      <trkpt lat="47.80798" lon="-3.52616">
        <ele>21.5</ele>
        <time>2021-11-16T13:56:23.000Z</time>
      </trkpt>
      <trkpt lat="47.80807" lon="-3.52611">
        <ele>19.8</ele>
        <time>2021-11-16T13:56:26.000Z</time>
      </trkpt>
      <trkpt lat="47.80816" lon="-3.52604">
        <ele>18.2</ele>
        <time>2021-11-16T13:56:29.000Z</time>
      </trkpt>
      <trkpt lat="47.80827" lon="-3.52601">
        <ele>21.9</ele>
        <time>2021-11-16T13:56:32.000Z</time>
      </trkpt>
      <trkpt lat="47.80836" lon="-3.52598">
        <ele>20.2</ele>
        <time>2021-11-16T13:56:35.000Z</time>
      </trkpt>
      <trkpt lat="47.80848" lon="-3.52594">
        <ele>22.2</ele>
        <time>2021-11-16T13:56:38.000Z</time>
      </trkpt>
      <trkpt lat="47.8086" lon="-3.5259">
        <ele>21.4</ele>
        <time>2021-11-16T13:56:41.000Z</time>
      </trkpt>
      <trkpt lat="47.80872" lon="-3.52586">
        <ele>19</ele>
        <time>2021-11-16T13:56:44.000Z</time>
      </trkpt>
      <trkpt lat="47.80883" lon="-3.52585">
        <ele>20.4</ele>
        <time>2021-11-16T13:56:47.000Z</time>
      </trkpt>
      <trkpt lat="47.80892" lon="-3.52592">
        <ele>20</ele>
        <time>2021-11-16T13:56:50.000Z</time>
      </trkpt>
      <trkpt lat="47.80899" lon="-3.52599">
        <ele>21.1</ele>
        <time>2021-11-16T13:56:53.000Z</time>
      </trkpt>
      <trkpt lat="47.80908" lon="-3.52606">
        <ele>20.9</ele>
        <time>2021-11-16T13:56:56.000Z</time>
      </trkpt>
      <trkpt lat="47.80916" lon="-3.52613">
        <ele>22.7</ele>
        <time>2021-11-16T13:56:59.000Z</time>
      </trkpt>
      <trkpt lat="47.80923" lon="-3.52622">
        <ele>23.3</ele>
        <time>2021-11-16T13:57:02.000Z</time>
      </trkpt>
      <trkpt lat="47.80928" lon="-3.5263">
        <ele>24.8</ele>
        <time>2021-11-16T13:57:05.000Z</time>
      </trkpt>
      <trkpt lat="47.80934" lon="-3.52639">
        <ele>22.3</ele>
        <time>2021-11-16T13:57:08.000Z</time>
      </trkpt>
      <trkpt lat="47.80939" lon="-3.52649">
        <ele>22.3</ele>
        <time>2021-11-16T13:57:11.000Z</time>
      </trkpt>
      <trkpt lat="47.80945" lon="-3.52659">
        <ele>25.3</ele>
        <time>2021-11-16T13:57:14.000Z</time>
      </trkpt>
      <trkpt lat="47.80949" lon="-3.52666">
        <ele>25.6</ele>
        <time>2021-11-16T13:57:17.000Z</time>
      </trkpt>
      <trkpt lat="47.80953" lon="-3.52675">
        <ele>26.2</ele>
        <time>2021-11-16T13:57:20.000Z</time>
      </trkpt>
      <trkpt lat="47.80955" lon="-3.52684">
        <ele>25.3</ele>
        <time>2021-11-16T13:57:23.000Z</time>
      </trkpt>
      <trkpt lat="47.80956" lon="-3.52695">
        <ele>26</ele>
        <time>2021-11-16T13:57:26.000Z</time>
      </trkpt>
      <trkpt lat="47.80959" lon="-3.52703">
        <ele>27.6</ele>
        <time>2021-11-16T13:57:29.000Z</time>
      </trkpt>
      <trkpt lat="47.80961" lon="-3.52711">
        <ele>28.5</ele>
        <time>2021-11-16T13:57:32.000Z</time>
      </trkpt>
      <trkpt lat="47.80963" lon="-3.52721">
        <ele>27.9</ele>
        <time>2021-11-16T13:57:35.000Z</time>
      </trkpt>
      <trkpt lat="47.80965" lon="-3.52729">
        <ele>29.6</ele>
        <time>2021-11-16T13:57:38.000Z</time>
      </trkpt>
      <trkpt lat="47.80965" lon="-3.52739">
        <ele>31.1</ele>
        <time>2021-11-16T13:57:41.000Z</time>
      </trkpt>
      <trkpt lat="47.80966" lon="-3.52747">
        <ele>31.4</ele>
        <time>2021-11-16T13:57:44.000Z</time>
      </trkpt>
      <trkpt lat="47.80969" lon="-3.52756">
        <ele>31.7</ele>
        <time>2021-11-16T13:57:47.000Z</time>
      </trkpt>
      <trkpt lat="47.80971" lon="-3.52763">
        <ele>31.7</ele>
        <time>2021-11-16T13:57:50.000Z</time>
      </trkpt>
      <trkpt lat="47.80972" lon="-3.52772">
        <ele>33.8</ele>
        <time>2021-11-16T13:57:53.000Z</time>
      </trkpt>
      <trkpt lat="47.80975" lon="-3.5278">
        <ele>31.3</ele>
        <time>2021-11-16T13:57:56.000Z</time>
      </trkpt>
      <trkpt lat="47.80977" lon="-3.52787">
        <ele>32.5</ele>
        <time>2021-11-16T13:57:59.000Z</time>
      </trkpt>
      <trkpt lat="47.80979" lon="-3.52795">
        <ele>35.1</ele>
        <time>2021-11-16T13:58:02.000Z</time>
      </trkpt>
      <trkpt lat="47.8098" lon="-3.52803">
        <ele>35.3</ele>
        <time>2021-11-16T13:58:05.000Z</time>
      </trkpt>
      <trkpt lat="47.80982" lon="-3.5281">
        <ele>36.7</ele>
        <time>2021-11-16T13:58:08.000Z</time>
      </trkpt>
      <trkpt lat="47.80984" lon="-3.5282">
        <ele>37.6</ele>
        <time>2021-11-16T13:58:11.000Z</time>
      </trkpt>
      <trkpt lat="47.80986" lon="-3.5283">
        <ele>38.3</ele>
        <time>2021-11-16T13:58:14.000Z</time>
      </trkpt>
      <trkpt lat="47.80988" lon="-3.52839">
        <ele>36.9</ele>
        <time>2021-11-16T13:58:17.000Z</time>
      </trkpt>
      <trkpt lat="47.80989" lon="-3.52848">
        <ele>38.1</ele>
        <time>2021-11-16T13:58:20.000Z</time>
      </trkpt>
      <trkpt lat="47.8099" lon="-3.52856">
        <ele>37.4</ele>
        <time>2021-11-16T13:58:23.000Z</time>
      </trkpt>
      <trkpt lat="47.8099" lon="-3.52865">
        <ele>38.1</ele>
        <time>2021-11-16T13:58:26.000Z</time>
      </trkpt>
      <trkpt lat="47.8099" lon="-3.52876">
        <ele>37.8</ele>
        <time>2021-11-16T13:58:29.000Z</time>
      </trkpt>
      <trkpt lat="47.80989" lon="-3.52888">
        <ele>38.8</ele>
        <time>2021-11-16T13:58:32.000Z</time>
      </trkpt>
      <trkpt lat="47.80985" lon="-3.52897">
        <ele>39.1</ele>
        <time>2021-11-16T13:58:35.000Z</time>
      </trkpt>
      <trkpt lat="47.8098" lon="-3.52905">
        <ele>40.1</ele>
        <time>2021-11-16T13:58:38.000Z</time>
      </trkpt>
      <trkpt lat="47.80976" lon="-3.52912">
        <ele>39.4</ele>
        <time>2021-11-16T13:58:41.000Z</time>
      </trkpt>
      <trkpt lat="47.80972" lon="-3.52917">
        <ele>39.4</ele>
        <time>2021-11-16T13:58:44.000Z</time>
      </trkpt>
      <trkpt lat="47.80965" lon="-3.52923">
        <ele>41.3</ele>
        <time>2021-11-16T13:58:47.000Z</time>
      </trkpt>
      <trkpt lat="47.80959" lon="-3.52928">
        <ele>38.1</ele>
        <time>2021-11-16T13:58:50.000Z</time>
      </trkpt>
      <trkpt lat="47.80952" lon="-3.52935">
        <ele>40.6</ele>
        <time>2021-11-16T13:58:53.000Z</time>
      </trkpt>
      <trkpt lat="47.80945" lon="-3.52941">
        <ele>42.4</ele>
        <time>2021-11-16T13:58:56.000Z</time>
      </trkpt>
      <trkpt lat="47.80938" lon="-3.52946">
        <ele>42.8</ele>
        <time>2021-11-16T13:58:59.000Z</time>
      </trkpt>
      <trkpt lat="47.8093" lon="-3.52952">
        <ele>42</ele>
        <time>2021-11-16T13:59:02.000Z</time>
      </trkpt>
      <trkpt lat="47.80922" lon="-3.5296">
        <ele>42.8</ele>
        <time>2021-11-16T13:59:05.000Z</time>
      </trkpt>
      <trkpt lat="47.80915" lon="-3.52968">
        <ele>43</ele>
        <time>2021-11-16T13:59:08.000Z</time>
      </trkpt>
      <trkpt lat="47.80908" lon="-3.52974">
        <ele>43.9</ele>
        <time>2021-11-16T13:59:11.000Z</time>
      </trkpt>
      <trkpt lat="47.80901" lon="-3.52981">
        <ele>42.8</ele>
        <time>2021-11-16T13:59:14.000Z</time>
      </trkpt>
      <trkpt lat="47.80894" lon="-3.52988">
        <ele>43.4</ele>
        <time>2021-11-16T13:59:17.000Z</time>
      </trkpt>
      <trkpt lat="47.80887" lon="-3.52995">
        <ele>41.9</ele>
        <time>2021-11-16T13:59:20.000Z</time>
      </trkpt>
      <trkpt lat="47.8088" lon="-3.53003">
        <ele>43.5</ele>
        <time>2021-11-16T13:59:23.000Z</time>
      </trkpt>
      <trkpt lat="47.80874" lon="-3.53008">
        <ele>44.2</ele>
        <time>2021-11-16T13:59:26.000Z</time>
      </trkpt>
      <trkpt lat="47.80868" lon="-3.53017">
        <ele>43.9</ele>
        <time>2021-11-16T13:59:29.000Z</time>
      </trkpt>
      <trkpt lat="47.80862" lon="-3.53027">
        <ele>45</ele>
        <time>2021-11-16T13:59:32.000Z</time>
      </trkpt>
      <trkpt lat="47.80857" lon="-3.53039">
        <ele>46</ele>
        <time>2021-11-16T13:59:35.000Z</time>
      </trkpt>
      <trkpt lat="47.80854" lon="-3.53051">
        <ele>45.3</ele>
        <time>2021-11-16T13:59:38.000Z</time>
      </trkpt>
      <trkpt lat="47.80852" lon="-3.53064">
        <ele>46</ele>
        <time>2021-11-16T13:59:41.000Z</time>
      </trkpt>
      <trkpt lat="47.80851" lon="-3.53075">
        <ele>47.3</ele>
        <time>2021-11-16T13:59:44.000Z</time>
      </trkpt>
      <trkpt lat="47.80849" lon="-3.53085">
        <ele>48.1</ele>
        <time>2021-11-16T13:59:47.000Z</time>
      </trkpt>
      <trkpt lat="47.80846" lon="-3.53095">
        <ele>47.9</ele>
        <time>2021-11-16T13:59:50.000Z</time>
      </trkpt>
      <trkpt lat="47.80843" lon="-3.53109">
        <ele>48</ele>
        <time>2021-11-16T13:59:53.000Z</time>
      </trkpt>
      <trkpt lat="47.80841" lon="-3.53119">
        <ele>49.1</ele>
        <time>2021-11-16T13:59:56.000Z</time>
      </trkpt>
      <trkpt lat="47.80839" lon="-3.5313">
        <ele>49.7</ele>
        <time>2021-11-16T13:59:59.000Z</time>
      </trkpt>
      <trkpt lat="47.80834" lon="-3.53142">
        <ele>48.7</ele>
        <time>2021-11-16T14:00:02.000Z</time>
      </trkpt>
      <trkpt lat="47.80829" lon="-3.53155">
        <ele>49.2</ele>
        <time>2021-11-16T14:00:05.000Z</time>
      </trkpt>
      <trkpt lat="47.80823" lon="-3.53169">
        <ele>50</ele>
        <time>2021-11-16T14:00:08.000Z</time>
      </trkpt>
      <trkpt lat="47.80818" lon="-3.5318">
        <ele>52.8</ele>
        <time>2021-11-16T14:00:11.000Z</time>
      </trkpt>
      <trkpt lat="47.80812" lon="-3.53189">
        <ele>50.8</ele>
        <time>2021-11-16T14:00:14.000Z</time>
      </trkpt>
      <trkpt lat="47.80805" lon="-3.53196">
        <ele>51.1</ele>
        <time>2021-11-16T14:00:17.000Z</time>
      </trkpt>
      <trkpt lat="47.80799" lon="-3.53206">
        <ele>51.8</ele>
        <time>2021-11-16T14:00:20.000Z</time>
      </trkpt>
      <trkpt lat="47.80793" lon="-3.53215">
        <ele>50.3</ele>
        <time>2021-11-16T14:00:23.000Z</time>
      </trkpt>
      <trkpt lat="47.80787" lon="-3.53224">
        <ele>51.1</ele>
        <time>2021-11-16T14:00:26.000Z</time>
      </trkpt>
      <trkpt lat="47.8078" lon="-3.53232">
        <ele>50.6</ele>
        <time>2021-11-16T14:00:29.000Z</time>
      </trkpt>
      <trkpt lat="47.80773" lon="-3.53239">
        <ele>50.1</ele>
        <time>2021-11-16T14:00:32.000Z</time>
      </trkpt>
      <trkpt lat="47.80765" lon="-3.53246">
        <ele>53.4</ele>
        <time>2021-11-16T14:00:35.000Z</time>
      </trkpt>
      <trkpt lat="47.80756" lon="-3.53256">
        <ele>49</ele>
        <time>2021-11-16T14:00:38.000Z</time>
      </trkpt>
      <trkpt lat="47.80745" lon="-3.53265">
        <ele>50.3</ele>
        <time>2021-11-16T14:00:41.000Z</time>
      </trkpt>
      <trkpt lat="47.80732" lon="-3.53277">
        <ele>47.7</ele>
        <time>2021-11-16T14:00:44.000Z</time>
      </trkpt>
      <trkpt lat="47.8072" lon="-3.5329">
        <ele>49.9</ele>
        <time>2021-11-16T14:00:47.000Z</time>
      </trkpt>
      <trkpt lat="47.80713" lon="-3.5331">
        <ele>49.9</ele>
        <time>2021-11-16T14:00:50.000Z</time>
      </trkpt>
      <trkpt lat="47.80714" lon="-3.53331">
        <ele>51</ele>
        <time>2021-11-16T14:00:53.000Z</time>
      </trkpt>
      <trkpt lat="47.80721" lon="-3.53353">
        <ele>49.3</ele>
        <time>2021-11-16T14:00:56.000Z</time>
      </trkpt>
      <trkpt lat="47.8073" lon="-3.53371">
        <ele>48</ele>
        <time>2021-11-16T14:00:59.000Z</time>
      </trkpt>
      <trkpt lat="47.8074" lon="-3.53385">
        <ele>49</ele>
        <time>2021-11-16T14:01:02.000Z</time>
      </trkpt>
      <trkpt lat="47.8075" lon="-3.53396">
        <ele>50.3</ele>
        <time>2021-11-16T14:01:05.000Z</time>
      </trkpt>
      <trkpt lat="47.80754" lon="-3.53403">
        <ele>50</ele>
        <time>2021-11-16T14:01:08.000Z</time>
      </trkpt>
      <trkpt lat="47.80754" lon="-3.53404">
        <ele>49.7</ele>
        <time>2021-11-16T14:01:10.000Z</time>
      </trkpt>
      <trkpt lat="47.80754" lon="-3.53404">
        <ele>49.8</ele>
        <time>2021-11-16T14:01:13.000Z</time>
      </trkpt>
      <trkpt lat="47.80754" lon="-3.53404">
        <ele>49.8</ele>
        <time>2021-11-16T14:01:16.000Z</time>
      </trkpt>
      <trkpt lat="47.80754" lon="-3.53404">
        <ele>49.8</ele>
        <time>2021-11-16T14:01:19.000Z</time>
      </trkpt>
      <trkpt lat="47.80754" lon="-3.53404">
        <ele>49.9</ele>
        <time>2021-11-16T14:01:22.000Z</time>
      </trkpt>
      <trkpt lat="47.80754" lon="-3.53404">
        <ele>49.7</ele>
        <time>2021-11-16T14:01:23.000Z</time>
      </trkpt>
      <trkpt lat="47.80757" lon="-3.53408">
        <ele>49.6</ele>
        <time>2021-11-16T14:01:26.000Z</time>
      </trkpt>
      <trkpt lat="47.80761" lon="-3.53415">
        <ele>49</ele>
        <time>2021-11-16T14:01:29.000Z</time>
      </trkpt>
      <trkpt lat="47.80767" lon="-3.53424">
        <ele>50.2</ele>
        <time>2021-11-16T14:01:32.000Z</time>
      </trkpt>
      <trkpt lat="47.80774" lon="-3.53437">
        <ele>51.2</ele>
        <time>2021-11-16T14:01:35.000Z</time>
      </trkpt>
      <trkpt lat="47.80781" lon="-3.53449">
        <ele>50.6</ele>
        <time>2021-11-16T14:01:38.000Z</time>
      </trkpt>
      <trkpt lat="47.8079" lon="-3.5346">
        <ele>49</ele>
        <time>2021-11-16T14:01:41.000Z</time>
      </trkpt>
      <trkpt lat="47.80799" lon="-3.53472">
        <ele>48.4</ele>
        <time>2021-11-16T14:01:44.000Z</time>
      </trkpt>
      <trkpt lat="47.80808" lon="-3.53487">
        <ele>49.8</ele>
        <time>2021-11-16T14:01:47.000Z</time>
      </trkpt>
      <trkpt lat="47.80816" lon="-3.53501">
        <ele>48.8</ele>
        <time>2021-11-16T14:01:50.000Z</time>
      </trkpt>
      <trkpt lat="47.80826" lon="-3.53513">
        <ele>47</ele>
        <time>2021-11-16T14:01:53.000Z</time>
      </trkpt>
      <trkpt lat="47.80835" lon="-3.53525">
        <ele>47.6</ele>
        <time>2021-11-16T14:01:56.000Z</time>
      </trkpt>
      <trkpt lat="47.80844" lon="-3.53541">
        <ele>49.2</ele>
        <time>2021-11-16T14:01:59.000Z</time>
      </trkpt>
      <trkpt lat="47.80852" lon="-3.53559">
        <ele>51.5</ele>
        <time>2021-11-16T14:02:02.000Z</time>
      </trkpt>
      <trkpt lat="47.80859" lon="-3.53573">
        <ele>50.1</ele>
        <time>2021-11-16T14:02:05.000Z</time>
      </trkpt>
      <trkpt lat="47.80867" lon="-3.53588">
        <ele>47.2</ele>
        <time>2021-11-16T14:02:08.000Z</time>
      </trkpt>
      <trkpt lat="47.80875" lon="-3.53602">
        <ele>49.4</ele>
        <time>2021-11-16T14:02:11.000Z</time>
      </trkpt>
      <trkpt lat="47.80884" lon="-3.53614">
        <ele>51.1</ele>
        <time>2021-11-16T14:02:14.000Z</time>
      </trkpt>
      <trkpt lat="47.80893" lon="-3.53627">
        <ele>52</ele>
        <time>2021-11-16T14:02:17.000Z</time>
      </trkpt>
      <trkpt lat="47.80902" lon="-3.53637">
        <ele>52.2</ele>
        <time>2021-11-16T14:02:20.000Z</time>
      </trkpt>
      <trkpt lat="47.8091" lon="-3.53647">
        <ele>49.6</ele>
        <time>2021-11-16T14:02:23.000Z</time>
      </trkpt>
      <trkpt lat="47.8092" lon="-3.53659">
        <ele>53</ele>
        <time>2021-11-16T14:02:26.000Z</time>
      </trkpt>
      <trkpt lat="47.80931" lon="-3.53671">
        <ele>53.5</ele>
        <time>2021-11-16T14:02:29.000Z</time>
      </trkpt>
      <trkpt lat="47.80943" lon="-3.53682">
        <ele>52.2</ele>
        <time>2021-11-16T14:02:32.000Z</time>
      </trkpt>
      <trkpt lat="47.80952" lon="-3.53694">
        <ele>52</ele>
        <time>2021-11-16T14:02:35.000Z</time>
      </trkpt>
      <trkpt lat="47.80962" lon="-3.53706">
        <ele>51.7</ele>
        <time>2021-11-16T14:02:38.000Z</time>
      </trkpt>
      <trkpt lat="47.80972" lon="-3.53719">
        <ele>52.5</ele>
        <time>2021-11-16T14:02:41.000Z</time>
      </trkpt>
      <trkpt lat="47.80981" lon="-3.5373">
        <ele>50.9</ele>
        <time>2021-11-16T14:02:44.000Z</time>
      </trkpt>
      <trkpt lat="47.80991" lon="-3.53741">
        <ele>52.8</ele>
        <time>2021-11-16T14:02:47.000Z</time>
      </trkpt>
      <trkpt lat="47.81" lon="-3.53753">
        <ele>53.5</ele>
        <time>2021-11-16T14:02:50.000Z</time>
      </trkpt>
      <trkpt lat="47.8101" lon="-3.53765">
        <ele>53.7</ele>
        <time>2021-11-16T14:02:53.000Z</time>
      </trkpt>
      <trkpt lat="47.8102" lon="-3.53778">
        <ele>53.2</ele>
        <time>2021-11-16T14:02:56.000Z</time>
      </trkpt>
      <trkpt lat="47.81031" lon="-3.53791">
        <ele>49.2</ele>
        <time>2021-11-16T14:02:59.000Z</time>
      </trkpt>
      <trkpt lat="47.81043" lon="-3.53805">
        <ele>52</ele>
        <time>2021-11-16T14:03:02.000Z</time>
      </trkpt>
      <trkpt lat="47.81054" lon="-3.53818">
        <ele>52.1</ele>
        <time>2021-11-16T14:03:05.000Z</time>
      </trkpt>
      <trkpt lat="47.81066" lon="-3.53834">
        <ele>50.8</ele>
        <time>2021-11-16T14:03:08.000Z</time>
      </trkpt>
      <trkpt lat="47.81079" lon="-3.53852">
        <ele>50.7</ele>
        <time>2021-11-16T14:03:11.000Z</time>
      </trkpt>
      <trkpt lat="47.81093" lon="-3.5387">
        <ele>49.2</ele>
        <time>2021-11-16T14:03:14.000Z</time>
      </trkpt>
      <trkpt lat="47.81106" lon="-3.53887">
        <ele>50.1</ele>
        <time>2021-11-16T14:03:17.000Z</time>
      </trkpt>
      <trkpt lat="47.81119" lon="-3.53904">
        <ele>50.8</ele>
        <time>2021-11-16T14:03:20.000Z</time>
      </trkpt>
      <trkpt lat="47.8113" lon="-3.53919">
        <ele>51.3</ele>
        <time>2021-11-16T14:03:23.000Z</time>
      </trkpt>
      <trkpt lat="47.81142" lon="-3.53935">
        <ele>50.1</ele>
        <time>2021-11-16T14:03:26.000Z</time>
      </trkpt>
      <trkpt lat="47.81153" lon="-3.53949">
        <ele>51.5</ele>
        <time>2021-11-16T14:03:29.000Z</time>
      </trkpt>
      <trkpt lat="47.81163" lon="-3.53959">
        <ele>51.6</ele>
        <time>2021-11-16T14:03:32.000Z</time>
      </trkpt>
      <trkpt lat="47.81173" lon="-3.53973">
        <ele>51.4</ele>
        <time>2021-11-16T14:03:35.000Z</time>
      </trkpt>
      <trkpt lat="47.81183" lon="-3.53988">
        <ele>50.4</ele>
        <time>2021-11-16T14:03:38.000Z</time>
      </trkpt>
      <trkpt lat="47.81194" lon="-3.54006">
        <ele>50.9</ele>
        <time>2021-11-16T14:03:41.000Z</time>
      </trkpt>
      <trkpt lat="47.81206" lon="-3.54024">
        <ele>49.7</ele>
        <time>2021-11-16T14:03:44.000Z</time>
      </trkpt>
      <trkpt lat="47.81218" lon="-3.54043">
        <ele>46</ele>
        <time>2021-11-16T14:03:47.000Z</time>
      </trkpt>
      <trkpt lat="47.81231" lon="-3.5406">
        <ele>50.3</ele>
        <time>2021-11-16T14:03:50.000Z</time>
      </trkpt>
      <trkpt lat="47.81244" lon="-3.54075">
        <ele>49.3</ele>
        <time>2021-11-16T14:03:53.000Z</time>
      </trkpt>
      <trkpt lat="47.81258" lon="-3.54088">
        <ele>49</ele>
        <time>2021-11-16T14:03:56.000Z</time>
      </trkpt>
      <trkpt lat="47.81273" lon="-3.54101">
        <ele>50.6</ele>
        <time>2021-11-16T14:03:59.000Z</time>
      </trkpt>
      <trkpt lat="47.81284" lon="-3.5411">
        <ele>48.3</ele>
        <time>2021-11-16T14:04:02.000Z</time>
      </trkpt>
      <trkpt lat="47.81295" lon="-3.54117">
        <ele>50.3</ele>
        <time>2021-11-16T14:04:05.000Z</time>
      </trkpt>
      <trkpt lat="47.81305" lon="-3.54125">
        <ele>52</ele>
        <time>2021-11-16T14:04:08.000Z</time>
      </trkpt>
      <trkpt lat="47.81312" lon="-3.54132">
        <ele>52.8</ele>
        <time>2021-11-16T14:04:11.000Z</time>
      </trkpt>
      <trkpt lat="47.8132" lon="-3.54138">
        <ele>52.2</ele>
        <time>2021-11-16T14:04:14.000Z</time>
      </trkpt>
      <trkpt lat="47.8133" lon="-3.54143">
        <ele>53.1</ele>
        <time>2021-11-16T14:04:17.000Z</time>
      </trkpt>
      <trkpt lat="47.8134" lon="-3.54146">
        <ele>53.9</ele>
        <time>2021-11-16T14:04:20.000Z</time>
      </trkpt>
      <trkpt lat="47.8135" lon="-3.54146">
        <ele>51.9</ele>
        <time>2021-11-16T14:04:23.000Z</time>
      </trkpt>
      <trkpt lat="47.81361" lon="-3.54146">
        <ele>53.3</ele>
        <time>2021-11-16T14:04:26.000Z</time>
      </trkpt>
      <trkpt lat="47.81376" lon="-3.54147">
        <ele>49.8</ele>
        <time>2021-11-16T14:04:29.000Z</time>
      </trkpt>
      <trkpt lat="47.81393" lon="-3.54152">
        <ele>54.2</ele>
        <time>2021-11-16T14:04:32.000Z</time>
      </trkpt>
      <trkpt lat="47.81416" lon="-3.54157">
        <ele>44.8</ele>
        <time>2021-11-16T14:04:35.000Z</time>
      </trkpt>
      <trkpt lat="47.81442" lon="-3.54161">
        <ele>47.1</ele>
        <time>2021-11-16T14:04:38.000Z</time>
      </trkpt>
      <trkpt lat="47.81466" lon="-3.54167">
        <ele>43.6</ele>
        <time>2021-11-16T14:04:41.000Z</time>
      </trkpt>
      <trkpt lat="47.81489" lon="-3.54171">
        <ele>46.2</ele>
        <time>2021-11-16T14:04:44.000Z</time>
      </trkpt>
      <trkpt lat="47.81505" lon="-3.54174">
        <ele>45.5</ele>
        <time>2021-11-16T14:04:47.000Z</time>
      </trkpt>
      <trkpt lat="47.81519" lon="-3.54178">
        <ele>50.7</ele>
        <time>2021-11-16T14:04:50.000Z</time>
      </trkpt>
      <trkpt lat="47.8153" lon="-3.54183">
        <ele>48.2</ele>
        <time>2021-11-16T14:04:53.000Z</time>
      </trkpt>
      <trkpt lat="47.81541" lon="-3.54186">
        <ele>51.3</ele>
        <time>2021-11-16T14:04:56.000Z</time>
      </trkpt>
      <trkpt lat="47.81552" lon="-3.54191">
        <ele>49.8</ele>
        <time>2021-11-16T14:04:59.000Z</time>
      </trkpt>
      <trkpt lat="47.81563" lon="-3.54195">
        <ele>50.1</ele>
        <time>2021-11-16T14:05:02.000Z</time>
      </trkpt>
      <trkpt lat="47.81574" lon="-3.54198">
        <ele>51.8</ele>
        <time>2021-11-16T14:05:05.000Z</time>
      </trkpt>
      <trkpt lat="47.81584" lon="-3.54201">
        <ele>52.2</ele>
        <time>2021-11-16T14:05:08.000Z</time>
      </trkpt>
      <trkpt lat="47.81593" lon="-3.54203">
        <ele>52.4</ele>
        <time>2021-11-16T14:05:11.000Z</time>
      </trkpt>
      <trkpt lat="47.81604" lon="-3.54205">
        <ele>53.9</ele>
        <time>2021-11-16T14:05:14.000Z</time>
      </trkpt>
      <trkpt lat="47.81618" lon="-3.54209">
        <ele>55.4</ele>
        <time>2021-11-16T14:05:17.000Z</time>
      </trkpt>
      <trkpt lat="47.8163" lon="-3.5421">
        <ele>53.3</ele>
        <time>2021-11-16T14:05:20.000Z</time>
      </trkpt>
      <trkpt lat="47.81639" lon="-3.54211">
        <ele>53.3</ele>
        <time>2021-11-16T14:05:23.000Z</time>
      </trkpt>
      <trkpt lat="47.8165" lon="-3.54215">
        <ele>53.9</ele>
        <time>2021-11-16T14:05:26.000Z</time>
      </trkpt>
      <trkpt lat="47.81662" lon="-3.54217">
        <ele>51.4</ele>
        <time>2021-11-16T14:05:29.000Z</time>
      </trkpt>
      <trkpt lat="47.81673" lon="-3.5422">
        <ele>50</ele>
        <time>2021-11-16T14:05:32.000Z</time>
      </trkpt>
      <trkpt lat="47.81685" lon="-3.54222">
        <ele>52.2</ele>
        <time>2021-11-16T14:05:35.000Z</time>
      </trkpt>
      <trkpt lat="47.81696" lon="-3.54222">
        <ele>55.7</ele>
        <time>2021-11-16T14:05:38.000Z</time>
      </trkpt>
      <trkpt lat="47.81706" lon="-3.54224">
        <ele>52.6</ele>
        <time>2021-11-16T14:05:41.000Z</time>
      </trkpt>
      <trkpt lat="47.81721" lon="-3.54229">
        <ele>49.5</ele>
        <time>2021-11-16T14:05:44.000Z</time>
      </trkpt>
      <trkpt lat="47.81733" lon="-3.54231">
        <ele>52.3</ele>
        <time>2021-11-16T14:05:47.000Z</time>
      </trkpt>
      <trkpt lat="47.81746" lon="-3.54232">
        <ele>55.5</ele>
        <time>2021-11-16T14:05:50.000Z</time>
      </trkpt>
      <trkpt lat="47.81763" lon="-3.54234">
        <ele>54.3</ele>
        <time>2021-11-16T14:05:53.000Z</time>
      </trkpt>
      <trkpt lat="47.81777" lon="-3.54236">
        <ele>50.2</ele>
        <time>2021-11-16T14:05:56.000Z</time>
      </trkpt>
      <trkpt lat="47.81792" lon="-3.5424">
        <ele>53.9</ele>
        <time>2021-11-16T14:05:59.000Z</time>
      </trkpt>
      <trkpt lat="47.8181" lon="-3.54242">
        <ele>50</ele>
        <time>2021-11-16T14:06:02.000Z</time>
      </trkpt>
      <trkpt lat="47.81825" lon="-3.54246">
        <ele>56</ele>
        <time>2021-11-16T14:06:05.000Z</time>
      </trkpt>
      <trkpt lat="47.8184" lon="-3.54249">
        <ele>49.5</ele>
        <time>2021-11-16T14:06:08.000Z</time>
      </trkpt>
      <trkpt lat="47.81856" lon="-3.54251">
        <ele>47.3</ele>
        <time>2021-11-16T14:06:11.000Z</time>
      </trkpt>
      <trkpt lat="47.81873" lon="-3.54255">
        <ele>53</ele>
        <time>2021-11-16T14:06:14.000Z</time>
      </trkpt>
      <trkpt lat="47.81891" lon="-3.54259">
        <ele>52.3</ele>
        <time>2021-11-16T14:06:17.000Z</time>
      </trkpt>
      <trkpt lat="47.81907" lon="-3.5427">
        <ele>48.3</ele>
        <time>2021-11-16T14:06:20.000Z</time>
      </trkpt>
      <trkpt lat="47.8191" lon="-3.5429">
        <ele>50</ele>
        <time>2021-11-16T14:06:23.000Z</time>
      </trkpt>
      <trkpt lat="47.81903" lon="-3.54308">
        <ele>51.4</ele>
        <time>2021-11-16T14:06:26.000Z</time>
      </trkpt>
      <trkpt lat="47.81896" lon="-3.54326">
        <ele>48.8</ele>
        <time>2021-11-16T14:06:29.000Z</time>
      </trkpt>
      <trkpt lat="47.8189" lon="-3.54342">
        <ele>49.8</ele>
        <time>2021-11-16T14:06:32.000Z</time>
      </trkpt>
      <trkpt lat="47.81884" lon="-3.54357">
        <ele>52</ele>
        <time>2021-11-16T14:06:35.000Z</time>
      </trkpt>
      <trkpt lat="47.81879" lon="-3.54374">
        <ele>52.2</ele>
        <time>2021-11-16T14:06:38.000Z</time>
      </trkpt>
      <trkpt lat="47.81873" lon="-3.5439">
        <ele>49.2</ele>
        <time>2021-11-16T14:06:41.000Z</time>
      </trkpt>
      <trkpt lat="47.81868" lon="-3.54409">
        <ele>49.3</ele>
        <time>2021-11-16T14:06:44.000Z</time>
      </trkpt>
      <trkpt lat="47.81862" lon="-3.54426">
        <ele>51.9</ele>
        <time>2021-11-16T14:06:47.000Z</time>
      </trkpt>
      <trkpt lat="47.81855" lon="-3.54443">
        <ele>56</ele>
        <time>2021-11-16T14:06:50.000Z</time>
      </trkpt>
      <trkpt lat="47.81848" lon="-3.54459">
        <ele>53.4</ele>
        <time>2021-11-16T14:06:53.000Z</time>
      </trkpt>
      <trkpt lat="47.81839" lon="-3.54478">
        <ele>51.7</ele>
        <time>2021-11-16T14:06:56.000Z</time>
      </trkpt>
      <trkpt lat="47.81829" lon="-3.54496">
        <ele>50.4</ele>
        <time>2021-11-16T14:06:59.000Z</time>
      </trkpt>
      <trkpt lat="47.81819" lon="-3.54514">
        <ele>49.3</ele>
        <time>2021-11-16T14:07:02.000Z</time>
      </trkpt>
      <trkpt lat="47.81807" lon="-3.5453">
        <ele>43.7</ele>
        <time>2021-11-16T14:07:05.000Z</time>
      </trkpt>
      <trkpt lat="47.81789" lon="-3.54548">
        <ele>48.6</ele>
        <time>2021-11-16T14:07:08.000Z</time>
      </trkpt>
      <trkpt lat="47.81777" lon="-3.5457">
        <ele>45.5</ele>
        <time>2021-11-16T14:07:11.000Z</time>
      </trkpt>
      <trkpt lat="47.8177" lon="-3.54594">
        <ele>46.1</ele>
        <time>2021-11-16T14:07:14.000Z</time>
      </trkpt>
      <trkpt lat="47.81766" lon="-3.54616">
        <ele>50.7</ele>
        <time>2021-11-16T14:07:17.000Z</time>
      </trkpt>
      <trkpt lat="47.81763" lon="-3.54639">
        <ele>45.8</ele>
        <time>2021-11-16T14:07:20.000Z</time>
      </trkpt>
      <trkpt lat="47.81758" lon="-3.54662">
        <ele>46.4</ele>
        <time>2021-11-16T14:07:23.000Z</time>
      </trkpt>
      <trkpt lat="47.81752" lon="-3.54685">
        <ele>43.5</ele>
        <time>2021-11-16T14:07:26.000Z</time>
      </trkpt>
      <trkpt lat="47.81746" lon="-3.54711">
        <ele>45.1</ele>
        <time>2021-11-16T14:07:29.000Z</time>
      </trkpt>
      <trkpt lat="47.81742" lon="-3.54742">
        <ele>43.2</ele>
        <time>2021-11-16T14:07:32.000Z</time>
      </trkpt>
      <trkpt lat="47.81743" lon="-3.54768">
        <ele>42.3</ele>
        <time>2021-11-16T14:07:35.000Z</time>
      </trkpt>
      <trkpt lat="47.81758" lon="-3.54781">
        <ele>43.2</ele>
        <time>2021-11-16T14:07:38.000Z</time>
      </trkpt>
      <trkpt lat="47.81778" lon="-3.54775">
        <ele>39.4</ele>
        <time>2021-11-16T14:07:41.000Z</time>
      </trkpt>
      <trkpt lat="47.81795" lon="-3.54753">
        <ele>31.6</ele>
        <time>2021-11-16T14:07:44.000Z</time>
      </trkpt>
      <trkpt lat="47.81811" lon="-3.54727">
        <ele>38.5</ele>
        <time>2021-11-16T14:07:47.000Z</time>
      </trkpt>
      <trkpt lat="47.81827" lon="-3.54706">
        <ele>36.9</ele>
        <time>2021-11-16T14:07:50.000Z</time>
      </trkpt>
      <trkpt lat="47.81841" lon="-3.54685">
        <ele>36.7</ele>
        <time>2021-11-16T14:07:53.000Z</time>
      </trkpt>
      <trkpt lat="47.81857" lon="-3.54662">
        <ele>38.7</ele>
        <time>2021-11-16T14:07:56.000Z</time>
      </trkpt>
      <trkpt lat="47.81872" lon="-3.54639">
        <ele>30</ele>
        <time>2021-11-16T14:07:59.000Z</time>
      </trkpt>
      <trkpt lat="47.81886" lon="-3.54614">
        <ele>37</ele>
        <time>2021-11-16T14:08:02.000Z</time>
      </trkpt>
      <trkpt lat="47.81901" lon="-3.54588">
        <ele>34.4</ele>
        <time>2021-11-16T14:08:05.000Z</time>
      </trkpt>
      <trkpt lat="47.81917" lon="-3.5456">
        <ele>36.7</ele>
        <time>2021-11-16T14:08:08.000Z</time>
      </trkpt>
      <trkpt lat="47.81933" lon="-3.54534">
        <ele>30</ele>
        <time>2021-11-16T14:08:11.000Z</time>
      </trkpt>
      <trkpt lat="47.81944" lon="-3.54506">
        <ele>29.3</ele>
        <time>2021-11-16T14:08:14.000Z</time>
      </trkpt>
      <trkpt lat="47.81959" lon="-3.54482">
        <ele>29.3</ele>
        <time>2021-11-16T14:08:17.000Z</time>
      </trkpt>
      <trkpt lat="47.81974" lon="-3.5446">
        <ele>21.2</ele>
        <time>2021-11-16T14:08:20.000Z</time>
      </trkpt>
      <trkpt lat="47.81989" lon="-3.5444">
        <ele>30.8</ele>
        <time>2021-11-16T14:08:23.000Z</time>
      </trkpt>
      <trkpt lat="47.82009" lon="-3.54424">
        <ele>35.2</ele>
        <time>2021-11-16T14:08:26.000Z</time>
      </trkpt>
      <trkpt lat="47.82029" lon="-3.54409">
        <ele>32</ele>
        <time>2021-11-16T14:08:29.000Z</time>
      </trkpt>
      <trkpt lat="47.82049" lon="-3.544">
        <ele>26.9</ele>
        <time>2021-11-16T14:08:32.000Z</time>
      </trkpt>
      <trkpt lat="47.82069" lon="-3.54394">
        <ele>29.9</ele>
        <time>2021-11-16T14:08:35.000Z</time>
      </trkpt>
      <trkpt lat="47.82091" lon="-3.54385">
        <ele>26.3</ele>
        <time>2021-11-16T14:08:38.000Z</time>
      </trkpt>
      <trkpt lat="47.82112" lon="-3.54376">
        <ele>23.2</ele>
        <time>2021-11-16T14:08:41.000Z</time>
      </trkpt>
      <trkpt lat="47.82134" lon="-3.54367">
        <ele>24.1</ele>
        <time>2021-11-16T14:08:44.000Z</time>
      </trkpt>
      <trkpt lat="47.82156" lon="-3.54365">
        <ele>24.3</ele>
        <time>2021-11-16T14:08:47.000Z</time>
      </trkpt>
      <trkpt lat="47.82178" lon="-3.54368">
        <ele>22.6</ele>
        <time>2021-11-16T14:08:50.000Z</time>
      </trkpt>
      <trkpt lat="47.822" lon="-3.54369">
        <ele>12.7</ele>
        <time>2021-11-16T14:08:53.000Z</time>
      </trkpt>
      <trkpt lat="47.82225" lon="-3.54369">
        <ele>15.3</ele>
        <time>2021-11-16T14:08:56.000Z</time>
      </trkpt>
      <trkpt lat="47.82249" lon="-3.54369">
        <ele>11.8</ele>
        <time>2021-11-16T14:08:59.000Z</time>
      </trkpt>
      <trkpt lat="47.82272" lon="-3.54377">
        <ele>14.6</ele>
        <time>2021-11-16T14:09:02.000Z</time>
      </trkpt>
      <trkpt lat="47.82291" lon="-3.54404">
        <ele>16.4</ele>
        <time>2021-11-16T14:09:05.000Z</time>
      </trkpt>
      <trkpt lat="47.82301" lon="-3.54436">
        <ele>15.8</ele>
        <time>2021-11-16T14:09:08.000Z</time>
      </trkpt>
      <trkpt lat="47.82309" lon="-3.54467">
        <ele>10.7</ele>
        <time>2021-11-16T14:09:11.000Z</time>
      </trkpt>
      <trkpt lat="47.8232" lon="-3.545">
        <ele>9.9</ele>
        <time>2021-11-16T14:09:14.000Z</time>
      </trkpt>
      <trkpt lat="47.82328" lon="-3.54529">
        <ele>23.7</ele>
        <time>2021-11-16T14:09:17.000Z</time>
      </trkpt>
      <trkpt lat="47.82336" lon="-3.54556">
        <ele>6.4</ele>
        <time>2021-11-16T14:09:20.000Z</time>
      </trkpt>
      <trkpt lat="47.82339" lon="-3.54588">
        <ele>4.3</ele>
        <time>2021-11-16T14:09:23.000Z</time>
      </trkpt>
      <trkpt lat="47.82343" lon="-3.54614">
        <ele>8.5</ele>
        <time>2021-11-16T14:09:26.000Z</time>
      </trkpt>
      <trkpt lat="47.82351" lon="-3.5463">
        <ele>8.8</ele>
        <time>2021-11-16T14:09:29.000Z</time>
      </trkpt>
      <trkpt lat="47.82359" lon="-3.5463">
        <ele>8.1</ele>
        <time>2021-11-16T14:09:32.000Z</time>
      </trkpt>
      <trkpt lat="47.82372" lon="-3.54618">
        <ele>9.1</ele>
        <time>2021-11-16T14:09:35.000Z</time>
      </trkpt>
      <trkpt lat="47.8238" lon="-3.54602">
        <ele>14.1</ele>
        <time>2021-11-16T14:09:38.000Z</time>
      </trkpt>
      <trkpt lat="47.82385" lon="-3.54585">
        <ele>11.2</ele>
        <time>2021-11-16T14:09:41.000Z</time>
      </trkpt>
      <trkpt lat="47.82388" lon="-3.5457">
        <ele>10.5</ele>
        <time>2021-11-16T14:09:44.000Z</time>
      </trkpt>
      <trkpt lat="47.82389" lon="-3.54555">
        <ele>12.5</ele>
        <time>2021-11-16T14:09:47.000Z</time>
      </trkpt>
      <trkpt lat="47.82395" lon="-3.54539">
        <ele>12.7</ele>
        <time>2021-11-16T14:09:50.000Z</time>
      </trkpt>
      <trkpt lat="47.82397" lon="-3.54524">
        <ele>11.9</ele>
        <time>2021-11-16T14:09:53.000Z</time>
      </trkpt>
      <trkpt lat="47.82398" lon="-3.54513">
        <ele>13.5</ele>
        <time>2021-11-16T14:09:56.000Z</time>
      </trkpt>
      <trkpt lat="47.82398" lon="-3.54504">
        <ele>14.2</ele>
        <time>2021-11-16T14:09:59.000Z</time>
      </trkpt>
      <trkpt lat="47.82397" lon="-3.54495">
        <ele>15.4</ele>
        <time>2021-11-16T14:10:02.000Z</time>
      </trkpt>
      <trkpt lat="47.82399" lon="-3.54484">
        <ele>14.3</ele>
        <time>2021-11-16T14:10:05.000Z</time>
      </trkpt>
      <trkpt lat="47.82401" lon="-3.54473">
        <ele>14.7</ele>
        <time>2021-11-16T14:10:08.000Z</time>
      </trkpt>
      <trkpt lat="47.82403" lon="-3.5446">
        <ele>15</ele>
        <time>2021-11-16T14:10:11.000Z</time>
      </trkpt>
      <trkpt lat="47.82405" lon="-3.54447">
        <ele>15.1</ele>
        <time>2021-11-16T14:10:14.000Z</time>
      </trkpt>
      <trkpt lat="47.82407" lon="-3.54436">
        <ele>16.9</ele>
        <time>2021-11-16T14:10:17.000Z</time>
      </trkpt>
      <trkpt lat="47.82408" lon="-3.54426">
        <ele>17.6</ele>
        <time>2021-11-16T14:10:20.000Z</time>
      </trkpt>
      <trkpt lat="47.82409" lon="-3.54415">
        <ele>15.9</ele>
        <time>2021-11-16T14:10:23.000Z</time>
      </trkpt>
      <trkpt lat="47.82409" lon="-3.54405">
        <ele>13.9</ele>
        <time>2021-11-16T14:10:26.000Z</time>
      </trkpt>
      <trkpt lat="47.82408" lon="-3.54394">
        <ele>18.6</ele>
        <time>2021-11-16T14:10:29.000Z</time>
      </trkpt>
      <trkpt lat="47.82407" lon="-3.54379">
        <ele>19.7</ele>
        <time>2021-11-16T14:10:32.000Z</time>
      </trkpt>
      <trkpt lat="47.82405" lon="-3.54366">
        <ele>16.7</ele>
        <time>2021-11-16T14:10:35.000Z</time>
      </trkpt>
      <trkpt lat="47.82399" lon="-3.54358">
        <ele>17.3</ele>
        <time>2021-11-16T14:10:38.000Z</time>
      </trkpt>
      <trkpt lat="47.82394" lon="-3.54352">
        <ele>21.4</ele>
        <time>2021-11-16T14:10:41.000Z</time>
      </trkpt>
      <trkpt lat="47.82389" lon="-3.54344">
        <ele>20.2</ele>
        <time>2021-11-16T14:10:44.000Z</time>
      </trkpt>
      <trkpt lat="47.82383" lon="-3.54336">
        <ele>21.2</ele>
        <time>2021-11-16T14:10:47.000Z</time>
      </trkpt>
      <trkpt lat="47.82378" lon="-3.54327">
        <ele>21.9</ele>
        <time>2021-11-16T14:10:50.000Z</time>
      </trkpt>
      <trkpt lat="47.82373" lon="-3.54315">
        <ele>18.9</ele>
        <time>2021-11-16T14:10:53.000Z</time>
      </trkpt>
      <trkpt lat="47.82373" lon="-3.54303">
        <ele>24.1</ele>
        <time>2021-11-16T14:10:56.000Z</time>
      </trkpt>
      <trkpt lat="47.82376" lon="-3.54292">
        <ele>21.8</ele>
        <time>2021-11-16T14:10:59.000Z</time>
      </trkpt>
      <trkpt lat="47.82382" lon="-3.54285">
        <ele>21.7</ele>
        <time>2021-11-16T14:11:02.000Z</time>
      </trkpt>
      <trkpt lat="47.82388" lon="-3.54277">
        <ele>24.2</ele>
        <time>2021-11-16T14:11:05.000Z</time>
      </trkpt>
      <trkpt lat="47.82393" lon="-3.54271">
        <ele>25.6</ele>
        <time>2021-11-16T14:11:08.000Z</time>
      </trkpt>
      <trkpt lat="47.824" lon="-3.54264">
        <ele>25.3</ele>
        <time>2021-11-16T14:11:11.000Z</time>
      </trkpt>
      <trkpt lat="47.82409" lon="-3.54259">
        <ele>25.4</ele>
        <time>2021-11-16T14:11:14.000Z</time>
      </trkpt>
      <trkpt lat="47.82416" lon="-3.54253">
        <ele>27.6</ele>
        <time>2021-11-16T14:11:17.000Z</time>
      </trkpt>
      <trkpt lat="47.82423" lon="-3.54248">
        <ele>26.6</ele>
        <time>2021-11-16T14:11:20.000Z</time>
      </trkpt>
      <trkpt lat="47.8243" lon="-3.54242">
        <ele>27</ele>
        <time>2021-11-16T14:11:23.000Z</time>
      </trkpt>
      <trkpt lat="47.82436" lon="-3.54238">
        <ele>27.8</ele>
        <time>2021-11-16T14:11:26.000Z</time>
      </trkpt>
      <trkpt lat="47.82444" lon="-3.54232">
        <ele>30.4</ele>
        <time>2021-11-16T14:11:29.000Z</time>
      </trkpt>
      <trkpt lat="47.82452" lon="-3.54226">
        <ele>28.5</ele>
        <time>2021-11-16T14:11:32.000Z</time>
      </trkpt>
      <trkpt lat="47.8246" lon="-3.5422">
        <ele>26.1</ele>
        <time>2021-11-16T14:11:35.000Z</time>
      </trkpt>
      <trkpt lat="47.82468" lon="-3.54215">
        <ele>30.6</ele>
        <time>2021-11-16T14:11:38.000Z</time>
      </trkpt>
      <trkpt lat="47.82475" lon="-3.54212">
        <ele>28.9</ele>
        <time>2021-11-16T14:11:41.000Z</time>
      </trkpt>
      <trkpt lat="47.82481" lon="-3.5421">
        <ele>30.2</ele>
        <time>2021-11-16T14:11:44.000Z</time>
      </trkpt>
      <trkpt lat="47.82488" lon="-3.5421">
        <ele>30.5</ele>
        <time>2021-11-16T14:11:47.000Z</time>
      </trkpt>
      <trkpt lat="47.82497" lon="-3.54214">
        <ele>32</ele>
        <time>2021-11-16T14:11:50.000Z</time>
      </trkpt>
      <trkpt lat="47.82507" lon="-3.54218">
        <ele>31.7</ele>
        <time>2021-11-16T14:11:53.000Z</time>
      </trkpt>
      <trkpt lat="47.82516" lon="-3.54226">
        <ele>31.6</ele>
        <time>2021-11-16T14:11:56.000Z</time>
      </trkpt>
      <trkpt lat="47.82524" lon="-3.54234">
        <ele>31.6</ele>
        <time>2021-11-16T14:11:59.000Z</time>
      </trkpt>
      <trkpt lat="47.82532" lon="-3.54243">
        <ele>31.9</ele>
        <time>2021-11-16T14:12:02.000Z</time>
      </trkpt>
      <trkpt lat="47.82539" lon="-3.5425">
        <ele>33.7</ele>
        <time>2021-11-16T14:12:05.000Z</time>
      </trkpt>
      <trkpt lat="47.82549" lon="-3.54253">
        <ele>36.4</ele>
        <time>2021-11-16T14:12:08.000Z</time>
      </trkpt>
      <trkpt lat="47.8256" lon="-3.54258">
        <ele>37.2</ele>
        <time>2021-11-16T14:12:11.000Z</time>
      </trkpt>
      <trkpt lat="47.8257" lon="-3.54263">
        <ele>29.8</ele>
        <time>2021-11-16T14:12:14.000Z</time>
      </trkpt>
      <trkpt lat="47.82582" lon="-3.54267">
        <ele>32.1</ele>
        <time>2021-11-16T14:12:17.000Z</time>
      </trkpt>
      <trkpt lat="47.82591" lon="-3.54272">
        <ele>31.8</ele>
        <time>2021-11-16T14:12:20.000Z</time>
      </trkpt>
      <trkpt lat="47.826" lon="-3.54278">
        <ele>31.3</ele>
        <time>2021-11-16T14:12:23.000Z</time>
      </trkpt>
      <trkpt lat="47.82608" lon="-3.5428">
        <ele>30.5</ele>
        <time>2021-11-16T14:12:26.000Z</time>
      </trkpt>
      <trkpt lat="47.82616" lon="-3.54281">
        <ele>33.1</ele>
        <time>2021-11-16T14:12:29.000Z</time>
      </trkpt>
      <trkpt lat="47.82624" lon="-3.54284">
        <ele>32.8</ele>
        <time>2021-11-16T14:12:32.000Z</time>
      </trkpt>
      <trkpt lat="47.82633" lon="-3.54287">
        <ele>34.7</ele>
        <time>2021-11-16T14:12:35.000Z</time>
      </trkpt>
      <trkpt lat="47.82641" lon="-3.54288">
        <ele>34.6</ele>
        <time>2021-11-16T14:12:38.000Z</time>
      </trkpt>
      <trkpt lat="47.82652" lon="-3.5429">
        <ele>36.7</ele>
        <time>2021-11-16T14:12:41.000Z</time>
      </trkpt>
      <trkpt lat="47.8266" lon="-3.54295">
        <ele>33.2</ele>
        <time>2021-11-16T14:12:44.000Z</time>
      </trkpt>
      <trkpt lat="47.82668" lon="-3.54298">
        <ele>33.8</ele>
        <time>2021-11-16T14:12:47.000Z</time>
      </trkpt>
      <trkpt lat="47.82677" lon="-3.54301">
        <ele>37.1</ele>
        <time>2021-11-16T14:12:50.000Z</time>
      </trkpt>
      <trkpt lat="47.82684" lon="-3.54304">
        <ele>38.2</ele>
        <time>2021-11-16T14:12:53.000Z</time>
      </trkpt>
      <trkpt lat="47.82691" lon="-3.54307">
        <ele>37.4</ele>
        <time>2021-11-16T14:12:56.000Z</time>
      </trkpt>
      <trkpt lat="47.82697" lon="-3.5431">
        <ele>38.1</ele>
        <time>2021-11-16T14:12:59.000Z</time>
      </trkpt>
      <trkpt lat="47.82703" lon="-3.54311">
        <ele>39.2</ele>
        <time>2021-11-16T14:13:02.000Z</time>
      </trkpt>
      <trkpt lat="47.82712" lon="-3.54313">
        <ele>38.8</ele>
        <time>2021-11-16T14:13:05.000Z</time>
      </trkpt>
      <trkpt lat="47.8272" lon="-3.54316">
        <ele>38.3</ele>
        <time>2021-11-16T14:13:08.000Z</time>
      </trkpt>
      <trkpt lat="47.82726" lon="-3.54319">
        <ele>38.2</ele>
        <time>2021-11-16T14:13:11.000Z</time>
      </trkpt>
      <trkpt lat="47.82735" lon="-3.5432">
        <ele>40.9</ele>
        <time>2021-11-16T14:13:14.000Z</time>
      </trkpt>
      <trkpt lat="47.82742" lon="-3.54322">
        <ele>39.8</ele>
        <time>2021-11-16T14:13:17.000Z</time>
      </trkpt>
      <trkpt lat="47.8275" lon="-3.54326">
        <ele>39.8</ele>
        <time>2021-11-16T14:13:20.000Z</time>
      </trkpt>
      <trkpt lat="47.82759" lon="-3.5433">
        <ele>43.3</ele>
        <time>2021-11-16T14:13:23.000Z</time>
      </trkpt>
      <trkpt lat="47.82767" lon="-3.54331">
        <ele>40.6</ele>
        <time>2021-11-16T14:13:26.000Z</time>
      </trkpt>
      <trkpt lat="47.82773" lon="-3.54333">
        <ele>43.9</ele>
        <time>2021-11-16T14:13:29.000Z</time>
      </trkpt>
      <trkpt lat="47.8278" lon="-3.54335">
        <ele>44.7</ele>
        <time>2021-11-16T14:13:32.000Z</time>
      </trkpt>
      <trkpt lat="47.82788" lon="-3.54339">
        <ele>42.8</ele>
        <time>2021-11-16T14:13:35.000Z</time>
      </trkpt>
      <trkpt lat="47.82796" lon="-3.5434">
        <ele>44.8</ele>
        <time>2021-11-16T14:13:38.000Z</time>
      </trkpt>
      <trkpt lat="47.82804" lon="-3.54342">
        <ele>43.8</ele>
        <time>2021-11-16T14:13:41.000Z</time>
      </trkpt>
      <trkpt lat="47.82812" lon="-3.54345">
        <ele>44.1</ele>
        <time>2021-11-16T14:13:44.000Z</time>
      </trkpt>
      <trkpt lat="47.8282" lon="-3.54348">
        <ele>45.9</ele>
        <time>2021-11-16T14:13:47.000Z</time>
      </trkpt>
      <trkpt lat="47.82828" lon="-3.5435">
        <ele>46.7</ele>
        <time>2021-11-16T14:13:50.000Z</time>
      </trkpt>
      <trkpt lat="47.82836" lon="-3.54352">
        <ele>45.8</ele>
        <time>2021-11-16T14:13:53.000Z</time>
      </trkpt>
      <trkpt lat="47.82845" lon="-3.54354">
        <ele>45.6</ele>
        <time>2021-11-16T14:13:56.000Z</time>
      </trkpt>
      <trkpt lat="47.82854" lon="-3.54358">
        <ele>47.6</ele>
        <time>2021-11-16T14:13:59.000Z</time>
      </trkpt>
      <trkpt lat="47.82863" lon="-3.5436">
        <ele>46.9</ele>
        <time>2021-11-16T14:14:02.000Z</time>
      </trkpt>
      <trkpt lat="47.82873" lon="-3.54364">
        <ele>46.7</ele>
        <time>2021-11-16T14:14:05.000Z</time>
      </trkpt>
      <trkpt lat="47.82882" lon="-3.54367">
        <ele>44.9</ele>
        <time>2021-11-16T14:14:08.000Z</time>
      </trkpt>
      <trkpt lat="47.82897" lon="-3.54372">
        <ele>45</ele>
        <time>2021-11-16T14:14:11.000Z</time>
      </trkpt>
      <trkpt lat="47.82911" lon="-3.54375">
        <ele>43.7</ele>
        <time>2021-11-16T14:14:14.000Z</time>
      </trkpt>
      <trkpt lat="47.82925" lon="-3.54379">
        <ele>41.2</ele>
        <time>2021-11-16T14:14:17.000Z</time>
      </trkpt>
      <trkpt lat="47.82938" lon="-3.54384">
        <ele>40.3</ele>
        <time>2021-11-16T14:14:20.000Z</time>
      </trkpt>
      <trkpt lat="47.82953" lon="-3.54388">
        <ele>43.6</ele>
        <time>2021-11-16T14:14:23.000Z</time>
      </trkpt>
      <trkpt lat="47.82969" lon="-3.5439">
        <ele>44.3</ele>
        <time>2021-11-16T14:14:26.000Z</time>
      </trkpt>
      <trkpt lat="47.82984" lon="-3.54392">
        <ele>42.3</ele>
        <time>2021-11-16T14:14:29.000Z</time>
      </trkpt>
      <trkpt lat="47.82997" lon="-3.54395">
        <ele>42.6</ele>
        <time>2021-11-16T14:14:32.000Z</time>
      </trkpt>
      <trkpt lat="47.83009" lon="-3.544">
        <ele>44.6</ele>
        <time>2021-11-16T14:14:35.000Z</time>
      </trkpt>
      <trkpt lat="47.8302" lon="-3.54403">
        <ele>44</ele>
        <time>2021-11-16T14:14:38.000Z</time>
      </trkpt>
      <trkpt lat="47.83027" lon="-3.54406">
        <ele>46.3</ele>
        <time>2021-11-16T14:14:41.000Z</time>
      </trkpt>
      <trkpt lat="47.83034" lon="-3.5441">
        <ele>45.7</ele>
        <time>2021-11-16T14:14:44.000Z</time>
      </trkpt>
      <trkpt lat="47.8304" lon="-3.54413">
        <ele>46.1</ele>
        <time>2021-11-16T14:14:47.000Z</time>
      </trkpt>
      <trkpt lat="47.83044" lon="-3.54415">
        <ele>47</ele>
        <time>2021-11-16T14:14:50.000Z</time>
      </trkpt>
      <trkpt lat="47.83051" lon="-3.54416">
        <ele>48</ele>
        <time>2021-11-16T14:14:53.000Z</time>
      </trkpt>
      <trkpt lat="47.83058" lon="-3.54418">
        <ele>47.2</ele>
        <time>2021-11-16T14:14:56.000Z</time>
      </trkpt>
      <trkpt lat="47.83065" lon="-3.5442">
        <ele>49.8</ele>
        <time>2021-11-16T14:14:59.000Z</time>
      </trkpt>
      <trkpt lat="47.83073" lon="-3.54422">
        <ele>49.9</ele>
        <time>2021-11-16T14:15:02.000Z</time>
      </trkpt>
      <trkpt lat="47.83081" lon="-3.54425">
        <ele>50.2</ele>
        <time>2021-11-16T14:15:05.000Z</time>
      </trkpt>
      <trkpt lat="47.83089" lon="-3.5443">
        <ele>50.8</ele>
        <time>2021-11-16T14:15:08.000Z</time>
      </trkpt>
      <trkpt lat="47.83098" lon="-3.54433">
        <ele>52.6</ele>
        <time>2021-11-16T14:15:11.000Z</time>
      </trkpt>
      <trkpt lat="47.83108" lon="-3.54436">
        <ele>49.9</ele>
        <time>2021-11-16T14:15:14.000Z</time>
      </trkpt>
      <trkpt lat="47.83117" lon="-3.5444">
        <ele>52</ele>
        <time>2021-11-16T14:15:17.000Z</time>
      </trkpt>
      <trkpt lat="47.83127" lon="-3.54444">
        <ele>50.4</ele>
        <time>2021-11-16T14:15:20.000Z</time>
      </trkpt>
      <trkpt lat="47.83138" lon="-3.54447">
        <ele>49.7</ele>
        <time>2021-11-16T14:15:23.000Z</time>
      </trkpt>
      <trkpt lat="47.8315" lon="-3.5445">
        <ele>49.8</ele>
        <time>2021-11-16T14:15:26.000Z</time>
      </trkpt>
      <trkpt lat="47.83167" lon="-3.54455">
        <ele>49.1</ele>
        <time>2021-11-16T14:15:29.000Z</time>
      </trkpt>
      <trkpt lat="47.83185" lon="-3.54461">
        <ele>45.3</ele>
        <time>2021-11-16T14:15:32.000Z</time>
      </trkpt>
      <trkpt lat="47.83207" lon="-3.54469">
        <ele>42.5</ele>
        <time>2021-11-16T14:15:35.000Z</time>
      </trkpt>
      <trkpt lat="47.8323" lon="-3.54476">
        <ele>42.2</ele>
        <time>2021-11-16T14:15:38.000Z</time>
      </trkpt>
      <trkpt lat="47.83253" lon="-3.54483">
        <ele>41.1</ele>
        <time>2021-11-16T14:15:41.000Z</time>
      </trkpt>
      <trkpt lat="47.83275" lon="-3.54491">
        <ele>41</ele>
        <time>2021-11-16T14:15:44.000Z</time>
      </trkpt>
      <trkpt lat="47.83294" lon="-3.54497">
        <ele>43.3</ele>
        <time>2021-11-16T14:15:47.000Z</time>
      </trkpt>
      <trkpt lat="47.83309" lon="-3.54501">
        <ele>42.9</ele>
        <time>2021-11-16T14:15:50.000Z</time>
      </trkpt>
      <trkpt lat="47.83322" lon="-3.54506">
        <ele>43.2</ele>
        <time>2021-11-16T14:15:53.000Z</time>
      </trkpt>
      <trkpt lat="47.83337" lon="-3.54512">
        <ele>44.8</ele>
        <time>2021-11-16T14:15:56.000Z</time>
      </trkpt>
      <trkpt lat="47.83351" lon="-3.54517">
        <ele>42.7</ele>
        <time>2021-11-16T14:15:59.000Z</time>
      </trkpt>
      <trkpt lat="47.83364" lon="-3.5452">
        <ele>44.7</ele>
        <time>2021-11-16T14:16:02.000Z</time>
      </trkpt>
      <trkpt lat="47.83374" lon="-3.54523">
        <ele>47.4</ele>
        <time>2021-11-16T14:16:05.000Z</time>
      </trkpt>
      <trkpt lat="47.83384" lon="-3.54524">
        <ele>47.1</ele>
        <time>2021-11-16T14:16:08.000Z</time>
      </trkpt>
      <trkpt lat="47.83395" lon="-3.54527">
        <ele>46.2</ele>
        <time>2021-11-16T14:16:11.000Z</time>
      </trkpt>
      <trkpt lat="47.83405" lon="-3.54531">
        <ele>45.9</ele>
        <time>2021-11-16T14:16:14.000Z</time>
      </trkpt>
      <trkpt lat="47.83417" lon="-3.54535">
        <ele>47.2</ele>
        <time>2021-11-16T14:16:17.000Z</time>
      </trkpt>
      <trkpt lat="47.83429" lon="-3.54538">
        <ele>45.9</ele>
        <time>2021-11-16T14:16:20.000Z</time>
      </trkpt>
      <trkpt lat="47.8344" lon="-3.54543">
        <ele>47</ele>
        <time>2021-11-16T14:16:23.000Z</time>
      </trkpt>
      <trkpt lat="47.83451" lon="-3.54547">
        <ele>51.2</ele>
        <time>2021-11-16T14:16:26.000Z</time>
      </trkpt>
      <trkpt lat="47.83459" lon="-3.54549">
        <ele>49.7</ele>
        <time>2021-11-16T14:16:29.000Z</time>
      </trkpt>
      <trkpt lat="47.83468" lon="-3.54552">
        <ele>50.7</ele>
        <time>2021-11-16T14:16:32.000Z</time>
      </trkpt>
      <trkpt lat="47.83477" lon="-3.54555">
        <ele>49.3</ele>
        <time>2021-11-16T14:16:35.000Z</time>
      </trkpt>
      <trkpt lat="47.83487" lon="-3.54558">
        <ele>52</ele>
        <time>2021-11-16T14:16:38.000Z</time>
      </trkpt>
      <trkpt lat="47.83497" lon="-3.54562">
        <ele>54.1</ele>
        <time>2021-11-16T14:16:41.000Z</time>
      </trkpt>
      <trkpt lat="47.83505" lon="-3.54565">
        <ele>55.1</ele>
        <time>2021-11-16T14:16:44.000Z</time>
      </trkpt>
      <trkpt lat="47.83513" lon="-3.54569">
        <ele>54.8</ele>
        <time>2021-11-16T14:16:47.000Z</time>
      </trkpt>
      <trkpt lat="47.8352" lon="-3.54571">
        <ele>54.6</ele>
        <time>2021-11-16T14:16:50.000Z</time>
      </trkpt>
      <trkpt lat="47.8353" lon="-3.54572">
        <ele>56.1</ele>
        <time>2021-11-16T14:16:53.000Z</time>
      </trkpt>
      <trkpt lat="47.83539" lon="-3.54576">
        <ele>56.3</ele>
        <time>2021-11-16T14:16:56.000Z</time>
      </trkpt>
      <trkpt lat="47.83548" lon="-3.54579">
        <ele>56.8</ele>
        <time>2021-11-16T14:16:59.000Z</time>
      </trkpt>
      <trkpt lat="47.83556" lon="-3.54583">
        <ele>56</ele>
        <time>2021-11-16T14:17:02.000Z</time>
      </trkpt>
      <trkpt lat="47.83565" lon="-3.54587">
        <ele>57.1</ele>
        <time>2021-11-16T14:17:05.000Z</time>
      </trkpt>
      <trkpt lat="47.83574" lon="-3.5459">
        <ele>57.7</ele>
        <time>2021-11-16T14:17:08.000Z</time>
      </trkpt>
      <trkpt lat="47.83583" lon="-3.54592">
        <ele>57.7</ele>
        <time>2021-11-16T14:17:11.000Z</time>
      </trkpt>
      <trkpt lat="47.83594" lon="-3.54594">
        <ele>58.4</ele>
        <time>2021-11-16T14:17:14.000Z</time>
      </trkpt>
      <trkpt lat="47.83605" lon="-3.54596">
        <ele>58.4</ele>
        <time>2021-11-16T14:17:17.000Z</time>
      </trkpt>
      <trkpt lat="47.83618" lon="-3.546">
        <ele>56.4</ele>
        <time>2021-11-16T14:17:20.000Z</time>
      </trkpt>
      <trkpt lat="47.83631" lon="-3.54606">
        <ele>56</ele>
        <time>2021-11-16T14:17:23.000Z</time>
      </trkpt>
      <trkpt lat="47.83646" lon="-3.54611">
        <ele>56.5</ele>
        <time>2021-11-16T14:17:26.000Z</time>
      </trkpt>
      <trkpt lat="47.83663" lon="-3.54618">
        <ele>54.7</ele>
        <time>2021-11-16T14:17:29.000Z</time>
      </trkpt>
      <trkpt lat="47.83681" lon="-3.54621">
        <ele>57.2</ele>
        <time>2021-11-16T14:17:32.000Z</time>
      </trkpt>
      <trkpt lat="47.83697" lon="-3.54625">
        <ele>56.5</ele>
        <time>2021-11-16T14:17:35.000Z</time>
      </trkpt>
      <trkpt lat="47.83708" lon="-3.54631">
        <ele>55.4</ele>
        <time>2021-11-16T14:17:38.000Z</time>
      </trkpt>
      <trkpt lat="47.8372" lon="-3.54638">
        <ele>56.7</ele>
        <time>2021-11-16T14:17:41.000Z</time>
      </trkpt>
      <trkpt lat="47.8373" lon="-3.54645">
        <ele>54.4</ele>
        <time>2021-11-16T14:17:44.000Z</time>
      </trkpt>
      <trkpt lat="47.83742" lon="-3.54647">
        <ele>59.4</ele>
        <time>2021-11-16T14:17:47.000Z</time>
      </trkpt>
      <trkpt lat="47.83755" lon="-3.54651">
        <ele>60.6</ele>
        <time>2021-11-16T14:17:50.000Z</time>
      </trkpt>
      <trkpt lat="47.83767" lon="-3.54652">
        <ele>61.1</ele>
        <time>2021-11-16T14:17:53.000Z</time>
      </trkpt>
      <trkpt lat="47.8378" lon="-3.54656">
        <ele>51</ele>
        <time>2021-11-16T14:17:56.000Z</time>
      </trkpt>
      <trkpt lat="47.83792" lon="-3.5466">
        <ele>65.4</ele>
        <time>2021-11-16T14:17:59.000Z</time>
      </trkpt>
      <trkpt lat="47.83803" lon="-3.54664">
        <ele>57.6</ele>
        <time>2021-11-16T14:18:02.000Z</time>
      </trkpt>
      <trkpt lat="47.83815" lon="-3.54672">
        <ele>56.9</ele>
        <time>2021-11-16T14:18:05.000Z</time>
      </trkpt>
      <trkpt lat="47.83826" lon="-3.54681">
        <ele>56.5</ele>
        <time>2021-11-16T14:18:08.000Z</time>
      </trkpt>
      <trkpt lat="47.83838" lon="-3.54688">
        <ele>56.6</ele>
        <time>2021-11-16T14:18:11.000Z</time>
      </trkpt>
      <trkpt lat="47.83849" lon="-3.54697">
        <ele>58.3</ele>
        <time>2021-11-16T14:18:14.000Z</time>
      </trkpt>
      <trkpt lat="47.8386" lon="-3.54704">
        <ele>57.3</ele>
        <time>2021-11-16T14:18:17.000Z</time>
      </trkpt>
      <trkpt lat="47.8387" lon="-3.54712">
        <ele>57.5</ele>
        <time>2021-11-16T14:18:20.000Z</time>
      </trkpt>
      <trkpt lat="47.83881" lon="-3.54722">
        <ele>57.5</ele>
        <time>2021-11-16T14:18:23.000Z</time>
      </trkpt>
      <trkpt lat="47.83891" lon="-3.5473">
        <ele>56.9</ele>
        <time>2021-11-16T14:18:26.000Z</time>
      </trkpt>
      <trkpt lat="47.83901" lon="-3.54738">
        <ele>57.6</ele>
        <time>2021-11-16T14:18:29.000Z</time>
      </trkpt>
      <trkpt lat="47.83912" lon="-3.54745">
        <ele>59</ele>
        <time>2021-11-16T14:18:32.000Z</time>
      </trkpt>
      <trkpt lat="47.83923" lon="-3.54753">
        <ele>58.3</ele>
        <time>2021-11-16T14:18:35.000Z</time>
      </trkpt>
      <trkpt lat="47.83936" lon="-3.5476">
        <ele>58.8</ele>
        <time>2021-11-16T14:18:38.000Z</time>
      </trkpt>
      <trkpt lat="47.83951" lon="-3.54767">
        <ele>59</ele>
        <time>2021-11-16T14:18:41.000Z</time>
      </trkpt>
      <trkpt lat="47.8397" lon="-3.54782">
        <ele>54.6</ele>
        <time>2021-11-16T14:18:44.000Z</time>
      </trkpt>
      <trkpt lat="47.83988" lon="-3.54797">
        <ele>50.8</ele>
        <time>2021-11-16T14:18:47.000Z</time>
      </trkpt>
      <trkpt lat="47.84003" lon="-3.5481">
        <ele>55.7</ele>
        <time>2021-11-16T14:18:50.000Z</time>
      </trkpt>
      <trkpt lat="47.84019" lon="-3.54822">
        <ele>54.4</ele>
        <time>2021-11-16T14:18:53.000Z</time>
      </trkpt>
      <trkpt lat="47.84032" lon="-3.54831">
        <ele>54.8</ele>
        <time>2021-11-16T14:18:56.000Z</time>
      </trkpt>
      <trkpt lat="47.84044" lon="-3.54841">
        <ele>57.6</ele>
        <time>2021-11-16T14:18:59.000Z</time>
      </trkpt>
      <trkpt lat="47.84054" lon="-3.54847">
        <ele>57.2</ele>
        <time>2021-11-16T14:19:02.000Z</time>
      </trkpt>
      <trkpt lat="47.84065" lon="-3.54846">
        <ele>56.4</ele>
        <time>2021-11-16T14:19:05.000Z</time>
      </trkpt>
      <trkpt lat="47.84074" lon="-3.54832">
        <ele>58.2</ele>
        <time>2021-11-16T14:19:08.000Z</time>
      </trkpt>
      <trkpt lat="47.84083" lon="-3.54817">
        <ele>57.7</ele>
        <time>2021-11-16T14:19:11.000Z</time>
      </trkpt>
      <trkpt lat="47.84092" lon="-3.54803">
        <ele>57.5</ele>
        <time>2021-11-16T14:19:14.000Z</time>
      </trkpt>
      <trkpt lat="47.84101" lon="-3.54789">
        <ele>57.9</ele>
        <time>2021-11-16T14:19:17.000Z</time>
      </trkpt>
      <trkpt lat="47.84111" lon="-3.54774">
        <ele>57.7</ele>
        <time>2021-11-16T14:19:20.000Z</time>
      </trkpt>
      <trkpt lat="47.84121" lon="-3.5476">
        <ele>57.6</ele>
        <time>2021-11-16T14:19:23.000Z</time>
      </trkpt>
      <trkpt lat="47.84131" lon="-3.54745">
        <ele>59</ele>
        <time>2021-11-16T14:19:26.000Z</time>
      </trkpt>
      <trkpt lat="47.8414" lon="-3.5473">
        <ele>57.5</ele>
        <time>2021-11-16T14:19:29.000Z</time>
      </trkpt>
      <trkpt lat="47.84153" lon="-3.54712">
        <ele>57.6</ele>
        <time>2021-11-16T14:19:32.000Z</time>
      </trkpt>
      <trkpt lat="47.84165" lon="-3.54697">
        <ele>58.3</ele>
        <time>2021-11-16T14:19:35.000Z</time>
      </trkpt>
      <trkpt lat="47.84175" lon="-3.54682">
        <ele>57.2</ele>
        <time>2021-11-16T14:19:38.000Z</time>
      </trkpt>
      <trkpt lat="47.84187" lon="-3.54665">
        <ele>56.8</ele>
        <time>2021-11-16T14:19:41.000Z</time>
      </trkpt>
      <trkpt lat="47.84196" lon="-3.54645">
        <ele>54.7</ele>
        <time>2021-11-16T14:19:44.000Z</time>
      </trkpt>
      <trkpt lat="47.84211" lon="-3.54623">
        <ele>55.7</ele>
        <time>2021-11-16T14:19:47.000Z</time>
      </trkpt>
      <trkpt lat="47.84227" lon="-3.54601">
        <ele>55.4</ele>
        <time>2021-11-16T14:19:50.000Z</time>
      </trkpt>
      <trkpt lat="47.84243" lon="-3.5458">
        <ele>54.6</ele>
        <time>2021-11-16T14:19:53.000Z</time>
      </trkpt>
      <trkpt lat="47.84258" lon="-3.54561">
        <ele>54.4</ele>
        <time>2021-11-16T14:19:56.000Z</time>
      </trkpt>
      <trkpt lat="47.84269" lon="-3.54543">
        <ele>53.9</ele>
        <time>2021-11-16T14:19:59.000Z</time>
      </trkpt>
      <trkpt lat="47.84281" lon="-3.54522">
        <ele>53.6</ele>
        <time>2021-11-16T14:20:02.000Z</time>
      </trkpt>
      <trkpt lat="47.84296" lon="-3.54502">
        <ele>53</ele>
        <time>2021-11-16T14:20:05.000Z</time>
      </trkpt>
      <trkpt lat="47.8431" lon="-3.54481">
        <ele>53.4</ele>
        <time>2021-11-16T14:20:08.000Z</time>
      </trkpt>
      <trkpt lat="47.84322" lon="-3.54461">
        <ele>50.9</ele>
        <time>2021-11-16T14:20:11.000Z</time>
      </trkpt>
      <trkpt lat="47.84338" lon="-3.54444">
        <ele>50.7</ele>
        <time>2021-11-16T14:20:14.000Z</time>
      </trkpt>
      <trkpt lat="47.84351" lon="-3.5443">
        <ele>52.7</ele>
        <time>2021-11-16T14:20:17.000Z</time>
      </trkpt>
      <trkpt lat="47.84363" lon="-3.54416">
        <ele>55.5</ele>
        <time>2021-11-16T14:20:20.000Z</time>
      </trkpt>
      <trkpt lat="47.84371" lon="-3.54402">
        <ele>55.2</ele>
        <time>2021-11-16T14:20:23.000Z</time>
      </trkpt>
      <trkpt lat="47.8438" lon="-3.5439">
        <ele>53.6</ele>
        <time>2021-11-16T14:20:26.000Z</time>
      </trkpt>
      <trkpt lat="47.84387" lon="-3.54379">
        <ele>53.5</ele>
        <time>2021-11-16T14:20:29.000Z</time>
      </trkpt>
      <trkpt lat="47.84394" lon="-3.54368">
        <ele>54.1</ele>
        <time>2021-11-16T14:20:32.000Z</time>
      </trkpt>
      <trkpt lat="47.84402" lon="-3.54356">
        <ele>52.9</ele>
        <time>2021-11-16T14:20:35.000Z</time>
      </trkpt>
      <trkpt lat="47.84411" lon="-3.54344">
        <ele>54.9</ele>
        <time>2021-11-16T14:20:38.000Z</time>
      </trkpt>
      <trkpt lat="47.84419" lon="-3.54331">
        <ele>55.6</ele>
        <time>2021-11-16T14:20:41.000Z</time>
      </trkpt>
      <trkpt lat="47.84428" lon="-3.54319">
        <ele>54.9</ele>
        <time>2021-11-16T14:20:44.000Z</time>
      </trkpt>
      <trkpt lat="47.84435" lon="-3.54307">
        <ele>50.1</ele>
        <time>2021-11-16T14:20:47.000Z</time>
      </trkpt>
      <trkpt lat="47.84444" lon="-3.54297">
        <ele>55.1</ele>
        <time>2021-11-16T14:20:50.000Z</time>
      </trkpt>
      <trkpt lat="47.84454" lon="-3.54282">
        <ele>52.8</ele>
        <time>2021-11-16T14:20:53.000Z</time>
      </trkpt>
      <trkpt lat="47.84464" lon="-3.54267">
        <ele>54.1</ele>
        <time>2021-11-16T14:20:56.000Z</time>
      </trkpt>
      <trkpt lat="47.84473" lon="-3.54254">
        <ele>54.3</ele>
        <time>2021-11-16T14:20:59.000Z</time>
      </trkpt>
      <trkpt lat="47.8448" lon="-3.54239">
        <ele>55.8</ele>
        <time>2021-11-16T14:21:02.000Z</time>
      </trkpt>
      <trkpt lat="47.84488" lon="-3.54226">
        <ele>55.6</ele>
        <time>2021-11-16T14:21:05.000Z</time>
      </trkpt>
      <trkpt lat="47.84497" lon="-3.54213">
        <ele>52.6</ele>
        <time>2021-11-16T14:21:08.000Z</time>
      </trkpt>
      <trkpt lat="47.84505" lon="-3.54199">
        <ele>55.8</ele>
        <time>2021-11-16T14:21:11.000Z</time>
      </trkpt>
      <trkpt lat="47.84516" lon="-3.54184">
        <ele>57.9</ele>
        <time>2021-11-16T14:21:14.000Z</time>
      </trkpt>
      <trkpt lat="47.84523" lon="-3.5417">
        <ele>56.8</ele>
        <time>2021-11-16T14:21:17.000Z</time>
      </trkpt>
      <trkpt lat="47.84533" lon="-3.54154">
        <ele>56.8</ele>
        <time>2021-11-16T14:21:20.000Z</time>
      </trkpt>
      <trkpt lat="47.84544" lon="-3.5414">
        <ele>55.9</ele>
        <time>2021-11-16T14:21:23.000Z</time>
      </trkpt>
      <trkpt lat="47.84553" lon="-3.54128">
        <ele>58.1</ele>
        <time>2021-11-16T14:21:26.000Z</time>
      </trkpt>
      <trkpt lat="47.84563" lon="-3.54114">
        <ele>55</ele>
        <time>2021-11-16T14:21:29.000Z</time>
      </trkpt>
      <trkpt lat="47.84573" lon="-3.54101">
        <ele>59.4</ele>
        <time>2021-11-16T14:21:32.000Z</time>
      </trkpt>
      <trkpt lat="47.8458" lon="-3.54089">
        <ele>55.4</ele>
        <time>2021-11-16T14:21:35.000Z</time>
      </trkpt>
      <trkpt lat="47.8459" lon="-3.54075">
        <ele>54.8</ele>
        <time>2021-11-16T14:21:38.000Z</time>
      </trkpt>
      <trkpt lat="47.84601" lon="-3.5406">
        <ele>57.9</ele>
        <time>2021-11-16T14:21:41.000Z</time>
      </trkpt>
      <trkpt lat="47.84612" lon="-3.54044">
        <ele>51.7</ele>
        <time>2021-11-16T14:21:44.000Z</time>
      </trkpt>
      <trkpt lat="47.84623" lon="-3.54029">
        <ele>57.8</ele>
        <time>2021-11-16T14:21:47.000Z</time>
      </trkpt>
      <trkpt lat="47.84631" lon="-3.54015">
        <ele>55.9</ele>
        <time>2021-11-16T14:21:50.000Z</time>
      </trkpt>
      <trkpt lat="47.84643" lon="-3.53997">
        <ele>57.5</ele>
        <time>2021-11-16T14:21:53.000Z</time>
      </trkpt>
      <trkpt lat="47.84654" lon="-3.53976">
        <ele>55.1</ele>
        <time>2021-11-16T14:21:56.000Z</time>
      </trkpt>
      <trkpt lat="47.84669" lon="-3.53954">
        <ele>54.4</ele>
        <time>2021-11-16T14:21:59.000Z</time>
      </trkpt>
      <trkpt lat="47.84685" lon="-3.53935">
        <ele>53.6</ele>
        <time>2021-11-16T14:22:02.000Z</time>
      </trkpt>
      <trkpt lat="47.84698" lon="-3.53919">
        <ele>54.8</ele>
        <time>2021-11-16T14:22:05.000Z</time>
      </trkpt>
      <trkpt lat="47.84712" lon="-3.53902">
        <ele>52</ele>
        <time>2021-11-16T14:22:08.000Z</time>
      </trkpt>
      <trkpt lat="47.84725" lon="-3.53886">
        <ele>53.3</ele>
        <time>2021-11-16T14:22:11.000Z</time>
      </trkpt>
      <trkpt lat="47.84735" lon="-3.5387">
        <ele>56.2</ele>
        <time>2021-11-16T14:22:14.000Z</time>
      </trkpt>
      <trkpt lat="47.84748" lon="-3.53854">
        <ele>51.3</ele>
        <time>2021-11-16T14:22:17.000Z</time>
      </trkpt>
      <trkpt lat="47.84756" lon="-3.53839">
        <ele>54.5</ele>
        <time>2021-11-16T14:22:20.000Z</time>
      </trkpt>
      <trkpt lat="47.84764" lon="-3.53827">
        <ele>56.7</ele>
        <time>2021-11-16T14:22:23.000Z</time>
      </trkpt>
      <trkpt lat="47.84774" lon="-3.53814">
        <ele>53.2</ele>
        <time>2021-11-16T14:22:26.000Z</time>
      </trkpt>
      <trkpt lat="47.84782" lon="-3.53801">
        <ele>54.5</ele>
        <time>2021-11-16T14:22:29.000Z</time>
      </trkpt>
      <trkpt lat="47.84793" lon="-3.53789">
        <ele>57.7</ele>
        <time>2021-11-16T14:22:32.000Z</time>
      </trkpt>
      <trkpt lat="47.84803" lon="-3.53777">
        <ele>60.7</ele>
        <time>2021-11-16T14:22:35.000Z</time>
      </trkpt>
      <trkpt lat="47.84811" lon="-3.53765">
        <ele>56.7</ele>
        <time>2021-11-16T14:22:38.000Z</time>
      </trkpt>
      <trkpt lat="47.8482" lon="-3.53749">
        <ele>56.8</ele>
        <time>2021-11-16T14:22:41.000Z</time>
      </trkpt>
      <trkpt lat="47.84827" lon="-3.53731">
        <ele>58.1</ele>
        <time>2021-11-16T14:22:44.000Z</time>
      </trkpt>
      <trkpt lat="47.84835" lon="-3.53714">
        <ele>55</ele>
        <time>2021-11-16T14:22:47.000Z</time>
      </trkpt>
      <trkpt lat="47.84846" lon="-3.53701">
        <ele>54.5</ele>
        <time>2021-11-16T14:22:50.000Z</time>
      </trkpt>
      <trkpt lat="47.84855" lon="-3.53686">
        <ele>51.3</ele>
        <time>2021-11-16T14:22:53.000Z</time>
      </trkpt>
      <trkpt lat="47.84865" lon="-3.53668">
        <ele>56.2</ele>
        <time>2021-11-16T14:22:56.000Z</time>
      </trkpt>
      <trkpt lat="47.84875" lon="-3.53655">
        <ele>53.8</ele>
        <time>2021-11-16T14:22:59.000Z</time>
      </trkpt>
      <trkpt lat="47.84884" lon="-3.53658">
        <ele>54.6</ele>
        <time>2021-11-16T14:23:02.000Z</time>
      </trkpt>
      <trkpt lat="47.84887" lon="-3.53668">
        <ele>54.6</ele>
        <time>2021-11-16T14:23:05.000Z</time>
      </trkpt>
      <trkpt lat="47.84887" lon="-3.53679">
        <ele>54.5</ele>
        <time>2021-11-16T14:23:08.000Z</time>
      </trkpt>
      <trkpt lat="47.84888" lon="-3.53691">
        <ele>55.9</ele>
        <time>2021-11-16T14:23:11.000Z</time>
      </trkpt>
      <trkpt lat="47.84887" lon="-3.53702">
        <ele>55.7</ele>
        <time>2021-11-16T14:23:14.000Z</time>
      </trkpt>
      <trkpt lat="47.84885" lon="-3.53711">
        <ele>56.5</ele>
        <time>2021-11-16T14:23:17.000Z</time>
      </trkpt>
      <trkpt lat="47.84884" lon="-3.53722">
        <ele>57.9</ele>
        <time>2021-11-16T14:23:20.000Z</time>
      </trkpt>
      <trkpt lat="47.84882" lon="-3.53734">
        <ele>57.7</ele>
        <time>2021-11-16T14:23:23.000Z</time>
      </trkpt>
      <trkpt lat="47.8488" lon="-3.53747">
        <ele>59.3</ele>
        <time>2021-11-16T14:23:26.000Z</time>
      </trkpt>
      <trkpt lat="47.84879" lon="-3.5376">
        <ele>59.7</ele>
        <time>2021-11-16T14:23:29.000Z</time>
      </trkpt>
      <trkpt lat="47.84877" lon="-3.53775">
        <ele>59.1</ele>
        <time>2021-11-16T14:23:32.000Z</time>
      </trkpt>
      <trkpt lat="47.84874" lon="-3.53784">
        <ele>59.9</ele>
        <time>2021-11-16T14:23:35.000Z</time>
      </trkpt>
      <trkpt lat="47.84872" lon="-3.53795">
        <ele>58.7</ele>
        <time>2021-11-16T14:23:38.000Z</time>
      </trkpt>
      <trkpt lat="47.84869" lon="-3.53808">
        <ele>59.1</ele>
        <time>2021-11-16T14:23:41.000Z</time>
      </trkpt>
      <trkpt lat="47.84865" lon="-3.53823">
        <ele>60.2</ele>
        <time>2021-11-16T14:23:44.000Z</time>
      </trkpt>
      <trkpt lat="47.84865" lon="-3.53843">
        <ele>59.1</ele>
        <time>2021-11-16T14:23:47.000Z</time>
      </trkpt>
      <trkpt lat="47.84866" lon="-3.53863">
        <ele>57.5</ele>
        <time>2021-11-16T14:23:50.000Z</time>
      </trkpt>
      <trkpt lat="47.84869" lon="-3.53884">
        <ele>58.2</ele>
        <time>2021-11-16T14:23:53.000Z</time>
      </trkpt>
      <trkpt lat="47.84875" lon="-3.53902">
        <ele>56.9</ele>
        <time>2021-11-16T14:23:56.000Z</time>
      </trkpt>
      <trkpt lat="47.84879" lon="-3.53923">
        <ele>61.1</ele>
        <time>2021-11-16T14:23:59.000Z</time>
      </trkpt>
      <trkpt lat="47.84886" lon="-3.53944">
        <ele>60.5</ele>
        <time>2021-11-16T14:24:02.000Z</time>
      </trkpt>
      <trkpt lat="47.84894" lon="-3.53963">
        <ele>58.1</ele>
        <time>2021-11-16T14:24:05.000Z</time>
      </trkpt>
      <trkpt lat="47.849" lon="-3.53987">
        <ele>56.8</ele>
        <time>2021-11-16T14:24:08.000Z</time>
      </trkpt>
      <trkpt lat="47.84908" lon="-3.5401">
        <ele>56.9</ele>
        <time>2021-11-16T14:24:11.000Z</time>
      </trkpt>
      <trkpt lat="47.84918" lon="-3.54034">
        <ele>55.2</ele>
        <time>2021-11-16T14:24:14.000Z</time>
      </trkpt>
      <trkpt lat="47.8493" lon="-3.54058">
        <ele>54.4</ele>
        <time>2021-11-16T14:24:17.000Z</time>
      </trkpt>
      <trkpt lat="47.84941" lon="-3.54084">
        <ele>52.5</ele>
        <time>2021-11-16T14:24:20.000Z</time>
      </trkpt>
      <trkpt lat="47.84951" lon="-3.54114">
        <ele>50.2</ele>
        <time>2021-11-16T14:24:23.000Z</time>
      </trkpt>
      <trkpt lat="47.84956" lon="-3.54147">
        <ele>49.5</ele>
        <time>2021-11-16T14:24:26.000Z</time>
      </trkpt>
      <trkpt lat="47.84956" lon="-3.54181">
        <ele>49.7</ele>
        <time>2021-11-16T14:24:29.000Z</time>
      </trkpt>
      <trkpt lat="47.84956" lon="-3.54216">
        <ele>49.9</ele>
        <time>2021-11-16T14:24:32.000Z</time>
      </trkpt>
      <trkpt lat="47.84967" lon="-3.54245">
        <ele>51.4</ele>
        <time>2021-11-16T14:24:35.000Z</time>
      </trkpt>
      <trkpt lat="47.84985" lon="-3.54267">
        <ele>50.2</ele>
        <time>2021-11-16T14:24:38.000Z</time>
      </trkpt>
      <trkpt lat="47.85004" lon="-3.54279">
        <ele>49.4</ele>
        <time>2021-11-16T14:24:41.000Z</time>
      </trkpt>
      <trkpt lat="47.85024" lon="-3.54286">
        <ele>49.4</ele>
        <time>2021-11-16T14:24:44.000Z</time>
      </trkpt>
      <trkpt lat="47.85041" lon="-3.54291">
        <ele>48.9</ele>
        <time>2021-11-16T14:24:47.000Z</time>
      </trkpt>
      <trkpt lat="47.85057" lon="-3.54295">
        <ele>48.4</ele>
        <time>2021-11-16T14:24:50.000Z</time>
      </trkpt>
      <trkpt lat="47.85072" lon="-3.543">
        <ele>51.7</ele>
        <time>2021-11-16T14:24:53.000Z</time>
      </trkpt>
      <trkpt lat="47.85087" lon="-3.54304">
        <ele>52.4</ele>
        <time>2021-11-16T14:24:56.000Z</time>
      </trkpt>
      <trkpt lat="47.85103" lon="-3.5431">
        <ele>49.5</ele>
        <time>2021-11-16T14:24:59.000Z</time>
      </trkpt>
      <trkpt lat="47.85119" lon="-3.54316">
        <ele>51.2</ele>
        <time>2021-11-16T14:25:02.000Z</time>
      </trkpt>
      <trkpt lat="47.85135" lon="-3.54322">
        <ele>50.7</ele>
        <time>2021-11-16T14:25:05.000Z</time>
      </trkpt>
      <trkpt lat="47.8515" lon="-3.54328">
        <ele>51.7</ele>
        <time>2021-11-16T14:25:08.000Z</time>
      </trkpt>
      <trkpt lat="47.85164" lon="-3.54334">
        <ele>51.6</ele>
        <time>2021-11-16T14:25:11.000Z</time>
      </trkpt>
      <trkpt lat="47.85178" lon="-3.54339">
        <ele>52.6</ele>
        <time>2021-11-16T14:25:14.000Z</time>
      </trkpt>
      <trkpt lat="47.85192" lon="-3.54345">
        <ele>52.9</ele>
        <time>2021-11-16T14:25:17.000Z</time>
      </trkpt>
      <trkpt lat="47.85206" lon="-3.5435">
        <ele>53.7</ele>
        <time>2021-11-16T14:25:20.000Z</time>
      </trkpt>
      <trkpt lat="47.85219" lon="-3.54355">
        <ele>54.2</ele>
        <time>2021-11-16T14:25:23.000Z</time>
      </trkpt>
      <trkpt lat="47.85231" lon="-3.54361">
        <ele>54</ele>
        <time>2021-11-16T14:25:26.000Z</time>
      </trkpt>
      <trkpt lat="47.85244" lon="-3.54366">
        <ele>54.3</ele>
        <time>2021-11-16T14:25:29.000Z</time>
      </trkpt>
      <trkpt lat="47.85257" lon="-3.54371">
        <ele>55.1</ele>
        <time>2021-11-16T14:25:32.000Z</time>
      </trkpt>
      <trkpt lat="47.8527" lon="-3.54378">
        <ele>54.6</ele>
        <time>2021-11-16T14:25:35.000Z</time>
      </trkpt>
      <trkpt lat="47.85283" lon="-3.54388">
        <ele>54.5</ele>
        <time>2021-11-16T14:25:38.000Z</time>
      </trkpt>
      <trkpt lat="47.85294" lon="-3.54404">
        <ele>53</ele>
        <time>2021-11-16T14:25:41.000Z</time>
      </trkpt>
      <trkpt lat="47.85303" lon="-3.54421">
        <ele>56.7</ele>
        <time>2021-11-16T14:25:44.000Z</time>
      </trkpt>
      <trkpt lat="47.85311" lon="-3.54438">
        <ele>55.8</ele>
        <time>2021-11-16T14:25:47.000Z</time>
      </trkpt>
      <trkpt lat="47.85321" lon="-3.54457">
        <ele>52.8</ele>
        <time>2021-11-16T14:25:50.000Z</time>
      </trkpt>
      <trkpt lat="47.85336" lon="-3.54477">
        <ele>54</ele>
        <time>2021-11-16T14:25:53.000Z</time>
      </trkpt>
      <trkpt lat="47.85359" lon="-3.54491">
        <ele>46.2</ele>
        <time>2021-11-16T14:25:56.000Z</time>
      </trkpt>
      <trkpt lat="47.85386" lon="-3.54503">
        <ele>45.7</ele>
        <time>2021-11-16T14:25:59.000Z</time>
      </trkpt>
      <trkpt lat="47.85414" lon="-3.54513">
        <ele>41.1</ele>
        <time>2021-11-16T14:26:02.000Z</time>
      </trkpt>
      <trkpt lat="47.85432" lon="-3.54542">
        <ele>41.5</ele>
        <time>2021-11-16T14:26:05.000Z</time>
      </trkpt>
      <trkpt lat="47.85437" lon="-3.54588">
        <ele>36.8</ele>
        <time>2021-11-16T14:26:08.000Z</time>
      </trkpt>
      <trkpt lat="47.8544" lon="-3.54642">
        <ele>28.9</ele>
        <time>2021-11-16T14:26:11.000Z</time>
      </trkpt>
      <trkpt lat="47.85445" lon="-3.54695">
        <ele>27</ele>
        <time>2021-11-16T14:26:14.000Z</time>
      </trkpt>
      <trkpt lat="47.85456" lon="-3.54733">
        <ele>27.2</ele>
        <time>2021-11-16T14:26:17.000Z</time>
      </trkpt>
      <trkpt lat="47.85477" lon="-3.54749">
        <ele>25.6</ele>
        <time>2021-11-16T14:26:20.000Z</time>
      </trkpt>
      <trkpt lat="47.85492" lon="-3.54744">
        <ele>22.4</ele>
        <time>2021-11-16T14:26:23.000Z</time>
      </trkpt>
      <trkpt lat="47.85504" lon="-3.54733">
        <ele>25.6</ele>
        <time>2021-11-16T14:26:26.000Z</time>
      </trkpt>
      <trkpt lat="47.85512" lon="-3.54719">
        <ele>24.3</ele>
        <time>2021-11-16T14:26:29.000Z</time>
      </trkpt>
      <trkpt lat="47.85518" lon="-3.54708">
        <ele>26.6</ele>
        <time>2021-11-16T14:26:32.000Z</time>
      </trkpt>
      <trkpt lat="47.85524" lon="-3.54699">
        <ele>25.4</ele>
        <time>2021-11-16T14:26:35.000Z</time>
      </trkpt>
      <trkpt lat="47.85533" lon="-3.54692">
        <ele>26.4</ele>
        <time>2021-11-16T14:26:38.000Z</time>
      </trkpt>
      <trkpt lat="47.85544" lon="-3.54685">
        <ele>24.3</ele>
        <time>2021-11-16T14:26:41.000Z</time>
      </trkpt>
      <trkpt lat="47.85556" lon="-3.54677">
        <ele>24.8</ele>
        <time>2021-11-16T14:26:44.000Z</time>
      </trkpt>
      <trkpt lat="47.85573" lon="-3.5467">
        <ele>25.1</ele>
        <time>2021-11-16T14:26:47.000Z</time>
      </trkpt>
      <trkpt lat="47.85593" lon="-3.54666">
        <ele>23.2</ele>
        <time>2021-11-16T14:26:50.000Z</time>
      </trkpt>
      <trkpt lat="47.85608" lon="-3.54665">
        <ele>19.3</ele>
        <time>2021-11-16T14:26:53.000Z</time>
      </trkpt>
      <trkpt lat="47.8562" lon="-3.5466">
        <ele>23.9</ele>
        <time>2021-11-16T14:26:56.000Z</time>
      </trkpt>
      <trkpt lat="47.85632" lon="-3.54647">
        <ele>18.7</ele>
        <time>2021-11-16T14:26:59.000Z</time>
      </trkpt>
      <trkpt lat="47.85645" lon="-3.5463">
        <ele>15.5</ele>
        <time>2021-11-16T14:27:02.000Z</time>
      </trkpt>
      <trkpt lat="47.85659" lon="-3.54609">
        <ele>18.4</ele>
        <time>2021-11-16T14:27:05.000Z</time>
      </trkpt>
      <trkpt lat="47.85678" lon="-3.54584">
        <ele>11</ele>
        <time>2021-11-16T14:27:08.000Z</time>
      </trkpt>
      <trkpt lat="47.857" lon="-3.54563">
        <ele>14.1</ele>
        <time>2021-11-16T14:27:11.000Z</time>
      </trkpt>
      <trkpt lat="47.85728" lon="-3.54542">
        <ele>11.6</ele>
        <time>2021-11-16T14:27:14.000Z</time>
      </trkpt>
      <trkpt lat="47.85753" lon="-3.54521">
        <ele>7</ele>
        <time>2021-11-16T14:27:17.000Z</time>
      </trkpt>
      <trkpt lat="47.85784" lon="-3.54497">
        <ele>3.2</ele>
        <time>2021-11-16T14:27:20.000Z</time>
      </trkpt>
      <trkpt lat="47.85813" lon="-3.54475">
        <ele>3.4</ele>
        <time>2021-11-16T14:27:23.000Z</time>
      </trkpt>
      <trkpt lat="47.85835" lon="-3.5446">
        <ele>5.3</ele>
        <time>2021-11-16T14:27:26.000Z</time>
      </trkpt>
      <trkpt lat="47.85858" lon="-3.54447">
        <ele>5</ele>
        <time>2021-11-16T14:27:29.000Z</time>
      </trkpt>
      <trkpt lat="47.85878" lon="-3.54439">
        <ele>4.4</ele>
        <time>2021-11-16T14:27:32.000Z</time>
      </trkpt>
      <trkpt lat="47.85898" lon="-3.54432">
        <ele>6.6</ele>
        <time>2021-11-16T14:27:35.000Z</time>
      </trkpt>
      <trkpt lat="47.85917" lon="-3.54426">
        <ele>5.8</ele>
        <time>2021-11-16T14:27:38.000Z</time>
      </trkpt>
      <trkpt lat="47.85936" lon="-3.54418">
        <ele>5.1</ele>
        <time>2021-11-16T14:27:41.000Z</time>
      </trkpt>
      <trkpt lat="47.85956" lon="-3.54411">
        <ele>4.6</ele>
        <time>2021-11-16T14:27:44.000Z</time>
      </trkpt>
      <trkpt lat="47.85976" lon="-3.54405">
        <ele>4.3</ele>
        <time>2021-11-16T14:27:47.000Z</time>
      </trkpt>
      <trkpt lat="47.85994" lon="-3.54398">
        <ele>5.7</ele>
        <time>2021-11-16T14:27:50.000Z</time>
      </trkpt>
      <trkpt lat="47.86012" lon="-3.54392">
        <ele>5.5</ele>
        <time>2021-11-16T14:27:53.000Z</time>
      </trkpt>
      <trkpt lat="47.86029" lon="-3.54386">
        <ele>6</ele>
        <time>2021-11-16T14:27:56.000Z</time>
      </trkpt>
      <trkpt lat="47.86046" lon="-3.5438">
        <ele>6.5</ele>
        <time>2021-11-16T14:27:59.000Z</time>
      </trkpt>
      <trkpt lat="47.86063" lon="-3.54375">
        <ele>6.5</ele>
        <time>2021-11-16T14:28:02.000Z</time>
      </trkpt>
      <trkpt lat="47.8608" lon="-3.5437">
        <ele>5.7</ele>
        <time>2021-11-16T14:28:05.000Z</time>
      </trkpt>
      <trkpt lat="47.86096" lon="-3.54365">
        <ele>7.2</ele>
        <time>2021-11-16T14:28:08.000Z</time>
      </trkpt>
      <trkpt lat="47.86113" lon="-3.54358">
        <ele>7.2</ele>
        <time>2021-11-16T14:28:11.000Z</time>
      </trkpt>
      <trkpt lat="47.86128" lon="-3.54353">
        <ele>6.7</ele>
        <time>2021-11-16T14:28:14.000Z</time>
      </trkpt>
      <trkpt lat="47.86142" lon="-3.54349">
        <ele>7.5</ele>
        <time>2021-11-16T14:28:17.000Z</time>
      </trkpt>
      <trkpt lat="47.86158" lon="-3.54343">
        <ele>7.8</ele>
        <time>2021-11-16T14:28:20.000Z</time>
      </trkpt>
      <trkpt lat="47.86171" lon="-3.54338">
        <ele>8.6</ele>
        <time>2021-11-16T14:28:23.000Z</time>
      </trkpt>
      <trkpt lat="47.86186" lon="-3.54332">
        <ele>8</ele>
        <time>2021-11-16T14:28:26.000Z</time>
      </trkpt>
      <trkpt lat="47.862" lon="-3.54327">
        <ele>8.2</ele>
        <time>2021-11-16T14:28:29.000Z</time>
      </trkpt>
      <trkpt lat="47.86213" lon="-3.5432">
        <ele>9</ele>
        <time>2021-11-16T14:28:32.000Z</time>
      </trkpt>
      <trkpt lat="47.86224" lon="-3.54314">
        <ele>9.4</ele>
        <time>2021-11-16T14:28:35.000Z</time>
      </trkpt>
      <trkpt lat="47.86236" lon="-3.54307">
        <ele>9.8</ele>
        <time>2021-11-16T14:28:38.000Z</time>
      </trkpt>
      <trkpt lat="47.86249" lon="-3.54298">
        <ele>10.2</ele>
        <time>2021-11-16T14:28:41.000Z</time>
      </trkpt>
      <trkpt lat="47.86261" lon="-3.54289">
        <ele>9.7</ele>
        <time>2021-11-16T14:28:44.000Z</time>
      </trkpt>
      <trkpt lat="47.86272" lon="-3.54278">
        <ele>10.4</ele>
        <time>2021-11-16T14:28:47.000Z</time>
      </trkpt>
      <trkpt lat="47.86282" lon="-3.54264">
        <ele>10.3</ele>
        <time>2021-11-16T14:28:50.000Z</time>
      </trkpt>
      <trkpt lat="47.86292" lon="-3.5425">
        <ele>11.1</ele>
        <time>2021-11-16T14:28:53.000Z</time>
      </trkpt>
      <trkpt lat="47.86303" lon="-3.54239">
        <ele>10.8</ele>
        <time>2021-11-16T14:28:56.000Z</time>
      </trkpt>
      <trkpt lat="47.86318" lon="-3.54229">
        <ele>10.2</ele>
        <time>2021-11-16T14:28:59.000Z</time>
      </trkpt>
      <trkpt lat="47.86333" lon="-3.5422">
        <ele>10.2</ele>
        <time>2021-11-16T14:29:02.000Z</time>
      </trkpt>
      <trkpt lat="47.86351" lon="-3.54212">
        <ele>9.8</ele>
        <time>2021-11-16T14:29:05.000Z</time>
      </trkpt>
      <trkpt lat="47.86369" lon="-3.54204">
        <ele>10.3</ele>
        <time>2021-11-16T14:29:08.000Z</time>
      </trkpt>
      <trkpt lat="47.86386" lon="-3.54197">
        <ele>10.4</ele>
        <time>2021-11-16T14:29:11.000Z</time>
      </trkpt>
      <trkpt lat="47.86404" lon="-3.5419">
        <ele>10.7</ele>
        <time>2021-11-16T14:29:14.000Z</time>
      </trkpt>
      <trkpt lat="47.86422" lon="-3.54186">
        <ele>11.1</ele>
        <time>2021-11-16T14:29:17.000Z</time>
      </trkpt>
      <trkpt lat="47.86441" lon="-3.54187">
        <ele>10.3</ele>
        <time>2021-11-16T14:29:20.000Z</time>
      </trkpt>
      <trkpt lat="47.86457" lon="-3.54195">
        <ele>10.6</ele>
        <time>2021-11-16T14:29:23.000Z</time>
      </trkpt>
      <trkpt lat="47.86473" lon="-3.54205">
        <ele>10.1</ele>
        <time>2021-11-16T14:29:26.000Z</time>
      </trkpt>
      <trkpt lat="47.86487" lon="-3.54216">
        <ele>10.4</ele>
        <time>2021-11-16T14:29:29.000Z</time>
      </trkpt>
      <trkpt lat="47.86501" lon="-3.54225">
        <ele>10.2</ele>
        <time>2021-11-16T14:29:32.000Z</time>
      </trkpt>
      <trkpt lat="47.86516" lon="-3.54235">
        <ele>10.1</ele>
        <time>2021-11-16T14:29:35.000Z</time>
      </trkpt>
      <trkpt lat="47.8653" lon="-3.54245">
        <ele>9.8</ele>
        <time>2021-11-16T14:29:38.000Z</time>
      </trkpt>
      <trkpt lat="47.86544" lon="-3.54256">
        <ele>9.9</ele>
        <time>2021-11-16T14:29:41.000Z</time>
      </trkpt>
      <trkpt lat="47.86559" lon="-3.54267">
        <ele>10.2</ele>
        <time>2021-11-16T14:29:44.000Z</time>
      </trkpt>
      <trkpt lat="47.86572" lon="-3.54279">
        <ele>9.8</ele>
        <time>2021-11-16T14:29:47.000Z</time>
      </trkpt>
      <trkpt lat="47.86586" lon="-3.5429">
        <ele>9.5</ele>
        <time>2021-11-16T14:29:50.000Z</time>
      </trkpt>
      <trkpt lat="47.86598" lon="-3.54295">
        <ele>9.4</ele>
        <time>2021-11-16T14:29:53.000Z</time>
      </trkpt>
      <trkpt lat="47.86605" lon="-3.54298">
        <ele>9.2</ele>
        <time>2021-11-16T14:29:56.000Z</time>
      </trkpt>
      <trkpt lat="47.86605" lon="-3.54298">
        <ele>9.5</ele>
        <time>2021-11-16T14:29:59.000Z</time>
      </trkpt>
      <trkpt lat="47.86605" lon="-3.54298">
        <ele>9.6</ele>
        <time>2021-11-16T14:30:00.000Z</time>
      </trkpt>
      <trkpt lat="47.86605" lon="-3.54298">
        <ele>9.5</ele>
        <time>2021-11-16T14:30:03.000Z</time>
      </trkpt>
      <trkpt lat="47.86605" lon="-3.54298">
        <ele>9.7</ele>
        <time>2021-11-16T14:30:06.000Z</time>
      </trkpt>
      <trkpt lat="47.86605" lon="-3.54299">
        <ele>9.5</ele>
        <time>2021-11-16T14:30:09.000Z</time>
      </trkpt>
      <trkpt lat="47.86605" lon="-3.54299">
        <ele>9.4</ele>
        <time>2021-11-16T14:30:10.000Z</time>
      </trkpt>
      <trkpt lat="47.86606" lon="-3.54299">
        <ele>9.1</ele>
        <time>2021-11-16T14:30:12.000Z</time>
      </trkpt>
      <trkpt lat="47.8661" lon="-3.54303">
        <ele>9.2</ele>
        <time>2021-11-16T14:30:15.000Z</time>
      </trkpt>
      <trkpt lat="47.86619" lon="-3.54306">
        <ele>8.6</ele>
        <time>2021-11-16T14:30:18.000Z</time>
      </trkpt>
      <trkpt lat="47.86629" lon="-3.54309">
        <ele>7.7</ele>
        <time>2021-11-16T14:30:21.000Z</time>
      </trkpt>
      <trkpt lat="47.86641" lon="-3.54313">
        <ele>8.3</ele>
        <time>2021-11-16T14:30:24.000Z</time>
      </trkpt>
      <trkpt lat="47.86651" lon="-3.54316">
        <ele>7.6</ele>
        <time>2021-11-16T14:30:27.000Z</time>
      </trkpt>
      <trkpt lat="47.86663" lon="-3.5432">
        <ele>6.3</ele>
        <time>2021-11-16T14:30:30.000Z</time>
      </trkpt>
      <trkpt lat="47.86678" lon="-3.54324">
        <ele>5.3</ele>
        <time>2021-11-16T14:30:33.000Z</time>
      </trkpt>
      <trkpt lat="47.86695" lon="-3.54327">
        <ele>5.6</ele>
        <time>2021-11-16T14:30:36.000Z</time>
      </trkpt>
      <trkpt lat="47.86711" lon="-3.54332">
        <ele>5.2</ele>
        <time>2021-11-16T14:30:39.000Z</time>
      </trkpt>
      <trkpt lat="47.86728" lon="-3.54337">
        <ele>6</ele>
        <time>2021-11-16T14:30:42.000Z</time>
      </trkpt>
      <trkpt lat="47.86743" lon="-3.54342">
        <ele>6.5</ele>
        <time>2021-11-16T14:30:45.000Z</time>
      </trkpt>
      <trkpt lat="47.86758" lon="-3.54348">
        <ele>6</ele>
        <time>2021-11-16T14:30:48.000Z</time>
      </trkpt>
      <trkpt lat="47.86773" lon="-3.54354">
        <ele>6.1</ele>
        <time>2021-11-16T14:30:51.000Z</time>
      </trkpt>
      <trkpt lat="47.86789" lon="-3.54364">
        <ele>5.7</ele>
        <time>2021-11-16T14:30:54.000Z</time>
      </trkpt>
      <trkpt lat="47.86803" lon="-3.54377">
        <ele>6</ele>
        <time>2021-11-16T14:30:57.000Z</time>
      </trkpt>
      <trkpt lat="47.86816" lon="-3.54392">
        <ele>6</ele>
        <time>2021-11-16T14:31:00.000Z</time>
      </trkpt>
      <trkpt lat="47.86824" lon="-3.54403">
        <ele>6.2</ele>
        <time>2021-11-16T14:31:03.000Z</time>
      </trkpt>
      <trkpt lat="47.86828" lon="-3.54408">
        <ele>6.5</ele>
        <time>2021-11-16T14:31:06.000Z</time>
      </trkpt>
      <trkpt lat="47.86834" lon="-3.54414">
        <ele>7.4</ele>
        <time>2021-11-16T14:31:09.000Z</time>
      </trkpt>
      <trkpt lat="47.86842" lon="-3.54422">
        <ele>6.1</ele>
        <time>2021-11-16T14:31:12.000Z</time>
      </trkpt>
      <trkpt lat="47.86853" lon="-3.54435">
        <ele>5.3</ele>
        <time>2021-11-16T14:31:15.000Z</time>
      </trkpt>
      <trkpt lat="47.86864" lon="-3.54448">
        <ele>4.5</ele>
        <time>2021-11-16T14:31:18.000Z</time>
      </trkpt>
      <trkpt lat="47.86875" lon="-3.54461">
        <ele>4.3</ele>
        <time>2021-11-16T14:31:21.000Z</time>
      </trkpt>
      <trkpt lat="47.86888" lon="-3.54469">
        <ele>4.6</ele>
        <time>2021-11-16T14:31:24.000Z</time>
      </trkpt>
      <trkpt lat="47.86901" lon="-3.54478">
        <ele>3.8</ele>
        <time>2021-11-16T14:31:27.000Z</time>
      </trkpt>
      <trkpt lat="47.86915" lon="-3.54487">
        <ele>4.2</ele>
        <time>2021-11-16T14:31:30.000Z</time>
      </trkpt>
      <trkpt lat="47.86928" lon="-3.54496">
        <ele>4.3</ele>
        <time>2021-11-16T14:31:33.000Z</time>
      </trkpt>
      <trkpt lat="47.86942" lon="-3.54505">
        <ele>5.8</ele>
        <time>2021-11-16T14:31:36.000Z</time>
      </trkpt>
      <trkpt lat="47.86955" lon="-3.54514">
        <ele>3.7</ele>
        <time>2021-11-16T14:31:39.000Z</time>
      </trkpt>
      <trkpt lat="47.86969" lon="-3.54522">
        <ele>5.3</ele>
        <time>2021-11-16T14:31:42.000Z</time>
      </trkpt>
      <trkpt lat="47.86979" lon="-3.54529">
        <ele>5.2</ele>
        <time>2021-11-16T14:31:45.000Z</time>
      </trkpt>
      <trkpt lat="47.86981" lon="-3.54531">
        <ele>4.9</ele>
        <time>2021-11-16T14:31:48.000Z</time>
      </trkpt>
      <trkpt lat="47.86982" lon="-3.54531">
        <ele>5.5</ele>
        <time>2021-11-16T14:31:50.000Z</time>
      </trkpt>
      <trkpt lat="47.86983" lon="-3.54533">
        <ele>5.8</ele>
        <time>2021-11-16T14:31:53.000Z</time>
      </trkpt>
      <trkpt lat="47.86983" lon="-3.54535">
        <ele>6.1</ele>
        <time>2021-11-16T14:31:56.000Z</time>
      </trkpt>
      <trkpt lat="47.86982" lon="-3.54535">
        <ele>6.1</ele>
        <time>2021-11-16T14:31:59.000Z</time>
      </trkpt>
      <trkpt lat="47.86982" lon="-3.54535">
        <ele>6.1</ele>
        <time>2021-11-16T14:32:00.000Z</time>
      </trkpt>
      <trkpt lat="47.86981" lon="-3.54535">
        <ele>6.1</ele>
        <time>2021-11-16T14:32:02.000Z</time>
      </trkpt>
      <trkpt lat="47.86982" lon="-3.54536">
        <ele>6.3</ele>
        <time>2021-11-16T14:32:05.000Z</time>
      </trkpt>
      <trkpt lat="47.86984" lon="-3.54538">
        <ele>5.5</ele>
        <time>2021-11-16T14:32:08.000Z</time>
      </trkpt>
      <trkpt lat="47.8699" lon="-3.54541">
        <ele>5.4</ele>
        <time>2021-11-16T14:32:11.000Z</time>
      </trkpt>
      <trkpt lat="47.86998" lon="-3.54546">
        <ele>5.4</ele>
        <time>2021-11-16T14:32:14.000Z</time>
      </trkpt>
      <trkpt lat="47.87009" lon="-3.5455">
        <ele>5.1</ele>
        <time>2021-11-16T14:32:17.000Z</time>
      </trkpt>
      <trkpt lat="47.8702" lon="-3.54552">
        <ele>5.1</ele>
        <time>2021-11-16T14:32:20.000Z</time>
      </trkpt>
      <trkpt lat="47.87033" lon="-3.54554">
        <ele>4.7</ele>
        <time>2021-11-16T14:32:23.000Z</time>
      </trkpt>
      <trkpt lat="47.87046" lon="-3.54554">
        <ele>4.7</ele>
        <time>2021-11-16T14:32:26.000Z</time>
      </trkpt>
      <trkpt lat="47.8706" lon="-3.54553">
        <ele>4.7</ele>
        <time>2021-11-16T14:32:29.000Z</time>
      </trkpt>
      <trkpt lat="47.87074" lon="-3.54551">
        <ele>4.7</ele>
        <time>2021-11-16T14:32:32.000Z</time>
      </trkpt>
      <trkpt lat="47.87087" lon="-3.54549">
        <ele>5.2</ele>
        <time>2021-11-16T14:32:35.000Z</time>
      </trkpt>
      <trkpt lat="47.871" lon="-3.54547">
        <ele>5</ele>
        <time>2021-11-16T14:32:38.000Z</time>
      </trkpt>
      <trkpt lat="47.87111" lon="-3.54548">
        <ele>5.4</ele>
        <time>2021-11-16T14:32:41.000Z</time>
      </trkpt>
      <trkpt lat="47.87119" lon="-3.54549">
        <ele>5.9</ele>
        <time>2021-11-16T14:32:44.000Z</time>
      </trkpt>
      <trkpt lat="47.87127" lon="-3.54548">
        <ele>5.4</ele>
        <time>2021-11-16T14:32:47.000Z</time>
      </trkpt>
      <trkpt lat="47.87136" lon="-3.54547">
        <ele>7.5</ele>
        <time>2021-11-16T14:32:50.000Z</time>
      </trkpt>
      <trkpt lat="47.87142" lon="-3.54538">
        <ele>7.4</ele>
        <time>2021-11-16T14:32:53.000Z</time>
      </trkpt>
      <trkpt lat="47.87146" lon="-3.54525">
        <ele>5.8</ele>
        <time>2021-11-16T14:32:56.000Z</time>
      </trkpt>
      <trkpt lat="47.87151" lon="-3.54511">
        <ele>6.4</ele>
        <time>2021-11-16T14:32:59.000Z</time>
      </trkpt>
      <trkpt lat="47.87153" lon="-3.54505">
        <ele>7</ele>
        <time>2021-11-16T14:33:02.000Z</time>
      </trkpt>
      <trkpt lat="47.87154" lon="-3.54496">
        <ele>6.2</ele>
        <time>2021-11-16T14:33:05.000Z</time>
      </trkpt>
      <trkpt lat="47.87155" lon="-3.54482">
        <ele>6.8</ele>
        <time>2021-11-16T14:33:08.000Z</time>
      </trkpt>
      <trkpt lat="47.87164" lon="-3.54478">
        <ele>6.8</ele>
        <time>2021-11-16T14:33:11.000Z</time>
      </trkpt>
      <trkpt lat="47.87174" lon="-3.54489">
        <ele>5.3</ele>
        <time>2021-11-16T14:33:14.000Z</time>
      </trkpt>
      <trkpt lat="47.87183" lon="-3.54504">
        <ele>7.9</ele>
        <time>2021-11-16T14:33:17.000Z</time>
      </trkpt>
      <trkpt lat="47.87193" lon="-3.54518">
        <ele>7.8</ele>
        <time>2021-11-16T14:33:20.000Z</time>
      </trkpt>
      <trkpt lat="47.87205" lon="-3.54526">
        <ele>6.4</ele>
        <time>2021-11-16T14:33:23.000Z</time>
      </trkpt>
      <trkpt lat="47.87217" lon="-3.54533">
        <ele>6.9</ele>
        <time>2021-11-16T14:33:26.000Z</time>
      </trkpt>
      <trkpt lat="47.87231" lon="-3.54537">
        <ele>6.2</ele>
        <time>2021-11-16T14:33:29.000Z</time>
      </trkpt>
      <trkpt lat="47.87245" lon="-3.54539">
        <ele>6.3</ele>
        <time>2021-11-16T14:33:32.000Z</time>
      </trkpt>
      <trkpt lat="47.87257" lon="-3.54531">
        <ele>6.9</ele>
        <time>2021-11-16T14:33:35.000Z</time>
      </trkpt>
      <trkpt lat="47.87264" lon="-3.54517">
        <ele>7.8</ele>
        <time>2021-11-16T14:33:38.000Z</time>
      </trkpt>
      <trkpt lat="47.87274" lon="-3.5451">
        <ele>8.1</ele>
        <time>2021-11-16T14:33:41.000Z</time>
      </trkpt>
      <trkpt lat="47.87286" lon="-3.54515">
        <ele>7.8</ele>
        <time>2021-11-16T14:33:44.000Z</time>
      </trkpt>
      <trkpt lat="47.87298" lon="-3.54521">
        <ele>8.2</ele>
        <time>2021-11-16T14:33:47.000Z</time>
      </trkpt>
      <trkpt lat="47.87309" lon="-3.54527">
        <ele>8.2</ele>
        <time>2021-11-16T14:33:50.000Z</time>
      </trkpt>
      <trkpt lat="47.87322" lon="-3.54533">
        <ele>8.3</ele>
        <time>2021-11-16T14:33:53.000Z</time>
      </trkpt>
      <trkpt lat="47.87334" lon="-3.54538">
        <ele>8.3</ele>
        <time>2021-11-16T14:33:56.000Z</time>
      </trkpt>
      <trkpt lat="47.87347" lon="-3.54543">
        <ele>8.7</ele>
        <time>2021-11-16T14:33:59.000Z</time>
      </trkpt>
      <trkpt lat="47.8736" lon="-3.54547">
        <ele>8.2</ele>
        <time>2021-11-16T14:34:02.000Z</time>
      </trkpt>
      <trkpt lat="47.87373" lon="-3.54552">
        <ele>8</ele>
        <time>2021-11-16T14:34:05.000Z</time>
      </trkpt>
      <trkpt lat="47.87387" lon="-3.54556">
        <ele>8.4</ele>
        <time>2021-11-16T14:34:08.000Z</time>
      </trkpt>
      <trkpt lat="47.87399" lon="-3.54558">
        <ele>8.2</ele>
        <time>2021-11-16T14:34:11.000Z</time>
      </trkpt>
      <trkpt lat="47.87403" lon="-3.5456">
        <ele>8.9</ele>
        <time>2021-11-16T14:34:14.000Z</time>
      </trkpt>
      <trkpt lat="47.87403" lon="-3.5456">
        <ele>9</ele>
        <time>2021-11-16T14:34:15.000Z</time>
      </trkpt>
      <trkpt lat="47.87403" lon="-3.5456">
        <ele>9.1</ele>
        <time>2021-11-16T14:34:18.000Z</time>
      </trkpt>
      <trkpt lat="47.87403" lon="-3.5456">
        <ele>9.1</ele>
        <time>2021-11-16T14:34:21.000Z</time>
      </trkpt>
      <trkpt lat="47.87403" lon="-3.5456">
        <ele>9.5</ele>
        <time>2021-11-16T14:34:24.000Z</time>
      </trkpt>
      <trkpt lat="47.87403" lon="-3.5456">
        <ele>9.2</ele>
        <time>2021-11-16T14:34:27.000Z</time>
      </trkpt>
      <trkpt lat="47.87403" lon="-3.5456">
        <ele>9</ele>
        <time>2021-11-16T14:34:30.000Z</time>
      </trkpt>
      <trkpt lat="47.87403" lon="-3.5456">
        <ele>9</ele>
        <time>2021-11-16T14:34:31.000Z</time>
      </trkpt>
      <trkpt lat="47.87406" lon="-3.54562">
        <ele>8.8</ele>
        <time>2021-11-16T14:34:34.000Z</time>
      </trkpt>
      <trkpt lat="47.87413" lon="-3.54564">
        <ele>8.6</ele>
        <time>2021-11-16T14:34:37.000Z</time>
      </trkpt>
      <trkpt lat="47.87422" lon="-3.54572">
        <ele>8.8</ele>
        <time>2021-11-16T14:34:40.000Z</time>
      </trkpt>
      <trkpt lat="47.87426" lon="-3.54588">
        <ele>7.8</ele>
        <time>2021-11-16T14:34:43.000Z</time>
      </trkpt>
      <trkpt lat="47.87427" lon="-3.54604">
        <ele>8.9</ele>
        <time>2021-11-16T14:34:46.000Z</time>
      </trkpt>
      <trkpt lat="47.87425" lon="-3.54613">
        <ele>9.4</ele>
        <time>2021-11-16T14:34:49.000Z</time>
      </trkpt>
    </trkseg>
  </trk>
</gpx>